<?xml version="1.0" encoding="UTF-8" standalone="no" ?>
<gpx xmlns="http://www.topografix.com/GPX/1/1" xmlns:xsi="http://www.w3.org/2001/XMLSchema-instance" xsi:schemaLocation="http://www.topografix.com/GPX/1/1 http://www.topografix.com/GPX/1/1/gpx.xsd" version="1.1" creator="VisuGPX - https://www.visugpx.com">
  <metadata>
    <name>Aller retour Laragne col de Macuègne par les gorges de la Méouge</name>
    <desc><![CDATA[Parcours montant à l'aller, avec sur la fin la monter du col de Macuègne (5 km et 268 m de dénivelé). Nous avons eu un vent de face tout au long du circuit aller.
C'est un très joli parcours empruntant les gorges de la Méouge  ]]></desc>
  </metadata>
  <trk>
    <name><![CDATA[col de Macuegue]]></name>
    <trkseg>
      <trkpt lat="44.31596" lon="5.82943">
        <ele>577</ele>
        <time>2019-03-27T12:53:52Z</time>
      </trkpt>
      <trkpt lat="44.31571" lon="5.82924">
        <ele>571</ele>
        <time>2019-03-27T12:54:23Z</time>
      </trkpt>
      <trkpt lat="44.31567" lon="5.82922">
        <ele>571</ele>
        <time>2019-03-27T12:54:24Z</time>
      </trkpt>
      <trkpt lat="44.31564" lon="5.8292">
        <ele>571</ele>
        <time>2019-03-27T12:54:25Z</time>
      </trkpt>
      <trkpt lat="44.3156" lon="5.82917">
        <ele>571</ele>
        <time>2019-03-27T12:54:26Z</time>
      </trkpt>
      <trkpt lat="44.31557" lon="5.82915">
        <ele>571</ele>
        <time>2019-03-27T12:54:27Z</time>
      </trkpt>
      <trkpt lat="44.31555" lon="5.82914">
        <ele>571</ele>
        <time>2019-03-27T12:54:28Z</time>
      </trkpt>
      <trkpt lat="44.31553" lon="5.82913">
        <ele>571</ele>
        <time>2019-03-27T12:54:29Z</time>
      </trkpt>
      <trkpt lat="44.31552" lon="5.82912">
        <ele>571</ele>
        <time>2019-03-27T12:54:30Z</time>
      </trkpt>
      <trkpt lat="44.3155" lon="5.8291">
        <ele>571</ele>
        <time>2019-03-27T12:54:31Z</time>
      </trkpt>
      <trkpt lat="44.31548" lon="5.82908">
        <ele>571</ele>
        <time>2019-03-27T12:54:32Z</time>
      </trkpt>
      <trkpt lat="44.31545" lon="5.82906">
        <ele>571</ele>
        <time>2019-03-27T12:54:33Z</time>
      </trkpt>
      <trkpt lat="44.31542" lon="5.82903">
        <ele>571</ele>
        <time>2019-03-27T12:54:34Z</time>
      </trkpt>
      <trkpt lat="44.31539" lon="5.82901">
        <ele>571</ele>
        <time>2019-03-27T12:54:35Z</time>
      </trkpt>
      <trkpt lat="44.31536" lon="5.82898">
        <ele>571</ele>
        <time>2019-03-27T12:54:36Z</time>
      </trkpt>
      <trkpt lat="44.31533" lon="5.82895">
        <ele>571</ele>
        <time>2019-03-27T12:54:37Z</time>
      </trkpt>
      <trkpt lat="44.31531" lon="5.82892">
        <ele>571</ele>
        <time>2019-03-27T12:54:38Z</time>
      </trkpt>
      <trkpt lat="44.31529" lon="5.8289">
        <ele>571</ele>
        <time>2019-03-27T12:54:39Z</time>
      </trkpt>
      <trkpt lat="44.31527" lon="5.82887">
        <ele>571</ele>
        <time>2019-03-27T12:54:40Z</time>
      </trkpt>
      <trkpt lat="44.31525" lon="5.82885">
        <ele>571</ele>
        <time>2019-03-27T12:54:41Z</time>
      </trkpt>
      <trkpt lat="44.31522" lon="5.82883">
        <ele>571</ele>
        <time>2019-03-27T12:54:42Z</time>
      </trkpt>
      <trkpt lat="44.3152" lon="5.82881">
        <ele>571</ele>
        <time>2019-03-27T12:54:43Z</time>
      </trkpt>
      <trkpt lat="44.31517" lon="5.82879">
        <ele>571</ele>
        <time>2019-03-27T12:54:44Z</time>
      </trkpt>
      <trkpt lat="44.31514" lon="5.82876">
        <ele>571</ele>
        <time>2019-03-27T12:54:45Z</time>
      </trkpt>
      <trkpt lat="44.31512" lon="5.82874">
        <ele>571</ele>
        <time>2019-03-27T12:54:46Z</time>
      </trkpt>
      <trkpt lat="44.31509" lon="5.82871">
        <ele>571</ele>
        <time>2019-03-27T12:54:47Z</time>
      </trkpt>
      <trkpt lat="44.31506" lon="5.8287">
        <ele>571</ele>
        <time>2019-03-27T12:54:48Z</time>
      </trkpt>
      <trkpt lat="44.31503" lon="5.8287">
        <ele>571</ele>
        <time>2019-03-27T12:54:49Z</time>
      </trkpt>
      <trkpt lat="44.31499" lon="5.82871">
        <ele>571</ele>
        <time>2019-03-27T12:54:50Z</time>
      </trkpt>
      <trkpt lat="44.31496" lon="5.82874">
        <ele>571</ele>
        <time>2019-03-27T12:54:51Z</time>
      </trkpt>
      <trkpt lat="44.31493" lon="5.82877">
        <ele>571</ele>
        <time>2019-03-27T12:54:52Z</time>
      </trkpt>
      <trkpt lat="44.31491" lon="5.82881">
        <ele>571</ele>
        <time>2019-03-27T12:54:53Z</time>
      </trkpt>
      <trkpt lat="44.31489" lon="5.82885">
        <ele>571</ele>
        <time>2019-03-27T12:54:54Z</time>
      </trkpt>
      <trkpt lat="44.31486" lon="5.82889">
        <ele>571</ele>
        <time>2019-03-27T12:54:55Z</time>
      </trkpt>
      <trkpt lat="44.31484" lon="5.82892">
        <ele>571</ele>
        <time>2019-03-27T12:54:56Z</time>
      </trkpt>
      <trkpt lat="44.31481" lon="5.82895">
        <ele>571</ele>
        <time>2019-03-27T12:54:57Z</time>
      </trkpt>
      <trkpt lat="44.31479" lon="5.82899">
        <ele>571</ele>
        <time>2019-03-27T12:54:58Z</time>
      </trkpt>
      <trkpt lat="44.31476" lon="5.82902">
        <ele>571</ele>
        <time>2019-03-27T12:54:59Z</time>
      </trkpt>
      <trkpt lat="44.31473" lon="5.82905">
        <ele>571</ele>
        <time>2019-03-27T12:55:00Z</time>
      </trkpt>
      <trkpt lat="44.31471" lon="5.82909">
        <ele>571</ele>
        <time>2019-03-27T12:55:01Z</time>
      </trkpt>
      <trkpt lat="44.31468" lon="5.82912">
        <ele>571</ele>
        <time>2019-03-27T12:55:02Z</time>
      </trkpt>
      <trkpt lat="44.31467" lon="5.82916">
        <ele>571</ele>
        <time>2019-03-27T12:55:03Z</time>
      </trkpt>
      <trkpt lat="44.31465" lon="5.8292">
        <ele>571</ele>
        <time>2019-03-27T12:55:04Z</time>
      </trkpt>
      <trkpt lat="44.31463" lon="5.82923">
        <ele>571</ele>
        <time>2019-03-27T12:55:05Z</time>
      </trkpt>
      <trkpt lat="44.3146" lon="5.82927">
        <ele>571</ele>
        <time>2019-03-27T12:55:06Z</time>
      </trkpt>
      <trkpt lat="44.31457" lon="5.82931">
        <ele>571</ele>
        <time>2019-03-27T12:55:07Z</time>
      </trkpt>
      <trkpt lat="44.31454" lon="5.82936">
        <ele>571</ele>
        <time>2019-03-27T12:55:08Z</time>
      </trkpt>
      <trkpt lat="44.31451" lon="5.8294">
        <ele>571</ele>
        <time>2019-03-27T12:55:09Z</time>
      </trkpt>
      <trkpt lat="44.31448" lon="5.82945">
        <ele>571</ele>
        <time>2019-03-27T12:55:10Z</time>
      </trkpt>
      <trkpt lat="44.31445" lon="5.82949">
        <ele>571</ele>
        <time>2019-03-27T12:55:11Z</time>
      </trkpt>
      <trkpt lat="44.31442" lon="5.82953">
        <ele>571</ele>
        <time>2019-03-27T12:55:12Z</time>
      </trkpt>
      <trkpt lat="44.31439" lon="5.82957">
        <ele>571</ele>
        <time>2019-03-27T12:55:13Z</time>
      </trkpt>
      <trkpt lat="44.31435" lon="5.82961">
        <ele>571</ele>
        <time>2019-03-27T12:55:14Z</time>
      </trkpt>
      <trkpt lat="44.31432" lon="5.82966">
        <ele>571</ele>
        <time>2019-03-27T12:55:15Z</time>
      </trkpt>
      <trkpt lat="44.31429" lon="5.8297">
        <ele>571</ele>
        <time>2019-03-27T12:55:16Z</time>
      </trkpt>
      <trkpt lat="44.31427" lon="5.82974">
        <ele>571</ele>
        <time>2019-03-27T12:55:17Z</time>
      </trkpt>
      <trkpt lat="44.31424" lon="5.82978">
        <ele>571</ele>
        <time>2019-03-27T12:55:18Z</time>
      </trkpt>
      <trkpt lat="44.31421" lon="5.82982">
        <ele>571</ele>
        <time>2019-03-27T12:55:19Z</time>
      </trkpt>
      <trkpt lat="44.31418" lon="5.82986">
        <ele>571</ele>
        <time>2019-03-27T12:55:20Z</time>
      </trkpt>
      <trkpt lat="44.31415" lon="5.82991">
        <ele>571</ele>
        <time>2019-03-27T12:55:21Z</time>
      </trkpt>
      <trkpt lat="44.31412" lon="5.82995">
        <ele>571</ele>
        <time>2019-03-27T12:55:22Z</time>
      </trkpt>
      <trkpt lat="44.31409" lon="5.82999">
        <ele>571</ele>
        <time>2019-03-27T12:55:23Z</time>
      </trkpt>
      <trkpt lat="44.31407" lon="5.83003">
        <ele>571</ele>
        <time>2019-03-27T12:55:24Z</time>
      </trkpt>
      <trkpt lat="44.31404" lon="5.83006">
        <ele>571</ele>
        <time>2019-03-27T12:55:25Z</time>
      </trkpt>
      <trkpt lat="44.31401" lon="5.8301">
        <ele>571</ele>
        <time>2019-03-27T12:55:26Z</time>
      </trkpt>
      <trkpt lat="44.31399" lon="5.83014">
        <ele>571</ele>
        <time>2019-03-27T12:55:27Z</time>
      </trkpt>
      <trkpt lat="44.31396" lon="5.83018">
        <ele>571</ele>
        <time>2019-03-27T12:55:28Z</time>
      </trkpt>
      <trkpt lat="44.31393" lon="5.83022">
        <ele>571</ele>
        <time>2019-03-27T12:55:29Z</time>
      </trkpt>
      <trkpt lat="44.3139" lon="5.83026">
        <ele>571</ele>
        <time>2019-03-27T12:55:30Z</time>
      </trkpt>
      <trkpt lat="44.31388" lon="5.8303">
        <ele>571</ele>
        <time>2019-03-27T12:55:31Z</time>
      </trkpt>
      <trkpt lat="44.31385" lon="5.83034">
        <ele>571</ele>
        <time>2019-03-27T12:55:32Z</time>
      </trkpt>
      <trkpt lat="44.31382" lon="5.83037">
        <ele>571</ele>
        <time>2019-03-27T12:55:33Z</time>
      </trkpt>
      <trkpt lat="44.31379" lon="5.83041">
        <ele>571</ele>
        <time>2019-03-27T12:55:34Z</time>
      </trkpt>
      <trkpt lat="44.31377" lon="5.83045">
        <ele>571</ele>
        <time>2019-03-27T12:55:35Z</time>
      </trkpt>
      <trkpt lat="44.31374" lon="5.83049">
        <ele>571</ele>
        <time>2019-03-27T12:55:36Z</time>
      </trkpt>
      <trkpt lat="44.31372" lon="5.83053">
        <ele>571</ele>
        <time>2019-03-27T12:55:37Z</time>
      </trkpt>
      <trkpt lat="44.3137" lon="5.83057">
        <ele>571</ele>
        <time>2019-03-27T12:55:38Z</time>
      </trkpt>
      <trkpt lat="44.31368" lon="5.83061">
        <ele>571</ele>
        <time>2019-03-27T12:55:39Z</time>
      </trkpt>
      <trkpt lat="44.31366" lon="5.83065">
        <ele>571</ele>
        <time>2019-03-27T12:55:40Z</time>
      </trkpt>
      <trkpt lat="44.31364" lon="5.8307">
        <ele>571</ele>
        <time>2019-03-27T12:55:41Z</time>
      </trkpt>
      <trkpt lat="44.31363" lon="5.83074">
        <ele>571</ele>
        <time>2019-03-27T12:55:42Z</time>
      </trkpt>
      <trkpt lat="44.31361" lon="5.83078">
        <ele>571</ele>
        <time>2019-03-27T12:55:43Z</time>
      </trkpt>
      <trkpt lat="44.31361" lon="5.83082">
        <ele>571</ele>
        <time>2019-03-27T12:55:44Z</time>
      </trkpt>
      <trkpt lat="44.3136" lon="5.83086">
        <ele>571</ele>
        <time>2019-03-27T12:55:45Z</time>
      </trkpt>
      <trkpt lat="44.31359" lon="5.8309">
        <ele>571</ele>
        <time>2019-03-27T12:55:46Z</time>
      </trkpt>
      <trkpt lat="44.31357" lon="5.83092">
        <ele>571</ele>
        <time>2019-03-27T12:55:47Z</time>
      </trkpt>
      <trkpt lat="44.31354" lon="5.83096">
        <ele>571</ele>
        <time>2019-03-27T12:55:48Z</time>
      </trkpt>
      <trkpt lat="44.31351" lon="5.83098">
        <ele>572</ele>
        <time>2019-03-27T12:55:49Z</time>
      </trkpt>
      <trkpt lat="44.31349" lon="5.83099">
        <ele>572</ele>
        <time>2019-03-27T12:55:50Z</time>
      </trkpt>
      <trkpt lat="44.31348" lon="5.83099">
        <ele>572</ele>
        <time>2019-03-27T12:55:51Z</time>
      </trkpt>
      <trkpt lat="44.31347" lon="5.83097">
        <ele>573</ele>
        <time>2019-03-27T12:55:53Z</time>
      </trkpt>
      <trkpt lat="44.31345" lon="5.83095">
        <ele>573</ele>
        <time>2019-03-27T12:55:55Z</time>
      </trkpt>
      <trkpt lat="44.31343" lon="5.83092">
        <ele>573</ele>
        <time>2019-03-27T12:55:56Z</time>
      </trkpt>
      <trkpt lat="44.31343" lon="5.83087">
        <ele>573</ele>
        <time>2019-03-27T12:55:57Z</time>
      </trkpt>
      <trkpt lat="44.31344" lon="5.83083">
        <ele>573</ele>
        <time>2019-03-27T12:55:58Z</time>
      </trkpt>
      <trkpt lat="44.31344" lon="5.83078">
        <ele>573</ele>
        <time>2019-03-27T12:55:59Z</time>
      </trkpt>
      <trkpt lat="44.31345" lon="5.83073">
        <ele>573</ele>
        <time>2019-03-27T12:56:00Z</time>
      </trkpt>
      <trkpt lat="44.31346" lon="5.83068">
        <ele>573</ele>
        <time>2019-03-27T12:56:01Z</time>
      </trkpt>
      <trkpt lat="44.31347" lon="5.83063">
        <ele>573</ele>
        <time>2019-03-27T12:56:02Z</time>
      </trkpt>
      <trkpt lat="44.31348" lon="5.83058">
        <ele>573</ele>
        <time>2019-03-27T12:56:03Z</time>
      </trkpt>
      <trkpt lat="44.3135" lon="5.83053">
        <ele>573</ele>
        <time>2019-03-27T12:56:04Z</time>
      </trkpt>
      <trkpt lat="44.31351" lon="5.83047">
        <ele>573</ele>
        <time>2019-03-27T12:56:05Z</time>
      </trkpt>
      <trkpt lat="44.31352" lon="5.83042">
        <ele>573</ele>
        <time>2019-03-27T12:56:06Z</time>
      </trkpt>
      <trkpt lat="44.31353" lon="5.83036">
        <ele>573</ele>
        <time>2019-03-27T12:56:07Z</time>
      </trkpt>
      <trkpt lat="44.31354" lon="5.8303">
        <ele>573</ele>
        <time>2019-03-27T12:56:08Z</time>
      </trkpt>
      <trkpt lat="44.31355" lon="5.83024">
        <ele>573</ele>
        <time>2019-03-27T12:56:09Z</time>
      </trkpt>
      <trkpt lat="44.31356" lon="5.83017">
        <ele>573</ele>
        <time>2019-03-27T12:56:10Z</time>
      </trkpt>
      <trkpt lat="44.31357" lon="5.8301">
        <ele>573</ele>
        <time>2019-03-27T12:56:11Z</time>
      </trkpt>
      <trkpt lat="44.31358" lon="5.83004">
        <ele>573</ele>
        <time>2019-03-27T12:56:12Z</time>
      </trkpt>
      <trkpt lat="44.31359" lon="5.82996">
        <ele>573</ele>
        <time>2019-03-27T12:56:13Z</time>
      </trkpt>
      <trkpt lat="44.3136" lon="5.82989">
        <ele>573</ele>
        <time>2019-03-27T12:56:14Z</time>
      </trkpt>
      <trkpt lat="44.31361" lon="5.82981">
        <ele>573</ele>
        <time>2019-03-27T12:56:15Z</time>
      </trkpt>
      <trkpt lat="44.31361" lon="5.82973">
        <ele>573</ele>
        <time>2019-03-27T12:56:16Z</time>
      </trkpt>
      <trkpt lat="44.31363" lon="5.82965">
        <ele>573</ele>
        <time>2019-03-27T12:56:17Z</time>
      </trkpt>
      <trkpt lat="44.31364" lon="5.82956">
        <ele>572</ele>
        <time>2019-03-27T12:56:18Z</time>
      </trkpt>
      <trkpt lat="44.31364" lon="5.82947">
        <ele>572</ele>
        <time>2019-03-27T12:56:19Z</time>
      </trkpt>
      <trkpt lat="44.31366" lon="5.82939">
        <ele>572</ele>
        <time>2019-03-27T12:56:20Z</time>
      </trkpt>
      <trkpt lat="44.31367" lon="5.82931">
        <ele>572</ele>
        <time>2019-03-27T12:56:21Z</time>
      </trkpt>
      <trkpt lat="44.31369" lon="5.82922">
        <ele>571</ele>
        <time>2019-03-27T12:56:22Z</time>
      </trkpt>
      <trkpt lat="44.31369" lon="5.82913">
        <ele>571</ele>
        <time>2019-03-27T12:56:23Z</time>
      </trkpt>
      <trkpt lat="44.3137" lon="5.82904">
        <ele>571</ele>
        <time>2019-03-27T12:56:24Z</time>
      </trkpt>
      <trkpt lat="44.31371" lon="5.82896">
        <ele>571</ele>
        <time>2019-03-27T12:56:25Z</time>
      </trkpt>
      <trkpt lat="44.31372" lon="5.82888">
        <ele>571</ele>
        <time>2019-03-27T12:56:26Z</time>
      </trkpt>
      <trkpt lat="44.31373" lon="5.82879">
        <ele>571</ele>
        <time>2019-03-27T12:56:27Z</time>
      </trkpt>
      <trkpt lat="44.31374" lon="5.8287">
        <ele>571</ele>
        <time>2019-03-27T12:56:28Z</time>
      </trkpt>
      <trkpt lat="44.31375" lon="5.82862">
        <ele>571</ele>
        <time>2019-03-27T12:56:29Z</time>
      </trkpt>
      <trkpt lat="44.31376" lon="5.82853">
        <ele>570</ele>
        <time>2019-03-27T12:56:30Z</time>
      </trkpt>
      <trkpt lat="44.31376" lon="5.82845">
        <ele>570</ele>
        <time>2019-03-27T12:56:31Z</time>
      </trkpt>
      <trkpt lat="44.31377" lon="5.82837">
        <ele>570</ele>
        <time>2019-03-27T12:56:32Z</time>
      </trkpt>
      <trkpt lat="44.31378" lon="5.82829">
        <ele>570</ele>
        <time>2019-03-27T12:56:33Z</time>
      </trkpt>
      <trkpt lat="44.31379" lon="5.8282">
        <ele>570</ele>
        <time>2019-03-27T12:56:34Z</time>
      </trkpt>
      <trkpt lat="44.31379" lon="5.82812">
        <ele>570</ele>
        <time>2019-03-27T12:56:35Z</time>
      </trkpt>
      <trkpt lat="44.3138" lon="5.82804">
        <ele>570</ele>
        <time>2019-03-27T12:56:36Z</time>
      </trkpt>
      <trkpt lat="44.3138" lon="5.82795">
        <ele>570</ele>
        <time>2019-03-27T12:56:37Z</time>
      </trkpt>
      <trkpt lat="44.3138" lon="5.82787">
        <ele>570</ele>
        <time>2019-03-27T12:56:38Z</time>
      </trkpt>
      <trkpt lat="44.3138" lon="5.82779">
        <ele>570</ele>
        <time>2019-03-27T12:56:39Z</time>
      </trkpt>
      <trkpt lat="44.31381" lon="5.82771">
        <ele>570</ele>
        <time>2019-03-27T12:56:40Z</time>
      </trkpt>
      <trkpt lat="44.31381" lon="5.82763">
        <ele>570</ele>
        <time>2019-03-27T12:56:41Z</time>
      </trkpt>
      <trkpt lat="44.31381" lon="5.82755">
        <ele>570</ele>
        <time>2019-03-27T12:56:42Z</time>
      </trkpt>
      <trkpt lat="44.3138" lon="5.82748">
        <ele>569</ele>
        <time>2019-03-27T12:56:43Z</time>
      </trkpt>
      <trkpt lat="44.3138" lon="5.8274">
        <ele>569</ele>
        <time>2019-03-27T12:56:44Z</time>
      </trkpt>
      <trkpt lat="44.31379" lon="5.82732">
        <ele>569</ele>
        <time>2019-03-27T12:56:45Z</time>
      </trkpt>
      <trkpt lat="44.31379" lon="5.82725">
        <ele>569</ele>
        <time>2019-03-27T12:56:46Z</time>
      </trkpt>
      <trkpt lat="44.31378" lon="5.82719">
        <ele>569</ele>
        <time>2019-03-27T12:56:47Z</time>
      </trkpt>
      <trkpt lat="44.31377" lon="5.82714">
        <ele>569</ele>
        <time>2019-03-27T12:56:48Z</time>
      </trkpt>
      <trkpt lat="44.31377" lon="5.8271">
        <ele>569</ele>
        <time>2019-03-27T12:56:49Z</time>
      </trkpt>
      <trkpt lat="44.31376" lon="5.82706">
        <ele>569</ele>
        <time>2019-03-27T12:56:50Z</time>
      </trkpt>
      <trkpt lat="44.31376" lon="5.82701">
        <ele>569</ele>
        <time>2019-03-27T12:56:51Z</time>
      </trkpt>
      <trkpt lat="44.31375" lon="5.82697">
        <ele>569</ele>
        <time>2019-03-27T12:56:52Z</time>
      </trkpt>
      <trkpt lat="44.31374" lon="5.82692">
        <ele>569</ele>
        <time>2019-03-27T12:56:53Z</time>
      </trkpt>
      <trkpt lat="44.31372" lon="5.82689">
        <ele>569</ele>
        <time>2019-03-27T12:56:54Z</time>
      </trkpt>
      <trkpt lat="44.31369" lon="5.82687">
        <ele>569</ele>
        <time>2019-03-27T12:56:55Z</time>
      </trkpt>
      <trkpt lat="44.31366" lon="5.82684">
        <ele>569</ele>
        <time>2019-03-27T12:56:56Z</time>
      </trkpt>
      <trkpt lat="44.31363" lon="5.82682">
        <ele>569</ele>
        <time>2019-03-27T12:56:57Z</time>
      </trkpt>
      <trkpt lat="44.31359" lon="5.8268">
        <ele>569</ele>
        <time>2019-03-27T12:56:58Z</time>
      </trkpt>
      <trkpt lat="44.31356" lon="5.82678">
        <ele>569</ele>
        <time>2019-03-27T12:56:59Z</time>
      </trkpt>
      <trkpt lat="44.31351" lon="5.82676">
        <ele>569</ele>
        <time>2019-03-27T12:57:00Z</time>
      </trkpt>
      <trkpt lat="44.31348" lon="5.82674">
        <ele>569</ele>
        <time>2019-03-27T12:57:01Z</time>
      </trkpt>
      <trkpt lat="44.31343" lon="5.82672">
        <ele>569</ele>
        <time>2019-03-27T12:57:02Z</time>
      </trkpt>
      <trkpt lat="44.31339" lon="5.8267">
        <ele>569</ele>
        <time>2019-03-27T12:57:03Z</time>
      </trkpt>
      <trkpt lat="44.31335" lon="5.82668">
        <ele>569</ele>
        <time>2019-03-27T12:57:04Z</time>
      </trkpt>
      <trkpt lat="44.3133" lon="5.82665">
        <ele>569</ele>
        <time>2019-03-27T12:57:05Z</time>
      </trkpt>
      <trkpt lat="44.31326" lon="5.82663">
        <ele>569</ele>
        <time>2019-03-27T12:57:06Z</time>
      </trkpt>
      <trkpt lat="44.31321" lon="5.8266">
        <ele>569</ele>
        <time>2019-03-27T12:57:07Z</time>
      </trkpt>
      <trkpt lat="44.31316" lon="5.82657">
        <ele>569</ele>
        <time>2019-03-27T12:57:08Z</time>
      </trkpt>
      <trkpt lat="44.31311" lon="5.82653">
        <ele>569</ele>
        <time>2019-03-27T12:57:09Z</time>
      </trkpt>
      <trkpt lat="44.31304" lon="5.82649">
        <ele>569</ele>
        <time>2019-03-27T12:57:10Z</time>
      </trkpt>
      <trkpt lat="44.31298" lon="5.82644">
        <ele>569</ele>
        <time>2019-03-27T12:57:11Z</time>
      </trkpt>
      <trkpt lat="44.31291" lon="5.8264">
        <ele>569</ele>
        <time>2019-03-27T12:57:12Z</time>
      </trkpt>
      <trkpt lat="44.31284" lon="5.82635">
        <ele>569</ele>
        <time>2019-03-27T12:57:13Z</time>
      </trkpt>
      <trkpt lat="44.31276" lon="5.82631">
        <ele>569</ele>
        <time>2019-03-27T12:57:14Z</time>
      </trkpt>
      <trkpt lat="44.31268" lon="5.82626">
        <ele>569</ele>
        <time>2019-03-27T12:57:15Z</time>
      </trkpt>
      <trkpt lat="44.31261" lon="5.82622">
        <ele>568</ele>
        <time>2019-03-27T12:57:16Z</time>
      </trkpt>
      <trkpt lat="44.31253" lon="5.82617">
        <ele>568</ele>
        <time>2019-03-27T12:57:17Z</time>
      </trkpt>
      <trkpt lat="44.31245" lon="5.82613">
        <ele>568</ele>
        <time>2019-03-27T12:57:18Z</time>
      </trkpt>
      <trkpt lat="44.31237" lon="5.82609">
        <ele>567</ele>
        <time>2019-03-27T12:57:19Z</time>
      </trkpt>
      <trkpt lat="44.3123" lon="5.82604">
        <ele>567</ele>
        <time>2019-03-27T12:57:20Z</time>
      </trkpt>
      <trkpt lat="44.31223" lon="5.826">
        <ele>567</ele>
        <time>2019-03-27T12:57:21Z</time>
      </trkpt>
      <trkpt lat="44.31215" lon="5.82596">
        <ele>566</ele>
        <time>2019-03-27T12:57:22Z</time>
      </trkpt>
      <trkpt lat="44.31208" lon="5.82592">
        <ele>566</ele>
        <time>2019-03-27T12:57:23Z</time>
      </trkpt>
      <trkpt lat="44.31201" lon="5.82588">
        <ele>566</ele>
        <time>2019-03-27T12:57:24Z</time>
      </trkpt>
      <trkpt lat="44.31194" lon="5.82584">
        <ele>566</ele>
        <time>2019-03-27T12:57:25Z</time>
      </trkpt>
      <trkpt lat="44.31187" lon="5.82581">
        <ele>566</ele>
        <time>2019-03-27T12:57:26Z</time>
      </trkpt>
      <trkpt lat="44.31181" lon="5.82577">
        <ele>566</ele>
        <time>2019-03-27T12:57:27Z</time>
      </trkpt>
      <trkpt lat="44.31174" lon="5.82573">
        <ele>566</ele>
        <time>2019-03-27T12:57:28Z</time>
      </trkpt>
      <trkpt lat="44.31167" lon="5.82569">
        <ele>566</ele>
        <time>2019-03-27T12:57:29Z</time>
      </trkpt>
      <trkpt lat="44.31161" lon="5.82566">
        <ele>566</ele>
        <time>2019-03-27T12:57:30Z</time>
      </trkpt>
      <trkpt lat="44.31155" lon="5.82562">
        <ele>566</ele>
        <time>2019-03-27T12:57:31Z</time>
      </trkpt>
      <trkpt lat="44.31149" lon="5.82559">
        <ele>566</ele>
        <time>2019-03-27T12:57:32Z</time>
      </trkpt>
      <trkpt lat="44.31143" lon="5.82556">
        <ele>566</ele>
        <time>2019-03-27T12:57:33Z</time>
      </trkpt>
      <trkpt lat="44.31137" lon="5.82553">
        <ele>566</ele>
        <time>2019-03-27T12:57:34Z</time>
      </trkpt>
      <trkpt lat="44.31131" lon="5.8255">
        <ele>566</ele>
        <time>2019-03-27T12:57:35Z</time>
      </trkpt>
      <trkpt lat="44.31126" lon="5.82547">
        <ele>566</ele>
        <time>2019-03-27T12:57:36Z</time>
      </trkpt>
      <trkpt lat="44.31121" lon="5.82544">
        <ele>566</ele>
        <time>2019-03-27T12:57:37Z</time>
      </trkpt>
      <trkpt lat="44.31115" lon="5.82541">
        <ele>566</ele>
        <time>2019-03-27T12:57:38Z</time>
      </trkpt>
      <trkpt lat="44.3111" lon="5.82538">
        <ele>566</ele>
        <time>2019-03-27T12:57:39Z</time>
      </trkpt>
      <trkpt lat="44.31105" lon="5.82536">
        <ele>566</ele>
        <time>2019-03-27T12:57:40Z</time>
      </trkpt>
      <trkpt lat="44.311" lon="5.82533">
        <ele>566</ele>
        <time>2019-03-27T12:57:41Z</time>
      </trkpt>
      <trkpt lat="44.31096" lon="5.8253">
        <ele>566</ele>
        <time>2019-03-27T12:57:42Z</time>
      </trkpt>
      <trkpt lat="44.31091" lon="5.82528">
        <ele>566</ele>
        <time>2019-03-27T12:57:43Z</time>
      </trkpt>
      <trkpt lat="44.31087" lon="5.82525">
        <ele>566</ele>
        <time>2019-03-27T12:57:44Z</time>
      </trkpt>
      <trkpt lat="44.31083" lon="5.82521">
        <ele>566</ele>
        <time>2019-03-27T12:57:45Z</time>
      </trkpt>
      <trkpt lat="44.3108" lon="5.82517">
        <ele>566</ele>
        <time>2019-03-27T12:57:46Z</time>
      </trkpt>
      <trkpt lat="44.31077" lon="5.82512">
        <ele>566</ele>
        <time>2019-03-27T12:57:47Z</time>
      </trkpt>
      <trkpt lat="44.31075" lon="5.82507">
        <ele>566</ele>
        <time>2019-03-27T12:57:48Z</time>
      </trkpt>
      <trkpt lat="44.31073" lon="5.82502">
        <ele>566</ele>
        <time>2019-03-27T12:57:49Z</time>
      </trkpt>
      <trkpt lat="44.31073" lon="5.82496">
        <ele>566</ele>
        <time>2019-03-27T12:57:50Z</time>
      </trkpt>
      <trkpt lat="44.31073" lon="5.8249">
        <ele>566</ele>
        <time>2019-03-27T12:57:51Z</time>
      </trkpt>
      <trkpt lat="44.31075" lon="5.82485">
        <ele>566</ele>
        <time>2019-03-27T12:57:52Z</time>
      </trkpt>
      <trkpt lat="44.31076" lon="5.8248">
        <ele>566</ele>
        <time>2019-03-27T12:57:53Z</time>
      </trkpt>
      <trkpt lat="44.31078" lon="5.82475">
        <ele>565</ele>
        <time>2019-03-27T12:57:54Z</time>
      </trkpt>
      <trkpt lat="44.3108" lon="5.8247">
        <ele>565</ele>
        <time>2019-03-27T12:57:55Z</time>
      </trkpt>
      <trkpt lat="44.31082" lon="5.82466">
        <ele>565</ele>
        <time>2019-03-27T12:57:56Z</time>
      </trkpt>
      <trkpt lat="44.31084" lon="5.82462">
        <ele>565</ele>
        <time>2019-03-27T12:57:57Z</time>
      </trkpt>
      <trkpt lat="44.31086" lon="5.82458">
        <ele>565</ele>
        <time>2019-03-27T12:57:58Z</time>
      </trkpt>
      <trkpt lat="44.31087" lon="5.82454">
        <ele>565</ele>
        <time>2019-03-27T12:57:59Z</time>
      </trkpt>
      <trkpt lat="44.31089" lon="5.82451">
        <ele>565</ele>
        <time>2019-03-27T12:58:00Z</time>
      </trkpt>
      <trkpt lat="44.31091" lon="5.82448">
        <ele>565</ele>
        <time>2019-03-27T12:58:01Z</time>
      </trkpt>
      <trkpt lat="44.31092" lon="5.82444">
        <ele>565</ele>
        <time>2019-03-27T12:58:02Z</time>
      </trkpt>
      <trkpt lat="44.31094" lon="5.82442">
        <ele>565</ele>
        <time>2019-03-27T12:58:03Z</time>
      </trkpt>
      <trkpt lat="44.31095" lon="5.82438">
        <ele>565</ele>
        <time>2019-03-27T12:58:04Z</time>
      </trkpt>
      <trkpt lat="44.31097" lon="5.82435">
        <ele>565</ele>
        <time>2019-03-27T12:58:05Z</time>
      </trkpt>
      <trkpt lat="44.31099" lon="5.8243">
        <ele>564</ele>
        <time>2019-03-27T12:58:06Z</time>
      </trkpt>
      <trkpt lat="44.31101" lon="5.82425">
        <ele>564</ele>
        <time>2019-03-27T12:58:07Z</time>
      </trkpt>
      <trkpt lat="44.31105" lon="5.82419">
        <ele>564</ele>
        <time>2019-03-27T12:58:08Z</time>
      </trkpt>
      <trkpt lat="44.31108" lon="5.82414">
        <ele>564</ele>
        <time>2019-03-27T12:58:09Z</time>
      </trkpt>
      <trkpt lat="44.3111" lon="5.82406">
        <ele>564</ele>
        <time>2019-03-27T12:58:10Z</time>
      </trkpt>
      <trkpt lat="44.31111" lon="5.82399">
        <ele>564</ele>
        <time>2019-03-27T12:58:11Z</time>
      </trkpt>
      <trkpt lat="44.31112" lon="5.82391">
        <ele>563</ele>
        <time>2019-03-27T12:58:12Z</time>
      </trkpt>
      <trkpt lat="44.31112" lon="5.82383">
        <ele>563</ele>
        <time>2019-03-27T12:58:13Z</time>
      </trkpt>
      <trkpt lat="44.31112" lon="5.82375">
        <ele>563</ele>
        <time>2019-03-27T12:58:14Z</time>
      </trkpt>
      <trkpt lat="44.31113" lon="5.82367">
        <ele>562</ele>
        <time>2019-03-27T12:58:15Z</time>
      </trkpt>
      <trkpt lat="44.31115" lon="5.8236">
        <ele>562</ele>
        <time>2019-03-27T12:58:16Z</time>
      </trkpt>
      <trkpt lat="44.31118" lon="5.82353">
        <ele>562</ele>
        <time>2019-03-27T12:58:17Z</time>
      </trkpt>
      <trkpt lat="44.31121" lon="5.82347">
        <ele>562</ele>
        <time>2019-03-27T12:58:18Z</time>
      </trkpt>
      <trkpt lat="44.31126" lon="5.82341">
        <ele>562</ele>
        <time>2019-03-27T12:58:19Z</time>
      </trkpt>
      <trkpt lat="44.31129" lon="5.82336">
        <ele>562</ele>
        <time>2019-03-27T12:58:20Z</time>
      </trkpt>
      <trkpt lat="44.31133" lon="5.8233">
        <ele>562</ele>
        <time>2019-03-27T12:58:21Z</time>
      </trkpt>
      <trkpt lat="44.31136" lon="5.82325">
        <ele>562</ele>
        <time>2019-03-27T12:58:22Z</time>
      </trkpt>
      <trkpt lat="44.3114" lon="5.82319">
        <ele>562</ele>
        <time>2019-03-27T12:58:23Z</time>
      </trkpt>
      <trkpt lat="44.31143" lon="5.82314">
        <ele>562</ele>
        <time>2019-03-27T12:58:24Z</time>
      </trkpt>
      <trkpt lat="44.31147" lon="5.82309">
        <ele>562</ele>
        <time>2019-03-27T12:58:24Z</time>
      </trkpt>
      <trkpt lat="44.3115" lon="5.82305">
        <ele>562</ele>
        <time>2019-03-27T12:58:26Z</time>
      </trkpt>
      <trkpt lat="44.31151" lon="5.823">
        <ele>562</ele>
        <time>2019-03-27T12:58:27Z</time>
      </trkpt>
      <trkpt lat="44.31152" lon="5.82296">
        <ele>562</ele>
        <time>2019-03-27T12:58:28Z</time>
      </trkpt>
      <trkpt lat="44.31153" lon="5.82293">
        <ele>562</ele>
        <time>2019-03-27T12:58:29Z</time>
      </trkpt>
      <trkpt lat="44.31152" lon="5.8229">
        <ele>562</ele>
        <time>2019-03-27T12:58:30Z</time>
      </trkpt>
      <trkpt lat="44.31152" lon="5.82288">
        <ele>562</ele>
        <time>2019-03-27T12:58:30Z</time>
      </trkpt>
      <trkpt lat="44.31151" lon="5.82286">
        <ele>562</ele>
        <time>2019-03-27T12:58:32Z</time>
      </trkpt>
      <trkpt lat="44.31149" lon="5.82285">
        <ele>562</ele>
        <time>2019-03-27T12:58:35Z</time>
      </trkpt>
      <trkpt lat="44.31148" lon="5.82284">
        <ele>562</ele>
        <time>2019-03-27T12:58:40Z</time>
      </trkpt>
      <trkpt lat="44.31147" lon="5.82284">
        <ele>562</ele>
        <time>2019-03-27T12:59:14Z</time>
      </trkpt>
      <trkpt lat="44.31147" lon="5.82286">
        <ele>558</ele>
        <time>2019-03-27T12:59:31Z</time>
      </trkpt>
      <trkpt lat="44.31149" lon="5.82287">
        <ele>554</ele>
        <time>2019-03-27T12:59:41Z</time>
      </trkpt>
      <trkpt lat="44.3115" lon="5.82287">
        <ele>554</ele>
        <time>2019-03-27T12:59:56Z</time>
      </trkpt>
      <trkpt lat="44.31152" lon="5.82286">
        <ele>554</ele>
        <time>2019-03-27T13:00:10Z</time>
      </trkpt>
      <trkpt lat="44.31152" lon="5.82284">
        <ele>554</ele>
        <time>2019-03-27T13:00:29Z</time>
      </trkpt>
      <trkpt lat="44.31152" lon="5.82286">
        <ele>554</ele>
        <time>2019-03-27T13:01:19Z</time>
      </trkpt>
      <trkpt lat="44.3115" lon="5.82286">
        <ele>554</ele>
        <time>2019-03-27T13:01:21Z</time>
      </trkpt>
      <trkpt lat="44.3115" lon="5.82284">
        <ele>554</ele>
        <time>2019-03-27T13:01:27Z</time>
      </trkpt>
      <trkpt lat="44.31149" lon="5.82282">
        <ele>554</ele>
        <time>2019-03-27T13:01:28Z</time>
      </trkpt>
      <trkpt lat="44.31149" lon="5.8228">
        <ele>554</ele>
        <time>2019-03-27T13:01:29Z</time>
      </trkpt>
      <trkpt lat="44.31148" lon="5.82278">
        <ele>554</ele>
        <time>2019-03-27T13:01:30Z</time>
      </trkpt>
      <trkpt lat="44.31147" lon="5.82277">
        <ele>554</ele>
        <time>2019-03-27T13:01:31Z</time>
      </trkpt>
      <trkpt lat="44.31146" lon="5.82275">
        <ele>554</ele>
        <time>2019-03-27T13:01:31Z</time>
      </trkpt>
      <trkpt lat="44.31144" lon="5.82274">
        <ele>554</ele>
        <time>2019-03-27T13:01:33Z</time>
      </trkpt>
      <trkpt lat="44.31144" lon="5.82271">
        <ele>554</ele>
        <time>2019-03-27T13:01:33Z</time>
      </trkpt>
      <trkpt lat="44.31143" lon="5.82269">
        <ele>554</ele>
        <time>2019-03-27T13:01:35Z</time>
      </trkpt>
      <trkpt lat="44.31142" lon="5.82266">
        <ele>554</ele>
        <time>2019-03-27T13:01:36Z</time>
      </trkpt>
      <trkpt lat="44.31141" lon="5.82262">
        <ele>554</ele>
        <time>2019-03-27T13:01:37Z</time>
      </trkpt>
      <trkpt lat="44.3114" lon="5.82259">
        <ele>554</ele>
        <time>2019-03-27T13:01:38Z</time>
      </trkpt>
      <trkpt lat="44.31137" lon="5.82256">
        <ele>554</ele>
        <time>2019-03-27T13:01:39Z</time>
      </trkpt>
      <trkpt lat="44.31135" lon="5.82252">
        <ele>554</ele>
        <time>2019-03-27T13:01:40Z</time>
      </trkpt>
      <trkpt lat="44.31132" lon="5.82249">
        <ele>554</ele>
        <time>2019-03-27T13:01:41Z</time>
      </trkpt>
      <trkpt lat="44.31129" lon="5.82245">
        <ele>554</ele>
        <time>2019-03-27T13:01:41Z</time>
      </trkpt>
      <trkpt lat="44.31126" lon="5.82241">
        <ele>554</ele>
        <time>2019-03-27T13:01:43Z</time>
      </trkpt>
      <trkpt lat="44.31123" lon="5.82237">
        <ele>554</ele>
        <time>2019-03-27T13:01:44Z</time>
      </trkpt>
      <trkpt lat="44.31119" lon="5.82233">
        <ele>554</ele>
        <time>2019-03-27T13:01:45Z</time>
      </trkpt>
      <trkpt lat="44.31116" lon="5.82228">
        <ele>554</ele>
        <time>2019-03-27T13:01:45Z</time>
      </trkpt>
      <trkpt lat="44.31113" lon="5.82223">
        <ele>554</ele>
        <time>2019-03-27T13:01:47Z</time>
      </trkpt>
      <trkpt lat="44.3111" lon="5.82218">
        <ele>554</ele>
        <time>2019-03-27T13:01:48Z</time>
      </trkpt>
      <trkpt lat="44.31106" lon="5.82213">
        <ele>554</ele>
        <time>2019-03-27T13:01:49Z</time>
      </trkpt>
      <trkpt lat="44.31102" lon="5.82209">
        <ele>554</ele>
        <time>2019-03-27T13:01:50Z</time>
      </trkpt>
      <trkpt lat="44.31098" lon="5.82204">
        <ele>554</ele>
        <time>2019-03-27T13:01:51Z</time>
      </trkpt>
      <trkpt lat="44.31095" lon="5.82199">
        <ele>554</ele>
        <time>2019-03-27T13:01:52Z</time>
      </trkpt>
      <trkpt lat="44.31091" lon="5.82194">
        <ele>554</ele>
        <time>2019-03-27T13:01:53Z</time>
      </trkpt>
      <trkpt lat="44.31088" lon="5.8219">
        <ele>554</ele>
        <time>2019-03-27T13:01:53Z</time>
      </trkpt>
      <trkpt lat="44.31084" lon="5.82185">
        <ele>554</ele>
        <time>2019-03-27T13:01:55Z</time>
      </trkpt>
      <trkpt lat="44.3108" lon="5.8218">
        <ele>554</ele>
        <time>2019-03-27T13:01:56Z</time>
      </trkpt>
      <trkpt lat="44.31077" lon="5.82175">
        <ele>554</ele>
        <time>2019-03-27T13:01:57Z</time>
      </trkpt>
      <trkpt lat="44.31073" lon="5.8217">
        <ele>554</ele>
        <time>2019-03-27T13:01:58Z</time>
      </trkpt>
      <trkpt lat="44.31069" lon="5.82165">
        <ele>554</ele>
        <time>2019-03-27T13:01:59Z</time>
      </trkpt>
      <trkpt lat="44.31065" lon="5.8216">
        <ele>554</ele>
        <time>2019-03-27T13:02:00Z</time>
      </trkpt>
      <trkpt lat="44.31061" lon="5.82155">
        <ele>554</ele>
        <time>2019-03-27T13:02:01Z</time>
      </trkpt>
      <trkpt lat="44.31057" lon="5.82151">
        <ele>554</ele>
        <time>2019-03-27T13:02:02Z</time>
      </trkpt>
      <trkpt lat="44.31053" lon="5.82146">
        <ele>554</ele>
        <time>2019-03-27T13:02:03Z</time>
      </trkpt>
      <trkpt lat="44.31049" lon="5.82141">
        <ele>554</ele>
        <time>2019-03-27T13:02:04Z</time>
      </trkpt>
      <trkpt lat="44.31046" lon="5.82136">
        <ele>554</ele>
        <time>2019-03-27T13:02:05Z</time>
      </trkpt>
      <trkpt lat="44.31042" lon="5.82132">
        <ele>554</ele>
        <time>2019-03-27T13:02:06Z</time>
      </trkpt>
      <trkpt lat="44.31039" lon="5.82127">
        <ele>554</ele>
        <time>2019-03-27T13:02:07Z</time>
      </trkpt>
      <trkpt lat="44.31036" lon="5.82123">
        <ele>554</ele>
        <time>2019-03-27T13:02:08Z</time>
      </trkpt>
      <trkpt lat="44.31032" lon="5.82118">
        <ele>554</ele>
        <time>2019-03-27T13:02:09Z</time>
      </trkpt>
      <trkpt lat="44.31029" lon="5.82113">
        <ele>554</ele>
        <time>2019-03-27T13:02:10Z</time>
      </trkpt>
      <trkpt lat="44.31025" lon="5.82108">
        <ele>554</ele>
        <time>2019-03-27T13:02:11Z</time>
      </trkpt>
      <trkpt lat="44.31022" lon="5.82104">
        <ele>554</ele>
        <time>2019-03-27T13:02:12Z</time>
      </trkpt>
      <trkpt lat="44.31018" lon="5.82099">
        <ele>554</ele>
        <time>2019-03-27T13:02:13Z</time>
      </trkpt>
      <trkpt lat="44.31015" lon="5.82094">
        <ele>554</ele>
        <time>2019-03-27T13:02:14Z</time>
      </trkpt>
      <trkpt lat="44.31011" lon="5.8209">
        <ele>554</ele>
        <time>2019-03-27T13:02:15Z</time>
      </trkpt>
      <trkpt lat="44.31007" lon="5.82085">
        <ele>554</ele>
        <time>2019-03-27T13:02:16Z</time>
      </trkpt>
      <trkpt lat="44.31003" lon="5.82081">
        <ele>554</ele>
        <time>2019-03-27T13:02:17Z</time>
      </trkpt>
      <trkpt lat="44.30999" lon="5.82076">
        <ele>554</ele>
        <time>2019-03-27T13:02:18Z</time>
      </trkpt>
      <trkpt lat="44.30996" lon="5.82072">
        <ele>554</ele>
        <time>2019-03-27T13:02:19Z</time>
      </trkpt>
      <trkpt lat="44.30991" lon="5.82067">
        <ele>554</ele>
        <time>2019-03-27T13:02:20Z</time>
      </trkpt>
      <trkpt lat="44.30987" lon="5.82064">
        <ele>554</ele>
        <time>2019-03-27T13:02:21Z</time>
      </trkpt>
      <trkpt lat="44.30983" lon="5.8206">
        <ele>554</ele>
        <time>2019-03-27T13:02:21Z</time>
      </trkpt>
      <trkpt lat="44.30978" lon="5.82057">
        <ele>554</ele>
        <time>2019-03-27T13:02:23Z</time>
      </trkpt>
      <trkpt lat="44.30974" lon="5.82053">
        <ele>554</ele>
        <time>2019-03-27T13:02:23Z</time>
      </trkpt>
      <trkpt lat="44.30969" lon="5.8205">
        <ele>554</ele>
        <time>2019-03-27T13:02:25Z</time>
      </trkpt>
      <trkpt lat="44.30965" lon="5.82047">
        <ele>554</ele>
        <time>2019-03-27T13:02:25Z</time>
      </trkpt>
      <trkpt lat="44.30959" lon="5.82043">
        <ele>554</ele>
        <time>2019-03-27T13:02:27Z</time>
      </trkpt>
      <trkpt lat="44.30954" lon="5.82041">
        <ele>554</ele>
        <time>2019-03-27T13:02:28Z</time>
      </trkpt>
      <trkpt lat="44.30949" lon="5.82038">
        <ele>554</ele>
        <time>2019-03-27T13:02:28Z</time>
      </trkpt>
      <trkpt lat="44.30944" lon="5.82036">
        <ele>554</ele>
        <time>2019-03-27T13:02:30Z</time>
      </trkpt>
      <trkpt lat="44.30938" lon="5.82035">
        <ele>554</ele>
        <time>2019-03-27T13:02:31Z</time>
      </trkpt>
      <trkpt lat="44.30933" lon="5.82034">
        <ele>554</ele>
        <time>2019-03-27T13:02:32Z</time>
      </trkpt>
      <trkpt lat="44.30927" lon="5.82033">
        <ele>554</ele>
        <time>2019-03-27T13:02:33Z</time>
      </trkpt>
      <trkpt lat="44.30922" lon="5.82033">
        <ele>554</ele>
        <time>2019-03-27T13:02:34Z</time>
      </trkpt>
      <trkpt lat="44.30917" lon="5.82033">
        <ele>554</ele>
        <time>2019-03-27T13:02:35Z</time>
      </trkpt>
      <trkpt lat="44.30912" lon="5.82033">
        <ele>554</ele>
        <time>2019-03-27T13:02:36Z</time>
      </trkpt>
      <trkpt lat="44.30907" lon="5.82034">
        <ele>554</ele>
        <time>2019-03-27T13:02:36Z</time>
      </trkpt>
      <trkpt lat="44.30902" lon="5.82035">
        <ele>554</ele>
        <time>2019-03-27T13:02:37Z</time>
      </trkpt>
      <trkpt lat="44.30897" lon="5.82036">
        <ele>554</ele>
        <time>2019-03-27T13:02:38Z</time>
      </trkpt>
      <trkpt lat="44.30893" lon="5.82038">
        <ele>555</ele>
        <time>2019-03-27T13:02:39Z</time>
      </trkpt>
      <trkpt lat="44.30888" lon="5.82039">
        <ele>555</ele>
        <time>2019-03-27T13:02:41Z</time>
      </trkpt>
      <trkpt lat="44.30883" lon="5.82041">
        <ele>555</ele>
        <time>2019-03-27T13:02:41Z</time>
      </trkpt>
      <trkpt lat="44.30879" lon="5.82043">
        <ele>555</ele>
        <time>2019-03-27T13:02:43Z</time>
      </trkpt>
      <trkpt lat="44.30874" lon="5.82045">
        <ele>555</ele>
        <time>2019-03-27T13:02:44Z</time>
      </trkpt>
      <trkpt lat="44.3087" lon="5.82046">
        <ele>555</ele>
        <time>2019-03-27T13:02:45Z</time>
      </trkpt>
      <trkpt lat="44.30865" lon="5.82048">
        <ele>555</ele>
        <time>2019-03-27T13:02:45Z</time>
      </trkpt>
      <trkpt lat="44.30861" lon="5.8205">
        <ele>555</ele>
        <time>2019-03-27T13:02:47Z</time>
      </trkpt>
      <trkpt lat="44.30857" lon="5.82051">
        <ele>555</ele>
        <time>2019-03-27T13:02:48Z</time>
      </trkpt>
      <trkpt lat="44.30852" lon="5.82052">
        <ele>555</ele>
        <time>2019-03-27T13:02:49Z</time>
      </trkpt>
      <trkpt lat="44.30848" lon="5.82054">
        <ele>555</ele>
        <time>2019-03-27T13:02:50Z</time>
      </trkpt>
      <trkpt lat="44.30843" lon="5.82055">
        <ele>555</ele>
        <time>2019-03-27T13:02:51Z</time>
      </trkpt>
      <trkpt lat="44.30839" lon="5.82056">
        <ele>556</ele>
        <time>2019-03-27T13:02:52Z</time>
      </trkpt>
      <trkpt lat="44.30834" lon="5.82058">
        <ele>556</ele>
        <time>2019-03-27T13:02:53Z</time>
      </trkpt>
      <trkpt lat="44.3083" lon="5.82059">
        <ele>556</ele>
        <time>2019-03-27T13:02:53Z</time>
      </trkpt>
      <trkpt lat="44.30825" lon="5.8206">
        <ele>556</ele>
        <time>2019-03-27T13:02:55Z</time>
      </trkpt>
      <trkpt lat="44.30821" lon="5.82061">
        <ele>556</ele>
        <time>2019-03-27T13:02:56Z</time>
      </trkpt>
      <trkpt lat="44.30816" lon="5.82062">
        <ele>556</ele>
        <time>2019-03-27T13:02:57Z</time>
      </trkpt>
      <trkpt lat="44.30812" lon="5.82063">
        <ele>556</ele>
        <time>2019-03-27T13:02:57Z</time>
      </trkpt>
      <trkpt lat="44.30807" lon="5.82064">
        <ele>556</ele>
        <time>2019-03-27T13:02:59Z</time>
      </trkpt>
      <trkpt lat="44.30803" lon="5.82065">
        <ele>556</ele>
        <time>2019-03-27T13:03:00Z</time>
      </trkpt>
      <trkpt lat="44.30798" lon="5.82066">
        <ele>556</ele>
        <time>2019-03-27T13:03:01Z</time>
      </trkpt>
      <trkpt lat="44.30793" lon="5.82067">
        <ele>556</ele>
        <time>2019-03-27T13:03:01Z</time>
      </trkpt>
      <trkpt lat="44.30789" lon="5.82068">
        <ele>556</ele>
        <time>2019-03-27T13:03:03Z</time>
      </trkpt>
      <trkpt lat="44.30784" lon="5.8207">
        <ele>556</ele>
        <time>2019-03-27T13:03:04Z</time>
      </trkpt>
      <trkpt lat="44.3078" lon="5.82071">
        <ele>556</ele>
        <time>2019-03-27T13:03:05Z</time>
      </trkpt>
      <trkpt lat="44.30775" lon="5.82073">
        <ele>556</ele>
        <time>2019-03-27T13:03:06Z</time>
      </trkpt>
      <trkpt lat="44.30771" lon="5.82075">
        <ele>556</ele>
        <time>2019-03-27T13:03:07Z</time>
      </trkpt>
      <trkpt lat="44.30767" lon="5.82078">
        <ele>556</ele>
        <time>2019-03-27T13:03:08Z</time>
      </trkpt>
      <trkpt lat="44.30763" lon="5.82081">
        <ele>556</ele>
        <time>2019-03-27T13:03:09Z</time>
      </trkpt>
      <trkpt lat="44.30759" lon="5.82085">
        <ele>556</ele>
        <time>2019-03-27T13:03:10Z</time>
      </trkpt>
      <trkpt lat="44.30755" lon="5.82089">
        <ele>556</ele>
        <time>2019-03-27T13:03:11Z</time>
      </trkpt>
      <trkpt lat="44.30752" lon="5.82094">
        <ele>556</ele>
        <time>2019-03-27T13:03:11Z</time>
      </trkpt>
      <trkpt lat="44.30749" lon="5.82098">
        <ele>557</ele>
        <time>2019-03-27T13:03:13Z</time>
      </trkpt>
      <trkpt lat="44.30746" lon="5.82103">
        <ele>557</ele>
        <time>2019-03-27T13:03:14Z</time>
      </trkpt>
      <trkpt lat="44.30743" lon="5.82109">
        <ele>557</ele>
        <time>2019-03-27T13:03:15Z</time>
      </trkpt>
      <trkpt lat="44.3074" lon="5.82115">
        <ele>557</ele>
        <time>2019-03-27T13:03:15Z</time>
      </trkpt>
      <trkpt lat="44.30738" lon="5.8212">
        <ele>557</ele>
        <time>2019-03-27T13:03:16Z</time>
      </trkpt>
      <trkpt lat="44.30736" lon="5.82126">
        <ele>557</ele>
        <time>2019-03-27T13:03:17Z</time>
      </trkpt>
      <trkpt lat="44.30734" lon="5.82132">
        <ele>557</ele>
        <time>2019-03-27T13:03:19Z</time>
      </trkpt>
      <trkpt lat="44.30732" lon="5.82137">
        <ele>557</ele>
        <time>2019-03-27T13:03:19Z</time>
      </trkpt>
      <trkpt lat="44.3073" lon="5.82143">
        <ele>557</ele>
        <time>2019-03-27T13:03:20Z</time>
      </trkpt>
      <trkpt lat="44.30727" lon="5.82149">
        <ele>557</ele>
        <time>2019-03-27T13:03:21Z</time>
      </trkpt>
      <trkpt lat="44.30725" lon="5.82155">
        <ele>557</ele>
        <time>2019-03-27T13:03:22Z</time>
      </trkpt>
      <trkpt lat="44.30723" lon="5.82161">
        <ele>557</ele>
        <time>2019-03-27T13:03:24Z</time>
      </trkpt>
      <trkpt lat="44.30721" lon="5.82167">
        <ele>557</ele>
        <time>2019-03-27T13:03:24Z</time>
      </trkpt>
      <trkpt lat="44.30719" lon="5.82174">
        <ele>557</ele>
        <time>2019-03-27T13:03:25Z</time>
      </trkpt>
      <trkpt lat="44.30716" lon="5.82181">
        <ele>557</ele>
        <time>2019-03-27T13:03:26Z</time>
      </trkpt>
      <trkpt lat="44.30714" lon="5.82186">
        <ele>558</ele>
        <time>2019-03-27T13:03:27Z</time>
      </trkpt>
      <trkpt lat="44.30711" lon="5.82192">
        <ele>558</ele>
        <time>2019-03-27T13:03:29Z</time>
      </trkpt>
      <trkpt lat="44.30709" lon="5.82197">
        <ele>558</ele>
        <time>2019-03-27T13:03:29Z</time>
      </trkpt>
      <trkpt lat="44.30706" lon="5.82202">
        <ele>559</ele>
        <time>2019-03-27T13:03:31Z</time>
      </trkpt>
      <trkpt lat="44.30703" lon="5.82207">
        <ele>559</ele>
        <time>2019-03-27T13:03:32Z</time>
      </trkpt>
      <trkpt lat="44.307" lon="5.82212">
        <ele>559</ele>
        <time>2019-03-27T13:03:33Z</time>
      </trkpt>
      <trkpt lat="44.30697" lon="5.82217">
        <ele>559</ele>
        <time>2019-03-27T13:03:34Z</time>
      </trkpt>
      <trkpt lat="44.30694" lon="5.82222">
        <ele>559</ele>
        <time>2019-03-27T13:03:35Z</time>
      </trkpt>
      <trkpt lat="44.30691" lon="5.82227">
        <ele>559</ele>
        <time>2019-03-27T13:03:36Z</time>
      </trkpt>
      <trkpt lat="44.30688" lon="5.82231">
        <ele>559</ele>
        <time>2019-03-27T13:03:37Z</time>
      </trkpt>
      <trkpt lat="44.30684" lon="5.82236">
        <ele>559</ele>
        <time>2019-03-27T13:03:38Z</time>
      </trkpt>
      <trkpt lat="44.30681" lon="5.82241">
        <ele>559</ele>
        <time>2019-03-27T13:03:39Z</time>
      </trkpt>
      <trkpt lat="44.30677" lon="5.82246">
        <ele>559</ele>
        <time>2019-03-27T13:03:40Z</time>
      </trkpt>
      <trkpt lat="44.30674" lon="5.8225">
        <ele>559</ele>
        <time>2019-03-27T13:03:41Z</time>
      </trkpt>
      <trkpt lat="44.3067" lon="5.82255">
        <ele>559</ele>
        <time>2019-03-27T13:03:42Z</time>
      </trkpt>
      <trkpt lat="44.30666" lon="5.82259">
        <ele>559</ele>
        <time>2019-03-27T13:03:43Z</time>
      </trkpt>
      <trkpt lat="44.30661" lon="5.82264">
        <ele>559</ele>
        <time>2019-03-27T13:03:44Z</time>
      </trkpt>
      <trkpt lat="44.30657" lon="5.82268">
        <ele>559</ele>
        <time>2019-03-27T13:03:45Z</time>
      </trkpt>
      <trkpt lat="44.30652" lon="5.82272">
        <ele>559</ele>
        <time>2019-03-27T13:03:46Z</time>
      </trkpt>
      <trkpt lat="44.30647" lon="5.82276">
        <ele>559</ele>
        <time>2019-03-27T13:03:47Z</time>
      </trkpt>
      <trkpt lat="44.30642" lon="5.8228">
        <ele>559</ele>
        <time>2019-03-27T13:03:47Z</time>
      </trkpt>
      <trkpt lat="44.30637" lon="5.82283">
        <ele>559</ele>
        <time>2019-03-27T13:03:49Z</time>
      </trkpt>
      <trkpt lat="44.30632" lon="5.82286">
        <ele>559</ele>
        <time>2019-03-27T13:03:50Z</time>
      </trkpt>
      <trkpt lat="44.30627" lon="5.82289">
        <ele>559</ele>
        <time>2019-03-27T13:03:51Z</time>
      </trkpt>
      <trkpt lat="44.30622" lon="5.82292">
        <ele>559</ele>
        <time>2019-03-27T13:03:51Z</time>
      </trkpt>
      <trkpt lat="44.30616" lon="5.82294">
        <ele>559</ele>
        <time>2019-03-27T13:03:53Z</time>
      </trkpt>
      <trkpt lat="44.30611" lon="5.82297">
        <ele>559</ele>
        <time>2019-03-27T13:03:53Z</time>
      </trkpt>
      <trkpt lat="44.30605" lon="5.82298">
        <ele>559</ele>
        <time>2019-03-27T13:03:54Z</time>
      </trkpt>
      <trkpt lat="44.30599" lon="5.823">
        <ele>559</ele>
        <time>2019-03-27T13:03:56Z</time>
      </trkpt>
      <trkpt lat="44.30593" lon="5.82301">
        <ele>559</ele>
        <time>2019-03-27T13:03:56Z</time>
      </trkpt>
      <trkpt lat="44.30587" lon="5.82302">
        <ele>559</ele>
        <time>2019-03-27T13:03:57Z</time>
      </trkpt>
      <trkpt lat="44.30581" lon="5.82302">
        <ele>559</ele>
        <time>2019-03-27T13:03:59Z</time>
      </trkpt>
      <trkpt lat="44.30575" lon="5.82303">
        <ele>559</ele>
        <time>2019-03-27T13:03:59Z</time>
      </trkpt>
      <trkpt lat="44.30569" lon="5.82304">
        <ele>559</ele>
        <time>2019-03-27T13:04:01Z</time>
      </trkpt>
      <trkpt lat="44.30563" lon="5.82305">
        <ele>559</ele>
        <time>2019-03-27T13:04:01Z</time>
      </trkpt>
      <trkpt lat="44.30557" lon="5.82306">
        <ele>559</ele>
        <time>2019-03-27T13:04:02Z</time>
      </trkpt>
      <trkpt lat="44.30552" lon="5.82307">
        <ele>559</ele>
        <time>2019-03-27T13:04:03Z</time>
      </trkpt>
      <trkpt lat="44.30546" lon="5.82308">
        <ele>559</ele>
        <time>2019-03-27T13:04:04Z</time>
      </trkpt>
      <trkpt lat="44.3054" lon="5.82309">
        <ele>559</ele>
        <time>2019-03-27T13:04:06Z</time>
      </trkpt>
      <trkpt lat="44.30535" lon="5.8231">
        <ele>559</ele>
        <time>2019-03-27T13:04:07Z</time>
      </trkpt>
      <trkpt lat="44.30529" lon="5.82311">
        <ele>559</ele>
        <time>2019-03-27T13:04:07Z</time>
      </trkpt>
      <trkpt lat="44.30524" lon="5.82311">
        <ele>559</ele>
        <time>2019-03-27T13:04:08Z</time>
      </trkpt>
      <trkpt lat="44.30518" lon="5.82312">
        <ele>559</ele>
        <time>2019-03-27T13:04:09Z</time>
      </trkpt>
      <trkpt lat="44.30512" lon="5.82313">
        <ele>559</ele>
        <time>2019-03-27T13:04:11Z</time>
      </trkpt>
      <trkpt lat="44.30506" lon="5.82313">
        <ele>559</ele>
        <time>2019-03-27T13:04:11Z</time>
      </trkpt>
      <trkpt lat="44.305" lon="5.82314">
        <ele>559</ele>
        <time>2019-03-27T13:04:12Z</time>
      </trkpt>
      <trkpt lat="44.30495" lon="5.82314">
        <ele>559</ele>
        <time>2019-03-27T13:04:13Z</time>
      </trkpt>
      <trkpt lat="44.30489" lon="5.82315">
        <ele>559</ele>
        <time>2019-03-27T13:04:14Z</time>
      </trkpt>
      <trkpt lat="44.30483" lon="5.82315">
        <ele>559</ele>
        <time>2019-03-27T13:04:16Z</time>
      </trkpt>
      <trkpt lat="44.30478" lon="5.82315">
        <ele>559</ele>
        <time>2019-03-27T13:04:16Z</time>
      </trkpt>
      <trkpt lat="44.30472" lon="5.82315">
        <ele>559</ele>
        <time>2019-03-27T13:04:17Z</time>
      </trkpt>
      <trkpt lat="44.30466" lon="5.82316">
        <ele>559</ele>
        <time>2019-03-27T13:04:18Z</time>
      </trkpt>
      <trkpt lat="44.30461" lon="5.82316">
        <ele>559</ele>
        <time>2019-03-27T13:04:19Z</time>
      </trkpt>
      <trkpt lat="44.30455" lon="5.82315">
        <ele>559</ele>
        <time>2019-03-27T13:04:20Z</time>
      </trkpt>
      <trkpt lat="44.3045" lon="5.82315">
        <ele>559</ele>
        <time>2019-03-27T13:04:21Z</time>
      </trkpt>
      <trkpt lat="44.30444" lon="5.82315">
        <ele>559</ele>
        <time>2019-03-27T13:04:22Z</time>
      </trkpt>
      <trkpt lat="44.30439" lon="5.82315">
        <ele>559</ele>
        <time>2019-03-27T13:04:23Z</time>
      </trkpt>
      <trkpt lat="44.30433" lon="5.82315">
        <ele>559</ele>
        <time>2019-03-27T13:04:24Z</time>
      </trkpt>
      <trkpt lat="44.30428" lon="5.82315">
        <ele>559</ele>
        <time>2019-03-27T13:04:25Z</time>
      </trkpt>
      <trkpt lat="44.30422" lon="5.82315">
        <ele>559</ele>
        <time>2019-03-27T13:04:26Z</time>
      </trkpt>
      <trkpt lat="44.30417" lon="5.82316">
        <ele>559</ele>
        <time>2019-03-27T13:04:27Z</time>
      </trkpt>
      <trkpt lat="44.30412" lon="5.82316">
        <ele>559</ele>
        <time>2019-03-27T13:04:28Z</time>
      </trkpt>
      <trkpt lat="44.30406" lon="5.82316">
        <ele>559</ele>
        <time>2019-03-27T13:04:29Z</time>
      </trkpt>
      <trkpt lat="44.30401" lon="5.82316">
        <ele>559</ele>
        <time>2019-03-27T13:04:31Z</time>
      </trkpt>
      <trkpt lat="44.30396" lon="5.82317">
        <ele>559</ele>
        <time>2019-03-27T13:04:31Z</time>
      </trkpt>
      <trkpt lat="44.30391" lon="5.82317">
        <ele>559</ele>
        <time>2019-03-27T13:04:32Z</time>
      </trkpt>
      <trkpt lat="44.30385" lon="5.82317">
        <ele>559</ele>
        <time>2019-03-27T13:04:33Z</time>
      </trkpt>
      <trkpt lat="44.3038" lon="5.82318">
        <ele>559</ele>
        <time>2019-03-27T13:04:34Z</time>
      </trkpt>
      <trkpt lat="44.30375" lon="5.82319">
        <ele>559</ele>
        <time>2019-03-27T13:04:36Z</time>
      </trkpt>
      <trkpt lat="44.3037" lon="5.8232">
        <ele>559</ele>
        <time>2019-03-27T13:04:36Z</time>
      </trkpt>
      <trkpt lat="44.30365" lon="5.82321">
        <ele>559</ele>
        <time>2019-03-27T13:04:37Z</time>
      </trkpt>
      <trkpt lat="44.30359" lon="5.82322">
        <ele>559</ele>
        <time>2019-03-27T13:04:38Z</time>
      </trkpt>
      <trkpt lat="44.30354" lon="5.82322">
        <ele>559</ele>
        <time>2019-03-27T13:04:39Z</time>
      </trkpt>
      <trkpt lat="44.30349" lon="5.82323">
        <ele>559</ele>
        <time>2019-03-27T13:04:41Z</time>
      </trkpt>
      <trkpt lat="44.30344" lon="5.82324">
        <ele>559</ele>
        <time>2019-03-27T13:04:41Z</time>
      </trkpt>
      <trkpt lat="44.30338" lon="5.82324">
        <ele>559</ele>
        <time>2019-03-27T13:04:42Z</time>
      </trkpt>
      <trkpt lat="44.30333" lon="5.82325">
        <ele>559</ele>
        <time>2019-03-27T13:04:43Z</time>
      </trkpt>
      <trkpt lat="44.30328" lon="5.82326">
        <ele>559</ele>
        <time>2019-03-27T13:04:44Z</time>
      </trkpt>
      <trkpt lat="44.30323" lon="5.82327">
        <ele>559</ele>
        <time>2019-03-27T13:04:46Z</time>
      </trkpt>
      <trkpt lat="44.30318" lon="5.82328">
        <ele>559</ele>
        <time>2019-03-27T13:04:46Z</time>
      </trkpt>
      <trkpt lat="44.30313" lon="5.8233">
        <ele>559</ele>
        <time>2019-03-27T13:04:47Z</time>
      </trkpt>
      <trkpt lat="44.30308" lon="5.82331">
        <ele>559</ele>
        <time>2019-03-27T13:04:48Z</time>
      </trkpt>
      <trkpt lat="44.30302" lon="5.82331">
        <ele>559</ele>
        <time>2019-03-27T13:04:49Z</time>
      </trkpt>
      <trkpt lat="44.30297" lon="5.82332">
        <ele>559</ele>
        <time>2019-03-27T13:04:50Z</time>
      </trkpt>
      <trkpt lat="44.30292" lon="5.82333">
        <ele>559</ele>
        <time>2019-03-27T13:04:51Z</time>
      </trkpt>
      <trkpt lat="44.30287" lon="5.82334">
        <ele>559</ele>
        <time>2019-03-27T13:04:53Z</time>
      </trkpt>
      <trkpt lat="44.30281" lon="5.82335">
        <ele>559</ele>
        <time>2019-03-27T13:04:53Z</time>
      </trkpt>
      <trkpt lat="44.30276" lon="5.82336">
        <ele>559</ele>
        <time>2019-03-27T13:04:54Z</time>
      </trkpt>
      <trkpt lat="44.3027" lon="5.82337">
        <ele>559</ele>
        <time>2019-03-27T13:04:56Z</time>
      </trkpt>
      <trkpt lat="44.30265" lon="5.82338">
        <ele>559</ele>
        <time>2019-03-27T13:04:56Z</time>
      </trkpt>
      <trkpt lat="44.30259" lon="5.82339">
        <ele>559</ele>
        <time>2019-03-27T13:04:57Z</time>
      </trkpt>
      <trkpt lat="44.30254" lon="5.8234">
        <ele>559</ele>
        <time>2019-03-27T13:04:58Z</time>
      </trkpt>
      <trkpt lat="44.30248" lon="5.82341">
        <ele>559</ele>
        <time>2019-03-27T13:04:59Z</time>
      </trkpt>
      <trkpt lat="44.30243" lon="5.82342">
        <ele>559</ele>
        <time>2019-03-27T13:05:00Z</time>
      </trkpt>
      <trkpt lat="44.30237" lon="5.82342">
        <ele>559</ele>
        <time>2019-03-27T13:05:01Z</time>
      </trkpt>
      <trkpt lat="44.30231" lon="5.82343">
        <ele>559</ele>
        <time>2019-03-27T13:05:02Z</time>
      </trkpt>
      <trkpt lat="44.30226" lon="5.82343">
        <ele>559</ele>
        <time>2019-03-27T13:05:03Z</time>
      </trkpt>
      <trkpt lat="44.3022" lon="5.82343">
        <ele>558</ele>
        <time>2019-03-27T13:05:04Z</time>
      </trkpt>
      <trkpt lat="44.30214" lon="5.82343">
        <ele>558</ele>
        <time>2019-03-27T13:05:05Z</time>
      </trkpt>
      <trkpt lat="44.30209" lon="5.82343">
        <ele>558</ele>
        <time>2019-03-27T13:05:06Z</time>
      </trkpt>
      <trkpt lat="44.30203" lon="5.82343">
        <ele>558</ele>
        <time>2019-03-27T13:05:07Z</time>
      </trkpt>
      <trkpt lat="44.30198" lon="5.82343">
        <ele>558</ele>
        <time>2019-03-27T13:05:08Z</time>
      </trkpt>
      <trkpt lat="44.30192" lon="5.82343">
        <ele>558</ele>
        <time>2019-03-27T13:05:10Z</time>
      </trkpt>
      <trkpt lat="44.30186" lon="5.82343">
        <ele>558</ele>
        <time>2019-03-27T13:05:11Z</time>
      </trkpt>
      <trkpt lat="44.30181" lon="5.82342">
        <ele>558</ele>
        <time>2019-03-27T13:05:11Z</time>
      </trkpt>
      <trkpt lat="44.30175" lon="5.82342">
        <ele>558</ele>
        <time>2019-03-27T13:05:12Z</time>
      </trkpt>
      <trkpt lat="44.30169" lon="5.82342">
        <ele>558</ele>
        <time>2019-03-27T13:05:13Z</time>
      </trkpt>
      <trkpt lat="44.30163" lon="5.82341">
        <ele>558</ele>
        <time>2019-03-27T13:05:14Z</time>
      </trkpt>
      <trkpt lat="44.30158" lon="5.82341">
        <ele>558</ele>
        <time>2019-03-27T13:05:15Z</time>
      </trkpt>
      <trkpt lat="44.30152" lon="5.8234">
        <ele>558</ele>
        <time>2019-03-27T13:05:16Z</time>
      </trkpt>
      <trkpt lat="44.30146" lon="5.8234">
        <ele>558</ele>
        <time>2019-03-27T13:05:17Z</time>
      </trkpt>
      <trkpt lat="44.30141" lon="5.82339">
        <ele>558</ele>
        <time>2019-03-27T13:05:18Z</time>
      </trkpt>
      <trkpt lat="44.30135" lon="5.82339">
        <ele>558</ele>
        <time>2019-03-27T13:05:19Z</time>
      </trkpt>
      <trkpt lat="44.30129" lon="5.82339">
        <ele>558</ele>
        <time>2019-03-27T13:05:21Z</time>
      </trkpt>
      <trkpt lat="44.30124" lon="5.82338">
        <ele>558</ele>
        <time>2019-03-27T13:05:21Z</time>
      </trkpt>
      <trkpt lat="44.30119" lon="5.82338">
        <ele>558</ele>
        <time>2019-03-27T13:05:22Z</time>
      </trkpt>
      <trkpt lat="44.30113" lon="5.82339">
        <ele>558</ele>
        <time>2019-03-27T13:05:23Z</time>
      </trkpt>
      <trkpt lat="44.30107" lon="5.82339">
        <ele>558</ele>
        <time>2019-03-27T13:05:24Z</time>
      </trkpt>
      <trkpt lat="44.30102" lon="5.82339">
        <ele>558</ele>
        <time>2019-03-27T13:05:26Z</time>
      </trkpt>
      <trkpt lat="44.30096" lon="5.82339">
        <ele>558</ele>
        <time>2019-03-27T13:05:26Z</time>
      </trkpt>
      <trkpt lat="44.3009" lon="5.82339">
        <ele>558</ele>
        <time>2019-03-27T13:05:27Z</time>
      </trkpt>
      <trkpt lat="44.30085" lon="5.82339">
        <ele>558</ele>
        <time>2019-03-27T13:05:28Z</time>
      </trkpt>
      <trkpt lat="44.30079" lon="5.82338">
        <ele>558</ele>
        <time>2019-03-27T13:05:29Z</time>
      </trkpt>
      <trkpt lat="44.30073" lon="5.82338">
        <ele>558</ele>
        <time>2019-03-27T13:05:30Z</time>
      </trkpt>
      <trkpt lat="44.30067" lon="5.82338">
        <ele>558</ele>
        <time>2019-03-27T13:05:31Z</time>
      </trkpt>
      <trkpt lat="44.30062" lon="5.82337">
        <ele>558</ele>
        <time>2019-03-27T13:05:32Z</time>
      </trkpt>
      <trkpt lat="44.30056" lon="5.82336">
        <ele>558</ele>
        <time>2019-03-27T13:05:33Z</time>
      </trkpt>
      <trkpt lat="44.30051" lon="5.82335">
        <ele>558</ele>
        <time>2019-03-27T13:05:34Z</time>
      </trkpt>
      <trkpt lat="44.30045" lon="5.82335">
        <ele>558</ele>
        <time>2019-03-27T13:05:35Z</time>
      </trkpt>
      <trkpt lat="44.30039" lon="5.82334">
        <ele>558</ele>
        <time>2019-03-27T13:05:36Z</time>
      </trkpt>
      <trkpt lat="44.30034" lon="5.82334">
        <ele>558</ele>
        <time>2019-03-27T13:05:37Z</time>
      </trkpt>
      <trkpt lat="44.30028" lon="5.82333">
        <ele>558</ele>
        <time>2019-03-27T13:05:38Z</time>
      </trkpt>
      <trkpt lat="44.30022" lon="5.82331">
        <ele>558</ele>
        <time>2019-03-27T13:05:39Z</time>
      </trkpt>
      <trkpt lat="44.30016" lon="5.8233">
        <ele>558</ele>
        <time>2019-03-27T13:05:41Z</time>
      </trkpt>
      <trkpt lat="44.30011" lon="5.82329">
        <ele>558</ele>
        <time>2019-03-27T13:05:41Z</time>
      </trkpt>
      <trkpt lat="44.30005" lon="5.82328">
        <ele>558</ele>
        <time>2019-03-27T13:05:42Z</time>
      </trkpt>
      <trkpt lat="44.29999" lon="5.82326">
        <ele>558</ele>
        <time>2019-03-27T13:05:43Z</time>
      </trkpt>
      <trkpt lat="44.29993" lon="5.82325">
        <ele>558</ele>
        <time>2019-03-27T13:05:44Z</time>
      </trkpt>
      <trkpt lat="44.29987" lon="5.82324">
        <ele>558</ele>
        <time>2019-03-27T13:05:45Z</time>
      </trkpt>
      <trkpt lat="44.29981" lon="5.82322">
        <ele>558</ele>
        <time>2019-03-27T13:05:46Z</time>
      </trkpt>
      <trkpt lat="44.29976" lon="5.8232">
        <ele>558</ele>
        <time>2019-03-27T13:05:47Z</time>
      </trkpt>
      <trkpt lat="44.2997" lon="5.82318">
        <ele>558</ele>
        <time>2019-03-27T13:05:48Z</time>
      </trkpt>
      <trkpt lat="44.29964" lon="5.82316">
        <ele>558</ele>
        <time>2019-03-27T13:05:49Z</time>
      </trkpt>
      <trkpt lat="44.29959" lon="5.82314">
        <ele>558</ele>
        <time>2019-03-27T13:05:51Z</time>
      </trkpt>
      <trkpt lat="44.29953" lon="5.82312">
        <ele>558</ele>
        <time>2019-03-27T13:05:51Z</time>
      </trkpt>
      <trkpt lat="44.29948" lon="5.82309">
        <ele>558</ele>
        <time>2019-03-27T13:05:53Z</time>
      </trkpt>
      <trkpt lat="44.29942" lon="5.82307">
        <ele>558</ele>
        <time>2019-03-27T13:05:53Z</time>
      </trkpt>
      <trkpt lat="44.29937" lon="5.82304">
        <ele>558</ele>
        <time>2019-03-27T13:05:54Z</time>
      </trkpt>
      <trkpt lat="44.29931" lon="5.82302">
        <ele>558</ele>
        <time>2019-03-27T13:05:56Z</time>
      </trkpt>
      <trkpt lat="44.29926" lon="5.82299">
        <ele>558</ele>
        <time>2019-03-27T13:05:56Z</time>
      </trkpt>
      <trkpt lat="44.29921" lon="5.82297">
        <ele>558</ele>
        <time>2019-03-27T13:05:57Z</time>
      </trkpt>
      <trkpt lat="44.29915" lon="5.82294">
        <ele>558</ele>
        <time>2019-03-27T13:05:58Z</time>
      </trkpt>
      <trkpt lat="44.2991" lon="5.82291">
        <ele>558</ele>
        <time>2019-03-27T13:05:59Z</time>
      </trkpt>
      <trkpt lat="44.29904" lon="5.82288">
        <ele>558</ele>
        <time>2019-03-27T13:06:00Z</time>
      </trkpt>
      <trkpt lat="44.29899" lon="5.82284">
        <ele>558</ele>
        <time>2019-03-27T13:06:01Z</time>
      </trkpt>
      <trkpt lat="44.29893" lon="5.82281">
        <ele>558</ele>
        <time>2019-03-27T13:06:02Z</time>
      </trkpt>
      <trkpt lat="44.29888" lon="5.82278">
        <ele>558</ele>
        <time>2019-03-27T13:06:03Z</time>
      </trkpt>
      <trkpt lat="44.29882" lon="5.82275">
        <ele>558</ele>
        <time>2019-03-27T13:06:04Z</time>
      </trkpt>
      <trkpt lat="44.29877" lon="5.82271">
        <ele>558</ele>
        <time>2019-03-27T13:06:05Z</time>
      </trkpt>
      <trkpt lat="44.29872" lon="5.82268">
        <ele>558</ele>
        <time>2019-03-27T13:06:06Z</time>
      </trkpt>
      <trkpt lat="44.29866" lon="5.82266">
        <ele>558</ele>
        <time>2019-03-27T13:06:07Z</time>
      </trkpt>
      <trkpt lat="44.29861" lon="5.82263">
        <ele>558</ele>
        <time>2019-03-27T13:06:08Z</time>
      </trkpt>
      <trkpt lat="44.29855" lon="5.82261">
        <ele>558</ele>
        <time>2019-03-27T13:06:09Z</time>
      </trkpt>
      <trkpt lat="44.2985" lon="5.82258">
        <ele>558</ele>
        <time>2019-03-27T13:06:10Z</time>
      </trkpt>
      <trkpt lat="44.29844" lon="5.82257">
        <ele>558</ele>
        <time>2019-03-27T13:06:11Z</time>
      </trkpt>
      <trkpt lat="44.29839" lon="5.82255">
        <ele>558</ele>
        <time>2019-03-27T13:06:12Z</time>
      </trkpt>
      <trkpt lat="44.29833" lon="5.82254">
        <ele>558</ele>
        <time>2019-03-27T13:06:13Z</time>
      </trkpt>
      <trkpt lat="44.29827" lon="5.82252">
        <ele>558</ele>
        <time>2019-03-27T13:06:14Z</time>
      </trkpt>
      <trkpt lat="44.29822" lon="5.82251">
        <ele>558</ele>
        <time>2019-03-27T13:06:15Z</time>
      </trkpt>
      <trkpt lat="44.29817" lon="5.82249">
        <ele>558</ele>
        <time>2019-03-27T13:06:16Z</time>
      </trkpt>
      <trkpt lat="44.29811" lon="5.82248">
        <ele>558</ele>
        <time>2019-03-27T13:06:17Z</time>
      </trkpt>
      <trkpt lat="44.29806" lon="5.82247">
        <ele>558</ele>
        <time>2019-03-27T13:06:18Z</time>
      </trkpt>
      <trkpt lat="44.29801" lon="5.82247">
        <ele>558</ele>
        <time>2019-03-27T13:06:19Z</time>
      </trkpt>
      <trkpt lat="44.29796" lon="5.82246">
        <ele>558</ele>
        <time>2019-03-27T13:06:20Z</time>
      </trkpt>
      <trkpt lat="44.2979" lon="5.82245">
        <ele>558</ele>
        <time>2019-03-27T13:06:21Z</time>
      </trkpt>
      <trkpt lat="44.29786" lon="5.82244">
        <ele>558</ele>
        <time>2019-03-27T13:06:22Z</time>
      </trkpt>
      <trkpt lat="44.2978" lon="5.82243">
        <ele>558</ele>
        <time>2019-03-27T13:06:23Z</time>
      </trkpt>
      <trkpt lat="44.29775" lon="5.82242">
        <ele>558</ele>
        <time>2019-03-27T13:06:24Z</time>
      </trkpt>
      <trkpt lat="44.2977" lon="5.82241">
        <ele>558</ele>
        <time>2019-03-27T13:06:25Z</time>
      </trkpt>
      <trkpt lat="44.29765" lon="5.8224">
        <ele>558</ele>
        <time>2019-03-27T13:06:26Z</time>
      </trkpt>
      <trkpt lat="44.2976" lon="5.82238">
        <ele>558</ele>
        <time>2019-03-27T13:06:27Z</time>
      </trkpt>
      <trkpt lat="44.29755" lon="5.82237">
        <ele>558</ele>
        <time>2019-03-27T13:06:28Z</time>
      </trkpt>
      <trkpt lat="44.2975" lon="5.82235">
        <ele>558</ele>
        <time>2019-03-27T13:06:29Z</time>
      </trkpt>
      <trkpt lat="44.29745" lon="5.82233">
        <ele>558</ele>
        <time>2019-03-27T13:06:30Z</time>
      </trkpt>
      <trkpt lat="44.2974" lon="5.82231">
        <ele>558</ele>
        <time>2019-03-27T13:06:31Z</time>
      </trkpt>
      <trkpt lat="44.29735" lon="5.82228">
        <ele>558</ele>
        <time>2019-03-27T13:06:32Z</time>
      </trkpt>
      <trkpt lat="44.2973" lon="5.82226">
        <ele>558</ele>
        <time>2019-03-27T13:06:33Z</time>
      </trkpt>
      <trkpt lat="44.29725" lon="5.82223">
        <ele>558</ele>
        <time>2019-03-27T13:06:34Z</time>
      </trkpt>
      <trkpt lat="44.29719" lon="5.8222">
        <ele>558</ele>
        <time>2019-03-27T13:06:35Z</time>
      </trkpt>
      <trkpt lat="44.29714" lon="5.82216">
        <ele>558</ele>
        <time>2019-03-27T13:06:36Z</time>
      </trkpt>
      <trkpt lat="44.29709" lon="5.82213">
        <ele>558</ele>
        <time>2019-03-27T13:06:37Z</time>
      </trkpt>
      <trkpt lat="44.29704" lon="5.82209">
        <ele>558</ele>
        <time>2019-03-27T13:06:38Z</time>
      </trkpt>
      <trkpt lat="44.29699" lon="5.82205">
        <ele>558</ele>
        <time>2019-03-27T13:06:39Z</time>
      </trkpt>
      <trkpt lat="44.29694" lon="5.82201">
        <ele>558</ele>
        <time>2019-03-27T13:06:40Z</time>
      </trkpt>
      <trkpt lat="44.29689" lon="5.82197">
        <ele>558</ele>
        <time>2019-03-27T13:06:41Z</time>
      </trkpt>
      <trkpt lat="44.29684" lon="5.82192">
        <ele>558</ele>
        <time>2019-03-27T13:06:42Z</time>
      </trkpt>
      <trkpt lat="44.29679" lon="5.82188">
        <ele>558</ele>
        <time>2019-03-27T13:06:43Z</time>
      </trkpt>
      <trkpt lat="44.29675" lon="5.82183">
        <ele>558</ele>
        <time>2019-03-27T13:06:44Z</time>
      </trkpt>
      <trkpt lat="44.2967" lon="5.82178">
        <ele>558</ele>
        <time>2019-03-27T13:06:45Z</time>
      </trkpt>
      <trkpt lat="44.29666" lon="5.82173">
        <ele>558</ele>
        <time>2019-03-27T13:06:46Z</time>
      </trkpt>
      <trkpt lat="44.29661" lon="5.82168">
        <ele>558</ele>
        <time>2019-03-27T13:06:47Z</time>
      </trkpt>
      <trkpt lat="44.29657" lon="5.82164">
        <ele>558</ele>
        <time>2019-03-27T13:06:48Z</time>
      </trkpt>
      <trkpt lat="44.29653" lon="5.82159">
        <ele>558</ele>
        <time>2019-03-27T13:06:49Z</time>
      </trkpt>
      <trkpt lat="44.29648" lon="5.82155">
        <ele>558</ele>
        <time>2019-03-27T13:06:50Z</time>
      </trkpt>
      <trkpt lat="44.29644" lon="5.82151">
        <ele>558</ele>
        <time>2019-03-27T13:06:51Z</time>
      </trkpt>
      <trkpt lat="44.2964" lon="5.82146">
        <ele>558</ele>
        <time>2019-03-27T13:06:53Z</time>
      </trkpt>
      <trkpt lat="44.29636" lon="5.82143">
        <ele>558</ele>
        <time>2019-03-27T13:06:53Z</time>
      </trkpt>
      <trkpt lat="44.29631" lon="5.82139">
        <ele>558</ele>
        <time>2019-03-27T13:06:54Z</time>
      </trkpt>
      <trkpt lat="44.29626" lon="5.82136">
        <ele>558</ele>
        <time>2019-03-27T13:06:55Z</time>
      </trkpt>
      <trkpt lat="44.29622" lon="5.82132">
        <ele>558</ele>
        <time>2019-03-27T13:06:56Z</time>
      </trkpt>
      <trkpt lat="44.29617" lon="5.82129">
        <ele>558</ele>
        <time>2019-03-27T13:06:57Z</time>
      </trkpt>
      <trkpt lat="44.29612" lon="5.82126">
        <ele>558</ele>
        <time>2019-03-27T13:06:58Z</time>
      </trkpt>
      <trkpt lat="44.29607" lon="5.82123">
        <ele>558</ele>
        <time>2019-03-27T13:06:59Z</time>
      </trkpt>
      <trkpt lat="44.29603" lon="5.82121">
        <ele>558</ele>
        <time>2019-03-27T13:07:00Z</time>
      </trkpt>
      <trkpt lat="44.29598" lon="5.82118">
        <ele>558</ele>
        <time>2019-03-27T13:07:01Z</time>
      </trkpt>
      <trkpt lat="44.29593" lon="5.82116">
        <ele>558</ele>
        <time>2019-03-27T13:07:02Z</time>
      </trkpt>
      <trkpt lat="44.29588" lon="5.82113">
        <ele>559</ele>
        <time>2019-03-27T13:07:03Z</time>
      </trkpt>
      <trkpt lat="44.29584" lon="5.82111">
        <ele>559</ele>
        <time>2019-03-27T13:07:04Z</time>
      </trkpt>
      <trkpt lat="44.29579" lon="5.82109">
        <ele>559</ele>
        <time>2019-03-27T13:07:05Z</time>
      </trkpt>
      <trkpt lat="44.29574" lon="5.82107">
        <ele>559</ele>
        <time>2019-03-27T13:07:06Z</time>
      </trkpt>
      <trkpt lat="44.29569" lon="5.82105">
        <ele>559</ele>
        <time>2019-03-27T13:07:07Z</time>
      </trkpt>
      <trkpt lat="44.29564" lon="5.82104">
        <ele>559</ele>
        <time>2019-03-27T13:07:08Z</time>
      </trkpt>
      <trkpt lat="44.29559" lon="5.82102">
        <ele>559</ele>
        <time>2019-03-27T13:07:09Z</time>
      </trkpt>
      <trkpt lat="44.29554" lon="5.821">
        <ele>559</ele>
        <time>2019-03-27T13:07:10Z</time>
      </trkpt>
      <trkpt lat="44.29549" lon="5.82099">
        <ele>559</ele>
        <time>2019-03-27T13:07:11Z</time>
      </trkpt>
      <trkpt lat="44.29544" lon="5.82098">
        <ele>559</ele>
        <time>2019-03-27T13:07:12Z</time>
      </trkpt>
      <trkpt lat="44.29539" lon="5.82097">
        <ele>559</ele>
        <time>2019-03-27T13:07:13Z</time>
      </trkpt>
      <trkpt lat="44.29534" lon="5.82096">
        <ele>559</ele>
        <time>2019-03-27T13:07:14Z</time>
      </trkpt>
      <trkpt lat="44.29529" lon="5.82095">
        <ele>559</ele>
        <time>2019-03-27T13:07:15Z</time>
      </trkpt>
      <trkpt lat="44.29523" lon="5.82095">
        <ele>559</ele>
        <time>2019-03-27T13:07:16Z</time>
      </trkpt>
      <trkpt lat="44.29518" lon="5.82094">
        <ele>559</ele>
        <time>2019-03-27T13:07:17Z</time>
      </trkpt>
      <trkpt lat="44.29513" lon="5.82093">
        <ele>559</ele>
        <time>2019-03-27T13:07:18Z</time>
      </trkpt>
      <trkpt lat="44.29507" lon="5.82093">
        <ele>559</ele>
        <time>2019-03-27T13:07:19Z</time>
      </trkpt>
      <trkpt lat="44.29501" lon="5.82092">
        <ele>559</ele>
        <time>2019-03-27T13:07:20Z</time>
      </trkpt>
      <trkpt lat="44.29496" lon="5.82092">
        <ele>559</ele>
        <time>2019-03-27T13:07:21Z</time>
      </trkpt>
      <trkpt lat="44.2949" lon="5.82092">
        <ele>559</ele>
        <time>2019-03-27T13:07:22Z</time>
      </trkpt>
      <trkpt lat="44.29484" lon="5.82092">
        <ele>560</ele>
        <time>2019-03-27T13:07:23Z</time>
      </trkpt>
      <trkpt lat="44.29478" lon="5.82093">
        <ele>560</ele>
        <time>2019-03-27T13:07:24Z</time>
      </trkpt>
      <trkpt lat="44.29472" lon="5.82095">
        <ele>560</ele>
        <time>2019-03-27T13:07:25Z</time>
      </trkpt>
      <trkpt lat="44.29466" lon="5.82098">
        <ele>560</ele>
        <time>2019-03-27T13:07:26Z</time>
      </trkpt>
      <trkpt lat="44.2946" lon="5.82101">
        <ele>560</ele>
        <time>2019-03-27T13:07:27Z</time>
      </trkpt>
      <trkpt lat="44.29454" lon="5.82106">
        <ele>560</ele>
        <time>2019-03-27T13:07:28Z</time>
      </trkpt>
      <trkpt lat="44.29448" lon="5.82111">
        <ele>560</ele>
        <time>2019-03-27T13:07:29Z</time>
      </trkpt>
      <trkpt lat="44.29443" lon="5.82116">
        <ele>561</ele>
        <time>2019-03-27T13:07:30Z</time>
      </trkpt>
      <trkpt lat="44.29438" lon="5.8212">
        <ele>561</ele>
        <time>2019-03-27T13:07:31Z</time>
      </trkpt>
      <trkpt lat="44.29434" lon="5.82125">
        <ele>561</ele>
        <time>2019-03-27T13:07:32Z</time>
      </trkpt>
      <trkpt lat="44.29429" lon="5.8213">
        <ele>562</ele>
        <time>2019-03-27T13:07:33Z</time>
      </trkpt>
      <trkpt lat="44.29425" lon="5.82135">
        <ele>562</ele>
        <time>2019-03-27T13:07:34Z</time>
      </trkpt>
      <trkpt lat="44.29421" lon="5.82139">
        <ele>562</ele>
        <time>2019-03-27T13:07:35Z</time>
      </trkpt>
      <trkpt lat="44.29417" lon="5.82143">
        <ele>562</ele>
        <time>2019-03-27T13:07:36Z</time>
      </trkpt>
      <trkpt lat="44.29414" lon="5.82148">
        <ele>562</ele>
        <time>2019-03-27T13:07:37Z</time>
      </trkpt>
      <trkpt lat="44.2941" lon="5.82151">
        <ele>562</ele>
        <time>2019-03-27T13:07:38Z</time>
      </trkpt>
      <trkpt lat="44.29407" lon="5.82155">
        <ele>562</ele>
        <time>2019-03-27T13:07:39Z</time>
      </trkpt>
      <trkpt lat="44.29403" lon="5.82159">
        <ele>562</ele>
        <time>2019-03-27T13:07:40Z</time>
      </trkpt>
      <trkpt lat="44.29399" lon="5.82163">
        <ele>562</ele>
        <time>2019-03-27T13:07:41Z</time>
      </trkpt>
      <trkpt lat="44.29395" lon="5.82168">
        <ele>562</ele>
        <time>2019-03-27T13:07:42Z</time>
      </trkpt>
      <trkpt lat="44.2939" lon="5.82172">
        <ele>562</ele>
        <time>2019-03-27T13:07:43Z</time>
      </trkpt>
      <trkpt lat="44.29385" lon="5.82178">
        <ele>562</ele>
        <time>2019-03-27T13:07:44Z</time>
      </trkpt>
      <trkpt lat="44.2938" lon="5.82183">
        <ele>562</ele>
        <time>2019-03-27T13:07:45Z</time>
      </trkpt>
      <trkpt lat="44.29375" lon="5.82189">
        <ele>562</ele>
        <time>2019-03-27T13:07:46Z</time>
      </trkpt>
      <trkpt lat="44.29369" lon="5.82193">
        <ele>562</ele>
        <time>2019-03-27T13:07:47Z</time>
      </trkpt>
      <trkpt lat="44.29364" lon="5.82198">
        <ele>562</ele>
        <time>2019-03-27T13:07:48Z</time>
      </trkpt>
      <trkpt lat="44.29359" lon="5.82203">
        <ele>562</ele>
        <time>2019-03-27T13:07:49Z</time>
      </trkpt>
      <trkpt lat="44.29354" lon="5.82207">
        <ele>562</ele>
        <time>2019-03-27T13:07:50Z</time>
      </trkpt>
      <trkpt lat="44.29348" lon="5.8221">
        <ele>562</ele>
        <time>2019-03-27T13:07:51Z</time>
      </trkpt>
      <trkpt lat="44.29343" lon="5.82213">
        <ele>562</ele>
        <time>2019-03-27T13:07:53Z</time>
      </trkpt>
      <trkpt lat="44.29337" lon="5.82216">
        <ele>563</ele>
        <time>2019-03-27T13:07:53Z</time>
      </trkpt>
      <trkpt lat="44.29331" lon="5.82219">
        <ele>563</ele>
        <time>2019-03-27T13:07:54Z</time>
      </trkpt>
      <trkpt lat="44.29325" lon="5.82221">
        <ele>563</ele>
        <time>2019-03-27T13:07:55Z</time>
      </trkpt>
      <trkpt lat="44.29319" lon="5.82224">
        <ele>563</ele>
        <time>2019-03-27T13:07:56Z</time>
      </trkpt>
      <trkpt lat="44.29313" lon="5.82226">
        <ele>563</ele>
        <time>2019-03-27T13:07:57Z</time>
      </trkpt>
      <trkpt lat="44.29307" lon="5.82228">
        <ele>563</ele>
        <time>2019-03-27T13:07:58Z</time>
      </trkpt>
      <trkpt lat="44.29301" lon="5.8223">
        <ele>563</ele>
        <time>2019-03-27T13:07:59Z</time>
      </trkpt>
      <trkpt lat="44.29295" lon="5.82232">
        <ele>563</ele>
        <time>2019-03-27T13:08:00Z</time>
      </trkpt>
      <trkpt lat="44.2929" lon="5.82234">
        <ele>563</ele>
        <time>2019-03-27T13:08:01Z</time>
      </trkpt>
      <trkpt lat="44.29284" lon="5.82237">
        <ele>563</ele>
        <time>2019-03-27T13:08:02Z</time>
      </trkpt>
      <trkpt lat="44.29279" lon="5.82239">
        <ele>563</ele>
        <time>2019-03-27T13:08:03Z</time>
      </trkpt>
      <trkpt lat="44.29273" lon="5.82241">
        <ele>563</ele>
        <time>2019-03-27T13:08:04Z</time>
      </trkpt>
      <trkpt lat="44.29267" lon="5.82243">
        <ele>563</ele>
        <time>2019-03-27T13:08:05Z</time>
      </trkpt>
      <trkpt lat="44.29261" lon="5.82245">
        <ele>563</ele>
        <time>2019-03-27T13:08:06Z</time>
      </trkpt>
      <trkpt lat="44.29255" lon="5.82248">
        <ele>563</ele>
        <time>2019-03-27T13:08:07Z</time>
      </trkpt>
      <trkpt lat="44.29249" lon="5.82249">
        <ele>563</ele>
        <time>2019-03-27T13:08:08Z</time>
      </trkpt>
      <trkpt lat="44.29243" lon="5.82251">
        <ele>563</ele>
        <time>2019-03-27T13:08:09Z</time>
      </trkpt>
      <trkpt lat="44.29237" lon="5.82252">
        <ele>563</ele>
        <time>2019-03-27T13:08:10Z</time>
      </trkpt>
      <trkpt lat="44.29231" lon="5.82253">
        <ele>563</ele>
        <time>2019-03-27T13:08:11Z</time>
      </trkpt>
      <trkpt lat="44.29225" lon="5.82254">
        <ele>563</ele>
        <time>2019-03-27T13:08:12Z</time>
      </trkpt>
      <trkpt lat="44.29219" lon="5.82255">
        <ele>563</ele>
        <time>2019-03-27T13:08:13Z</time>
      </trkpt>
      <trkpt lat="44.29214" lon="5.82255">
        <ele>563</ele>
        <time>2019-03-27T13:08:14Z</time>
      </trkpt>
      <trkpt lat="44.29208" lon="5.82256">
        <ele>563</ele>
        <time>2019-03-27T13:08:15Z</time>
      </trkpt>
      <trkpt lat="44.29202" lon="5.82256">
        <ele>563</ele>
        <time>2019-03-27T13:08:16Z</time>
      </trkpt>
      <trkpt lat="44.29196" lon="5.82256">
        <ele>563</ele>
        <time>2019-03-27T13:08:17Z</time>
      </trkpt>
      <trkpt lat="44.2919" lon="5.82256">
        <ele>563</ele>
        <time>2019-03-27T13:08:18Z</time>
      </trkpt>
      <trkpt lat="44.29185" lon="5.82257">
        <ele>563</ele>
        <time>2019-03-27T13:08:19Z</time>
      </trkpt>
      <trkpt lat="44.29179" lon="5.82257">
        <ele>563</ele>
        <time>2019-03-27T13:08:20Z</time>
      </trkpt>
      <trkpt lat="44.29173" lon="5.82258">
        <ele>563</ele>
        <time>2019-03-27T13:08:21Z</time>
      </trkpt>
      <trkpt lat="44.29168" lon="5.82258">
        <ele>563</ele>
        <time>2019-03-27T13:08:22Z</time>
      </trkpt>
      <trkpt lat="44.29162" lon="5.82258">
        <ele>563</ele>
        <time>2019-03-27T13:08:23Z</time>
      </trkpt>
      <trkpt lat="44.29156" lon="5.82259">
        <ele>563</ele>
        <time>2019-03-27T13:08:24Z</time>
      </trkpt>
      <trkpt lat="44.2915" lon="5.8226">
        <ele>563</ele>
        <time>2019-03-27T13:08:25Z</time>
      </trkpt>
      <trkpt lat="44.29145" lon="5.82261">
        <ele>563</ele>
        <time>2019-03-27T13:08:26Z</time>
      </trkpt>
      <trkpt lat="44.29139" lon="5.82261">
        <ele>563</ele>
        <time>2019-03-27T13:08:27Z</time>
      </trkpt>
      <trkpt lat="44.29134" lon="5.82262">
        <ele>563</ele>
        <time>2019-03-27T13:08:28Z</time>
      </trkpt>
      <trkpt lat="44.29128" lon="5.82263">
        <ele>563</ele>
        <time>2019-03-27T13:08:29Z</time>
      </trkpt>
      <trkpt lat="44.29122" lon="5.82264">
        <ele>563</ele>
        <time>2019-03-27T13:08:30Z</time>
      </trkpt>
      <trkpt lat="44.29117" lon="5.82264">
        <ele>563</ele>
        <time>2019-03-27T13:08:31Z</time>
      </trkpt>
      <trkpt lat="44.29111" lon="5.82265">
        <ele>563</ele>
        <time>2019-03-27T13:08:32Z</time>
      </trkpt>
      <trkpt lat="44.29105" lon="5.82266">
        <ele>563</ele>
        <time>2019-03-27T13:08:33Z</time>
      </trkpt>
      <trkpt lat="44.291" lon="5.82266">
        <ele>563</ele>
        <time>2019-03-27T13:08:34Z</time>
      </trkpt>
      <trkpt lat="44.29094" lon="5.82267">
        <ele>563</ele>
        <time>2019-03-27T13:08:35Z</time>
      </trkpt>
      <trkpt lat="44.29088" lon="5.82267">
        <ele>563</ele>
        <time>2019-03-27T13:08:36Z</time>
      </trkpt>
      <trkpt lat="44.29082" lon="5.82268">
        <ele>563</ele>
        <time>2019-03-27T13:08:37Z</time>
      </trkpt>
      <trkpt lat="44.29077" lon="5.82268">
        <ele>563</ele>
        <time>2019-03-27T13:08:38Z</time>
      </trkpt>
      <trkpt lat="44.29071" lon="5.82269">
        <ele>563</ele>
        <time>2019-03-27T13:08:39Z</time>
      </trkpt>
      <trkpt lat="44.29066" lon="5.82269">
        <ele>563</ele>
        <time>2019-03-27T13:08:40Z</time>
      </trkpt>
      <trkpt lat="44.2906" lon="5.8227">
        <ele>563</ele>
        <time>2019-03-27T13:08:41Z</time>
      </trkpt>
      <trkpt lat="44.29055" lon="5.8227">
        <ele>563</ele>
        <time>2019-03-27T13:08:42Z</time>
      </trkpt>
      <trkpt lat="44.2905" lon="5.8227">
        <ele>563</ele>
        <time>2019-03-27T13:08:43Z</time>
      </trkpt>
      <trkpt lat="44.29044" lon="5.82271">
        <ele>563</ele>
        <time>2019-03-27T13:08:44Z</time>
      </trkpt>
      <trkpt lat="44.29039" lon="5.82271">
        <ele>563</ele>
        <time>2019-03-27T13:08:45Z</time>
      </trkpt>
      <trkpt lat="44.29034" lon="5.82271">
        <ele>563</ele>
        <time>2019-03-27T13:08:46Z</time>
      </trkpt>
      <trkpt lat="44.29029" lon="5.82272">
        <ele>563</ele>
        <time>2019-03-27T13:08:47Z</time>
      </trkpt>
      <trkpt lat="44.29024" lon="5.82274">
        <ele>563</ele>
        <time>2019-03-27T13:08:48Z</time>
      </trkpt>
      <trkpt lat="44.29019" lon="5.82275">
        <ele>563</ele>
        <time>2019-03-27T13:08:49Z</time>
      </trkpt>
      <trkpt lat="44.29014" lon="5.82276">
        <ele>563</ele>
        <time>2019-03-27T13:08:50Z</time>
      </trkpt>
      <trkpt lat="44.29009" lon="5.82276">
        <ele>563</ele>
        <time>2019-03-27T13:08:51Z</time>
      </trkpt>
      <trkpt lat="44.29004" lon="5.82277">
        <ele>563</ele>
        <time>2019-03-27T13:08:53Z</time>
      </trkpt>
      <trkpt lat="44.28999" lon="5.82277">
        <ele>563</ele>
        <time>2019-03-27T13:08:53Z</time>
      </trkpt>
      <trkpt lat="44.28994" lon="5.82278">
        <ele>563</ele>
        <time>2019-03-27T13:08:54Z</time>
      </trkpt>
      <trkpt lat="44.28989" lon="5.82279">
        <ele>563</ele>
        <time>2019-03-27T13:08:55Z</time>
      </trkpt>
      <trkpt lat="44.28984" lon="5.82279">
        <ele>563</ele>
        <time>2019-03-27T13:08:56Z</time>
      </trkpt>
      <trkpt lat="44.28979" lon="5.82279">
        <ele>563</ele>
        <time>2019-03-27T13:08:57Z</time>
      </trkpt>
      <trkpt lat="44.28975" lon="5.8228">
        <ele>563</ele>
        <time>2019-03-27T13:08:58Z</time>
      </trkpt>
      <trkpt lat="44.2897" lon="5.8228">
        <ele>563</ele>
        <time>2019-03-27T13:08:59Z</time>
      </trkpt>
      <trkpt lat="44.28965" lon="5.8228">
        <ele>563</ele>
        <time>2019-03-27T13:09:00Z</time>
      </trkpt>
      <trkpt lat="44.2896" lon="5.8228">
        <ele>563</ele>
        <time>2019-03-27T13:09:01Z</time>
      </trkpt>
      <trkpt lat="44.28955" lon="5.82281">
        <ele>563</ele>
        <time>2019-03-27T13:09:02Z</time>
      </trkpt>
      <trkpt lat="44.2895" lon="5.82281">
        <ele>563</ele>
        <time>2019-03-27T13:09:03Z</time>
      </trkpt>
      <trkpt lat="44.28945" lon="5.82281">
        <ele>563</ele>
        <time>2019-03-27T13:09:04Z</time>
      </trkpt>
      <trkpt lat="44.2894" lon="5.82281">
        <ele>563</ele>
        <time>2019-03-27T13:09:05Z</time>
      </trkpt>
      <trkpt lat="44.28935" lon="5.82281">
        <ele>563</ele>
        <time>2019-03-27T13:09:06Z</time>
      </trkpt>
      <trkpt lat="44.2893" lon="5.82281">
        <ele>563</ele>
        <time>2019-03-27T13:09:07Z</time>
      </trkpt>
      <trkpt lat="44.28925" lon="5.8228">
        <ele>563</ele>
        <time>2019-03-27T13:09:08Z</time>
      </trkpt>
      <trkpt lat="44.2892" lon="5.8228">
        <ele>563</ele>
        <time>2019-03-27T13:09:09Z</time>
      </trkpt>
      <trkpt lat="44.28915" lon="5.82279">
        <ele>563</ele>
        <time>2019-03-27T13:09:10Z</time>
      </trkpt>
      <trkpt lat="44.2891" lon="5.82278">
        <ele>563</ele>
        <time>2019-03-27T13:09:11Z</time>
      </trkpt>
      <trkpt lat="44.28904" lon="5.82276">
        <ele>563</ele>
        <time>2019-03-27T13:09:12Z</time>
      </trkpt>
      <trkpt lat="44.289" lon="5.82274">
        <ele>563</ele>
        <time>2019-03-27T13:09:13Z</time>
      </trkpt>
      <trkpt lat="44.28895" lon="5.82272">
        <ele>563</ele>
        <time>2019-03-27T13:09:14Z</time>
      </trkpt>
      <trkpt lat="44.2889" lon="5.8227">
        <ele>563</ele>
        <time>2019-03-27T13:09:15Z</time>
      </trkpt>
      <trkpt lat="44.28886" lon="5.82267">
        <ele>563</ele>
        <time>2019-03-27T13:09:16Z</time>
      </trkpt>
      <trkpt lat="44.28881" lon="5.82264">
        <ele>563</ele>
        <time>2019-03-27T13:09:17Z</time>
      </trkpt>
      <trkpt lat="44.28876" lon="5.82261">
        <ele>563</ele>
        <time>2019-03-27T13:09:18Z</time>
      </trkpt>
      <trkpt lat="44.28872" lon="5.82257">
        <ele>564</ele>
        <time>2019-03-27T13:09:19Z</time>
      </trkpt>
      <trkpt lat="44.28868" lon="5.82253">
        <ele>564</ele>
        <time>2019-03-27T13:09:20Z</time>
      </trkpt>
      <trkpt lat="44.28864" lon="5.82249">
        <ele>564</ele>
        <time>2019-03-27T13:09:21Z</time>
      </trkpt>
      <trkpt lat="44.28859" lon="5.82245">
        <ele>564</ele>
        <time>2019-03-27T13:09:22Z</time>
      </trkpt>
      <trkpt lat="44.28855" lon="5.8224">
        <ele>564</ele>
        <time>2019-03-27T13:09:23Z</time>
      </trkpt>
      <trkpt lat="44.28851" lon="5.82236">
        <ele>564</ele>
        <time>2019-03-27T13:09:24Z</time>
      </trkpt>
      <trkpt lat="44.28846" lon="5.82232">
        <ele>564</ele>
        <time>2019-03-27T13:09:25Z</time>
      </trkpt>
      <trkpt lat="44.28841" lon="5.82228">
        <ele>564</ele>
        <time>2019-03-27T13:09:26Z</time>
      </trkpt>
      <trkpt lat="44.28837" lon="5.82224">
        <ele>564</ele>
        <time>2019-03-27T13:09:27Z</time>
      </trkpt>
      <trkpt lat="44.28832" lon="5.8222">
        <ele>564</ele>
        <time>2019-03-27T13:09:28Z</time>
      </trkpt>
      <trkpt lat="44.28828" lon="5.82216">
        <ele>565</ele>
        <time>2019-03-27T13:09:29Z</time>
      </trkpt>
      <trkpt lat="44.28823" lon="5.82212">
        <ele>565</ele>
        <time>2019-03-27T13:09:30Z</time>
      </trkpt>
      <trkpt lat="44.28818" lon="5.82208">
        <ele>565</ele>
        <time>2019-03-27T13:09:31Z</time>
      </trkpt>
      <trkpt lat="44.28812" lon="5.82204">
        <ele>565</ele>
        <time>2019-03-27T13:09:32Z</time>
      </trkpt>
      <trkpt lat="44.28807" lon="5.822">
        <ele>565</ele>
        <time>2019-03-27T13:09:33Z</time>
      </trkpt>
      <trkpt lat="44.28802" lon="5.82196">
        <ele>565</ele>
        <time>2019-03-27T13:09:34Z</time>
      </trkpt>
      <trkpt lat="44.28796" lon="5.82191">
        <ele>565</ele>
        <time>2019-03-27T13:09:35Z</time>
      </trkpt>
      <trkpt lat="44.28791" lon="5.82187">
        <ele>565</ele>
        <time>2019-03-27T13:09:36Z</time>
      </trkpt>
      <trkpt lat="44.28785" lon="5.82184">
        <ele>565</ele>
        <time>2019-03-27T13:09:37Z</time>
      </trkpt>
      <trkpt lat="44.28779" lon="5.8218">
        <ele>565</ele>
        <time>2019-03-27T13:09:38Z</time>
      </trkpt>
      <trkpt lat="44.28773" lon="5.82176">
        <ele>565</ele>
        <time>2019-03-27T13:09:39Z</time>
      </trkpt>
      <trkpt lat="44.28767" lon="5.82172">
        <ele>565</ele>
        <time>2019-03-27T13:09:40Z</time>
      </trkpt>
      <trkpt lat="44.2876" lon="5.82168">
        <ele>565</ele>
        <time>2019-03-27T13:09:41Z</time>
      </trkpt>
      <trkpt lat="44.28754" lon="5.82165">
        <ele>565</ele>
        <time>2019-03-27T13:09:42Z</time>
      </trkpt>
      <trkpt lat="44.28747" lon="5.82161">
        <ele>565</ele>
        <time>2019-03-27T13:09:43Z</time>
      </trkpt>
      <trkpt lat="44.2874" lon="5.82158">
        <ele>565</ele>
        <time>2019-03-27T13:09:44Z</time>
      </trkpt>
      <trkpt lat="44.28733" lon="5.82154">
        <ele>565</ele>
        <time>2019-03-27T13:09:45Z</time>
      </trkpt>
      <trkpt lat="44.28726" lon="5.82151">
        <ele>565</ele>
        <time>2019-03-27T13:09:46Z</time>
      </trkpt>
      <trkpt lat="44.28718" lon="5.82147">
        <ele>565</ele>
        <time>2019-03-27T13:09:47Z</time>
      </trkpt>
      <trkpt lat="44.28711" lon="5.82144">
        <ele>565</ele>
        <time>2019-03-27T13:09:48Z</time>
      </trkpt>
      <trkpt lat="44.28704" lon="5.82142">
        <ele>565</ele>
        <time>2019-03-27T13:09:49Z</time>
      </trkpt>
      <trkpt lat="44.28696" lon="5.82139">
        <ele>565</ele>
        <time>2019-03-27T13:09:50Z</time>
      </trkpt>
      <trkpt lat="44.28688" lon="5.82137">
        <ele>565</ele>
        <time>2019-03-27T13:09:51Z</time>
      </trkpt>
      <trkpt lat="44.2868" lon="5.82134">
        <ele>565</ele>
        <time>2019-03-27T13:09:53Z</time>
      </trkpt>
      <trkpt lat="44.28673" lon="5.82132">
        <ele>565</ele>
        <time>2019-03-27T13:09:53Z</time>
      </trkpt>
      <trkpt lat="44.28665" lon="5.82129">
        <ele>565</ele>
        <time>2019-03-27T13:09:54Z</time>
      </trkpt>
      <trkpt lat="44.28656" lon="5.82127">
        <ele>565</ele>
        <time>2019-03-27T13:09:55Z</time>
      </trkpt>
      <trkpt lat="44.28648" lon="5.82124">
        <ele>565</ele>
        <time>2019-03-27T13:09:56Z</time>
      </trkpt>
      <trkpt lat="44.28639" lon="5.82122">
        <ele>564</ele>
        <time>2019-03-27T13:09:57Z</time>
      </trkpt>
      <trkpt lat="44.28631" lon="5.82119">
        <ele>564</ele>
        <time>2019-03-27T13:09:58Z</time>
      </trkpt>
      <trkpt lat="44.28622" lon="5.82116">
        <ele>564</ele>
        <time>2019-03-27T13:09:59Z</time>
      </trkpt>
      <trkpt lat="44.28614" lon="5.82113">
        <ele>563</ele>
        <time>2019-03-27T13:10:00Z</time>
      </trkpt>
      <trkpt lat="44.28605" lon="5.8211">
        <ele>563</ele>
        <time>2019-03-27T13:10:01Z</time>
      </trkpt>
      <trkpt lat="44.28597" lon="5.82107">
        <ele>562</ele>
        <time>2019-03-27T13:10:02Z</time>
      </trkpt>
      <trkpt lat="44.28588" lon="5.82103">
        <ele>562</ele>
        <time>2019-03-27T13:10:03Z</time>
      </trkpt>
      <trkpt lat="44.28579" lon="5.82099">
        <ele>562</ele>
        <time>2019-03-27T13:10:04Z</time>
      </trkpt>
      <trkpt lat="44.2857" lon="5.82095">
        <ele>561</ele>
        <time>2019-03-27T13:10:05Z</time>
      </trkpt>
      <trkpt lat="44.28561" lon="5.82091">
        <ele>561</ele>
        <time>2019-03-27T13:10:06Z</time>
      </trkpt>
      <trkpt lat="44.28553" lon="5.82087">
        <ele>560</ele>
        <time>2019-03-27T13:10:07Z</time>
      </trkpt>
      <trkpt lat="44.28544" lon="5.82082">
        <ele>560</ele>
        <time>2019-03-27T13:10:08Z</time>
      </trkpt>
      <trkpt lat="44.28535" lon="5.82078">
        <ele>560</ele>
        <time>2019-03-27T13:10:09Z</time>
      </trkpt>
      <trkpt lat="44.28526" lon="5.82074">
        <ele>559</ele>
        <time>2019-03-27T13:10:10Z</time>
      </trkpt>
      <trkpt lat="44.28518" lon="5.82069">
        <ele>559</ele>
        <time>2019-03-27T13:10:11Z</time>
      </trkpt>
      <trkpt lat="44.28509" lon="5.82065">
        <ele>559</ele>
        <time>2019-03-27T13:10:12Z</time>
      </trkpt>
      <trkpt lat="44.285" lon="5.8206">
        <ele>558</ele>
        <time>2019-03-27T13:10:13Z</time>
      </trkpt>
      <trkpt lat="44.28492" lon="5.82056">
        <ele>558</ele>
        <time>2019-03-27T13:10:14Z</time>
      </trkpt>
      <trkpt lat="44.28484" lon="5.82052">
        <ele>558</ele>
        <time>2019-03-27T13:10:15Z</time>
      </trkpt>
      <trkpt lat="44.28476" lon="5.82048">
        <ele>557</ele>
        <time>2019-03-27T13:10:16Z</time>
      </trkpt>
      <trkpt lat="44.28467" lon="5.82044">
        <ele>557</ele>
        <time>2019-03-27T13:10:17Z</time>
      </trkpt>
      <trkpt lat="44.28459" lon="5.8204">
        <ele>557</ele>
        <time>2019-03-27T13:10:18Z</time>
      </trkpt>
      <trkpt lat="44.28451" lon="5.82037">
        <ele>557</ele>
        <time>2019-03-27T13:10:19Z</time>
      </trkpt>
      <trkpt lat="44.28443" lon="5.82034">
        <ele>557</ele>
        <time>2019-03-27T13:10:20Z</time>
      </trkpt>
      <trkpt lat="44.28435" lon="5.82032">
        <ele>556</ele>
        <time>2019-03-27T13:10:21Z</time>
      </trkpt>
      <trkpt lat="44.28427" lon="5.82029">
        <ele>556</ele>
        <time>2019-03-27T13:10:22Z</time>
      </trkpt>
      <trkpt lat="44.28419" lon="5.82027">
        <ele>556</ele>
        <time>2019-03-27T13:10:23Z</time>
      </trkpt>
      <trkpt lat="44.28411" lon="5.82025">
        <ele>556</ele>
        <time>2019-03-27T13:10:24Z</time>
      </trkpt>
      <trkpt lat="44.28403" lon="5.82023">
        <ele>556</ele>
        <time>2019-03-27T13:10:25Z</time>
      </trkpt>
      <trkpt lat="44.28395" lon="5.82022">
        <ele>555</ele>
        <time>2019-03-27T13:10:26Z</time>
      </trkpt>
      <trkpt lat="44.28387" lon="5.82021">
        <ele>555</ele>
        <time>2019-03-27T13:10:27Z</time>
      </trkpt>
      <trkpt lat="44.28379" lon="5.8202">
        <ele>555</ele>
        <time>2019-03-27T13:10:28Z</time>
      </trkpt>
      <trkpt lat="44.28371" lon="5.82019">
        <ele>555</ele>
        <time>2019-03-27T13:10:29Z</time>
      </trkpt>
      <trkpt lat="44.28364" lon="5.82019">
        <ele>554</ele>
        <time>2019-03-27T13:10:30Z</time>
      </trkpt>
      <trkpt lat="44.28356" lon="5.82019">
        <ele>554</ele>
        <time>2019-03-27T13:10:31Z</time>
      </trkpt>
      <trkpt lat="44.28348" lon="5.82019">
        <ele>554</ele>
        <time>2019-03-27T13:10:32Z</time>
      </trkpt>
      <trkpt lat="44.28341" lon="5.8202">
        <ele>554</ele>
        <time>2019-03-27T13:10:33Z</time>
      </trkpt>
      <trkpt lat="44.28333" lon="5.82021">
        <ele>554</ele>
        <time>2019-03-27T13:10:34Z</time>
      </trkpt>
      <trkpt lat="44.28326" lon="5.82021">
        <ele>554</ele>
        <time>2019-03-27T13:10:35Z</time>
      </trkpt>
      <trkpt lat="44.28318" lon="5.82021">
        <ele>554</ele>
        <time>2019-03-27T13:10:37Z</time>
      </trkpt>
      <trkpt lat="44.28311" lon="5.8202">
        <ele>554</ele>
        <time>2019-03-27T13:10:37Z</time>
      </trkpt>
      <trkpt lat="44.28304" lon="5.8202">
        <ele>554</ele>
        <time>2019-03-27T13:10:38Z</time>
      </trkpt>
      <trkpt lat="44.28296" lon="5.82019">
        <ele>554</ele>
        <time>2019-03-27T13:10:39Z</time>
      </trkpt>
      <trkpt lat="44.28289" lon="5.82019">
        <ele>554</ele>
        <time>2019-03-27T13:10:40Z</time>
      </trkpt>
      <trkpt lat="44.28281" lon="5.8202">
        <ele>554</ele>
        <time>2019-03-27T13:10:41Z</time>
      </trkpt>
      <trkpt lat="44.28273" lon="5.82019">
        <ele>554</ele>
        <time>2019-03-27T13:10:42Z</time>
      </trkpt>
      <trkpt lat="44.28266" lon="5.82019">
        <ele>554</ele>
        <time>2019-03-27T13:10:43Z</time>
      </trkpt>
      <trkpt lat="44.28258" lon="5.82018">
        <ele>554</ele>
        <time>2019-03-27T13:10:44Z</time>
      </trkpt>
      <trkpt lat="44.28249" lon="5.82017">
        <ele>554</ele>
        <time>2019-03-27T13:10:45Z</time>
      </trkpt>
      <trkpt lat="44.28241" lon="5.82015">
        <ele>554</ele>
        <time>2019-03-27T13:10:46Z</time>
      </trkpt>
      <trkpt lat="44.28233" lon="5.82013">
        <ele>554</ele>
        <time>2019-03-27T13:10:47Z</time>
      </trkpt>
      <trkpt lat="44.28225" lon="5.8201">
        <ele>554</ele>
        <time>2019-03-27T13:10:48Z</time>
      </trkpt>
      <trkpt lat="44.28218" lon="5.82007">
        <ele>554</ele>
        <time>2019-03-27T13:10:49Z</time>
      </trkpt>
      <trkpt lat="44.2821" lon="5.82002">
        <ele>554</ele>
        <time>2019-03-27T13:10:50Z</time>
      </trkpt>
      <trkpt lat="44.28202" lon="5.81998">
        <ele>554</ele>
        <time>2019-03-27T13:10:51Z</time>
      </trkpt>
      <trkpt lat="44.28195" lon="5.81993">
        <ele>553</ele>
        <time>2019-03-27T13:10:53Z</time>
      </trkpt>
      <trkpt lat="44.28187" lon="5.81988">
        <ele>553</ele>
        <time>2019-03-27T13:10:53Z</time>
      </trkpt>
      <trkpt lat="44.2818" lon="5.81983">
        <ele>553</ele>
        <time>2019-03-27T13:10:54Z</time>
      </trkpt>
      <trkpt lat="44.28172" lon="5.81979">
        <ele>553</ele>
        <time>2019-03-27T13:10:55Z</time>
      </trkpt>
      <trkpt lat="44.28164" lon="5.81974">
        <ele>553</ele>
        <time>2019-03-27T13:10:56Z</time>
      </trkpt>
      <trkpt lat="44.28157" lon="5.81969">
        <ele>553</ele>
        <time>2019-03-27T13:10:57Z</time>
      </trkpt>
      <trkpt lat="44.2815" lon="5.81965">
        <ele>553</ele>
        <time>2019-03-27T13:10:58Z</time>
      </trkpt>
      <trkpt lat="44.28143" lon="5.8196">
        <ele>553</ele>
        <time>2019-03-27T13:10:59Z</time>
      </trkpt>
      <trkpt lat="44.28136" lon="5.81955">
        <ele>553</ele>
        <time>2019-03-27T13:11:00Z</time>
      </trkpt>
      <trkpt lat="44.28129" lon="5.8195">
        <ele>552</ele>
        <time>2019-03-27T13:11:01Z</time>
      </trkpt>
      <trkpt lat="44.28122" lon="5.81945">
        <ele>552</ele>
        <time>2019-03-27T13:11:02Z</time>
      </trkpt>
      <trkpt lat="44.28115" lon="5.8194">
        <ele>552</ele>
        <time>2019-03-27T13:11:03Z</time>
      </trkpt>
      <trkpt lat="44.28108" lon="5.81935">
        <ele>552</ele>
        <time>2019-03-27T13:11:04Z</time>
      </trkpt>
      <trkpt lat="44.28101" lon="5.8193">
        <ele>552</ele>
        <time>2019-03-27T13:11:05Z</time>
      </trkpt>
      <trkpt lat="44.28094" lon="5.81925">
        <ele>551</ele>
        <time>2019-03-27T13:11:06Z</time>
      </trkpt>
      <trkpt lat="44.28086" lon="5.8192">
        <ele>551</ele>
        <time>2019-03-27T13:11:07Z</time>
      </trkpt>
      <trkpt lat="44.28079" lon="5.81916">
        <ele>551</ele>
        <time>2019-03-27T13:11:08Z</time>
      </trkpt>
      <trkpt lat="44.28072" lon="5.81911">
        <ele>551</ele>
        <time>2019-03-27T13:11:09Z</time>
      </trkpt>
      <trkpt lat="44.28064" lon="5.81906">
        <ele>551</ele>
        <time>2019-03-27T13:11:10Z</time>
      </trkpt>
      <trkpt lat="44.28057" lon="5.81901">
        <ele>550</ele>
        <time>2019-03-27T13:11:11Z</time>
      </trkpt>
      <trkpt lat="44.28049" lon="5.81896">
        <ele>550</ele>
        <time>2019-03-27T13:11:12Z</time>
      </trkpt>
      <trkpt lat="44.28042" lon="5.81891">
        <ele>550</ele>
        <time>2019-03-27T13:11:13Z</time>
      </trkpt>
      <trkpt lat="44.28034" lon="5.81887">
        <ele>550</ele>
        <time>2019-03-27T13:11:14Z</time>
      </trkpt>
      <trkpt lat="44.28027" lon="5.81882">
        <ele>550</ele>
        <time>2019-03-27T13:11:15Z</time>
      </trkpt>
      <trkpt lat="44.2802" lon="5.81877">
        <ele>550</ele>
        <time>2019-03-27T13:11:16Z</time>
      </trkpt>
      <trkpt lat="44.28012" lon="5.81873">
        <ele>550</ele>
        <time>2019-03-27T13:11:17Z</time>
      </trkpt>
      <trkpt lat="44.28006" lon="5.81868">
        <ele>550</ele>
        <time>2019-03-27T13:11:18Z</time>
      </trkpt>
      <trkpt lat="44.27998" lon="5.81864">
        <ele>550</ele>
        <time>2019-03-27T13:11:19Z</time>
      </trkpt>
      <trkpt lat="44.27992" lon="5.81859">
        <ele>550</ele>
        <time>2019-03-27T13:11:20Z</time>
      </trkpt>
      <trkpt lat="44.27985" lon="5.81855">
        <ele>550</ele>
        <time>2019-03-27T13:11:21Z</time>
      </trkpt>
      <trkpt lat="44.27979" lon="5.81851">
        <ele>550</ele>
        <time>2019-03-27T13:11:22Z</time>
      </trkpt>
      <trkpt lat="44.27972" lon="5.81846">
        <ele>550</ele>
        <time>2019-03-27T13:11:23Z</time>
      </trkpt>
      <trkpt lat="44.27965" lon="5.81842">
        <ele>550</ele>
        <time>2019-03-27T13:11:24Z</time>
      </trkpt>
      <trkpt lat="44.27959" lon="5.81838">
        <ele>550</ele>
        <time>2019-03-27T13:11:25Z</time>
      </trkpt>
      <trkpt lat="44.27952" lon="5.81833">
        <ele>550</ele>
        <time>2019-03-27T13:11:26Z</time>
      </trkpt>
      <trkpt lat="44.27945" lon="5.81829">
        <ele>550</ele>
        <time>2019-03-27T13:11:27Z</time>
      </trkpt>
      <trkpt lat="44.27938" lon="5.81825">
        <ele>550</ele>
        <time>2019-03-27T13:11:28Z</time>
      </trkpt>
      <trkpt lat="44.27932" lon="5.8182">
        <ele>550</ele>
        <time>2019-03-27T13:11:29Z</time>
      </trkpt>
      <trkpt lat="44.27925" lon="5.81816">
        <ele>550</ele>
        <time>2019-03-27T13:11:30Z</time>
      </trkpt>
      <trkpt lat="44.27918" lon="5.81812">
        <ele>550</ele>
        <time>2019-03-27T13:11:31Z</time>
      </trkpt>
      <trkpt lat="44.27911" lon="5.81808">
        <ele>550</ele>
        <time>2019-03-27T13:11:32Z</time>
      </trkpt>
      <trkpt lat="44.27904" lon="5.81804">
        <ele>550</ele>
        <time>2019-03-27T13:11:33Z</time>
      </trkpt>
      <trkpt lat="44.27898" lon="5.81799">
        <ele>550</ele>
        <time>2019-03-27T13:11:34Z</time>
      </trkpt>
      <trkpt lat="44.27891" lon="5.81794">
        <ele>550</ele>
        <time>2019-03-27T13:11:35Z</time>
      </trkpt>
      <trkpt lat="44.27884" lon="5.8179">
        <ele>550</ele>
        <time>2019-03-27T13:11:36Z</time>
      </trkpt>
      <trkpt lat="44.27877" lon="5.81785">
        <ele>550</ele>
        <time>2019-03-27T13:11:37Z</time>
      </trkpt>
      <trkpt lat="44.2787" lon="5.81781">
        <ele>550</ele>
        <time>2019-03-27T13:11:38Z</time>
      </trkpt>
      <trkpt lat="44.27863" lon="5.81777">
        <ele>550</ele>
        <time>2019-03-27T13:11:39Z</time>
      </trkpt>
      <trkpt lat="44.27856" lon="5.81772">
        <ele>550</ele>
        <time>2019-03-27T13:11:40Z</time>
      </trkpt>
      <trkpt lat="44.27849" lon="5.81768">
        <ele>549</ele>
        <time>2019-03-27T13:11:41Z</time>
      </trkpt>
      <trkpt lat="44.27842" lon="5.81763">
        <ele>549</ele>
        <time>2019-03-27T13:11:42Z</time>
      </trkpt>
      <trkpt lat="44.27834" lon="5.81758">
        <ele>549</ele>
        <time>2019-03-27T13:11:43Z</time>
      </trkpt>
      <trkpt lat="44.27827" lon="5.81753">
        <ele>549</ele>
        <time>2019-03-27T13:11:44Z</time>
      </trkpt>
      <trkpt lat="44.2782" lon="5.81749">
        <ele>549</ele>
        <time>2019-03-27T13:11:45Z</time>
      </trkpt>
      <trkpt lat="44.27813" lon="5.81744">
        <ele>549</ele>
        <time>2019-03-27T13:11:46Z</time>
      </trkpt>
      <trkpt lat="44.27806" lon="5.81739">
        <ele>548</ele>
        <time>2019-03-27T13:11:47Z</time>
      </trkpt>
      <trkpt lat="44.27799" lon="5.81735">
        <ele>548</ele>
        <time>2019-03-27T13:11:48Z</time>
      </trkpt>
      <trkpt lat="44.27792" lon="5.8173">
        <ele>548</ele>
        <time>2019-03-27T13:11:49Z</time>
      </trkpt>
      <trkpt lat="44.27784" lon="5.81725">
        <ele>548</ele>
        <time>2019-03-27T13:11:50Z</time>
      </trkpt>
      <trkpt lat="44.27777" lon="5.81721">
        <ele>548</ele>
        <time>2019-03-27T13:11:51Z</time>
      </trkpt>
      <trkpt lat="44.2777" lon="5.81716">
        <ele>547</ele>
        <time>2019-03-27T13:11:53Z</time>
      </trkpt>
      <trkpt lat="44.27763" lon="5.8171">
        <ele>547</ele>
        <time>2019-03-27T13:11:53Z</time>
      </trkpt>
      <trkpt lat="44.27755" lon="5.81706">
        <ele>547</ele>
        <time>2019-03-27T13:11:54Z</time>
      </trkpt>
      <trkpt lat="44.27748" lon="5.81701">
        <ele>547</ele>
        <time>2019-03-27T13:11:55Z</time>
      </trkpt>
      <trkpt lat="44.27741" lon="5.81695">
        <ele>547</ele>
        <time>2019-03-27T13:11:56Z</time>
      </trkpt>
      <trkpt lat="44.27734" lon="5.8169">
        <ele>547</ele>
        <time>2019-03-27T13:11:57Z</time>
      </trkpt>
      <trkpt lat="44.27727" lon="5.81683">
        <ele>547</ele>
        <time>2019-03-27T13:11:58Z</time>
      </trkpt>
      <trkpt lat="44.2772" lon="5.81677">
        <ele>547</ele>
        <time>2019-03-27T13:11:59Z</time>
      </trkpt>
      <trkpt lat="44.27714" lon="5.8167">
        <ele>546</ele>
        <time>2019-03-27T13:12:00Z</time>
      </trkpt>
      <trkpt lat="44.27708" lon="5.81664">
        <ele>546</ele>
        <time>2019-03-27T13:12:01Z</time>
      </trkpt>
      <trkpt lat="44.27702" lon="5.81657">
        <ele>546</ele>
        <time>2019-03-27T13:12:02Z</time>
      </trkpt>
      <trkpt lat="44.27697" lon="5.8165">
        <ele>546</ele>
        <time>2019-03-27T13:12:03Z</time>
      </trkpt>
      <trkpt lat="44.27691" lon="5.81643">
        <ele>546</ele>
        <time>2019-03-27T13:12:04Z</time>
      </trkpt>
      <trkpt lat="44.27685" lon="5.81637">
        <ele>546</ele>
        <time>2019-03-27T13:12:05Z</time>
      </trkpt>
      <trkpt lat="44.27679" lon="5.81631">
        <ele>546</ele>
        <time>2019-03-27T13:12:06Z</time>
      </trkpt>
      <trkpt lat="44.27674" lon="5.81624">
        <ele>546</ele>
        <time>2019-03-27T13:12:07Z</time>
      </trkpt>
      <trkpt lat="44.27668" lon="5.81618">
        <ele>546</ele>
        <time>2019-03-27T13:12:08Z</time>
      </trkpt>
      <trkpt lat="44.27663" lon="5.81611">
        <ele>546</ele>
        <time>2019-03-27T13:12:09Z</time>
      </trkpt>
      <trkpt lat="44.27658" lon="5.81605">
        <ele>546</ele>
        <time>2019-03-27T13:12:10Z</time>
      </trkpt>
      <trkpt lat="44.27653" lon="5.81599">
        <ele>546</ele>
        <time>2019-03-27T13:12:11Z</time>
      </trkpt>
      <trkpt lat="44.27648" lon="5.81593">
        <ele>546</ele>
        <time>2019-03-27T13:12:12Z</time>
      </trkpt>
      <trkpt lat="44.27643" lon="5.81587">
        <ele>546</ele>
        <time>2019-03-27T13:12:13Z</time>
      </trkpt>
      <trkpt lat="44.27639" lon="5.81581">
        <ele>546</ele>
        <time>2019-03-27T13:12:14Z</time>
      </trkpt>
      <trkpt lat="44.27634" lon="5.81575">
        <ele>546</ele>
        <time>2019-03-27T13:12:15Z</time>
      </trkpt>
      <trkpt lat="44.27629" lon="5.81569">
        <ele>546</ele>
        <time>2019-03-27T13:12:16Z</time>
      </trkpt>
      <trkpt lat="44.27624" lon="5.81563">
        <ele>546</ele>
        <time>2019-03-27T13:12:17Z</time>
      </trkpt>
      <trkpt lat="44.27619" lon="5.81557">
        <ele>546</ele>
        <time>2019-03-27T13:12:18Z</time>
      </trkpt>
      <trkpt lat="44.27613" lon="5.81551">
        <ele>546</ele>
        <time>2019-03-27T13:12:19Z</time>
      </trkpt>
      <trkpt lat="44.27608" lon="5.81545">
        <ele>546</ele>
        <time>2019-03-27T13:12:20Z</time>
      </trkpt>
      <trkpt lat="44.27603" lon="5.81539">
        <ele>546</ele>
        <time>2019-03-27T13:12:21Z</time>
      </trkpt>
      <trkpt lat="44.27598" lon="5.81532">
        <ele>546</ele>
        <time>2019-03-27T13:12:22Z</time>
      </trkpt>
      <trkpt lat="44.27593" lon="5.81526">
        <ele>546</ele>
        <time>2019-03-27T13:12:23Z</time>
      </trkpt>
      <trkpt lat="44.27588" lon="5.81519">
        <ele>546</ele>
        <time>2019-03-27T13:12:24Z</time>
      </trkpt>
      <trkpt lat="44.27582" lon="5.81513">
        <ele>546</ele>
        <time>2019-03-27T13:12:25Z</time>
      </trkpt>
      <trkpt lat="44.27576" lon="5.81506">
        <ele>546</ele>
        <time>2019-03-27T13:12:26Z</time>
      </trkpt>
      <trkpt lat="44.2757" lon="5.81499">
        <ele>546</ele>
        <time>2019-03-27T13:12:27Z</time>
      </trkpt>
      <trkpt lat="44.27565" lon="5.81492">
        <ele>546</ele>
        <time>2019-03-27T13:12:28Z</time>
      </trkpt>
      <trkpt lat="44.27559" lon="5.81486">
        <ele>545</ele>
        <time>2019-03-27T13:12:29Z</time>
      </trkpt>
      <trkpt lat="44.27553" lon="5.81479">
        <ele>545</ele>
        <time>2019-03-27T13:12:30Z</time>
      </trkpt>
      <trkpt lat="44.27548" lon="5.81472">
        <ele>545</ele>
        <time>2019-03-27T13:12:31Z</time>
      </trkpt>
      <trkpt lat="44.27542" lon="5.81465">
        <ele>545</ele>
        <time>2019-03-27T13:12:32Z</time>
      </trkpt>
      <trkpt lat="44.27536" lon="5.81458">
        <ele>545</ele>
        <time>2019-03-27T13:12:33Z</time>
      </trkpt>
      <trkpt lat="44.2753" lon="5.81451">
        <ele>545</ele>
        <time>2019-03-27T13:12:34Z</time>
      </trkpt>
      <trkpt lat="44.27525" lon="5.81444">
        <ele>545</ele>
        <time>2019-03-27T13:12:35Z</time>
      </trkpt>
      <trkpt lat="44.27519" lon="5.81437">
        <ele>545</ele>
        <time>2019-03-27T13:12:36Z</time>
      </trkpt>
      <trkpt lat="44.27513" lon="5.81431">
        <ele>545</ele>
        <time>2019-03-27T13:12:37Z</time>
      </trkpt>
      <trkpt lat="44.27507" lon="5.81424">
        <ele>545</ele>
        <time>2019-03-27T13:12:38Z</time>
      </trkpt>
      <trkpt lat="44.27502" lon="5.81418">
        <ele>545</ele>
        <time>2019-03-27T13:12:39Z</time>
      </trkpt>
      <trkpt lat="44.27496" lon="5.81411">
        <ele>545</ele>
        <time>2019-03-27T13:12:41Z</time>
      </trkpt>
      <trkpt lat="44.27491" lon="5.81404">
        <ele>545</ele>
        <time>2019-03-27T13:12:41Z</time>
      </trkpt>
      <trkpt lat="44.27486" lon="5.81398">
        <ele>545</ele>
        <time>2019-03-27T13:12:42Z</time>
      </trkpt>
      <trkpt lat="44.2748" lon="5.81392">
        <ele>545</ele>
        <time>2019-03-27T13:12:43Z</time>
      </trkpt>
      <trkpt lat="44.27474" lon="5.81387">
        <ele>545</ele>
        <time>2019-03-27T13:12:44Z</time>
      </trkpt>
      <trkpt lat="44.27469" lon="5.81382">
        <ele>545</ele>
        <time>2019-03-27T13:12:45Z</time>
      </trkpt>
      <trkpt lat="44.27463" lon="5.81377">
        <ele>545</ele>
        <time>2019-03-27T13:12:46Z</time>
      </trkpt>
      <trkpt lat="44.27457" lon="5.81372">
        <ele>544</ele>
        <time>2019-03-27T13:12:47Z</time>
      </trkpt>
      <trkpt lat="44.27451" lon="5.81367">
        <ele>544</ele>
        <time>2019-03-27T13:12:48Z</time>
      </trkpt>
      <trkpt lat="44.27445" lon="5.81363">
        <ele>544</ele>
        <time>2019-03-27T13:12:49Z</time>
      </trkpt>
      <trkpt lat="44.27439" lon="5.8136">
        <ele>544</ele>
        <time>2019-03-27T13:12:50Z</time>
      </trkpt>
      <trkpt lat="44.27434" lon="5.81356">
        <ele>544</ele>
        <time>2019-03-27T13:12:51Z</time>
      </trkpt>
      <trkpt lat="44.27428" lon="5.81353">
        <ele>544</ele>
        <time>2019-03-27T13:12:53Z</time>
      </trkpt>
      <trkpt lat="44.27422" lon="5.8135">
        <ele>544</ele>
        <time>2019-03-27T13:12:53Z</time>
      </trkpt>
      <trkpt lat="44.27416" lon="5.81347">
        <ele>544</ele>
        <time>2019-03-27T13:12:54Z</time>
      </trkpt>
      <trkpt lat="44.27411" lon="5.81344">
        <ele>544</ele>
        <time>2019-03-27T13:12:55Z</time>
      </trkpt>
      <trkpt lat="44.27405" lon="5.8134">
        <ele>544</ele>
        <time>2019-03-27T13:12:56Z</time>
      </trkpt>
      <trkpt lat="44.27399" lon="5.81336">
        <ele>544</ele>
        <time>2019-03-27T13:12:57Z</time>
      </trkpt>
      <trkpt lat="44.27394" lon="5.81332">
        <ele>544</ele>
        <time>2019-03-27T13:12:58Z</time>
      </trkpt>
      <trkpt lat="44.27388" lon="5.81329">
        <ele>544</ele>
        <time>2019-03-27T13:12:59Z</time>
      </trkpt>
      <trkpt lat="44.27383" lon="5.81326">
        <ele>544</ele>
        <time>2019-03-27T13:13:00Z</time>
      </trkpt>
      <trkpt lat="44.27377" lon="5.81322">
        <ele>544</ele>
        <time>2019-03-27T13:13:01Z</time>
      </trkpt>
      <trkpt lat="44.27372" lon="5.81318">
        <ele>544</ele>
        <time>2019-03-27T13:13:02Z</time>
      </trkpt>
      <trkpt lat="44.27367" lon="5.81315">
        <ele>544</ele>
        <time>2019-03-27T13:13:03Z</time>
      </trkpt>
      <trkpt lat="44.27362" lon="5.81311">
        <ele>544</ele>
        <time>2019-03-27T13:13:04Z</time>
      </trkpt>
      <trkpt lat="44.27356" lon="5.81308">
        <ele>544</ele>
        <time>2019-03-27T13:13:05Z</time>
      </trkpt>
      <trkpt lat="44.27351" lon="5.81304">
        <ele>544</ele>
        <time>2019-03-27T13:13:06Z</time>
      </trkpt>
      <trkpt lat="44.27347" lon="5.813">
        <ele>544</ele>
        <time>2019-03-27T13:13:07Z</time>
      </trkpt>
      <trkpt lat="44.27342" lon="5.81295">
        <ele>544</ele>
        <time>2019-03-27T13:13:08Z</time>
      </trkpt>
      <trkpt lat="44.27338" lon="5.81291">
        <ele>544</ele>
        <time>2019-03-27T13:13:09Z</time>
      </trkpt>
      <trkpt lat="44.27334" lon="5.81287">
        <ele>544</ele>
        <time>2019-03-27T13:13:10Z</time>
      </trkpt>
      <trkpt lat="44.2733" lon="5.81282">
        <ele>544</ele>
        <time>2019-03-27T13:13:11Z</time>
      </trkpt>
      <trkpt lat="44.27326" lon="5.81277">
        <ele>544</ele>
        <time>2019-03-27T13:13:12Z</time>
      </trkpt>
      <trkpt lat="44.27322" lon="5.81272">
        <ele>544</ele>
        <time>2019-03-27T13:13:13Z</time>
      </trkpt>
      <trkpt lat="44.27318" lon="5.81266">
        <ele>544</ele>
        <time>2019-03-27T13:13:14Z</time>
      </trkpt>
      <trkpt lat="44.27314" lon="5.8126">
        <ele>544</ele>
        <time>2019-03-27T13:13:15Z</time>
      </trkpt>
      <trkpt lat="44.27311" lon="5.81255">
        <ele>544</ele>
        <time>2019-03-27T13:13:16Z</time>
      </trkpt>
      <trkpt lat="44.27307" lon="5.81249">
        <ele>544</ele>
        <time>2019-03-27T13:13:17Z</time>
      </trkpt>
      <trkpt lat="44.27303" lon="5.81243">
        <ele>544</ele>
        <time>2019-03-27T13:13:18Z</time>
      </trkpt>
      <trkpt lat="44.273" lon="5.81237">
        <ele>544</ele>
        <time>2019-03-27T13:13:19Z</time>
      </trkpt>
      <trkpt lat="44.27296" lon="5.81231">
        <ele>544</ele>
        <time>2019-03-27T13:13:20Z</time>
      </trkpt>
      <trkpt lat="44.27292" lon="5.81226">
        <ele>544</ele>
        <time>2019-03-27T13:13:21Z</time>
      </trkpt>
      <trkpt lat="44.27288" lon="5.81219">
        <ele>544</ele>
        <time>2019-03-27T13:13:22Z</time>
      </trkpt>
      <trkpt lat="44.27284" lon="5.81214">
        <ele>544</ele>
        <time>2019-03-27T13:13:23Z</time>
      </trkpt>
      <trkpt lat="44.2728" lon="5.81209">
        <ele>544</ele>
        <time>2019-03-27T13:13:24Z</time>
      </trkpt>
      <trkpt lat="44.27276" lon="5.81204">
        <ele>544</ele>
        <time>2019-03-27T13:13:25Z</time>
      </trkpt>
      <trkpt lat="44.27272" lon="5.81199">
        <ele>544</ele>
        <time>2019-03-27T13:13:26Z</time>
      </trkpt>
      <trkpt lat="44.27267" lon="5.81195">
        <ele>544</ele>
        <time>2019-03-27T13:13:27Z</time>
      </trkpt>
      <trkpt lat="44.27263" lon="5.8119">
        <ele>544</ele>
        <time>2019-03-27T13:13:28Z</time>
      </trkpt>
      <trkpt lat="44.27259" lon="5.81185">
        <ele>544</ele>
        <time>2019-03-27T13:13:29Z</time>
      </trkpt>
      <trkpt lat="44.27255" lon="5.8118">
        <ele>544</ele>
        <time>2019-03-27T13:13:30Z</time>
      </trkpt>
      <trkpt lat="44.27251" lon="5.81176">
        <ele>544</ele>
        <time>2019-03-27T13:13:31Z</time>
      </trkpt>
      <trkpt lat="44.27246" lon="5.81172">
        <ele>544</ele>
        <time>2019-03-27T13:13:32Z</time>
      </trkpt>
      <trkpt lat="44.27242" lon="5.81168">
        <ele>544</ele>
        <time>2019-03-27T13:13:33Z</time>
      </trkpt>
      <trkpt lat="44.27238" lon="5.81166">
        <ele>544</ele>
        <time>2019-03-27T13:13:34Z</time>
      </trkpt>
      <trkpt lat="44.27235" lon="5.81163">
        <ele>544</ele>
        <time>2019-03-27T13:13:35Z</time>
      </trkpt>
      <trkpt lat="44.2723" lon="5.81159">
        <ele>544</ele>
        <time>2019-03-27T13:13:36Z</time>
      </trkpt>
      <trkpt lat="44.27227" lon="5.81154">
        <ele>544</ele>
        <time>2019-03-27T13:13:37Z</time>
      </trkpt>
      <trkpt lat="44.27224" lon="5.81147">
        <ele>544</ele>
        <time>2019-03-27T13:13:38Z</time>
      </trkpt>
      <trkpt lat="44.27222" lon="5.8114">
        <ele>544</ele>
        <time>2019-03-27T13:13:39Z</time>
      </trkpt>
      <trkpt lat="44.27221" lon="5.81132">
        <ele>544</ele>
        <time>2019-03-27T13:13:40Z</time>
      </trkpt>
      <trkpt lat="44.2722" lon="5.81123">
        <ele>544</ele>
        <time>2019-03-27T13:13:41Z</time>
      </trkpt>
      <trkpt lat="44.2722" lon="5.81113">
        <ele>544</ele>
        <time>2019-03-27T13:13:42Z</time>
      </trkpt>
      <trkpt lat="44.2722" lon="5.81103">
        <ele>544</ele>
        <time>2019-03-27T13:13:43Z</time>
      </trkpt>
      <trkpt lat="44.2722" lon="5.81093">
        <ele>544</ele>
        <time>2019-03-27T13:13:44Z</time>
      </trkpt>
      <trkpt lat="44.2722" lon="5.81082">
        <ele>544</ele>
        <time>2019-03-27T13:13:45Z</time>
      </trkpt>
      <trkpt lat="44.27221" lon="5.81072">
        <ele>544</ele>
        <time>2019-03-27T13:13:46Z</time>
      </trkpt>
      <trkpt lat="44.27221" lon="5.81062">
        <ele>544</ele>
        <time>2019-03-27T13:13:47Z</time>
      </trkpt>
      <trkpt lat="44.27222" lon="5.81052">
        <ele>544</ele>
        <time>2019-03-27T13:13:48Z</time>
      </trkpt>
      <trkpt lat="44.27223" lon="5.81042">
        <ele>544</ele>
        <time>2019-03-27T13:13:49Z</time>
      </trkpt>
      <trkpt lat="44.27225" lon="5.81032">
        <ele>544</ele>
        <time>2019-03-27T13:13:50Z</time>
      </trkpt>
      <trkpt lat="44.27226" lon="5.81023">
        <ele>544</ele>
        <time>2019-03-27T13:13:51Z</time>
      </trkpt>
      <trkpt lat="44.27228" lon="5.81013">
        <ele>544</ele>
        <time>2019-03-27T13:13:53Z</time>
      </trkpt>
      <trkpt lat="44.27229" lon="5.81004">
        <ele>544</ele>
        <time>2019-03-27T13:13:53Z</time>
      </trkpt>
      <trkpt lat="44.27231" lon="5.80995">
        <ele>544</ele>
        <time>2019-03-27T13:13:54Z</time>
      </trkpt>
      <trkpt lat="44.27232" lon="5.80986">
        <ele>544</ele>
        <time>2019-03-27T13:13:55Z</time>
      </trkpt>
      <trkpt lat="44.27234" lon="5.80978">
        <ele>544</ele>
        <time>2019-03-27T13:13:56Z</time>
      </trkpt>
      <trkpt lat="44.27236" lon="5.80969">
        <ele>544</ele>
        <time>2019-03-27T13:13:57Z</time>
      </trkpt>
      <trkpt lat="44.27238" lon="5.80961">
        <ele>544</ele>
        <time>2019-03-27T13:13:58Z</time>
      </trkpt>
      <trkpt lat="44.2724" lon="5.80953">
        <ele>544</ele>
        <time>2019-03-27T13:13:59Z</time>
      </trkpt>
      <trkpt lat="44.27242" lon="5.80945">
        <ele>544</ele>
        <time>2019-03-27T13:14:00Z</time>
      </trkpt>
      <trkpt lat="44.27244" lon="5.80936">
        <ele>544</ele>
        <time>2019-03-27T13:14:01Z</time>
      </trkpt>
      <trkpt lat="44.27246" lon="5.80928">
        <ele>544</ele>
        <time>2019-03-27T13:14:02Z</time>
      </trkpt>
      <trkpt lat="44.27248" lon="5.8092">
        <ele>544</ele>
        <time>2019-03-27T13:14:03Z</time>
      </trkpt>
      <trkpt lat="44.27251" lon="5.80912">
        <ele>544</ele>
        <time>2019-03-27T13:14:04Z</time>
      </trkpt>
      <trkpt lat="44.27253" lon="5.80904">
        <ele>544</ele>
        <time>2019-03-27T13:14:05Z</time>
      </trkpt>
      <trkpt lat="44.27254" lon="5.80896">
        <ele>544</ele>
        <time>2019-03-27T13:14:06Z</time>
      </trkpt>
      <trkpt lat="44.27256" lon="5.80888">
        <ele>544</ele>
        <time>2019-03-27T13:14:07Z</time>
      </trkpt>
      <trkpt lat="44.27258" lon="5.80881">
        <ele>544</ele>
        <time>2019-03-27T13:14:08Z</time>
      </trkpt>
      <trkpt lat="44.2726" lon="5.80873">
        <ele>544</ele>
        <time>2019-03-27T13:14:09Z</time>
      </trkpt>
      <trkpt lat="44.27262" lon="5.80866">
        <ele>544</ele>
        <time>2019-03-27T13:14:10Z</time>
      </trkpt>
      <trkpt lat="44.27264" lon="5.80858">
        <ele>544</ele>
        <time>2019-03-27T13:14:11Z</time>
      </trkpt>
      <trkpt lat="44.27266" lon="5.80851">
        <ele>544</ele>
        <time>2019-03-27T13:14:12Z</time>
      </trkpt>
      <trkpt lat="44.27268" lon="5.80843">
        <ele>544</ele>
        <time>2019-03-27T13:14:13Z</time>
      </trkpt>
      <trkpt lat="44.2727" lon="5.80836">
        <ele>544</ele>
        <time>2019-03-27T13:14:14Z</time>
      </trkpt>
      <trkpt lat="44.27272" lon="5.80829">
        <ele>544</ele>
        <time>2019-03-27T13:14:15Z</time>
      </trkpt>
      <trkpt lat="44.27274" lon="5.80822">
        <ele>544</ele>
        <time>2019-03-27T13:14:16Z</time>
      </trkpt>
      <trkpt lat="44.27276" lon="5.80814">
        <ele>544</ele>
        <time>2019-03-27T13:14:17Z</time>
      </trkpt>
      <trkpt lat="44.27279" lon="5.80807">
        <ele>544</ele>
        <time>2019-03-27T13:14:18Z</time>
      </trkpt>
      <trkpt lat="44.27281" lon="5.808">
        <ele>544</ele>
        <time>2019-03-27T13:14:19Z</time>
      </trkpt>
      <trkpt lat="44.27283" lon="5.80793">
        <ele>544</ele>
        <time>2019-03-27T13:14:20Z</time>
      </trkpt>
      <trkpt lat="44.27286" lon="5.80785">
        <ele>544</ele>
        <time>2019-03-27T13:14:21Z</time>
      </trkpt>
      <trkpt lat="44.27288" lon="5.80778">
        <ele>544</ele>
        <time>2019-03-27T13:14:22Z</time>
      </trkpt>
      <trkpt lat="44.2729" lon="5.8077">
        <ele>544</ele>
        <time>2019-03-27T13:14:23Z</time>
      </trkpt>
      <trkpt lat="44.27293" lon="5.80763">
        <ele>544</ele>
        <time>2019-03-27T13:14:24Z</time>
      </trkpt>
      <trkpt lat="44.27295" lon="5.80756">
        <ele>544</ele>
        <time>2019-03-27T13:14:25Z</time>
      </trkpt>
      <trkpt lat="44.27297" lon="5.80749">
        <ele>544</ele>
        <time>2019-03-27T13:14:26Z</time>
      </trkpt>
      <trkpt lat="44.273" lon="5.80742">
        <ele>544</ele>
        <time>2019-03-27T13:14:27Z</time>
      </trkpt>
      <trkpt lat="44.27303" lon="5.80736">
        <ele>544</ele>
        <time>2019-03-27T13:14:28Z</time>
      </trkpt>
      <trkpt lat="44.27305" lon="5.80729">
        <ele>544</ele>
        <time>2019-03-27T13:14:29Z</time>
      </trkpt>
      <trkpt lat="44.27309" lon="5.80723">
        <ele>544</ele>
        <time>2019-03-27T13:14:30Z</time>
      </trkpt>
      <trkpt lat="44.27312" lon="5.80718">
        <ele>544</ele>
        <time>2019-03-27T13:14:31Z</time>
      </trkpt>
      <trkpt lat="44.27315" lon="5.80712">
        <ele>544</ele>
        <time>2019-03-27T13:14:32Z</time>
      </trkpt>
      <trkpt lat="44.27319" lon="5.80707">
        <ele>544</ele>
        <time>2019-03-27T13:14:33Z</time>
      </trkpt>
      <trkpt lat="44.27322" lon="5.80702">
        <ele>544</ele>
        <time>2019-03-27T13:14:34Z</time>
      </trkpt>
      <trkpt lat="44.27325" lon="5.80696">
        <ele>544</ele>
        <time>2019-03-27T13:14:35Z</time>
      </trkpt>
      <trkpt lat="44.27327" lon="5.8069">
        <ele>544</ele>
        <time>2019-03-27T13:14:36Z</time>
      </trkpt>
      <trkpt lat="44.2733" lon="5.80684">
        <ele>544</ele>
        <time>2019-03-27T13:14:37Z</time>
      </trkpt>
      <trkpt lat="44.27332" lon="5.80678">
        <ele>544</ele>
        <time>2019-03-27T13:14:38Z</time>
      </trkpt>
      <trkpt lat="44.27333" lon="5.80671">
        <ele>544</ele>
        <time>2019-03-27T13:14:39Z</time>
      </trkpt>
      <trkpt lat="44.27333" lon="5.80664">
        <ele>545</ele>
        <time>2019-03-27T13:14:40Z</time>
      </trkpt>
      <trkpt lat="44.27334" lon="5.80657">
        <ele>545</ele>
        <time>2019-03-27T13:14:41Z</time>
      </trkpt>
      <trkpt lat="44.27334" lon="5.80651">
        <ele>545</ele>
        <time>2019-03-27T13:14:42Z</time>
      </trkpt>
      <trkpt lat="44.27334" lon="5.80644">
        <ele>545</ele>
        <time>2019-03-27T13:14:43Z</time>
      </trkpt>
      <trkpt lat="44.27334" lon="5.80637">
        <ele>545</ele>
        <time>2019-03-27T13:14:44Z</time>
      </trkpt>
      <trkpt lat="44.27334" lon="5.8063">
        <ele>546</ele>
        <time>2019-03-27T13:14:45Z</time>
      </trkpt>
      <trkpt lat="44.27334" lon="5.80622">
        <ele>546</ele>
        <time>2019-03-27T13:14:46Z</time>
      </trkpt>
      <trkpt lat="44.27334" lon="5.80615">
        <ele>546</ele>
        <time>2019-03-27T13:14:47Z</time>
      </trkpt>
      <trkpt lat="44.27335" lon="5.80607">
        <ele>546</ele>
        <time>2019-03-27T13:14:48Z</time>
      </trkpt>
      <trkpt lat="44.27336" lon="5.80599">
        <ele>546</ele>
        <time>2019-03-27T13:14:49Z</time>
      </trkpt>
      <trkpt lat="44.27338" lon="5.80592">
        <ele>546</ele>
        <time>2019-03-27T13:14:50Z</time>
      </trkpt>
      <trkpt lat="44.2734" lon="5.80585">
        <ele>546</ele>
        <time>2019-03-27T13:14:51Z</time>
      </trkpt>
      <trkpt lat="44.27342" lon="5.80579">
        <ele>546</ele>
        <time>2019-03-27T13:14:53Z</time>
      </trkpt>
      <trkpt lat="44.27345" lon="5.80572">
        <ele>547</ele>
        <time>2019-03-27T13:14:53Z</time>
      </trkpt>
      <trkpt lat="44.27348" lon="5.80566">
        <ele>547</ele>
        <time>2019-03-27T13:14:54Z</time>
      </trkpt>
      <trkpt lat="44.27352" lon="5.8056">
        <ele>547</ele>
        <time>2019-03-27T13:14:55Z</time>
      </trkpt>
      <trkpt lat="44.27355" lon="5.80554">
        <ele>547</ele>
        <time>2019-03-27T13:14:56Z</time>
      </trkpt>
      <trkpt lat="44.27359" lon="5.80548">
        <ele>547</ele>
        <time>2019-03-27T13:14:57Z</time>
      </trkpt>
      <trkpt lat="44.27362" lon="5.80542">
        <ele>548</ele>
        <time>2019-03-27T13:14:58Z</time>
      </trkpt>
      <trkpt lat="44.27366" lon="5.80536">
        <ele>548</ele>
        <time>2019-03-27T13:14:59Z</time>
      </trkpt>
      <trkpt lat="44.2737" lon="5.8053">
        <ele>548</ele>
        <time>2019-03-27T13:15:00Z</time>
      </trkpt>
      <trkpt lat="44.27373" lon="5.80524">
        <ele>549</ele>
        <time>2019-03-27T13:15:01Z</time>
      </trkpt>
      <trkpt lat="44.27377" lon="5.80517">
        <ele>549</ele>
        <time>2019-03-27T13:15:02Z</time>
      </trkpt>
      <trkpt lat="44.2738" lon="5.80511">
        <ele>549</ele>
        <time>2019-03-27T13:15:03Z</time>
      </trkpt>
      <trkpt lat="44.27383" lon="5.80505">
        <ele>549</ele>
        <time>2019-03-27T13:15:04Z</time>
      </trkpt>
      <trkpt lat="44.27387" lon="5.80498">
        <ele>549</ele>
        <time>2019-03-27T13:15:05Z</time>
      </trkpt>
      <trkpt lat="44.27391" lon="5.80492">
        <ele>549</ele>
        <time>2019-03-27T13:15:06Z</time>
      </trkpt>
      <trkpt lat="44.27394" lon="5.80485">
        <ele>549</ele>
        <time>2019-03-27T13:15:07Z</time>
      </trkpt>
      <trkpt lat="44.27397" lon="5.80478">
        <ele>549</ele>
        <time>2019-03-27T13:15:08Z</time>
      </trkpt>
      <trkpt lat="44.274" lon="5.80471">
        <ele>549</ele>
        <time>2019-03-27T13:15:09Z</time>
      </trkpt>
      <trkpt lat="44.27402" lon="5.80464">
        <ele>549</ele>
        <time>2019-03-27T13:15:10Z</time>
      </trkpt>
      <trkpt lat="44.27405" lon="5.80456">
        <ele>549</ele>
        <time>2019-03-27T13:15:11Z</time>
      </trkpt>
      <trkpt lat="44.27408" lon="5.80449">
        <ele>549</ele>
        <time>2019-03-27T13:15:12Z</time>
      </trkpt>
      <trkpt lat="44.27411" lon="5.80442">
        <ele>549</ele>
        <time>2019-03-27T13:15:13Z</time>
      </trkpt>
      <trkpt lat="44.27414" lon="5.80434">
        <ele>549</ele>
        <time>2019-03-27T13:15:14Z</time>
      </trkpt>
      <trkpt lat="44.27417" lon="5.80426">
        <ele>549</ele>
        <time>2019-03-27T13:15:15Z</time>
      </trkpt>
      <trkpt lat="44.27419" lon="5.80418">
        <ele>549</ele>
        <time>2019-03-27T13:15:16Z</time>
      </trkpt>
      <trkpt lat="44.27422" lon="5.8041">
        <ele>549</ele>
        <time>2019-03-27T13:15:17Z</time>
      </trkpt>
      <trkpt lat="44.27425" lon="5.80402">
        <ele>549</ele>
        <time>2019-03-27T13:15:18Z</time>
      </trkpt>
      <trkpt lat="44.27428" lon="5.80394">
        <ele>549</ele>
        <time>2019-03-27T13:15:19Z</time>
      </trkpt>
      <trkpt lat="44.27432" lon="5.80386">
        <ele>549</ele>
        <time>2019-03-27T13:15:20Z</time>
      </trkpt>
      <trkpt lat="44.27434" lon="5.80378">
        <ele>549</ele>
        <time>2019-03-27T13:15:21Z</time>
      </trkpt>
      <trkpt lat="44.27436" lon="5.8037">
        <ele>549</ele>
        <time>2019-03-27T13:15:22Z</time>
      </trkpt>
      <trkpt lat="44.27439" lon="5.80363">
        <ele>549</ele>
        <time>2019-03-27T13:15:23Z</time>
      </trkpt>
      <trkpt lat="44.2744" lon="5.80355">
        <ele>549</ele>
        <time>2019-03-27T13:15:24Z</time>
      </trkpt>
      <trkpt lat="44.27442" lon="5.80347">
        <ele>549</ele>
        <time>2019-03-27T13:15:25Z</time>
      </trkpt>
      <trkpt lat="44.27444" lon="5.80339">
        <ele>549</ele>
        <time>2019-03-27T13:15:26Z</time>
      </trkpt>
      <trkpt lat="44.27445" lon="5.80332">
        <ele>549</ele>
        <time>2019-03-27T13:15:27Z</time>
      </trkpt>
      <trkpt lat="44.27448" lon="5.80325">
        <ele>549</ele>
        <time>2019-03-27T13:15:28Z</time>
      </trkpt>
      <trkpt lat="44.27451" lon="5.80318">
        <ele>549</ele>
        <time>2019-03-27T13:15:29Z</time>
      </trkpt>
      <trkpt lat="44.27453" lon="5.80311">
        <ele>549</ele>
        <time>2019-03-27T13:15:30Z</time>
      </trkpt>
      <trkpt lat="44.27455" lon="5.80305">
        <ele>549</ele>
        <time>2019-03-27T13:15:31Z</time>
      </trkpt>
      <trkpt lat="44.27457" lon="5.80299">
        <ele>549</ele>
        <time>2019-03-27T13:15:32Z</time>
      </trkpt>
      <trkpt lat="44.2746" lon="5.80292">
        <ele>549</ele>
        <time>2019-03-27T13:15:33Z</time>
      </trkpt>
      <trkpt lat="44.27463" lon="5.80286">
        <ele>549</ele>
        <time>2019-03-27T13:15:34Z</time>
      </trkpt>
      <trkpt lat="44.27465" lon="5.8028">
        <ele>550</ele>
        <time>2019-03-27T13:15:35Z</time>
      </trkpt>
      <trkpt lat="44.27467" lon="5.80274">
        <ele>550</ele>
        <time>2019-03-27T13:15:36Z</time>
      </trkpt>
      <trkpt lat="44.27469" lon="5.80267">
        <ele>551</ele>
        <time>2019-03-27T13:15:37Z</time>
      </trkpt>
      <trkpt lat="44.27472" lon="5.80262">
        <ele>551</ele>
        <time>2019-03-27T13:15:38Z</time>
      </trkpt>
      <trkpt lat="44.27475" lon="5.80256">
        <ele>551</ele>
        <time>2019-03-27T13:15:39Z</time>
      </trkpt>
      <trkpt lat="44.27478" lon="5.8025">
        <ele>552</ele>
        <time>2019-03-27T13:15:40Z</time>
      </trkpt>
      <trkpt lat="44.2748" lon="5.80244">
        <ele>552</ele>
        <time>2019-03-27T13:15:41Z</time>
      </trkpt>
      <trkpt lat="44.27483" lon="5.80238">
        <ele>552</ele>
        <time>2019-03-27T13:15:42Z</time>
      </trkpt>
      <trkpt lat="44.27486" lon="5.80232">
        <ele>552</ele>
        <time>2019-03-27T13:15:43Z</time>
      </trkpt>
      <trkpt lat="44.27488" lon="5.80226">
        <ele>552</ele>
        <time>2019-03-27T13:15:44Z</time>
      </trkpt>
      <trkpt lat="44.27491" lon="5.80221">
        <ele>553</ele>
        <time>2019-03-27T13:15:45Z</time>
      </trkpt>
      <trkpt lat="44.27495" lon="5.80215">
        <ele>553</ele>
        <time>2019-03-27T13:15:46Z</time>
      </trkpt>
      <trkpt lat="44.27498" lon="5.80209">
        <ele>554</ele>
        <time>2019-03-27T13:15:47Z</time>
      </trkpt>
      <trkpt lat="44.27501" lon="5.80204">
        <ele>554</ele>
        <time>2019-03-27T13:15:48Z</time>
      </trkpt>
      <trkpt lat="44.27504" lon="5.80198">
        <ele>554</ele>
        <time>2019-03-27T13:15:49Z</time>
      </trkpt>
      <trkpt lat="44.27507" lon="5.80192">
        <ele>555</ele>
        <time>2019-03-27T13:15:50Z</time>
      </trkpt>
      <trkpt lat="44.27511" lon="5.80187">
        <ele>555</ele>
        <time>2019-03-27T13:15:51Z</time>
      </trkpt>
      <trkpt lat="44.27514" lon="5.80181">
        <ele>555</ele>
        <time>2019-03-27T13:15:53Z</time>
      </trkpt>
      <trkpt lat="44.27517" lon="5.80175">
        <ele>556</ele>
        <time>2019-03-27T13:15:53Z</time>
      </trkpt>
      <trkpt lat="44.27521" lon="5.8017">
        <ele>556</ele>
        <time>2019-03-27T13:15:54Z</time>
      </trkpt>
      <trkpt lat="44.27524" lon="5.80165">
        <ele>556</ele>
        <time>2019-03-27T13:15:55Z</time>
      </trkpt>
      <trkpt lat="44.27528" lon="5.8016">
        <ele>556</ele>
        <time>2019-03-27T13:15:56Z</time>
      </trkpt>
      <trkpt lat="44.27531" lon="5.80154">
        <ele>557</ele>
        <time>2019-03-27T13:15:57Z</time>
      </trkpt>
      <trkpt lat="44.27534" lon="5.80149">
        <ele>557</ele>
        <time>2019-03-27T13:15:58Z</time>
      </trkpt>
      <trkpt lat="44.27538" lon="5.80143">
        <ele>557</ele>
        <time>2019-03-27T13:15:59Z</time>
      </trkpt>
      <trkpt lat="44.27541" lon="5.80137">
        <ele>557</ele>
        <time>2019-03-27T13:16:00Z</time>
      </trkpt>
      <trkpt lat="44.27545" lon="5.80132">
        <ele>558</ele>
        <time>2019-03-27T13:16:01Z</time>
      </trkpt>
      <trkpt lat="44.27548" lon="5.80126">
        <ele>558</ele>
        <time>2019-03-27T13:16:02Z</time>
      </trkpt>
      <trkpt lat="44.27552" lon="5.8012">
        <ele>558</ele>
        <time>2019-03-27T13:16:03Z</time>
      </trkpt>
      <trkpt lat="44.27555" lon="5.80114">
        <ele>558</ele>
        <time>2019-03-27T13:16:04Z</time>
      </trkpt>
      <trkpt lat="44.27558" lon="5.80107">
        <ele>558</ele>
        <time>2019-03-27T13:16:05Z</time>
      </trkpt>
      <trkpt lat="44.27561" lon="5.80101">
        <ele>558</ele>
        <time>2019-03-27T13:16:06Z</time>
      </trkpt>
      <trkpt lat="44.27564" lon="5.80095">
        <ele>558</ele>
        <time>2019-03-27T13:16:07Z</time>
      </trkpt>
      <trkpt lat="44.27567" lon="5.80088">
        <ele>558</ele>
        <time>2019-03-27T13:16:08Z</time>
      </trkpt>
      <trkpt lat="44.2757" lon="5.80082">
        <ele>558</ele>
        <time>2019-03-27T13:16:09Z</time>
      </trkpt>
      <trkpt lat="44.27573" lon="5.80076">
        <ele>558</ele>
        <time>2019-03-27T13:16:10Z</time>
      </trkpt>
      <trkpt lat="44.27577" lon="5.80069">
        <ele>558</ele>
        <time>2019-03-27T13:16:11Z</time>
      </trkpt>
      <trkpt lat="44.2758" lon="5.80063">
        <ele>558</ele>
        <time>2019-03-27T13:16:12Z</time>
      </trkpt>
      <trkpt lat="44.27583" lon="5.80056">
        <ele>558</ele>
        <time>2019-03-27T13:16:13Z</time>
      </trkpt>
      <trkpt lat="44.27586" lon="5.8005">
        <ele>558</ele>
        <time>2019-03-27T13:16:14Z</time>
      </trkpt>
      <trkpt lat="44.27589" lon="5.80043">
        <ele>558</ele>
        <time>2019-03-27T13:16:15Z</time>
      </trkpt>
      <trkpt lat="44.27593" lon="5.80037">
        <ele>558</ele>
        <time>2019-03-27T13:16:16Z</time>
      </trkpt>
      <trkpt lat="44.27596" lon="5.8003">
        <ele>558</ele>
        <time>2019-03-27T13:16:17Z</time>
      </trkpt>
      <trkpt lat="44.27599" lon="5.80024">
        <ele>558</ele>
        <time>2019-03-27T13:16:18Z</time>
      </trkpt>
      <trkpt lat="44.27602" lon="5.80017">
        <ele>558</ele>
        <time>2019-03-27T13:16:19Z</time>
      </trkpt>
      <trkpt lat="44.27605" lon="5.80011">
        <ele>558</ele>
        <time>2019-03-27T13:16:20Z</time>
      </trkpt>
      <trkpt lat="44.27607" lon="5.80004">
        <ele>558</ele>
        <time>2019-03-27T13:16:21Z</time>
      </trkpt>
      <trkpt lat="44.2761" lon="5.79997">
        <ele>558</ele>
        <time>2019-03-27T13:16:22Z</time>
      </trkpt>
      <trkpt lat="44.27612" lon="5.7999">
        <ele>558</ele>
        <time>2019-03-27T13:16:23Z</time>
      </trkpt>
      <trkpt lat="44.27614" lon="5.79983">
        <ele>558</ele>
        <time>2019-03-27T13:16:24Z</time>
      </trkpt>
      <trkpt lat="44.27617" lon="5.79975">
        <ele>558</ele>
        <time>2019-03-27T13:16:25Z</time>
      </trkpt>
      <trkpt lat="44.27619" lon="5.79968">
        <ele>558</ele>
        <time>2019-03-27T13:16:26Z</time>
      </trkpt>
      <trkpt lat="44.27622" lon="5.79961">
        <ele>558</ele>
        <time>2019-03-27T13:16:27Z</time>
      </trkpt>
      <trkpt lat="44.27625" lon="5.79954">
        <ele>558</ele>
        <time>2019-03-27T13:16:28Z</time>
      </trkpt>
      <trkpt lat="44.27627" lon="5.79947">
        <ele>558</ele>
        <time>2019-03-27T13:16:29Z</time>
      </trkpt>
      <trkpt lat="44.27629" lon="5.79939">
        <ele>558</ele>
        <time>2019-03-27T13:16:30Z</time>
      </trkpt>
      <trkpt lat="44.27631" lon="5.79931">
        <ele>558</ele>
        <time>2019-03-27T13:16:31Z</time>
      </trkpt>
      <trkpt lat="44.27633" lon="5.79924">
        <ele>558</ele>
        <time>2019-03-27T13:16:32Z</time>
      </trkpt>
      <trkpt lat="44.27635" lon="5.79916">
        <ele>558</ele>
        <time>2019-03-27T13:16:33Z</time>
      </trkpt>
      <trkpt lat="44.27637" lon="5.79908">
        <ele>558</ele>
        <time>2019-03-27T13:16:34Z</time>
      </trkpt>
      <trkpt lat="44.27639" lon="5.79901">
        <ele>558</ele>
        <time>2019-03-27T13:16:35Z</time>
      </trkpt>
      <trkpt lat="44.27641" lon="5.79893">
        <ele>558</ele>
        <time>2019-03-27T13:16:36Z</time>
      </trkpt>
      <trkpt lat="44.27643" lon="5.79885">
        <ele>558</ele>
        <time>2019-03-27T13:16:37Z</time>
      </trkpt>
      <trkpt lat="44.27645" lon="5.79877">
        <ele>558</ele>
        <time>2019-03-27T13:16:38Z</time>
      </trkpt>
      <trkpt lat="44.27647" lon="5.7987">
        <ele>558</ele>
        <time>2019-03-27T13:16:39Z</time>
      </trkpt>
      <trkpt lat="44.27649" lon="5.79862">
        <ele>558</ele>
        <time>2019-03-27T13:16:40Z</time>
      </trkpt>
      <trkpt lat="44.27652" lon="5.79854">
        <ele>558</ele>
        <time>2019-03-27T13:16:41Z</time>
      </trkpt>
      <trkpt lat="44.27654" lon="5.79846">
        <ele>558</ele>
        <time>2019-03-27T13:16:42Z</time>
      </trkpt>
      <trkpt lat="44.27656" lon="5.79838">
        <ele>558</ele>
        <time>2019-03-27T13:16:43Z</time>
      </trkpt>
      <trkpt lat="44.27659" lon="5.7983">
        <ele>558</ele>
        <time>2019-03-27T13:16:44Z</time>
      </trkpt>
      <trkpt lat="44.27661" lon="5.79822">
        <ele>558</ele>
        <time>2019-03-27T13:16:45Z</time>
      </trkpt>
      <trkpt lat="44.27663" lon="5.79814">
        <ele>558</ele>
        <time>2019-03-27T13:16:46Z</time>
      </trkpt>
      <trkpt lat="44.27665" lon="5.79806">
        <ele>558</ele>
        <time>2019-03-27T13:16:47Z</time>
      </trkpt>
      <trkpt lat="44.27668" lon="5.79798">
        <ele>558</ele>
        <time>2019-03-27T13:16:48Z</time>
      </trkpt>
      <trkpt lat="44.2767" lon="5.79789">
        <ele>558</ele>
        <time>2019-03-27T13:16:49Z</time>
      </trkpt>
      <trkpt lat="44.27672" lon="5.79781">
        <ele>558</ele>
        <time>2019-03-27T13:16:50Z</time>
      </trkpt>
      <trkpt lat="44.27674" lon="5.79772">
        <ele>558</ele>
        <time>2019-03-27T13:16:51Z</time>
      </trkpt>
      <trkpt lat="44.27676" lon="5.79764">
        <ele>558</ele>
        <time>2019-03-27T13:16:52Z</time>
      </trkpt>
      <trkpt lat="44.27678" lon="5.79755">
        <ele>558</ele>
        <time>2019-03-27T13:16:53Z</time>
      </trkpt>
      <trkpt lat="44.27679" lon="5.79746">
        <ele>558</ele>
        <time>2019-03-27T13:16:54Z</time>
      </trkpt>
      <trkpt lat="44.27681" lon="5.79738">
        <ele>558</ele>
        <time>2019-03-27T13:16:55Z</time>
      </trkpt>
      <trkpt lat="44.27681" lon="5.79729">
        <ele>558</ele>
        <time>2019-03-27T13:16:56Z</time>
      </trkpt>
      <trkpt lat="44.27681" lon="5.7972">
        <ele>558</ele>
        <time>2019-03-27T13:16:57Z</time>
      </trkpt>
      <trkpt lat="44.27681" lon="5.79712">
        <ele>558</ele>
        <time>2019-03-27T13:16:58Z</time>
      </trkpt>
      <trkpt lat="44.27681" lon="5.79703">
        <ele>558</ele>
        <time>2019-03-27T13:16:59Z</time>
      </trkpt>
      <trkpt lat="44.27682" lon="5.79695">
        <ele>558</ele>
        <time>2019-03-27T13:17:00Z</time>
      </trkpt>
      <trkpt lat="44.27682" lon="5.79686">
        <ele>558</ele>
        <time>2019-03-27T13:17:01Z</time>
      </trkpt>
      <trkpt lat="44.27682" lon="5.79677">
        <ele>558</ele>
        <time>2019-03-27T13:17:02Z</time>
      </trkpt>
      <trkpt lat="44.27682" lon="5.79669">
        <ele>558</ele>
        <time>2019-03-27T13:17:03Z</time>
      </trkpt>
      <trkpt lat="44.27682" lon="5.79661">
        <ele>558</ele>
        <time>2019-03-27T13:17:04Z</time>
      </trkpt>
      <trkpt lat="44.27682" lon="5.79652">
        <ele>558</ele>
        <time>2019-03-27T13:17:05Z</time>
      </trkpt>
      <trkpt lat="44.27683" lon="5.79644">
        <ele>558</ele>
        <time>2019-03-27T13:17:06Z</time>
      </trkpt>
      <trkpt lat="44.27683" lon="5.79636">
        <ele>558</ele>
        <time>2019-03-27T13:17:07Z</time>
      </trkpt>
      <trkpt lat="44.27684" lon="5.79627">
        <ele>558</ele>
        <time>2019-03-27T13:17:08Z</time>
      </trkpt>
      <trkpt lat="44.27684" lon="5.79619">
        <ele>558</ele>
        <time>2019-03-27T13:17:09Z</time>
      </trkpt>
      <trkpt lat="44.27684" lon="5.79611">
        <ele>558</ele>
        <time>2019-03-27T13:17:10Z</time>
      </trkpt>
      <trkpt lat="44.27685" lon="5.79603">
        <ele>558</ele>
        <time>2019-03-27T13:17:11Z</time>
      </trkpt>
      <trkpt lat="44.27684" lon="5.79595">
        <ele>559</ele>
        <time>2019-03-27T13:17:12Z</time>
      </trkpt>
      <trkpt lat="44.27683" lon="5.79586">
        <ele>559</ele>
        <time>2019-03-27T13:17:13Z</time>
      </trkpt>
      <trkpt lat="44.27682" lon="5.79578">
        <ele>560</ele>
        <time>2019-03-27T13:17:14Z</time>
      </trkpt>
      <trkpt lat="44.27683" lon="5.7957">
        <ele>561</ele>
        <time>2019-03-27T13:17:15Z</time>
      </trkpt>
      <trkpt lat="44.27684" lon="5.79563">
        <ele>562</ele>
        <time>2019-03-27T13:17:16Z</time>
      </trkpt>
      <trkpt lat="44.27684" lon="5.79555">
        <ele>563</ele>
        <time>2019-03-27T13:17:17Z</time>
      </trkpt>
      <trkpt lat="44.27685" lon="5.79548">
        <ele>563</ele>
        <time>2019-03-27T13:17:18Z</time>
      </trkpt>
      <trkpt lat="44.27685" lon="5.7954">
        <ele>563</ele>
        <time>2019-03-27T13:17:19Z</time>
      </trkpt>
      <trkpt lat="44.27686" lon="5.79533">
        <ele>563</ele>
        <time>2019-03-27T13:17:20Z</time>
      </trkpt>
      <trkpt lat="44.27686" lon="5.79525">
        <ele>564</ele>
        <time>2019-03-27T13:17:21Z</time>
      </trkpt>
      <trkpt lat="44.27686" lon="5.79517">
        <ele>564</ele>
        <time>2019-03-27T13:17:22Z</time>
      </trkpt>
      <trkpt lat="44.27686" lon="5.7951">
        <ele>565</ele>
        <time>2019-03-27T13:17:23Z</time>
      </trkpt>
      <trkpt lat="44.27687" lon="5.79503">
        <ele>565</ele>
        <time>2019-03-27T13:17:24Z</time>
      </trkpt>
      <trkpt lat="44.27688" lon="5.79496">
        <ele>566</ele>
        <time>2019-03-27T13:17:25Z</time>
      </trkpt>
      <trkpt lat="44.27689" lon="5.79488">
        <ele>567</ele>
        <time>2019-03-27T13:17:26Z</time>
      </trkpt>
      <trkpt lat="44.2769" lon="5.79481">
        <ele>567</ele>
        <time>2019-03-27T13:17:27Z</time>
      </trkpt>
      <trkpt lat="44.27691" lon="5.79473">
        <ele>568</ele>
        <time>2019-03-27T13:17:28Z</time>
      </trkpt>
      <trkpt lat="44.27691" lon="5.79465">
        <ele>569</ele>
        <time>2019-03-27T13:17:29Z</time>
      </trkpt>
      <trkpt lat="44.27691" lon="5.79458">
        <ele>570</ele>
        <time>2019-03-27T13:17:30Z</time>
      </trkpt>
      <trkpt lat="44.27691" lon="5.79451">
        <ele>571</ele>
        <time>2019-03-27T13:17:31Z</time>
      </trkpt>
      <trkpt lat="44.27691" lon="5.79443">
        <ele>572</ele>
        <time>2019-03-27T13:17:32Z</time>
      </trkpt>
      <trkpt lat="44.27692" lon="5.79437">
        <ele>573</ele>
        <time>2019-03-27T13:17:33Z</time>
      </trkpt>
      <trkpt lat="44.27692" lon="5.7943">
        <ele>574</ele>
        <time>2019-03-27T13:17:34Z</time>
      </trkpt>
      <trkpt lat="44.27693" lon="5.79424">
        <ele>575</ele>
        <time>2019-03-27T13:17:35Z</time>
      </trkpt>
      <trkpt lat="44.27694" lon="5.79418">
        <ele>576</ele>
        <time>2019-03-27T13:17:36Z</time>
      </trkpt>
      <trkpt lat="44.27696" lon="5.79412">
        <ele>576</ele>
        <time>2019-03-27T13:17:37Z</time>
      </trkpt>
      <trkpt lat="44.27698" lon="5.79405">
        <ele>577</ele>
        <time>2019-03-27T13:17:38Z</time>
      </trkpt>
      <trkpt lat="44.27699" lon="5.79398">
        <ele>578</ele>
        <time>2019-03-27T13:17:39Z</time>
      </trkpt>
      <trkpt lat="44.27703" lon="5.79392">
        <ele>578</ele>
        <time>2019-03-27T13:17:40Z</time>
      </trkpt>
      <trkpt lat="44.2771" lon="5.79386">
        <ele>578</ele>
        <time>2019-03-27T13:17:41Z</time>
      </trkpt>
      <trkpt lat="44.27716" lon="5.7938">
        <ele>578</ele>
        <time>2019-03-27T13:17:42Z</time>
      </trkpt>
      <trkpt lat="44.27722" lon="5.79374">
        <ele>578</ele>
        <time>2019-03-27T13:17:43Z</time>
      </trkpt>
      <trkpt lat="44.27729" lon="5.79367">
        <ele>578</ele>
        <time>2019-03-27T13:17:44Z</time>
      </trkpt>
      <trkpt lat="44.27735" lon="5.79362">
        <ele>578</ele>
        <time>2019-03-27T13:17:45Z</time>
      </trkpt>
      <trkpt lat="44.27741" lon="5.79357">
        <ele>578</ele>
        <time>2019-03-27T13:17:46Z</time>
      </trkpt>
      <trkpt lat="44.27747" lon="5.79353">
        <ele>577</ele>
        <time>2019-03-27T13:17:47Z</time>
      </trkpt>
      <trkpt lat="44.27753" lon="5.7935">
        <ele>576</ele>
        <time>2019-03-27T13:17:48Z</time>
      </trkpt>
      <trkpt lat="44.27759" lon="5.79347">
        <ele>576</ele>
        <time>2019-03-27T13:17:49Z</time>
      </trkpt>
      <trkpt lat="44.27764" lon="5.79344">
        <ele>575</ele>
        <time>2019-03-27T13:17:50Z</time>
      </trkpt>
      <trkpt lat="44.2777" lon="5.79343">
        <ele>575</ele>
        <time>2019-03-27T13:17:51Z</time>
      </trkpt>
      <trkpt lat="44.27775" lon="5.79342">
        <ele>574</ele>
        <time>2019-03-27T13:17:53Z</time>
      </trkpt>
      <trkpt lat="44.27781" lon="5.79341">
        <ele>574</ele>
        <time>2019-03-27T13:17:53Z</time>
      </trkpt>
      <trkpt lat="44.27787" lon="5.79341">
        <ele>573</ele>
        <time>2019-03-27T13:17:54Z</time>
      </trkpt>
      <trkpt lat="44.27792" lon="5.79341">
        <ele>573</ele>
        <time>2019-03-27T13:17:55Z</time>
      </trkpt>
      <trkpt lat="44.27797" lon="5.7934">
        <ele>573</ele>
        <time>2019-03-27T13:17:56Z</time>
      </trkpt>
      <trkpt lat="44.27803" lon="5.79338">
        <ele>573</ele>
        <time>2019-03-27T13:17:57Z</time>
      </trkpt>
      <trkpt lat="44.27808" lon="5.79335">
        <ele>573</ele>
        <time>2019-03-27T13:17:58Z</time>
      </trkpt>
      <trkpt lat="44.27813" lon="5.79332">
        <ele>573</ele>
        <time>2019-03-27T13:17:59Z</time>
      </trkpt>
      <trkpt lat="44.27818" lon="5.79328">
        <ele>573</ele>
        <time>2019-03-27T13:18:00Z</time>
      </trkpt>
      <trkpt lat="44.27821" lon="5.79323">
        <ele>573</ele>
        <time>2019-03-27T13:18:01Z</time>
      </trkpt>
      <trkpt lat="44.27824" lon="5.79316">
        <ele>573</ele>
        <time>2019-03-27T13:18:02Z</time>
      </trkpt>
      <trkpt lat="44.27827" lon="5.7931">
        <ele>573</ele>
        <time>2019-03-27T13:18:03Z</time>
      </trkpt>
      <trkpt lat="44.27829" lon="5.79305">
        <ele>573</ele>
        <time>2019-03-27T13:18:04Z</time>
      </trkpt>
      <trkpt lat="44.27833" lon="5.793">
        <ele>573</ele>
        <time>2019-03-27T13:18:05Z</time>
      </trkpt>
      <trkpt lat="44.27836" lon="5.79294">
        <ele>573</ele>
        <time>2019-03-27T13:18:06Z</time>
      </trkpt>
      <trkpt lat="44.27838" lon="5.79288">
        <ele>573</ele>
        <time>2019-03-27T13:18:07Z</time>
      </trkpt>
      <trkpt lat="44.27841" lon="5.79283">
        <ele>573</ele>
        <time>2019-03-27T13:18:08Z</time>
      </trkpt>
      <trkpt lat="44.27843" lon="5.79277">
        <ele>573</ele>
        <time>2019-03-27T13:18:09Z</time>
      </trkpt>
      <trkpt lat="44.27846" lon="5.79271">
        <ele>573</ele>
        <time>2019-03-27T13:18:10Z</time>
      </trkpt>
      <trkpt lat="44.27848" lon="5.79266">
        <ele>573</ele>
        <time>2019-03-27T13:18:11Z</time>
      </trkpt>
      <trkpt lat="44.27851" lon="5.7926">
        <ele>573</ele>
        <time>2019-03-27T13:18:12Z</time>
      </trkpt>
      <trkpt lat="44.27854" lon="5.79255">
        <ele>573</ele>
        <time>2019-03-27T13:18:13Z</time>
      </trkpt>
      <trkpt lat="44.27856" lon="5.7925">
        <ele>573</ele>
        <time>2019-03-27T13:18:14Z</time>
      </trkpt>
      <trkpt lat="44.27858" lon="5.79245">
        <ele>573</ele>
        <time>2019-03-27T13:18:15Z</time>
      </trkpt>
      <trkpt lat="44.27861" lon="5.7924">
        <ele>573</ele>
        <time>2019-03-27T13:18:16Z</time>
      </trkpt>
      <trkpt lat="44.27863" lon="5.79234">
        <ele>573</ele>
        <time>2019-03-27T13:18:17Z</time>
      </trkpt>
      <trkpt lat="44.27865" lon="5.79228">
        <ele>573</ele>
        <time>2019-03-27T13:18:18Z</time>
      </trkpt>
      <trkpt lat="44.27867" lon="5.79223">
        <ele>573</ele>
        <time>2019-03-27T13:18:19Z</time>
      </trkpt>
      <trkpt lat="44.27868" lon="5.79217">
        <ele>573</ele>
        <time>2019-03-27T13:18:20Z</time>
      </trkpt>
      <trkpt lat="44.27869" lon="5.79211">
        <ele>573</ele>
        <time>2019-03-27T13:18:21Z</time>
      </trkpt>
      <trkpt lat="44.27869" lon="5.79204">
        <ele>573</ele>
        <time>2019-03-27T13:18:22Z</time>
      </trkpt>
      <trkpt lat="44.2787" lon="5.79198">
        <ele>573</ele>
        <time>2019-03-27T13:18:23Z</time>
      </trkpt>
      <trkpt lat="44.2787" lon="5.79192">
        <ele>573</ele>
        <time>2019-03-27T13:18:24Z</time>
      </trkpt>
      <trkpt lat="44.27871" lon="5.79185">
        <ele>573</ele>
        <time>2019-03-27T13:18:25Z</time>
      </trkpt>
      <trkpt lat="44.27871" lon="5.79179">
        <ele>573</ele>
        <time>2019-03-27T13:18:26Z</time>
      </trkpt>
      <trkpt lat="44.27871" lon="5.79173">
        <ele>573</ele>
        <time>2019-03-27T13:18:27Z</time>
      </trkpt>
      <trkpt lat="44.2787" lon="5.79167">
        <ele>573</ele>
        <time>2019-03-27T13:18:28Z</time>
      </trkpt>
      <trkpt lat="44.27869" lon="5.79161">
        <ele>573</ele>
        <time>2019-03-27T13:18:29Z</time>
      </trkpt>
      <trkpt lat="44.27867" lon="5.79156">
        <ele>573</ele>
        <time>2019-03-27T13:18:30Z</time>
      </trkpt>
      <trkpt lat="44.27864" lon="5.79151">
        <ele>573</ele>
        <time>2019-03-27T13:18:31Z</time>
      </trkpt>
      <trkpt lat="44.27861" lon="5.79146">
        <ele>573</ele>
        <time>2019-03-27T13:18:32Z</time>
      </trkpt>
      <trkpt lat="44.27854" lon="5.7914">
        <ele>573</ele>
        <time>2019-03-27T13:18:33Z</time>
      </trkpt>
      <trkpt lat="44.2785" lon="5.79136">
        <ele>573</ele>
        <time>2019-03-27T13:18:34Z</time>
      </trkpt>
      <trkpt lat="44.27848" lon="5.79132">
        <ele>574</ele>
        <time>2019-03-27T13:18:35Z</time>
      </trkpt>
      <trkpt lat="44.27846" lon="5.79127">
        <ele>575</ele>
        <time>2019-03-27T13:18:36Z</time>
      </trkpt>
      <trkpt lat="44.27845" lon="5.79121">
        <ele>576</ele>
        <time>2019-03-27T13:18:37Z</time>
      </trkpt>
      <trkpt lat="44.27843" lon="5.79115">
        <ele>577</ele>
        <time>2019-03-27T13:18:38Z</time>
      </trkpt>
      <trkpt lat="44.27842" lon="5.79108">
        <ele>578</ele>
        <time>2019-03-27T13:18:39Z</time>
      </trkpt>
      <trkpt lat="44.27842" lon="5.79102">
        <ele>578</ele>
        <time>2019-03-27T13:18:40Z</time>
      </trkpt>
      <trkpt lat="44.2784" lon="5.79097">
        <ele>578</ele>
        <time>2019-03-27T13:18:41Z</time>
      </trkpt>
      <trkpt lat="44.27837" lon="5.79091">
        <ele>578</ele>
        <time>2019-03-27T13:18:42Z</time>
      </trkpt>
      <trkpt lat="44.27834" lon="5.79086">
        <ele>579</ele>
        <time>2019-03-27T13:18:43Z</time>
      </trkpt>
      <trkpt lat="44.27831" lon="5.79082">
        <ele>579</ele>
        <time>2019-03-27T13:18:44Z</time>
      </trkpt>
      <trkpt lat="44.27828" lon="5.79078">
        <ele>580</ele>
        <time>2019-03-27T13:18:45Z</time>
      </trkpt>
      <trkpt lat="44.27825" lon="5.79074">
        <ele>580</ele>
        <time>2019-03-27T13:18:46Z</time>
      </trkpt>
      <trkpt lat="44.27822" lon="5.7907">
        <ele>580</ele>
        <time>2019-03-27T13:18:47Z</time>
      </trkpt>
      <trkpt lat="44.27819" lon="5.79066">
        <ele>580</ele>
        <time>2019-03-27T13:18:48Z</time>
      </trkpt>
      <trkpt lat="44.27815" lon="5.79062">
        <ele>580</ele>
        <time>2019-03-27T13:18:49Z</time>
      </trkpt>
      <trkpt lat="44.27813" lon="5.79058">
        <ele>580</ele>
        <time>2019-03-27T13:18:50Z</time>
      </trkpt>
      <trkpt lat="44.2781" lon="5.79052">
        <ele>580</ele>
        <time>2019-03-27T13:18:51Z</time>
      </trkpt>
      <trkpt lat="44.27808" lon="5.79047">
        <ele>580</ele>
        <time>2019-03-27T13:18:52Z</time>
      </trkpt>
      <trkpt lat="44.27806" lon="5.79041">
        <ele>580</ele>
        <time>2019-03-27T13:18:53Z</time>
      </trkpt>
      <trkpt lat="44.27805" lon="5.79035">
        <ele>580</ele>
        <time>2019-03-27T13:18:54Z</time>
      </trkpt>
      <trkpt lat="44.27805" lon="5.79029">
        <ele>580</ele>
        <time>2019-03-27T13:18:55Z</time>
      </trkpt>
      <trkpt lat="44.27822" lon="5.78988">
        <ele>580</ele>
        <time>2019-03-27T13:19:02Z</time>
      </trkpt>
      <trkpt lat="44.27834" lon="5.78995">
        <ele>580</ele>
        <time>2019-03-27T13:19:03Z</time>
      </trkpt>
      <trkpt lat="44.2784" lon="5.79006">
        <ele>580</ele>
        <time>2019-03-27T13:19:04Z</time>
      </trkpt>
      <trkpt lat="44.27846" lon="5.79016">
        <ele>580</ele>
        <time>2019-03-27T13:19:05Z</time>
      </trkpt>
      <trkpt lat="44.27851" lon="5.79019">
        <ele>580</ele>
        <time>2019-03-27T13:19:06Z</time>
      </trkpt>
      <trkpt lat="44.27857" lon="5.79022">
        <ele>580</ele>
        <time>2019-03-27T13:19:07Z</time>
      </trkpt>
      <trkpt lat="44.27863" lon="5.79023">
        <ele>579</ele>
        <time>2019-03-27T13:19:08Z</time>
      </trkpt>
      <trkpt lat="44.27869" lon="5.79025">
        <ele>578</ele>
        <time>2019-03-27T13:19:09Z</time>
      </trkpt>
      <trkpt lat="44.27876" lon="5.79023">
        <ele>578</ele>
        <time>2019-03-27T13:19:10Z</time>
      </trkpt>
      <trkpt lat="44.27882" lon="5.79025">
        <ele>578</ele>
        <time>2019-03-27T13:19:11Z</time>
      </trkpt>
      <trkpt lat="44.27888" lon="5.79027">
        <ele>577</ele>
        <time>2019-03-27T13:19:12Z</time>
      </trkpt>
      <trkpt lat="44.27895" lon="5.79027">
        <ele>576</ele>
        <time>2019-03-27T13:19:13Z</time>
      </trkpt>
      <trkpt lat="44.27902" lon="5.79026">
        <ele>575</ele>
        <time>2019-03-27T13:19:14Z</time>
      </trkpt>
      <trkpt lat="44.2791" lon="5.79021">
        <ele>575</ele>
        <time>2019-03-27T13:19:15Z</time>
      </trkpt>
      <trkpt lat="44.27917" lon="5.79016">
        <ele>575</ele>
        <time>2019-03-27T13:19:16Z</time>
      </trkpt>
      <trkpt lat="44.27924" lon="5.79012">
        <ele>575</ele>
        <time>2019-03-27T13:19:17Z</time>
      </trkpt>
      <trkpt lat="44.2793" lon="5.79007">
        <ele>575</ele>
        <time>2019-03-27T13:19:18Z</time>
      </trkpt>
      <trkpt lat="44.27937" lon="5.79002">
        <ele>575</ele>
        <time>2019-03-27T13:19:19Z</time>
      </trkpt>
      <trkpt lat="44.27943" lon="5.78997">
        <ele>575</ele>
        <time>2019-03-27T13:19:20Z</time>
      </trkpt>
      <trkpt lat="44.27949" lon="5.7899">
        <ele>575</ele>
        <time>2019-03-27T13:19:21Z</time>
      </trkpt>
      <trkpt lat="44.27954" lon="5.78982">
        <ele>575</ele>
        <time>2019-03-27T13:19:22Z</time>
      </trkpt>
      <trkpt lat="44.27959" lon="5.78973">
        <ele>575</ele>
        <time>2019-03-27T13:19:23Z</time>
      </trkpt>
      <trkpt lat="44.27963" lon="5.78964">
        <ele>575</ele>
        <time>2019-03-27T13:19:24Z</time>
      </trkpt>
      <trkpt lat="44.27966" lon="5.78954">
        <ele>575</ele>
        <time>2019-03-27T13:19:25Z</time>
      </trkpt>
      <trkpt lat="44.27967" lon="5.78944">
        <ele>575</ele>
        <time>2019-03-27T13:19:26Z</time>
      </trkpt>
      <trkpt lat="44.27969" lon="5.78933">
        <ele>575</ele>
        <time>2019-03-27T13:19:27Z</time>
      </trkpt>
      <trkpt lat="44.2797" lon="5.78923">
        <ele>575</ele>
        <time>2019-03-27T13:19:28Z</time>
      </trkpt>
      <trkpt lat="44.27971" lon="5.78912">
        <ele>575</ele>
        <time>2019-03-27T13:19:29Z</time>
      </trkpt>
      <trkpt lat="44.27971" lon="5.78902">
        <ele>575</ele>
        <time>2019-03-27T13:19:30Z</time>
      </trkpt>
      <trkpt lat="44.27969" lon="5.7889">
        <ele>575</ele>
        <time>2019-03-27T13:19:31Z</time>
      </trkpt>
      <trkpt lat="44.27968" lon="5.78879">
        <ele>575</ele>
        <time>2019-03-27T13:19:32Z</time>
      </trkpt>
      <trkpt lat="44.27966" lon="5.78868">
        <ele>575</ele>
        <time>2019-03-27T13:19:33Z</time>
      </trkpt>
      <trkpt lat="44.27964" lon="5.78857">
        <ele>575</ele>
        <time>2019-03-27T13:19:34Z</time>
      </trkpt>
      <trkpt lat="44.27962" lon="5.78847">
        <ele>575</ele>
        <time>2019-03-27T13:19:35Z</time>
      </trkpt>
      <trkpt lat="44.27961" lon="5.78837">
        <ele>575</ele>
        <time>2019-03-27T13:19:36Z</time>
      </trkpt>
      <trkpt lat="44.27959" lon="5.78827">
        <ele>575</ele>
        <time>2019-03-27T13:19:37Z</time>
      </trkpt>
      <trkpt lat="44.27958" lon="5.78818">
        <ele>575</ele>
        <time>2019-03-27T13:19:38Z</time>
      </trkpt>
      <trkpt lat="44.27955" lon="5.78808">
        <ele>575</ele>
        <time>2019-03-27T13:19:39Z</time>
      </trkpt>
      <trkpt lat="44.27952" lon="5.78798">
        <ele>575</ele>
        <time>2019-03-27T13:19:40Z</time>
      </trkpt>
      <trkpt lat="44.27949" lon="5.78789">
        <ele>575</ele>
        <time>2019-03-27T13:19:41Z</time>
      </trkpt>
      <trkpt lat="44.27945" lon="5.78779">
        <ele>575</ele>
        <time>2019-03-27T13:19:42Z</time>
      </trkpt>
      <trkpt lat="44.27943" lon="5.7877">
        <ele>575</ele>
        <time>2019-03-27T13:19:43Z</time>
      </trkpt>
      <trkpt lat="44.27939" lon="5.7876">
        <ele>575</ele>
        <time>2019-03-27T13:19:44Z</time>
      </trkpt>
      <trkpt lat="44.27936" lon="5.7875">
        <ele>575</ele>
        <time>2019-03-27T13:19:45Z</time>
      </trkpt>
      <trkpt lat="44.27934" lon="5.7874">
        <ele>575</ele>
        <time>2019-03-27T13:19:46Z</time>
      </trkpt>
      <trkpt lat="44.27932" lon="5.78729">
        <ele>575</ele>
        <time>2019-03-27T13:19:47Z</time>
      </trkpt>
      <trkpt lat="44.27931" lon="5.78719">
        <ele>575</ele>
        <time>2019-03-27T13:19:48Z</time>
      </trkpt>
      <trkpt lat="44.2793" lon="5.78708">
        <ele>576</ele>
        <time>2019-03-27T13:19:49Z</time>
      </trkpt>
      <trkpt lat="44.27929" lon="5.78697">
        <ele>576</ele>
        <time>2019-03-27T13:19:50Z</time>
      </trkpt>
      <trkpt lat="44.27929" lon="5.78687">
        <ele>576</ele>
        <time>2019-03-27T13:19:51Z</time>
      </trkpt>
      <trkpt lat="44.2793" lon="5.78676">
        <ele>576</ele>
        <time>2019-03-27T13:19:53Z</time>
      </trkpt>
      <trkpt lat="44.27931" lon="5.78665">
        <ele>576</ele>
        <time>2019-03-27T13:19:53Z</time>
      </trkpt>
      <trkpt lat="44.27934" lon="5.78656">
        <ele>576</ele>
        <time>2019-03-27T13:19:54Z</time>
      </trkpt>
      <trkpt lat="44.27938" lon="5.78647">
        <ele>576</ele>
        <time>2019-03-27T13:19:55Z</time>
      </trkpt>
      <trkpt lat="44.27943" lon="5.78639">
        <ele>576</ele>
        <time>2019-03-27T13:19:56Z</time>
      </trkpt>
      <trkpt lat="44.27947" lon="5.7863">
        <ele>576</ele>
        <time>2019-03-27T13:19:57Z</time>
      </trkpt>
      <trkpt lat="44.27951" lon="5.78621">
        <ele>576</ele>
        <time>2019-03-27T13:19:58Z</time>
      </trkpt>
      <trkpt lat="44.27954" lon="5.78612">
        <ele>576</ele>
        <time>2019-03-27T13:19:59Z</time>
      </trkpt>
      <trkpt lat="44.27957" lon="5.78603">
        <ele>576</ele>
        <time>2019-03-27T13:20:00Z</time>
      </trkpt>
      <trkpt lat="44.27961" lon="5.78593">
        <ele>576</ele>
        <time>2019-03-27T13:20:01Z</time>
      </trkpt>
      <trkpt lat="44.27963" lon="5.78583">
        <ele>576</ele>
        <time>2019-03-27T13:20:02Z</time>
      </trkpt>
      <trkpt lat="44.27965" lon="5.78573">
        <ele>576</ele>
        <time>2019-03-27T13:20:03Z</time>
      </trkpt>
      <trkpt lat="44.27964" lon="5.78563">
        <ele>576</ele>
        <time>2019-03-27T13:20:04Z</time>
      </trkpt>
      <trkpt lat="44.27964" lon="5.78553">
        <ele>576</ele>
        <time>2019-03-27T13:20:05Z</time>
      </trkpt>
      <trkpt lat="44.27964" lon="5.78543">
        <ele>576</ele>
        <time>2019-03-27T13:20:06Z</time>
      </trkpt>
      <trkpt lat="44.27964" lon="5.78533">
        <ele>576</ele>
        <time>2019-03-27T13:20:07Z</time>
      </trkpt>
      <trkpt lat="44.27963" lon="5.78523">
        <ele>576</ele>
        <time>2019-03-27T13:20:08Z</time>
      </trkpt>
      <trkpt lat="44.27963" lon="5.78515">
        <ele>576</ele>
        <time>2019-03-27T13:20:09Z</time>
      </trkpt>
      <trkpt lat="44.27964" lon="5.78506">
        <ele>576</ele>
        <time>2019-03-27T13:20:10Z</time>
      </trkpt>
      <trkpt lat="44.27964" lon="5.78496">
        <ele>575</ele>
        <time>2019-03-27T13:20:11Z</time>
      </trkpt>
      <trkpt lat="44.27964" lon="5.78486">
        <ele>574</ele>
        <time>2019-03-27T13:20:12Z</time>
      </trkpt>
      <trkpt lat="44.27964" lon="5.78476">
        <ele>573</ele>
        <time>2019-03-27T13:20:13Z</time>
      </trkpt>
      <trkpt lat="44.27964" lon="5.78465">
        <ele>572</ele>
        <time>2019-03-27T13:20:14Z</time>
      </trkpt>
      <trkpt lat="44.27963" lon="5.78455">
        <ele>571</ele>
        <time>2019-03-27T13:20:15Z</time>
      </trkpt>
      <trkpt lat="44.27962" lon="5.78445">
        <ele>571</ele>
        <time>2019-03-27T13:20:16Z</time>
      </trkpt>
      <trkpt lat="44.27962" lon="5.78435">
        <ele>571</ele>
        <time>2019-03-27T13:20:17Z</time>
      </trkpt>
      <trkpt lat="44.27957" lon="5.78425">
        <ele>571</ele>
        <time>2019-03-27T13:20:18Z</time>
      </trkpt>
      <trkpt lat="44.27955" lon="5.78416">
        <ele>571</ele>
        <time>2019-03-27T13:20:19Z</time>
      </trkpt>
      <trkpt lat="44.27953" lon="5.78407">
        <ele>571</ele>
        <time>2019-03-27T13:20:20Z</time>
      </trkpt>
      <trkpt lat="44.27951" lon="5.78398">
        <ele>571</ele>
        <time>2019-03-27T13:20:21Z</time>
      </trkpt>
      <trkpt lat="44.27949" lon="5.78388">
        <ele>571</ele>
        <time>2019-03-27T13:20:22Z</time>
      </trkpt>
      <trkpt lat="44.27948" lon="5.78379">
        <ele>571</ele>
        <time>2019-03-27T13:20:23Z</time>
      </trkpt>
      <trkpt lat="44.27946" lon="5.7837">
        <ele>571</ele>
        <time>2019-03-27T13:20:24Z</time>
      </trkpt>
      <trkpt lat="44.27944" lon="5.78362">
        <ele>571</ele>
        <time>2019-03-27T13:20:25Z</time>
      </trkpt>
      <trkpt lat="44.27942" lon="5.78353">
        <ele>571</ele>
        <time>2019-03-27T13:20:26Z</time>
      </trkpt>
      <trkpt lat="44.27941" lon="5.78344">
        <ele>571</ele>
        <time>2019-03-27T13:20:27Z</time>
      </trkpt>
      <trkpt lat="44.27939" lon="5.78336">
        <ele>571</ele>
        <time>2019-03-27T13:20:28Z</time>
      </trkpt>
      <trkpt lat="44.27937" lon="5.78327">
        <ele>571</ele>
        <time>2019-03-27T13:20:29Z</time>
      </trkpt>
      <trkpt lat="44.27934" lon="5.78317">
        <ele>571</ele>
        <time>2019-03-27T13:20:30Z</time>
      </trkpt>
      <trkpt lat="44.27932" lon="5.78308">
        <ele>571</ele>
        <time>2019-03-27T13:20:31Z</time>
      </trkpt>
      <trkpt lat="44.27931" lon="5.783">
        <ele>572</ele>
        <time>2019-03-27T13:20:33Z</time>
      </trkpt>
      <trkpt lat="44.27929" lon="5.78291">
        <ele>572</ele>
        <time>2019-03-27T13:20:33Z</time>
      </trkpt>
      <trkpt lat="44.27927" lon="5.78283">
        <ele>572</ele>
        <time>2019-03-27T13:20:34Z</time>
      </trkpt>
      <trkpt lat="44.27924" lon="5.78275">
        <ele>573</ele>
        <time>2019-03-27T13:20:35Z</time>
      </trkpt>
      <trkpt lat="44.27921" lon="5.78267">
        <ele>573</ele>
        <time>2019-03-27T13:20:36Z</time>
      </trkpt>
      <trkpt lat="44.27918" lon="5.78259">
        <ele>573</ele>
        <time>2019-03-27T13:20:37Z</time>
      </trkpt>
      <trkpt lat="44.27914" lon="5.78252">
        <ele>573</ele>
        <time>2019-03-27T13:20:38Z</time>
      </trkpt>
      <trkpt lat="44.2791" lon="5.78246">
        <ele>573</ele>
        <time>2019-03-27T13:20:39Z</time>
      </trkpt>
      <trkpt lat="44.27906" lon="5.78239">
        <ele>573</ele>
        <time>2019-03-27T13:20:40Z</time>
      </trkpt>
      <trkpt lat="44.27902" lon="5.78232">
        <ele>573</ele>
        <time>2019-03-27T13:20:41Z</time>
      </trkpt>
      <trkpt lat="44.27898" lon="5.78225">
        <ele>573</ele>
        <time>2019-03-27T13:20:42Z</time>
      </trkpt>
      <trkpt lat="44.27894" lon="5.78219">
        <ele>573</ele>
        <time>2019-03-27T13:20:43Z</time>
      </trkpt>
      <trkpt lat="44.2789" lon="5.78212">
        <ele>573</ele>
        <time>2019-03-27T13:20:44Z</time>
      </trkpt>
      <trkpt lat="44.27887" lon="5.78205">
        <ele>573</ele>
        <time>2019-03-27T13:20:45Z</time>
      </trkpt>
      <trkpt lat="44.27882" lon="5.78199">
        <ele>574</ele>
        <time>2019-03-27T13:20:46Z</time>
      </trkpt>
      <trkpt lat="44.27877" lon="5.78194">
        <ele>574</ele>
        <time>2019-03-27T13:20:47Z</time>
      </trkpt>
      <trkpt lat="44.27871" lon="5.7819">
        <ele>574</ele>
        <time>2019-03-27T13:20:48Z</time>
      </trkpt>
      <trkpt lat="44.27865" lon="5.78186">
        <ele>574</ele>
        <time>2019-03-27T13:20:49Z</time>
      </trkpt>
      <trkpt lat="44.27859" lon="5.78184">
        <ele>575</ele>
        <time>2019-03-27T13:20:50Z</time>
      </trkpt>
      <trkpt lat="44.27853" lon="5.78182">
        <ele>575</ele>
        <time>2019-03-27T13:20:51Z</time>
      </trkpt>
      <trkpt lat="44.27846" lon="5.78182">
        <ele>575</ele>
        <time>2019-03-27T13:20:53Z</time>
      </trkpt>
      <trkpt lat="44.2784" lon="5.78182">
        <ele>576</ele>
        <time>2019-03-27T13:20:53Z</time>
      </trkpt>
      <trkpt lat="44.27833" lon="5.78183">
        <ele>576</ele>
        <time>2019-03-27T13:20:54Z</time>
      </trkpt>
      <trkpt lat="44.27827" lon="5.78186">
        <ele>577</ele>
        <time>2019-03-27T13:20:55Z</time>
      </trkpt>
      <trkpt lat="44.27821" lon="5.78188">
        <ele>577</ele>
        <time>2019-03-27T13:20:56Z</time>
      </trkpt>
      <trkpt lat="44.27815" lon="5.78191">
        <ele>577</ele>
        <time>2019-03-27T13:20:57Z</time>
      </trkpt>
      <trkpt lat="44.2781" lon="5.78194">
        <ele>578</ele>
        <time>2019-03-27T13:20:58Z</time>
      </trkpt>
      <trkpt lat="44.27805" lon="5.78197">
        <ele>578</ele>
        <time>2019-03-27T13:20:59Z</time>
      </trkpt>
      <trkpt lat="44.27799" lon="5.78201">
        <ele>578</ele>
        <time>2019-03-27T13:21:00Z</time>
      </trkpt>
      <trkpt lat="44.27794" lon="5.78205">
        <ele>579</ele>
        <time>2019-03-27T13:21:01Z</time>
      </trkpt>
      <trkpt lat="44.27789" lon="5.7821">
        <ele>579</ele>
        <time>2019-03-27T13:21:02Z</time>
      </trkpt>
      <trkpt lat="44.27784" lon="5.78216">
        <ele>579</ele>
        <time>2019-03-27T13:21:03Z</time>
      </trkpt>
      <trkpt lat="44.27779" lon="5.7822">
        <ele>580</ele>
        <time>2019-03-27T13:21:04Z</time>
      </trkpt>
      <trkpt lat="44.27774" lon="5.78225">
        <ele>580</ele>
        <time>2019-03-27T13:21:05Z</time>
      </trkpt>
      <trkpt lat="44.27769" lon="5.7823">
        <ele>581</ele>
        <time>2019-03-27T13:21:06Z</time>
      </trkpt>
      <trkpt lat="44.27765" lon="5.78235">
        <ele>581</ele>
        <time>2019-03-27T13:21:07Z</time>
      </trkpt>
      <trkpt lat="44.2776" lon="5.7824">
        <ele>581</ele>
        <time>2019-03-27T13:21:08Z</time>
      </trkpt>
      <trkpt lat="44.27755" lon="5.78245">
        <ele>581</ele>
        <time>2019-03-27T13:21:09Z</time>
      </trkpt>
      <trkpt lat="44.27751" lon="5.7825">
        <ele>581</ele>
        <time>2019-03-27T13:21:10Z</time>
      </trkpt>
      <trkpt lat="44.27747" lon="5.78256">
        <ele>581</ele>
        <time>2019-03-27T13:21:11Z</time>
      </trkpt>
      <trkpt lat="44.27743" lon="5.78261">
        <ele>581</ele>
        <time>2019-03-27T13:21:12Z</time>
      </trkpt>
      <trkpt lat="44.27738" lon="5.78266">
        <ele>581</ele>
        <time>2019-03-27T13:21:13Z</time>
      </trkpt>
      <trkpt lat="44.27734" lon="5.78272">
        <ele>582</ele>
        <time>2019-03-27T13:21:14Z</time>
      </trkpt>
      <trkpt lat="44.27729" lon="5.78277">
        <ele>583</ele>
        <time>2019-03-27T13:21:15Z</time>
      </trkpt>
      <trkpt lat="44.27724" lon="5.78282">
        <ele>583</ele>
        <time>2019-03-27T13:21:16Z</time>
      </trkpt>
      <trkpt lat="44.27719" lon="5.78287">
        <ele>583</ele>
        <time>2019-03-27T13:21:17Z</time>
      </trkpt>
      <trkpt lat="44.27714" lon="5.78292">
        <ele>583</ele>
        <time>2019-03-27T13:21:18Z</time>
      </trkpt>
      <trkpt lat="44.2771" lon="5.78298">
        <ele>583</ele>
        <time>2019-03-27T13:21:19Z</time>
      </trkpt>
      <trkpt lat="44.27706" lon="5.78303">
        <ele>583</ele>
        <time>2019-03-27T13:21:20Z</time>
      </trkpt>
      <trkpt lat="44.27702" lon="5.78308">
        <ele>584</ele>
        <time>2019-03-27T13:21:21Z</time>
      </trkpt>
      <trkpt lat="44.27698" lon="5.78312">
        <ele>584</ele>
        <time>2019-03-27T13:21:22Z</time>
      </trkpt>
      <trkpt lat="44.27694" lon="5.78317">
        <ele>585</ele>
        <time>2019-03-27T13:21:23Z</time>
      </trkpt>
      <trkpt lat="44.27689" lon="5.78322">
        <ele>585</ele>
        <time>2019-03-27T13:21:24Z</time>
      </trkpt>
      <trkpt lat="44.27685" lon="5.78327">
        <ele>585</ele>
        <time>2019-03-27T13:21:25Z</time>
      </trkpt>
      <trkpt lat="44.27681" lon="5.78331">
        <ele>586</ele>
        <time>2019-03-27T13:21:26Z</time>
      </trkpt>
      <trkpt lat="44.27676" lon="5.78335">
        <ele>586</ele>
        <time>2019-03-27T13:21:27Z</time>
      </trkpt>
      <trkpt lat="44.27671" lon="5.78339">
        <ele>586</ele>
        <time>2019-03-27T13:21:28Z</time>
      </trkpt>
      <trkpt lat="44.27666" lon="5.78342">
        <ele>586</ele>
        <time>2019-03-27T13:21:29Z</time>
      </trkpt>
      <trkpt lat="44.27653" lon="5.78351">
        <ele>587</ele>
        <time>2019-03-27T13:21:32Z</time>
      </trkpt>
      <trkpt lat="44.27648" lon="5.78355">
        <ele>587</ele>
        <time>2019-03-27T13:21:33Z</time>
      </trkpt>
      <trkpt lat="44.27644" lon="5.78358">
        <ele>588</ele>
        <time>2019-03-27T13:21:34Z</time>
      </trkpt>
      <trkpt lat="44.27639" lon="5.78361">
        <ele>588</ele>
        <time>2019-03-27T13:21:35Z</time>
      </trkpt>
      <trkpt lat="44.27635" lon="5.78365">
        <ele>589</ele>
        <time>2019-03-27T13:21:36Z</time>
      </trkpt>
      <trkpt lat="44.27631" lon="5.78369">
        <ele>589</ele>
        <time>2019-03-27T13:21:37Z</time>
      </trkpt>
      <trkpt lat="44.27626" lon="5.78372">
        <ele>589</ele>
        <time>2019-03-27T13:21:38Z</time>
      </trkpt>
      <trkpt lat="44.27621" lon="5.78377">
        <ele>590</ele>
        <time>2019-03-27T13:21:39Z</time>
      </trkpt>
      <trkpt lat="44.27616" lon="5.78382">
        <ele>590</ele>
        <time>2019-03-27T13:21:40Z</time>
      </trkpt>
      <trkpt lat="44.27611" lon="5.78385">
        <ele>590</ele>
        <time>2019-03-27T13:21:41Z</time>
      </trkpt>
      <trkpt lat="44.27607" lon="5.78389">
        <ele>591</ele>
        <time>2019-03-27T13:21:42Z</time>
      </trkpt>
      <trkpt lat="44.27602" lon="5.78393">
        <ele>592</ele>
        <time>2019-03-27T13:21:43Z</time>
      </trkpt>
      <trkpt lat="44.27592" lon="5.784">
        <ele>593</ele>
        <time>2019-03-27T13:21:45Z</time>
      </trkpt>
      <trkpt lat="44.27577" lon="5.78411">
        <ele>594</ele>
        <time>2019-03-27T13:21:49Z</time>
      </trkpt>
      <trkpt lat="44.27577" lon="5.78413">
        <ele>595</ele>
        <time>2019-03-27T13:21:50Z</time>
      </trkpt>
      <trkpt lat="44.27572" lon="5.78414">
        <ele>596</ele>
        <time>2019-03-27T13:21:51Z</time>
      </trkpt>
      <trkpt lat="44.27565" lon="5.78416">
        <ele>597</ele>
        <time>2019-03-27T13:21:52Z</time>
      </trkpt>
      <trkpt lat="44.27558" lon="5.78417">
        <ele>599</ele>
        <time>2019-03-27T13:21:53Z</time>
      </trkpt>
      <trkpt lat="44.27552" lon="5.78417">
        <ele>600</ele>
        <time>2019-03-27T13:21:54Z</time>
      </trkpt>
      <trkpt lat="44.27545" lon="5.78417">
        <ele>601</ele>
        <time>2019-03-27T13:21:55Z</time>
      </trkpt>
      <trkpt lat="44.27539" lon="5.78417">
        <ele>602</ele>
        <time>2019-03-27T13:21:56Z</time>
      </trkpt>
      <trkpt lat="44.27532" lon="5.78416">
        <ele>603</ele>
        <time>2019-03-27T13:21:57Z</time>
      </trkpt>
      <trkpt lat="44.27526" lon="5.78414">
        <ele>603</ele>
        <time>2019-03-27T13:21:58Z</time>
      </trkpt>
      <trkpt lat="44.27521" lon="5.78412">
        <ele>603</ele>
        <time>2019-03-27T13:21:59Z</time>
      </trkpt>
      <trkpt lat="44.27515" lon="5.7841">
        <ele>603</ele>
        <time>2019-03-27T13:22:00Z</time>
      </trkpt>
      <trkpt lat="44.27509" lon="5.78408">
        <ele>603</ele>
        <time>2019-03-27T13:22:01Z</time>
      </trkpt>
      <trkpt lat="44.27504" lon="5.78404">
        <ele>603</ele>
        <time>2019-03-27T13:22:02Z</time>
      </trkpt>
      <trkpt lat="44.27498" lon="5.784">
        <ele>603</ele>
        <time>2019-03-27T13:22:03Z</time>
      </trkpt>
      <trkpt lat="44.27493" lon="5.78395">
        <ele>603</ele>
        <time>2019-03-27T13:22:04Z</time>
      </trkpt>
      <trkpt lat="44.27488" lon="5.78389">
        <ele>603</ele>
        <time>2019-03-27T13:22:05Z</time>
      </trkpt>
      <trkpt lat="44.27483" lon="5.78384">
        <ele>603</ele>
        <time>2019-03-27T13:22:06Z</time>
      </trkpt>
      <trkpt lat="44.27478" lon="5.78378">
        <ele>603</ele>
        <time>2019-03-27T13:22:07Z</time>
      </trkpt>
      <trkpt lat="44.27474" lon="5.78372">
        <ele>602</ele>
        <time>2019-03-27T13:22:08Z</time>
      </trkpt>
      <trkpt lat="44.2747" lon="5.78365">
        <ele>601</ele>
        <time>2019-03-27T13:22:09Z</time>
      </trkpt>
      <trkpt lat="44.27468" lon="5.78358">
        <ele>600</ele>
        <time>2019-03-27T13:22:10Z</time>
      </trkpt>
      <trkpt lat="44.27465" lon="5.7835">
        <ele>599</ele>
        <time>2019-03-27T13:22:11Z</time>
      </trkpt>
      <trkpt lat="44.27464" lon="5.78342">
        <ele>598</ele>
        <time>2019-03-27T13:22:12Z</time>
      </trkpt>
      <trkpt lat="44.27463" lon="5.78334">
        <ele>598</ele>
        <time>2019-03-27T13:22:13Z</time>
      </trkpt>
      <trkpt lat="44.27466" lon="5.78328">
        <ele>597</ele>
        <time>2019-03-27T13:22:14Z</time>
      </trkpt>
      <trkpt lat="44.27471" lon="5.78322">
        <ele>596</ele>
        <time>2019-03-27T13:22:15Z</time>
      </trkpt>
      <trkpt lat="44.27477" lon="5.78317">
        <ele>595</ele>
        <time>2019-03-27T13:22:16Z</time>
      </trkpt>
      <trkpt lat="44.27482" lon="5.78313">
        <ele>594</ele>
        <time>2019-03-27T13:22:17Z</time>
      </trkpt>
      <trkpt lat="44.27489" lon="5.78308">
        <ele>593</ele>
        <time>2019-03-27T13:22:18Z</time>
      </trkpt>
      <trkpt lat="44.27494" lon="5.78303">
        <ele>592</ele>
        <time>2019-03-27T13:22:19Z</time>
      </trkpt>
      <trkpt lat="44.27501" lon="5.78299">
        <ele>592</ele>
        <time>2019-03-27T13:22:20Z</time>
      </trkpt>
      <trkpt lat="44.27507" lon="5.78296">
        <ele>592</ele>
        <time>2019-03-27T13:22:21Z</time>
      </trkpt>
      <trkpt lat="44.27512" lon="5.78293">
        <ele>592</ele>
        <time>2019-03-27T13:22:22Z</time>
      </trkpt>
      <trkpt lat="44.27519" lon="5.7829">
        <ele>592</ele>
        <time>2019-03-27T13:22:23Z</time>
      </trkpt>
      <trkpt lat="44.27525" lon="5.78286">
        <ele>592</ele>
        <time>2019-03-27T13:22:24Z</time>
      </trkpt>
      <trkpt lat="44.27532" lon="5.78282">
        <ele>592</ele>
        <time>2019-03-27T13:22:25Z</time>
      </trkpt>
      <trkpt lat="44.27538" lon="5.78278">
        <ele>592</ele>
        <time>2019-03-27T13:22:26Z</time>
      </trkpt>
      <trkpt lat="44.27543" lon="5.78273">
        <ele>592</ele>
        <time>2019-03-27T13:22:27Z</time>
      </trkpt>
      <trkpt lat="44.27547" lon="5.78267">
        <ele>592</ele>
        <time>2019-03-27T13:22:28Z</time>
      </trkpt>
      <trkpt lat="44.27551" lon="5.7826">
        <ele>592</ele>
        <time>2019-03-27T13:22:29Z</time>
      </trkpt>
      <trkpt lat="44.27553" lon="5.78253">
        <ele>592</ele>
        <time>2019-03-27T13:22:30Z</time>
      </trkpt>
      <trkpt lat="44.27554" lon="5.78244">
        <ele>591</ele>
        <time>2019-03-27T13:22:31Z</time>
      </trkpt>
      <trkpt lat="44.27555" lon="5.78236">
        <ele>591</ele>
        <time>2019-03-27T13:22:32Z</time>
      </trkpt>
      <trkpt lat="44.27555" lon="5.78228">
        <ele>591</ele>
        <time>2019-03-27T13:22:33Z</time>
      </trkpt>
      <trkpt lat="44.27555" lon="5.7822">
        <ele>590</ele>
        <time>2019-03-27T13:22:34Z</time>
      </trkpt>
      <trkpt lat="44.27554" lon="5.78211">
        <ele>590</ele>
        <time>2019-03-27T13:22:35Z</time>
      </trkpt>
      <trkpt lat="44.27552" lon="5.78204">
        <ele>590</ele>
        <time>2019-03-27T13:22:36Z</time>
      </trkpt>
      <trkpt lat="44.27548" lon="5.78194">
        <ele>590</ele>
        <time>2019-03-27T13:22:37Z</time>
      </trkpt>
      <trkpt lat="44.27545" lon="5.78187">
        <ele>590</ele>
        <time>2019-03-27T13:22:38Z</time>
      </trkpt>
      <trkpt lat="44.27542" lon="5.7818">
        <ele>590</ele>
        <time>2019-03-27T13:22:39Z</time>
      </trkpt>
      <trkpt lat="44.27538" lon="5.78173">
        <ele>590</ele>
        <time>2019-03-27T13:22:40Z</time>
      </trkpt>
      <trkpt lat="44.27533" lon="5.78167">
        <ele>590</ele>
        <time>2019-03-27T13:22:41Z</time>
      </trkpt>
      <trkpt lat="44.27529" lon="5.7816">
        <ele>590</ele>
        <time>2019-03-27T13:22:42Z</time>
      </trkpt>
      <trkpt lat="44.27524" lon="5.78155">
        <ele>590</ele>
        <time>2019-03-27T13:22:43Z</time>
      </trkpt>
      <trkpt lat="44.27519" lon="5.78149">
        <ele>590</ele>
        <time>2019-03-27T13:22:44Z</time>
      </trkpt>
      <trkpt lat="44.27514" lon="5.78143">
        <ele>590</ele>
        <time>2019-03-27T13:22:45Z</time>
      </trkpt>
      <trkpt lat="44.2751" lon="5.78137">
        <ele>590</ele>
        <time>2019-03-27T13:22:46Z</time>
      </trkpt>
      <trkpt lat="44.27505" lon="5.78132">
        <ele>590</ele>
        <time>2019-03-27T13:22:47Z</time>
      </trkpt>
      <trkpt lat="44.275" lon="5.78126">
        <ele>590</ele>
        <time>2019-03-27T13:22:48Z</time>
      </trkpt>
      <trkpt lat="44.27495" lon="5.78121">
        <ele>590</ele>
        <time>2019-03-27T13:22:49Z</time>
      </trkpt>
      <trkpt lat="44.2749" lon="5.78115">
        <ele>590</ele>
        <time>2019-03-27T13:22:50Z</time>
      </trkpt>
      <trkpt lat="44.27485" lon="5.7811">
        <ele>590</ele>
        <time>2019-03-27T13:22:51Z</time>
      </trkpt>
      <trkpt lat="44.2748" lon="5.78104">
        <ele>590</ele>
        <time>2019-03-27T13:22:52Z</time>
      </trkpt>
      <trkpt lat="44.27475" lon="5.78098">
        <ele>590</ele>
        <time>2019-03-27T13:22:53Z</time>
      </trkpt>
      <trkpt lat="44.2747" lon="5.78093">
        <ele>590</ele>
        <time>2019-03-27T13:22:54Z</time>
      </trkpt>
      <trkpt lat="44.27465" lon="5.78087">
        <ele>590</ele>
        <time>2019-03-27T13:22:55Z</time>
      </trkpt>
      <trkpt lat="44.2746" lon="5.78082">
        <ele>590</ele>
        <time>2019-03-27T13:22:56Z</time>
      </trkpt>
      <trkpt lat="44.27456" lon="5.78077">
        <ele>591</ele>
        <time>2019-03-27T13:22:57Z</time>
      </trkpt>
      <trkpt lat="44.27451" lon="5.78071">
        <ele>591</ele>
        <time>2019-03-27T13:22:58Z</time>
      </trkpt>
      <trkpt lat="44.27446" lon="5.78066">
        <ele>591</ele>
        <time>2019-03-27T13:22:59Z</time>
      </trkpt>
      <trkpt lat="44.27441" lon="5.7806">
        <ele>591</ele>
        <time>2019-03-27T13:23:00Z</time>
      </trkpt>
      <trkpt lat="44.27436" lon="5.78055">
        <ele>591</ele>
        <time>2019-03-27T13:23:01Z</time>
      </trkpt>
      <trkpt lat="44.27432" lon="5.78049">
        <ele>592</ele>
        <time>2019-03-27T13:23:02Z</time>
      </trkpt>
      <trkpt lat="44.27428" lon="5.78043">
        <ele>592</ele>
        <time>2019-03-27T13:23:03Z</time>
      </trkpt>
      <trkpt lat="44.27424" lon="5.78037">
        <ele>592</ele>
        <time>2019-03-27T13:23:04Z</time>
      </trkpt>
      <trkpt lat="44.2742" lon="5.7803">
        <ele>592</ele>
        <time>2019-03-27T13:23:05Z</time>
      </trkpt>
      <trkpt lat="44.27417" lon="5.78022">
        <ele>592</ele>
        <time>2019-03-27T13:23:06Z</time>
      </trkpt>
      <trkpt lat="44.27414" lon="5.78014">
        <ele>592</ele>
        <time>2019-03-27T13:23:07Z</time>
      </trkpt>
      <trkpt lat="44.27412" lon="5.78006">
        <ele>592</ele>
        <time>2019-03-27T13:23:08Z</time>
      </trkpt>
      <trkpt lat="44.27411" lon="5.77997">
        <ele>592</ele>
        <time>2019-03-27T13:23:09Z</time>
      </trkpt>
      <trkpt lat="44.2741" lon="5.77989">
        <ele>592</ele>
        <time>2019-03-27T13:23:10Z</time>
      </trkpt>
      <trkpt lat="44.2741" lon="5.77981">
        <ele>592</ele>
        <time>2019-03-27T13:23:11Z</time>
      </trkpt>
      <trkpt lat="44.2741" lon="5.77972">
        <ele>592</ele>
        <time>2019-03-27T13:23:12Z</time>
      </trkpt>
      <trkpt lat="44.27411" lon="5.77963">
        <ele>592</ele>
        <time>2019-03-27T13:23:13Z</time>
      </trkpt>
      <trkpt lat="44.27412" lon="5.77954">
        <ele>592</ele>
        <time>2019-03-27T13:23:14Z</time>
      </trkpt>
      <trkpt lat="44.27411" lon="5.77945">
        <ele>592</ele>
        <time>2019-03-27T13:23:15Z</time>
      </trkpt>
      <trkpt lat="44.2741" lon="5.77936">
        <ele>592</ele>
        <time>2019-03-27T13:23:16Z</time>
      </trkpt>
      <trkpt lat="44.27407" lon="5.77928">
        <ele>592</ele>
        <time>2019-03-27T13:23:17Z</time>
      </trkpt>
      <trkpt lat="44.27404" lon="5.77919">
        <ele>592</ele>
        <time>2019-03-27T13:23:18Z</time>
      </trkpt>
      <trkpt lat="44.274" lon="5.77912">
        <ele>592</ele>
        <time>2019-03-27T13:23:19Z</time>
      </trkpt>
      <trkpt lat="44.27396" lon="5.77904">
        <ele>592</ele>
        <time>2019-03-27T13:23:20Z</time>
      </trkpt>
      <trkpt lat="44.27392" lon="5.77898">
        <ele>592</ele>
        <time>2019-03-27T13:23:21Z</time>
      </trkpt>
      <trkpt lat="44.27388" lon="5.77891">
        <ele>592</ele>
        <time>2019-03-27T13:23:22Z</time>
      </trkpt>
      <trkpt lat="44.27383" lon="5.77885">
        <ele>592</ele>
        <time>2019-03-27T13:23:23Z</time>
      </trkpt>
      <trkpt lat="44.27378" lon="5.77879">
        <ele>592</ele>
        <time>2019-03-27T13:23:24Z</time>
      </trkpt>
      <trkpt lat="44.27374" lon="5.77873">
        <ele>592</ele>
        <time>2019-03-27T13:23:25Z</time>
      </trkpt>
      <trkpt lat="44.27369" lon="5.77867">
        <ele>592</ele>
        <time>2019-03-27T13:23:26Z</time>
      </trkpt>
      <trkpt lat="44.27364" lon="5.77861">
        <ele>592</ele>
        <time>2019-03-27T13:23:27Z</time>
      </trkpt>
      <trkpt lat="44.27359" lon="5.77855">
        <ele>592</ele>
        <time>2019-03-27T13:23:28Z</time>
      </trkpt>
      <trkpt lat="44.27354" lon="5.77849">
        <ele>592</ele>
        <time>2019-03-27T13:23:29Z</time>
      </trkpt>
      <trkpt lat="44.27349" lon="5.77844">
        <ele>592</ele>
        <time>2019-03-27T13:23:30Z</time>
      </trkpt>
      <trkpt lat="44.27344" lon="5.77839">
        <ele>592</ele>
        <time>2019-03-27T13:23:31Z</time>
      </trkpt>
      <trkpt lat="44.27339" lon="5.77833">
        <ele>592</ele>
        <time>2019-03-27T13:23:32Z</time>
      </trkpt>
      <trkpt lat="44.27334" lon="5.77829">
        <ele>592</ele>
        <time>2019-03-27T13:23:33Z</time>
      </trkpt>
      <trkpt lat="44.27328" lon="5.77824">
        <ele>592</ele>
        <time>2019-03-27T13:23:34Z</time>
      </trkpt>
      <trkpt lat="44.27322" lon="5.77819">
        <ele>592</ele>
        <time>2019-03-27T13:23:35Z</time>
      </trkpt>
      <trkpt lat="44.27317" lon="5.77815">
        <ele>592</ele>
        <time>2019-03-27T13:23:36Z</time>
      </trkpt>
      <trkpt lat="44.27312" lon="5.7781">
        <ele>592</ele>
        <time>2019-03-27T13:23:37Z</time>
      </trkpt>
      <trkpt lat="44.27307" lon="5.77805">
        <ele>593</ele>
        <time>2019-03-27T13:23:38Z</time>
      </trkpt>
      <trkpt lat="44.27303" lon="5.77799">
        <ele>593</ele>
        <time>2019-03-27T13:23:39Z</time>
      </trkpt>
      <trkpt lat="44.27299" lon="5.77792">
        <ele>593</ele>
        <time>2019-03-27T13:23:40Z</time>
      </trkpt>
      <trkpt lat="44.27297" lon="5.77783">
        <ele>593</ele>
        <time>2019-03-27T13:23:41Z</time>
      </trkpt>
      <trkpt lat="44.27296" lon="5.77774">
        <ele>593</ele>
        <time>2019-03-27T13:23:42Z</time>
      </trkpt>
      <trkpt lat="44.27297" lon="5.77765">
        <ele>593</ele>
        <time>2019-03-27T13:23:43Z</time>
      </trkpt>
      <trkpt lat="44.27297" lon="5.77756">
        <ele>593</ele>
        <time>2019-03-27T13:23:44Z</time>
      </trkpt>
      <trkpt lat="44.27296" lon="5.77749">
        <ele>593</ele>
        <time>2019-03-27T13:23:45Z</time>
      </trkpt>
      <trkpt lat="44.27293" lon="5.77742">
        <ele>593</ele>
        <time>2019-03-27T13:23:46Z</time>
      </trkpt>
      <trkpt lat="44.2729" lon="5.77737">
        <ele>593</ele>
        <time>2019-03-27T13:23:47Z</time>
      </trkpt>
      <trkpt lat="44.27285" lon="5.77734">
        <ele>593</ele>
        <time>2019-03-27T13:23:48Z</time>
      </trkpt>
      <trkpt lat="44.2728" lon="5.77732">
        <ele>594</ele>
        <time>2019-03-27T13:23:49Z</time>
      </trkpt>
      <trkpt lat="44.27275" lon="5.77731">
        <ele>594</ele>
        <time>2019-03-27T13:23:50Z</time>
      </trkpt>
      <trkpt lat="44.2727" lon="5.77731">
        <ele>594</ele>
        <time>2019-03-27T13:23:51Z</time>
      </trkpt>
      <trkpt lat="44.27265" lon="5.77732">
        <ele>594</ele>
        <time>2019-03-27T13:23:52Z</time>
      </trkpt>
      <trkpt lat="44.2726" lon="5.77733">
        <ele>594</ele>
        <time>2019-03-27T13:23:53Z</time>
      </trkpt>
      <trkpt lat="44.27254" lon="5.77734">
        <ele>594</ele>
        <time>2019-03-27T13:23:54Z</time>
      </trkpt>
      <trkpt lat="44.2725" lon="5.77736">
        <ele>594</ele>
        <time>2019-03-27T13:23:55Z</time>
      </trkpt>
      <trkpt lat="44.27244" lon="5.77739">
        <ele>594</ele>
        <time>2019-03-27T13:23:56Z</time>
      </trkpt>
      <trkpt lat="44.27239" lon="5.77741">
        <ele>594</ele>
        <time>2019-03-27T13:23:57Z</time>
      </trkpt>
      <trkpt lat="44.27234" lon="5.77743">
        <ele>594</ele>
        <time>2019-03-27T13:23:58Z</time>
      </trkpt>
      <trkpt lat="44.27228" lon="5.77744">
        <ele>594</ele>
        <time>2019-03-27T13:23:59Z</time>
      </trkpt>
      <trkpt lat="44.27223" lon="5.77744">
        <ele>594</ele>
        <time>2019-03-27T13:24:00Z</time>
      </trkpt>
      <trkpt lat="44.27217" lon="5.77743">
        <ele>594</ele>
        <time>2019-03-27T13:24:01Z</time>
      </trkpt>
      <trkpt lat="44.27212" lon="5.7774">
        <ele>594</ele>
        <time>2019-03-27T13:24:02Z</time>
      </trkpt>
      <trkpt lat="44.27207" lon="5.77737">
        <ele>594</ele>
        <time>2019-03-27T13:24:03Z</time>
      </trkpt>
      <trkpt lat="44.27202" lon="5.77734">
        <ele>594</ele>
        <time>2019-03-27T13:24:04Z</time>
      </trkpt>
      <trkpt lat="44.27197" lon="5.77732">
        <ele>594</ele>
        <time>2019-03-27T13:24:05Z</time>
      </trkpt>
      <trkpt lat="44.27193" lon="5.7773">
        <ele>594</ele>
        <time>2019-03-27T13:24:06Z</time>
      </trkpt>
      <trkpt lat="44.27188" lon="5.77727">
        <ele>594</ele>
        <time>2019-03-27T13:24:07Z</time>
      </trkpt>
      <trkpt lat="44.27183" lon="5.77723">
        <ele>595</ele>
        <time>2019-03-27T13:24:08Z</time>
      </trkpt>
      <trkpt lat="44.27178" lon="5.77719">
        <ele>595</ele>
        <time>2019-03-27T13:24:09Z</time>
      </trkpt>
      <trkpt lat="44.27174" lon="5.77716">
        <ele>595</ele>
        <time>2019-03-27T13:24:10Z</time>
      </trkpt>
      <trkpt lat="44.27169" lon="5.77713">
        <ele>596</ele>
        <time>2019-03-27T13:24:11Z</time>
      </trkpt>
      <trkpt lat="44.27164" lon="5.7771">
        <ele>596</ele>
        <time>2019-03-27T13:24:12Z</time>
      </trkpt>
      <trkpt lat="44.2716" lon="5.77706">
        <ele>596</ele>
        <time>2019-03-27T13:24:13Z</time>
      </trkpt>
      <trkpt lat="44.27155" lon="5.77703">
        <ele>596</ele>
        <time>2019-03-27T13:24:14Z</time>
      </trkpt>
      <trkpt lat="44.2715" lon="5.77699">
        <ele>596</ele>
        <time>2019-03-27T13:24:15Z</time>
      </trkpt>
      <trkpt lat="44.27146" lon="5.77696">
        <ele>596</ele>
        <time>2019-03-27T13:24:16Z</time>
      </trkpt>
      <trkpt lat="44.27142" lon="5.77692">
        <ele>596</ele>
        <time>2019-03-27T13:24:17Z</time>
      </trkpt>
      <trkpt lat="44.27137" lon="5.77687">
        <ele>596</ele>
        <time>2019-03-27T13:24:18Z</time>
      </trkpt>
      <trkpt lat="44.27134" lon="5.77682">
        <ele>597</ele>
        <time>2019-03-27T13:24:19Z</time>
      </trkpt>
      <trkpt lat="44.27131" lon="5.77676">
        <ele>597</ele>
        <time>2019-03-27T13:24:20Z</time>
      </trkpt>
      <trkpt lat="44.27128" lon="5.77669">
        <ele>597</ele>
        <time>2019-03-27T13:24:21Z</time>
      </trkpt>
      <trkpt lat="44.27126" lon="5.77662">
        <ele>597</ele>
        <time>2019-03-27T13:24:22Z</time>
      </trkpt>
      <trkpt lat="44.27124" lon="5.77655">
        <ele>597</ele>
        <time>2019-03-27T13:24:23Z</time>
      </trkpt>
      <trkpt lat="44.27123" lon="5.77647">
        <ele>597</ele>
        <time>2019-03-27T13:24:24Z</time>
      </trkpt>
      <trkpt lat="44.27122" lon="5.7764">
        <ele>597</ele>
        <time>2019-03-27T13:24:25Z</time>
      </trkpt>
      <trkpt lat="44.27121" lon="5.77632">
        <ele>597</ele>
        <time>2019-03-27T13:24:26Z</time>
      </trkpt>
      <trkpt lat="44.2712" lon="5.77625">
        <ele>598</ele>
        <time>2019-03-27T13:24:27Z</time>
      </trkpt>
      <trkpt lat="44.27119" lon="5.77618">
        <ele>598</ele>
        <time>2019-03-27T13:24:28Z</time>
      </trkpt>
      <trkpt lat="44.27119" lon="5.7761">
        <ele>598</ele>
        <time>2019-03-27T13:24:29Z</time>
      </trkpt>
      <trkpt lat="44.27118" lon="5.77602">
        <ele>598</ele>
        <time>2019-03-27T13:24:30Z</time>
      </trkpt>
      <trkpt lat="44.27117" lon="5.77595">
        <ele>598</ele>
        <time>2019-03-27T13:24:31Z</time>
      </trkpt>
      <trkpt lat="44.27117" lon="5.77587">
        <ele>598</ele>
        <time>2019-03-27T13:24:32Z</time>
      </trkpt>
      <trkpt lat="44.27117" lon="5.77579">
        <ele>598</ele>
        <time>2019-03-27T13:24:33Z</time>
      </trkpt>
      <trkpt lat="44.27117" lon="5.77572">
        <ele>598</ele>
        <time>2019-03-27T13:24:34Z</time>
      </trkpt>
      <trkpt lat="44.27116" lon="5.77565">
        <ele>598</ele>
        <time>2019-03-27T13:24:35Z</time>
      </trkpt>
      <trkpt lat="44.27114" lon="5.77557">
        <ele>598</ele>
        <time>2019-03-27T13:24:36Z</time>
      </trkpt>
      <trkpt lat="44.27109" lon="5.7755">
        <ele>598</ele>
        <time>2019-03-27T13:24:37Z</time>
      </trkpt>
      <trkpt lat="44.27106" lon="5.77543">
        <ele>598</ele>
        <time>2019-03-27T13:24:38Z</time>
      </trkpt>
      <trkpt lat="44.27103" lon="5.77538">
        <ele>599</ele>
        <time>2019-03-27T13:24:39Z</time>
      </trkpt>
      <trkpt lat="44.271" lon="5.77532">
        <ele>599</ele>
        <time>2019-03-27T13:24:40Z</time>
      </trkpt>
      <trkpt lat="44.27096" lon="5.77526">
        <ele>600</ele>
        <time>2019-03-27T13:24:41Z</time>
      </trkpt>
      <trkpt lat="44.27093" lon="5.7752">
        <ele>601</ele>
        <time>2019-03-27T13:24:42Z</time>
      </trkpt>
      <trkpt lat="44.2709" lon="5.77514">
        <ele>601</ele>
        <time>2019-03-27T13:24:43Z</time>
      </trkpt>
      <trkpt lat="44.27087" lon="5.77508">
        <ele>601</ele>
        <time>2019-03-27T13:24:44Z</time>
      </trkpt>
      <trkpt lat="44.27084" lon="5.77503">
        <ele>602</ele>
        <time>2019-03-27T13:24:45Z</time>
      </trkpt>
      <trkpt lat="44.27081" lon="5.77498">
        <ele>602</ele>
        <time>2019-03-27T13:24:46Z</time>
      </trkpt>
      <trkpt lat="44.27077" lon="5.77493">
        <ele>602</ele>
        <time>2019-03-27T13:24:47Z</time>
      </trkpt>
      <trkpt lat="44.27072" lon="5.77489">
        <ele>602</ele>
        <time>2019-03-27T13:24:48Z</time>
      </trkpt>
      <trkpt lat="44.27063" lon="5.77485">
        <ele>602</ele>
        <time>2019-03-27T13:24:50Z</time>
      </trkpt>
      <trkpt lat="44.27058" lon="5.77484">
        <ele>602</ele>
        <time>2019-03-27T13:24:51Z</time>
      </trkpt>
      <trkpt lat="44.27053" lon="5.77483">
        <ele>602</ele>
        <time>2019-03-27T13:24:52Z</time>
      </trkpt>
      <trkpt lat="44.27048" lon="5.77481">
        <ele>603</ele>
        <time>2019-03-27T13:24:53Z</time>
      </trkpt>
      <trkpt lat="44.27042" lon="5.77481">
        <ele>603</ele>
        <time>2019-03-27T13:24:54Z</time>
      </trkpt>
      <trkpt lat="44.27038" lon="5.77477">
        <ele>603</ele>
        <time>2019-03-27T13:24:55Z</time>
      </trkpt>
      <trkpt lat="44.27036" lon="5.7747">
        <ele>603</ele>
        <time>2019-03-27T13:24:56Z</time>
      </trkpt>
      <trkpt lat="44.27033" lon="5.77462">
        <ele>603</ele>
        <time>2019-03-27T13:24:57Z</time>
      </trkpt>
      <trkpt lat="44.27029" lon="5.77457">
        <ele>603</ele>
        <time>2019-03-27T13:24:58Z</time>
      </trkpt>
      <trkpt lat="44.27025" lon="5.77452">
        <ele>603</ele>
        <time>2019-03-27T13:24:59Z</time>
      </trkpt>
      <trkpt lat="44.2702" lon="5.77447">
        <ele>603</ele>
        <time>2019-03-27T13:25:00Z</time>
      </trkpt>
      <trkpt lat="44.27015" lon="5.77443">
        <ele>603</ele>
        <time>2019-03-27T13:25:01Z</time>
      </trkpt>
      <trkpt lat="44.2701" lon="5.7744">
        <ele>603</ele>
        <time>2019-03-27T13:25:02Z</time>
      </trkpt>
      <trkpt lat="44.27004" lon="5.77437">
        <ele>603</ele>
        <time>2019-03-27T13:25:03Z</time>
      </trkpt>
      <trkpt lat="44.26999" lon="5.77434">
        <ele>603</ele>
        <time>2019-03-27T13:25:04Z</time>
      </trkpt>
      <trkpt lat="44.26993" lon="5.77432">
        <ele>603</ele>
        <time>2019-03-27T13:25:05Z</time>
      </trkpt>
      <trkpt lat="44.26987" lon="5.77431">
        <ele>603</ele>
        <time>2019-03-27T13:25:06Z</time>
      </trkpt>
      <trkpt lat="44.26982" lon="5.77432">
        <ele>603</ele>
        <time>2019-03-27T13:25:07Z</time>
      </trkpt>
      <trkpt lat="44.26976" lon="5.77434">
        <ele>603</ele>
        <time>2019-03-27T13:25:08Z</time>
      </trkpt>
      <trkpt lat="44.26971" lon="5.77437">
        <ele>603</ele>
        <time>2019-03-27T13:25:09Z</time>
      </trkpt>
      <trkpt lat="44.26965" lon="5.77441">
        <ele>603</ele>
        <time>2019-03-27T13:25:10Z</time>
      </trkpt>
      <trkpt lat="44.2696" lon="5.77444">
        <ele>603</ele>
        <time>2019-03-27T13:25:11Z</time>
      </trkpt>
      <trkpt lat="44.26954" lon="5.77447">
        <ele>603</ele>
        <time>2019-03-27T13:25:12Z</time>
      </trkpt>
      <trkpt lat="44.26949" lon="5.77449">
        <ele>603</ele>
        <time>2019-03-27T13:25:13Z</time>
      </trkpt>
      <trkpt lat="44.26942" lon="5.77451">
        <ele>603</ele>
        <time>2019-03-27T13:25:14Z</time>
      </trkpt>
      <trkpt lat="44.26936" lon="5.77454">
        <ele>603</ele>
        <time>2019-03-27T13:25:15Z</time>
      </trkpt>
      <trkpt lat="44.2693" lon="5.77457">
        <ele>603</ele>
        <time>2019-03-27T13:25:16Z</time>
      </trkpt>
      <trkpt lat="44.26923" lon="5.77461">
        <ele>603</ele>
        <time>2019-03-27T13:25:17Z</time>
      </trkpt>
      <trkpt lat="44.26917" lon="5.77465">
        <ele>603</ele>
        <time>2019-03-27T13:25:18Z</time>
      </trkpt>
      <trkpt lat="44.2691" lon="5.77469">
        <ele>603</ele>
        <time>2019-03-27T13:25:19Z</time>
      </trkpt>
      <trkpt lat="44.26904" lon="5.77474">
        <ele>603</ele>
        <time>2019-03-27T13:25:20Z</time>
      </trkpt>
      <trkpt lat="44.26898" lon="5.77479">
        <ele>603</ele>
        <time>2019-03-27T13:25:21Z</time>
      </trkpt>
      <trkpt lat="44.26892" lon="5.77484">
        <ele>603</ele>
        <time>2019-03-27T13:25:22Z</time>
      </trkpt>
      <trkpt lat="44.26887" lon="5.77488">
        <ele>603</ele>
        <time>2019-03-27T13:25:23Z</time>
      </trkpt>
      <trkpt lat="44.26881" lon="5.77493">
        <ele>603</ele>
        <time>2019-03-27T13:25:24Z</time>
      </trkpt>
      <trkpt lat="44.26875" lon="5.77497">
        <ele>603</ele>
        <time>2019-03-27T13:25:25Z</time>
      </trkpt>
      <trkpt lat="44.2687" lon="5.77502">
        <ele>603</ele>
        <time>2019-03-27T13:25:26Z</time>
      </trkpt>
      <trkpt lat="44.26864" lon="5.77506">
        <ele>603</ele>
        <time>2019-03-27T13:25:27Z</time>
      </trkpt>
      <trkpt lat="44.26857" lon="5.7751">
        <ele>603</ele>
        <time>2019-03-27T13:25:28Z</time>
      </trkpt>
      <trkpt lat="44.26851" lon="5.77515">
        <ele>603</ele>
        <time>2019-03-27T13:25:29Z</time>
      </trkpt>
      <trkpt lat="44.26845" lon="5.77519">
        <ele>603</ele>
        <time>2019-03-27T13:25:30Z</time>
      </trkpt>
      <trkpt lat="44.26839" lon="5.77522">
        <ele>603</ele>
        <time>2019-03-27T13:25:31Z</time>
      </trkpt>
      <trkpt lat="44.26832" lon="5.77526">
        <ele>603</ele>
        <time>2019-03-27T13:25:32Z</time>
      </trkpt>
      <trkpt lat="44.26825" lon="5.77529">
        <ele>603</ele>
        <time>2019-03-27T13:25:33Z</time>
      </trkpt>
      <trkpt lat="44.26819" lon="5.77533">
        <ele>603</ele>
        <time>2019-03-27T13:25:34Z</time>
      </trkpt>
      <trkpt lat="44.26813" lon="5.77536">
        <ele>602</ele>
        <time>2019-03-27T13:25:35Z</time>
      </trkpt>
      <trkpt lat="44.26806" lon="5.7754">
        <ele>601</ele>
        <time>2019-03-27T13:25:36Z</time>
      </trkpt>
      <trkpt lat="44.268" lon="5.77543">
        <ele>601</ele>
        <time>2019-03-27T13:25:37Z</time>
      </trkpt>
      <trkpt lat="44.26793" lon="5.77546">
        <ele>601</ele>
        <time>2019-03-27T13:25:38Z</time>
      </trkpt>
      <trkpt lat="44.26786" lon="5.77547">
        <ele>601</ele>
        <time>2019-03-27T13:25:39Z</time>
      </trkpt>
      <trkpt lat="44.2678" lon="5.77547">
        <ele>600</ele>
        <time>2019-03-27T13:25:40Z</time>
      </trkpt>
      <trkpt lat="44.26773" lon="5.77544">
        <ele>600</ele>
        <time>2019-03-27T13:25:41Z</time>
      </trkpt>
      <trkpt lat="44.26751" lon="5.77518">
        <ele>600</ele>
        <time>2019-03-27T13:25:45Z</time>
      </trkpt>
      <trkpt lat="44.26749" lon="5.77512">
        <ele>600</ele>
        <time>2019-03-27T13:25:46Z</time>
      </trkpt>
      <trkpt lat="44.26709" lon="5.77436">
        <ele>600</ele>
        <time>2019-03-27T13:25:56Z</time>
      </trkpt>
      <trkpt lat="44.26704" lon="5.77428">
        <ele>600</ele>
        <time>2019-03-27T13:25:57Z</time>
      </trkpt>
      <trkpt lat="44.26701" lon="5.7742">
        <ele>600</ele>
        <time>2019-03-27T13:25:58Z</time>
      </trkpt>
      <trkpt lat="44.26698" lon="5.77412">
        <ele>600</ele>
        <time>2019-03-27T13:25:59Z</time>
      </trkpt>
      <trkpt lat="44.26694" lon="5.77405">
        <ele>600</ele>
        <time>2019-03-27T13:26:00Z</time>
      </trkpt>
      <trkpt lat="44.26676" lon="5.77375">
        <ele>600</ele>
        <time>2019-03-27T13:26:04Z</time>
      </trkpt>
      <trkpt lat="44.26674" lon="5.77366">
        <ele>600</ele>
        <time>2019-03-27T13:26:05Z</time>
      </trkpt>
      <trkpt lat="44.26672" lon="5.77357">
        <ele>600</ele>
        <time>2019-03-27T13:26:06Z</time>
      </trkpt>
      <trkpt lat="44.2667" lon="5.77349">
        <ele>600</ele>
        <time>2019-03-27T13:26:07Z</time>
      </trkpt>
      <trkpt lat="44.26669" lon="5.7734">
        <ele>600</ele>
        <time>2019-03-27T13:26:08Z</time>
      </trkpt>
      <trkpt lat="44.26666" lon="5.77332">
        <ele>600</ele>
        <time>2019-03-27T13:26:09Z</time>
      </trkpt>
      <trkpt lat="44.26609" lon="5.77264">
        <ele>600</ele>
        <time>2019-03-27T13:26:20Z</time>
      </trkpt>
      <trkpt lat="44.26605" lon="5.77257">
        <ele>600</ele>
        <time>2019-03-27T13:26:21Z</time>
      </trkpt>
      <trkpt lat="44.266" lon="5.7725">
        <ele>600</ele>
        <time>2019-03-27T13:26:22Z</time>
      </trkpt>
      <trkpt lat="44.26596" lon="5.77242">
        <ele>601</ele>
        <time>2019-03-27T13:26:23Z</time>
      </trkpt>
      <trkpt lat="44.26595" lon="5.77234">
        <ele>602</ele>
        <time>2019-03-27T13:26:24Z</time>
      </trkpt>
      <trkpt lat="44.26595" lon="5.77225">
        <ele>602</ele>
        <time>2019-03-27T13:26:25Z</time>
      </trkpt>
      <trkpt lat="44.26596" lon="5.77218">
        <ele>602</ele>
        <time>2019-03-27T13:26:26Z</time>
      </trkpt>
      <trkpt lat="44.26596" lon="5.77211">
        <ele>603</ele>
        <time>2019-03-27T13:26:27Z</time>
      </trkpt>
      <trkpt lat="44.26599" lon="5.77204">
        <ele>604</ele>
        <time>2019-03-27T13:26:28Z</time>
      </trkpt>
      <trkpt lat="44.26605" lon="5.77198">
        <ele>605</ele>
        <time>2019-03-27T13:26:29Z</time>
      </trkpt>
      <trkpt lat="44.26611" lon="5.77193">
        <ele>606</ele>
        <time>2019-03-27T13:26:30Z</time>
      </trkpt>
      <trkpt lat="44.26707" lon="5.77039">
        <ele>607</ele>
        <time>2019-03-27T13:26:52Z</time>
      </trkpt>
      <trkpt lat="44.26708" lon="5.7703">
        <ele>608</ele>
        <time>2019-03-27T13:26:53Z</time>
      </trkpt>
      <trkpt lat="44.26706" lon="5.7702">
        <ele>609</ele>
        <time>2019-03-27T13:26:54Z</time>
      </trkpt>
      <trkpt lat="44.26707" lon="5.77011">
        <ele>610</ele>
        <time>2019-03-27T13:26:55Z</time>
      </trkpt>
      <trkpt lat="44.26707" lon="5.77001">
        <ele>611</ele>
        <time>2019-03-27T13:26:56Z</time>
      </trkpt>
      <trkpt lat="44.26705" lon="5.76992">
        <ele>612</ele>
        <time>2019-03-27T13:26:57Z</time>
      </trkpt>
      <trkpt lat="44.26651" lon="5.76924">
        <ele>613</ele>
        <time>2019-03-27T13:27:08Z</time>
      </trkpt>
      <trkpt lat="44.26648" lon="5.76923">
        <ele>613</ele>
        <time>2019-03-27T13:27:09Z</time>
      </trkpt>
      <trkpt lat="44.26642" lon="5.7692">
        <ele>613</ele>
        <time>2019-03-27T13:27:10Z</time>
      </trkpt>
      <trkpt lat="44.26636" lon="5.76918">
        <ele>613</ele>
        <time>2019-03-27T13:27:11Z</time>
      </trkpt>
      <trkpt lat="44.26629" lon="5.76917">
        <ele>613</ele>
        <time>2019-03-27T13:27:12Z</time>
      </trkpt>
      <trkpt lat="44.26623" lon="5.76915">
        <ele>612</ele>
        <time>2019-03-27T13:27:13Z</time>
      </trkpt>
      <trkpt lat="44.26616" lon="5.76914">
        <ele>612</ele>
        <time>2019-03-27T13:27:14Z</time>
      </trkpt>
      <trkpt lat="44.26609" lon="5.76913">
        <ele>612</ele>
        <time>2019-03-27T13:27:15Z</time>
      </trkpt>
      <trkpt lat="44.26582" lon="5.76914">
        <ele>612</ele>
        <time>2019-03-27T13:27:19Z</time>
      </trkpt>
      <trkpt lat="44.26574" lon="5.76914">
        <ele>612</ele>
        <time>2019-03-27T13:27:20Z</time>
      </trkpt>
      <trkpt lat="44.26568" lon="5.76913">
        <ele>612</ele>
        <time>2019-03-27T13:27:21Z</time>
      </trkpt>
      <trkpt lat="44.26561" lon="5.76912">
        <ele>612</ele>
        <time>2019-03-27T13:27:22Z</time>
      </trkpt>
      <trkpt lat="44.26453" lon="5.7691">
        <ele>612</ele>
        <time>2019-03-27T13:27:39Z</time>
      </trkpt>
      <trkpt lat="44.26453" lon="5.76904">
        <ele>612</ele>
        <time>2019-03-27T13:27:40Z</time>
      </trkpt>
      <trkpt lat="44.26451" lon="5.76892">
        <ele>612</ele>
        <time>2019-03-27T13:27:41Z</time>
      </trkpt>
      <trkpt lat="44.26454" lon="5.76871">
        <ele>612</ele>
        <time>2019-03-27T13:27:43Z</time>
      </trkpt>
      <trkpt lat="44.26459" lon="5.76862">
        <ele>612</ele>
        <time>2019-03-27T13:27:44Z</time>
      </trkpt>
      <trkpt lat="44.26463" lon="5.76856">
        <ele>612</ele>
        <time>2019-03-27T13:27:45Z</time>
      </trkpt>
      <trkpt lat="44.26468" lon="5.76851">
        <ele>612</ele>
        <time>2019-03-27T13:27:46Z</time>
      </trkpt>
      <trkpt lat="44.26474" lon="5.76847">
        <ele>612</ele>
        <time>2019-03-27T13:27:47Z</time>
      </trkpt>
      <trkpt lat="44.2648" lon="5.76846">
        <ele>612</ele>
        <time>2019-03-27T13:27:48Z</time>
      </trkpt>
      <trkpt lat="44.26486" lon="5.76845">
        <ele>612</ele>
        <time>2019-03-27T13:27:49Z</time>
      </trkpt>
      <trkpt lat="44.26491" lon="5.76844">
        <ele>612</ele>
        <time>2019-03-27T13:27:50Z</time>
      </trkpt>
      <trkpt lat="44.26496" lon="5.76842">
        <ele>612</ele>
        <time>2019-03-27T13:27:51Z</time>
      </trkpt>
      <trkpt lat="44.26501" lon="5.7684">
        <ele>612</ele>
        <time>2019-03-27T13:27:52Z</time>
      </trkpt>
      <trkpt lat="44.26506" lon="5.76838">
        <ele>612</ele>
        <time>2019-03-27T13:27:53Z</time>
      </trkpt>
      <trkpt lat="44.2651" lon="5.76835">
        <ele>612</ele>
        <time>2019-03-27T13:27:54Z</time>
      </trkpt>
      <trkpt lat="44.26515" lon="5.76832">
        <ele>612</ele>
        <time>2019-03-27T13:27:55Z</time>
      </trkpt>
      <trkpt lat="44.26519" lon="5.76829">
        <ele>612</ele>
        <time>2019-03-27T13:27:56Z</time>
      </trkpt>
      <trkpt lat="44.26524" lon="5.76826">
        <ele>612</ele>
        <time>2019-03-27T13:27:57Z</time>
      </trkpt>
      <trkpt lat="44.26528" lon="5.76822">
        <ele>612</ele>
        <time>2019-03-27T13:27:58Z</time>
      </trkpt>
      <trkpt lat="44.26532" lon="5.76818">
        <ele>612</ele>
        <time>2019-03-27T13:27:59Z</time>
      </trkpt>
      <trkpt lat="44.26536" lon="5.76814">
        <ele>612</ele>
        <time>2019-03-27T13:28:00Z</time>
      </trkpt>
      <trkpt lat="44.2654" lon="5.76809">
        <ele>612</ele>
        <time>2019-03-27T13:28:01Z</time>
      </trkpt>
      <trkpt lat="44.26543" lon="5.76803">
        <ele>612</ele>
        <time>2019-03-27T13:28:02Z</time>
      </trkpt>
      <trkpt lat="44.26546" lon="5.76797">
        <ele>612</ele>
        <time>2019-03-27T13:28:03Z</time>
      </trkpt>
      <trkpt lat="44.26548" lon="5.76791">
        <ele>612</ele>
        <time>2019-03-27T13:28:04Z</time>
      </trkpt>
      <trkpt lat="44.26551" lon="5.76786">
        <ele>612</ele>
        <time>2019-03-27T13:28:05Z</time>
      </trkpt>
      <trkpt lat="44.26553" lon="5.7678">
        <ele>612</ele>
        <time>2019-03-27T13:28:06Z</time>
      </trkpt>
      <trkpt lat="44.26555" lon="5.76774">
        <ele>612</ele>
        <time>2019-03-27T13:28:07Z</time>
      </trkpt>
      <trkpt lat="44.26558" lon="5.76768">
        <ele>611</ele>
        <time>2019-03-27T13:28:08Z</time>
      </trkpt>
      <trkpt lat="44.2656" lon="5.76762">
        <ele>611</ele>
        <time>2019-03-27T13:28:09Z</time>
      </trkpt>
      <trkpt lat="44.26563" lon="5.76757">
        <ele>611</ele>
        <time>2019-03-27T13:28:10Z</time>
      </trkpt>
      <trkpt lat="44.26566" lon="5.76752">
        <ele>611</ele>
        <time>2019-03-27T13:28:11Z</time>
      </trkpt>
      <trkpt lat="44.26569" lon="5.76748">
        <ele>611</ele>
        <time>2019-03-27T13:28:12Z</time>
      </trkpt>
      <trkpt lat="44.26573" lon="5.76743">
        <ele>611</ele>
        <time>2019-03-27T13:28:13Z</time>
      </trkpt>
      <trkpt lat="44.26576" lon="5.76738">
        <ele>611</ele>
        <time>2019-03-27T13:28:14Z</time>
      </trkpt>
      <trkpt lat="44.2658" lon="5.76733">
        <ele>611</ele>
        <time>2019-03-27T13:28:15Z</time>
      </trkpt>
      <trkpt lat="44.26583" lon="5.76728">
        <ele>611</ele>
        <time>2019-03-27T13:28:16Z</time>
      </trkpt>
      <trkpt lat="44.26587" lon="5.76724">
        <ele>611</ele>
        <time>2019-03-27T13:28:17Z</time>
      </trkpt>
      <trkpt lat="44.2659" lon="5.7672">
        <ele>611</ele>
        <time>2019-03-27T13:28:18Z</time>
      </trkpt>
      <trkpt lat="44.26595" lon="5.76717">
        <ele>611</ele>
        <time>2019-03-27T13:28:19Z</time>
      </trkpt>
      <trkpt lat="44.26599" lon="5.76714">
        <ele>611</ele>
        <time>2019-03-27T13:28:20Z</time>
      </trkpt>
      <trkpt lat="44.26602" lon="5.76711">
        <ele>611</ele>
        <time>2019-03-27T13:28:21Z</time>
      </trkpt>
      <trkpt lat="44.26606" lon="5.76708">
        <ele>611</ele>
        <time>2019-03-27T13:28:22Z</time>
      </trkpt>
      <trkpt lat="44.26609" lon="5.76704">
        <ele>611</ele>
        <time>2019-03-27T13:28:23Z</time>
      </trkpt>
      <trkpt lat="44.26613" lon="5.76699">
        <ele>611</ele>
        <time>2019-03-27T13:28:24Z</time>
      </trkpt>
      <trkpt lat="44.26617" lon="5.76694">
        <ele>611</ele>
        <time>2019-03-27T13:28:25Z</time>
      </trkpt>
      <trkpt lat="44.26623" lon="5.76688">
        <ele>611</ele>
        <time>2019-03-27T13:28:26Z</time>
      </trkpt>
      <trkpt lat="44.26625" lon="5.76683">
        <ele>611</ele>
        <time>2019-03-27T13:28:27Z</time>
      </trkpt>
      <trkpt lat="44.26625" lon="5.76677">
        <ele>611</ele>
        <time>2019-03-27T13:28:28Z</time>
      </trkpt>
      <trkpt lat="44.26626" lon="5.76672">
        <ele>611</ele>
        <time>2019-03-27T13:28:29Z</time>
      </trkpt>
      <trkpt lat="44.26627" lon="5.76666">
        <ele>611</ele>
        <time>2019-03-27T13:28:30Z</time>
      </trkpt>
      <trkpt lat="44.26627" lon="5.76659">
        <ele>611</ele>
        <time>2019-03-27T13:28:31Z</time>
      </trkpt>
      <trkpt lat="44.26627" lon="5.76653">
        <ele>611</ele>
        <time>2019-03-27T13:28:32Z</time>
      </trkpt>
      <trkpt lat="44.26628" lon="5.76647">
        <ele>611</ele>
        <time>2019-03-27T13:28:33Z</time>
      </trkpt>
      <trkpt lat="44.2663" lon="5.7664">
        <ele>611</ele>
        <time>2019-03-27T13:28:34Z</time>
      </trkpt>
      <trkpt lat="44.26631" lon="5.76627">
        <ele>611</ele>
        <time>2019-03-27T13:28:36Z</time>
      </trkpt>
      <trkpt lat="44.26632" lon="5.7662">
        <ele>611</ele>
        <time>2019-03-27T13:28:37Z</time>
      </trkpt>
      <trkpt lat="44.26633" lon="5.76614">
        <ele>612</ele>
        <time>2019-03-27T13:28:38Z</time>
      </trkpt>
      <trkpt lat="44.26633" lon="5.76607">
        <ele>612</ele>
        <time>2019-03-27T13:28:39Z</time>
      </trkpt>
      <trkpt lat="44.26633" lon="5.766">
        <ele>613</ele>
        <time>2019-03-27T13:28:40Z</time>
      </trkpt>
      <trkpt lat="44.2663" lon="5.76587">
        <ele>613</ele>
        <time>2019-03-27T13:28:42Z</time>
      </trkpt>
      <trkpt lat="44.26616" lon="5.7656">
        <ele>613</ele>
        <time>2019-03-27T13:28:47Z</time>
      </trkpt>
      <trkpt lat="44.26612" lon="5.76553">
        <ele>614</ele>
        <time>2019-03-27T13:28:48Z</time>
      </trkpt>
      <trkpt lat="44.2661" lon="5.76545">
        <ele>614</ele>
        <time>2019-03-27T13:28:49Z</time>
      </trkpt>
      <trkpt lat="44.26605" lon="5.76536">
        <ele>615</ele>
        <time>2019-03-27T13:28:50Z</time>
      </trkpt>
      <trkpt lat="44.26601" lon="5.76529">
        <ele>616</ele>
        <time>2019-03-27T13:28:51Z</time>
      </trkpt>
      <trkpt lat="44.26599" lon="5.76523">
        <ele>617</ele>
        <time>2019-03-27T13:28:52Z</time>
      </trkpt>
      <trkpt lat="44.26596" lon="5.76518">
        <ele>618</ele>
        <time>2019-03-27T13:28:53Z</time>
      </trkpt>
      <trkpt lat="44.26593" lon="5.76513">
        <ele>619</ele>
        <time>2019-03-27T13:28:54Z</time>
      </trkpt>
      <trkpt lat="44.26589" lon="5.76508">
        <ele>620</ele>
        <time>2019-03-27T13:28:55Z</time>
      </trkpt>
      <trkpt lat="44.26585" lon="5.76504">
        <ele>621</ele>
        <time>2019-03-27T13:28:56Z</time>
      </trkpt>
      <trkpt lat="44.2658" lon="5.765">
        <ele>621</ele>
        <time>2019-03-27T13:28:57Z</time>
      </trkpt>
      <trkpt lat="44.26576" lon="5.76496">
        <ele>621</ele>
        <time>2019-03-27T13:28:58Z</time>
      </trkpt>
      <trkpt lat="44.26572" lon="5.76493">
        <ele>621</ele>
        <time>2019-03-27T13:28:59Z</time>
      </trkpt>
      <trkpt lat="44.26567" lon="5.76489">
        <ele>622</ele>
        <time>2019-03-27T13:29:00Z</time>
      </trkpt>
      <trkpt lat="44.26563" lon="5.76486">
        <ele>622</ele>
        <time>2019-03-27T13:29:01Z</time>
      </trkpt>
      <trkpt lat="44.26558" lon="5.76483">
        <ele>622</ele>
        <time>2019-03-27T13:29:02Z</time>
      </trkpt>
      <trkpt lat="44.26554" lon="5.7648">
        <ele>622</ele>
        <time>2019-03-27T13:29:03Z</time>
      </trkpt>
      <trkpt lat="44.26549" lon="5.76476">
        <ele>622</ele>
        <time>2019-03-27T13:29:04Z</time>
      </trkpt>
      <trkpt lat="44.26545" lon="5.76472">
        <ele>622</ele>
        <time>2019-03-27T13:29:05Z</time>
      </trkpt>
      <trkpt lat="44.26542" lon="5.76466">
        <ele>622</ele>
        <time>2019-03-27T13:29:06Z</time>
      </trkpt>
      <trkpt lat="44.2654" lon="5.76459">
        <ele>622</ele>
        <time>2019-03-27T13:29:07Z</time>
      </trkpt>
      <trkpt lat="44.2654" lon="5.76451">
        <ele>622</ele>
        <time>2019-03-27T13:29:08Z</time>
      </trkpt>
      <trkpt lat="44.26542" lon="5.76444">
        <ele>622</ele>
        <time>2019-03-27T13:29:09Z</time>
      </trkpt>
      <trkpt lat="44.26544" lon="5.76437">
        <ele>622</ele>
        <time>2019-03-27T13:29:10Z</time>
      </trkpt>
      <trkpt lat="44.26548" lon="5.7643">
        <ele>622</ele>
        <time>2019-03-27T13:29:11Z</time>
      </trkpt>
      <trkpt lat="44.26551" lon="5.76423">
        <ele>622</ele>
        <time>2019-03-27T13:29:12Z</time>
      </trkpt>
      <trkpt lat="44.26554" lon="5.76415">
        <ele>622</ele>
        <time>2019-03-27T13:29:13Z</time>
      </trkpt>
      <trkpt lat="44.26557" lon="5.76408">
        <ele>622</ele>
        <time>2019-03-27T13:29:14Z</time>
      </trkpt>
      <trkpt lat="44.26561" lon="5.76401">
        <ele>622</ele>
        <time>2019-03-27T13:29:15Z</time>
      </trkpt>
      <trkpt lat="44.26565" lon="5.76395">
        <ele>622</ele>
        <time>2019-03-27T13:29:16Z</time>
      </trkpt>
      <trkpt lat="44.26571" lon="5.76389">
        <ele>622</ele>
        <time>2019-03-27T13:29:17Z</time>
      </trkpt>
      <trkpt lat="44.26576" lon="5.76384">
        <ele>622</ele>
        <time>2019-03-27T13:29:18Z</time>
      </trkpt>
      <trkpt lat="44.26582" lon="5.7638">
        <ele>622</ele>
        <time>2019-03-27T13:29:19Z</time>
      </trkpt>
      <trkpt lat="44.26588" lon="5.76378">
        <ele>622</ele>
        <time>2019-03-27T13:29:20Z</time>
      </trkpt>
      <trkpt lat="44.26595" lon="5.76375">
        <ele>622</ele>
        <time>2019-03-27T13:29:21Z</time>
      </trkpt>
      <trkpt lat="44.26602" lon="5.76374">
        <ele>622</ele>
        <time>2019-03-27T13:29:22Z</time>
      </trkpt>
      <trkpt lat="44.26608" lon="5.76372">
        <ele>622</ele>
        <time>2019-03-27T13:29:23Z</time>
      </trkpt>
      <trkpt lat="44.26615" lon="5.7637">
        <ele>622</ele>
        <time>2019-03-27T13:29:24Z</time>
      </trkpt>
      <trkpt lat="44.26621" lon="5.76368">
        <ele>622</ele>
        <time>2019-03-27T13:29:25Z</time>
      </trkpt>
      <trkpt lat="44.26628" lon="5.76365">
        <ele>622</ele>
        <time>2019-03-27T13:29:26Z</time>
      </trkpt>
      <trkpt lat="44.26634" lon="5.76363">
        <ele>622</ele>
        <time>2019-03-27T13:29:27Z</time>
      </trkpt>
      <trkpt lat="44.2664" lon="5.76361">
        <ele>622</ele>
        <time>2019-03-27T13:29:28Z</time>
      </trkpt>
      <trkpt lat="44.26646" lon="5.76359">
        <ele>622</ele>
        <time>2019-03-27T13:29:29Z</time>
      </trkpt>
      <trkpt lat="44.26652" lon="5.76357">
        <ele>622</ele>
        <time>2019-03-27T13:29:30Z</time>
      </trkpt>
      <trkpt lat="44.26658" lon="5.76356">
        <ele>622</ele>
        <time>2019-03-27T13:29:31Z</time>
      </trkpt>
      <trkpt lat="44.26664" lon="5.76353">
        <ele>622</ele>
        <time>2019-03-27T13:29:32Z</time>
      </trkpt>
      <trkpt lat="44.26671" lon="5.76351">
        <ele>622</ele>
        <time>2019-03-27T13:29:33Z</time>
      </trkpt>
      <trkpt lat="44.26677" lon="5.76348">
        <ele>622</ele>
        <time>2019-03-27T13:29:34Z</time>
      </trkpt>
      <trkpt lat="44.26683" lon="5.76345">
        <ele>622</ele>
        <time>2019-03-27T13:29:35Z</time>
      </trkpt>
      <trkpt lat="44.2669" lon="5.76342">
        <ele>622</ele>
        <time>2019-03-27T13:29:36Z</time>
      </trkpt>
      <trkpt lat="44.26696" lon="5.76339">
        <ele>622</ele>
        <time>2019-03-27T13:29:37Z</time>
      </trkpt>
      <trkpt lat="44.26702" lon="5.76336">
        <ele>622</ele>
        <time>2019-03-27T13:29:38Z</time>
      </trkpt>
      <trkpt lat="44.26709" lon="5.76332">
        <ele>621</ele>
        <time>2019-03-27T13:29:39Z</time>
      </trkpt>
      <trkpt lat="44.26715" lon="5.76329">
        <ele>621</ele>
        <time>2019-03-27T13:29:40Z</time>
      </trkpt>
      <trkpt lat="44.26722" lon="5.76326">
        <ele>621</ele>
        <time>2019-03-27T13:29:41Z</time>
      </trkpt>
      <trkpt lat="44.26729" lon="5.76323">
        <ele>621</ele>
        <time>2019-03-27T13:29:42Z</time>
      </trkpt>
      <trkpt lat="44.26736" lon="5.7632">
        <ele>621</ele>
        <time>2019-03-27T13:29:43Z</time>
      </trkpt>
      <trkpt lat="44.26743" lon="5.76317">
        <ele>621</ele>
        <time>2019-03-27T13:29:44Z</time>
      </trkpt>
      <trkpt lat="44.26749" lon="5.76314">
        <ele>621</ele>
        <time>2019-03-27T13:29:45Z</time>
      </trkpt>
      <trkpt lat="44.26756" lon="5.76312">
        <ele>621</ele>
        <time>2019-03-27T13:29:46Z</time>
      </trkpt>
      <trkpt lat="44.26763" lon="5.7631">
        <ele>621</ele>
        <time>2019-03-27T13:29:47Z</time>
      </trkpt>
      <trkpt lat="44.2677" lon="5.76308">
        <ele>621</ele>
        <time>2019-03-27T13:29:48Z</time>
      </trkpt>
      <trkpt lat="44.26777" lon="5.76307">
        <ele>621</ele>
        <time>2019-03-27T13:29:49Z</time>
      </trkpt>
      <trkpt lat="44.26783" lon="5.76305">
        <ele>621</ele>
        <time>2019-03-27T13:29:50Z</time>
      </trkpt>
      <trkpt lat="44.2679" lon="5.76303">
        <ele>621</ele>
        <time>2019-03-27T13:29:51Z</time>
      </trkpt>
      <trkpt lat="44.26797" lon="5.76301">
        <ele>621</ele>
        <time>2019-03-27T13:29:52Z</time>
      </trkpt>
      <trkpt lat="44.26804" lon="5.76299">
        <ele>621</ele>
        <time>2019-03-27T13:29:53Z</time>
      </trkpt>
      <trkpt lat="44.2681" lon="5.76297">
        <ele>621</ele>
        <time>2019-03-27T13:29:54Z</time>
      </trkpt>
      <trkpt lat="44.26817" lon="5.76294">
        <ele>621</ele>
        <time>2019-03-27T13:29:55Z</time>
      </trkpt>
      <trkpt lat="44.26824" lon="5.7629">
        <ele>621</ele>
        <time>2019-03-27T13:29:56Z</time>
      </trkpt>
      <trkpt lat="44.2683" lon="5.76287">
        <ele>621</ele>
        <time>2019-03-27T13:29:57Z</time>
      </trkpt>
      <trkpt lat="44.26836" lon="5.76282">
        <ele>621</ele>
        <time>2019-03-27T13:29:58Z</time>
      </trkpt>
      <trkpt lat="44.26842" lon="5.76277">
        <ele>621</ele>
        <time>2019-03-27T13:29:59Z</time>
      </trkpt>
      <trkpt lat="44.26847" lon="5.76271">
        <ele>621</ele>
        <time>2019-03-27T13:30:00Z</time>
      </trkpt>
      <trkpt lat="44.26852" lon="5.76265">
        <ele>621</ele>
        <time>2019-03-27T13:30:01Z</time>
      </trkpt>
      <trkpt lat="44.26857" lon="5.76259">
        <ele>621</ele>
        <time>2019-03-27T13:30:02Z</time>
      </trkpt>
      <trkpt lat="44.26862" lon="5.76252">
        <ele>621</ele>
        <time>2019-03-27T13:30:03Z</time>
      </trkpt>
      <trkpt lat="44.26865" lon="5.76243">
        <ele>621</ele>
        <time>2019-03-27T13:30:04Z</time>
      </trkpt>
      <trkpt lat="44.26868" lon="5.76235">
        <ele>621</ele>
        <time>2019-03-27T13:30:05Z</time>
      </trkpt>
      <trkpt lat="44.2687" lon="5.76226">
        <ele>621</ele>
        <time>2019-03-27T13:30:06Z</time>
      </trkpt>
      <trkpt lat="44.26872" lon="5.76217">
        <ele>621</ele>
        <time>2019-03-27T13:30:07Z</time>
      </trkpt>
      <trkpt lat="44.26873" lon="5.76208">
        <ele>621</ele>
        <time>2019-03-27T13:30:08Z</time>
      </trkpt>
      <trkpt lat="44.26874" lon="5.76198">
        <ele>621</ele>
        <time>2019-03-27T13:30:09Z</time>
      </trkpt>
      <trkpt lat="44.26873" lon="5.7619">
        <ele>621</ele>
        <time>2019-03-27T13:30:10Z</time>
      </trkpt>
      <trkpt lat="44.26873" lon="5.76181">
        <ele>621</ele>
        <time>2019-03-27T13:30:11Z</time>
      </trkpt>
      <trkpt lat="44.26872" lon="5.76172">
        <ele>621</ele>
        <time>2019-03-27T13:30:12Z</time>
      </trkpt>
      <trkpt lat="44.2687" lon="5.76163">
        <ele>621</ele>
        <time>2019-03-27T13:30:13Z</time>
      </trkpt>
      <trkpt lat="44.26869" lon="5.76155">
        <ele>621</ele>
        <time>2019-03-27T13:30:14Z</time>
      </trkpt>
      <trkpt lat="44.26867" lon="5.76147">
        <ele>621</ele>
        <time>2019-03-27T13:30:15Z</time>
      </trkpt>
      <trkpt lat="44.26865" lon="5.76139">
        <ele>621</ele>
        <time>2019-03-27T13:30:16Z</time>
      </trkpt>
      <trkpt lat="44.26863" lon="5.76132">
        <ele>621</ele>
        <time>2019-03-27T13:30:17Z</time>
      </trkpt>
      <trkpt lat="44.26862" lon="5.76125">
        <ele>621</ele>
        <time>2019-03-27T13:30:18Z</time>
      </trkpt>
      <trkpt lat="44.26857" lon="5.76116">
        <ele>621</ele>
        <time>2019-03-27T13:30:19Z</time>
      </trkpt>
      <trkpt lat="44.26852" lon="5.76108">
        <ele>621</ele>
        <time>2019-03-27T13:30:20Z</time>
      </trkpt>
      <trkpt lat="44.26848" lon="5.761">
        <ele>621</ele>
        <time>2019-03-27T13:30:21Z</time>
      </trkpt>
      <trkpt lat="44.26844" lon="5.76093">
        <ele>621</ele>
        <time>2019-03-27T13:30:22Z</time>
      </trkpt>
      <trkpt lat="44.26839" lon="5.76086">
        <ele>621</ele>
        <time>2019-03-27T13:30:23Z</time>
      </trkpt>
      <trkpt lat="44.26836" lon="5.7608">
        <ele>621</ele>
        <time>2019-03-27T13:30:24Z</time>
      </trkpt>
      <trkpt lat="44.26831" lon="5.76073">
        <ele>622</ele>
        <time>2019-03-27T13:30:25Z</time>
      </trkpt>
      <trkpt lat="44.26827" lon="5.76067">
        <ele>622</ele>
        <time>2019-03-27T13:30:26Z</time>
      </trkpt>
      <trkpt lat="44.26823" lon="5.76061">
        <ele>623</ele>
        <time>2019-03-27T13:30:27Z</time>
      </trkpt>
      <trkpt lat="44.26818" lon="5.76056">
        <ele>623</ele>
        <time>2019-03-27T13:30:28Z</time>
      </trkpt>
      <trkpt lat="44.26814" lon="5.76051">
        <ele>623</ele>
        <time>2019-03-27T13:30:29Z</time>
      </trkpt>
      <trkpt lat="44.2681" lon="5.76045">
        <ele>623</ele>
        <time>2019-03-27T13:30:30Z</time>
      </trkpt>
      <trkpt lat="44.26805" lon="5.7604">
        <ele>623</ele>
        <time>2019-03-27T13:30:31Z</time>
      </trkpt>
      <trkpt lat="44.268" lon="5.76035">
        <ele>623</ele>
        <time>2019-03-27T13:30:32Z</time>
      </trkpt>
      <trkpt lat="44.26796" lon="5.76029">
        <ele>623</ele>
        <time>2019-03-27T13:30:33Z</time>
      </trkpt>
      <trkpt lat="44.26791" lon="5.76024">
        <ele>623</ele>
        <time>2019-03-27T13:30:34Z</time>
      </trkpt>
      <trkpt lat="44.26787" lon="5.76019">
        <ele>623</ele>
        <time>2019-03-27T13:30:35Z</time>
      </trkpt>
      <trkpt lat="44.26782" lon="5.76013">
        <ele>623</ele>
        <time>2019-03-27T13:30:36Z</time>
      </trkpt>
      <trkpt lat="44.26778" lon="5.76008">
        <ele>623</ele>
        <time>2019-03-27T13:30:37Z</time>
      </trkpt>
      <trkpt lat="44.26773" lon="5.76003">
        <ele>623</ele>
        <time>2019-03-27T13:30:38Z</time>
      </trkpt>
      <trkpt lat="44.26768" lon="5.75997">
        <ele>623</ele>
        <time>2019-03-27T13:30:39Z</time>
      </trkpt>
      <trkpt lat="44.26763" lon="5.75991">
        <ele>623</ele>
        <time>2019-03-27T13:30:40Z</time>
      </trkpt>
      <trkpt lat="44.26758" lon="5.75985">
        <ele>623</ele>
        <time>2019-03-27T13:30:41Z</time>
      </trkpt>
      <trkpt lat="44.26754" lon="5.75978">
        <ele>623</ele>
        <time>2019-03-27T13:30:42Z</time>
      </trkpt>
      <trkpt lat="44.26749" lon="5.75972">
        <ele>623</ele>
        <time>2019-03-27T13:30:43Z</time>
      </trkpt>
      <trkpt lat="44.26745" lon="5.75965">
        <ele>623</ele>
        <time>2019-03-27T13:30:44Z</time>
      </trkpt>
      <trkpt lat="44.2674" lon="5.75958">
        <ele>623</ele>
        <time>2019-03-27T13:30:45Z</time>
      </trkpt>
      <trkpt lat="44.26737" lon="5.75951">
        <ele>623</ele>
        <time>2019-03-27T13:30:46Z</time>
      </trkpt>
      <trkpt lat="44.26733" lon="5.75944">
        <ele>623</ele>
        <time>2019-03-27T13:30:47Z</time>
      </trkpt>
      <trkpt lat="44.2673" lon="5.75936">
        <ele>623</ele>
        <time>2019-03-27T13:30:48Z</time>
      </trkpt>
      <trkpt lat="44.26727" lon="5.75929">
        <ele>623</ele>
        <time>2019-03-27T13:30:49Z</time>
      </trkpt>
      <trkpt lat="44.26723" lon="5.75921">
        <ele>623</ele>
        <time>2019-03-27T13:30:50Z</time>
      </trkpt>
      <trkpt lat="44.2672" lon="5.75914">
        <ele>623</ele>
        <time>2019-03-27T13:30:51Z</time>
      </trkpt>
      <trkpt lat="44.26717" lon="5.75906">
        <ele>623</ele>
        <time>2019-03-27T13:30:52Z</time>
      </trkpt>
      <trkpt lat="44.26714" lon="5.75898">
        <ele>623</ele>
        <time>2019-03-27T13:30:53Z</time>
      </trkpt>
      <trkpt lat="44.26712" lon="5.7589">
        <ele>623</ele>
        <time>2019-03-27T13:30:54Z</time>
      </trkpt>
      <trkpt lat="44.26709" lon="5.75883">
        <ele>623</ele>
        <time>2019-03-27T13:30:55Z</time>
      </trkpt>
      <trkpt lat="44.26706" lon="5.75874">
        <ele>623</ele>
        <time>2019-03-27T13:30:56Z</time>
      </trkpt>
      <trkpt lat="44.26704" lon="5.75866">
        <ele>623</ele>
        <time>2019-03-27T13:30:57Z</time>
      </trkpt>
      <trkpt lat="44.26702" lon="5.75857">
        <ele>623</ele>
        <time>2019-03-27T13:30:58Z</time>
      </trkpt>
      <trkpt lat="44.267" lon="5.75848">
        <ele>623</ele>
        <time>2019-03-27T13:30:59Z</time>
      </trkpt>
      <trkpt lat="44.26698" lon="5.75839">
        <ele>623</ele>
        <time>2019-03-27T13:31:00Z</time>
      </trkpt>
      <trkpt lat="44.26696" lon="5.75831">
        <ele>623</ele>
        <time>2019-03-27T13:31:01Z</time>
      </trkpt>
      <trkpt lat="44.26694" lon="5.75821">
        <ele>623</ele>
        <time>2019-03-27T13:31:02Z</time>
      </trkpt>
      <trkpt lat="44.26693" lon="5.75813">
        <ele>623</ele>
        <time>2019-03-27T13:31:03Z</time>
      </trkpt>
      <trkpt lat="44.26692" lon="5.75804">
        <ele>623</ele>
        <time>2019-03-27T13:31:04Z</time>
      </trkpt>
      <trkpt lat="44.26691" lon="5.75795">
        <ele>623</ele>
        <time>2019-03-27T13:31:05Z</time>
      </trkpt>
      <trkpt lat="44.2669" lon="5.75785">
        <ele>623</ele>
        <time>2019-03-27T13:31:06Z</time>
      </trkpt>
      <trkpt lat="44.2669" lon="5.75776">
        <ele>623</ele>
        <time>2019-03-27T13:31:07Z</time>
      </trkpt>
      <trkpt lat="44.2669" lon="5.75767">
        <ele>623</ele>
        <time>2019-03-27T13:31:08Z</time>
      </trkpt>
      <trkpt lat="44.2669" lon="5.75758">
        <ele>623</ele>
        <time>2019-03-27T13:31:09Z</time>
      </trkpt>
      <trkpt lat="44.2669" lon="5.75749">
        <ele>623</ele>
        <time>2019-03-27T13:31:10Z</time>
      </trkpt>
      <trkpt lat="44.26691" lon="5.7574">
        <ele>623</ele>
        <time>2019-03-27T13:31:11Z</time>
      </trkpt>
      <trkpt lat="44.26692" lon="5.75732">
        <ele>623</ele>
        <time>2019-03-27T13:31:12Z</time>
      </trkpt>
      <trkpt lat="44.26694" lon="5.75724">
        <ele>623</ele>
        <time>2019-03-27T13:31:13Z</time>
      </trkpt>
      <trkpt lat="44.26696" lon="5.75717">
        <ele>623</ele>
        <time>2019-03-27T13:31:14Z</time>
      </trkpt>
      <trkpt lat="44.267" lon="5.75709">
        <ele>623</ele>
        <time>2019-03-27T13:31:15Z</time>
      </trkpt>
      <trkpt lat="44.26704" lon="5.75703">
        <ele>623</ele>
        <time>2019-03-27T13:31:16Z</time>
      </trkpt>
      <trkpt lat="44.26708" lon="5.75698">
        <ele>623</ele>
        <time>2019-03-27T13:31:17Z</time>
      </trkpt>
      <trkpt lat="44.26712" lon="5.75692">
        <ele>623</ele>
        <time>2019-03-27T13:31:18Z</time>
      </trkpt>
      <trkpt lat="44.26716" lon="5.75687">
        <ele>623</ele>
        <time>2019-03-27T13:31:19Z</time>
      </trkpt>
      <trkpt lat="44.26719" lon="5.75681">
        <ele>623</ele>
        <time>2019-03-27T13:31:20Z</time>
      </trkpt>
      <trkpt lat="44.26722" lon="5.75675">
        <ele>623</ele>
        <time>2019-03-27T13:31:21Z</time>
      </trkpt>
      <trkpt lat="44.26723" lon="5.75667">
        <ele>623</ele>
        <time>2019-03-27T13:31:22Z</time>
      </trkpt>
      <trkpt lat="44.26722" lon="5.7566">
        <ele>623</ele>
        <time>2019-03-27T13:31:23Z</time>
      </trkpt>
      <trkpt lat="44.2672" lon="5.75653">
        <ele>623</ele>
        <time>2019-03-27T13:31:24Z</time>
      </trkpt>
      <trkpt lat="44.26716" lon="5.75647">
        <ele>623</ele>
        <time>2019-03-27T13:31:25Z</time>
      </trkpt>
      <trkpt lat="44.26712" lon="5.75641">
        <ele>623</ele>
        <time>2019-03-27T13:31:26Z</time>
      </trkpt>
      <trkpt lat="44.26707" lon="5.75636">
        <ele>623</ele>
        <time>2019-03-27T13:31:27Z</time>
      </trkpt>
      <trkpt lat="44.26702" lon="5.75631">
        <ele>623</ele>
        <time>2019-03-27T13:31:28Z</time>
      </trkpt>
      <trkpt lat="44.26698" lon="5.75625">
        <ele>623</ele>
        <time>2019-03-27T13:31:29Z</time>
      </trkpt>
      <trkpt lat="44.26693" lon="5.75618">
        <ele>623</ele>
        <time>2019-03-27T13:31:30Z</time>
      </trkpt>
      <trkpt lat="44.2669" lon="5.75611">
        <ele>623</ele>
        <time>2019-03-27T13:31:31Z</time>
      </trkpt>
      <trkpt lat="44.26687" lon="5.75602">
        <ele>623</ele>
        <time>2019-03-27T13:31:32Z</time>
      </trkpt>
      <trkpt lat="44.26685" lon="5.75592">
        <ele>623</ele>
        <time>2019-03-27T13:31:33Z</time>
      </trkpt>
      <trkpt lat="44.26684" lon="5.75582">
        <ele>623</ele>
        <time>2019-03-27T13:31:34Z</time>
      </trkpt>
      <trkpt lat="44.26683" lon="5.75572">
        <ele>623</ele>
        <time>2019-03-27T13:31:35Z</time>
      </trkpt>
      <trkpt lat="44.26682" lon="5.75562">
        <ele>623</ele>
        <time>2019-03-27T13:31:36Z</time>
      </trkpt>
      <trkpt lat="44.26681" lon="5.75552">
        <ele>623</ele>
        <time>2019-03-27T13:31:37Z</time>
      </trkpt>
      <trkpt lat="44.2668" lon="5.75541">
        <ele>623</ele>
        <time>2019-03-27T13:31:38Z</time>
      </trkpt>
      <trkpt lat="44.26678" lon="5.75531">
        <ele>623</ele>
        <time>2019-03-27T13:31:39Z</time>
      </trkpt>
      <trkpt lat="44.26677" lon="5.75521">
        <ele>623</ele>
        <time>2019-03-27T13:31:40Z</time>
      </trkpt>
      <trkpt lat="44.26676" lon="5.75511">
        <ele>623</ele>
        <time>2019-03-27T13:31:41Z</time>
      </trkpt>
      <trkpt lat="44.26675" lon="5.755">
        <ele>623</ele>
        <time>2019-03-27T13:31:42Z</time>
      </trkpt>
      <trkpt lat="44.26674" lon="5.7549">
        <ele>623</ele>
        <time>2019-03-27T13:31:43Z</time>
      </trkpt>
      <trkpt lat="44.26671" lon="5.75479">
        <ele>623</ele>
        <time>2019-03-27T13:31:44Z</time>
      </trkpt>
      <trkpt lat="44.26669" lon="5.75468">
        <ele>623</ele>
        <time>2019-03-27T13:31:45Z</time>
      </trkpt>
      <trkpt lat="44.26667" lon="5.75458">
        <ele>623</ele>
        <time>2019-03-27T13:31:46Z</time>
      </trkpt>
      <trkpt lat="44.26666" lon="5.75448">
        <ele>623</ele>
        <time>2019-03-27T13:31:47Z</time>
      </trkpt>
      <trkpt lat="44.26662" lon="5.75438">
        <ele>623</ele>
        <time>2019-03-27T13:31:48Z</time>
      </trkpt>
      <trkpt lat="44.26659" lon="5.75428">
        <ele>623</ele>
        <time>2019-03-27T13:31:49Z</time>
      </trkpt>
      <trkpt lat="44.26656" lon="5.75419">
        <ele>623</ele>
        <time>2019-03-27T13:31:50Z</time>
      </trkpt>
      <trkpt lat="44.26652" lon="5.7541">
        <ele>623</ele>
        <time>2019-03-27T13:31:51Z</time>
      </trkpt>
      <trkpt lat="44.26647" lon="5.75402">
        <ele>623</ele>
        <time>2019-03-27T13:31:52Z</time>
      </trkpt>
      <trkpt lat="44.26643" lon="5.75394">
        <ele>623</ele>
        <time>2019-03-27T13:31:53Z</time>
      </trkpt>
      <trkpt lat="44.26639" lon="5.75387">
        <ele>623</ele>
        <time>2019-03-27T13:31:54Z</time>
      </trkpt>
      <trkpt lat="44.26634" lon="5.7538">
        <ele>623</ele>
        <time>2019-03-27T13:31:55Z</time>
      </trkpt>
      <trkpt lat="44.2663" lon="5.75373">
        <ele>623</ele>
        <time>2019-03-27T13:31:56Z</time>
      </trkpt>
      <trkpt lat="44.26626" lon="5.75366">
        <ele>623</ele>
        <time>2019-03-27T13:31:57Z</time>
      </trkpt>
      <trkpt lat="44.26622" lon="5.75359">
        <ele>623</ele>
        <time>2019-03-27T13:31:58Z</time>
      </trkpt>
      <trkpt lat="44.26619" lon="5.75351">
        <ele>623</ele>
        <time>2019-03-27T13:31:59Z</time>
      </trkpt>
      <trkpt lat="44.26615" lon="5.75344">
        <ele>623</ele>
        <time>2019-03-27T13:32:00Z</time>
      </trkpt>
      <trkpt lat="44.26612" lon="5.75337">
        <ele>623</ele>
        <time>2019-03-27T13:32:01Z</time>
      </trkpt>
      <trkpt lat="44.26609" lon="5.75329">
        <ele>623</ele>
        <time>2019-03-27T13:32:02Z</time>
      </trkpt>
      <trkpt lat="44.26606" lon="5.75321">
        <ele>623</ele>
        <time>2019-03-27T13:32:03Z</time>
      </trkpt>
      <trkpt lat="44.26603" lon="5.75314">
        <ele>623</ele>
        <time>2019-03-27T13:32:04Z</time>
      </trkpt>
      <trkpt lat="44.26601" lon="5.75306">
        <ele>623</ele>
        <time>2019-03-27T13:32:05Z</time>
      </trkpt>
      <trkpt lat="44.26598" lon="5.75298">
        <ele>623</ele>
        <time>2019-03-27T13:32:06Z</time>
      </trkpt>
      <trkpt lat="44.26595" lon="5.75291">
        <ele>623</ele>
        <time>2019-03-27T13:32:07Z</time>
      </trkpt>
      <trkpt lat="44.26593" lon="5.75283">
        <ele>623</ele>
        <time>2019-03-27T13:32:08Z</time>
      </trkpt>
      <trkpt lat="44.2659" lon="5.75275">
        <ele>623</ele>
        <time>2019-03-27T13:32:09Z</time>
      </trkpt>
      <trkpt lat="44.26588" lon="5.75268">
        <ele>623</ele>
        <time>2019-03-27T13:32:10Z</time>
      </trkpt>
      <trkpt lat="44.26585" lon="5.7526">
        <ele>623</ele>
        <time>2019-03-27T13:32:11Z</time>
      </trkpt>
      <trkpt lat="44.26583" lon="5.75253">
        <ele>623</ele>
        <time>2019-03-27T13:32:12Z</time>
      </trkpt>
      <trkpt lat="44.2658" lon="5.75246">
        <ele>623</ele>
        <time>2019-03-27T13:32:13Z</time>
      </trkpt>
      <trkpt lat="44.26577" lon="5.75239">
        <ele>623</ele>
        <time>2019-03-27T13:32:14Z</time>
      </trkpt>
      <trkpt lat="44.26574" lon="5.75231">
        <ele>623</ele>
        <time>2019-03-27T13:32:15Z</time>
      </trkpt>
      <trkpt lat="44.26571" lon="5.75224">
        <ele>623</ele>
        <time>2019-03-27T13:32:16Z</time>
      </trkpt>
      <trkpt lat="44.26567" lon="5.75217">
        <ele>623</ele>
        <time>2019-03-27T13:32:17Z</time>
      </trkpt>
      <trkpt lat="44.26563" lon="5.75211">
        <ele>623</ele>
        <time>2019-03-27T13:32:18Z</time>
      </trkpt>
      <trkpt lat="44.26559" lon="5.75204">
        <ele>623</ele>
        <time>2019-03-27T13:32:19Z</time>
      </trkpt>
      <trkpt lat="44.26556" lon="5.75198">
        <ele>623</ele>
        <time>2019-03-27T13:32:20Z</time>
      </trkpt>
      <trkpt lat="44.26552" lon="5.75191">
        <ele>623</ele>
        <time>2019-03-27T13:32:21Z</time>
      </trkpt>
      <trkpt lat="44.26548" lon="5.75185">
        <ele>623</ele>
        <time>2019-03-27T13:32:22Z</time>
      </trkpt>
      <trkpt lat="44.26544" lon="5.75179">
        <ele>623</ele>
        <time>2019-03-27T13:32:23Z</time>
      </trkpt>
      <trkpt lat="44.2654" lon="5.75172">
        <ele>623</ele>
        <time>2019-03-27T13:32:24Z</time>
      </trkpt>
      <trkpt lat="44.26537" lon="5.75166">
        <ele>623</ele>
        <time>2019-03-27T13:32:25Z</time>
      </trkpt>
      <trkpt lat="44.26533" lon="5.7516">
        <ele>623</ele>
        <time>2019-03-27T13:32:26Z</time>
      </trkpt>
      <trkpt lat="44.26529" lon="5.75153">
        <ele>623</ele>
        <time>2019-03-27T13:32:27Z</time>
      </trkpt>
      <trkpt lat="44.26525" lon="5.75147">
        <ele>623</ele>
        <time>2019-03-27T13:32:28Z</time>
      </trkpt>
      <trkpt lat="44.26521" lon="5.75141">
        <ele>623</ele>
        <time>2019-03-27T13:32:29Z</time>
      </trkpt>
      <trkpt lat="44.26517" lon="5.75134">
        <ele>623</ele>
        <time>2019-03-27T13:32:30Z</time>
      </trkpt>
      <trkpt lat="44.26513" lon="5.75128">
        <ele>623</ele>
        <time>2019-03-27T13:32:31Z</time>
      </trkpt>
      <trkpt lat="44.26509" lon="5.75122">
        <ele>623</ele>
        <time>2019-03-27T13:32:32Z</time>
      </trkpt>
      <trkpt lat="44.26504" lon="5.75115">
        <ele>623</ele>
        <time>2019-03-27T13:32:33Z</time>
      </trkpt>
      <trkpt lat="44.265" lon="5.75109">
        <ele>623</ele>
        <time>2019-03-27T13:32:34Z</time>
      </trkpt>
      <trkpt lat="44.26495" lon="5.75102">
        <ele>623</ele>
        <time>2019-03-27T13:32:35Z</time>
      </trkpt>
      <trkpt lat="44.26491" lon="5.75096">
        <ele>623</ele>
        <time>2019-03-27T13:32:36Z</time>
      </trkpt>
      <trkpt lat="44.26487" lon="5.75089">
        <ele>623</ele>
        <time>2019-03-27T13:32:37Z</time>
      </trkpt>
      <trkpt lat="44.26484" lon="5.75082">
        <ele>623</ele>
        <time>2019-03-27T13:32:38Z</time>
      </trkpt>
      <trkpt lat="44.2648" lon="5.75075">
        <ele>623</ele>
        <time>2019-03-27T13:32:39Z</time>
      </trkpt>
      <trkpt lat="44.26476" lon="5.75068">
        <ele>623</ele>
        <time>2019-03-27T13:32:40Z</time>
      </trkpt>
      <trkpt lat="44.26472" lon="5.75061">
        <ele>623</ele>
        <time>2019-03-27T13:32:41Z</time>
      </trkpt>
      <trkpt lat="44.26469" lon="5.75054">
        <ele>623</ele>
        <time>2019-03-27T13:32:42Z</time>
      </trkpt>
      <trkpt lat="44.26464" lon="5.75048">
        <ele>623</ele>
        <time>2019-03-27T13:32:43Z</time>
      </trkpt>
      <trkpt lat="44.2646" lon="5.75041">
        <ele>623</ele>
        <time>2019-03-27T13:32:44Z</time>
      </trkpt>
      <trkpt lat="44.26456" lon="5.75034">
        <ele>623</ele>
        <time>2019-03-27T13:32:45Z</time>
      </trkpt>
      <trkpt lat="44.26453" lon="5.75027">
        <ele>623</ele>
        <time>2019-03-27T13:32:46Z</time>
      </trkpt>
      <trkpt lat="44.26449" lon="5.7502">
        <ele>623</ele>
        <time>2019-03-27T13:32:47Z</time>
      </trkpt>
      <trkpt lat="44.26445" lon="5.75013">
        <ele>623</ele>
        <time>2019-03-27T13:32:48Z</time>
      </trkpt>
      <trkpt lat="44.26441" lon="5.75006">
        <ele>623</ele>
        <time>2019-03-27T13:32:49Z</time>
      </trkpt>
      <trkpt lat="44.26437" lon="5.75">
        <ele>623</ele>
        <time>2019-03-27T13:32:50Z</time>
      </trkpt>
      <trkpt lat="44.26433" lon="5.74993">
        <ele>623</ele>
        <time>2019-03-27T13:32:51Z</time>
      </trkpt>
      <trkpt lat="44.26429" lon="5.74986">
        <ele>623</ele>
        <time>2019-03-27T13:32:52Z</time>
      </trkpt>
      <trkpt lat="44.26425" lon="5.74979">
        <ele>623</ele>
        <time>2019-03-27T13:32:53Z</time>
      </trkpt>
      <trkpt lat="44.26421" lon="5.74972">
        <ele>623</ele>
        <time>2019-03-27T13:32:54Z</time>
      </trkpt>
      <trkpt lat="44.26417" lon="5.74965">
        <ele>623</ele>
        <time>2019-03-27T13:32:55Z</time>
      </trkpt>
      <trkpt lat="44.26414" lon="5.74958">
        <ele>623</ele>
        <time>2019-03-27T13:32:56Z</time>
      </trkpt>
      <trkpt lat="44.26411" lon="5.74951">
        <ele>623</ele>
        <time>2019-03-27T13:32:57Z</time>
      </trkpt>
      <trkpt lat="44.26408" lon="5.74945">
        <ele>623</ele>
        <time>2019-03-27T13:32:58Z</time>
      </trkpt>
      <trkpt lat="44.26405" lon="5.74939">
        <ele>623</ele>
        <time>2019-03-27T13:32:59Z</time>
      </trkpt>
      <trkpt lat="44.26402" lon="5.74933">
        <ele>623</ele>
        <time>2019-03-27T13:33:00Z</time>
      </trkpt>
      <trkpt lat="44.264" lon="5.74926">
        <ele>623</ele>
        <time>2019-03-27T13:33:01Z</time>
      </trkpt>
      <trkpt lat="44.26398" lon="5.7492">
        <ele>623</ele>
        <time>2019-03-27T13:33:02Z</time>
      </trkpt>
      <trkpt lat="44.26396" lon="5.74913">
        <ele>623</ele>
        <time>2019-03-27T13:33:03Z</time>
      </trkpt>
      <trkpt lat="44.26395" lon="5.74906">
        <ele>623</ele>
        <time>2019-03-27T13:33:04Z</time>
      </trkpt>
      <trkpt lat="44.26393" lon="5.74899">
        <ele>623</ele>
        <time>2019-03-27T13:33:05Z</time>
      </trkpt>
      <trkpt lat="44.26392" lon="5.74892">
        <ele>623</ele>
        <time>2019-03-27T13:33:06Z</time>
      </trkpt>
      <trkpt lat="44.26391" lon="5.74885">
        <ele>623</ele>
        <time>2019-03-27T13:33:07Z</time>
      </trkpt>
      <trkpt lat="44.26389" lon="5.74878">
        <ele>623</ele>
        <time>2019-03-27T13:33:08Z</time>
      </trkpt>
      <trkpt lat="44.26387" lon="5.74871">
        <ele>623</ele>
        <time>2019-03-27T13:33:09Z</time>
      </trkpt>
      <trkpt lat="44.26386" lon="5.74865">
        <ele>624</ele>
        <time>2019-03-27T13:33:10Z</time>
      </trkpt>
      <trkpt lat="44.26384" lon="5.74859">
        <ele>624</ele>
        <time>2019-03-27T13:33:11Z</time>
      </trkpt>
      <trkpt lat="44.26381" lon="5.74853">
        <ele>624</ele>
        <time>2019-03-27T13:33:12Z</time>
      </trkpt>
      <trkpt lat="44.26379" lon="5.74847">
        <ele>625</ele>
        <time>2019-03-27T13:33:13Z</time>
      </trkpt>
      <trkpt lat="44.26376" lon="5.74841">
        <ele>625</ele>
        <time>2019-03-27T13:33:14Z</time>
      </trkpt>
      <trkpt lat="44.26373" lon="5.74835">
        <ele>625</ele>
        <time>2019-03-27T13:33:15Z</time>
      </trkpt>
      <trkpt lat="44.26369" lon="5.7483">
        <ele>626</ele>
        <time>2019-03-27T13:33:16Z</time>
      </trkpt>
      <trkpt lat="44.26366" lon="5.74825">
        <ele>626</ele>
        <time>2019-03-27T13:33:17Z</time>
      </trkpt>
      <trkpt lat="44.26363" lon="5.7482">
        <ele>626</ele>
        <time>2019-03-27T13:33:18Z</time>
      </trkpt>
      <trkpt lat="44.2636" lon="5.74815">
        <ele>627</ele>
        <time>2019-03-27T13:33:19Z</time>
      </trkpt>
      <trkpt lat="44.26357" lon="5.7481">
        <ele>627</ele>
        <time>2019-03-27T13:33:20Z</time>
      </trkpt>
      <trkpt lat="44.26354" lon="5.74805">
        <ele>627</ele>
        <time>2019-03-27T13:33:21Z</time>
      </trkpt>
      <trkpt lat="44.26351" lon="5.748">
        <ele>627</ele>
        <time>2019-03-27T13:33:22Z</time>
      </trkpt>
      <trkpt lat="44.26348" lon="5.74795">
        <ele>627</ele>
        <time>2019-03-27T13:33:23Z</time>
      </trkpt>
      <trkpt lat="44.26345" lon="5.7479">
        <ele>628</ele>
        <time>2019-03-27T13:33:24Z</time>
      </trkpt>
      <trkpt lat="44.26342" lon="5.74785">
        <ele>628</ele>
        <time>2019-03-27T13:33:25Z</time>
      </trkpt>
      <trkpt lat="44.26339" lon="5.74779">
        <ele>628</ele>
        <time>2019-03-27T13:33:26Z</time>
      </trkpt>
      <trkpt lat="44.26337" lon="5.74774">
        <ele>628</ele>
        <time>2019-03-27T13:33:27Z</time>
      </trkpt>
      <trkpt lat="44.26334" lon="5.74768">
        <ele>628</ele>
        <time>2019-03-27T13:33:28Z</time>
      </trkpt>
      <trkpt lat="44.26331" lon="5.74762">
        <ele>629</ele>
        <time>2019-03-27T13:33:29Z</time>
      </trkpt>
      <trkpt lat="44.26329" lon="5.74756">
        <ele>629</ele>
        <time>2019-03-27T13:33:30Z</time>
      </trkpt>
      <trkpt lat="44.26326" lon="5.74751">
        <ele>629</ele>
        <time>2019-03-27T13:33:31Z</time>
      </trkpt>
      <trkpt lat="44.26324" lon="5.74745">
        <ele>629</ele>
        <time>2019-03-27T13:33:32Z</time>
      </trkpt>
      <trkpt lat="44.26322" lon="5.7474">
        <ele>629</ele>
        <time>2019-03-27T13:33:33Z</time>
      </trkpt>
      <trkpt lat="44.26319" lon="5.74734">
        <ele>630</ele>
        <time>2019-03-27T13:33:34Z</time>
      </trkpt>
      <trkpt lat="44.26317" lon="5.74728">
        <ele>630</ele>
        <time>2019-03-27T13:33:35Z</time>
      </trkpt>
      <trkpt lat="44.26314" lon="5.74723">
        <ele>630</ele>
        <time>2019-03-27T13:33:36Z</time>
      </trkpt>
      <trkpt lat="44.26312" lon="5.74717">
        <ele>630</ele>
        <time>2019-03-27T13:33:37Z</time>
      </trkpt>
      <trkpt lat="44.2631" lon="5.74711">
        <ele>630</ele>
        <time>2019-03-27T13:33:38Z</time>
      </trkpt>
      <trkpt lat="44.26307" lon="5.74706">
        <ele>631</ele>
        <time>2019-03-27T13:33:39Z</time>
      </trkpt>
      <trkpt lat="44.26305" lon="5.747">
        <ele>631</ele>
        <time>2019-03-27T13:33:40Z</time>
      </trkpt>
      <trkpt lat="44.26303" lon="5.74694">
        <ele>631</ele>
        <time>2019-03-27T13:33:41Z</time>
      </trkpt>
      <trkpt lat="44.263" lon="5.74689">
        <ele>631</ele>
        <time>2019-03-27T13:33:42Z</time>
      </trkpt>
      <trkpt lat="44.26298" lon="5.74684">
        <ele>631</ele>
        <time>2019-03-27T13:33:43Z</time>
      </trkpt>
      <trkpt lat="44.26296" lon="5.74678">
        <ele>631</ele>
        <time>2019-03-27T13:33:44Z</time>
      </trkpt>
      <trkpt lat="44.26294" lon="5.74673">
        <ele>631</ele>
        <time>2019-03-27T13:33:45Z</time>
      </trkpt>
      <trkpt lat="44.26292" lon="5.74667">
        <ele>631</ele>
        <time>2019-03-27T13:33:46Z</time>
      </trkpt>
      <trkpt lat="44.2629" lon="5.74661">
        <ele>632</ele>
        <time>2019-03-27T13:33:47Z</time>
      </trkpt>
      <trkpt lat="44.26288" lon="5.74656">
        <ele>632</ele>
        <time>2019-03-27T13:33:48Z</time>
      </trkpt>
      <trkpt lat="44.26286" lon="5.7465">
        <ele>632</ele>
        <time>2019-03-27T13:33:49Z</time>
      </trkpt>
      <trkpt lat="44.26284" lon="5.74644">
        <ele>632</ele>
        <time>2019-03-27T13:33:50Z</time>
      </trkpt>
      <trkpt lat="44.26283" lon="5.74638">
        <ele>632</ele>
        <time>2019-03-27T13:33:51Z</time>
      </trkpt>
      <trkpt lat="44.26282" lon="5.74632">
        <ele>632</ele>
        <time>2019-03-27T13:33:52Z</time>
      </trkpt>
      <trkpt lat="44.26281" lon="5.74626">
        <ele>632</ele>
        <time>2019-03-27T13:33:53Z</time>
      </trkpt>
      <trkpt lat="44.26281" lon="5.74619">
        <ele>633</ele>
        <time>2019-03-27T13:33:54Z</time>
      </trkpt>
      <trkpt lat="44.26282" lon="5.74613">
        <ele>633</ele>
        <time>2019-03-27T13:33:55Z</time>
      </trkpt>
      <trkpt lat="44.26283" lon="5.74606">
        <ele>633</ele>
        <time>2019-03-27T13:33:56Z</time>
      </trkpt>
      <trkpt lat="44.26286" lon="5.746">
        <ele>633</ele>
        <time>2019-03-27T13:33:57Z</time>
      </trkpt>
      <trkpt lat="44.26288" lon="5.74594">
        <ele>634</ele>
        <time>2019-03-27T13:33:58Z</time>
      </trkpt>
      <trkpt lat="44.2629" lon="5.74588">
        <ele>634</ele>
        <time>2019-03-27T13:33:59Z</time>
      </trkpt>
      <trkpt lat="44.26293" lon="5.74582">
        <ele>634</ele>
        <time>2019-03-27T13:34:00Z</time>
      </trkpt>
      <trkpt lat="44.26295" lon="5.74576">
        <ele>634</ele>
        <time>2019-03-27T13:34:01Z</time>
      </trkpt>
      <trkpt lat="44.26298" lon="5.7457">
        <ele>634</ele>
        <time>2019-03-27T13:34:02Z</time>
      </trkpt>
      <trkpt lat="44.26301" lon="5.74564">
        <ele>635</ele>
        <time>2019-03-27T13:34:03Z</time>
      </trkpt>
      <trkpt lat="44.26304" lon="5.74558">
        <ele>635</ele>
        <time>2019-03-27T13:34:04Z</time>
      </trkpt>
      <trkpt lat="44.26307" lon="5.74552">
        <ele>635</ele>
        <time>2019-03-27T13:34:05Z</time>
      </trkpt>
      <trkpt lat="44.2631" lon="5.74546">
        <ele>635</ele>
        <time>2019-03-27T13:34:06Z</time>
      </trkpt>
      <trkpt lat="44.26313" lon="5.7454">
        <ele>635</ele>
        <time>2019-03-27T13:34:07Z</time>
      </trkpt>
      <trkpt lat="44.26316" lon="5.74534">
        <ele>636</ele>
        <time>2019-03-27T13:34:08Z</time>
      </trkpt>
      <trkpt lat="44.26319" lon="5.74527">
        <ele>636</ele>
        <time>2019-03-27T13:34:09Z</time>
      </trkpt>
      <trkpt lat="44.26322" lon="5.74521">
        <ele>636</ele>
        <time>2019-03-27T13:34:10Z</time>
      </trkpt>
      <trkpt lat="44.26325" lon="5.74514">
        <ele>636</ele>
        <time>2019-03-27T13:34:11Z</time>
      </trkpt>
      <trkpt lat="44.26328" lon="5.74508">
        <ele>636</ele>
        <time>2019-03-27T13:34:12Z</time>
      </trkpt>
      <trkpt lat="44.26331" lon="5.74502">
        <ele>637</ele>
        <time>2019-03-27T13:34:13Z</time>
      </trkpt>
      <trkpt lat="44.26334" lon="5.74495">
        <ele>637</ele>
        <time>2019-03-27T13:34:14Z</time>
      </trkpt>
      <trkpt lat="44.26338" lon="5.74489">
        <ele>637</ele>
        <time>2019-03-27T13:34:15Z</time>
      </trkpt>
      <trkpt lat="44.26342" lon="5.74483">
        <ele>637</ele>
        <time>2019-03-27T13:34:16Z</time>
      </trkpt>
      <trkpt lat="44.26345" lon="5.74477">
        <ele>637</ele>
        <time>2019-03-27T13:34:17Z</time>
      </trkpt>
      <trkpt lat="44.26349" lon="5.74472">
        <ele>637</ele>
        <time>2019-03-27T13:34:18Z</time>
      </trkpt>
      <trkpt lat="44.26353" lon="5.74466">
        <ele>637</ele>
        <time>2019-03-27T13:34:19Z</time>
      </trkpt>
      <trkpt lat="44.26357" lon="5.7446">
        <ele>637</ele>
        <time>2019-03-27T13:34:20Z</time>
      </trkpt>
      <trkpt lat="44.2636" lon="5.74453">
        <ele>637</ele>
        <time>2019-03-27T13:34:21Z</time>
      </trkpt>
      <trkpt lat="44.26363" lon="5.74446">
        <ele>637</ele>
        <time>2019-03-27T13:34:22Z</time>
      </trkpt>
      <trkpt lat="44.26365" lon="5.74439">
        <ele>637</ele>
        <time>2019-03-27T13:34:23Z</time>
      </trkpt>
      <trkpt lat="44.26366" lon="5.74432">
        <ele>637</ele>
        <time>2019-03-27T13:34:24Z</time>
      </trkpt>
      <trkpt lat="44.26367" lon="5.74425">
        <ele>637</ele>
        <time>2019-03-27T13:34:25Z</time>
      </trkpt>
      <trkpt lat="44.26366" lon="5.74418">
        <ele>638</ele>
        <time>2019-03-27T13:34:26Z</time>
      </trkpt>
      <trkpt lat="44.26366" lon="5.74411">
        <ele>638</ele>
        <time>2019-03-27T13:34:27Z</time>
      </trkpt>
      <trkpt lat="44.26365" lon="5.74404">
        <ele>638</ele>
        <time>2019-03-27T13:34:28Z</time>
      </trkpt>
      <trkpt lat="44.26364" lon="5.74397">
        <ele>639</ele>
        <time>2019-03-27T13:34:29Z</time>
      </trkpt>
      <trkpt lat="44.26363" lon="5.7439">
        <ele>639</ele>
        <time>2019-03-27T13:34:30Z</time>
      </trkpt>
      <trkpt lat="44.26362" lon="5.74384">
        <ele>639</ele>
        <time>2019-03-27T13:34:31Z</time>
      </trkpt>
      <trkpt lat="44.2636" lon="5.74377">
        <ele>640</ele>
        <time>2019-03-27T13:34:32Z</time>
      </trkpt>
      <trkpt lat="44.26359" lon="5.7437">
        <ele>640</ele>
        <time>2019-03-27T13:34:33Z</time>
      </trkpt>
      <trkpt lat="44.26357" lon="5.74364">
        <ele>641</ele>
        <time>2019-03-27T13:34:34Z</time>
      </trkpt>
      <trkpt lat="44.26355" lon="5.74357">
        <ele>641</ele>
        <time>2019-03-27T13:34:35Z</time>
      </trkpt>
      <trkpt lat="44.26354" lon="5.7435">
        <ele>641</ele>
        <time>2019-03-27T13:34:36Z</time>
      </trkpt>
      <trkpt lat="44.26352" lon="5.74343">
        <ele>642</ele>
        <time>2019-03-27T13:34:37Z</time>
      </trkpt>
      <trkpt lat="44.26352" lon="5.74336">
        <ele>642</ele>
        <time>2019-03-27T13:34:38Z</time>
      </trkpt>
      <trkpt lat="44.2635" lon="5.74329">
        <ele>642</ele>
        <time>2019-03-27T13:34:39Z</time>
      </trkpt>
      <trkpt lat="44.2635" lon="5.74322">
        <ele>642</ele>
        <time>2019-03-27T13:34:40Z</time>
      </trkpt>
      <trkpt lat="44.26349" lon="5.74314">
        <ele>643</ele>
        <time>2019-03-27T13:34:41Z</time>
      </trkpt>
      <trkpt lat="44.26348" lon="5.74307">
        <ele>643</ele>
        <time>2019-03-27T13:34:42Z</time>
      </trkpt>
      <trkpt lat="44.26347" lon="5.743">
        <ele>643</ele>
        <time>2019-03-27T13:34:43Z</time>
      </trkpt>
      <trkpt lat="44.26346" lon="5.74293">
        <ele>643</ele>
        <time>2019-03-27T13:34:44Z</time>
      </trkpt>
      <trkpt lat="44.26346" lon="5.74285">
        <ele>643</ele>
        <time>2019-03-27T13:34:45Z</time>
      </trkpt>
      <trkpt lat="44.26345" lon="5.74277">
        <ele>643</ele>
        <time>2019-03-27T13:34:46Z</time>
      </trkpt>
      <trkpt lat="44.26345" lon="5.74269">
        <ele>643</ele>
        <time>2019-03-27T13:34:47Z</time>
      </trkpt>
      <trkpt lat="44.26344" lon="5.74261">
        <ele>643</ele>
        <time>2019-03-27T13:34:48Z</time>
      </trkpt>
      <trkpt lat="44.26344" lon="5.74254">
        <ele>643</ele>
        <time>2019-03-27T13:34:49Z</time>
      </trkpt>
      <trkpt lat="44.26343" lon="5.74246">
        <ele>643</ele>
        <time>2019-03-27T13:34:50Z</time>
      </trkpt>
      <trkpt lat="44.26343" lon="5.74238">
        <ele>643</ele>
        <time>2019-03-27T13:34:51Z</time>
      </trkpt>
      <trkpt lat="44.26342" lon="5.74231">
        <ele>643</ele>
        <time>2019-03-27T13:34:52Z</time>
      </trkpt>
      <trkpt lat="44.26342" lon="5.74223">
        <ele>643</ele>
        <time>2019-03-27T13:34:53Z</time>
      </trkpt>
      <trkpt lat="44.26342" lon="5.74215">
        <ele>643</ele>
        <time>2019-03-27T13:34:54Z</time>
      </trkpt>
      <trkpt lat="44.26341" lon="5.74207">
        <ele>643</ele>
        <time>2019-03-27T13:34:55Z</time>
      </trkpt>
      <trkpt lat="44.2634" lon="5.74198">
        <ele>643</ele>
        <time>2019-03-27T13:34:56Z</time>
      </trkpt>
      <trkpt lat="44.2634" lon="5.7419">
        <ele>643</ele>
        <time>2019-03-27T13:34:57Z</time>
      </trkpt>
      <trkpt lat="44.26339" lon="5.74182">
        <ele>643</ele>
        <time>2019-03-27T13:34:58Z</time>
      </trkpt>
      <trkpt lat="44.26339" lon="5.74174">
        <ele>643</ele>
        <time>2019-03-27T13:34:59Z</time>
      </trkpt>
      <trkpt lat="44.26339" lon="5.74166">
        <ele>643</ele>
        <time>2019-03-27T13:35:00Z</time>
      </trkpt>
      <trkpt lat="44.26338" lon="5.74157">
        <ele>643</ele>
        <time>2019-03-27T13:35:01Z</time>
      </trkpt>
      <trkpt lat="44.26337" lon="5.74149">
        <ele>643</ele>
        <time>2019-03-27T13:35:02Z</time>
      </trkpt>
      <trkpt lat="44.26337" lon="5.74141">
        <ele>643</ele>
        <time>2019-03-27T13:35:03Z</time>
      </trkpt>
      <trkpt lat="44.26336" lon="5.74132">
        <ele>643</ele>
        <time>2019-03-27T13:35:04Z</time>
      </trkpt>
      <trkpt lat="44.26336" lon="5.74124">
        <ele>643</ele>
        <time>2019-03-27T13:35:05Z</time>
      </trkpt>
      <trkpt lat="44.26336" lon="5.74116">
        <ele>643</ele>
        <time>2019-03-27T13:35:06Z</time>
      </trkpt>
      <trkpt lat="44.26335" lon="5.74108">
        <ele>643</ele>
        <time>2019-03-27T13:35:07Z</time>
      </trkpt>
      <trkpt lat="44.26335" lon="5.74099">
        <ele>643</ele>
        <time>2019-03-27T13:35:08Z</time>
      </trkpt>
      <trkpt lat="44.26334" lon="5.74091">
        <ele>643</ele>
        <time>2019-03-27T13:35:09Z</time>
      </trkpt>
      <trkpt lat="44.26333" lon="5.74083">
        <ele>643</ele>
        <time>2019-03-27T13:35:10Z</time>
      </trkpt>
      <trkpt lat="44.26333" lon="5.74074">
        <ele>643</ele>
        <time>2019-03-27T13:35:11Z</time>
      </trkpt>
      <trkpt lat="44.26332" lon="5.74065">
        <ele>643</ele>
        <time>2019-03-27T13:35:12Z</time>
      </trkpt>
      <trkpt lat="44.26331" lon="5.74057">
        <ele>643</ele>
        <time>2019-03-27T13:35:13Z</time>
      </trkpt>
      <trkpt lat="44.26331" lon="5.74049">
        <ele>643</ele>
        <time>2019-03-27T13:35:14Z</time>
      </trkpt>
      <trkpt lat="44.2633" lon="5.74041">
        <ele>643</ele>
        <time>2019-03-27T13:35:15Z</time>
      </trkpt>
      <trkpt lat="44.26329" lon="5.74033">
        <ele>643</ele>
        <time>2019-03-27T13:35:16Z</time>
      </trkpt>
      <trkpt lat="44.26329" lon="5.74025">
        <ele>643</ele>
        <time>2019-03-27T13:35:17Z</time>
      </trkpt>
      <trkpt lat="44.26328" lon="5.74017">
        <ele>643</ele>
        <time>2019-03-27T13:35:18Z</time>
      </trkpt>
      <trkpt lat="44.26328" lon="5.74009">
        <ele>643</ele>
        <time>2019-03-27T13:35:19Z</time>
      </trkpt>
      <trkpt lat="44.26327" lon="5.74001">
        <ele>643</ele>
        <time>2019-03-27T13:35:20Z</time>
      </trkpt>
      <trkpt lat="44.26327" lon="5.73993">
        <ele>643</ele>
        <time>2019-03-27T13:35:21Z</time>
      </trkpt>
      <trkpt lat="44.26326" lon="5.73985">
        <ele>643</ele>
        <time>2019-03-27T13:35:22Z</time>
      </trkpt>
      <trkpt lat="44.26326" lon="5.73977">
        <ele>643</ele>
        <time>2019-03-27T13:35:23Z</time>
      </trkpt>
      <trkpt lat="44.26326" lon="5.73968">
        <ele>643</ele>
        <time>2019-03-27T13:35:24Z</time>
      </trkpt>
      <trkpt lat="44.26325" lon="5.7396">
        <ele>643</ele>
        <time>2019-03-27T13:35:25Z</time>
      </trkpt>
      <trkpt lat="44.26324" lon="5.73951">
        <ele>644</ele>
        <time>2019-03-27T13:35:26Z</time>
      </trkpt>
      <trkpt lat="44.26324" lon="5.73942">
        <ele>644</ele>
        <time>2019-03-27T13:35:27Z</time>
      </trkpt>
      <trkpt lat="44.26323" lon="5.73934">
        <ele>644</ele>
        <time>2019-03-27T13:35:28Z</time>
      </trkpt>
      <trkpt lat="44.26323" lon="5.73925">
        <ele>644</ele>
        <time>2019-03-27T13:35:29Z</time>
      </trkpt>
      <trkpt lat="44.26323" lon="5.73916">
        <ele>644</ele>
        <time>2019-03-27T13:35:30Z</time>
      </trkpt>
      <trkpt lat="44.26323" lon="5.73907">
        <ele>644</ele>
        <time>2019-03-27T13:35:31Z</time>
      </trkpt>
      <trkpt lat="44.26322" lon="5.73897">
        <ele>644</ele>
        <time>2019-03-27T13:35:32Z</time>
      </trkpt>
      <trkpt lat="44.26321" lon="5.73888">
        <ele>644</ele>
        <time>2019-03-27T13:35:33Z</time>
      </trkpt>
      <trkpt lat="44.26321" lon="5.73878">
        <ele>644</ele>
        <time>2019-03-27T13:35:34Z</time>
      </trkpt>
      <trkpt lat="44.2632" lon="5.73869">
        <ele>644</ele>
        <time>2019-03-27T13:35:35Z</time>
      </trkpt>
      <trkpt lat="44.26319" lon="5.73859">
        <ele>644</ele>
        <time>2019-03-27T13:35:36Z</time>
      </trkpt>
      <trkpt lat="44.26319" lon="5.73849">
        <ele>644</ele>
        <time>2019-03-27T13:35:37Z</time>
      </trkpt>
      <trkpt lat="44.26318" lon="5.7384">
        <ele>644</ele>
        <time>2019-03-27T13:35:38Z</time>
      </trkpt>
      <trkpt lat="44.26318" lon="5.7383">
        <ele>644</ele>
        <time>2019-03-27T13:35:39Z</time>
      </trkpt>
      <trkpt lat="44.26317" lon="5.7382">
        <ele>644</ele>
        <time>2019-03-27T13:35:40Z</time>
      </trkpt>
      <trkpt lat="44.26316" lon="5.7381">
        <ele>644</ele>
        <time>2019-03-27T13:35:41Z</time>
      </trkpt>
      <trkpt lat="44.26315" lon="5.738">
        <ele>644</ele>
        <time>2019-03-27T13:35:42Z</time>
      </trkpt>
      <trkpt lat="44.26314" lon="5.7379">
        <ele>644</ele>
        <time>2019-03-27T13:35:43Z</time>
      </trkpt>
      <trkpt lat="44.26312" lon="5.7378">
        <ele>644</ele>
        <time>2019-03-27T13:35:44Z</time>
      </trkpt>
      <trkpt lat="44.26311" lon="5.73771">
        <ele>644</ele>
        <time>2019-03-27T13:35:45Z</time>
      </trkpt>
      <trkpt lat="44.2631" lon="5.73762">
        <ele>644</ele>
        <time>2019-03-27T13:35:46Z</time>
      </trkpt>
      <trkpt lat="44.26308" lon="5.73752">
        <ele>644</ele>
        <time>2019-03-27T13:35:47Z</time>
      </trkpt>
      <trkpt lat="44.26307" lon="5.73743">
        <ele>644</ele>
        <time>2019-03-27T13:35:48Z</time>
      </trkpt>
      <trkpt lat="44.26306" lon="5.73734">
        <ele>644</ele>
        <time>2019-03-27T13:35:49Z</time>
      </trkpt>
      <trkpt lat="44.26305" lon="5.73725">
        <ele>644</ele>
        <time>2019-03-27T13:35:50Z</time>
      </trkpt>
      <trkpt lat="44.26304" lon="5.73715">
        <ele>644</ele>
        <time>2019-03-27T13:35:51Z</time>
      </trkpt>
      <trkpt lat="44.26302" lon="5.73705">
        <ele>644</ele>
        <time>2019-03-27T13:35:52Z</time>
      </trkpt>
      <trkpt lat="44.26301" lon="5.73696">
        <ele>644</ele>
        <time>2019-03-27T13:35:53Z</time>
      </trkpt>
      <trkpt lat="44.263" lon="5.73686">
        <ele>644</ele>
        <time>2019-03-27T13:35:54Z</time>
      </trkpt>
      <trkpt lat="44.26298" lon="5.73677">
        <ele>644</ele>
        <time>2019-03-27T13:35:55Z</time>
      </trkpt>
      <trkpt lat="44.26296" lon="5.73667">
        <ele>644</ele>
        <time>2019-03-27T13:35:56Z</time>
      </trkpt>
      <trkpt lat="44.26295" lon="5.73658">
        <ele>644</ele>
        <time>2019-03-27T13:35:57Z</time>
      </trkpt>
      <trkpt lat="44.26293" lon="5.73648">
        <ele>644</ele>
        <time>2019-03-27T13:35:58Z</time>
      </trkpt>
      <trkpt lat="44.26292" lon="5.73638">
        <ele>644</ele>
        <time>2019-03-27T13:35:59Z</time>
      </trkpt>
      <trkpt lat="44.2629" lon="5.73629">
        <ele>644</ele>
        <time>2019-03-27T13:36:00Z</time>
      </trkpt>
      <trkpt lat="44.26288" lon="5.7362">
        <ele>644</ele>
        <time>2019-03-27T13:36:01Z</time>
      </trkpt>
      <trkpt lat="44.26287" lon="5.73611">
        <ele>644</ele>
        <time>2019-03-27T13:36:02Z</time>
      </trkpt>
      <trkpt lat="44.26286" lon="5.73602">
        <ele>644</ele>
        <time>2019-03-27T13:36:03Z</time>
      </trkpt>
      <trkpt lat="44.26285" lon="5.73593">
        <ele>644</ele>
        <time>2019-03-27T13:36:04Z</time>
      </trkpt>
      <trkpt lat="44.26284" lon="5.73584">
        <ele>644</ele>
        <time>2019-03-27T13:36:05Z</time>
      </trkpt>
      <trkpt lat="44.26283" lon="5.73575">
        <ele>644</ele>
        <time>2019-03-27T13:36:06Z</time>
      </trkpt>
      <trkpt lat="44.26281" lon="5.73567">
        <ele>644</ele>
        <time>2019-03-27T13:36:07Z</time>
      </trkpt>
      <trkpt lat="44.2628" lon="5.73558">
        <ele>644</ele>
        <time>2019-03-27T13:36:08Z</time>
      </trkpt>
      <trkpt lat="44.26279" lon="5.73549">
        <ele>644</ele>
        <time>2019-03-27T13:36:09Z</time>
      </trkpt>
      <trkpt lat="44.26278" lon="5.7354">
        <ele>644</ele>
        <time>2019-03-27T13:36:10Z</time>
      </trkpt>
      <trkpt lat="44.26277" lon="5.73531">
        <ele>644</ele>
        <time>2019-03-27T13:36:11Z</time>
      </trkpt>
      <trkpt lat="44.26276" lon="5.73523">
        <ele>644</ele>
        <time>2019-03-27T13:36:12Z</time>
      </trkpt>
      <trkpt lat="44.26274" lon="5.73514">
        <ele>644</ele>
        <time>2019-03-27T13:36:13Z</time>
      </trkpt>
      <trkpt lat="44.26273" lon="5.73506">
        <ele>644</ele>
        <time>2019-03-27T13:36:14Z</time>
      </trkpt>
      <trkpt lat="44.26272" lon="5.73497">
        <ele>644</ele>
        <time>2019-03-27T13:36:15Z</time>
      </trkpt>
      <trkpt lat="44.26271" lon="5.73489">
        <ele>644</ele>
        <time>2019-03-27T13:36:16Z</time>
      </trkpt>
      <trkpt lat="44.26269" lon="5.7348">
        <ele>644</ele>
        <time>2019-03-27T13:36:17Z</time>
      </trkpt>
      <trkpt lat="44.26268" lon="5.73472">
        <ele>644</ele>
        <time>2019-03-27T13:36:18Z</time>
      </trkpt>
      <trkpt lat="44.26268" lon="5.73465">
        <ele>644</ele>
        <time>2019-03-27T13:36:19Z</time>
      </trkpt>
      <trkpt lat="44.26266" lon="5.73457">
        <ele>644</ele>
        <time>2019-03-27T13:36:20Z</time>
      </trkpt>
      <trkpt lat="44.26264" lon="5.73449">
        <ele>644</ele>
        <time>2019-03-27T13:36:21Z</time>
      </trkpt>
      <trkpt lat="44.26263" lon="5.73441">
        <ele>644</ele>
        <time>2019-03-27T13:36:22Z</time>
      </trkpt>
      <trkpt lat="44.26262" lon="5.73433">
        <ele>644</ele>
        <time>2019-03-27T13:36:23Z</time>
      </trkpt>
      <trkpt lat="44.2626" lon="5.73426">
        <ele>644</ele>
        <time>2019-03-27T13:36:24Z</time>
      </trkpt>
      <trkpt lat="44.26258" lon="5.73419">
        <ele>644</ele>
        <time>2019-03-27T13:36:25Z</time>
      </trkpt>
      <trkpt lat="44.26257" lon="5.73411">
        <ele>644</ele>
        <time>2019-03-27T13:36:26Z</time>
      </trkpt>
      <trkpt lat="44.26255" lon="5.73404">
        <ele>644</ele>
        <time>2019-03-27T13:36:27Z</time>
      </trkpt>
      <trkpt lat="44.26254" lon="5.73396">
        <ele>644</ele>
        <time>2019-03-27T13:36:28Z</time>
      </trkpt>
      <trkpt lat="44.26252" lon="5.73389">
        <ele>644</ele>
        <time>2019-03-27T13:36:29Z</time>
      </trkpt>
      <trkpt lat="44.26249" lon="5.73382">
        <ele>644</ele>
        <time>2019-03-27T13:36:30Z</time>
      </trkpt>
      <trkpt lat="44.26247" lon="5.73375">
        <ele>644</ele>
        <time>2019-03-27T13:36:31Z</time>
      </trkpt>
      <trkpt lat="44.26245" lon="5.73368">
        <ele>644</ele>
        <time>2019-03-27T13:36:32Z</time>
      </trkpt>
      <trkpt lat="44.26243" lon="5.73361">
        <ele>644</ele>
        <time>2019-03-27T13:36:33Z</time>
      </trkpt>
      <trkpt lat="44.26241" lon="5.73354">
        <ele>644</ele>
        <time>2019-03-27T13:36:34Z</time>
      </trkpt>
      <trkpt lat="44.26239" lon="5.73347">
        <ele>644</ele>
        <time>2019-03-27T13:36:35Z</time>
      </trkpt>
      <trkpt lat="44.26236" lon="5.7334">
        <ele>644</ele>
        <time>2019-03-27T13:36:36Z</time>
      </trkpt>
      <trkpt lat="44.26234" lon="5.73333">
        <ele>644</ele>
        <time>2019-03-27T13:36:37Z</time>
      </trkpt>
      <trkpt lat="44.26232" lon="5.73327">
        <ele>644</ele>
        <time>2019-03-27T13:36:38Z</time>
      </trkpt>
      <trkpt lat="44.26229" lon="5.7332">
        <ele>644</ele>
        <time>2019-03-27T13:36:39Z</time>
      </trkpt>
      <trkpt lat="44.26227" lon="5.73313">
        <ele>644</ele>
        <time>2019-03-27T13:36:40Z</time>
      </trkpt>
      <trkpt lat="44.26225" lon="5.73306">
        <ele>644</ele>
        <time>2019-03-27T13:36:41Z</time>
      </trkpt>
      <trkpt lat="44.26223" lon="5.73299">
        <ele>644</ele>
        <time>2019-03-27T13:36:42Z</time>
      </trkpt>
      <trkpt lat="44.26221" lon="5.73292">
        <ele>644</ele>
        <time>2019-03-27T13:36:43Z</time>
      </trkpt>
      <trkpt lat="44.26218" lon="5.73284">
        <ele>644</ele>
        <time>2019-03-27T13:36:44Z</time>
      </trkpt>
      <trkpt lat="44.26216" lon="5.73277">
        <ele>644</ele>
        <time>2019-03-27T13:36:45Z</time>
      </trkpt>
      <trkpt lat="44.26214" lon="5.7327">
        <ele>644</ele>
        <time>2019-03-27T13:36:46Z</time>
      </trkpt>
      <trkpt lat="44.26211" lon="5.73263">
        <ele>644</ele>
        <time>2019-03-27T13:36:47Z</time>
      </trkpt>
      <trkpt lat="44.26208" lon="5.73256">
        <ele>644</ele>
        <time>2019-03-27T13:36:48Z</time>
      </trkpt>
      <trkpt lat="44.26206" lon="5.73249">
        <ele>644</ele>
        <time>2019-03-27T13:36:49Z</time>
      </trkpt>
      <trkpt lat="44.26204" lon="5.73242">
        <ele>644</ele>
        <time>2019-03-27T13:36:50Z</time>
      </trkpt>
      <trkpt lat="44.26201" lon="5.73234">
        <ele>644</ele>
        <time>2019-03-27T13:36:51Z</time>
      </trkpt>
      <trkpt lat="44.26198" lon="5.73227">
        <ele>644</ele>
        <time>2019-03-27T13:36:52Z</time>
      </trkpt>
      <trkpt lat="44.26196" lon="5.7322">
        <ele>644</ele>
        <time>2019-03-27T13:36:53Z</time>
      </trkpt>
      <trkpt lat="44.26193" lon="5.73212">
        <ele>644</ele>
        <time>2019-03-27T13:36:54Z</time>
      </trkpt>
      <trkpt lat="44.26191" lon="5.73205">
        <ele>645</ele>
        <time>2019-03-27T13:36:55Z</time>
      </trkpt>
      <trkpt lat="44.26188" lon="5.73197">
        <ele>645</ele>
        <time>2019-03-27T13:36:56Z</time>
      </trkpt>
      <trkpt lat="44.26186" lon="5.73188">
        <ele>646</ele>
        <time>2019-03-27T13:36:57Z</time>
      </trkpt>
      <trkpt lat="44.26183" lon="5.73181">
        <ele>646</ele>
        <time>2019-03-27T13:36:58Z</time>
      </trkpt>
      <trkpt lat="44.26181" lon="5.73173">
        <ele>646</ele>
        <time>2019-03-27T13:36:59Z</time>
      </trkpt>
      <trkpt lat="44.26178" lon="5.73166">
        <ele>646</ele>
        <time>2019-03-27T13:37:00Z</time>
      </trkpt>
      <trkpt lat="44.26175" lon="5.73158">
        <ele>647</ele>
        <time>2019-03-27T13:37:01Z</time>
      </trkpt>
      <trkpt lat="44.26172" lon="5.73151">
        <ele>647</ele>
        <time>2019-03-27T13:37:02Z</time>
      </trkpt>
      <trkpt lat="44.2617" lon="5.73143">
        <ele>647</ele>
        <time>2019-03-27T13:37:03Z</time>
      </trkpt>
      <trkpt lat="44.26167" lon="5.73136">
        <ele>647</ele>
        <time>2019-03-27T13:37:04Z</time>
      </trkpt>
      <trkpt lat="44.26164" lon="5.73128">
        <ele>648</ele>
        <time>2019-03-27T13:37:05Z</time>
      </trkpt>
      <trkpt lat="44.26162" lon="5.7312">
        <ele>648</ele>
        <time>2019-03-27T13:37:06Z</time>
      </trkpt>
      <trkpt lat="44.2616" lon="5.73112">
        <ele>648</ele>
        <time>2019-03-27T13:37:07Z</time>
      </trkpt>
      <trkpt lat="44.26159" lon="5.73104">
        <ele>648</ele>
        <time>2019-03-27T13:37:08Z</time>
      </trkpt>
      <trkpt lat="44.26158" lon="5.73096">
        <ele>648</ele>
        <time>2019-03-27T13:37:09Z</time>
      </trkpt>
      <trkpt lat="44.26157" lon="5.73088">
        <ele>648</ele>
        <time>2019-03-27T13:37:10Z</time>
      </trkpt>
      <trkpt lat="44.26157" lon="5.7308">
        <ele>648</ele>
        <time>2019-03-27T13:37:11Z</time>
      </trkpt>
      <trkpt lat="44.26156" lon="5.73073">
        <ele>648</ele>
        <time>2019-03-27T13:37:12Z</time>
      </trkpt>
      <trkpt lat="44.26156" lon="5.73065">
        <ele>648</ele>
        <time>2019-03-27T13:37:13Z</time>
      </trkpt>
      <trkpt lat="44.26156" lon="5.73058">
        <ele>648</ele>
        <time>2019-03-27T13:37:14Z</time>
      </trkpt>
      <trkpt lat="44.26156" lon="5.7305">
        <ele>648</ele>
        <time>2019-03-27T13:37:15Z</time>
      </trkpt>
      <trkpt lat="44.26156" lon="5.73043">
        <ele>648</ele>
        <time>2019-03-27T13:37:16Z</time>
      </trkpt>
      <trkpt lat="44.26157" lon="5.73036">
        <ele>648</ele>
        <time>2019-03-27T13:37:17Z</time>
      </trkpt>
      <trkpt lat="44.26157" lon="5.73029">
        <ele>648</ele>
        <time>2019-03-27T13:37:18Z</time>
      </trkpt>
      <trkpt lat="44.26157" lon="5.73022">
        <ele>648</ele>
        <time>2019-03-27T13:37:19Z</time>
      </trkpt>
      <trkpt lat="44.26157" lon="5.73015">
        <ele>648</ele>
        <time>2019-03-27T13:37:20Z</time>
      </trkpt>
      <trkpt lat="44.26157" lon="5.73008">
        <ele>648</ele>
        <time>2019-03-27T13:37:21Z</time>
      </trkpt>
      <trkpt lat="44.26158" lon="5.73001">
        <ele>648</ele>
        <time>2019-03-27T13:37:22Z</time>
      </trkpt>
      <trkpt lat="44.26158" lon="5.72994">
        <ele>648</ele>
        <time>2019-03-27T13:37:23Z</time>
      </trkpt>
      <trkpt lat="44.26158" lon="5.72987">
        <ele>648</ele>
        <time>2019-03-27T13:37:24Z</time>
      </trkpt>
      <trkpt lat="44.26159" lon="5.72979">
        <ele>648</ele>
        <time>2019-03-27T13:37:25Z</time>
      </trkpt>
      <trkpt lat="44.26159" lon="5.72972">
        <ele>649</ele>
        <time>2019-03-27T13:37:26Z</time>
      </trkpt>
      <trkpt lat="44.26159" lon="5.72966">
        <ele>649</ele>
        <time>2019-03-27T13:37:27Z</time>
      </trkpt>
      <trkpt lat="44.26159" lon="5.72959">
        <ele>649</ele>
        <time>2019-03-27T13:37:28Z</time>
      </trkpt>
      <trkpt lat="44.26159" lon="5.72952">
        <ele>649</ele>
        <time>2019-03-27T13:37:29Z</time>
      </trkpt>
      <trkpt lat="44.2616" lon="5.72944">
        <ele>649</ele>
        <time>2019-03-27T13:37:30Z</time>
      </trkpt>
      <trkpt lat="44.2616" lon="5.72938">
        <ele>649</ele>
        <time>2019-03-27T13:37:31Z</time>
      </trkpt>
      <trkpt lat="44.2616" lon="5.72931">
        <ele>649</ele>
        <time>2019-03-27T13:37:32Z</time>
      </trkpt>
      <trkpt lat="44.2616" lon="5.72924">
        <ele>650</ele>
        <time>2019-03-27T13:37:33Z</time>
      </trkpt>
      <trkpt lat="44.2616" lon="5.72918">
        <ele>650</ele>
        <time>2019-03-27T13:37:34Z</time>
      </trkpt>
      <trkpt lat="44.26161" lon="5.7291">
        <ele>651</ele>
        <time>2019-03-27T13:37:35Z</time>
      </trkpt>
      <trkpt lat="44.26162" lon="5.72903">
        <ele>651</ele>
        <time>2019-03-27T13:37:36Z</time>
      </trkpt>
      <trkpt lat="44.26162" lon="5.72896">
        <ele>651</ele>
        <time>2019-03-27T13:37:37Z</time>
      </trkpt>
      <trkpt lat="44.26162" lon="5.7289">
        <ele>651</ele>
        <time>2019-03-27T13:37:38Z</time>
      </trkpt>
      <trkpt lat="44.26162" lon="5.72883">
        <ele>651</ele>
        <time>2019-03-27T13:37:39Z</time>
      </trkpt>
      <trkpt lat="44.26163" lon="5.72877">
        <ele>651</ele>
        <time>2019-03-27T13:37:40Z</time>
      </trkpt>
      <trkpt lat="44.26163" lon="5.7287">
        <ele>651</ele>
        <time>2019-03-27T13:37:41Z</time>
      </trkpt>
      <trkpt lat="44.26163" lon="5.72863">
        <ele>651</ele>
        <time>2019-03-27T13:37:42Z</time>
      </trkpt>
      <trkpt lat="44.26163" lon="5.72857">
        <ele>652</ele>
        <time>2019-03-27T13:37:43Z</time>
      </trkpt>
      <trkpt lat="44.26163" lon="5.7285">
        <ele>652</ele>
        <time>2019-03-27T13:37:44Z</time>
      </trkpt>
      <trkpt lat="44.26163" lon="5.72844">
        <ele>652</ele>
        <time>2019-03-27T13:37:45Z</time>
      </trkpt>
      <trkpt lat="44.26163" lon="5.72837">
        <ele>652</ele>
        <time>2019-03-27T13:37:46Z</time>
      </trkpt>
      <trkpt lat="44.26163" lon="5.72831">
        <ele>653</ele>
        <time>2019-03-27T13:37:47Z</time>
      </trkpt>
      <trkpt lat="44.26164" lon="5.72825">
        <ele>653</ele>
        <time>2019-03-27T13:37:48Z</time>
      </trkpt>
      <trkpt lat="44.26164" lon="5.72818">
        <ele>653</ele>
        <time>2019-03-27T13:37:49Z</time>
      </trkpt>
      <trkpt lat="44.26164" lon="5.72812">
        <ele>653</ele>
        <time>2019-03-27T13:37:50Z</time>
      </trkpt>
      <trkpt lat="44.26164" lon="5.72805">
        <ele>653</ele>
        <time>2019-03-27T13:37:51Z</time>
      </trkpt>
      <trkpt lat="44.26164" lon="5.72798">
        <ele>654</ele>
        <time>2019-03-27T13:37:52Z</time>
      </trkpt>
      <trkpt lat="44.26164" lon="5.72792">
        <ele>654</ele>
        <time>2019-03-27T13:37:53Z</time>
      </trkpt>
      <trkpt lat="44.26163" lon="5.72785">
        <ele>654</ele>
        <time>2019-03-27T13:37:54Z</time>
      </trkpt>
      <trkpt lat="44.26163" lon="5.72779">
        <ele>654</ele>
        <time>2019-03-27T13:37:55Z</time>
      </trkpt>
      <trkpt lat="44.26162" lon="5.72772">
        <ele>654</ele>
        <time>2019-03-27T13:37:56Z</time>
      </trkpt>
      <trkpt lat="44.26162" lon="5.72765">
        <ele>654</ele>
        <time>2019-03-27T13:37:57Z</time>
      </trkpt>
      <trkpt lat="44.26161" lon="5.72758">
        <ele>654</ele>
        <time>2019-03-27T13:37:58Z</time>
      </trkpt>
      <trkpt lat="44.2616" lon="5.72752">
        <ele>654</ele>
        <time>2019-03-27T13:37:59Z</time>
      </trkpt>
      <trkpt lat="44.26159" lon="5.72745">
        <ele>654</ele>
        <time>2019-03-27T13:38:00Z</time>
      </trkpt>
      <trkpt lat="44.26158" lon="5.72738">
        <ele>654</ele>
        <time>2019-03-27T13:38:01Z</time>
      </trkpt>
      <trkpt lat="44.26157" lon="5.72731">
        <ele>654</ele>
        <time>2019-03-27T13:38:02Z</time>
      </trkpt>
      <trkpt lat="44.26155" lon="5.72724">
        <ele>654</ele>
        <time>2019-03-27T13:38:03Z</time>
      </trkpt>
      <trkpt lat="44.26153" lon="5.72718">
        <ele>654</ele>
        <time>2019-03-27T13:38:04Z</time>
      </trkpt>
      <trkpt lat="44.26152" lon="5.72711">
        <ele>654</ele>
        <time>2019-03-27T13:38:05Z</time>
      </trkpt>
      <trkpt lat="44.2615" lon="5.72704">
        <ele>654</ele>
        <time>2019-03-27T13:38:06Z</time>
      </trkpt>
      <trkpt lat="44.26149" lon="5.72698">
        <ele>654</ele>
        <time>2019-03-27T13:38:07Z</time>
      </trkpt>
      <trkpt lat="44.26147" lon="5.72692">
        <ele>654</ele>
        <time>2019-03-27T13:38:08Z</time>
      </trkpt>
      <trkpt lat="44.26146" lon="5.72685">
        <ele>654</ele>
        <time>2019-03-27T13:38:09Z</time>
      </trkpt>
      <trkpt lat="44.26144" lon="5.72679">
        <ele>654</ele>
        <time>2019-03-27T13:38:10Z</time>
      </trkpt>
      <trkpt lat="44.26143" lon="5.72673">
        <ele>654</ele>
        <time>2019-03-27T13:38:11Z</time>
      </trkpt>
      <trkpt lat="44.26141" lon="5.72666">
        <ele>654</ele>
        <time>2019-03-27T13:38:12Z</time>
      </trkpt>
      <trkpt lat="44.2614" lon="5.7266">
        <ele>654</ele>
        <time>2019-03-27T13:38:13Z</time>
      </trkpt>
      <trkpt lat="44.26139" lon="5.72654">
        <ele>655</ele>
        <time>2019-03-27T13:38:14Z</time>
      </trkpt>
      <trkpt lat="44.26137" lon="5.72647">
        <ele>655</ele>
        <time>2019-03-27T13:38:15Z</time>
      </trkpt>
      <trkpt lat="44.26136" lon="5.72641">
        <ele>655</ele>
        <time>2019-03-27T13:38:16Z</time>
      </trkpt>
      <trkpt lat="44.26134" lon="5.72634">
        <ele>655</ele>
        <time>2019-03-27T13:38:17Z</time>
      </trkpt>
      <trkpt lat="44.26133" lon="5.72627">
        <ele>655</ele>
        <time>2019-03-27T13:38:18Z</time>
      </trkpt>
      <trkpt lat="44.26132" lon="5.7262">
        <ele>655</ele>
        <time>2019-03-27T13:38:19Z</time>
      </trkpt>
      <trkpt lat="44.2613" lon="5.72613">
        <ele>655</ele>
        <time>2019-03-27T13:38:20Z</time>
      </trkpt>
      <trkpt lat="44.26129" lon="5.72606">
        <ele>655</ele>
        <time>2019-03-27T13:38:21Z</time>
      </trkpt>
      <trkpt lat="44.26126" lon="5.72599">
        <ele>655</ele>
        <time>2019-03-27T13:38:22Z</time>
      </trkpt>
      <trkpt lat="44.26124" lon="5.72592">
        <ele>655</ele>
        <time>2019-03-27T13:38:23Z</time>
      </trkpt>
      <trkpt lat="44.26122" lon="5.72584">
        <ele>655</ele>
        <time>2019-03-27T13:38:24Z</time>
      </trkpt>
      <trkpt lat="44.2612" lon="5.72576">
        <ele>655</ele>
        <time>2019-03-27T13:38:25Z</time>
      </trkpt>
      <trkpt lat="44.26118" lon="5.72568">
        <ele>655</ele>
        <time>2019-03-27T13:38:26Z</time>
      </trkpt>
      <trkpt lat="44.26116" lon="5.72559">
        <ele>655</ele>
        <time>2019-03-27T13:38:27Z</time>
      </trkpt>
      <trkpt lat="44.26113" lon="5.72551">
        <ele>655</ele>
        <time>2019-03-27T13:38:28Z</time>
      </trkpt>
      <trkpt lat="44.26111" lon="5.72542">
        <ele>655</ele>
        <time>2019-03-27T13:38:29Z</time>
      </trkpt>
      <trkpt lat="44.26109" lon="5.72533">
        <ele>655</ele>
        <time>2019-03-27T13:38:30Z</time>
      </trkpt>
      <trkpt lat="44.26106" lon="5.72523">
        <ele>655</ele>
        <time>2019-03-27T13:38:31Z</time>
      </trkpt>
      <trkpt lat="44.26104" lon="5.72514">
        <ele>655</ele>
        <time>2019-03-27T13:38:32Z</time>
      </trkpt>
      <trkpt lat="44.26102" lon="5.72505">
        <ele>655</ele>
        <time>2019-03-27T13:38:33Z</time>
      </trkpt>
      <trkpt lat="44.26099" lon="5.72495">
        <ele>655</ele>
        <time>2019-03-27T13:38:34Z</time>
      </trkpt>
      <trkpt lat="44.26097" lon="5.72485">
        <ele>655</ele>
        <time>2019-03-27T13:38:35Z</time>
      </trkpt>
      <trkpt lat="44.26095" lon="5.72475">
        <ele>655</ele>
        <time>2019-03-27T13:38:36Z</time>
      </trkpt>
      <trkpt lat="44.26093" lon="5.72466">
        <ele>656</ele>
        <time>2019-03-27T13:38:37Z</time>
      </trkpt>
      <trkpt lat="44.2609" lon="5.72456">
        <ele>656</ele>
        <time>2019-03-27T13:38:38Z</time>
      </trkpt>
      <trkpt lat="44.26088" lon="5.72446">
        <ele>656</ele>
        <time>2019-03-27T13:38:39Z</time>
      </trkpt>
      <trkpt lat="44.26085" lon="5.72437">
        <ele>656</ele>
        <time>2019-03-27T13:38:40Z</time>
      </trkpt>
      <trkpt lat="44.26083" lon="5.72427">
        <ele>656</ele>
        <time>2019-03-27T13:38:41Z</time>
      </trkpt>
      <trkpt lat="44.2608" lon="5.72418">
        <ele>656</ele>
        <time>2019-03-27T13:38:42Z</time>
      </trkpt>
      <trkpt lat="44.26077" lon="5.72408">
        <ele>656</ele>
        <time>2019-03-27T13:38:43Z</time>
      </trkpt>
      <trkpt lat="44.26074" lon="5.724">
        <ele>656</ele>
        <time>2019-03-27T13:38:44Z</time>
      </trkpt>
      <trkpt lat="44.26071" lon="5.72391">
        <ele>656</ele>
        <time>2019-03-27T13:38:45Z</time>
      </trkpt>
      <trkpt lat="44.26067" lon="5.72383">
        <ele>656</ele>
        <time>2019-03-27T13:38:46Z</time>
      </trkpt>
      <trkpt lat="44.26063" lon="5.72374">
        <ele>656</ele>
        <time>2019-03-27T13:38:47Z</time>
      </trkpt>
      <trkpt lat="44.26059" lon="5.72366">
        <ele>656</ele>
        <time>2019-03-27T13:38:48Z</time>
      </trkpt>
      <trkpt lat="44.26056" lon="5.72358">
        <ele>656</ele>
        <time>2019-03-27T13:38:49Z</time>
      </trkpt>
      <trkpt lat="44.26052" lon="5.72351">
        <ele>656</ele>
        <time>2019-03-27T13:38:50Z</time>
      </trkpt>
      <trkpt lat="44.26048" lon="5.72343">
        <ele>656</ele>
        <time>2019-03-27T13:38:51Z</time>
      </trkpt>
      <trkpt lat="44.26044" lon="5.72335">
        <ele>656</ele>
        <time>2019-03-27T13:38:52Z</time>
      </trkpt>
      <trkpt lat="44.26041" lon="5.72328">
        <ele>656</ele>
        <time>2019-03-27T13:38:53Z</time>
      </trkpt>
      <trkpt lat="44.26037" lon="5.7232">
        <ele>656</ele>
        <time>2019-03-27T13:38:54Z</time>
      </trkpt>
      <trkpt lat="44.26033" lon="5.72312">
        <ele>656</ele>
        <time>2019-03-27T13:38:55Z</time>
      </trkpt>
      <trkpt lat="44.26029" lon="5.72305">
        <ele>656</ele>
        <time>2019-03-27T13:38:56Z</time>
      </trkpt>
      <trkpt lat="44.26025" lon="5.72298">
        <ele>656</ele>
        <time>2019-03-27T13:38:57Z</time>
      </trkpt>
      <trkpt lat="44.26022" lon="5.7229">
        <ele>656</ele>
        <time>2019-03-27T13:38:58Z</time>
      </trkpt>
      <trkpt lat="44.26018" lon="5.72283">
        <ele>656</ele>
        <time>2019-03-27T13:38:59Z</time>
      </trkpt>
      <trkpt lat="44.26014" lon="5.72275">
        <ele>656</ele>
        <time>2019-03-27T13:39:00Z</time>
      </trkpt>
      <trkpt lat="44.26011" lon="5.72267">
        <ele>656</ele>
        <time>2019-03-27T13:39:01Z</time>
      </trkpt>
      <trkpt lat="44.26007" lon="5.72259">
        <ele>656</ele>
        <time>2019-03-27T13:39:02Z</time>
      </trkpt>
      <trkpt lat="44.26003" lon="5.72252">
        <ele>656</ele>
        <time>2019-03-27T13:39:03Z</time>
      </trkpt>
      <trkpt lat="44.25999" lon="5.72244">
        <ele>656</ele>
        <time>2019-03-27T13:39:04Z</time>
      </trkpt>
      <trkpt lat="44.25996" lon="5.72236">
        <ele>656</ele>
        <time>2019-03-27T13:39:05Z</time>
      </trkpt>
      <trkpt lat="44.25992" lon="5.72229">
        <ele>656</ele>
        <time>2019-03-27T13:39:06Z</time>
      </trkpt>
      <trkpt lat="44.25988" lon="5.72221">
        <ele>656</ele>
        <time>2019-03-27T13:39:07Z</time>
      </trkpt>
      <trkpt lat="44.25984" lon="5.72214">
        <ele>656</ele>
        <time>2019-03-27T13:39:08Z</time>
      </trkpt>
      <trkpt lat="44.2598" lon="5.72206">
        <ele>656</ele>
        <time>2019-03-27T13:39:09Z</time>
      </trkpt>
      <trkpt lat="44.25977" lon="5.72199">
        <ele>656</ele>
        <time>2019-03-27T13:39:10Z</time>
      </trkpt>
      <trkpt lat="44.25973" lon="5.72191">
        <ele>657</ele>
        <time>2019-03-27T13:39:11Z</time>
      </trkpt>
      <trkpt lat="44.25969" lon="5.72184">
        <ele>657</ele>
        <time>2019-03-27T13:39:12Z</time>
      </trkpt>
      <trkpt lat="44.25965" lon="5.72176">
        <ele>657</ele>
        <time>2019-03-27T13:39:13Z</time>
      </trkpt>
      <trkpt lat="44.25961" lon="5.72168">
        <ele>657</ele>
        <time>2019-03-27T13:39:14Z</time>
      </trkpt>
      <trkpt lat="44.25957" lon="5.7216">
        <ele>657</ele>
        <time>2019-03-27T13:39:15Z</time>
      </trkpt>
      <trkpt lat="44.25953" lon="5.72152">
        <ele>657</ele>
        <time>2019-03-27T13:39:16Z</time>
      </trkpt>
      <trkpt lat="44.25949" lon="5.72144">
        <ele>657</ele>
        <time>2019-03-27T13:39:17Z</time>
      </trkpt>
      <trkpt lat="44.25944" lon="5.72136">
        <ele>657</ele>
        <time>2019-03-27T13:39:18Z</time>
      </trkpt>
      <trkpt lat="44.2594" lon="5.72128">
        <ele>657</ele>
        <time>2019-03-27T13:39:19Z</time>
      </trkpt>
      <trkpt lat="44.25935" lon="5.7212">
        <ele>657</ele>
        <time>2019-03-27T13:39:20Z</time>
      </trkpt>
      <trkpt lat="44.2593" lon="5.72112">
        <ele>657</ele>
        <time>2019-03-27T13:39:21Z</time>
      </trkpt>
      <trkpt lat="44.25925" lon="5.72105">
        <ele>657</ele>
        <time>2019-03-27T13:39:22Z</time>
      </trkpt>
      <trkpt lat="44.2592" lon="5.72097">
        <ele>657</ele>
        <time>2019-03-27T13:39:23Z</time>
      </trkpt>
      <trkpt lat="44.25915" lon="5.72089">
        <ele>657</ele>
        <time>2019-03-27T13:39:24Z</time>
      </trkpt>
      <trkpt lat="44.25909" lon="5.72081">
        <ele>657</ele>
        <time>2019-03-27T13:39:25Z</time>
      </trkpt>
      <trkpt lat="44.25903" lon="5.72073">
        <ele>657</ele>
        <time>2019-03-27T13:39:26Z</time>
      </trkpt>
      <trkpt lat="44.25898" lon="5.72066">
        <ele>657</ele>
        <time>2019-03-27T13:39:27Z</time>
      </trkpt>
      <trkpt lat="44.25891" lon="5.7206">
        <ele>657</ele>
        <time>2019-03-27T13:39:28Z</time>
      </trkpt>
      <trkpt lat="44.25885" lon="5.72054">
        <ele>657</ele>
        <time>2019-03-27T13:39:29Z</time>
      </trkpt>
      <trkpt lat="44.25877" lon="5.72049">
        <ele>657</ele>
        <time>2019-03-27T13:39:30Z</time>
      </trkpt>
      <trkpt lat="44.25871" lon="5.72045">
        <ele>657</ele>
        <time>2019-03-27T13:39:31Z</time>
      </trkpt>
      <trkpt lat="44.25864" lon="5.7204">
        <ele>657</ele>
        <time>2019-03-27T13:39:32Z</time>
      </trkpt>
      <trkpt lat="44.25857" lon="5.72036">
        <ele>657</ele>
        <time>2019-03-27T13:39:33Z</time>
      </trkpt>
      <trkpt lat="44.2585" lon="5.72031">
        <ele>657</ele>
        <time>2019-03-27T13:39:34Z</time>
      </trkpt>
      <trkpt lat="44.25843" lon="5.72027">
        <ele>657</ele>
        <time>2019-03-27T13:39:35Z</time>
      </trkpt>
      <trkpt lat="44.25837" lon="5.72022">
        <ele>657</ele>
        <time>2019-03-27T13:39:36Z</time>
      </trkpt>
      <trkpt lat="44.2583" lon="5.72018">
        <ele>657</ele>
        <time>2019-03-27T13:39:37Z</time>
      </trkpt>
      <trkpt lat="44.25824" lon="5.72014">
        <ele>657</ele>
        <time>2019-03-27T13:39:38Z</time>
      </trkpt>
      <trkpt lat="44.25817" lon="5.72009">
        <ele>657</ele>
        <time>2019-03-27T13:39:39Z</time>
      </trkpt>
      <trkpt lat="44.2581" lon="5.72005">
        <ele>657</ele>
        <time>2019-03-27T13:39:40Z</time>
      </trkpt>
      <trkpt lat="44.25804" lon="5.72">
        <ele>657</ele>
        <time>2019-03-27T13:39:41Z</time>
      </trkpt>
      <trkpt lat="44.25797" lon="5.71995">
        <ele>657</ele>
        <time>2019-03-27T13:39:42Z</time>
      </trkpt>
      <trkpt lat="44.2579" lon="5.71991">
        <ele>657</ele>
        <time>2019-03-27T13:39:43Z</time>
      </trkpt>
      <trkpt lat="44.25784" lon="5.71987">
        <ele>657</ele>
        <time>2019-03-27T13:39:44Z</time>
      </trkpt>
      <trkpt lat="44.25777" lon="5.71982">
        <ele>657</ele>
        <time>2019-03-27T13:39:45Z</time>
      </trkpt>
      <trkpt lat="44.25771" lon="5.71978">
        <ele>657</ele>
        <time>2019-03-27T13:39:46Z</time>
      </trkpt>
      <trkpt lat="44.25765" lon="5.71973">
        <ele>657</ele>
        <time>2019-03-27T13:39:47Z</time>
      </trkpt>
      <trkpt lat="44.25758" lon="5.71968">
        <ele>657</ele>
        <time>2019-03-27T13:39:48Z</time>
      </trkpt>
      <trkpt lat="44.25753" lon="5.71964">
        <ele>657</ele>
        <time>2019-03-27T13:39:49Z</time>
      </trkpt>
      <trkpt lat="44.25746" lon="5.71959">
        <ele>657</ele>
        <time>2019-03-27T13:39:50Z</time>
      </trkpt>
      <trkpt lat="44.2574" lon="5.71954">
        <ele>657</ele>
        <time>2019-03-27T13:39:51Z</time>
      </trkpt>
      <trkpt lat="44.25734" lon="5.71948">
        <ele>657</ele>
        <time>2019-03-27T13:39:52Z</time>
      </trkpt>
      <trkpt lat="44.25729" lon="5.71943">
        <ele>657</ele>
        <time>2019-03-27T13:39:53Z</time>
      </trkpt>
      <trkpt lat="44.25723" lon="5.71938">
        <ele>657</ele>
        <time>2019-03-27T13:39:54Z</time>
      </trkpt>
      <trkpt lat="44.25717" lon="5.71932">
        <ele>657</ele>
        <time>2019-03-27T13:39:55Z</time>
      </trkpt>
      <trkpt lat="44.25711" lon="5.71927">
        <ele>657</ele>
        <time>2019-03-27T13:39:56Z</time>
      </trkpt>
      <trkpt lat="44.25705" lon="5.71923">
        <ele>657</ele>
        <time>2019-03-27T13:39:57Z</time>
      </trkpt>
      <trkpt lat="44.25699" lon="5.71918">
        <ele>657</ele>
        <time>2019-03-27T13:39:58Z</time>
      </trkpt>
      <trkpt lat="44.25693" lon="5.71915">
        <ele>657</ele>
        <time>2019-03-27T13:39:59Z</time>
      </trkpt>
      <trkpt lat="44.25687" lon="5.71911">
        <ele>657</ele>
        <time>2019-03-27T13:40:00Z</time>
      </trkpt>
      <trkpt lat="44.2568" lon="5.71908">
        <ele>657</ele>
        <time>2019-03-27T13:40:01Z</time>
      </trkpt>
      <trkpt lat="44.25674" lon="5.71906">
        <ele>657</ele>
        <time>2019-03-27T13:40:02Z</time>
      </trkpt>
      <trkpt lat="44.25668" lon="5.71903">
        <ele>657</ele>
        <time>2019-03-27T13:40:03Z</time>
      </trkpt>
      <trkpt lat="44.25661" lon="5.719">
        <ele>657</ele>
        <time>2019-03-27T13:40:04Z</time>
      </trkpt>
      <trkpt lat="44.25654" lon="5.71897">
        <ele>657</ele>
        <time>2019-03-27T13:40:05Z</time>
      </trkpt>
      <trkpt lat="44.25648" lon="5.71893">
        <ele>657</ele>
        <time>2019-03-27T13:40:06Z</time>
      </trkpt>
      <trkpt lat="44.25642" lon="5.71888">
        <ele>657</ele>
        <time>2019-03-27T13:40:07Z</time>
      </trkpt>
      <trkpt lat="44.25636" lon="5.71884">
        <ele>657</ele>
        <time>2019-03-27T13:40:08Z</time>
      </trkpt>
      <trkpt lat="44.2563" lon="5.71879">
        <ele>657</ele>
        <time>2019-03-27T13:40:09Z</time>
      </trkpt>
      <trkpt lat="44.25625" lon="5.71874">
        <ele>657</ele>
        <time>2019-03-27T13:40:10Z</time>
      </trkpt>
      <trkpt lat="44.25619" lon="5.71869">
        <ele>657</ele>
        <time>2019-03-27T13:40:11Z</time>
      </trkpt>
      <trkpt lat="44.25614" lon="5.71864">
        <ele>657</ele>
        <time>2019-03-27T13:40:12Z</time>
      </trkpt>
      <trkpt lat="44.25609" lon="5.71859">
        <ele>657</ele>
        <time>2019-03-27T13:40:13Z</time>
      </trkpt>
      <trkpt lat="44.25603" lon="5.71854">
        <ele>657</ele>
        <time>2019-03-27T13:40:14Z</time>
      </trkpt>
      <trkpt lat="44.25599" lon="5.71849">
        <ele>658</ele>
        <time>2019-03-27T13:40:15Z</time>
      </trkpt>
      <trkpt lat="44.25593" lon="5.71844">
        <ele>658</ele>
        <time>2019-03-27T13:40:16Z</time>
      </trkpt>
      <trkpt lat="44.25588" lon="5.71839">
        <ele>658</ele>
        <time>2019-03-27T13:40:17Z</time>
      </trkpt>
      <trkpt lat="44.25584" lon="5.71834">
        <ele>658</ele>
        <time>2019-03-27T13:40:18Z</time>
      </trkpt>
      <trkpt lat="44.25579" lon="5.71829">
        <ele>658</ele>
        <time>2019-03-27T13:40:19Z</time>
      </trkpt>
      <trkpt lat="44.25573" lon="5.71824">
        <ele>658</ele>
        <time>2019-03-27T13:40:20Z</time>
      </trkpt>
      <trkpt lat="44.25568" lon="5.71819">
        <ele>658</ele>
        <time>2019-03-27T13:40:21Z</time>
      </trkpt>
      <trkpt lat="44.25563" lon="5.71814">
        <ele>658</ele>
        <time>2019-03-27T13:40:22Z</time>
      </trkpt>
      <trkpt lat="44.25558" lon="5.7181">
        <ele>658</ele>
        <time>2019-03-27T13:40:23Z</time>
      </trkpt>
      <trkpt lat="44.25553" lon="5.71805">
        <ele>658</ele>
        <time>2019-03-27T13:40:24Z</time>
      </trkpt>
      <trkpt lat="44.25548" lon="5.71801">
        <ele>658</ele>
        <time>2019-03-27T13:40:25Z</time>
      </trkpt>
      <trkpt lat="44.25543" lon="5.71797">
        <ele>658</ele>
        <time>2019-03-27T13:40:26Z</time>
      </trkpt>
      <trkpt lat="44.25538" lon="5.71793">
        <ele>658</ele>
        <time>2019-03-27T13:40:27Z</time>
      </trkpt>
      <trkpt lat="44.25533" lon="5.71789">
        <ele>658</ele>
        <time>2019-03-27T13:40:28Z</time>
      </trkpt>
      <trkpt lat="44.25528" lon="5.71785">
        <ele>659</ele>
        <time>2019-03-27T13:40:29Z</time>
      </trkpt>
      <trkpt lat="44.25523" lon="5.71781">
        <ele>659</ele>
        <time>2019-03-27T13:40:30Z</time>
      </trkpt>
      <trkpt lat="44.25517" lon="5.71778">
        <ele>659</ele>
        <time>2019-03-27T13:40:31Z</time>
      </trkpt>
      <trkpt lat="44.25512" lon="5.71775">
        <ele>659</ele>
        <time>2019-03-27T13:40:32Z</time>
      </trkpt>
      <trkpt lat="44.25507" lon="5.71771">
        <ele>659</ele>
        <time>2019-03-27T13:40:33Z</time>
      </trkpt>
      <trkpt lat="44.25501" lon="5.71768">
        <ele>659</ele>
        <time>2019-03-27T13:40:34Z</time>
      </trkpt>
      <trkpt lat="44.25496" lon="5.71765">
        <ele>659</ele>
        <time>2019-03-27T13:40:35Z</time>
      </trkpt>
      <trkpt lat="44.2549" lon="5.71761">
        <ele>659</ele>
        <time>2019-03-27T13:40:36Z</time>
      </trkpt>
      <trkpt lat="44.25484" lon="5.71758">
        <ele>659</ele>
        <time>2019-03-27T13:40:37Z</time>
      </trkpt>
      <trkpt lat="44.25479" lon="5.71754">
        <ele>659</ele>
        <time>2019-03-27T13:40:38Z</time>
      </trkpt>
      <trkpt lat="44.25473" lon="5.7175">
        <ele>659</ele>
        <time>2019-03-27T13:40:39Z</time>
      </trkpt>
      <trkpt lat="44.25468" lon="5.71746">
        <ele>659</ele>
        <time>2019-03-27T13:40:40Z</time>
      </trkpt>
      <trkpt lat="44.25462" lon="5.71742">
        <ele>659</ele>
        <time>2019-03-27T13:40:41Z</time>
      </trkpt>
      <trkpt lat="44.25456" lon="5.71738">
        <ele>659</ele>
        <time>2019-03-27T13:40:42Z</time>
      </trkpt>
      <trkpt lat="44.25451" lon="5.71735">
        <ele>659</ele>
        <time>2019-03-27T13:40:43Z</time>
      </trkpt>
      <trkpt lat="44.25445" lon="5.71731">
        <ele>659</ele>
        <time>2019-03-27T13:40:44Z</time>
      </trkpt>
      <trkpt lat="44.2544" lon="5.71727">
        <ele>659</ele>
        <time>2019-03-27T13:40:45Z</time>
      </trkpt>
      <trkpt lat="44.25434" lon="5.71723">
        <ele>659</ele>
        <time>2019-03-27T13:40:46Z</time>
      </trkpt>
      <trkpt lat="44.25428" lon="5.7172">
        <ele>659</ele>
        <time>2019-03-27T13:40:47Z</time>
      </trkpt>
      <trkpt lat="44.25423" lon="5.71716">
        <ele>659</ele>
        <time>2019-03-27T13:40:48Z</time>
      </trkpt>
      <trkpt lat="44.25417" lon="5.71712">
        <ele>659</ele>
        <time>2019-03-27T13:40:49Z</time>
      </trkpt>
      <trkpt lat="44.25411" lon="5.71709">
        <ele>659</ele>
        <time>2019-03-27T13:40:50Z</time>
      </trkpt>
      <trkpt lat="44.25405" lon="5.71706">
        <ele>659</ele>
        <time>2019-03-27T13:40:51Z</time>
      </trkpt>
      <trkpt lat="44.25399" lon="5.71703">
        <ele>659</ele>
        <time>2019-03-27T13:40:52Z</time>
      </trkpt>
      <trkpt lat="44.25393" lon="5.717">
        <ele>659</ele>
        <time>2019-03-27T13:40:53Z</time>
      </trkpt>
      <trkpt lat="44.25387" lon="5.71697">
        <ele>659</ele>
        <time>2019-03-27T13:40:55Z</time>
      </trkpt>
      <trkpt lat="44.25381" lon="5.71694">
        <ele>659</ele>
        <time>2019-03-27T13:40:55Z</time>
      </trkpt>
      <trkpt lat="44.25375" lon="5.7169">
        <ele>659</ele>
        <time>2019-03-27T13:40:56Z</time>
      </trkpt>
      <trkpt lat="44.2537" lon="5.71686">
        <ele>659</ele>
        <time>2019-03-27T13:40:57Z</time>
      </trkpt>
      <trkpt lat="44.25364" lon="5.71681">
        <ele>659</ele>
        <time>2019-03-27T13:40:58Z</time>
      </trkpt>
      <trkpt lat="44.25358" lon="5.71677">
        <ele>659</ele>
        <time>2019-03-27T13:40:59Z</time>
      </trkpt>
      <trkpt lat="44.25353" lon="5.71672">
        <ele>659</ele>
        <time>2019-03-27T13:41:00Z</time>
      </trkpt>
      <trkpt lat="44.25348" lon="5.71667">
        <ele>659</ele>
        <time>2019-03-27T13:41:01Z</time>
      </trkpt>
      <trkpt lat="44.25342" lon="5.71662">
        <ele>659</ele>
        <time>2019-03-27T13:41:02Z</time>
      </trkpt>
      <trkpt lat="44.25337" lon="5.71656">
        <ele>659</ele>
        <time>2019-03-27T13:41:03Z</time>
      </trkpt>
      <trkpt lat="44.25332" lon="5.71651">
        <ele>659</ele>
        <time>2019-03-27T13:41:04Z</time>
      </trkpt>
      <trkpt lat="44.25327" lon="5.71645">
        <ele>659</ele>
        <time>2019-03-27T13:41:05Z</time>
      </trkpt>
      <trkpt lat="44.25322" lon="5.71638">
        <ele>659</ele>
        <time>2019-03-27T13:41:06Z</time>
      </trkpt>
      <trkpt lat="44.25317" lon="5.71632">
        <ele>659</ele>
        <time>2019-03-27T13:41:07Z</time>
      </trkpt>
      <trkpt lat="44.25312" lon="5.71627">
        <ele>659</ele>
        <time>2019-03-27T13:41:08Z</time>
      </trkpt>
      <trkpt lat="44.25307" lon="5.71621">
        <ele>659</ele>
        <time>2019-03-27T13:41:09Z</time>
      </trkpt>
      <trkpt lat="44.25302" lon="5.71615">
        <ele>659</ele>
        <time>2019-03-27T13:41:10Z</time>
      </trkpt>
      <trkpt lat="44.25297" lon="5.71609">
        <ele>659</ele>
        <time>2019-03-27T13:41:11Z</time>
      </trkpt>
      <trkpt lat="44.25292" lon="5.71604">
        <ele>659</ele>
        <time>2019-03-27T13:41:12Z</time>
      </trkpt>
      <trkpt lat="44.25287" lon="5.71598">
        <ele>659</ele>
        <time>2019-03-27T13:41:13Z</time>
      </trkpt>
      <trkpt lat="44.25283" lon="5.71592">
        <ele>659</ele>
        <time>2019-03-27T13:41:14Z</time>
      </trkpt>
      <trkpt lat="44.25278" lon="5.71587">
        <ele>659</ele>
        <time>2019-03-27T13:41:15Z</time>
      </trkpt>
      <trkpt lat="44.25273" lon="5.71581">
        <ele>659</ele>
        <time>2019-03-27T13:41:16Z</time>
      </trkpt>
      <trkpt lat="44.25268" lon="5.71576">
        <ele>659</ele>
        <time>2019-03-27T13:41:17Z</time>
      </trkpt>
      <trkpt lat="44.25264" lon="5.7157">
        <ele>659</ele>
        <time>2019-03-27T13:41:18Z</time>
      </trkpt>
      <trkpt lat="44.25259" lon="5.71565">
        <ele>659</ele>
        <time>2019-03-27T13:41:19Z</time>
      </trkpt>
      <trkpt lat="44.25254" lon="5.7156">
        <ele>659</ele>
        <time>2019-03-27T13:41:20Z</time>
      </trkpt>
      <trkpt lat="44.25249" lon="5.71555">
        <ele>659</ele>
        <time>2019-03-27T13:41:21Z</time>
      </trkpt>
      <trkpt lat="44.25244" lon="5.7155">
        <ele>659</ele>
        <time>2019-03-27T13:41:22Z</time>
      </trkpt>
      <trkpt lat="44.2524" lon="5.71545">
        <ele>659</ele>
        <time>2019-03-27T13:41:23Z</time>
      </trkpt>
      <trkpt lat="44.25235" lon="5.7154">
        <ele>660</ele>
        <time>2019-03-27T13:41:24Z</time>
      </trkpt>
      <trkpt lat="44.2523" lon="5.71535">
        <ele>660</ele>
        <time>2019-03-27T13:41:25Z</time>
      </trkpt>
      <trkpt lat="44.25225" lon="5.7153">
        <ele>660</ele>
        <time>2019-03-27T13:41:26Z</time>
      </trkpt>
      <trkpt lat="44.2522" lon="5.71525">
        <ele>660</ele>
        <time>2019-03-27T13:41:27Z</time>
      </trkpt>
      <trkpt lat="44.25215" lon="5.7152">
        <ele>660</ele>
        <time>2019-03-27T13:41:28Z</time>
      </trkpt>
      <trkpt lat="44.2521" lon="5.71515">
        <ele>660</ele>
        <time>2019-03-27T13:41:29Z</time>
      </trkpt>
      <trkpt lat="44.25205" lon="5.7151">
        <ele>660</ele>
        <time>2019-03-27T13:41:30Z</time>
      </trkpt>
      <trkpt lat="44.252" lon="5.71505">
        <ele>660</ele>
        <time>2019-03-27T13:41:31Z</time>
      </trkpt>
      <trkpt lat="44.25195" lon="5.71499">
        <ele>660</ele>
        <time>2019-03-27T13:41:32Z</time>
      </trkpt>
      <trkpt lat="44.2519" lon="5.71494">
        <ele>660</ele>
        <time>2019-03-27T13:41:33Z</time>
      </trkpt>
      <trkpt lat="44.25184" lon="5.71489">
        <ele>660</ele>
        <time>2019-03-27T13:41:34Z</time>
      </trkpt>
      <trkpt lat="44.25179" lon="5.71483">
        <ele>660</ele>
        <time>2019-03-27T13:41:35Z</time>
      </trkpt>
      <trkpt lat="44.25174" lon="5.71478">
        <ele>661</ele>
        <time>2019-03-27T13:41:36Z</time>
      </trkpt>
      <trkpt lat="44.25169" lon="5.71472">
        <ele>661</ele>
        <time>2019-03-27T13:41:37Z</time>
      </trkpt>
      <trkpt lat="44.25163" lon="5.71467">
        <ele>661</ele>
        <time>2019-03-27T13:41:38Z</time>
      </trkpt>
      <trkpt lat="44.25158" lon="5.71461">
        <ele>661</ele>
        <time>2019-03-27T13:41:39Z</time>
      </trkpt>
      <trkpt lat="44.25152" lon="5.71456">
        <ele>661</ele>
        <time>2019-03-27T13:41:40Z</time>
      </trkpt>
      <trkpt lat="44.25147" lon="5.7145">
        <ele>661</ele>
        <time>2019-03-27T13:41:41Z</time>
      </trkpt>
      <trkpt lat="44.25142" lon="5.71444">
        <ele>661</ele>
        <time>2019-03-27T13:41:42Z</time>
      </trkpt>
      <trkpt lat="44.25136" lon="5.71438">
        <ele>661</ele>
        <time>2019-03-27T13:41:43Z</time>
      </trkpt>
      <trkpt lat="44.25131" lon="5.71432">
        <ele>661</ele>
        <time>2019-03-27T13:41:44Z</time>
      </trkpt>
      <trkpt lat="44.25126" lon="5.71424">
        <ele>661</ele>
        <time>2019-03-27T13:41:45Z</time>
      </trkpt>
      <trkpt lat="44.25121" lon="5.71416">
        <ele>661</ele>
        <time>2019-03-27T13:41:46Z</time>
      </trkpt>
      <trkpt lat="44.25116" lon="5.71407">
        <ele>661</ele>
        <time>2019-03-27T13:41:47Z</time>
      </trkpt>
      <trkpt lat="44.25111" lon="5.71397">
        <ele>661</ele>
        <time>2019-03-27T13:41:48Z</time>
      </trkpt>
      <trkpt lat="44.25107" lon="5.71387">
        <ele>661</ele>
        <time>2019-03-27T13:41:49Z</time>
      </trkpt>
      <trkpt lat="44.25102" lon="5.71377">
        <ele>661</ele>
        <time>2019-03-27T13:41:50Z</time>
      </trkpt>
      <trkpt lat="44.25098" lon="5.71366">
        <ele>661</ele>
        <time>2019-03-27T13:41:51Z</time>
      </trkpt>
      <trkpt lat="44.25093" lon="5.71355">
        <ele>661</ele>
        <time>2019-03-27T13:41:52Z</time>
      </trkpt>
      <trkpt lat="44.25089" lon="5.71345">
        <ele>661</ele>
        <time>2019-03-27T13:41:53Z</time>
      </trkpt>
      <trkpt lat="44.25084" lon="5.71335">
        <ele>661</ele>
        <time>2019-03-27T13:41:54Z</time>
      </trkpt>
      <trkpt lat="44.2508" lon="5.71324">
        <ele>661</ele>
        <time>2019-03-27T13:41:55Z</time>
      </trkpt>
      <trkpt lat="44.25075" lon="5.71314">
        <ele>661</ele>
        <time>2019-03-27T13:41:56Z</time>
      </trkpt>
      <trkpt lat="44.25071" lon="5.71304">
        <ele>661</ele>
        <time>2019-03-27T13:41:57Z</time>
      </trkpt>
      <trkpt lat="44.25067" lon="5.71295">
        <ele>661</ele>
        <time>2019-03-27T13:41:58Z</time>
      </trkpt>
      <trkpt lat="44.25063" lon="5.71286">
        <ele>661</ele>
        <time>2019-03-27T13:41:59Z</time>
      </trkpt>
      <trkpt lat="44.25059" lon="5.71277">
        <ele>661</ele>
        <time>2019-03-27T13:42:00Z</time>
      </trkpt>
      <trkpt lat="44.25056" lon="5.71268">
        <ele>661</ele>
        <time>2019-03-27T13:42:01Z</time>
      </trkpt>
      <trkpt lat="44.25053" lon="5.7126">
        <ele>661</ele>
        <time>2019-03-27T13:42:02Z</time>
      </trkpt>
      <trkpt lat="44.2505" lon="5.71251">
        <ele>661</ele>
        <time>2019-03-27T13:42:03Z</time>
      </trkpt>
      <trkpt lat="44.25047" lon="5.71243">
        <ele>661</ele>
        <time>2019-03-27T13:42:04Z</time>
      </trkpt>
      <trkpt lat="44.25044" lon="5.71234">
        <ele>661</ele>
        <time>2019-03-27T13:42:05Z</time>
      </trkpt>
      <trkpt lat="44.2504" lon="5.71226">
        <ele>661</ele>
        <time>2019-03-27T13:42:06Z</time>
      </trkpt>
      <trkpt lat="44.25037" lon="5.71218">
        <ele>661</ele>
        <time>2019-03-27T13:42:07Z</time>
      </trkpt>
      <trkpt lat="44.25032" lon="5.7121">
        <ele>661</ele>
        <time>2019-03-27T13:42:08Z</time>
      </trkpt>
      <trkpt lat="44.25028" lon="5.71203">
        <ele>661</ele>
        <time>2019-03-27T13:42:09Z</time>
      </trkpt>
      <trkpt lat="44.25024" lon="5.71196">
        <ele>661</ele>
        <time>2019-03-27T13:42:10Z</time>
      </trkpt>
      <trkpt lat="44.2502" lon="5.7119">
        <ele>662</ele>
        <time>2019-03-27T13:42:11Z</time>
      </trkpt>
      <trkpt lat="44.25016" lon="5.71183">
        <ele>662</ele>
        <time>2019-03-27T13:42:12Z</time>
      </trkpt>
      <trkpt lat="44.25011" lon="5.71177">
        <ele>663</ele>
        <time>2019-03-27T13:42:13Z</time>
      </trkpt>
      <trkpt lat="44.25007" lon="5.71171">
        <ele>663</ele>
        <time>2019-03-27T13:42:14Z</time>
      </trkpt>
      <trkpt lat="44.25002" lon="5.71164">
        <ele>664</ele>
        <time>2019-03-27T13:42:15Z</time>
      </trkpt>
      <trkpt lat="44.24998" lon="5.71158">
        <ele>664</ele>
        <time>2019-03-27T13:42:16Z</time>
      </trkpt>
      <trkpt lat="44.24993" lon="5.71151">
        <ele>665</ele>
        <time>2019-03-27T13:42:17Z</time>
      </trkpt>
      <trkpt lat="44.24989" lon="5.71145">
        <ele>665</ele>
        <time>2019-03-27T13:42:18Z</time>
      </trkpt>
      <trkpt lat="44.24985" lon="5.7114">
        <ele>665</ele>
        <time>2019-03-27T13:42:19Z</time>
      </trkpt>
      <trkpt lat="44.24981" lon="5.71134">
        <ele>665</ele>
        <time>2019-03-27T13:42:20Z</time>
      </trkpt>
      <trkpt lat="44.24977" lon="5.71129">
        <ele>666</ele>
        <time>2019-03-27T13:42:21Z</time>
      </trkpt>
      <trkpt lat="44.24973" lon="5.71124">
        <ele>666</ele>
        <time>2019-03-27T13:42:22Z</time>
      </trkpt>
      <trkpt lat="44.24969" lon="5.71118">
        <ele>666</ele>
        <time>2019-03-27T13:42:23Z</time>
      </trkpt>
      <trkpt lat="44.24966" lon="5.71113">
        <ele>666</ele>
        <time>2019-03-27T13:42:24Z</time>
      </trkpt>
      <trkpt lat="44.24962" lon="5.71108">
        <ele>667</ele>
        <time>2019-03-27T13:42:25Z</time>
      </trkpt>
      <trkpt lat="44.24958" lon="5.71103">
        <ele>667</ele>
        <time>2019-03-27T13:42:26Z</time>
      </trkpt>
      <trkpt lat="44.24955" lon="5.71098">
        <ele>667</ele>
        <time>2019-03-27T13:42:27Z</time>
      </trkpt>
      <trkpt lat="44.24951" lon="5.71093">
        <ele>667</ele>
        <time>2019-03-27T13:42:28Z</time>
      </trkpt>
      <trkpt lat="44.24947" lon="5.71088">
        <ele>667</ele>
        <time>2019-03-27T13:42:29Z</time>
      </trkpt>
      <trkpt lat="44.24944" lon="5.71082">
        <ele>668</ele>
        <time>2019-03-27T13:42:30Z</time>
      </trkpt>
      <trkpt lat="44.2494" lon="5.71077">
        <ele>668</ele>
        <time>2019-03-27T13:42:31Z</time>
      </trkpt>
      <trkpt lat="44.24936" lon="5.71072">
        <ele>668</ele>
        <time>2019-03-27T13:42:32Z</time>
      </trkpt>
      <trkpt lat="44.24933" lon="5.71067">
        <ele>668</ele>
        <time>2019-03-27T13:42:33Z</time>
      </trkpt>
      <trkpt lat="44.24929" lon="5.71062">
        <ele>669</ele>
        <time>2019-03-27T13:42:34Z</time>
      </trkpt>
      <trkpt lat="44.24926" lon="5.71058">
        <ele>669</ele>
        <time>2019-03-27T13:42:35Z</time>
      </trkpt>
      <trkpt lat="44.24923" lon="5.71053">
        <ele>669</ele>
        <time>2019-03-27T13:42:36Z</time>
      </trkpt>
      <trkpt lat="44.24919" lon="5.71048">
        <ele>669</ele>
        <time>2019-03-27T13:42:37Z</time>
      </trkpt>
      <trkpt lat="44.24916" lon="5.71043">
        <ele>669</ele>
        <time>2019-03-27T13:42:38Z</time>
      </trkpt>
      <trkpt lat="44.24913" lon="5.71039">
        <ele>669</ele>
        <time>2019-03-27T13:42:39Z</time>
      </trkpt>
      <trkpt lat="44.2491" lon="5.71034">
        <ele>669</ele>
        <time>2019-03-27T13:42:40Z</time>
      </trkpt>
      <trkpt lat="44.24907" lon="5.7103">
        <ele>669</ele>
        <time>2019-03-27T13:42:41Z</time>
      </trkpt>
      <trkpt lat="44.24903" lon="5.71025">
        <ele>669</ele>
        <time>2019-03-27T13:42:42Z</time>
      </trkpt>
      <trkpt lat="44.249" lon="5.7102">
        <ele>669</ele>
        <time>2019-03-27T13:42:43Z</time>
      </trkpt>
      <trkpt lat="44.24897" lon="5.71016">
        <ele>670</ele>
        <time>2019-03-27T13:42:44Z</time>
      </trkpt>
      <trkpt lat="44.24893" lon="5.71011">
        <ele>670</ele>
        <time>2019-03-27T13:42:45Z</time>
      </trkpt>
      <trkpt lat="44.2489" lon="5.71006">
        <ele>670</ele>
        <time>2019-03-27T13:42:46Z</time>
      </trkpt>
      <trkpt lat="44.24886" lon="5.71002">
        <ele>670</ele>
        <time>2019-03-27T13:42:47Z</time>
      </trkpt>
      <trkpt lat="44.24882" lon="5.70997">
        <ele>670</ele>
        <time>2019-03-27T13:42:48Z</time>
      </trkpt>
      <trkpt lat="44.24878" lon="5.70993">
        <ele>670</ele>
        <time>2019-03-27T13:42:49Z</time>
      </trkpt>
      <trkpt lat="44.24874" lon="5.70989">
        <ele>670</ele>
        <time>2019-03-27T13:42:50Z</time>
      </trkpt>
      <trkpt lat="44.2487" lon="5.70984">
        <ele>670</ele>
        <time>2019-03-27T13:42:51Z</time>
      </trkpt>
      <trkpt lat="44.24866" lon="5.70979">
        <ele>670</ele>
        <time>2019-03-27T13:42:52Z</time>
      </trkpt>
      <trkpt lat="44.24862" lon="5.70975">
        <ele>670</ele>
        <time>2019-03-27T13:42:53Z</time>
      </trkpt>
      <trkpt lat="44.24857" lon="5.7097">
        <ele>670</ele>
        <time>2019-03-27T13:42:54Z</time>
      </trkpt>
      <trkpt lat="44.24853" lon="5.70966">
        <ele>670</ele>
        <time>2019-03-27T13:42:55Z</time>
      </trkpt>
      <trkpt lat="44.24849" lon="5.70961">
        <ele>670</ele>
        <time>2019-03-27T13:42:56Z</time>
      </trkpt>
      <trkpt lat="44.24844" lon="5.70956">
        <ele>670</ele>
        <time>2019-03-27T13:42:57Z</time>
      </trkpt>
      <trkpt lat="44.2484" lon="5.70951">
        <ele>670</ele>
        <time>2019-03-27T13:42:58Z</time>
      </trkpt>
      <trkpt lat="44.24836" lon="5.70946">
        <ele>670</ele>
        <time>2019-03-27T13:42:59Z</time>
      </trkpt>
      <trkpt lat="44.24831" lon="5.70941">
        <ele>671</ele>
        <time>2019-03-27T13:43:00Z</time>
      </trkpt>
      <trkpt lat="44.24826" lon="5.70936">
        <ele>671</ele>
        <time>2019-03-27T13:43:01Z</time>
      </trkpt>
      <trkpt lat="44.24822" lon="5.70931">
        <ele>671</ele>
        <time>2019-03-27T13:43:02Z</time>
      </trkpt>
      <trkpt lat="44.24817" lon="5.70926">
        <ele>671</ele>
        <time>2019-03-27T13:43:03Z</time>
      </trkpt>
      <trkpt lat="44.24813" lon="5.70921">
        <ele>671</ele>
        <time>2019-03-27T13:43:04Z</time>
      </trkpt>
      <trkpt lat="44.24808" lon="5.70915">
        <ele>672</ele>
        <time>2019-03-27T13:43:05Z</time>
      </trkpt>
      <trkpt lat="44.24804" lon="5.7091">
        <ele>672</ele>
        <time>2019-03-27T13:43:06Z</time>
      </trkpt>
      <trkpt lat="44.24799" lon="5.70904">
        <ele>672</ele>
        <time>2019-03-27T13:43:07Z</time>
      </trkpt>
      <trkpt lat="44.24795" lon="5.70898">
        <ele>672</ele>
        <time>2019-03-27T13:43:08Z</time>
      </trkpt>
      <trkpt lat="44.2479" lon="5.70893">
        <ele>672</ele>
        <time>2019-03-27T13:43:09Z</time>
      </trkpt>
      <trkpt lat="44.24785" lon="5.70888">
        <ele>672</ele>
        <time>2019-03-27T13:43:10Z</time>
      </trkpt>
      <trkpt lat="44.2478" lon="5.70884">
        <ele>672</ele>
        <time>2019-03-27T13:43:11Z</time>
      </trkpt>
      <trkpt lat="44.24775" lon="5.70879">
        <ele>672</ele>
        <time>2019-03-27T13:43:12Z</time>
      </trkpt>
      <trkpt lat="44.2477" lon="5.70875">
        <ele>672</ele>
        <time>2019-03-27T13:43:13Z</time>
      </trkpt>
      <trkpt lat="44.24765" lon="5.7087">
        <ele>672</ele>
        <time>2019-03-27T13:43:14Z</time>
      </trkpt>
      <trkpt lat="44.2476" lon="5.70865">
        <ele>672</ele>
        <time>2019-03-27T13:43:15Z</time>
      </trkpt>
      <trkpt lat="44.24755" lon="5.70861">
        <ele>672</ele>
        <time>2019-03-27T13:43:16Z</time>
      </trkpt>
      <trkpt lat="44.24749" lon="5.70858">
        <ele>672</ele>
        <time>2019-03-27T13:43:17Z</time>
      </trkpt>
      <trkpt lat="44.24744" lon="5.70855">
        <ele>672</ele>
        <time>2019-03-27T13:43:18Z</time>
      </trkpt>
      <trkpt lat="44.24739" lon="5.70852">
        <ele>673</ele>
        <time>2019-03-27T13:43:19Z</time>
      </trkpt>
      <trkpt lat="44.24734" lon="5.70848">
        <ele>673</ele>
        <time>2019-03-27T13:43:20Z</time>
      </trkpt>
      <trkpt lat="44.24728" lon="5.70845">
        <ele>674</ele>
        <time>2019-03-27T13:43:21Z</time>
      </trkpt>
      <trkpt lat="44.24723" lon="5.70842">
        <ele>674</ele>
        <time>2019-03-27T13:43:22Z</time>
      </trkpt>
      <trkpt lat="44.24719" lon="5.70839">
        <ele>675</ele>
        <time>2019-03-27T13:43:23Z</time>
      </trkpt>
      <trkpt lat="44.24714" lon="5.70836">
        <ele>675</ele>
        <time>2019-03-27T13:43:24Z</time>
      </trkpt>
      <trkpt lat="44.24709" lon="5.70833">
        <ele>676</ele>
        <time>2019-03-27T13:43:25Z</time>
      </trkpt>
      <trkpt lat="44.24704" lon="5.7083">
        <ele>676</ele>
        <time>2019-03-27T13:43:26Z</time>
      </trkpt>
      <trkpt lat="44.24699" lon="5.70828">
        <ele>676</ele>
        <time>2019-03-27T13:43:27Z</time>
      </trkpt>
      <trkpt lat="44.24695" lon="5.70825">
        <ele>676</ele>
        <time>2019-03-27T13:43:28Z</time>
      </trkpt>
      <trkpt lat="44.2469" lon="5.70822">
        <ele>677</ele>
        <time>2019-03-27T13:43:29Z</time>
      </trkpt>
      <trkpt lat="44.24686" lon="5.70818">
        <ele>677</ele>
        <time>2019-03-27T13:43:30Z</time>
      </trkpt>
      <trkpt lat="44.24681" lon="5.70815">
        <ele>677</ele>
        <time>2019-03-27T13:43:31Z</time>
      </trkpt>
      <trkpt lat="44.24676" lon="5.7081">
        <ele>677</ele>
        <time>2019-03-27T13:43:32Z</time>
      </trkpt>
      <trkpt lat="44.24672" lon="5.70806">
        <ele>677</ele>
        <time>2019-03-27T13:43:33Z</time>
      </trkpt>
      <trkpt lat="44.24668" lon="5.70801">
        <ele>677</ele>
        <time>2019-03-27T13:43:34Z</time>
      </trkpt>
      <trkpt lat="44.24664" lon="5.70796">
        <ele>677</ele>
        <time>2019-03-27T13:43:35Z</time>
      </trkpt>
      <trkpt lat="44.24661" lon="5.70791">
        <ele>677</ele>
        <time>2019-03-27T13:43:36Z</time>
      </trkpt>
      <trkpt lat="44.24658" lon="5.70786">
        <ele>677</ele>
        <time>2019-03-27T13:43:37Z</time>
      </trkpt>
      <trkpt lat="44.24655" lon="5.7078">
        <ele>677</ele>
        <time>2019-03-27T13:43:38Z</time>
      </trkpt>
      <trkpt lat="44.24652" lon="5.70775">
        <ele>677</ele>
        <time>2019-03-27T13:43:39Z</time>
      </trkpt>
      <trkpt lat="44.2465" lon="5.70769">
        <ele>677</ele>
        <time>2019-03-27T13:43:40Z</time>
      </trkpt>
      <trkpt lat="44.24647" lon="5.70763">
        <ele>677</ele>
        <time>2019-03-27T13:43:41Z</time>
      </trkpt>
      <trkpt lat="44.24644" lon="5.70757">
        <ele>677</ele>
        <time>2019-03-27T13:43:42Z</time>
      </trkpt>
      <trkpt lat="44.24641" lon="5.70751">
        <ele>677</ele>
        <time>2019-03-27T13:43:43Z</time>
      </trkpt>
      <trkpt lat="44.24638" lon="5.70746">
        <ele>677</ele>
        <time>2019-03-27T13:43:44Z</time>
      </trkpt>
      <trkpt lat="44.24635" lon="5.7074">
        <ele>677</ele>
        <time>2019-03-27T13:43:45Z</time>
      </trkpt>
      <trkpt lat="44.24631" lon="5.70734">
        <ele>677</ele>
        <time>2019-03-27T13:43:46Z</time>
      </trkpt>
      <trkpt lat="44.24628" lon="5.70727">
        <ele>677</ele>
        <time>2019-03-27T13:43:47Z</time>
      </trkpt>
      <trkpt lat="44.24625" lon="5.7072">
        <ele>677</ele>
        <time>2019-03-27T13:43:48Z</time>
      </trkpt>
      <trkpt lat="44.24624" lon="5.70713">
        <ele>677</ele>
        <time>2019-03-27T13:43:49Z</time>
      </trkpt>
      <trkpt lat="44.24624" lon="5.70705">
        <ele>677</ele>
        <time>2019-03-27T13:43:50Z</time>
      </trkpt>
      <trkpt lat="44.24626" lon="5.70698">
        <ele>677</ele>
        <time>2019-03-27T13:43:51Z</time>
      </trkpt>
      <trkpt lat="44.2463" lon="5.70693">
        <ele>677</ele>
        <time>2019-03-27T13:43:52Z</time>
      </trkpt>
      <trkpt lat="44.24636" lon="5.7069">
        <ele>677</ele>
        <time>2019-03-27T13:43:53Z</time>
      </trkpt>
      <trkpt lat="44.24645" lon="5.70691">
        <ele>677</ele>
        <time>2019-03-27T13:43:54Z</time>
      </trkpt>
      <trkpt lat="44.24653" lon="5.70691">
        <ele>677</ele>
        <time>2019-03-27T13:43:55Z</time>
      </trkpt>
      <trkpt lat="44.24661" lon="5.70691">
        <ele>677</ele>
        <time>2019-03-27T13:43:56Z</time>
      </trkpt>
      <trkpt lat="44.2467" lon="5.70692">
        <ele>677</ele>
        <time>2019-03-27T13:43:57Z</time>
      </trkpt>
      <trkpt lat="44.24678" lon="5.70691">
        <ele>677</ele>
        <time>2019-03-27T13:43:58Z</time>
      </trkpt>
      <trkpt lat="44.24686" lon="5.7069">
        <ele>677</ele>
        <time>2019-03-27T13:43:59Z</time>
      </trkpt>
      <trkpt lat="44.24695" lon="5.70689">
        <ele>677</ele>
        <time>2019-03-27T13:44:00Z</time>
      </trkpt>
      <trkpt lat="44.24703" lon="5.70689">
        <ele>677</ele>
        <time>2019-03-27T13:44:01Z</time>
      </trkpt>
      <trkpt lat="44.24712" lon="5.70688">
        <ele>676</ele>
        <time>2019-03-27T13:44:02Z</time>
      </trkpt>
      <trkpt lat="44.2472" lon="5.70687">
        <ele>676</ele>
        <time>2019-03-27T13:44:03Z</time>
      </trkpt>
      <trkpt lat="44.24728" lon="5.70687">
        <ele>675</ele>
        <time>2019-03-27T13:44:04Z</time>
      </trkpt>
      <trkpt lat="44.24736" lon="5.70686">
        <ele>675</ele>
        <time>2019-03-27T13:44:05Z</time>
      </trkpt>
      <trkpt lat="44.24743" lon="5.70684">
        <ele>674</ele>
        <time>2019-03-27T13:44:06Z</time>
      </trkpt>
      <trkpt lat="44.24749" lon="5.70681">
        <ele>674</ele>
        <time>2019-03-27T13:44:07Z</time>
      </trkpt>
      <trkpt lat="44.24755" lon="5.70676">
        <ele>674</ele>
        <time>2019-03-27T13:44:08Z</time>
      </trkpt>
      <trkpt lat="44.24759" lon="5.70669">
        <ele>673</ele>
        <time>2019-03-27T13:44:09Z</time>
      </trkpt>
      <trkpt lat="44.24758" lon="5.7066">
        <ele>673</ele>
        <time>2019-03-27T13:44:10Z</time>
      </trkpt>
      <trkpt lat="44.24755" lon="5.70649">
        <ele>672</ele>
        <time>2019-03-27T13:44:11Z</time>
      </trkpt>
      <trkpt lat="44.24753" lon="5.70639">
        <ele>672</ele>
        <time>2019-03-27T13:44:12Z</time>
      </trkpt>
      <trkpt lat="44.24751" lon="5.7063">
        <ele>671</ele>
        <time>2019-03-27T13:44:13Z</time>
      </trkpt>
      <trkpt lat="44.24747" lon="5.70619">
        <ele>671</ele>
        <time>2019-03-27T13:44:14Z</time>
      </trkpt>
      <trkpt lat="44.24743" lon="5.70611">
        <ele>670</ele>
        <time>2019-03-27T13:44:15Z</time>
      </trkpt>
      <trkpt lat="44.24738" lon="5.70604">
        <ele>670</ele>
        <time>2019-03-27T13:44:16Z</time>
      </trkpt>
      <trkpt lat="44.24733" lon="5.70599">
        <ele>670</ele>
        <time>2019-03-27T13:44:17Z</time>
      </trkpt>
      <trkpt lat="44.24726" lon="5.70595">
        <ele>670</ele>
        <time>2019-03-27T13:44:18Z</time>
      </trkpt>
      <trkpt lat="44.2472" lon="5.70592">
        <ele>670</ele>
        <time>2019-03-27T13:44:19Z</time>
      </trkpt>
      <trkpt lat="44.24713" lon="5.7059">
        <ele>670</ele>
        <time>2019-03-27T13:44:20Z</time>
      </trkpt>
      <trkpt lat="44.24707" lon="5.70587">
        <ele>670</ele>
        <time>2019-03-27T13:44:21Z</time>
      </trkpt>
      <trkpt lat="44.24701" lon="5.70583">
        <ele>670</ele>
        <time>2019-03-27T13:44:22Z</time>
      </trkpt>
      <trkpt lat="44.24696" lon="5.70577">
        <ele>669</ele>
        <time>2019-03-27T13:44:23Z</time>
      </trkpt>
      <trkpt lat="44.24692" lon="5.7057">
        <ele>669</ele>
        <time>2019-03-27T13:44:24Z</time>
      </trkpt>
      <trkpt lat="44.24692" lon="5.7056">
        <ele>669</ele>
        <time>2019-03-27T13:44:25Z</time>
      </trkpt>
      <trkpt lat="44.24694" lon="5.70551">
        <ele>669</ele>
        <time>2019-03-27T13:44:26Z</time>
      </trkpt>
      <trkpt lat="44.24697" lon="5.70542">
        <ele>668</ele>
        <time>2019-03-27T13:44:27Z</time>
      </trkpt>
      <trkpt lat="44.24702" lon="5.70535">
        <ele>668</ele>
        <time>2019-03-27T13:44:28Z</time>
      </trkpt>
      <trkpt lat="44.24709" lon="5.7053">
        <ele>668</ele>
        <time>2019-03-27T13:44:29Z</time>
      </trkpt>
      <trkpt lat="44.24715" lon="5.70524">
        <ele>667</ele>
        <time>2019-03-27T13:44:30Z</time>
      </trkpt>
      <trkpt lat="44.24721" lon="5.70518">
        <ele>667</ele>
        <time>2019-03-27T13:44:31Z</time>
      </trkpt>
      <trkpt lat="44.24728" lon="5.70511">
        <ele>667</ele>
        <time>2019-03-27T13:44:32Z</time>
      </trkpt>
      <trkpt lat="44.24733" lon="5.70505">
        <ele>667</ele>
        <time>2019-03-27T13:44:33Z</time>
      </trkpt>
      <trkpt lat="44.24739" lon="5.70499">
        <ele>666</ele>
        <time>2019-03-27T13:44:34Z</time>
      </trkpt>
      <trkpt lat="44.24744" lon="5.70493">
        <ele>666</ele>
        <time>2019-03-27T13:44:35Z</time>
      </trkpt>
      <trkpt lat="44.2475" lon="5.70487">
        <ele>666</ele>
        <time>2019-03-27T13:44:36Z</time>
      </trkpt>
      <trkpt lat="44.24756" lon="5.70481">
        <ele>666</ele>
        <time>2019-03-27T13:44:37Z</time>
      </trkpt>
      <trkpt lat="44.24762" lon="5.70474">
        <ele>666</ele>
        <time>2019-03-27T13:44:38Z</time>
      </trkpt>
      <trkpt lat="44.24768" lon="5.70467">
        <ele>665</ele>
        <time>2019-03-27T13:44:39Z</time>
      </trkpt>
      <trkpt lat="44.24774" lon="5.70459">
        <ele>665</ele>
        <time>2019-03-27T13:44:40Z</time>
      </trkpt>
      <trkpt lat="44.2478" lon="5.7045">
        <ele>665</ele>
        <time>2019-03-27T13:44:41Z</time>
      </trkpt>
      <trkpt lat="44.24784" lon="5.70441">
        <ele>664</ele>
        <time>2019-03-27T13:44:42Z</time>
      </trkpt>
      <trkpt lat="44.24788" lon="5.70431">
        <ele>664</ele>
        <time>2019-03-27T13:44:43Z</time>
      </trkpt>
      <trkpt lat="44.24792" lon="5.70421">
        <ele>663</ele>
        <time>2019-03-27T13:44:44Z</time>
      </trkpt>
      <trkpt lat="44.24794" lon="5.7041">
        <ele>663</ele>
        <time>2019-03-27T13:44:45Z</time>
      </trkpt>
      <trkpt lat="44.24796" lon="5.704">
        <ele>663</ele>
        <time>2019-03-27T13:44:46Z</time>
      </trkpt>
      <trkpt lat="44.24797" lon="5.7039">
        <ele>663</ele>
        <time>2019-03-27T13:44:47Z</time>
      </trkpt>
      <trkpt lat="44.24799" lon="5.7038">
        <ele>663</ele>
        <time>2019-03-27T13:44:48Z</time>
      </trkpt>
      <trkpt lat="44.24801" lon="5.70371">
        <ele>663</ele>
        <time>2019-03-27T13:44:49Z</time>
      </trkpt>
      <trkpt lat="44.24804" lon="5.70363">
        <ele>663</ele>
        <time>2019-03-27T13:44:50Z</time>
      </trkpt>
      <trkpt lat="44.24809" lon="5.70356">
        <ele>663</ele>
        <time>2019-03-27T13:44:51Z</time>
      </trkpt>
      <trkpt lat="44.24813" lon="5.70348">
        <ele>663</ele>
        <time>2019-03-27T13:44:52Z</time>
      </trkpt>
      <trkpt lat="44.24818" lon="5.70341">
        <ele>663</ele>
        <time>2019-03-27T13:44:53Z</time>
      </trkpt>
      <trkpt lat="44.24823" lon="5.70333">
        <ele>663</ele>
        <time>2019-03-27T13:44:54Z</time>
      </trkpt>
      <trkpt lat="44.24827" lon="5.70326">
        <ele>663</ele>
        <time>2019-03-27T13:44:55Z</time>
      </trkpt>
      <trkpt lat="44.24832" lon="5.70318">
        <ele>663</ele>
        <time>2019-03-27T13:44:56Z</time>
      </trkpt>
      <trkpt lat="44.24836" lon="5.7031">
        <ele>662</ele>
        <time>2019-03-27T13:44:57Z</time>
      </trkpt>
      <trkpt lat="44.2484" lon="5.70301">
        <ele>662</ele>
        <time>2019-03-27T13:44:58Z</time>
      </trkpt>
      <trkpt lat="44.24844" lon="5.70293">
        <ele>662</ele>
        <time>2019-03-27T13:44:59Z</time>
      </trkpt>
      <trkpt lat="44.24847" lon="5.70284">
        <ele>661</ele>
        <time>2019-03-27T13:45:00Z</time>
      </trkpt>
      <trkpt lat="44.2485" lon="5.70275">
        <ele>661</ele>
        <time>2019-03-27T13:45:01Z</time>
      </trkpt>
      <trkpt lat="44.24852" lon="5.70266">
        <ele>661</ele>
        <time>2019-03-27T13:45:02Z</time>
      </trkpt>
      <trkpt lat="44.24854" lon="5.70257">
        <ele>660</ele>
        <time>2019-03-27T13:45:03Z</time>
      </trkpt>
      <trkpt lat="44.24855" lon="5.70246">
        <ele>660</ele>
        <time>2019-03-27T13:45:04Z</time>
      </trkpt>
      <trkpt lat="44.24856" lon="5.70236">
        <ele>660</ele>
        <time>2019-03-27T13:45:05Z</time>
      </trkpt>
      <trkpt lat="44.24857" lon="5.70226">
        <ele>660</ele>
        <time>2019-03-27T13:45:06Z</time>
      </trkpt>
      <trkpt lat="44.24857" lon="5.70217">
        <ele>660</ele>
        <time>2019-03-27T13:45:07Z</time>
      </trkpt>
      <trkpt lat="44.24857" lon="5.70207">
        <ele>660</ele>
        <time>2019-03-27T13:45:08Z</time>
      </trkpt>
      <trkpt lat="44.24856" lon="5.70197">
        <ele>660</ele>
        <time>2019-03-27T13:45:09Z</time>
      </trkpt>
      <trkpt lat="44.24856" lon="5.70188">
        <ele>660</ele>
        <time>2019-03-27T13:45:10Z</time>
      </trkpt>
      <trkpt lat="44.24856" lon="5.70178">
        <ele>660</ele>
        <time>2019-03-27T13:45:11Z</time>
      </trkpt>
      <trkpt lat="44.24855" lon="5.70168">
        <ele>660</ele>
        <time>2019-03-27T13:45:12Z</time>
      </trkpt>
      <trkpt lat="44.24855" lon="5.70158">
        <ele>660</ele>
        <time>2019-03-27T13:45:13Z</time>
      </trkpt>
      <trkpt lat="44.24854" lon="5.70149">
        <ele>660</ele>
        <time>2019-03-27T13:45:14Z</time>
      </trkpt>
      <trkpt lat="44.24852" lon="5.70139">
        <ele>660</ele>
        <time>2019-03-27T13:45:15Z</time>
      </trkpt>
      <trkpt lat="44.24851" lon="5.7013">
        <ele>660</ele>
        <time>2019-03-27T13:45:16Z</time>
      </trkpt>
      <trkpt lat="44.24849" lon="5.70121">
        <ele>660</ele>
        <time>2019-03-27T13:45:17Z</time>
      </trkpt>
      <trkpt lat="44.24846" lon="5.70113">
        <ele>660</ele>
        <time>2019-03-27T13:45:18Z</time>
      </trkpt>
      <trkpt lat="44.24843" lon="5.70105">
        <ele>660</ele>
        <time>2019-03-27T13:45:19Z</time>
      </trkpt>
      <trkpt lat="44.24839" lon="5.70097">
        <ele>660</ele>
        <time>2019-03-27T13:45:20Z</time>
      </trkpt>
      <trkpt lat="44.24834" lon="5.7009">
        <ele>660</ele>
        <time>2019-03-27T13:45:21Z</time>
      </trkpt>
      <trkpt lat="44.2483" lon="5.70083">
        <ele>661</ele>
        <time>2019-03-27T13:45:22Z</time>
      </trkpt>
      <trkpt lat="44.24825" lon="5.70077">
        <ele>661</ele>
        <time>2019-03-27T13:45:23Z</time>
      </trkpt>
      <trkpt lat="44.2482" lon="5.70071">
        <ele>662</ele>
        <time>2019-03-27T13:45:24Z</time>
      </trkpt>
      <trkpt lat="44.24816" lon="5.70066">
        <ele>662</ele>
        <time>2019-03-27T13:45:25Z</time>
      </trkpt>
      <trkpt lat="44.24811" lon="5.7006">
        <ele>662</ele>
        <time>2019-03-27T13:45:26Z</time>
      </trkpt>
      <trkpt lat="44.24806" lon="5.70054">
        <ele>662</ele>
        <time>2019-03-27T13:45:27Z</time>
      </trkpt>
      <trkpt lat="44.24801" lon="5.70049">
        <ele>662</ele>
        <time>2019-03-27T13:45:28Z</time>
      </trkpt>
      <trkpt lat="44.24796" lon="5.70044">
        <ele>662</ele>
        <time>2019-03-27T13:45:29Z</time>
      </trkpt>
      <trkpt lat="44.24791" lon="5.70038">
        <ele>662</ele>
        <time>2019-03-27T13:45:30Z</time>
      </trkpt>
      <trkpt lat="44.24786" lon="5.70032">
        <ele>662</ele>
        <time>2019-03-27T13:45:31Z</time>
      </trkpt>
      <trkpt lat="44.24782" lon="5.70026">
        <ele>662</ele>
        <time>2019-03-27T13:45:32Z</time>
      </trkpt>
      <trkpt lat="44.24777" lon="5.70019">
        <ele>662</ele>
        <time>2019-03-27T13:45:33Z</time>
      </trkpt>
      <trkpt lat="44.24773" lon="5.70013">
        <ele>662</ele>
        <time>2019-03-27T13:45:34Z</time>
      </trkpt>
      <trkpt lat="44.24769" lon="5.70006">
        <ele>662</ele>
        <time>2019-03-27T13:45:35Z</time>
      </trkpt>
      <trkpt lat="44.24765" lon="5.7">
        <ele>662</ele>
        <time>2019-03-27T13:45:36Z</time>
      </trkpt>
      <trkpt lat="44.24761" lon="5.69992">
        <ele>662</ele>
        <time>2019-03-27T13:45:37Z</time>
      </trkpt>
      <trkpt lat="44.24758" lon="5.69985">
        <ele>662</ele>
        <time>2019-03-27T13:45:38Z</time>
      </trkpt>
      <trkpt lat="44.24755" lon="5.69978">
        <ele>662</ele>
        <time>2019-03-27T13:45:39Z</time>
      </trkpt>
      <trkpt lat="44.24751" lon="5.69971">
        <ele>662</ele>
        <time>2019-03-27T13:45:40Z</time>
      </trkpt>
      <trkpt lat="44.24748" lon="5.69963">
        <ele>663</ele>
        <time>2019-03-27T13:45:41Z</time>
      </trkpt>
      <trkpt lat="44.24745" lon="5.69955">
        <ele>663</ele>
        <time>2019-03-27T13:45:42Z</time>
      </trkpt>
      <trkpt lat="44.24741" lon="5.69947">
        <ele>663</ele>
        <time>2019-03-27T13:45:43Z</time>
      </trkpt>
      <trkpt lat="44.24738" lon="5.6994">
        <ele>664</ele>
        <time>2019-03-27T13:45:44Z</time>
      </trkpt>
      <trkpt lat="44.24735" lon="5.69933">
        <ele>664</ele>
        <time>2019-03-27T13:45:45Z</time>
      </trkpt>
      <trkpt lat="44.24732" lon="5.69925">
        <ele>664</ele>
        <time>2019-03-27T13:45:46Z</time>
      </trkpt>
      <trkpt lat="44.24729" lon="5.69918">
        <ele>664</ele>
        <time>2019-03-27T13:45:47Z</time>
      </trkpt>
      <trkpt lat="44.24726" lon="5.69911">
        <ele>665</ele>
        <time>2019-03-27T13:45:48Z</time>
      </trkpt>
      <trkpt lat="44.24723" lon="5.69903">
        <ele>665</ele>
        <time>2019-03-27T13:45:49Z</time>
      </trkpt>
      <trkpt lat="44.24721" lon="5.69896">
        <ele>665</ele>
        <time>2019-03-27T13:45:50Z</time>
      </trkpt>
      <trkpt lat="44.24719" lon="5.69887">
        <ele>665</ele>
        <time>2019-03-27T13:45:51Z</time>
      </trkpt>
      <trkpt lat="44.24718" lon="5.69879">
        <ele>665</ele>
        <time>2019-03-27T13:45:52Z</time>
      </trkpt>
      <trkpt lat="44.24717" lon="5.6987">
        <ele>665</ele>
        <time>2019-03-27T13:45:53Z</time>
      </trkpt>
      <trkpt lat="44.24717" lon="5.69862">
        <ele>665</ele>
        <time>2019-03-27T13:45:54Z</time>
      </trkpt>
      <trkpt lat="44.24718" lon="5.69853">
        <ele>665</ele>
        <time>2019-03-27T13:45:55Z</time>
      </trkpt>
      <trkpt lat="44.2472" lon="5.69844">
        <ele>665</ele>
        <time>2019-03-27T13:45:56Z</time>
      </trkpt>
      <trkpt lat="44.24722" lon="5.69836">
        <ele>665</ele>
        <time>2019-03-27T13:45:57Z</time>
      </trkpt>
      <trkpt lat="44.24723" lon="5.69827">
        <ele>665</ele>
        <time>2019-03-27T13:45:58Z</time>
      </trkpt>
      <trkpt lat="44.24726" lon="5.69818">
        <ele>665</ele>
        <time>2019-03-27T13:45:59Z</time>
      </trkpt>
      <trkpt lat="44.24728" lon="5.6981">
        <ele>665</ele>
        <time>2019-03-27T13:46:00Z</time>
      </trkpt>
      <trkpt lat="44.24729" lon="5.69801">
        <ele>665</ele>
        <time>2019-03-27T13:46:01Z</time>
      </trkpt>
      <trkpt lat="44.24731" lon="5.69791">
        <ele>665</ele>
        <time>2019-03-27T13:46:02Z</time>
      </trkpt>
      <trkpt lat="44.24733" lon="5.69782">
        <ele>665</ele>
        <time>2019-03-27T13:46:03Z</time>
      </trkpt>
      <trkpt lat="44.24735" lon="5.69774">
        <ele>665</ele>
        <time>2019-03-27T13:46:04Z</time>
      </trkpt>
      <trkpt lat="44.24737" lon="5.69765">
        <ele>665</ele>
        <time>2019-03-27T13:46:05Z</time>
      </trkpt>
      <trkpt lat="44.24738" lon="5.69757">
        <ele>665</ele>
        <time>2019-03-27T13:46:06Z</time>
      </trkpt>
      <trkpt lat="44.2474" lon="5.69749">
        <ele>665</ele>
        <time>2019-03-27T13:46:07Z</time>
      </trkpt>
      <trkpt lat="44.24741" lon="5.69741">
        <ele>665</ele>
        <time>2019-03-27T13:46:08Z</time>
      </trkpt>
      <trkpt lat="44.24743" lon="5.69732">
        <ele>665</ele>
        <time>2019-03-27T13:46:09Z</time>
      </trkpt>
      <trkpt lat="44.24744" lon="5.69724">
        <ele>665</ele>
        <time>2019-03-27T13:46:10Z</time>
      </trkpt>
      <trkpt lat="44.24746" lon="5.69716">
        <ele>665</ele>
        <time>2019-03-27T13:46:11Z</time>
      </trkpt>
      <trkpt lat="44.24749" lon="5.69707">
        <ele>665</ele>
        <time>2019-03-27T13:46:12Z</time>
      </trkpt>
      <trkpt lat="44.24751" lon="5.69699">
        <ele>665</ele>
        <time>2019-03-27T13:46:13Z</time>
      </trkpt>
      <trkpt lat="44.24754" lon="5.69691">
        <ele>665</ele>
        <time>2019-03-27T13:46:14Z</time>
      </trkpt>
      <trkpt lat="44.24757" lon="5.69683">
        <ele>665</ele>
        <time>2019-03-27T13:46:15Z</time>
      </trkpt>
      <trkpt lat="44.2476" lon="5.69674">
        <ele>665</ele>
        <time>2019-03-27T13:46:16Z</time>
      </trkpt>
      <trkpt lat="44.24763" lon="5.69666">
        <ele>665</ele>
        <time>2019-03-27T13:46:17Z</time>
      </trkpt>
      <trkpt lat="44.24767" lon="5.69658">
        <ele>665</ele>
        <time>2019-03-27T13:46:18Z</time>
      </trkpt>
      <trkpt lat="44.2477" lon="5.69651">
        <ele>665</ele>
        <time>2019-03-27T13:46:19Z</time>
      </trkpt>
      <trkpt lat="44.24773" lon="5.69642">
        <ele>665</ele>
        <time>2019-03-27T13:46:20Z</time>
      </trkpt>
      <trkpt lat="44.24775" lon="5.69635">
        <ele>665</ele>
        <time>2019-03-27T13:46:21Z</time>
      </trkpt>
      <trkpt lat="44.24778" lon="5.69627">
        <ele>665</ele>
        <time>2019-03-27T13:46:22Z</time>
      </trkpt>
      <trkpt lat="44.24781" lon="5.6962">
        <ele>664</ele>
        <time>2019-03-27T13:46:23Z</time>
      </trkpt>
      <trkpt lat="44.24783" lon="5.69611">
        <ele>664</ele>
        <time>2019-03-27T13:46:24Z</time>
      </trkpt>
      <trkpt lat="44.24786" lon="5.69603">
        <ele>663</ele>
        <time>2019-03-27T13:46:25Z</time>
      </trkpt>
      <trkpt lat="44.24789" lon="5.69595">
        <ele>663</ele>
        <time>2019-03-27T13:46:26Z</time>
      </trkpt>
      <trkpt lat="44.24791" lon="5.69587">
        <ele>662</ele>
        <time>2019-03-27T13:46:27Z</time>
      </trkpt>
      <trkpt lat="44.24793" lon="5.69579">
        <ele>662</ele>
        <time>2019-03-27T13:46:28Z</time>
      </trkpt>
      <trkpt lat="44.24795" lon="5.6957">
        <ele>662</ele>
        <time>2019-03-27T13:46:29Z</time>
      </trkpt>
      <trkpt lat="44.24798" lon="5.69562">
        <ele>661</ele>
        <time>2019-03-27T13:46:30Z</time>
      </trkpt>
      <trkpt lat="44.248" lon="5.69554">
        <ele>661</ele>
        <time>2019-03-27T13:46:31Z</time>
      </trkpt>
      <trkpt lat="44.24802" lon="5.69546">
        <ele>661</ele>
        <time>2019-03-27T13:46:32Z</time>
      </trkpt>
      <trkpt lat="44.24803" lon="5.69537">
        <ele>661</ele>
        <time>2019-03-27T13:46:33Z</time>
      </trkpt>
      <trkpt lat="44.24804" lon="5.69528">
        <ele>661</ele>
        <time>2019-03-27T13:46:34Z</time>
      </trkpt>
      <trkpt lat="44.24805" lon="5.69519">
        <ele>661</ele>
        <time>2019-03-27T13:46:35Z</time>
      </trkpt>
      <trkpt lat="44.24805" lon="5.69511">
        <ele>661</ele>
        <time>2019-03-27T13:46:36Z</time>
      </trkpt>
      <trkpt lat="44.24805" lon="5.69502">
        <ele>661</ele>
        <time>2019-03-27T13:46:37Z</time>
      </trkpt>
      <trkpt lat="44.24805" lon="5.69493">
        <ele>661</ele>
        <time>2019-03-27T13:46:38Z</time>
      </trkpt>
      <trkpt lat="44.24805" lon="5.69485">
        <ele>661</ele>
        <time>2019-03-27T13:46:39Z</time>
      </trkpt>
      <trkpt lat="44.24804" lon="5.69477">
        <ele>661</ele>
        <time>2019-03-27T13:46:40Z</time>
      </trkpt>
      <trkpt lat="44.24802" lon="5.69468">
        <ele>661</ele>
        <time>2019-03-27T13:46:41Z</time>
      </trkpt>
      <trkpt lat="44.24801" lon="5.6946">
        <ele>661</ele>
        <time>2019-03-27T13:46:42Z</time>
      </trkpt>
      <trkpt lat="44.248" lon="5.69452">
        <ele>661</ele>
        <time>2019-03-27T13:46:43Z</time>
      </trkpt>
      <trkpt lat="44.24798" lon="5.69443">
        <ele>661</ele>
        <time>2019-03-27T13:46:44Z</time>
      </trkpt>
      <trkpt lat="44.24795" lon="5.69434">
        <ele>662</ele>
        <time>2019-03-27T13:46:45Z</time>
      </trkpt>
      <trkpt lat="44.24793" lon="5.69425">
        <ele>662</ele>
        <time>2019-03-27T13:46:46Z</time>
      </trkpt>
      <trkpt lat="44.24791" lon="5.69416">
        <ele>663</ele>
        <time>2019-03-27T13:46:47Z</time>
      </trkpt>
      <trkpt lat="44.24789" lon="5.69408">
        <ele>663</ele>
        <time>2019-03-27T13:46:48Z</time>
      </trkpt>
      <trkpt lat="44.24787" lon="5.69398">
        <ele>664</ele>
        <time>2019-03-27T13:46:49Z</time>
      </trkpt>
      <trkpt lat="44.24784" lon="5.69389">
        <ele>664</ele>
        <time>2019-03-27T13:46:50Z</time>
      </trkpt>
      <trkpt lat="44.24783" lon="5.6938">
        <ele>664</ele>
        <time>2019-03-27T13:46:51Z</time>
      </trkpt>
      <trkpt lat="44.24781" lon="5.69371">
        <ele>664</ele>
        <time>2019-03-27T13:46:52Z</time>
      </trkpt>
      <trkpt lat="44.24778" lon="5.69362">
        <ele>664</ele>
        <time>2019-03-27T13:46:53Z</time>
      </trkpt>
      <trkpt lat="44.24775" lon="5.69352">
        <ele>664</ele>
        <time>2019-03-27T13:46:54Z</time>
      </trkpt>
      <trkpt lat="44.24772" lon="5.69343">
        <ele>664</ele>
        <time>2019-03-27T13:46:55Z</time>
      </trkpt>
      <trkpt lat="44.24769" lon="5.69334">
        <ele>664</ele>
        <time>2019-03-27T13:46:56Z</time>
      </trkpt>
      <trkpt lat="44.24765" lon="5.69325">
        <ele>664</ele>
        <time>2019-03-27T13:46:57Z</time>
      </trkpt>
      <trkpt lat="44.24762" lon="5.69316">
        <ele>664</ele>
        <time>2019-03-27T13:46:58Z</time>
      </trkpt>
      <trkpt lat="44.24759" lon="5.69308">
        <ele>664</ele>
        <time>2019-03-27T13:46:59Z</time>
      </trkpt>
      <trkpt lat="44.24755" lon="5.693">
        <ele>664</ele>
        <time>2019-03-27T13:47:00Z</time>
      </trkpt>
      <trkpt lat="44.24752" lon="5.69292">
        <ele>664</ele>
        <time>2019-03-27T13:47:01Z</time>
      </trkpt>
      <trkpt lat="44.24748" lon="5.69283">
        <ele>664</ele>
        <time>2019-03-27T13:47:02Z</time>
      </trkpt>
      <trkpt lat="44.24745" lon="5.69275">
        <ele>664</ele>
        <time>2019-03-27T13:47:03Z</time>
      </trkpt>
      <trkpt lat="44.24742" lon="5.69267">
        <ele>664</ele>
        <time>2019-03-27T13:47:04Z</time>
      </trkpt>
      <trkpt lat="44.24738" lon="5.69259">
        <ele>664</ele>
        <time>2019-03-27T13:47:05Z</time>
      </trkpt>
      <trkpt lat="44.24735" lon="5.69251">
        <ele>664</ele>
        <time>2019-03-27T13:47:06Z</time>
      </trkpt>
      <trkpt lat="44.24732" lon="5.69243">
        <ele>664</ele>
        <time>2019-03-27T13:47:07Z</time>
      </trkpt>
      <trkpt lat="44.24729" lon="5.69235">
        <ele>664</ele>
        <time>2019-03-27T13:47:08Z</time>
      </trkpt>
      <trkpt lat="44.24725" lon="5.69227">
        <ele>664</ele>
        <time>2019-03-27T13:47:09Z</time>
      </trkpt>
      <trkpt lat="44.24721" lon="5.69219">
        <ele>664</ele>
        <time>2019-03-27T13:47:10Z</time>
      </trkpt>
      <trkpt lat="44.24718" lon="5.69211">
        <ele>664</ele>
        <time>2019-03-27T13:47:11Z</time>
      </trkpt>
      <trkpt lat="44.24714" lon="5.69204">
        <ele>664</ele>
        <time>2019-03-27T13:47:12Z</time>
      </trkpt>
      <trkpt lat="44.2471" lon="5.69196">
        <ele>664</ele>
        <time>2019-03-27T13:47:13Z</time>
      </trkpt>
      <trkpt lat="44.24707" lon="5.69188">
        <ele>664</ele>
        <time>2019-03-27T13:47:14Z</time>
      </trkpt>
      <trkpt lat="44.24704" lon="5.69181">
        <ele>664</ele>
        <time>2019-03-27T13:47:15Z</time>
      </trkpt>
      <trkpt lat="44.247" lon="5.69173">
        <ele>664</ele>
        <time>2019-03-27T13:47:16Z</time>
      </trkpt>
      <trkpt lat="44.24696" lon="5.69165">
        <ele>664</ele>
        <time>2019-03-27T13:47:17Z</time>
      </trkpt>
      <trkpt lat="44.24693" lon="5.69157">
        <ele>664</ele>
        <time>2019-03-27T13:47:18Z</time>
      </trkpt>
      <trkpt lat="44.2469" lon="5.69149">
        <ele>664</ele>
        <time>2019-03-27T13:47:19Z</time>
      </trkpt>
      <trkpt lat="44.24687" lon="5.6914">
        <ele>664</ele>
        <time>2019-03-27T13:47:20Z</time>
      </trkpt>
      <trkpt lat="44.24684" lon="5.69132">
        <ele>664</ele>
        <time>2019-03-27T13:47:21Z</time>
      </trkpt>
      <trkpt lat="44.24682" lon="5.69123">
        <ele>664</ele>
        <time>2019-03-27T13:47:22Z</time>
      </trkpt>
      <trkpt lat="44.2468" lon="5.69115">
        <ele>664</ele>
        <time>2019-03-27T13:47:23Z</time>
      </trkpt>
      <trkpt lat="44.24678" lon="5.69106">
        <ele>664</ele>
        <time>2019-03-27T13:47:24Z</time>
      </trkpt>
      <trkpt lat="44.24677" lon="5.69097">
        <ele>664</ele>
        <time>2019-03-27T13:47:25Z</time>
      </trkpt>
      <trkpt lat="44.24675" lon="5.69088">
        <ele>664</ele>
        <time>2019-03-27T13:47:26Z</time>
      </trkpt>
      <trkpt lat="44.24674" lon="5.69079">
        <ele>664</ele>
        <time>2019-03-27T13:47:27Z</time>
      </trkpt>
      <trkpt lat="44.24673" lon="5.6907">
        <ele>664</ele>
        <time>2019-03-27T13:47:28Z</time>
      </trkpt>
      <trkpt lat="44.24672" lon="5.69061">
        <ele>664</ele>
        <time>2019-03-27T13:47:29Z</time>
      </trkpt>
      <trkpt lat="44.2467" lon="5.69052">
        <ele>664</ele>
        <time>2019-03-27T13:47:30Z</time>
      </trkpt>
      <trkpt lat="44.24669" lon="5.69042">
        <ele>664</ele>
        <time>2019-03-27T13:47:31Z</time>
      </trkpt>
      <trkpt lat="44.24668" lon="5.69034">
        <ele>664</ele>
        <time>2019-03-27T13:47:32Z</time>
      </trkpt>
      <trkpt lat="44.24667" lon="5.69025">
        <ele>664</ele>
        <time>2019-03-27T13:47:33Z</time>
      </trkpt>
      <trkpt lat="44.24666" lon="5.69016">
        <ele>664</ele>
        <time>2019-03-27T13:47:34Z</time>
      </trkpt>
      <trkpt lat="44.24665" lon="5.69007">
        <ele>664</ele>
        <time>2019-03-27T13:47:35Z</time>
      </trkpt>
      <trkpt lat="44.24664" lon="5.68998">
        <ele>664</ele>
        <time>2019-03-27T13:47:36Z</time>
      </trkpt>
      <trkpt lat="44.24663" lon="5.68989">
        <ele>664</ele>
        <time>2019-03-27T13:47:37Z</time>
      </trkpt>
      <trkpt lat="44.24662" lon="5.6898">
        <ele>664</ele>
        <time>2019-03-27T13:47:38Z</time>
      </trkpt>
      <trkpt lat="44.24661" lon="5.6897">
        <ele>664</ele>
        <time>2019-03-27T13:47:39Z</time>
      </trkpt>
      <trkpt lat="44.2466" lon="5.68961">
        <ele>664</ele>
        <time>2019-03-27T13:47:40Z</time>
      </trkpt>
      <trkpt lat="44.24659" lon="5.68952">
        <ele>664</ele>
        <time>2019-03-27T13:47:41Z</time>
      </trkpt>
      <trkpt lat="44.24658" lon="5.68943">
        <ele>664</ele>
        <time>2019-03-27T13:47:42Z</time>
      </trkpt>
      <trkpt lat="44.24657" lon="5.68934">
        <ele>664</ele>
        <time>2019-03-27T13:47:43Z</time>
      </trkpt>
      <trkpt lat="44.24656" lon="5.68925">
        <ele>664</ele>
        <time>2019-03-27T13:47:44Z</time>
      </trkpt>
      <trkpt lat="44.24655" lon="5.68916">
        <ele>664</ele>
        <time>2019-03-27T13:47:45Z</time>
      </trkpt>
      <trkpt lat="44.24654" lon="5.68907">
        <ele>664</ele>
        <time>2019-03-27T13:47:46Z</time>
      </trkpt>
      <trkpt lat="44.24653" lon="5.68899">
        <ele>664</ele>
        <time>2019-03-27T13:47:47Z</time>
      </trkpt>
      <trkpt lat="44.24652" lon="5.6889">
        <ele>664</ele>
        <time>2019-03-27T13:47:48Z</time>
      </trkpt>
      <trkpt lat="44.24651" lon="5.68881">
        <ele>664</ele>
        <time>2019-03-27T13:47:49Z</time>
      </trkpt>
      <trkpt lat="44.24649" lon="5.68872">
        <ele>664</ele>
        <time>2019-03-27T13:47:50Z</time>
      </trkpt>
      <trkpt lat="44.24649" lon="5.68864">
        <ele>664</ele>
        <time>2019-03-27T13:47:51Z</time>
      </trkpt>
      <trkpt lat="44.24648" lon="5.68854">
        <ele>664</ele>
        <time>2019-03-27T13:47:52Z</time>
      </trkpt>
      <trkpt lat="44.24646" lon="5.68845">
        <ele>664</ele>
        <time>2019-03-27T13:47:53Z</time>
      </trkpt>
      <trkpt lat="44.24645" lon="5.68836">
        <ele>664</ele>
        <time>2019-03-27T13:47:54Z</time>
      </trkpt>
      <trkpt lat="44.24644" lon="5.68826">
        <ele>664</ele>
        <time>2019-03-27T13:47:55Z</time>
      </trkpt>
      <trkpt lat="44.24643" lon="5.68817">
        <ele>664</ele>
        <time>2019-03-27T13:47:56Z</time>
      </trkpt>
      <trkpt lat="44.24642" lon="5.68807">
        <ele>664</ele>
        <time>2019-03-27T13:47:57Z</time>
      </trkpt>
      <trkpt lat="44.24641" lon="5.68798">
        <ele>664</ele>
        <time>2019-03-27T13:47:58Z</time>
      </trkpt>
      <trkpt lat="44.2464" lon="5.68788">
        <ele>664</ele>
        <time>2019-03-27T13:47:59Z</time>
      </trkpt>
      <trkpt lat="44.24639" lon="5.68779">
        <ele>664</ele>
        <time>2019-03-27T13:48:00Z</time>
      </trkpt>
      <trkpt lat="44.24638" lon="5.68769">
        <ele>664</ele>
        <time>2019-03-27T13:48:01Z</time>
      </trkpt>
      <trkpt lat="44.24636" lon="5.68759">
        <ele>664</ele>
        <time>2019-03-27T13:48:02Z</time>
      </trkpt>
      <trkpt lat="44.24635" lon="5.6875">
        <ele>665</ele>
        <time>2019-03-27T13:48:03Z</time>
      </trkpt>
      <trkpt lat="44.24634" lon="5.68741">
        <ele>665</ele>
        <time>2019-03-27T13:48:04Z</time>
      </trkpt>
      <trkpt lat="44.24633" lon="5.68731">
        <ele>665</ele>
        <time>2019-03-27T13:48:05Z</time>
      </trkpt>
      <trkpt lat="44.24632" lon="5.68722">
        <ele>665</ele>
        <time>2019-03-27T13:48:06Z</time>
      </trkpt>
      <trkpt lat="44.24631" lon="5.68712">
        <ele>665</ele>
        <time>2019-03-27T13:48:07Z</time>
      </trkpt>
      <trkpt lat="44.2463" lon="5.68703">
        <ele>665</ele>
        <time>2019-03-27T13:48:08Z</time>
      </trkpt>
      <trkpt lat="44.24629" lon="5.68693">
        <ele>665</ele>
        <time>2019-03-27T13:48:09Z</time>
      </trkpt>
      <trkpt lat="44.24628" lon="5.68684">
        <ele>665</ele>
        <time>2019-03-27T13:48:10Z</time>
      </trkpt>
      <trkpt lat="44.24627" lon="5.68675">
        <ele>666</ele>
        <time>2019-03-27T13:48:11Z</time>
      </trkpt>
      <trkpt lat="44.24626" lon="5.68665">
        <ele>666</ele>
        <time>2019-03-27T13:48:12Z</time>
      </trkpt>
      <trkpt lat="44.24625" lon="5.68656">
        <ele>666</ele>
        <time>2019-03-27T13:48:13Z</time>
      </trkpt>
      <trkpt lat="44.24625" lon="5.68647">
        <ele>666</ele>
        <time>2019-03-27T13:48:14Z</time>
      </trkpt>
      <trkpt lat="44.24624" lon="5.68638">
        <ele>666</ele>
        <time>2019-03-27T13:48:15Z</time>
      </trkpt>
      <trkpt lat="44.24623" lon="5.68629">
        <ele>667</ele>
        <time>2019-03-27T13:48:16Z</time>
      </trkpt>
      <trkpt lat="44.24622" lon="5.6862">
        <ele>667</ele>
        <time>2019-03-27T13:48:17Z</time>
      </trkpt>
      <trkpt lat="44.24622" lon="5.68611">
        <ele>667</ele>
        <time>2019-03-27T13:48:18Z</time>
      </trkpt>
      <trkpt lat="44.24622" lon="5.68602">
        <ele>668</ele>
        <time>2019-03-27T13:48:19Z</time>
      </trkpt>
      <trkpt lat="44.24622" lon="5.68594">
        <ele>668</ele>
        <time>2019-03-27T13:48:20Z</time>
      </trkpt>
      <trkpt lat="44.24622" lon="5.68585">
        <ele>668</ele>
        <time>2019-03-27T13:48:21Z</time>
      </trkpt>
      <trkpt lat="44.24621" lon="5.68576">
        <ele>669</ele>
        <time>2019-03-27T13:48:22Z</time>
      </trkpt>
      <trkpt lat="44.24621" lon="5.68567">
        <ele>669</ele>
        <time>2019-03-27T13:48:23Z</time>
      </trkpt>
      <trkpt lat="44.24621" lon="5.68559">
        <ele>669</ele>
        <time>2019-03-27T13:48:24Z</time>
      </trkpt>
      <trkpt lat="44.24621" lon="5.6855">
        <ele>669</ele>
        <time>2019-03-27T13:48:25Z</time>
      </trkpt>
      <trkpt lat="44.24621" lon="5.68541">
        <ele>669</ele>
        <time>2019-03-27T13:48:26Z</time>
      </trkpt>
      <trkpt lat="44.24621" lon="5.68532">
        <ele>669</ele>
        <time>2019-03-27T13:48:27Z</time>
      </trkpt>
      <trkpt lat="44.24621" lon="5.68523">
        <ele>669</ele>
        <time>2019-03-27T13:48:28Z</time>
      </trkpt>
      <trkpt lat="44.2462" lon="5.68515">
        <ele>669</ele>
        <time>2019-03-27T13:48:29Z</time>
      </trkpt>
      <trkpt lat="44.2462" lon="5.68506">
        <ele>669</ele>
        <time>2019-03-27T13:48:30Z</time>
      </trkpt>
      <trkpt lat="44.24619" lon="5.68498">
        <ele>669</ele>
        <time>2019-03-27T13:48:31Z</time>
      </trkpt>
      <trkpt lat="44.24618" lon="5.68489">
        <ele>669</ele>
        <time>2019-03-27T13:48:32Z</time>
      </trkpt>
      <trkpt lat="44.24617" lon="5.68481">
        <ele>669</ele>
        <time>2019-03-27T13:48:33Z</time>
      </trkpt>
      <trkpt lat="44.24617" lon="5.68472">
        <ele>669</ele>
        <time>2019-03-27T13:48:34Z</time>
      </trkpt>
      <trkpt lat="44.24616" lon="5.68464">
        <ele>669</ele>
        <time>2019-03-27T13:48:35Z</time>
      </trkpt>
      <trkpt lat="44.24616" lon="5.68455">
        <ele>669</ele>
        <time>2019-03-27T13:48:36Z</time>
      </trkpt>
      <trkpt lat="44.24615" lon="5.68446">
        <ele>669</ele>
        <time>2019-03-27T13:48:37Z</time>
      </trkpt>
      <trkpt lat="44.24614" lon="5.68437">
        <ele>669</ele>
        <time>2019-03-27T13:48:38Z</time>
      </trkpt>
      <trkpt lat="44.24612" lon="5.68429">
        <ele>669</ele>
        <time>2019-03-27T13:48:39Z</time>
      </trkpt>
      <trkpt lat="44.24611" lon="5.6842">
        <ele>669</ele>
        <time>2019-03-27T13:48:40Z</time>
      </trkpt>
      <trkpt lat="44.24609" lon="5.68412">
        <ele>669</ele>
        <time>2019-03-27T13:48:41Z</time>
      </trkpt>
      <trkpt lat="44.24607" lon="5.68403">
        <ele>669</ele>
        <time>2019-03-27T13:48:42Z</time>
      </trkpt>
      <trkpt lat="44.24605" lon="5.68395">
        <ele>669</ele>
        <time>2019-03-27T13:48:43Z</time>
      </trkpt>
      <trkpt lat="44.24603" lon="5.68387">
        <ele>669</ele>
        <time>2019-03-27T13:48:44Z</time>
      </trkpt>
      <trkpt lat="44.24601" lon="5.68378">
        <ele>669</ele>
        <time>2019-03-27T13:48:45Z</time>
      </trkpt>
      <trkpt lat="44.24599" lon="5.68369">
        <ele>669</ele>
        <time>2019-03-27T13:48:46Z</time>
      </trkpt>
      <trkpt lat="44.24597" lon="5.68361">
        <ele>669</ele>
        <time>2019-03-27T13:48:47Z</time>
      </trkpt>
      <trkpt lat="44.24595" lon="5.68352">
        <ele>669</ele>
        <time>2019-03-27T13:48:48Z</time>
      </trkpt>
      <trkpt lat="44.24593" lon="5.68344">
        <ele>669</ele>
        <time>2019-03-27T13:48:49Z</time>
      </trkpt>
      <trkpt lat="44.24591" lon="5.68335">
        <ele>669</ele>
        <time>2019-03-27T13:48:50Z</time>
      </trkpt>
      <trkpt lat="44.24589" lon="5.68327">
        <ele>669</ele>
        <time>2019-03-27T13:48:51Z</time>
      </trkpt>
      <trkpt lat="44.24587" lon="5.68318">
        <ele>669</ele>
        <time>2019-03-27T13:48:52Z</time>
      </trkpt>
      <trkpt lat="44.24585" lon="5.68309">
        <ele>669</ele>
        <time>2019-03-27T13:48:53Z</time>
      </trkpt>
      <trkpt lat="44.24583" lon="5.68301">
        <ele>669</ele>
        <time>2019-03-27T13:48:54Z</time>
      </trkpt>
      <trkpt lat="44.24581" lon="5.68293">
        <ele>669</ele>
        <time>2019-03-27T13:48:55Z</time>
      </trkpt>
      <trkpt lat="44.24579" lon="5.68284">
        <ele>669</ele>
        <time>2019-03-27T13:48:56Z</time>
      </trkpt>
      <trkpt lat="44.24577" lon="5.68276">
        <ele>669</ele>
        <time>2019-03-27T13:48:57Z</time>
      </trkpt>
      <trkpt lat="44.24575" lon="5.68267">
        <ele>669</ele>
        <time>2019-03-27T13:48:58Z</time>
      </trkpt>
      <trkpt lat="44.24574" lon="5.68259">
        <ele>669</ele>
        <time>2019-03-27T13:48:59Z</time>
      </trkpt>
      <trkpt lat="44.24572" lon="5.6825">
        <ele>669</ele>
        <time>2019-03-27T13:49:00Z</time>
      </trkpt>
      <trkpt lat="44.2457" lon="5.68242">
        <ele>669</ele>
        <time>2019-03-27T13:49:01Z</time>
      </trkpt>
      <trkpt lat="44.24568" lon="5.68234">
        <ele>669</ele>
        <time>2019-03-27T13:49:02Z</time>
      </trkpt>
      <trkpt lat="44.24566" lon="5.68225">
        <ele>669</ele>
        <time>2019-03-27T13:49:03Z</time>
      </trkpt>
      <trkpt lat="44.24564" lon="5.68217">
        <ele>669</ele>
        <time>2019-03-27T13:49:04Z</time>
      </trkpt>
      <trkpt lat="44.24562" lon="5.68208">
        <ele>669</ele>
        <time>2019-03-27T13:49:05Z</time>
      </trkpt>
      <trkpt lat="44.2456" lon="5.682">
        <ele>670</ele>
        <time>2019-03-27T13:49:06Z</time>
      </trkpt>
      <trkpt lat="44.24558" lon="5.68191">
        <ele>670</ele>
        <time>2019-03-27T13:49:07Z</time>
      </trkpt>
      <trkpt lat="44.24556" lon="5.68183">
        <ele>670</ele>
        <time>2019-03-27T13:49:08Z</time>
      </trkpt>
      <trkpt lat="44.24553" lon="5.68175">
        <ele>670</ele>
        <time>2019-03-27T13:49:09Z</time>
      </trkpt>
      <trkpt lat="44.24551" lon="5.68166">
        <ele>670</ele>
        <time>2019-03-27T13:49:10Z</time>
      </trkpt>
      <trkpt lat="44.24549" lon="5.68158">
        <ele>670</ele>
        <time>2019-03-27T13:49:11Z</time>
      </trkpt>
      <trkpt lat="44.24546" lon="5.6815">
        <ele>671</ele>
        <time>2019-03-27T13:49:12Z</time>
      </trkpt>
      <trkpt lat="44.24545" lon="5.68141">
        <ele>671</ele>
        <time>2019-03-27T13:49:13Z</time>
      </trkpt>
      <trkpt lat="44.24542" lon="5.68133">
        <ele>671</ele>
        <time>2019-03-27T13:49:14Z</time>
      </trkpt>
      <trkpt lat="44.2454" lon="5.68125">
        <ele>671</ele>
        <time>2019-03-27T13:49:15Z</time>
      </trkpt>
      <trkpt lat="44.24538" lon="5.68117">
        <ele>671</ele>
        <time>2019-03-27T13:49:16Z</time>
      </trkpt>
      <trkpt lat="44.24536" lon="5.68108">
        <ele>671</ele>
        <time>2019-03-27T13:49:17Z</time>
      </trkpt>
      <trkpt lat="44.24534" lon="5.681">
        <ele>672</ele>
        <time>2019-03-27T13:49:18Z</time>
      </trkpt>
      <trkpt lat="44.24532" lon="5.68092">
        <ele>672</ele>
        <time>2019-03-27T13:49:19Z</time>
      </trkpt>
      <trkpt lat="44.24531" lon="5.68084">
        <ele>672</ele>
        <time>2019-03-27T13:49:20Z</time>
      </trkpt>
      <trkpt lat="44.2453" lon="5.68076">
        <ele>672</ele>
        <time>2019-03-27T13:49:21Z</time>
      </trkpt>
      <trkpt lat="44.24528" lon="5.68068">
        <ele>672</ele>
        <time>2019-03-27T13:49:22Z</time>
      </trkpt>
      <trkpt lat="44.24527" lon="5.68059">
        <ele>672</ele>
        <time>2019-03-27T13:49:23Z</time>
      </trkpt>
      <trkpt lat="44.24527" lon="5.68051">
        <ele>672</ele>
        <time>2019-03-27T13:49:24Z</time>
      </trkpt>
      <trkpt lat="44.24526" lon="5.68043">
        <ele>672</ele>
        <time>2019-03-27T13:49:25Z</time>
      </trkpt>
      <trkpt lat="44.24526" lon="5.68034">
        <ele>672</ele>
        <time>2019-03-27T13:49:26Z</time>
      </trkpt>
      <trkpt lat="44.24526" lon="5.68025">
        <ele>672</ele>
        <time>2019-03-27T13:49:27Z</time>
      </trkpt>
      <trkpt lat="44.24525" lon="5.68017">
        <ele>672</ele>
        <time>2019-03-27T13:49:28Z</time>
      </trkpt>
      <trkpt lat="44.24525" lon="5.68009">
        <ele>672</ele>
        <time>2019-03-27T13:49:29Z</time>
      </trkpt>
      <trkpt lat="44.24524" lon="5.68">
        <ele>672</ele>
        <time>2019-03-27T13:49:30Z</time>
      </trkpt>
      <trkpt lat="44.24524" lon="5.67992">
        <ele>672</ele>
        <time>2019-03-27T13:49:31Z</time>
      </trkpt>
      <trkpt lat="44.24523" lon="5.67983">
        <ele>672</ele>
        <time>2019-03-27T13:49:32Z</time>
      </trkpt>
      <trkpt lat="44.24523" lon="5.67975">
        <ele>672</ele>
        <time>2019-03-27T13:49:33Z</time>
      </trkpt>
      <trkpt lat="44.24523" lon="5.67966">
        <ele>672</ele>
        <time>2019-03-27T13:49:34Z</time>
      </trkpt>
      <trkpt lat="44.24523" lon="5.67958">
        <ele>673</ele>
        <time>2019-03-27T13:49:35Z</time>
      </trkpt>
      <trkpt lat="44.24523" lon="5.6795">
        <ele>673</ele>
        <time>2019-03-27T13:49:36Z</time>
      </trkpt>
      <trkpt lat="44.24522" lon="5.67942">
        <ele>673</ele>
        <time>2019-03-27T13:49:37Z</time>
      </trkpt>
      <trkpt lat="44.24522" lon="5.67934">
        <ele>673</ele>
        <time>2019-03-27T13:49:38Z</time>
      </trkpt>
      <trkpt lat="44.24522" lon="5.67925">
        <ele>673</ele>
        <time>2019-03-27T13:49:39Z</time>
      </trkpt>
      <trkpt lat="44.24522" lon="5.67917">
        <ele>673</ele>
        <time>2019-03-27T13:49:40Z</time>
      </trkpt>
      <trkpt lat="44.24522" lon="5.67909">
        <ele>673</ele>
        <time>2019-03-27T13:49:41Z</time>
      </trkpt>
      <trkpt lat="44.24521" lon="5.67901">
        <ele>673</ele>
        <time>2019-03-27T13:49:42Z</time>
      </trkpt>
      <trkpt lat="44.24521" lon="5.67892">
        <ele>673</ele>
        <time>2019-03-27T13:49:43Z</time>
      </trkpt>
      <trkpt lat="44.24521" lon="5.67884">
        <ele>673</ele>
        <time>2019-03-27T13:49:44Z</time>
      </trkpt>
      <trkpt lat="44.2452" lon="5.67875">
        <ele>673</ele>
        <time>2019-03-27T13:49:45Z</time>
      </trkpt>
      <trkpt lat="44.2452" lon="5.67867">
        <ele>673</ele>
        <time>2019-03-27T13:49:46Z</time>
      </trkpt>
      <trkpt lat="44.2452" lon="5.67858">
        <ele>673</ele>
        <time>2019-03-27T13:49:47Z</time>
      </trkpt>
      <trkpt lat="44.24519" lon="5.6785">
        <ele>673</ele>
        <time>2019-03-27T13:49:48Z</time>
      </trkpt>
      <trkpt lat="44.24519" lon="5.67841">
        <ele>673</ele>
        <time>2019-03-27T13:49:49Z</time>
      </trkpt>
      <trkpt lat="44.2452" lon="5.67832">
        <ele>673</ele>
        <time>2019-03-27T13:49:50Z</time>
      </trkpt>
      <trkpt lat="44.2452" lon="5.67823">
        <ele>673</ele>
        <time>2019-03-27T13:49:51Z</time>
      </trkpt>
      <trkpt lat="44.2452" lon="5.67814">
        <ele>673</ele>
        <time>2019-03-27T13:49:52Z</time>
      </trkpt>
      <trkpt lat="44.2452" lon="5.67806">
        <ele>673</ele>
        <time>2019-03-27T13:49:53Z</time>
      </trkpt>
      <trkpt lat="44.24521" lon="5.67797">
        <ele>674</ele>
        <time>2019-03-27T13:49:54Z</time>
      </trkpt>
      <trkpt lat="44.24522" lon="5.67789">
        <ele>674</ele>
        <time>2019-03-27T13:49:55Z</time>
      </trkpt>
      <trkpt lat="44.24522" lon="5.6778">
        <ele>674</ele>
        <time>2019-03-27T13:49:56Z</time>
      </trkpt>
      <trkpt lat="44.24523" lon="5.67772">
        <ele>674</ele>
        <time>2019-03-27T13:49:57Z</time>
      </trkpt>
      <trkpt lat="44.24525" lon="5.67764">
        <ele>674</ele>
        <time>2019-03-27T13:49:58Z</time>
      </trkpt>
      <trkpt lat="44.24526" lon="5.67756">
        <ele>674</ele>
        <time>2019-03-27T13:49:59Z</time>
      </trkpt>
      <trkpt lat="44.24527" lon="5.67747">
        <ele>674</ele>
        <time>2019-03-27T13:50:00Z</time>
      </trkpt>
      <trkpt lat="44.24529" lon="5.67738">
        <ele>674</ele>
        <time>2019-03-27T13:50:01Z</time>
      </trkpt>
      <trkpt lat="44.2453" lon="5.6773">
        <ele>674</ele>
        <time>2019-03-27T13:50:02Z</time>
      </trkpt>
      <trkpt lat="44.24532" lon="5.67721">
        <ele>674</ele>
        <time>2019-03-27T13:50:03Z</time>
      </trkpt>
      <trkpt lat="44.24533" lon="5.67712">
        <ele>674</ele>
        <time>2019-03-27T13:50:04Z</time>
      </trkpt>
      <trkpt lat="44.24535" lon="5.67703">
        <ele>674</ele>
        <time>2019-03-27T13:50:05Z</time>
      </trkpt>
      <trkpt lat="44.24537" lon="5.67694">
        <ele>674</ele>
        <time>2019-03-27T13:50:06Z</time>
      </trkpt>
      <trkpt lat="44.24539" lon="5.67685">
        <ele>674</ele>
        <time>2019-03-27T13:50:07Z</time>
      </trkpt>
      <trkpt lat="44.24541" lon="5.67675">
        <ele>674</ele>
        <time>2019-03-27T13:50:08Z</time>
      </trkpt>
      <trkpt lat="44.24543" lon="5.67666">
        <ele>674</ele>
        <time>2019-03-27T13:50:09Z</time>
      </trkpt>
      <trkpt lat="44.24544" lon="5.67656">
        <ele>674</ele>
        <time>2019-03-27T13:50:10Z</time>
      </trkpt>
      <trkpt lat="44.24546" lon="5.67647">
        <ele>674</ele>
        <time>2019-03-27T13:50:11Z</time>
      </trkpt>
      <trkpt lat="44.24547" lon="5.67637">
        <ele>674</ele>
        <time>2019-03-27T13:50:12Z</time>
      </trkpt>
      <trkpt lat="44.24548" lon="5.67628">
        <ele>674</ele>
        <time>2019-03-27T13:50:13Z</time>
      </trkpt>
      <trkpt lat="44.24548" lon="5.67618">
        <ele>674</ele>
        <time>2019-03-27T13:50:14Z</time>
      </trkpt>
      <trkpt lat="44.24548" lon="5.67609">
        <ele>674</ele>
        <time>2019-03-27T13:50:15Z</time>
      </trkpt>
      <trkpt lat="44.24548" lon="5.676">
        <ele>674</ele>
        <time>2019-03-27T13:50:16Z</time>
      </trkpt>
      <trkpt lat="44.24547" lon="5.67591">
        <ele>674</ele>
        <time>2019-03-27T13:50:17Z</time>
      </trkpt>
      <trkpt lat="44.24546" lon="5.67582">
        <ele>674</ele>
        <time>2019-03-27T13:50:18Z</time>
      </trkpt>
      <trkpt lat="44.24545" lon="5.67573">
        <ele>674</ele>
        <time>2019-03-27T13:50:19Z</time>
      </trkpt>
      <trkpt lat="44.24545" lon="5.67564">
        <ele>674</ele>
        <time>2019-03-27T13:50:20Z</time>
      </trkpt>
      <trkpt lat="44.24544" lon="5.67556">
        <ele>674</ele>
        <time>2019-03-27T13:50:21Z</time>
      </trkpt>
      <trkpt lat="44.24544" lon="5.67548">
        <ele>674</ele>
        <time>2019-03-27T13:50:22Z</time>
      </trkpt>
      <trkpt lat="44.24545" lon="5.67539">
        <ele>674</ele>
        <time>2019-03-27T13:50:23Z</time>
      </trkpt>
      <trkpt lat="44.24547" lon="5.67531">
        <ele>674</ele>
        <time>2019-03-27T13:50:24Z</time>
      </trkpt>
      <trkpt lat="44.24548" lon="5.67523">
        <ele>674</ele>
        <time>2019-03-27T13:50:25Z</time>
      </trkpt>
      <trkpt lat="44.2455" lon="5.67516">
        <ele>674</ele>
        <time>2019-03-27T13:50:26Z</time>
      </trkpt>
      <trkpt lat="44.24553" lon="5.67509">
        <ele>674</ele>
        <time>2019-03-27T13:50:27Z</time>
      </trkpt>
      <trkpt lat="44.24556" lon="5.67501">
        <ele>674</ele>
        <time>2019-03-27T13:50:28Z</time>
      </trkpt>
      <trkpt lat="44.2456" lon="5.67494">
        <ele>674</ele>
        <time>2019-03-27T13:50:29Z</time>
      </trkpt>
      <trkpt lat="44.24564" lon="5.67486">
        <ele>674</ele>
        <time>2019-03-27T13:50:30Z</time>
      </trkpt>
      <trkpt lat="44.24568" lon="5.67479">
        <ele>674</ele>
        <time>2019-03-27T13:50:31Z</time>
      </trkpt>
      <trkpt lat="44.24573" lon="5.67472">
        <ele>674</ele>
        <time>2019-03-27T13:50:32Z</time>
      </trkpt>
      <trkpt lat="44.24577" lon="5.67465">
        <ele>674</ele>
        <time>2019-03-27T13:50:33Z</time>
      </trkpt>
      <trkpt lat="44.24582" lon="5.67458">
        <ele>674</ele>
        <time>2019-03-27T13:50:34Z</time>
      </trkpt>
      <trkpt lat="44.24586" lon="5.67451">
        <ele>674</ele>
        <time>2019-03-27T13:50:35Z</time>
      </trkpt>
      <trkpt lat="44.24591" lon="5.67443">
        <ele>674</ele>
        <time>2019-03-27T13:50:36Z</time>
      </trkpt>
      <trkpt lat="44.24595" lon="5.67436">
        <ele>674</ele>
        <time>2019-03-27T13:50:37Z</time>
      </trkpt>
      <trkpt lat="44.246" lon="5.67428">
        <ele>674</ele>
        <time>2019-03-27T13:50:38Z</time>
      </trkpt>
      <trkpt lat="44.24604" lon="5.67421">
        <ele>674</ele>
        <time>2019-03-27T13:50:39Z</time>
      </trkpt>
      <trkpt lat="44.24609" lon="5.67414">
        <ele>674</ele>
        <time>2019-03-27T13:50:40Z</time>
      </trkpt>
      <trkpt lat="44.24614" lon="5.67406">
        <ele>674</ele>
        <time>2019-03-27T13:50:41Z</time>
      </trkpt>
      <trkpt lat="44.24619" lon="5.67399">
        <ele>674</ele>
        <time>2019-03-27T13:50:42Z</time>
      </trkpt>
      <trkpt lat="44.24623" lon="5.67391">
        <ele>674</ele>
        <time>2019-03-27T13:50:43Z</time>
      </trkpt>
      <trkpt lat="44.24627" lon="5.67382">
        <ele>674</ele>
        <time>2019-03-27T13:50:44Z</time>
      </trkpt>
      <trkpt lat="44.2463" lon="5.67373">
        <ele>674</ele>
        <time>2019-03-27T13:50:45Z</time>
      </trkpt>
      <trkpt lat="44.24633" lon="5.67364">
        <ele>674</ele>
        <time>2019-03-27T13:50:46Z</time>
      </trkpt>
      <trkpt lat="44.24636" lon="5.67355">
        <ele>674</ele>
        <time>2019-03-27T13:50:47Z</time>
      </trkpt>
      <trkpt lat="44.24638" lon="5.67345">
        <ele>674</ele>
        <time>2019-03-27T13:50:48Z</time>
      </trkpt>
      <trkpt lat="44.2464" lon="5.67336">
        <ele>674</ele>
        <time>2019-03-27T13:50:49Z</time>
      </trkpt>
      <trkpt lat="44.24642" lon="5.67327">
        <ele>674</ele>
        <time>2019-03-27T13:50:50Z</time>
      </trkpt>
      <trkpt lat="44.24644" lon="5.67317">
        <ele>674</ele>
        <time>2019-03-27T13:50:51Z</time>
      </trkpt>
      <trkpt lat="44.24645" lon="5.67308">
        <ele>674</ele>
        <time>2019-03-27T13:50:52Z</time>
      </trkpt>
      <trkpt lat="44.24646" lon="5.67299">
        <ele>674</ele>
        <time>2019-03-27T13:50:53Z</time>
      </trkpt>
      <trkpt lat="44.24648" lon="5.6729">
        <ele>674</ele>
        <time>2019-03-27T13:50:54Z</time>
      </trkpt>
      <trkpt lat="44.24649" lon="5.6728">
        <ele>674</ele>
        <time>2019-03-27T13:50:55Z</time>
      </trkpt>
      <trkpt lat="44.24651" lon="5.67272">
        <ele>674</ele>
        <time>2019-03-27T13:50:56Z</time>
      </trkpt>
      <trkpt lat="44.24653" lon="5.67263">
        <ele>674</ele>
        <time>2019-03-27T13:50:57Z</time>
      </trkpt>
      <trkpt lat="44.24656" lon="5.67254">
        <ele>674</ele>
        <time>2019-03-27T13:50:58Z</time>
      </trkpt>
      <trkpt lat="44.24659" lon="5.67246">
        <ele>674</ele>
        <time>2019-03-27T13:50:59Z</time>
      </trkpt>
      <trkpt lat="44.24662" lon="5.67238">
        <ele>674</ele>
        <time>2019-03-27T13:51:00Z</time>
      </trkpt>
      <trkpt lat="44.24666" lon="5.6723">
        <ele>674</ele>
        <time>2019-03-27T13:51:01Z</time>
      </trkpt>
      <trkpt lat="44.2467" lon="5.67222">
        <ele>674</ele>
        <time>2019-03-27T13:51:02Z</time>
      </trkpt>
      <trkpt lat="44.24675" lon="5.67214">
        <ele>674</ele>
        <time>2019-03-27T13:51:03Z</time>
      </trkpt>
      <trkpt lat="44.24679" lon="5.67207">
        <ele>674</ele>
        <time>2019-03-27T13:51:04Z</time>
      </trkpt>
      <trkpt lat="44.24683" lon="5.67199">
        <ele>674</ele>
        <time>2019-03-27T13:51:05Z</time>
      </trkpt>
      <trkpt lat="44.24688" lon="5.67193">
        <ele>674</ele>
        <time>2019-03-27T13:51:06Z</time>
      </trkpt>
      <trkpt lat="44.24692" lon="5.67187">
        <ele>674</ele>
        <time>2019-03-27T13:51:07Z</time>
      </trkpt>
      <trkpt lat="44.24696" lon="5.6718">
        <ele>674</ele>
        <time>2019-03-27T13:51:08Z</time>
      </trkpt>
      <trkpt lat="44.247" lon="5.67173">
        <ele>674</ele>
        <time>2019-03-27T13:51:09Z</time>
      </trkpt>
      <trkpt lat="44.24704" lon="5.67165">
        <ele>674</ele>
        <time>2019-03-27T13:51:10Z</time>
      </trkpt>
      <trkpt lat="44.24708" lon="5.67157">
        <ele>674</ele>
        <time>2019-03-27T13:51:11Z</time>
      </trkpt>
      <trkpt lat="44.2471" lon="5.67148">
        <ele>674</ele>
        <time>2019-03-27T13:51:12Z</time>
      </trkpt>
      <trkpt lat="44.24712" lon="5.6714">
        <ele>674</ele>
        <time>2019-03-27T13:51:13Z</time>
      </trkpt>
      <trkpt lat="44.24713" lon="5.67131">
        <ele>674</ele>
        <time>2019-03-27T13:51:14Z</time>
      </trkpt>
      <trkpt lat="44.24714" lon="5.67122">
        <ele>674</ele>
        <time>2019-03-27T13:51:15Z</time>
      </trkpt>
      <trkpt lat="44.24715" lon="5.67113">
        <ele>674</ele>
        <time>2019-03-27T13:51:16Z</time>
      </trkpt>
      <trkpt lat="44.24715" lon="5.67104">
        <ele>675</ele>
        <time>2019-03-27T13:51:17Z</time>
      </trkpt>
      <trkpt lat="44.24717" lon="5.67095">
        <ele>675</ele>
        <time>2019-03-27T13:51:18Z</time>
      </trkpt>
      <trkpt lat="44.24717" lon="5.67086">
        <ele>675</ele>
        <time>2019-03-27T13:51:19Z</time>
      </trkpt>
      <trkpt lat="44.24718" lon="5.67077">
        <ele>675</ele>
        <time>2019-03-27T13:51:20Z</time>
      </trkpt>
      <trkpt lat="44.24719" lon="5.67068">
        <ele>675</ele>
        <time>2019-03-27T13:51:21Z</time>
      </trkpt>
      <trkpt lat="44.24719" lon="5.67059">
        <ele>676</ele>
        <time>2019-03-27T13:51:22Z</time>
      </trkpt>
      <trkpt lat="44.2472" lon="5.67051">
        <ele>676</ele>
        <time>2019-03-27T13:51:23Z</time>
      </trkpt>
      <trkpt lat="44.24721" lon="5.67042">
        <ele>676</ele>
        <time>2019-03-27T13:51:24Z</time>
      </trkpt>
      <trkpt lat="44.24722" lon="5.67033">
        <ele>676</ele>
        <time>2019-03-27T13:51:25Z</time>
      </trkpt>
      <trkpt lat="44.24723" lon="5.67025">
        <ele>677</ele>
        <time>2019-03-27T13:51:26Z</time>
      </trkpt>
      <trkpt lat="44.24725" lon="5.67016">
        <ele>677</ele>
        <time>2019-03-27T13:51:27Z</time>
      </trkpt>
      <trkpt lat="44.24727" lon="5.67008">
        <ele>677</ele>
        <time>2019-03-27T13:51:28Z</time>
      </trkpt>
      <trkpt lat="44.2473" lon="5.66999">
        <ele>677</ele>
        <time>2019-03-27T13:51:29Z</time>
      </trkpt>
      <trkpt lat="44.24733" lon="5.66991">
        <ele>677</ele>
        <time>2019-03-27T13:51:30Z</time>
      </trkpt>
      <trkpt lat="44.24736" lon="5.66983">
        <ele>677</ele>
        <time>2019-03-27T13:51:31Z</time>
      </trkpt>
      <trkpt lat="44.24739" lon="5.66975">
        <ele>677</ele>
        <time>2019-03-27T13:51:32Z</time>
      </trkpt>
      <trkpt lat="44.24743" lon="5.66968">
        <ele>677</ele>
        <time>2019-03-27T13:51:33Z</time>
      </trkpt>
      <trkpt lat="44.24746" lon="5.66961">
        <ele>677</ele>
        <time>2019-03-27T13:51:34Z</time>
      </trkpt>
      <trkpt lat="44.24749" lon="5.66954">
        <ele>677</ele>
        <time>2019-03-27T13:51:35Z</time>
      </trkpt>
      <trkpt lat="44.24752" lon="5.66947">
        <ele>677</ele>
        <time>2019-03-27T13:51:36Z</time>
      </trkpt>
      <trkpt lat="44.24755" lon="5.66939">
        <ele>677</ele>
        <time>2019-03-27T13:51:37Z</time>
      </trkpt>
      <trkpt lat="44.24758" lon="5.66932">
        <ele>677</ele>
        <time>2019-03-27T13:51:38Z</time>
      </trkpt>
      <trkpt lat="44.2476" lon="5.66925">
        <ele>677</ele>
        <time>2019-03-27T13:51:39Z</time>
      </trkpt>
      <trkpt lat="44.24764" lon="5.66918">
        <ele>677</ele>
        <time>2019-03-27T13:51:40Z</time>
      </trkpt>
      <trkpt lat="44.24767" lon="5.66911">
        <ele>677</ele>
        <time>2019-03-27T13:51:41Z</time>
      </trkpt>
      <trkpt lat="44.2477" lon="5.66905">
        <ele>677</ele>
        <time>2019-03-27T13:51:42Z</time>
      </trkpt>
      <trkpt lat="44.24772" lon="5.66898">
        <ele>677</ele>
        <time>2019-03-27T13:51:43Z</time>
      </trkpt>
      <trkpt lat="44.24773" lon="5.6689">
        <ele>677</ele>
        <time>2019-03-27T13:51:44Z</time>
      </trkpt>
      <trkpt lat="44.24775" lon="5.66883">
        <ele>677</ele>
        <time>2019-03-27T13:51:45Z</time>
      </trkpt>
      <trkpt lat="44.24777" lon="5.66877">
        <ele>677</ele>
        <time>2019-03-27T13:51:46Z</time>
      </trkpt>
      <trkpt lat="44.2478" lon="5.6687">
        <ele>677</ele>
        <time>2019-03-27T13:51:47Z</time>
      </trkpt>
      <trkpt lat="44.24782" lon="5.66862">
        <ele>677</ele>
        <time>2019-03-27T13:51:48Z</time>
      </trkpt>
      <trkpt lat="44.24784" lon="5.66855">
        <ele>677</ele>
        <time>2019-03-27T13:51:49Z</time>
      </trkpt>
      <trkpt lat="44.24786" lon="5.66847">
        <ele>677</ele>
        <time>2019-03-27T13:51:50Z</time>
      </trkpt>
      <trkpt lat="44.24789" lon="5.6684">
        <ele>677</ele>
        <time>2019-03-27T13:51:51Z</time>
      </trkpt>
      <trkpt lat="44.24791" lon="5.66832">
        <ele>677</ele>
        <time>2019-03-27T13:51:52Z</time>
      </trkpt>
      <trkpt lat="44.24793" lon="5.66824">
        <ele>677</ele>
        <time>2019-03-27T13:51:53Z</time>
      </trkpt>
      <trkpt lat="44.24795" lon="5.66816">
        <ele>677</ele>
        <time>2019-03-27T13:51:54Z</time>
      </trkpt>
      <trkpt lat="44.24796" lon="5.66808">
        <ele>677</ele>
        <time>2019-03-27T13:51:55Z</time>
      </trkpt>
      <trkpt lat="44.24797" lon="5.66799">
        <ele>677</ele>
        <time>2019-03-27T13:51:56Z</time>
      </trkpt>
      <trkpt lat="44.24798" lon="5.6679">
        <ele>677</ele>
        <time>2019-03-27T13:51:57Z</time>
      </trkpt>
      <trkpt lat="44.24797" lon="5.66782">
        <ele>677</ele>
        <time>2019-03-27T13:51:58Z</time>
      </trkpt>
      <trkpt lat="44.24797" lon="5.66773">
        <ele>677</ele>
        <time>2019-03-27T13:51:59Z</time>
      </trkpt>
      <trkpt lat="44.24796" lon="5.66764">
        <ele>677</ele>
        <time>2019-03-27T13:52:00Z</time>
      </trkpt>
      <trkpt lat="44.24795" lon="5.66756">
        <ele>677</ele>
        <time>2019-03-27T13:52:01Z</time>
      </trkpt>
      <trkpt lat="44.24793" lon="5.66749">
        <ele>677</ele>
        <time>2019-03-27T13:52:02Z</time>
      </trkpt>
      <trkpt lat="44.2479" lon="5.66741">
        <ele>677</ele>
        <time>2019-03-27T13:52:03Z</time>
      </trkpt>
      <trkpt lat="44.24787" lon="5.66734">
        <ele>677</ele>
        <time>2019-03-27T13:52:04Z</time>
      </trkpt>
      <trkpt lat="44.24783" lon="5.66727">
        <ele>677</ele>
        <time>2019-03-27T13:52:05Z</time>
      </trkpt>
      <trkpt lat="44.2478" lon="5.6672">
        <ele>677</ele>
        <time>2019-03-27T13:52:06Z</time>
      </trkpt>
      <trkpt lat="44.24776" lon="5.66713">
        <ele>678</ele>
        <time>2019-03-27T13:52:07Z</time>
      </trkpt>
      <trkpt lat="44.24772" lon="5.66706">
        <ele>679</ele>
        <time>2019-03-27T13:52:08Z</time>
      </trkpt>
      <trkpt lat="44.24768" lon="5.66701">
        <ele>679</ele>
        <time>2019-03-27T13:52:09Z</time>
      </trkpt>
      <trkpt lat="44.24763" lon="5.66695">
        <ele>680</ele>
        <time>2019-03-27T13:52:10Z</time>
      </trkpt>
      <trkpt lat="44.24758" lon="5.6669">
        <ele>680</ele>
        <time>2019-03-27T13:52:11Z</time>
      </trkpt>
      <trkpt lat="44.24753" lon="5.66686">
        <ele>680</ele>
        <time>2019-03-27T13:52:12Z</time>
      </trkpt>
      <trkpt lat="44.24748" lon="5.66682">
        <ele>680</ele>
        <time>2019-03-27T13:52:13Z</time>
      </trkpt>
      <trkpt lat="44.24742" lon="5.66679">
        <ele>680</ele>
        <time>2019-03-27T13:52:14Z</time>
      </trkpt>
      <trkpt lat="44.24737" lon="5.66677">
        <ele>680</ele>
        <time>2019-03-27T13:52:15Z</time>
      </trkpt>
      <trkpt lat="44.24731" lon="5.66675">
        <ele>680</ele>
        <time>2019-03-27T13:52:16Z</time>
      </trkpt>
      <trkpt lat="44.24725" lon="5.66673">
        <ele>680</ele>
        <time>2019-03-27T13:52:17Z</time>
      </trkpt>
      <trkpt lat="44.24719" lon="5.66671">
        <ele>681</ele>
        <time>2019-03-27T13:52:18Z</time>
      </trkpt>
      <trkpt lat="44.24713" lon="5.6667">
        <ele>681</ele>
        <time>2019-03-27T13:52:19Z</time>
      </trkpt>
      <trkpt lat="44.24707" lon="5.66668">
        <ele>681</ele>
        <time>2019-03-27T13:52:20Z</time>
      </trkpt>
      <trkpt lat="44.24701" lon="5.66667">
        <ele>681</ele>
        <time>2019-03-27T13:52:21Z</time>
      </trkpt>
      <trkpt lat="44.24694" lon="5.66665">
        <ele>681</ele>
        <time>2019-03-27T13:52:22Z</time>
      </trkpt>
      <trkpt lat="44.24688" lon="5.66664">
        <ele>681</ele>
        <time>2019-03-27T13:52:23Z</time>
      </trkpt>
      <trkpt lat="44.24682" lon="5.66662">
        <ele>681</ele>
        <time>2019-03-27T13:52:24Z</time>
      </trkpt>
      <trkpt lat="44.24675" lon="5.66661">
        <ele>681</ele>
        <time>2019-03-27T13:52:25Z</time>
      </trkpt>
      <trkpt lat="44.24669" lon="5.66659">
        <ele>681</ele>
        <time>2019-03-27T13:52:26Z</time>
      </trkpt>
      <trkpt lat="44.24663" lon="5.66657">
        <ele>681</ele>
        <time>2019-03-27T13:52:27Z</time>
      </trkpt>
      <trkpt lat="44.24657" lon="5.66654">
        <ele>681</ele>
        <time>2019-03-27T13:52:28Z</time>
      </trkpt>
      <trkpt lat="44.24652" lon="5.66649">
        <ele>681</ele>
        <time>2019-03-27T13:52:29Z</time>
      </trkpt>
      <trkpt lat="44.24647" lon="5.66642">
        <ele>681</ele>
        <time>2019-03-27T13:52:30Z</time>
      </trkpt>
      <trkpt lat="44.24644" lon="5.66634">
        <ele>681</ele>
        <time>2019-03-27T13:52:31Z</time>
      </trkpt>
      <trkpt lat="44.24643" lon="5.66624">
        <ele>681</ele>
        <time>2019-03-27T13:52:32Z</time>
      </trkpt>
      <trkpt lat="44.24643" lon="5.66615">
        <ele>681</ele>
        <time>2019-03-27T13:52:33Z</time>
      </trkpt>
      <trkpt lat="44.24646" lon="5.66606">
        <ele>681</ele>
        <time>2019-03-27T13:52:34Z</time>
      </trkpt>
      <trkpt lat="44.2465" lon="5.66599">
        <ele>681</ele>
        <time>2019-03-27T13:52:35Z</time>
      </trkpt>
      <trkpt lat="44.24655" lon="5.66592">
        <ele>681</ele>
        <time>2019-03-27T13:52:36Z</time>
      </trkpt>
      <trkpt lat="44.2466" lon="5.66585">
        <ele>681</ele>
        <time>2019-03-27T13:52:37Z</time>
      </trkpt>
      <trkpt lat="44.24665" lon="5.66578">
        <ele>681</ele>
        <time>2019-03-27T13:52:38Z</time>
      </trkpt>
      <trkpt lat="44.2467" lon="5.66572">
        <ele>681</ele>
        <time>2019-03-27T13:52:39Z</time>
      </trkpt>
      <trkpt lat="44.24675" lon="5.66566">
        <ele>681</ele>
        <time>2019-03-27T13:52:40Z</time>
      </trkpt>
      <trkpt lat="44.2468" lon="5.66559">
        <ele>681</ele>
        <time>2019-03-27T13:52:41Z</time>
      </trkpt>
      <trkpt lat="44.24685" lon="5.66553">
        <ele>681</ele>
        <time>2019-03-27T13:52:42Z</time>
      </trkpt>
      <trkpt lat="44.2469" lon="5.66546">
        <ele>681</ele>
        <time>2019-03-27T13:52:43Z</time>
      </trkpt>
      <trkpt lat="44.24694" lon="5.66538">
        <ele>681</ele>
        <time>2019-03-27T13:52:44Z</time>
      </trkpt>
      <trkpt lat="44.24697" lon="5.6653">
        <ele>681</ele>
        <time>2019-03-27T13:52:45Z</time>
      </trkpt>
      <trkpt lat="44.24701" lon="5.66522">
        <ele>681</ele>
        <time>2019-03-27T13:52:46Z</time>
      </trkpt>
      <trkpt lat="44.24704" lon="5.66514">
        <ele>681</ele>
        <time>2019-03-27T13:52:47Z</time>
      </trkpt>
      <trkpt lat="44.24706" lon="5.66505">
        <ele>681</ele>
        <time>2019-03-27T13:52:48Z</time>
      </trkpt>
      <trkpt lat="44.24708" lon="5.66497">
        <ele>681</ele>
        <time>2019-03-27T13:52:49Z</time>
      </trkpt>
      <trkpt lat="44.2471" lon="5.66488">
        <ele>681</ele>
        <time>2019-03-27T13:52:50Z</time>
      </trkpt>
      <trkpt lat="44.24711" lon="5.66479">
        <ele>681</ele>
        <time>2019-03-27T13:52:51Z</time>
      </trkpt>
      <trkpt lat="44.24712" lon="5.66471">
        <ele>681</ele>
        <time>2019-03-27T13:52:52Z</time>
      </trkpt>
      <trkpt lat="44.24712" lon="5.66462">
        <ele>681</ele>
        <time>2019-03-27T13:52:53Z</time>
      </trkpt>
      <trkpt lat="44.24712" lon="5.66453">
        <ele>681</ele>
        <time>2019-03-27T13:52:54Z</time>
      </trkpt>
      <trkpt lat="44.24711" lon="5.66445">
        <ele>681</ele>
        <time>2019-03-27T13:52:55Z</time>
      </trkpt>
      <trkpt lat="44.2471" lon="5.66436">
        <ele>681</ele>
        <time>2019-03-27T13:52:56Z</time>
      </trkpt>
      <trkpt lat="44.24709" lon="5.66428">
        <ele>681</ele>
        <time>2019-03-27T13:52:57Z</time>
      </trkpt>
      <trkpt lat="44.24707" lon="5.6642">
        <ele>681</ele>
        <time>2019-03-27T13:52:58Z</time>
      </trkpt>
      <trkpt lat="44.24705" lon="5.66411">
        <ele>681</ele>
        <time>2019-03-27T13:52:59Z</time>
      </trkpt>
      <trkpt lat="44.24702" lon="5.66403">
        <ele>681</ele>
        <time>2019-03-27T13:53:00Z</time>
      </trkpt>
      <trkpt lat="44.24698" lon="5.66396">
        <ele>681</ele>
        <time>2019-03-27T13:53:01Z</time>
      </trkpt>
      <trkpt lat="44.24694" lon="5.66389">
        <ele>681</ele>
        <time>2019-03-27T13:53:02Z</time>
      </trkpt>
      <trkpt lat="44.24689" lon="5.66383">
        <ele>681</ele>
        <time>2019-03-27T13:53:03Z</time>
      </trkpt>
      <trkpt lat="44.24684" lon="5.66377">
        <ele>681</ele>
        <time>2019-03-27T13:53:04Z</time>
      </trkpt>
      <trkpt lat="44.24678" lon="5.66372">
        <ele>681</ele>
        <time>2019-03-27T13:53:05Z</time>
      </trkpt>
      <trkpt lat="44.24672" lon="5.66368">
        <ele>682</ele>
        <time>2019-03-27T13:53:06Z</time>
      </trkpt>
      <trkpt lat="44.24666" lon="5.66366">
        <ele>682</ele>
        <time>2019-03-27T13:53:07Z</time>
      </trkpt>
      <trkpt lat="44.24659" lon="5.66364">
        <ele>682</ele>
        <time>2019-03-27T13:53:08Z</time>
      </trkpt>
      <trkpt lat="44.24653" lon="5.66363">
        <ele>682</ele>
        <time>2019-03-27T13:53:09Z</time>
      </trkpt>
      <trkpt lat="44.24646" lon="5.66362">
        <ele>682</ele>
        <time>2019-03-27T13:53:10Z</time>
      </trkpt>
      <trkpt lat="44.24639" lon="5.66362">
        <ele>682</ele>
        <time>2019-03-27T13:53:11Z</time>
      </trkpt>
      <trkpt lat="44.24633" lon="5.66362">
        <ele>682</ele>
        <time>2019-03-27T13:53:12Z</time>
      </trkpt>
      <trkpt lat="44.24626" lon="5.66363">
        <ele>682</ele>
        <time>2019-03-27T13:53:13Z</time>
      </trkpt>
      <trkpt lat="44.24619" lon="5.66364">
        <ele>682</ele>
        <time>2019-03-27T13:53:14Z</time>
      </trkpt>
      <trkpt lat="44.24612" lon="5.66364">
        <ele>682</ele>
        <time>2019-03-27T13:53:15Z</time>
      </trkpt>
      <trkpt lat="44.24606" lon="5.66365">
        <ele>682</ele>
        <time>2019-03-27T13:53:16Z</time>
      </trkpt>
      <trkpt lat="44.24599" lon="5.66365">
        <ele>682</ele>
        <time>2019-03-27T13:53:17Z</time>
      </trkpt>
      <trkpt lat="44.24593" lon="5.66365">
        <ele>682</ele>
        <time>2019-03-27T13:53:18Z</time>
      </trkpt>
      <trkpt lat="44.24586" lon="5.66365">
        <ele>682</ele>
        <time>2019-03-27T13:53:19Z</time>
      </trkpt>
      <trkpt lat="44.2458" lon="5.66365">
        <ele>682</ele>
        <time>2019-03-27T13:53:20Z</time>
      </trkpt>
      <trkpt lat="44.24573" lon="5.66364">
        <ele>682</ele>
        <time>2019-03-27T13:53:21Z</time>
      </trkpt>
      <trkpt lat="44.24567" lon="5.66362">
        <ele>682</ele>
        <time>2019-03-27T13:53:22Z</time>
      </trkpt>
      <trkpt lat="44.2456" lon="5.66361">
        <ele>682</ele>
        <time>2019-03-27T13:53:23Z</time>
      </trkpt>
      <trkpt lat="44.24554" lon="5.66358">
        <ele>682</ele>
        <time>2019-03-27T13:53:24Z</time>
      </trkpt>
      <trkpt lat="44.24548" lon="5.66354">
        <ele>682</ele>
        <time>2019-03-27T13:53:25Z</time>
      </trkpt>
      <trkpt lat="44.24541" lon="5.66351">
        <ele>682</ele>
        <time>2019-03-27T13:53:26Z</time>
      </trkpt>
      <trkpt lat="44.24535" lon="5.66347">
        <ele>682</ele>
        <time>2019-03-27T13:53:27Z</time>
      </trkpt>
      <trkpt lat="44.2453" lon="5.66341">
        <ele>682</ele>
        <time>2019-03-27T13:53:28Z</time>
      </trkpt>
      <trkpt lat="44.24524" lon="5.66336">
        <ele>682</ele>
        <time>2019-03-27T13:53:29Z</time>
      </trkpt>
      <trkpt lat="44.24519" lon="5.66329">
        <ele>682</ele>
        <time>2019-03-27T13:53:30Z</time>
      </trkpt>
      <trkpt lat="44.24514" lon="5.66323">
        <ele>682</ele>
        <time>2019-03-27T13:53:31Z</time>
      </trkpt>
      <trkpt lat="44.2451" lon="5.66317">
        <ele>683</ele>
        <time>2019-03-27T13:53:32Z</time>
      </trkpt>
      <trkpt lat="44.24506" lon="5.66309">
        <ele>683</ele>
        <time>2019-03-27T13:53:33Z</time>
      </trkpt>
      <trkpt lat="44.24501" lon="5.66302">
        <ele>683</ele>
        <time>2019-03-27T13:53:34Z</time>
      </trkpt>
      <trkpt lat="44.24497" lon="5.66295">
        <ele>683</ele>
        <time>2019-03-27T13:53:35Z</time>
      </trkpt>
      <trkpt lat="44.24492" lon="5.66287">
        <ele>684</ele>
        <time>2019-03-27T13:53:36Z</time>
      </trkpt>
      <trkpt lat="44.24488" lon="5.66281">
        <ele>684</ele>
        <time>2019-03-27T13:53:37Z</time>
      </trkpt>
      <trkpt lat="44.24484" lon="5.66274">
        <ele>684</ele>
        <time>2019-03-27T13:53:38Z</time>
      </trkpt>
      <trkpt lat="44.2448" lon="5.66267">
        <ele>684</ele>
        <time>2019-03-27T13:53:39Z</time>
      </trkpt>
      <trkpt lat="44.24475" lon="5.6626">
        <ele>685</ele>
        <time>2019-03-27T13:53:40Z</time>
      </trkpt>
      <trkpt lat="44.24472" lon="5.66252">
        <ele>685</ele>
        <time>2019-03-27T13:53:41Z</time>
      </trkpt>
      <trkpt lat="44.24468" lon="5.66245">
        <ele>685</ele>
        <time>2019-03-27T13:53:42Z</time>
      </trkpt>
      <trkpt lat="44.24464" lon="5.66238">
        <ele>685</ele>
        <time>2019-03-27T13:53:43Z</time>
      </trkpt>
      <trkpt lat="44.24459" lon="5.66232">
        <ele>685</ele>
        <time>2019-03-27T13:53:44Z</time>
      </trkpt>
      <trkpt lat="44.24455" lon="5.66225">
        <ele>686</ele>
        <time>2019-03-27T13:53:45Z</time>
      </trkpt>
      <trkpt lat="44.24451" lon="5.66218">
        <ele>686</ele>
        <time>2019-03-27T13:53:46Z</time>
      </trkpt>
      <trkpt lat="44.24446" lon="5.66211">
        <ele>687</ele>
        <time>2019-03-27T13:53:47Z</time>
      </trkpt>
      <trkpt lat="44.24443" lon="5.66204">
        <ele>687</ele>
        <time>2019-03-27T13:53:48Z</time>
      </trkpt>
      <trkpt lat="44.24439" lon="5.66196">
        <ele>687</ele>
        <time>2019-03-27T13:53:49Z</time>
      </trkpt>
      <trkpt lat="44.24436" lon="5.66189">
        <ele>688</ele>
        <time>2019-03-27T13:53:50Z</time>
      </trkpt>
      <trkpt lat="44.24432" lon="5.66181">
        <ele>688</ele>
        <time>2019-03-27T13:53:51Z</time>
      </trkpt>
      <trkpt lat="44.24429" lon="5.66172">
        <ele>688</ele>
        <time>2019-03-27T13:53:52Z</time>
      </trkpt>
      <trkpt lat="44.24427" lon="5.66163">
        <ele>688</ele>
        <time>2019-03-27T13:53:53Z</time>
      </trkpt>
      <trkpt lat="44.24425" lon="5.66154">
        <ele>688</ele>
        <time>2019-03-27T13:53:54Z</time>
      </trkpt>
      <trkpt lat="44.24424" lon="5.66145">
        <ele>688</ele>
        <time>2019-03-27T13:53:55Z</time>
      </trkpt>
      <trkpt lat="44.24423" lon="5.66135">
        <ele>688</ele>
        <time>2019-03-27T13:53:56Z</time>
      </trkpt>
      <trkpt lat="44.24422" lon="5.66125">
        <ele>688</ele>
        <time>2019-03-27T13:53:57Z</time>
      </trkpt>
      <trkpt lat="44.24422" lon="5.66116">
        <ele>688</ele>
        <time>2019-03-27T13:53:58Z</time>
      </trkpt>
      <trkpt lat="44.24421" lon="5.66106">
        <ele>688</ele>
        <time>2019-03-27T13:53:59Z</time>
      </trkpt>
      <trkpt lat="44.24421" lon="5.66097">
        <ele>688</ele>
        <time>2019-03-27T13:54:00Z</time>
      </trkpt>
      <trkpt lat="44.2442" lon="5.66087">
        <ele>688</ele>
        <time>2019-03-27T13:54:01Z</time>
      </trkpt>
      <trkpt lat="44.24419" lon="5.66078">
        <ele>688</ele>
        <time>2019-03-27T13:54:02Z</time>
      </trkpt>
      <trkpt lat="44.24418" lon="5.66069">
        <ele>688</ele>
        <time>2019-03-27T13:54:03Z</time>
      </trkpt>
      <trkpt lat="44.24417" lon="5.6606">
        <ele>688</ele>
        <time>2019-03-27T13:54:04Z</time>
      </trkpt>
      <trkpt lat="44.24416" lon="5.66051">
        <ele>688</ele>
        <time>2019-03-27T13:54:05Z</time>
      </trkpt>
      <trkpt lat="44.24414" lon="5.66043">
        <ele>688</ele>
        <time>2019-03-27T13:54:06Z</time>
      </trkpt>
      <trkpt lat="44.24411" lon="5.66036">
        <ele>688</ele>
        <time>2019-03-27T13:54:07Z</time>
      </trkpt>
      <trkpt lat="44.24408" lon="5.66028">
        <ele>688</ele>
        <time>2019-03-27T13:54:08Z</time>
      </trkpt>
      <trkpt lat="44.24404" lon="5.66021">
        <ele>688</ele>
        <time>2019-03-27T13:54:09Z</time>
      </trkpt>
      <trkpt lat="44.24401" lon="5.66015">
        <ele>689</ele>
        <time>2019-03-27T13:54:10Z</time>
      </trkpt>
      <trkpt lat="44.24397" lon="5.66008">
        <ele>689</ele>
        <time>2019-03-27T13:54:11Z</time>
      </trkpt>
      <trkpt lat="44.24394" lon="5.66002">
        <ele>689</ele>
        <time>2019-03-27T13:54:12Z</time>
      </trkpt>
      <trkpt lat="44.2439" lon="5.65995">
        <ele>689</ele>
        <time>2019-03-27T13:54:13Z</time>
      </trkpt>
      <trkpt lat="44.24387" lon="5.65988">
        <ele>689</ele>
        <time>2019-03-27T13:54:14Z</time>
      </trkpt>
      <trkpt lat="44.24383" lon="5.65981">
        <ele>689</ele>
        <time>2019-03-27T13:54:15Z</time>
      </trkpt>
      <trkpt lat="44.2438" lon="5.65974">
        <ele>689</ele>
        <time>2019-03-27T13:54:16Z</time>
      </trkpt>
      <trkpt lat="44.24378" lon="5.65967">
        <ele>689</ele>
        <time>2019-03-27T13:54:17Z</time>
      </trkpt>
      <trkpt lat="44.24375" lon="5.6596">
        <ele>689</ele>
        <time>2019-03-27T13:54:18Z</time>
      </trkpt>
      <trkpt lat="44.24373" lon="5.65953">
        <ele>689</ele>
        <time>2019-03-27T13:54:19Z</time>
      </trkpt>
      <trkpt lat="44.24371" lon="5.65946">
        <ele>689</ele>
        <time>2019-03-27T13:54:20Z</time>
      </trkpt>
      <trkpt lat="44.24371" lon="5.65938">
        <ele>689</ele>
        <time>2019-03-27T13:54:21Z</time>
      </trkpt>
      <trkpt lat="44.2437" lon="5.65931">
        <ele>689</ele>
        <time>2019-03-27T13:54:22Z</time>
      </trkpt>
      <trkpt lat="44.2437" lon="5.65924">
        <ele>689</ele>
        <time>2019-03-27T13:54:23Z</time>
      </trkpt>
      <trkpt lat="44.24371" lon="5.65916">
        <ele>689</ele>
        <time>2019-03-27T13:54:24Z</time>
      </trkpt>
      <trkpt lat="44.24371" lon="5.65908">
        <ele>689</ele>
        <time>2019-03-27T13:54:25Z</time>
      </trkpt>
      <trkpt lat="44.24372" lon="5.65901">
        <ele>689</ele>
        <time>2019-03-27T13:54:26Z</time>
      </trkpt>
      <trkpt lat="44.24374" lon="5.65894">
        <ele>689</ele>
        <time>2019-03-27T13:54:27Z</time>
      </trkpt>
      <trkpt lat="44.24377" lon="5.65887">
        <ele>689</ele>
        <time>2019-03-27T13:54:28Z</time>
      </trkpt>
      <trkpt lat="44.2438" lon="5.6588">
        <ele>689</ele>
        <time>2019-03-27T13:54:29Z</time>
      </trkpt>
      <trkpt lat="44.24385" lon="5.65874">
        <ele>689</ele>
        <time>2019-03-27T13:54:30Z</time>
      </trkpt>
      <trkpt lat="44.24388" lon="5.65868">
        <ele>689</ele>
        <time>2019-03-27T13:54:31Z</time>
      </trkpt>
      <trkpt lat="44.24392" lon="5.65863">
        <ele>689</ele>
        <time>2019-03-27T13:54:32Z</time>
      </trkpt>
      <trkpt lat="44.24396" lon="5.65858">
        <ele>689</ele>
        <time>2019-03-27T13:54:33Z</time>
      </trkpt>
      <trkpt lat="44.244" lon="5.65855">
        <ele>689</ele>
        <time>2019-03-27T13:54:34Z</time>
      </trkpt>
      <trkpt lat="44.24405" lon="5.65851">
        <ele>689</ele>
        <time>2019-03-27T13:54:35Z</time>
      </trkpt>
      <trkpt lat="44.2441" lon="5.65848">
        <ele>689</ele>
        <time>2019-03-27T13:54:36Z</time>
      </trkpt>
      <trkpt lat="44.24414" lon="5.65844">
        <ele>689</ele>
        <time>2019-03-27T13:54:37Z</time>
      </trkpt>
      <trkpt lat="44.2442" lon="5.65841">
        <ele>689</ele>
        <time>2019-03-27T13:54:38Z</time>
      </trkpt>
      <trkpt lat="44.24425" lon="5.65838">
        <ele>689</ele>
        <time>2019-03-27T13:54:39Z</time>
      </trkpt>
      <trkpt lat="44.2443" lon="5.65834">
        <ele>689</ele>
        <time>2019-03-27T13:54:40Z</time>
      </trkpt>
      <trkpt lat="44.24435" lon="5.65829">
        <ele>689</ele>
        <time>2019-03-27T13:54:41Z</time>
      </trkpt>
      <trkpt lat="44.24439" lon="5.65824">
        <ele>689</ele>
        <time>2019-03-27T13:54:42Z</time>
      </trkpt>
      <trkpt lat="44.24444" lon="5.6582">
        <ele>689</ele>
        <time>2019-03-27T13:54:43Z</time>
      </trkpt>
      <trkpt lat="44.24448" lon="5.65815">
        <ele>689</ele>
        <time>2019-03-27T13:54:44Z</time>
      </trkpt>
      <trkpt lat="44.24453" lon="5.6581">
        <ele>689</ele>
        <time>2019-03-27T13:54:45Z</time>
      </trkpt>
      <trkpt lat="44.24457" lon="5.65805">
        <ele>689</ele>
        <time>2019-03-27T13:54:46Z</time>
      </trkpt>
      <trkpt lat="44.24461" lon="5.658">
        <ele>689</ele>
        <time>2019-03-27T13:54:47Z</time>
      </trkpt>
      <trkpt lat="44.24466" lon="5.65795">
        <ele>689</ele>
        <time>2019-03-27T13:54:48Z</time>
      </trkpt>
      <trkpt lat="44.2447" lon="5.65789">
        <ele>689</ele>
        <time>2019-03-27T13:54:49Z</time>
      </trkpt>
      <trkpt lat="44.24474" lon="5.65784">
        <ele>689</ele>
        <time>2019-03-27T13:54:50Z</time>
      </trkpt>
      <trkpt lat="44.24479" lon="5.65778">
        <ele>689</ele>
        <time>2019-03-27T13:54:51Z</time>
      </trkpt>
      <trkpt lat="44.24482" lon="5.65772">
        <ele>689</ele>
        <time>2019-03-27T13:54:52Z</time>
      </trkpt>
      <trkpt lat="44.24486" lon="5.65766">
        <ele>688</ele>
        <time>2019-03-27T13:54:53Z</time>
      </trkpt>
      <trkpt lat="44.2449" lon="5.6576">
        <ele>688</ele>
        <time>2019-03-27T13:54:54Z</time>
      </trkpt>
      <trkpt lat="44.24492" lon="5.65752">
        <ele>688</ele>
        <time>2019-03-27T13:54:55Z</time>
      </trkpt>
      <trkpt lat="44.24494" lon="5.65743">
        <ele>688</ele>
        <time>2019-03-27T13:54:56Z</time>
      </trkpt>
      <trkpt lat="44.24494" lon="5.65734">
        <ele>688</ele>
        <time>2019-03-27T13:54:57Z</time>
      </trkpt>
      <trkpt lat="44.24494" lon="5.65725">
        <ele>688</ele>
        <time>2019-03-27T13:54:58Z</time>
      </trkpt>
      <trkpt lat="44.24493" lon="5.65717">
        <ele>688</ele>
        <time>2019-03-27T13:54:59Z</time>
      </trkpt>
      <trkpt lat="44.24491" lon="5.65708">
        <ele>688</ele>
        <time>2019-03-27T13:55:00Z</time>
      </trkpt>
      <trkpt lat="44.2449" lon="5.65699">
        <ele>688</ele>
        <time>2019-03-27T13:55:01Z</time>
      </trkpt>
      <trkpt lat="44.24488" lon="5.65691">
        <ele>688</ele>
        <time>2019-03-27T13:55:02Z</time>
      </trkpt>
      <trkpt lat="44.24485" lon="5.65683">
        <ele>689</ele>
        <time>2019-03-27T13:55:03Z</time>
      </trkpt>
      <trkpt lat="44.24484" lon="5.65675">
        <ele>690</ele>
        <time>2019-03-27T13:55:04Z</time>
      </trkpt>
      <trkpt lat="44.24481" lon="5.65666">
        <ele>690</ele>
        <time>2019-03-27T13:55:05Z</time>
      </trkpt>
      <trkpt lat="44.24479" lon="5.65658">
        <ele>691</ele>
        <time>2019-03-27T13:55:06Z</time>
      </trkpt>
      <trkpt lat="44.24476" lon="5.6565">
        <ele>692</ele>
        <time>2019-03-27T13:55:07Z</time>
      </trkpt>
      <trkpt lat="44.24474" lon="5.65642">
        <ele>693</ele>
        <time>2019-03-27T13:55:08Z</time>
      </trkpt>
      <trkpt lat="44.24471" lon="5.65634">
        <ele>694</ele>
        <time>2019-03-27T13:55:09Z</time>
      </trkpt>
      <trkpt lat="44.24469" lon="5.65626">
        <ele>695</ele>
        <time>2019-03-27T13:55:10Z</time>
      </trkpt>
      <trkpt lat="44.24466" lon="5.65619">
        <ele>696</ele>
        <time>2019-03-27T13:55:11Z</time>
      </trkpt>
      <trkpt lat="44.24463" lon="5.65612">
        <ele>696</ele>
        <time>2019-03-27T13:55:12Z</time>
      </trkpt>
      <trkpt lat="44.2446" lon="5.65604">
        <ele>697</ele>
        <time>2019-03-27T13:55:13Z</time>
      </trkpt>
      <trkpt lat="44.24457" lon="5.65597">
        <ele>697</ele>
        <time>2019-03-27T13:55:14Z</time>
      </trkpt>
      <trkpt lat="44.24453" lon="5.65589">
        <ele>697</ele>
        <time>2019-03-27T13:55:15Z</time>
      </trkpt>
      <trkpt lat="44.2445" lon="5.65582">
        <ele>697</ele>
        <time>2019-03-27T13:55:16Z</time>
      </trkpt>
      <trkpt lat="44.24447" lon="5.65575">
        <ele>698</ele>
        <time>2019-03-27T13:55:17Z</time>
      </trkpt>
      <trkpt lat="44.24443" lon="5.65568">
        <ele>698</ele>
        <time>2019-03-27T13:55:18Z</time>
      </trkpt>
      <trkpt lat="44.2444" lon="5.6556">
        <ele>698</ele>
        <time>2019-03-27T13:55:19Z</time>
      </trkpt>
      <trkpt lat="44.24436" lon="5.65553">
        <ele>698</ele>
        <time>2019-03-27T13:55:20Z</time>
      </trkpt>
      <trkpt lat="44.24432" lon="5.65546">
        <ele>698</ele>
        <time>2019-03-27T13:55:21Z</time>
      </trkpt>
      <trkpt lat="44.24429" lon="5.65538">
        <ele>698</ele>
        <time>2019-03-27T13:55:22Z</time>
      </trkpt>
      <trkpt lat="44.24426" lon="5.6553">
        <ele>699</ele>
        <time>2019-03-27T13:55:23Z</time>
      </trkpt>
      <trkpt lat="44.24422" lon="5.65523">
        <ele>699</ele>
        <time>2019-03-27T13:55:24Z</time>
      </trkpt>
      <trkpt lat="44.24419" lon="5.65516">
        <ele>699</ele>
        <time>2019-03-27T13:55:25Z</time>
      </trkpt>
      <trkpt lat="44.24415" lon="5.65509">
        <ele>699</ele>
        <time>2019-03-27T13:55:26Z</time>
      </trkpt>
      <trkpt lat="44.24411" lon="5.65501">
        <ele>699</ele>
        <time>2019-03-27T13:55:27Z</time>
      </trkpt>
      <trkpt lat="44.24408" lon="5.65494">
        <ele>699</ele>
        <time>2019-03-27T13:55:28Z</time>
      </trkpt>
      <trkpt lat="44.24404" lon="5.65487">
        <ele>699</ele>
        <time>2019-03-27T13:55:29Z</time>
      </trkpt>
      <trkpt lat="44.244" lon="5.6548">
        <ele>699</ele>
        <time>2019-03-27T13:55:30Z</time>
      </trkpt>
      <trkpt lat="44.24397" lon="5.65473">
        <ele>700</ele>
        <time>2019-03-27T13:55:31Z</time>
      </trkpt>
      <trkpt lat="44.24393" lon="5.65466">
        <ele>700</ele>
        <time>2019-03-27T13:55:32Z</time>
      </trkpt>
      <trkpt lat="44.2439" lon="5.65459">
        <ele>700</ele>
        <time>2019-03-27T13:55:33Z</time>
      </trkpt>
      <trkpt lat="44.24387" lon="5.65452">
        <ele>700</ele>
        <time>2019-03-27T13:55:34Z</time>
      </trkpt>
      <trkpt lat="44.24384" lon="5.65445">
        <ele>700</ele>
        <time>2019-03-27T13:55:35Z</time>
      </trkpt>
      <trkpt lat="44.2438" lon="5.65438">
        <ele>700</ele>
        <time>2019-03-27T13:55:36Z</time>
      </trkpt>
      <trkpt lat="44.24377" lon="5.65431">
        <ele>700</ele>
        <time>2019-03-27T13:55:37Z</time>
      </trkpt>
      <trkpt lat="44.24373" lon="5.65424">
        <ele>700</ele>
        <time>2019-03-27T13:55:38Z</time>
      </trkpt>
      <trkpt lat="44.2437" lon="5.65417">
        <ele>700</ele>
        <time>2019-03-27T13:55:39Z</time>
      </trkpt>
      <trkpt lat="44.24366" lon="5.65409">
        <ele>700</ele>
        <time>2019-03-27T13:55:40Z</time>
      </trkpt>
      <trkpt lat="44.24363" lon="5.65402">
        <ele>700</ele>
        <time>2019-03-27T13:55:41Z</time>
      </trkpt>
      <trkpt lat="44.2436" lon="5.65395">
        <ele>700</ele>
        <time>2019-03-27T13:55:42Z</time>
      </trkpt>
      <trkpt lat="44.24356" lon="5.65388">
        <ele>700</ele>
        <time>2019-03-27T13:55:43Z</time>
      </trkpt>
      <trkpt lat="44.24352" lon="5.65381">
        <ele>700</ele>
        <time>2019-03-27T13:55:44Z</time>
      </trkpt>
      <trkpt lat="44.24349" lon="5.65374">
        <ele>700</ele>
        <time>2019-03-27T13:55:45Z</time>
      </trkpt>
      <trkpt lat="44.24345" lon="5.65367">
        <ele>700</ele>
        <time>2019-03-27T13:55:46Z</time>
      </trkpt>
      <trkpt lat="44.24342" lon="5.6536">
        <ele>700</ele>
        <time>2019-03-27T13:55:47Z</time>
      </trkpt>
      <trkpt lat="44.24339" lon="5.65353">
        <ele>700</ele>
        <time>2019-03-27T13:55:48Z</time>
      </trkpt>
      <trkpt lat="44.24336" lon="5.65345">
        <ele>700</ele>
        <time>2019-03-27T13:55:49Z</time>
      </trkpt>
      <trkpt lat="44.24334" lon="5.65338">
        <ele>700</ele>
        <time>2019-03-27T13:55:50Z</time>
      </trkpt>
      <trkpt lat="44.24332" lon="5.6533">
        <ele>700</ele>
        <time>2019-03-27T13:55:51Z</time>
      </trkpt>
      <trkpt lat="44.2433" lon="5.65322">
        <ele>700</ele>
        <time>2019-03-27T13:55:52Z</time>
      </trkpt>
      <trkpt lat="44.2433" lon="5.65313">
        <ele>700</ele>
        <time>2019-03-27T13:55:53Z</time>
      </trkpt>
      <trkpt lat="44.24329" lon="5.65305">
        <ele>700</ele>
        <time>2019-03-27T13:55:54Z</time>
      </trkpt>
      <trkpt lat="44.2433" lon="5.65297">
        <ele>700</ele>
        <time>2019-03-27T13:55:55Z</time>
      </trkpt>
      <trkpt lat="44.24331" lon="5.65289">
        <ele>700</ele>
        <time>2019-03-27T13:55:56Z</time>
      </trkpt>
      <trkpt lat="44.24331" lon="5.6528">
        <ele>701</ele>
        <time>2019-03-27T13:55:57Z</time>
      </trkpt>
      <trkpt lat="44.24332" lon="5.65272">
        <ele>701</ele>
        <time>2019-03-27T13:55:58Z</time>
      </trkpt>
      <trkpt lat="44.24334" lon="5.65263">
        <ele>701</ele>
        <time>2019-03-27T13:55:59Z</time>
      </trkpt>
      <trkpt lat="44.24335" lon="5.65255">
        <ele>701</ele>
        <time>2019-03-27T13:56:00Z</time>
      </trkpt>
      <trkpt lat="44.24337" lon="5.65246">
        <ele>701</ele>
        <time>2019-03-27T13:56:01Z</time>
      </trkpt>
      <trkpt lat="44.24339" lon="5.65238">
        <ele>701</ele>
        <time>2019-03-27T13:56:02Z</time>
      </trkpt>
      <trkpt lat="44.2434" lon="5.6523">
        <ele>701</ele>
        <time>2019-03-27T13:56:03Z</time>
      </trkpt>
      <trkpt lat="44.24343" lon="5.65222">
        <ele>701</ele>
        <time>2019-03-27T13:56:04Z</time>
      </trkpt>
      <trkpt lat="44.24345" lon="5.65213">
        <ele>701</ele>
        <time>2019-03-27T13:56:05Z</time>
      </trkpt>
      <trkpt lat="44.24347" lon="5.65205">
        <ele>701</ele>
        <time>2019-03-27T13:56:06Z</time>
      </trkpt>
      <trkpt lat="44.24349" lon="5.65197">
        <ele>701</ele>
        <time>2019-03-27T13:56:07Z</time>
      </trkpt>
      <trkpt lat="44.2435" lon="5.65189">
        <ele>701</ele>
        <time>2019-03-27T13:56:08Z</time>
      </trkpt>
      <trkpt lat="44.24352" lon="5.65181">
        <ele>701</ele>
        <time>2019-03-27T13:56:09Z</time>
      </trkpt>
      <trkpt lat="44.24353" lon="5.65174">
        <ele>701</ele>
        <time>2019-03-27T13:56:10Z</time>
      </trkpt>
      <trkpt lat="44.24354" lon="5.65166">
        <ele>701</ele>
        <time>2019-03-27T13:56:11Z</time>
      </trkpt>
      <trkpt lat="44.24355" lon="5.65158">
        <ele>701</ele>
        <time>2019-03-27T13:56:12Z</time>
      </trkpt>
      <trkpt lat="44.24356" lon="5.65149">
        <ele>701</ele>
        <time>2019-03-27T13:56:13Z</time>
      </trkpt>
      <trkpt lat="44.24356" lon="5.65141">
        <ele>701</ele>
        <time>2019-03-27T13:56:14Z</time>
      </trkpt>
      <trkpt lat="44.24356" lon="5.65132">
        <ele>701</ele>
        <time>2019-03-27T13:56:15Z</time>
      </trkpt>
      <trkpt lat="44.24357" lon="5.65123">
        <ele>701</ele>
        <time>2019-03-27T13:56:16Z</time>
      </trkpt>
      <trkpt lat="44.24357" lon="5.65114">
        <ele>701</ele>
        <time>2019-03-27T13:56:17Z</time>
      </trkpt>
      <trkpt lat="44.24358" lon="5.65106">
        <ele>701</ele>
        <time>2019-03-27T13:56:18Z</time>
      </trkpt>
      <trkpt lat="44.24358" lon="5.65097">
        <ele>701</ele>
        <time>2019-03-27T13:56:19Z</time>
      </trkpt>
      <trkpt lat="44.24358" lon="5.65088">
        <ele>701</ele>
        <time>2019-03-27T13:56:20Z</time>
      </trkpt>
      <trkpt lat="44.24356" lon="5.6508">
        <ele>701</ele>
        <time>2019-03-27T13:56:21Z</time>
      </trkpt>
      <trkpt lat="44.24356" lon="5.65071">
        <ele>701</ele>
        <time>2019-03-27T13:56:22Z</time>
      </trkpt>
      <trkpt lat="44.24355" lon="5.65063">
        <ele>701</ele>
        <time>2019-03-27T13:56:23Z</time>
      </trkpt>
      <trkpt lat="44.24354" lon="5.65054">
        <ele>701</ele>
        <time>2019-03-27T13:56:24Z</time>
      </trkpt>
      <trkpt lat="44.24352" lon="5.65045">
        <ele>702</ele>
        <time>2019-03-27T13:56:25Z</time>
      </trkpt>
      <trkpt lat="44.24351" lon="5.65036">
        <ele>702</ele>
        <time>2019-03-27T13:56:26Z</time>
      </trkpt>
      <trkpt lat="44.24349" lon="5.65028">
        <ele>702</ele>
        <time>2019-03-27T13:56:27Z</time>
      </trkpt>
      <trkpt lat="44.24347" lon="5.65019">
        <ele>703</ele>
        <time>2019-03-27T13:56:28Z</time>
      </trkpt>
      <trkpt lat="44.24345" lon="5.6501">
        <ele>703</ele>
        <time>2019-03-27T13:56:29Z</time>
      </trkpt>
      <trkpt lat="44.24342" lon="5.65001">
        <ele>703</ele>
        <time>2019-03-27T13:56:30Z</time>
      </trkpt>
      <trkpt lat="44.2434" lon="5.64993">
        <ele>703</ele>
        <time>2019-03-27T13:56:31Z</time>
      </trkpt>
      <trkpt lat="44.24338" lon="5.64984">
        <ele>703</ele>
        <time>2019-03-27T13:56:32Z</time>
      </trkpt>
      <trkpt lat="44.24336" lon="5.64976">
        <ele>703</ele>
        <time>2019-03-27T13:56:33Z</time>
      </trkpt>
      <trkpt lat="44.24334" lon="5.64967">
        <ele>704</ele>
        <time>2019-03-27T13:56:34Z</time>
      </trkpt>
      <trkpt lat="44.24331" lon="5.64959">
        <ele>704</ele>
        <time>2019-03-27T13:56:35Z</time>
      </trkpt>
      <trkpt lat="44.24329" lon="5.64952">
        <ele>704</ele>
        <time>2019-03-27T13:56:36Z</time>
      </trkpt>
      <trkpt lat="44.24326" lon="5.64944">
        <ele>704</ele>
        <time>2019-03-27T13:56:37Z</time>
      </trkpt>
      <trkpt lat="44.24323" lon="5.64936">
        <ele>704</ele>
        <time>2019-03-27T13:56:38Z</time>
      </trkpt>
      <trkpt lat="44.24321" lon="5.64928">
        <ele>704</ele>
        <time>2019-03-27T13:56:39Z</time>
      </trkpt>
      <trkpt lat="44.24318" lon="5.6492">
        <ele>704</ele>
        <time>2019-03-27T13:56:40Z</time>
      </trkpt>
      <trkpt lat="44.24315" lon="5.64912">
        <ele>704</ele>
        <time>2019-03-27T13:56:41Z</time>
      </trkpt>
      <trkpt lat="44.24312" lon="5.64904">
        <ele>704</ele>
        <time>2019-03-27T13:56:42Z</time>
      </trkpt>
      <trkpt lat="44.24309" lon="5.64896">
        <ele>704</ele>
        <time>2019-03-27T13:56:43Z</time>
      </trkpt>
      <trkpt lat="44.24307" lon="5.64887">
        <ele>704</ele>
        <time>2019-03-27T13:56:44Z</time>
      </trkpt>
      <trkpt lat="44.24304" lon="5.64879">
        <ele>704</ele>
        <time>2019-03-27T13:56:45Z</time>
      </trkpt>
      <trkpt lat="44.243" lon="5.64871">
        <ele>704</ele>
        <time>2019-03-27T13:56:46Z</time>
      </trkpt>
      <trkpt lat="44.24297" lon="5.64863">
        <ele>704</ele>
        <time>2019-03-27T13:56:47Z</time>
      </trkpt>
      <trkpt lat="44.24293" lon="5.64855">
        <ele>704</ele>
        <time>2019-03-27T13:56:48Z</time>
      </trkpt>
      <trkpt lat="44.24289" lon="5.64848">
        <ele>704</ele>
        <time>2019-03-27T13:56:49Z</time>
      </trkpt>
      <trkpt lat="44.24285" lon="5.64842">
        <ele>704</ele>
        <time>2019-03-27T13:56:50Z</time>
      </trkpt>
      <trkpt lat="44.24281" lon="5.64836">
        <ele>704</ele>
        <time>2019-03-27T13:56:51Z</time>
      </trkpt>
      <trkpt lat="44.24277" lon="5.64829">
        <ele>704</ele>
        <time>2019-03-27T13:56:52Z</time>
      </trkpt>
      <trkpt lat="44.24273" lon="5.64822">
        <ele>704</ele>
        <time>2019-03-27T13:56:53Z</time>
      </trkpt>
      <trkpt lat="44.24269" lon="5.64815">
        <ele>704</ele>
        <time>2019-03-27T13:56:54Z</time>
      </trkpt>
      <trkpt lat="44.24266" lon="5.64808">
        <ele>704</ele>
        <time>2019-03-27T13:56:55Z</time>
      </trkpt>
      <trkpt lat="44.24263" lon="5.648">
        <ele>704</ele>
        <time>2019-03-27T13:56:56Z</time>
      </trkpt>
      <trkpt lat="44.24261" lon="5.64792">
        <ele>704</ele>
        <time>2019-03-27T13:56:57Z</time>
      </trkpt>
      <trkpt lat="44.24258" lon="5.64784">
        <ele>704</ele>
        <time>2019-03-27T13:56:58Z</time>
      </trkpt>
      <trkpt lat="44.24257" lon="5.64776">
        <ele>704</ele>
        <time>2019-03-27T13:56:59Z</time>
      </trkpt>
      <trkpt lat="44.24256" lon="5.64767">
        <ele>704</ele>
        <time>2019-03-27T13:57:00Z</time>
      </trkpt>
      <trkpt lat="44.24255" lon="5.64759">
        <ele>704</ele>
        <time>2019-03-27T13:57:01Z</time>
      </trkpt>
      <trkpt lat="44.24255" lon="5.64751">
        <ele>704</ele>
        <time>2019-03-27T13:57:02Z</time>
      </trkpt>
      <trkpt lat="44.24255" lon="5.64742">
        <ele>704</ele>
        <time>2019-03-27T13:57:03Z</time>
      </trkpt>
      <trkpt lat="44.24254" lon="5.64734">
        <ele>704</ele>
        <time>2019-03-27T13:57:04Z</time>
      </trkpt>
      <trkpt lat="44.24254" lon="5.64726">
        <ele>704</ele>
        <time>2019-03-27T13:57:05Z</time>
      </trkpt>
      <trkpt lat="44.24253" lon="5.64717">
        <ele>704</ele>
        <time>2019-03-27T13:57:06Z</time>
      </trkpt>
      <trkpt lat="44.24252" lon="5.64709">
        <ele>704</ele>
        <time>2019-03-27T13:57:07Z</time>
      </trkpt>
      <trkpt lat="44.24251" lon="5.64701">
        <ele>704</ele>
        <time>2019-03-27T13:57:08Z</time>
      </trkpt>
      <trkpt lat="44.2425" lon="5.64692">
        <ele>704</ele>
        <time>2019-03-27T13:57:09Z</time>
      </trkpt>
      <trkpt lat="44.24248" lon="5.64683">
        <ele>704</ele>
        <time>2019-03-27T13:57:10Z</time>
      </trkpt>
      <trkpt lat="44.24245" lon="5.64675">
        <ele>704</ele>
        <time>2019-03-27T13:57:11Z</time>
      </trkpt>
      <trkpt lat="44.24242" lon="5.64666">
        <ele>704</ele>
        <time>2019-03-27T13:57:12Z</time>
      </trkpt>
      <trkpt lat="44.24239" lon="5.64658">
        <ele>704</ele>
        <time>2019-03-27T13:57:13Z</time>
      </trkpt>
      <trkpt lat="44.24236" lon="5.64649">
        <ele>704</ele>
        <time>2019-03-27T13:57:14Z</time>
      </trkpt>
      <trkpt lat="44.24233" lon="5.64642">
        <ele>704</ele>
        <time>2019-03-27T13:57:15Z</time>
      </trkpt>
      <trkpt lat="44.2423" lon="5.64634">
        <ele>704</ele>
        <time>2019-03-27T13:57:16Z</time>
      </trkpt>
      <trkpt lat="44.24227" lon="5.64627">
        <ele>704</ele>
        <time>2019-03-27T13:57:17Z</time>
      </trkpt>
      <trkpt lat="44.24224" lon="5.64619">
        <ele>704</ele>
        <time>2019-03-27T13:57:18Z</time>
      </trkpt>
      <trkpt lat="44.24221" lon="5.64612">
        <ele>704</ele>
        <time>2019-03-27T13:57:19Z</time>
      </trkpt>
      <trkpt lat="44.24218" lon="5.64604">
        <ele>704</ele>
        <time>2019-03-27T13:57:20Z</time>
      </trkpt>
      <trkpt lat="44.24215" lon="5.64596">
        <ele>704</ele>
        <time>2019-03-27T13:57:21Z</time>
      </trkpt>
      <trkpt lat="44.24212" lon="5.64588">
        <ele>704</ele>
        <time>2019-03-27T13:57:22Z</time>
      </trkpt>
      <trkpt lat="44.24208" lon="5.64581">
        <ele>704</ele>
        <time>2019-03-27T13:57:23Z</time>
      </trkpt>
      <trkpt lat="44.24204" lon="5.64574">
        <ele>704</ele>
        <time>2019-03-27T13:57:24Z</time>
      </trkpt>
      <trkpt lat="44.242" lon="5.64567">
        <ele>704</ele>
        <time>2019-03-27T13:57:25Z</time>
      </trkpt>
      <trkpt lat="44.24196" lon="5.64561">
        <ele>704</ele>
        <time>2019-03-27T13:57:26Z</time>
      </trkpt>
      <trkpt lat="44.24191" lon="5.64554">
        <ele>704</ele>
        <time>2019-03-27T13:57:27Z</time>
      </trkpt>
      <trkpt lat="44.24187" lon="5.64548">
        <ele>704</ele>
        <time>2019-03-27T13:57:28Z</time>
      </trkpt>
      <trkpt lat="44.24182" lon="5.64542">
        <ele>704</ele>
        <time>2019-03-27T13:57:29Z</time>
      </trkpt>
      <trkpt lat="44.24177" lon="5.64536">
        <ele>704</ele>
        <time>2019-03-27T13:57:30Z</time>
      </trkpt>
      <trkpt lat="44.24173" lon="5.6453">
        <ele>704</ele>
        <time>2019-03-27T13:57:31Z</time>
      </trkpt>
      <trkpt lat="44.24168" lon="5.64523">
        <ele>704</ele>
        <time>2019-03-27T13:57:32Z</time>
      </trkpt>
      <trkpt lat="44.24163" lon="5.64517">
        <ele>704</ele>
        <time>2019-03-27T13:57:33Z</time>
      </trkpt>
      <trkpt lat="44.24159" lon="5.64511">
        <ele>704</ele>
        <time>2019-03-27T13:57:34Z</time>
      </trkpt>
      <trkpt lat="44.24154" lon="5.64505">
        <ele>704</ele>
        <time>2019-03-27T13:57:35Z</time>
      </trkpt>
      <trkpt lat="44.2415" lon="5.64499">
        <ele>704</ele>
        <time>2019-03-27T13:57:36Z</time>
      </trkpt>
      <trkpt lat="44.24146" lon="5.64493">
        <ele>704</ele>
        <time>2019-03-27T13:57:37Z</time>
      </trkpt>
      <trkpt lat="44.24141" lon="5.64487">
        <ele>704</ele>
        <time>2019-03-27T13:57:38Z</time>
      </trkpt>
      <trkpt lat="44.24136" lon="5.64481">
        <ele>704</ele>
        <time>2019-03-27T13:57:39Z</time>
      </trkpt>
      <trkpt lat="44.24131" lon="5.64476">
        <ele>704</ele>
        <time>2019-03-27T13:57:40Z</time>
      </trkpt>
      <trkpt lat="44.24126" lon="5.64471">
        <ele>704</ele>
        <time>2019-03-27T13:57:41Z</time>
      </trkpt>
      <trkpt lat="44.24121" lon="5.64466">
        <ele>704</ele>
        <time>2019-03-27T13:57:42Z</time>
      </trkpt>
      <trkpt lat="44.24116" lon="5.64461">
        <ele>704</ele>
        <time>2019-03-27T13:57:43Z</time>
      </trkpt>
      <trkpt lat="44.24111" lon="5.64455">
        <ele>704</ele>
        <time>2019-03-27T13:57:44Z</time>
      </trkpt>
      <trkpt lat="44.24106" lon="5.6445">
        <ele>704</ele>
        <time>2019-03-27T13:57:45Z</time>
      </trkpt>
      <trkpt lat="44.24101" lon="5.64445">
        <ele>704</ele>
        <time>2019-03-27T13:57:46Z</time>
      </trkpt>
      <trkpt lat="44.24097" lon="5.64439">
        <ele>704</ele>
        <time>2019-03-27T13:57:47Z</time>
      </trkpt>
      <trkpt lat="44.24092" lon="5.64433">
        <ele>704</ele>
        <time>2019-03-27T13:57:48Z</time>
      </trkpt>
      <trkpt lat="44.24087" lon="5.64427">
        <ele>704</ele>
        <time>2019-03-27T13:57:49Z</time>
      </trkpt>
      <trkpt lat="44.24082" lon="5.64421">
        <ele>704</ele>
        <time>2019-03-27T13:57:50Z</time>
      </trkpt>
      <trkpt lat="44.24078" lon="5.64414">
        <ele>704</ele>
        <time>2019-03-27T13:57:51Z</time>
      </trkpt>
      <trkpt lat="44.24074" lon="5.64407">
        <ele>704</ele>
        <time>2019-03-27T13:57:52Z</time>
      </trkpt>
      <trkpt lat="44.2407" lon="5.64401">
        <ele>704</ele>
        <time>2019-03-27T13:57:53Z</time>
      </trkpt>
      <trkpt lat="44.24066" lon="5.64394">
        <ele>704</ele>
        <time>2019-03-27T13:57:54Z</time>
      </trkpt>
      <trkpt lat="44.24062" lon="5.64387">
        <ele>704</ele>
        <time>2019-03-27T13:57:55Z</time>
      </trkpt>
      <trkpt lat="44.24058" lon="5.6438">
        <ele>704</ele>
        <time>2019-03-27T13:57:56Z</time>
      </trkpt>
      <trkpt lat="44.24055" lon="5.64372">
        <ele>704</ele>
        <time>2019-03-27T13:57:57Z</time>
      </trkpt>
      <trkpt lat="44.24052" lon="5.64364">
        <ele>704</ele>
        <time>2019-03-27T13:57:58Z</time>
      </trkpt>
      <trkpt lat="44.2405" lon="5.64356">
        <ele>704</ele>
        <time>2019-03-27T13:57:59Z</time>
      </trkpt>
      <trkpt lat="44.24047" lon="5.64348">
        <ele>704</ele>
        <time>2019-03-27T13:58:00Z</time>
      </trkpt>
      <trkpt lat="44.24044" lon="5.6434">
        <ele>704</ele>
        <time>2019-03-27T13:58:01Z</time>
      </trkpt>
      <trkpt lat="44.24042" lon="5.64332">
        <ele>704</ele>
        <time>2019-03-27T13:58:02Z</time>
      </trkpt>
      <trkpt lat="44.2404" lon="5.64324">
        <ele>705</ele>
        <time>2019-03-27T13:58:03Z</time>
      </trkpt>
      <trkpt lat="44.24038" lon="5.64316">
        <ele>705</ele>
        <time>2019-03-27T13:58:04Z</time>
      </trkpt>
      <trkpt lat="44.24036" lon="5.64308">
        <ele>705</ele>
        <time>2019-03-27T13:58:05Z</time>
      </trkpt>
      <trkpt lat="44.24034" lon="5.643">
        <ele>705</ele>
        <time>2019-03-27T13:58:06Z</time>
      </trkpt>
      <trkpt lat="44.24032" lon="5.64291">
        <ele>706</ele>
        <time>2019-03-27T13:58:07Z</time>
      </trkpt>
      <trkpt lat="44.24031" lon="5.64283">
        <ele>706</ele>
        <time>2019-03-27T13:58:08Z</time>
      </trkpt>
      <trkpt lat="44.24029" lon="5.64274">
        <ele>706</ele>
        <time>2019-03-27T13:58:09Z</time>
      </trkpt>
      <trkpt lat="44.24028" lon="5.64265">
        <ele>706</ele>
        <time>2019-03-27T13:58:10Z</time>
      </trkpt>
      <trkpt lat="44.24028" lon="5.64256">
        <ele>706</ele>
        <time>2019-03-27T13:58:11Z</time>
      </trkpt>
      <trkpt lat="44.24028" lon="5.64248">
        <ele>707</ele>
        <time>2019-03-27T13:58:12Z</time>
      </trkpt>
      <trkpt lat="44.24029" lon="5.64238">
        <ele>707</ele>
        <time>2019-03-27T13:58:13Z</time>
      </trkpt>
      <trkpt lat="44.24031" lon="5.64229">
        <ele>707</ele>
        <time>2019-03-27T13:58:14Z</time>
      </trkpt>
      <trkpt lat="44.24033" lon="5.64221">
        <ele>707</ele>
        <time>2019-03-27T13:58:15Z</time>
      </trkpt>
      <trkpt lat="44.24036" lon="5.64212">
        <ele>707</ele>
        <time>2019-03-27T13:58:16Z</time>
      </trkpt>
      <trkpt lat="44.24039" lon="5.64204">
        <ele>707</ele>
        <time>2019-03-27T13:58:17Z</time>
      </trkpt>
      <trkpt lat="44.24042" lon="5.64197">
        <ele>707</ele>
        <time>2019-03-27T13:58:18Z</time>
      </trkpt>
      <trkpt lat="44.24046" lon="5.64189">
        <ele>707</ele>
        <time>2019-03-27T13:58:19Z</time>
      </trkpt>
      <trkpt lat="44.24049" lon="5.64182">
        <ele>707</ele>
        <time>2019-03-27T13:58:20Z</time>
      </trkpt>
      <trkpt lat="44.24053" lon="5.64174">
        <ele>707</ele>
        <time>2019-03-27T13:58:21Z</time>
      </trkpt>
      <trkpt lat="44.24057" lon="5.64167">
        <ele>707</ele>
        <time>2019-03-27T13:58:22Z</time>
      </trkpt>
      <trkpt lat="44.2406" lon="5.64159">
        <ele>707</ele>
        <time>2019-03-27T13:58:23Z</time>
      </trkpt>
      <trkpt lat="44.24064" lon="5.64152">
        <ele>707</ele>
        <time>2019-03-27T13:58:24Z</time>
      </trkpt>
      <trkpt lat="44.24068" lon="5.64144">
        <ele>707</ele>
        <time>2019-03-27T13:58:25Z</time>
      </trkpt>
      <trkpt lat="44.24072" lon="5.64136">
        <ele>707</ele>
        <time>2019-03-27T13:58:26Z</time>
      </trkpt>
      <trkpt lat="44.24075" lon="5.64127">
        <ele>707</ele>
        <time>2019-03-27T13:58:27Z</time>
      </trkpt>
      <trkpt lat="44.24078" lon="5.64119">
        <ele>707</ele>
        <time>2019-03-27T13:58:28Z</time>
      </trkpt>
      <trkpt lat="44.24082" lon="5.6411">
        <ele>707</ele>
        <time>2019-03-27T13:58:29Z</time>
      </trkpt>
      <trkpt lat="44.24086" lon="5.64102">
        <ele>707</ele>
        <time>2019-03-27T13:58:30Z</time>
      </trkpt>
      <trkpt lat="44.24089" lon="5.64094">
        <ele>707</ele>
        <time>2019-03-27T13:58:31Z</time>
      </trkpt>
      <trkpt lat="44.24093" lon="5.64085">
        <ele>707</ele>
        <time>2019-03-27T13:58:32Z</time>
      </trkpt>
      <trkpt lat="44.24097" lon="5.64078">
        <ele>707</ele>
        <time>2019-03-27T13:58:33Z</time>
      </trkpt>
      <trkpt lat="44.24099" lon="5.6407">
        <ele>706</ele>
        <time>2019-03-27T13:58:34Z</time>
      </trkpt>
      <trkpt lat="44.24102" lon="5.64061">
        <ele>706</ele>
        <time>2019-03-27T13:58:35Z</time>
      </trkpt>
      <trkpt lat="44.24105" lon="5.64053">
        <ele>705</ele>
        <time>2019-03-27T13:58:36Z</time>
      </trkpt>
      <trkpt lat="44.24108" lon="5.64045">
        <ele>705</ele>
        <time>2019-03-27T13:58:37Z</time>
      </trkpt>
      <trkpt lat="44.24111" lon="5.64037">
        <ele>705</ele>
        <time>2019-03-27T13:58:38Z</time>
      </trkpt>
      <trkpt lat="44.24114" lon="5.64028">
        <ele>704</ele>
        <time>2019-03-27T13:58:39Z</time>
      </trkpt>
      <trkpt lat="44.24117" lon="5.6402">
        <ele>704</ele>
        <time>2019-03-27T13:58:40Z</time>
      </trkpt>
      <trkpt lat="44.2412" lon="5.64012">
        <ele>704</ele>
        <time>2019-03-27T13:58:41Z</time>
      </trkpt>
      <trkpt lat="44.24124" lon="5.64004">
        <ele>704</ele>
        <time>2019-03-27T13:58:42Z</time>
      </trkpt>
      <trkpt lat="44.24127" lon="5.63996">
        <ele>704</ele>
        <time>2019-03-27T13:58:43Z</time>
      </trkpt>
      <trkpt lat="44.24131" lon="5.63989">
        <ele>704</ele>
        <time>2019-03-27T13:58:44Z</time>
      </trkpt>
      <trkpt lat="44.24135" lon="5.63981">
        <ele>704</ele>
        <time>2019-03-27T13:58:45Z</time>
      </trkpt>
      <trkpt lat="44.24139" lon="5.63974">
        <ele>704</ele>
        <time>2019-03-27T13:58:46Z</time>
      </trkpt>
      <trkpt lat="44.24144" lon="5.63968">
        <ele>704</ele>
        <time>2019-03-27T13:58:47Z</time>
      </trkpt>
      <trkpt lat="44.24148" lon="5.63961">
        <ele>704</ele>
        <time>2019-03-27T13:58:48Z</time>
      </trkpt>
      <trkpt lat="44.24152" lon="5.63955">
        <ele>704</ele>
        <time>2019-03-27T13:58:49Z</time>
      </trkpt>
      <trkpt lat="44.24157" lon="5.6395">
        <ele>704</ele>
        <time>2019-03-27T13:58:50Z</time>
      </trkpt>
      <trkpt lat="44.24161" lon="5.63944">
        <ele>704</ele>
        <time>2019-03-27T13:58:51Z</time>
      </trkpt>
      <trkpt lat="44.24165" lon="5.63939">
        <ele>704</ele>
        <time>2019-03-27T13:58:52Z</time>
      </trkpt>
      <trkpt lat="44.2417" lon="5.63933">
        <ele>704</ele>
        <time>2019-03-27T13:58:53Z</time>
      </trkpt>
      <trkpt lat="44.24174" lon="5.63927">
        <ele>703</ele>
        <time>2019-03-27T13:58:54Z</time>
      </trkpt>
      <trkpt lat="44.24179" lon="5.63921">
        <ele>703</ele>
        <time>2019-03-27T13:58:55Z</time>
      </trkpt>
      <trkpt lat="44.24183" lon="5.63916">
        <ele>703</ele>
        <time>2019-03-27T13:58:56Z</time>
      </trkpt>
      <trkpt lat="44.24187" lon="5.63909">
        <ele>702</ele>
        <time>2019-03-27T13:58:57Z</time>
      </trkpt>
      <trkpt lat="44.24191" lon="5.63902">
        <ele>702</ele>
        <time>2019-03-27T13:58:58Z</time>
      </trkpt>
      <trkpt lat="44.24194" lon="5.63894">
        <ele>702</ele>
        <time>2019-03-27T13:58:59Z</time>
      </trkpt>
      <trkpt lat="44.24197" lon="5.63886">
        <ele>702</ele>
        <time>2019-03-27T13:59:00Z</time>
      </trkpt>
      <trkpt lat="44.242" lon="5.63878">
        <ele>702</ele>
        <time>2019-03-27T13:59:01Z</time>
      </trkpt>
      <trkpt lat="44.24202" lon="5.63869">
        <ele>702</ele>
        <time>2019-03-27T13:59:02Z</time>
      </trkpt>
      <trkpt lat="44.24204" lon="5.63859">
        <ele>702</ele>
        <time>2019-03-27T13:59:03Z</time>
      </trkpt>
      <trkpt lat="44.24205" lon="5.63849">
        <ele>702</ele>
        <time>2019-03-27T13:59:04Z</time>
      </trkpt>
      <trkpt lat="44.24205" lon="5.63839">
        <ele>702</ele>
        <time>2019-03-27T13:59:05Z</time>
      </trkpt>
      <trkpt lat="44.24204" lon="5.63829">
        <ele>702</ele>
        <time>2019-03-27T13:59:06Z</time>
      </trkpt>
      <trkpt lat="44.24202" lon="5.63818">
        <ele>702</ele>
        <time>2019-03-27T13:59:07Z</time>
      </trkpt>
      <trkpt lat="44.242" lon="5.63808">
        <ele>702</ele>
        <time>2019-03-27T13:59:08Z</time>
      </trkpt>
      <trkpt lat="44.24198" lon="5.63798">
        <ele>702</ele>
        <time>2019-03-27T13:59:09Z</time>
      </trkpt>
      <trkpt lat="44.24195" lon="5.63789">
        <ele>702</ele>
        <time>2019-03-27T13:59:10Z</time>
      </trkpt>
      <trkpt lat="44.24192" lon="5.63781">
        <ele>702</ele>
        <time>2019-03-27T13:59:11Z</time>
      </trkpt>
      <trkpt lat="44.24189" lon="5.63772">
        <ele>702</ele>
        <time>2019-03-27T13:59:12Z</time>
      </trkpt>
      <trkpt lat="44.24186" lon="5.63764">
        <ele>703</ele>
        <time>2019-03-27T13:59:13Z</time>
      </trkpt>
      <trkpt lat="44.24183" lon="5.63755">
        <ele>704</ele>
        <time>2019-03-27T13:59:14Z</time>
      </trkpt>
      <trkpt lat="44.24179" lon="5.63747">
        <ele>705</ele>
        <time>2019-03-27T13:59:15Z</time>
      </trkpt>
      <trkpt lat="44.24176" lon="5.63738">
        <ele>705</ele>
        <time>2019-03-27T13:59:16Z</time>
      </trkpt>
      <trkpt lat="44.24173" lon="5.63731">
        <ele>706</ele>
        <time>2019-03-27T13:59:17Z</time>
      </trkpt>
      <trkpt lat="44.2417" lon="5.63723">
        <ele>707</ele>
        <time>2019-03-27T13:59:18Z</time>
      </trkpt>
      <trkpt lat="44.24167" lon="5.63715">
        <ele>707</ele>
        <time>2019-03-27T13:59:19Z</time>
      </trkpt>
      <trkpt lat="44.24164" lon="5.63707">
        <ele>708</ele>
        <time>2019-03-27T13:59:20Z</time>
      </trkpt>
      <trkpt lat="44.24161" lon="5.63699">
        <ele>708</ele>
        <time>2019-03-27T13:59:21Z</time>
      </trkpt>
      <trkpt lat="44.24158" lon="5.63691">
        <ele>708</ele>
        <time>2019-03-27T13:59:22Z</time>
      </trkpt>
      <trkpt lat="44.24156" lon="5.63683">
        <ele>709</ele>
        <time>2019-03-27T13:59:23Z</time>
      </trkpt>
      <trkpt lat="44.24153" lon="5.63675">
        <ele>709</ele>
        <time>2019-03-27T13:59:24Z</time>
      </trkpt>
      <trkpt lat="44.2415" lon="5.63667">
        <ele>709</ele>
        <time>2019-03-27T13:59:25Z</time>
      </trkpt>
      <trkpt lat="44.24147" lon="5.63658">
        <ele>709</ele>
        <time>2019-03-27T13:59:26Z</time>
      </trkpt>
      <trkpt lat="44.24144" lon="5.6365">
        <ele>710</ele>
        <time>2019-03-27T13:59:27Z</time>
      </trkpt>
      <trkpt lat="44.2414" lon="5.63642">
        <ele>710</ele>
        <time>2019-03-27T13:59:28Z</time>
      </trkpt>
      <trkpt lat="44.24136" lon="5.63634">
        <ele>711</ele>
        <time>2019-03-27T13:59:29Z</time>
      </trkpt>
      <trkpt lat="44.24131" lon="5.63625">
        <ele>711</ele>
        <time>2019-03-27T13:59:30Z</time>
      </trkpt>
      <trkpt lat="44.24127" lon="5.63618">
        <ele>712</ele>
        <time>2019-03-27T13:59:31Z</time>
      </trkpt>
      <trkpt lat="44.24122" lon="5.6361">
        <ele>712</ele>
        <time>2019-03-27T13:59:32Z</time>
      </trkpt>
      <trkpt lat="44.24117" lon="5.63602">
        <ele>712</ele>
        <time>2019-03-27T13:59:33Z</time>
      </trkpt>
      <trkpt lat="44.24112" lon="5.63595">
        <ele>712</ele>
        <time>2019-03-27T13:59:34Z</time>
      </trkpt>
      <trkpt lat="44.24107" lon="5.63588">
        <ele>712</ele>
        <time>2019-03-27T13:59:35Z</time>
      </trkpt>
      <trkpt lat="44.24101" lon="5.63581">
        <ele>712</ele>
        <time>2019-03-27T13:59:36Z</time>
      </trkpt>
      <trkpt lat="44.24095" lon="5.63574">
        <ele>712</ele>
        <time>2019-03-27T13:59:37Z</time>
      </trkpt>
      <trkpt lat="44.24089" lon="5.63567">
        <ele>712</ele>
        <time>2019-03-27T13:59:38Z</time>
      </trkpt>
      <trkpt lat="44.24083" lon="5.63561">
        <ele>712</ele>
        <time>2019-03-27T13:59:39Z</time>
      </trkpt>
      <trkpt lat="44.24076" lon="5.63554">
        <ele>712</ele>
        <time>2019-03-27T13:59:40Z</time>
      </trkpt>
      <trkpt lat="44.2407" lon="5.63547">
        <ele>712</ele>
        <time>2019-03-27T13:59:41Z</time>
      </trkpt>
      <trkpt lat="44.24064" lon="5.63541">
        <ele>712</ele>
        <time>2019-03-27T13:59:42Z</time>
      </trkpt>
      <trkpt lat="44.24057" lon="5.63534">
        <ele>712</ele>
        <time>2019-03-27T13:59:43Z</time>
      </trkpt>
      <trkpt lat="44.24051" lon="5.63528">
        <ele>712</ele>
        <time>2019-03-27T13:59:44Z</time>
      </trkpt>
      <trkpt lat="44.24044" lon="5.63521">
        <ele>712</ele>
        <time>2019-03-27T13:59:45Z</time>
      </trkpt>
      <trkpt lat="44.24038" lon="5.63515">
        <ele>712</ele>
        <time>2019-03-27T13:59:46Z</time>
      </trkpt>
      <trkpt lat="44.24032" lon="5.63509">
        <ele>712</ele>
        <time>2019-03-27T13:59:47Z</time>
      </trkpt>
      <trkpt lat="44.24026" lon="5.63503">
        <ele>712</ele>
        <time>2019-03-27T13:59:48Z</time>
      </trkpt>
      <trkpt lat="44.2402" lon="5.63496">
        <ele>712</ele>
        <time>2019-03-27T13:59:49Z</time>
      </trkpt>
      <trkpt lat="44.24014" lon="5.6349">
        <ele>712</ele>
        <time>2019-03-27T13:59:50Z</time>
      </trkpt>
      <trkpt lat="44.24008" lon="5.63484">
        <ele>712</ele>
        <time>2019-03-27T13:59:51Z</time>
      </trkpt>
      <trkpt lat="44.24002" lon="5.63478">
        <ele>712</ele>
        <time>2019-03-27T13:59:52Z</time>
      </trkpt>
      <trkpt lat="44.23996" lon="5.63472">
        <ele>712</ele>
        <time>2019-03-27T13:59:53Z</time>
      </trkpt>
      <trkpt lat="44.2399" lon="5.63466">
        <ele>712</ele>
        <time>2019-03-27T13:59:54Z</time>
      </trkpt>
      <trkpt lat="44.23984" lon="5.63459">
        <ele>711</ele>
        <time>2019-03-27T13:59:55Z</time>
      </trkpt>
      <trkpt lat="44.23978" lon="5.63453">
        <ele>711</ele>
        <time>2019-03-27T13:59:56Z</time>
      </trkpt>
      <trkpt lat="44.23972" lon="5.63447">
        <ele>711</ele>
        <time>2019-03-27T13:59:57Z</time>
      </trkpt>
      <trkpt lat="44.23966" lon="5.63441">
        <ele>711</ele>
        <time>2019-03-27T13:59:58Z</time>
      </trkpt>
      <trkpt lat="44.2396" lon="5.63435">
        <ele>711</ele>
        <time>2019-03-27T13:59:59Z</time>
      </trkpt>
      <trkpt lat="44.23954" lon="5.63428">
        <ele>711</ele>
        <time>2019-03-27T14:00:00Z</time>
      </trkpt>
      <trkpt lat="44.23948" lon="5.63422">
        <ele>711</ele>
        <time>2019-03-27T14:00:01Z</time>
      </trkpt>
      <trkpt lat="44.23942" lon="5.63415">
        <ele>711</ele>
        <time>2019-03-27T14:00:02Z</time>
      </trkpt>
      <trkpt lat="44.23935" lon="5.63409">
        <ele>710</ele>
        <time>2019-03-27T14:00:03Z</time>
      </trkpt>
      <trkpt lat="44.23929" lon="5.63402">
        <ele>710</ele>
        <time>2019-03-27T14:00:04Z</time>
      </trkpt>
      <trkpt lat="44.23923" lon="5.63396">
        <ele>710</ele>
        <time>2019-03-27T14:00:05Z</time>
      </trkpt>
      <trkpt lat="44.23917" lon="5.6339">
        <ele>710</ele>
        <time>2019-03-27T14:00:06Z</time>
      </trkpt>
      <trkpt lat="44.23911" lon="5.63383">
        <ele>710</ele>
        <time>2019-03-27T14:00:07Z</time>
      </trkpt>
      <trkpt lat="44.23904" lon="5.63377">
        <ele>709</ele>
        <time>2019-03-27T14:00:08Z</time>
      </trkpt>
      <trkpt lat="44.23898" lon="5.63371">
        <ele>709</ele>
        <time>2019-03-27T14:00:09Z</time>
      </trkpt>
      <trkpt lat="44.23892" lon="5.63364">
        <ele>709</ele>
        <time>2019-03-27T14:00:10Z</time>
      </trkpt>
      <trkpt lat="44.23886" lon="5.63358">
        <ele>709</ele>
        <time>2019-03-27T14:00:11Z</time>
      </trkpt>
      <trkpt lat="44.2388" lon="5.63351">
        <ele>709</ele>
        <time>2019-03-27T14:00:12Z</time>
      </trkpt>
      <trkpt lat="44.23873" lon="5.63345">
        <ele>709</ele>
        <time>2019-03-27T14:00:13Z</time>
      </trkpt>
      <trkpt lat="44.23867" lon="5.63338">
        <ele>709</ele>
        <time>2019-03-27T14:00:14Z</time>
      </trkpt>
      <trkpt lat="44.23861" lon="5.63332">
        <ele>709</ele>
        <time>2019-03-27T14:00:15Z</time>
      </trkpt>
      <trkpt lat="44.23854" lon="5.63325">
        <ele>709</ele>
        <time>2019-03-27T14:00:16Z</time>
      </trkpt>
      <trkpt lat="44.23848" lon="5.63319">
        <ele>709</ele>
        <time>2019-03-27T14:00:17Z</time>
      </trkpt>
      <trkpt lat="44.23842" lon="5.63313">
        <ele>709</ele>
        <time>2019-03-27T14:00:18Z</time>
      </trkpt>
      <trkpt lat="44.23836" lon="5.63306">
        <ele>709</ele>
        <time>2019-03-27T14:00:19Z</time>
      </trkpt>
      <trkpt lat="44.2383" lon="5.633">
        <ele>709</ele>
        <time>2019-03-27T14:00:20Z</time>
      </trkpt>
      <trkpt lat="44.23824" lon="5.63294">
        <ele>709</ele>
        <time>2019-03-27T14:00:21Z</time>
      </trkpt>
      <trkpt lat="44.23817" lon="5.63287">
        <ele>709</ele>
        <time>2019-03-27T14:00:22Z</time>
      </trkpt>
      <trkpt lat="44.23811" lon="5.63281">
        <ele>709</ele>
        <time>2019-03-27T14:00:23Z</time>
      </trkpt>
      <trkpt lat="44.23805" lon="5.63275">
        <ele>709</ele>
        <time>2019-03-27T14:00:24Z</time>
      </trkpt>
      <trkpt lat="44.23799" lon="5.63269">
        <ele>709</ele>
        <time>2019-03-27T14:00:25Z</time>
      </trkpt>
      <trkpt lat="44.23793" lon="5.63263">
        <ele>709</ele>
        <time>2019-03-27T14:00:26Z</time>
      </trkpt>
      <trkpt lat="44.23786" lon="5.63257">
        <ele>709</ele>
        <time>2019-03-27T14:00:27Z</time>
      </trkpt>
      <trkpt lat="44.2378" lon="5.63252">
        <ele>709</ele>
        <time>2019-03-27T14:00:28Z</time>
      </trkpt>
      <trkpt lat="44.23773" lon="5.63247">
        <ele>709</ele>
        <time>2019-03-27T14:00:29Z</time>
      </trkpt>
      <trkpt lat="44.23767" lon="5.63242">
        <ele>709</ele>
        <time>2019-03-27T14:00:30Z</time>
      </trkpt>
      <trkpt lat="44.2376" lon="5.63237">
        <ele>709</ele>
        <time>2019-03-27T14:00:31Z</time>
      </trkpt>
      <trkpt lat="44.23754" lon="5.63233">
        <ele>709</ele>
        <time>2019-03-27T14:00:32Z</time>
      </trkpt>
      <trkpt lat="44.23747" lon="5.63229">
        <ele>709</ele>
        <time>2019-03-27T14:00:33Z</time>
      </trkpt>
      <trkpt lat="44.23741" lon="5.63226">
        <ele>709</ele>
        <time>2019-03-27T14:00:34Z</time>
      </trkpt>
      <trkpt lat="44.23735" lon="5.63222">
        <ele>709</ele>
        <time>2019-03-27T14:00:35Z</time>
      </trkpt>
      <trkpt lat="44.23728" lon="5.63219">
        <ele>709</ele>
        <time>2019-03-27T14:00:36Z</time>
      </trkpt>
      <trkpt lat="44.23721" lon="5.63216">
        <ele>709</ele>
        <time>2019-03-27T14:00:37Z</time>
      </trkpt>
      <trkpt lat="44.23715" lon="5.63213">
        <ele>709</ele>
        <time>2019-03-27T14:00:38Z</time>
      </trkpt>
      <trkpt lat="44.23708" lon="5.63211">
        <ele>709</ele>
        <time>2019-03-27T14:00:39Z</time>
      </trkpt>
      <trkpt lat="44.23701" lon="5.63209">
        <ele>709</ele>
        <time>2019-03-27T14:00:40Z</time>
      </trkpt>
      <trkpt lat="44.23694" lon="5.63207">
        <ele>709</ele>
        <time>2019-03-27T14:00:41Z</time>
      </trkpt>
      <trkpt lat="44.23687" lon="5.63205">
        <ele>709</ele>
        <time>2019-03-27T14:00:42Z</time>
      </trkpt>
      <trkpt lat="44.2368" lon="5.63203">
        <ele>709</ele>
        <time>2019-03-27T14:00:43Z</time>
      </trkpt>
      <trkpt lat="44.23673" lon="5.63201">
        <ele>709</ele>
        <time>2019-03-27T14:00:44Z</time>
      </trkpt>
      <trkpt lat="44.23666" lon="5.632">
        <ele>709</ele>
        <time>2019-03-27T14:00:45Z</time>
      </trkpt>
      <trkpt lat="44.23658" lon="5.63198">
        <ele>709</ele>
        <time>2019-03-27T14:00:46Z</time>
      </trkpt>
      <trkpt lat="44.23651" lon="5.63196">
        <ele>709</ele>
        <time>2019-03-27T14:00:47Z</time>
      </trkpt>
      <trkpt lat="44.23643" lon="5.63194">
        <ele>709</ele>
        <time>2019-03-27T14:00:48Z</time>
      </trkpt>
      <trkpt lat="44.23635" lon="5.63192">
        <ele>709</ele>
        <time>2019-03-27T14:00:49Z</time>
      </trkpt>
      <trkpt lat="44.23628" lon="5.63191">
        <ele>709</ele>
        <time>2019-03-27T14:00:50Z</time>
      </trkpt>
      <trkpt lat="44.2362" lon="5.63189">
        <ele>709</ele>
        <time>2019-03-27T14:00:51Z</time>
      </trkpt>
      <trkpt lat="44.23613" lon="5.63187">
        <ele>709</ele>
        <time>2019-03-27T14:00:52Z</time>
      </trkpt>
      <trkpt lat="44.23605" lon="5.63185">
        <ele>709</ele>
        <time>2019-03-27T14:00:53Z</time>
      </trkpt>
      <trkpt lat="44.23598" lon="5.63183">
        <ele>709</ele>
        <time>2019-03-27T14:00:54Z</time>
      </trkpt>
      <trkpt lat="44.23592" lon="5.63181">
        <ele>709</ele>
        <time>2019-03-27T14:00:55Z</time>
      </trkpt>
      <trkpt lat="44.23584" lon="5.6318">
        <ele>709</ele>
        <time>2019-03-27T14:00:56Z</time>
      </trkpt>
      <trkpt lat="44.23577" lon="5.63178">
        <ele>709</ele>
        <time>2019-03-27T14:00:57Z</time>
      </trkpt>
      <trkpt lat="44.23571" lon="5.63177">
        <ele>709</ele>
        <time>2019-03-27T14:00:58Z</time>
      </trkpt>
      <trkpt lat="44.23564" lon="5.63175">
        <ele>709</ele>
        <time>2019-03-27T14:00:59Z</time>
      </trkpt>
      <trkpt lat="44.23557" lon="5.63173">
        <ele>709</ele>
        <time>2019-03-27T14:01:00Z</time>
      </trkpt>
      <trkpt lat="44.23551" lon="5.63172">
        <ele>709</ele>
        <time>2019-03-27T14:01:01Z</time>
      </trkpt>
      <trkpt lat="44.23544" lon="5.6317">
        <ele>709</ele>
        <time>2019-03-27T14:01:02Z</time>
      </trkpt>
      <trkpt lat="44.23538" lon="5.63169">
        <ele>709</ele>
        <time>2019-03-27T14:01:03Z</time>
      </trkpt>
      <trkpt lat="44.23531" lon="5.63167">
        <ele>709</ele>
        <time>2019-03-27T14:01:04Z</time>
      </trkpt>
      <trkpt lat="44.23525" lon="5.63166">
        <ele>709</ele>
        <time>2019-03-27T14:01:05Z</time>
      </trkpt>
      <trkpt lat="44.23519" lon="5.63164">
        <ele>709</ele>
        <time>2019-03-27T14:01:06Z</time>
      </trkpt>
      <trkpt lat="44.23512" lon="5.63163">
        <ele>709</ele>
        <time>2019-03-27T14:01:07Z</time>
      </trkpt>
      <trkpt lat="44.23505" lon="5.63161">
        <ele>709</ele>
        <time>2019-03-27T14:01:08Z</time>
      </trkpt>
      <trkpt lat="44.23498" lon="5.63159">
        <ele>709</ele>
        <time>2019-03-27T14:01:09Z</time>
      </trkpt>
      <trkpt lat="44.23491" lon="5.63158">
        <ele>709</ele>
        <time>2019-03-27T14:01:10Z</time>
      </trkpt>
      <trkpt lat="44.23483" lon="5.63156">
        <ele>709</ele>
        <time>2019-03-27T14:01:11Z</time>
      </trkpt>
      <trkpt lat="44.23476" lon="5.63153">
        <ele>709</ele>
        <time>2019-03-27T14:01:12Z</time>
      </trkpt>
      <trkpt lat="44.23468" lon="5.63151">
        <ele>709</ele>
        <time>2019-03-27T14:01:13Z</time>
      </trkpt>
      <trkpt lat="44.23459" lon="5.63149">
        <ele>709</ele>
        <time>2019-03-27T14:01:14Z</time>
      </trkpt>
      <trkpt lat="44.23451" lon="5.63147">
        <ele>709</ele>
        <time>2019-03-27T14:01:15Z</time>
      </trkpt>
      <trkpt lat="44.23443" lon="5.63146">
        <ele>709</ele>
        <time>2019-03-27T14:01:16Z</time>
      </trkpt>
      <trkpt lat="44.23435" lon="5.63144">
        <ele>709</ele>
        <time>2019-03-27T14:01:17Z</time>
      </trkpt>
      <trkpt lat="44.23427" lon="5.63142">
        <ele>709</ele>
        <time>2019-03-27T14:01:18Z</time>
      </trkpt>
      <trkpt lat="44.23419" lon="5.6314">
        <ele>709</ele>
        <time>2019-03-27T14:01:19Z</time>
      </trkpt>
      <trkpt lat="44.23411" lon="5.63138">
        <ele>709</ele>
        <time>2019-03-27T14:01:20Z</time>
      </trkpt>
      <trkpt lat="44.23404" lon="5.63136">
        <ele>709</ele>
        <time>2019-03-27T14:01:21Z</time>
      </trkpt>
      <trkpt lat="44.23396" lon="5.63134">
        <ele>709</ele>
        <time>2019-03-27T14:01:22Z</time>
      </trkpt>
      <trkpt lat="44.23388" lon="5.63132">
        <ele>709</ele>
        <time>2019-03-27T14:01:23Z</time>
      </trkpt>
      <trkpt lat="44.23381" lon="5.63131">
        <ele>709</ele>
        <time>2019-03-27T14:01:24Z</time>
      </trkpt>
      <trkpt lat="44.23373" lon="5.63129">
        <ele>709</ele>
        <time>2019-03-27T14:01:25Z</time>
      </trkpt>
      <trkpt lat="44.23366" lon="5.63127">
        <ele>709</ele>
        <time>2019-03-27T14:01:26Z</time>
      </trkpt>
      <trkpt lat="44.23359" lon="5.63125">
        <ele>709</ele>
        <time>2019-03-27T14:01:27Z</time>
      </trkpt>
      <trkpt lat="44.23351" lon="5.63123">
        <ele>709</ele>
        <time>2019-03-27T14:01:28Z</time>
      </trkpt>
      <trkpt lat="44.23344" lon="5.63122">
        <ele>709</ele>
        <time>2019-03-27T14:01:29Z</time>
      </trkpt>
      <trkpt lat="44.23337" lon="5.6312">
        <ele>709</ele>
        <time>2019-03-27T14:01:30Z</time>
      </trkpt>
      <trkpt lat="44.2333" lon="5.63119">
        <ele>709</ele>
        <time>2019-03-27T14:01:31Z</time>
      </trkpt>
      <trkpt lat="44.23323" lon="5.63117">
        <ele>709</ele>
        <time>2019-03-27T14:01:32Z</time>
      </trkpt>
      <trkpt lat="44.23315" lon="5.63115">
        <ele>709</ele>
        <time>2019-03-27T14:01:33Z</time>
      </trkpt>
      <trkpt lat="44.23309" lon="5.63113">
        <ele>709</ele>
        <time>2019-03-27T14:01:34Z</time>
      </trkpt>
      <trkpt lat="44.23301" lon="5.63112">
        <ele>709</ele>
        <time>2019-03-27T14:01:35Z</time>
      </trkpt>
      <trkpt lat="44.23294" lon="5.6311">
        <ele>709</ele>
        <time>2019-03-27T14:01:36Z</time>
      </trkpt>
      <trkpt lat="44.23287" lon="5.63108">
        <ele>709</ele>
        <time>2019-03-27T14:01:37Z</time>
      </trkpt>
      <trkpt lat="44.2328" lon="5.63106">
        <ele>709</ele>
        <time>2019-03-27T14:01:38Z</time>
      </trkpt>
      <trkpt lat="44.23273" lon="5.63105">
        <ele>709</ele>
        <time>2019-03-27T14:01:39Z</time>
      </trkpt>
      <trkpt lat="44.23266" lon="5.63103">
        <ele>709</ele>
        <time>2019-03-27T14:01:40Z</time>
      </trkpt>
      <trkpt lat="44.23259" lon="5.63101">
        <ele>709</ele>
        <time>2019-03-27T14:01:41Z</time>
      </trkpt>
      <trkpt lat="44.23252" lon="5.631">
        <ele>710</ele>
        <time>2019-03-27T14:01:42Z</time>
      </trkpt>
      <trkpt lat="44.23245" lon="5.63098">
        <ele>710</ele>
        <time>2019-03-27T14:01:43Z</time>
      </trkpt>
      <trkpt lat="44.23238" lon="5.63097">
        <ele>710</ele>
        <time>2019-03-27T14:01:44Z</time>
      </trkpt>
      <trkpt lat="44.2323" lon="5.63095">
        <ele>710</ele>
        <time>2019-03-27T14:01:45Z</time>
      </trkpt>
      <trkpt lat="44.23223" lon="5.63093">
        <ele>710</ele>
        <time>2019-03-27T14:01:46Z</time>
      </trkpt>
      <trkpt lat="44.23216" lon="5.63091">
        <ele>710</ele>
        <time>2019-03-27T14:01:47Z</time>
      </trkpt>
      <trkpt lat="44.23208" lon="5.63089">
        <ele>710</ele>
        <time>2019-03-27T14:01:48Z</time>
      </trkpt>
      <trkpt lat="44.23201" lon="5.63087">
        <ele>711</ele>
        <time>2019-03-27T14:01:49Z</time>
      </trkpt>
      <trkpt lat="44.23194" lon="5.63086">
        <ele>711</ele>
        <time>2019-03-27T14:01:50Z</time>
      </trkpt>
      <trkpt lat="44.23187" lon="5.63084">
        <ele>711</ele>
        <time>2019-03-27T14:01:51Z</time>
      </trkpt>
      <trkpt lat="44.2318" lon="5.63082">
        <ele>711</ele>
        <time>2019-03-27T14:01:52Z</time>
      </trkpt>
      <trkpt lat="44.23172" lon="5.63081">
        <ele>711</ele>
        <time>2019-03-27T14:01:53Z</time>
      </trkpt>
      <trkpt lat="44.23166" lon="5.63079">
        <ele>711</ele>
        <time>2019-03-27T14:01:54Z</time>
      </trkpt>
      <trkpt lat="44.23159" lon="5.63077">
        <ele>711</ele>
        <time>2019-03-27T14:01:55Z</time>
      </trkpt>
      <trkpt lat="44.23151" lon="5.63076">
        <ele>712</ele>
        <time>2019-03-27T14:01:56Z</time>
      </trkpt>
      <trkpt lat="44.23145" lon="5.63074">
        <ele>712</ele>
        <time>2019-03-27T14:01:57Z</time>
      </trkpt>
      <trkpt lat="44.23138" lon="5.63072">
        <ele>712</ele>
        <time>2019-03-27T14:01:58Z</time>
      </trkpt>
      <trkpt lat="44.23131" lon="5.6307">
        <ele>712</ele>
        <time>2019-03-27T14:01:59Z</time>
      </trkpt>
      <trkpt lat="44.23124" lon="5.63069">
        <ele>712</ele>
        <time>2019-03-27T14:02:00Z</time>
      </trkpt>
      <trkpt lat="44.23117" lon="5.63067">
        <ele>712</ele>
        <time>2019-03-27T14:02:01Z</time>
      </trkpt>
      <trkpt lat="44.23111" lon="5.63065">
        <ele>713</ele>
        <time>2019-03-27T14:02:02Z</time>
      </trkpt>
      <trkpt lat="44.23104" lon="5.63063">
        <ele>713</ele>
        <time>2019-03-27T14:02:03Z</time>
      </trkpt>
      <trkpt lat="44.23098" lon="5.63061">
        <ele>713</ele>
        <time>2019-03-27T14:02:04Z</time>
      </trkpt>
      <trkpt lat="44.23092" lon="5.63059">
        <ele>713</ele>
        <time>2019-03-27T14:02:05Z</time>
      </trkpt>
      <trkpt lat="44.23086" lon="5.63056">
        <ele>714</ele>
        <time>2019-03-27T14:02:06Z</time>
      </trkpt>
      <trkpt lat="44.2308" lon="5.63053">
        <ele>714</ele>
        <time>2019-03-27T14:02:07Z</time>
      </trkpt>
      <trkpt lat="44.23075" lon="5.6305">
        <ele>714</ele>
        <time>2019-03-27T14:02:08Z</time>
      </trkpt>
      <trkpt lat="44.23069" lon="5.63046">
        <ele>714</ele>
        <time>2019-03-27T14:02:09Z</time>
      </trkpt>
      <trkpt lat="44.23064" lon="5.63042">
        <ele>715</ele>
        <time>2019-03-27T14:02:10Z</time>
      </trkpt>
      <trkpt lat="44.23058" lon="5.63037">
        <ele>715</ele>
        <time>2019-03-27T14:02:11Z</time>
      </trkpt>
      <trkpt lat="44.23053" lon="5.63032">
        <ele>715</ele>
        <time>2019-03-27T14:02:12Z</time>
      </trkpt>
      <trkpt lat="44.23048" lon="5.63028">
        <ele>715</ele>
        <time>2019-03-27T14:02:13Z</time>
      </trkpt>
      <trkpt lat="44.23044" lon="5.63023">
        <ele>715</ele>
        <time>2019-03-27T14:02:14Z</time>
      </trkpt>
      <trkpt lat="44.23039" lon="5.63018">
        <ele>715</ele>
        <time>2019-03-27T14:02:15Z</time>
      </trkpt>
      <trkpt lat="44.23035" lon="5.63012">
        <ele>715</ele>
        <time>2019-03-27T14:02:16Z</time>
      </trkpt>
      <trkpt lat="44.2303" lon="5.63006">
        <ele>715</ele>
        <time>2019-03-27T14:02:17Z</time>
      </trkpt>
      <trkpt lat="44.23026" lon="5.63001">
        <ele>715</ele>
        <time>2019-03-27T14:02:18Z</time>
      </trkpt>
      <trkpt lat="44.23022" lon="5.62995">
        <ele>715</ele>
        <time>2019-03-27T14:02:19Z</time>
      </trkpt>
      <trkpt lat="44.23018" lon="5.6299">
        <ele>715</ele>
        <time>2019-03-27T14:02:20Z</time>
      </trkpt>
      <trkpt lat="44.23014" lon="5.62985">
        <ele>715</ele>
        <time>2019-03-27T14:02:21Z</time>
      </trkpt>
      <trkpt lat="44.23009" lon="5.62981">
        <ele>715</ele>
        <time>2019-03-27T14:02:22Z</time>
      </trkpt>
      <trkpt lat="44.23006" lon="5.62976">
        <ele>715</ele>
        <time>2019-03-27T14:02:23Z</time>
      </trkpt>
      <trkpt lat="44.23001" lon="5.62972">
        <ele>715</ele>
        <time>2019-03-27T14:02:24Z</time>
      </trkpt>
      <trkpt lat="44.22997" lon="5.62968">
        <ele>715</ele>
        <time>2019-03-27T14:02:25Z</time>
      </trkpt>
      <trkpt lat="44.22993" lon="5.62965">
        <ele>715</ele>
        <time>2019-03-27T14:02:26Z</time>
      </trkpt>
      <trkpt lat="44.22988" lon="5.62961">
        <ele>715</ele>
        <time>2019-03-27T14:02:27Z</time>
      </trkpt>
      <trkpt lat="44.22984" lon="5.62958">
        <ele>715</ele>
        <time>2019-03-27T14:02:28Z</time>
      </trkpt>
      <trkpt lat="44.22979" lon="5.62956">
        <ele>715</ele>
        <time>2019-03-27T14:02:29Z</time>
      </trkpt>
      <trkpt lat="44.22974" lon="5.62953">
        <ele>715</ele>
        <time>2019-03-27T14:02:30Z</time>
      </trkpt>
      <trkpt lat="44.2297" lon="5.6295">
        <ele>715</ele>
        <time>2019-03-27T14:02:31Z</time>
      </trkpt>
      <trkpt lat="44.22965" lon="5.62947">
        <ele>715</ele>
        <time>2019-03-27T14:02:32Z</time>
      </trkpt>
      <trkpt lat="44.2296" lon="5.62944">
        <ele>715</ele>
        <time>2019-03-27T14:02:33Z</time>
      </trkpt>
      <trkpt lat="44.22955" lon="5.62941">
        <ele>715</ele>
        <time>2019-03-27T14:02:34Z</time>
      </trkpt>
      <trkpt lat="44.22951" lon="5.62938">
        <ele>716</ele>
        <time>2019-03-27T14:02:35Z</time>
      </trkpt>
      <trkpt lat="44.22946" lon="5.62935">
        <ele>716</ele>
        <time>2019-03-27T14:02:36Z</time>
      </trkpt>
      <trkpt lat="44.22942" lon="5.62931">
        <ele>716</ele>
        <time>2019-03-27T14:02:37Z</time>
      </trkpt>
      <trkpt lat="44.22938" lon="5.62927">
        <ele>716</ele>
        <time>2019-03-27T14:02:38Z</time>
      </trkpt>
      <trkpt lat="44.22934" lon="5.62923">
        <ele>717</ele>
        <time>2019-03-27T14:02:39Z</time>
      </trkpt>
      <trkpt lat="44.2293" lon="5.62919">
        <ele>717</ele>
        <time>2019-03-27T14:02:40Z</time>
      </trkpt>
      <trkpt lat="44.22926" lon="5.62915">
        <ele>717</ele>
        <time>2019-03-27T14:02:41Z</time>
      </trkpt>
      <trkpt lat="44.22921" lon="5.6291">
        <ele>717</ele>
        <time>2019-03-27T14:02:42Z</time>
      </trkpt>
      <trkpt lat="44.22917" lon="5.62906">
        <ele>718</ele>
        <time>2019-03-27T14:02:43Z</time>
      </trkpt>
      <trkpt lat="44.22913" lon="5.62902">
        <ele>718</ele>
        <time>2019-03-27T14:02:44Z</time>
      </trkpt>
      <trkpt lat="44.22909" lon="5.62897">
        <ele>718</ele>
        <time>2019-03-27T14:02:45Z</time>
      </trkpt>
      <trkpt lat="44.22905" lon="5.62893">
        <ele>719</ele>
        <time>2019-03-27T14:02:46Z</time>
      </trkpt>
      <trkpt lat="44.22901" lon="5.62888">
        <ele>719</ele>
        <time>2019-03-27T14:02:47Z</time>
      </trkpt>
      <trkpt lat="44.22897" lon="5.62884">
        <ele>719</ele>
        <time>2019-03-27T14:02:48Z</time>
      </trkpt>
      <trkpt lat="44.22894" lon="5.6288">
        <ele>720</ele>
        <time>2019-03-27T14:02:49Z</time>
      </trkpt>
      <trkpt lat="44.2289" lon="5.62876">
        <ele>720</ele>
        <time>2019-03-27T14:02:50Z</time>
      </trkpt>
      <trkpt lat="44.22886" lon="5.62872">
        <ele>720</ele>
        <time>2019-03-27T14:02:51Z</time>
      </trkpt>
      <trkpt lat="44.22882" lon="5.62867">
        <ele>720</ele>
        <time>2019-03-27T14:02:52Z</time>
      </trkpt>
      <trkpt lat="44.22879" lon="5.62863">
        <ele>720</ele>
        <time>2019-03-27T14:02:53Z</time>
      </trkpt>
      <trkpt lat="44.22875" lon="5.62858">
        <ele>720</ele>
        <time>2019-03-27T14:02:54Z</time>
      </trkpt>
      <trkpt lat="44.22871" lon="5.62854">
        <ele>720</ele>
        <time>2019-03-27T14:02:55Z</time>
      </trkpt>
      <trkpt lat="44.22868" lon="5.62849">
        <ele>720</ele>
        <time>2019-03-27T14:02:56Z</time>
      </trkpt>
      <trkpt lat="44.22864" lon="5.62844">
        <ele>720</ele>
        <time>2019-03-27T14:02:57Z</time>
      </trkpt>
      <trkpt lat="44.2286" lon="5.62839">
        <ele>720</ele>
        <time>2019-03-27T14:02:58Z</time>
      </trkpt>
      <trkpt lat="44.22857" lon="5.62834">
        <ele>720</ele>
        <time>2019-03-27T14:02:59Z</time>
      </trkpt>
      <trkpt lat="44.22853" lon="5.62829">
        <ele>720</ele>
        <time>2019-03-27T14:03:00Z</time>
      </trkpt>
      <trkpt lat="44.22849" lon="5.62824">
        <ele>720</ele>
        <time>2019-03-27T14:03:01Z</time>
      </trkpt>
      <trkpt lat="44.22845" lon="5.62819">
        <ele>720</ele>
        <time>2019-03-27T14:03:02Z</time>
      </trkpt>
      <trkpt lat="44.22842" lon="5.62814">
        <ele>720</ele>
        <time>2019-03-27T14:03:03Z</time>
      </trkpt>
      <trkpt lat="44.22837" lon="5.62809">
        <ele>720</ele>
        <time>2019-03-27T14:03:04Z</time>
      </trkpt>
      <trkpt lat="44.22834" lon="5.62804">
        <ele>720</ele>
        <time>2019-03-27T14:03:05Z</time>
      </trkpt>
      <trkpt lat="44.2283" lon="5.628">
        <ele>721</ele>
        <time>2019-03-27T14:03:06Z</time>
      </trkpt>
      <trkpt lat="44.22826" lon="5.62795">
        <ele>721</ele>
        <time>2019-03-27T14:03:07Z</time>
      </trkpt>
      <trkpt lat="44.22822" lon="5.62791">
        <ele>721</ele>
        <time>2019-03-27T14:03:08Z</time>
      </trkpt>
      <trkpt lat="44.22818" lon="5.62786">
        <ele>721</ele>
        <time>2019-03-27T14:03:09Z</time>
      </trkpt>
      <trkpt lat="44.22814" lon="5.62782">
        <ele>721</ele>
        <time>2019-03-27T14:03:10Z</time>
      </trkpt>
      <trkpt lat="44.2281" lon="5.62778">
        <ele>721</ele>
        <time>2019-03-27T14:03:11Z</time>
      </trkpt>
      <trkpt lat="44.22805" lon="5.62773">
        <ele>722</ele>
        <time>2019-03-27T14:03:12Z</time>
      </trkpt>
      <trkpt lat="44.22801" lon="5.62769">
        <ele>722</ele>
        <time>2019-03-27T14:03:13Z</time>
      </trkpt>
      <trkpt lat="44.22797" lon="5.62765">
        <ele>722</ele>
        <time>2019-03-27T14:03:14Z</time>
      </trkpt>
      <trkpt lat="44.22792" lon="5.62761">
        <ele>722</ele>
        <time>2019-03-27T14:03:15Z</time>
      </trkpt>
      <trkpt lat="44.22788" lon="5.62756">
        <ele>722</ele>
        <time>2019-03-27T14:03:16Z</time>
      </trkpt>
      <trkpt lat="44.22784" lon="5.62752">
        <ele>722</ele>
        <time>2019-03-27T14:03:17Z</time>
      </trkpt>
      <trkpt lat="44.22779" lon="5.62747">
        <ele>722</ele>
        <time>2019-03-27T14:03:18Z</time>
      </trkpt>
      <trkpt lat="44.22775" lon="5.62743">
        <ele>722</ele>
        <time>2019-03-27T14:03:19Z</time>
      </trkpt>
      <trkpt lat="44.22771" lon="5.62738">
        <ele>722</ele>
        <time>2019-03-27T14:03:20Z</time>
      </trkpt>
      <trkpt lat="44.22766" lon="5.62734">
        <ele>722</ele>
        <time>2019-03-27T14:03:21Z</time>
      </trkpt>
      <trkpt lat="44.22762" lon="5.62729">
        <ele>722</ele>
        <time>2019-03-27T14:03:22Z</time>
      </trkpt>
      <trkpt lat="44.22758" lon="5.62723">
        <ele>722</ele>
        <time>2019-03-27T14:03:23Z</time>
      </trkpt>
      <trkpt lat="44.22754" lon="5.62718">
        <ele>723</ele>
        <time>2019-03-27T14:03:24Z</time>
      </trkpt>
      <trkpt lat="44.2275" lon="5.62712">
        <ele>723</ele>
        <time>2019-03-27T14:03:25Z</time>
      </trkpt>
      <trkpt lat="44.22746" lon="5.62707">
        <ele>723</ele>
        <time>2019-03-27T14:03:26Z</time>
      </trkpt>
      <trkpt lat="44.22742" lon="5.62701">
        <ele>723</ele>
        <time>2019-03-27T14:03:27Z</time>
      </trkpt>
      <trkpt lat="44.22739" lon="5.62695">
        <ele>723</ele>
        <time>2019-03-27T14:03:28Z</time>
      </trkpt>
      <trkpt lat="44.22735" lon="5.62689">
        <ele>723</ele>
        <time>2019-03-27T14:03:29Z</time>
      </trkpt>
      <trkpt lat="44.22731" lon="5.62683">
        <ele>723</ele>
        <time>2019-03-27T14:03:30Z</time>
      </trkpt>
      <trkpt lat="44.22728" lon="5.62677">
        <ele>723</ele>
        <time>2019-03-27T14:03:31Z</time>
      </trkpt>
      <trkpt lat="44.22724" lon="5.62671">
        <ele>723</ele>
        <time>2019-03-27T14:03:32Z</time>
      </trkpt>
      <trkpt lat="44.2272" lon="5.62665">
        <ele>723</ele>
        <time>2019-03-27T14:03:33Z</time>
      </trkpt>
      <trkpt lat="44.22717" lon="5.62659">
        <ele>723</ele>
        <time>2019-03-27T14:03:34Z</time>
      </trkpt>
      <trkpt lat="44.22713" lon="5.62652">
        <ele>723</ele>
        <time>2019-03-27T14:03:35Z</time>
      </trkpt>
      <trkpt lat="44.22709" lon="5.62646">
        <ele>723</ele>
        <time>2019-03-27T14:03:36Z</time>
      </trkpt>
      <trkpt lat="44.22705" lon="5.62639">
        <ele>724</ele>
        <time>2019-03-27T14:03:37Z</time>
      </trkpt>
      <trkpt lat="44.22701" lon="5.62633">
        <ele>724</ele>
        <time>2019-03-27T14:03:38Z</time>
      </trkpt>
      <trkpt lat="44.22698" lon="5.62626">
        <ele>724</ele>
        <time>2019-03-27T14:03:39Z</time>
      </trkpt>
      <trkpt lat="44.22694" lon="5.62619">
        <ele>724</ele>
        <time>2019-03-27T14:03:40Z</time>
      </trkpt>
      <trkpt lat="44.2269" lon="5.62612">
        <ele>724</ele>
        <time>2019-03-27T14:03:41Z</time>
      </trkpt>
      <trkpt lat="44.22686" lon="5.62605">
        <ele>724</ele>
        <time>2019-03-27T14:03:42Z</time>
      </trkpt>
      <trkpt lat="44.22682" lon="5.62599">
        <ele>724</ele>
        <time>2019-03-27T14:03:43Z</time>
      </trkpt>
      <trkpt lat="44.22678" lon="5.62592">
        <ele>724</ele>
        <time>2019-03-27T14:03:44Z</time>
      </trkpt>
      <trkpt lat="44.22674" lon="5.62585">
        <ele>724</ele>
        <time>2019-03-27T14:03:45Z</time>
      </trkpt>
      <trkpt lat="44.2267" lon="5.62578">
        <ele>724</ele>
        <time>2019-03-27T14:03:46Z</time>
      </trkpt>
      <trkpt lat="44.22666" lon="5.62572">
        <ele>724</ele>
        <time>2019-03-27T14:03:47Z</time>
      </trkpt>
      <trkpt lat="44.22662" lon="5.62565">
        <ele>724</ele>
        <time>2019-03-27T14:03:48Z</time>
      </trkpt>
      <trkpt lat="44.22658" lon="5.62558">
        <ele>724</ele>
        <time>2019-03-27T14:03:49Z</time>
      </trkpt>
      <trkpt lat="44.22654" lon="5.62551">
        <ele>724</ele>
        <time>2019-03-27T14:03:50Z</time>
      </trkpt>
      <trkpt lat="44.22649" lon="5.62544">
        <ele>724</ele>
        <time>2019-03-27T14:03:51Z</time>
      </trkpt>
      <trkpt lat="44.22645" lon="5.62538">
        <ele>724</ele>
        <time>2019-03-27T14:03:52Z</time>
      </trkpt>
      <trkpt lat="44.22641" lon="5.62531">
        <ele>724</ele>
        <time>2019-03-27T14:03:53Z</time>
      </trkpt>
      <trkpt lat="44.22637" lon="5.62524">
        <ele>724</ele>
        <time>2019-03-27T14:03:54Z</time>
      </trkpt>
      <trkpt lat="44.22633" lon="5.62517">
        <ele>724</ele>
        <time>2019-03-27T14:03:55Z</time>
      </trkpt>
      <trkpt lat="44.22629" lon="5.62511">
        <ele>724</ele>
        <time>2019-03-27T14:03:56Z</time>
      </trkpt>
      <trkpt lat="44.22625" lon="5.62504">
        <ele>724</ele>
        <time>2019-03-27T14:03:57Z</time>
      </trkpt>
      <trkpt lat="44.22621" lon="5.62497">
        <ele>724</ele>
        <time>2019-03-27T14:03:58Z</time>
      </trkpt>
      <trkpt lat="44.22617" lon="5.6249">
        <ele>724</ele>
        <time>2019-03-27T14:03:59Z</time>
      </trkpt>
      <trkpt lat="44.22613" lon="5.62483">
        <ele>724</ele>
        <time>2019-03-27T14:04:00Z</time>
      </trkpt>
      <trkpt lat="44.22609" lon="5.62476">
        <ele>724</ele>
        <time>2019-03-27T14:04:01Z</time>
      </trkpt>
      <trkpt lat="44.22605" lon="5.62469">
        <ele>724</ele>
        <time>2019-03-27T14:04:02Z</time>
      </trkpt>
      <trkpt lat="44.22601" lon="5.62462">
        <ele>724</ele>
        <time>2019-03-27T14:04:03Z</time>
      </trkpt>
      <trkpt lat="44.22597" lon="5.62455">
        <ele>724</ele>
        <time>2019-03-27T14:04:04Z</time>
      </trkpt>
      <trkpt lat="44.22593" lon="5.62447">
        <ele>724</ele>
        <time>2019-03-27T14:04:05Z</time>
      </trkpt>
      <trkpt lat="44.2259" lon="5.6244">
        <ele>724</ele>
        <time>2019-03-27T14:04:06Z</time>
      </trkpt>
      <trkpt lat="44.22586" lon="5.62433">
        <ele>724</ele>
        <time>2019-03-27T14:04:07Z</time>
      </trkpt>
      <trkpt lat="44.22583" lon="5.62426">
        <ele>724</ele>
        <time>2019-03-27T14:04:08Z</time>
      </trkpt>
      <trkpt lat="44.2258" lon="5.62418">
        <ele>724</ele>
        <time>2019-03-27T14:04:09Z</time>
      </trkpt>
      <trkpt lat="44.22576" lon="5.62411">
        <ele>724</ele>
        <time>2019-03-27T14:04:10Z</time>
      </trkpt>
      <trkpt lat="44.22573" lon="5.62403">
        <ele>724</ele>
        <time>2019-03-27T14:04:11Z</time>
      </trkpt>
      <trkpt lat="44.2257" lon="5.62396">
        <ele>724</ele>
        <time>2019-03-27T14:04:12Z</time>
      </trkpt>
      <trkpt lat="44.22567" lon="5.62389">
        <ele>724</ele>
        <time>2019-03-27T14:04:13Z</time>
      </trkpt>
      <trkpt lat="44.22564" lon="5.62382">
        <ele>724</ele>
        <time>2019-03-27T14:04:14Z</time>
      </trkpt>
      <trkpt lat="44.22562" lon="5.62375">
        <ele>724</ele>
        <time>2019-03-27T14:04:15Z</time>
      </trkpt>
      <trkpt lat="44.22559" lon="5.62368">
        <ele>724</ele>
        <time>2019-03-27T14:04:16Z</time>
      </trkpt>
      <trkpt lat="44.22556" lon="5.62361">
        <ele>724</ele>
        <time>2019-03-27T14:04:17Z</time>
      </trkpt>
      <trkpt lat="44.22553" lon="5.62354">
        <ele>724</ele>
        <time>2019-03-27T14:04:18Z</time>
      </trkpt>
      <trkpt lat="44.22551" lon="5.62348">
        <ele>724</ele>
        <time>2019-03-27T14:04:19Z</time>
      </trkpt>
      <trkpt lat="44.22549" lon="5.62341">
        <ele>724</ele>
        <time>2019-03-27T14:04:20Z</time>
      </trkpt>
      <trkpt lat="44.22546" lon="5.62334">
        <ele>724</ele>
        <time>2019-03-27T14:04:21Z</time>
      </trkpt>
      <trkpt lat="44.22545" lon="5.62327">
        <ele>724</ele>
        <time>2019-03-27T14:04:22Z</time>
      </trkpt>
      <trkpt lat="44.22543" lon="5.6232">
        <ele>724</ele>
        <time>2019-03-27T14:04:23Z</time>
      </trkpt>
      <trkpt lat="44.22542" lon="5.62312">
        <ele>724</ele>
        <time>2019-03-27T14:04:24Z</time>
      </trkpt>
      <trkpt lat="44.22541" lon="5.62305">
        <ele>724</ele>
        <time>2019-03-27T14:04:25Z</time>
      </trkpt>
      <trkpt lat="44.22539" lon="5.62297">
        <ele>724</ele>
        <time>2019-03-27T14:04:26Z</time>
      </trkpt>
      <trkpt lat="44.22538" lon="5.62289">
        <ele>724</ele>
        <time>2019-03-27T14:04:27Z</time>
      </trkpt>
      <trkpt lat="44.22537" lon="5.62282">
        <ele>724</ele>
        <time>2019-03-27T14:04:28Z</time>
      </trkpt>
      <trkpt lat="44.22536" lon="5.62274">
        <ele>724</ele>
        <time>2019-03-27T14:04:29Z</time>
      </trkpt>
      <trkpt lat="44.22535" lon="5.62267">
        <ele>724</ele>
        <time>2019-03-27T14:04:30Z</time>
      </trkpt>
      <trkpt lat="44.22535" lon="5.62259">
        <ele>724</ele>
        <time>2019-03-27T14:04:31Z</time>
      </trkpt>
      <trkpt lat="44.22534" lon="5.62251">
        <ele>724</ele>
        <time>2019-03-27T14:04:32Z</time>
      </trkpt>
      <trkpt lat="44.22533" lon="5.62244">
        <ele>724</ele>
        <time>2019-03-27T14:04:33Z</time>
      </trkpt>
      <trkpt lat="44.22533" lon="5.62236">
        <ele>724</ele>
        <time>2019-03-27T14:04:34Z</time>
      </trkpt>
      <trkpt lat="44.22533" lon="5.62228">
        <ele>724</ele>
        <time>2019-03-27T14:04:35Z</time>
      </trkpt>
      <trkpt lat="44.22533" lon="5.62219">
        <ele>724</ele>
        <time>2019-03-27T14:04:36Z</time>
      </trkpt>
      <trkpt lat="44.22533" lon="5.62211">
        <ele>724</ele>
        <time>2019-03-27T14:04:37Z</time>
      </trkpt>
      <trkpt lat="44.22533" lon="5.62202">
        <ele>724</ele>
        <time>2019-03-27T14:04:38Z</time>
      </trkpt>
      <trkpt lat="44.22532" lon="5.62193">
        <ele>724</ele>
        <time>2019-03-27T14:04:39Z</time>
      </trkpt>
      <trkpt lat="44.22531" lon="5.62185">
        <ele>724</ele>
        <time>2019-03-27T14:04:40Z</time>
      </trkpt>
      <trkpt lat="44.2253" lon="5.62176">
        <ele>724</ele>
        <time>2019-03-27T14:04:41Z</time>
      </trkpt>
      <trkpt lat="44.22529" lon="5.62167">
        <ele>724</ele>
        <time>2019-03-27T14:04:42Z</time>
      </trkpt>
      <trkpt lat="44.22527" lon="5.62159">
        <ele>724</ele>
        <time>2019-03-27T14:04:43Z</time>
      </trkpt>
      <trkpt lat="44.22525" lon="5.62151">
        <ele>724</ele>
        <time>2019-03-27T14:04:44Z</time>
      </trkpt>
      <trkpt lat="44.22522" lon="5.62143">
        <ele>724</ele>
        <time>2019-03-27T14:04:45Z</time>
      </trkpt>
      <trkpt lat="44.2252" lon="5.62134">
        <ele>724</ele>
        <time>2019-03-27T14:04:46Z</time>
      </trkpt>
      <trkpt lat="44.22517" lon="5.62126">
        <ele>724</ele>
        <time>2019-03-27T14:04:47Z</time>
      </trkpt>
      <trkpt lat="44.22514" lon="5.62118">
        <ele>724</ele>
        <time>2019-03-27T14:04:48Z</time>
      </trkpt>
      <trkpt lat="44.22511" lon="5.6211">
        <ele>724</ele>
        <time>2019-03-27T14:04:49Z</time>
      </trkpt>
      <trkpt lat="44.22508" lon="5.62102">
        <ele>724</ele>
        <time>2019-03-27T14:04:50Z</time>
      </trkpt>
      <trkpt lat="44.22505" lon="5.62094">
        <ele>724</ele>
        <time>2019-03-27T14:04:51Z</time>
      </trkpt>
      <trkpt lat="44.22501" lon="5.62087">
        <ele>724</ele>
        <time>2019-03-27T14:04:52Z</time>
      </trkpt>
      <trkpt lat="44.22498" lon="5.6208">
        <ele>724</ele>
        <time>2019-03-27T14:04:53Z</time>
      </trkpt>
      <trkpt lat="44.22494" lon="5.62072">
        <ele>724</ele>
        <time>2019-03-27T14:04:54Z</time>
      </trkpt>
      <trkpt lat="44.22491" lon="5.62065">
        <ele>724</ele>
        <time>2019-03-27T14:04:55Z</time>
      </trkpt>
      <trkpt lat="44.22487" lon="5.62057">
        <ele>724</ele>
        <time>2019-03-27T14:04:56Z</time>
      </trkpt>
      <trkpt lat="44.22484" lon="5.62049">
        <ele>724</ele>
        <time>2019-03-27T14:04:57Z</time>
      </trkpt>
      <trkpt lat="44.2248" lon="5.62042">
        <ele>724</ele>
        <time>2019-03-27T14:04:58Z</time>
      </trkpt>
      <trkpt lat="44.22477" lon="5.62034">
        <ele>724</ele>
        <time>2019-03-27T14:04:59Z</time>
      </trkpt>
      <trkpt lat="44.22474" lon="5.62027">
        <ele>724</ele>
        <time>2019-03-27T14:05:00Z</time>
      </trkpt>
      <trkpt lat="44.2247" lon="5.62019">
        <ele>724</ele>
        <time>2019-03-27T14:05:01Z</time>
      </trkpt>
      <trkpt lat="44.22467" lon="5.62012">
        <ele>724</ele>
        <time>2019-03-27T14:05:02Z</time>
      </trkpt>
      <trkpt lat="44.22464" lon="5.62004">
        <ele>724</ele>
        <time>2019-03-27T14:05:03Z</time>
      </trkpt>
      <trkpt lat="44.2246" lon="5.61997">
        <ele>724</ele>
        <time>2019-03-27T14:05:04Z</time>
      </trkpt>
      <trkpt lat="44.22457" lon="5.6199">
        <ele>724</ele>
        <time>2019-03-27T14:05:05Z</time>
      </trkpt>
      <trkpt lat="44.22453" lon="5.61982">
        <ele>724</ele>
        <time>2019-03-27T14:05:06Z</time>
      </trkpt>
      <trkpt lat="44.2245" lon="5.61975">
        <ele>724</ele>
        <time>2019-03-27T14:05:07Z</time>
      </trkpt>
      <trkpt lat="44.22446" lon="5.61968">
        <ele>724</ele>
        <time>2019-03-27T14:05:08Z</time>
      </trkpt>
      <trkpt lat="44.22443" lon="5.61961">
        <ele>724</ele>
        <time>2019-03-27T14:05:09Z</time>
      </trkpt>
      <trkpt lat="44.2244" lon="5.61953">
        <ele>724</ele>
        <time>2019-03-27T14:05:10Z</time>
      </trkpt>
      <trkpt lat="44.22436" lon="5.61946">
        <ele>724</ele>
        <time>2019-03-27T14:05:11Z</time>
      </trkpt>
      <trkpt lat="44.22433" lon="5.61939">
        <ele>724</ele>
        <time>2019-03-27T14:05:12Z</time>
      </trkpt>
      <trkpt lat="44.22429" lon="5.61932">
        <ele>724</ele>
        <time>2019-03-27T14:05:13Z</time>
      </trkpt>
      <trkpt lat="44.22426" lon="5.61925">
        <ele>724</ele>
        <time>2019-03-27T14:05:14Z</time>
      </trkpt>
      <trkpt lat="44.22423" lon="5.61918">
        <ele>724</ele>
        <time>2019-03-27T14:05:15Z</time>
      </trkpt>
      <trkpt lat="44.22419" lon="5.6191">
        <ele>724</ele>
        <time>2019-03-27T14:05:16Z</time>
      </trkpt>
      <trkpt lat="44.22416" lon="5.61903">
        <ele>724</ele>
        <time>2019-03-27T14:05:17Z</time>
      </trkpt>
      <trkpt lat="44.22413" lon="5.61895">
        <ele>724</ele>
        <time>2019-03-27T14:05:18Z</time>
      </trkpt>
      <trkpt lat="44.2241" lon="5.61887">
        <ele>724</ele>
        <time>2019-03-27T14:05:19Z</time>
      </trkpt>
      <trkpt lat="44.22408" lon="5.61879">
        <ele>724</ele>
        <time>2019-03-27T14:05:20Z</time>
      </trkpt>
      <trkpt lat="44.22406" lon="5.61871">
        <ele>724</ele>
        <time>2019-03-27T14:05:21Z</time>
      </trkpt>
      <trkpt lat="44.22403" lon="5.61863">
        <ele>724</ele>
        <time>2019-03-27T14:05:22Z</time>
      </trkpt>
      <trkpt lat="44.22401" lon="5.61855">
        <ele>724</ele>
        <time>2019-03-27T14:05:23Z</time>
      </trkpt>
      <trkpt lat="44.22399" lon="5.61847">
        <ele>724</ele>
        <time>2019-03-27T14:05:24Z</time>
      </trkpt>
      <trkpt lat="44.22397" lon="5.6184">
        <ele>724</ele>
        <time>2019-03-27T14:05:25Z</time>
      </trkpt>
      <trkpt lat="44.22395" lon="5.61832">
        <ele>724</ele>
        <time>2019-03-27T14:05:26Z</time>
      </trkpt>
      <trkpt lat="44.22393" lon="5.61824">
        <ele>724</ele>
        <time>2019-03-27T14:05:27Z</time>
      </trkpt>
      <trkpt lat="44.22391" lon="5.61816">
        <ele>724</ele>
        <time>2019-03-27T14:05:28Z</time>
      </trkpt>
      <trkpt lat="44.22389" lon="5.61809">
        <ele>724</ele>
        <time>2019-03-27T14:05:29Z</time>
      </trkpt>
      <trkpt lat="44.22387" lon="5.61802">
        <ele>724</ele>
        <time>2019-03-27T14:05:30Z</time>
      </trkpt>
      <trkpt lat="44.22384" lon="5.61795">
        <ele>724</ele>
        <time>2019-03-27T14:05:31Z</time>
      </trkpt>
      <trkpt lat="44.22381" lon="5.61787">
        <ele>724</ele>
        <time>2019-03-27T14:05:32Z</time>
      </trkpt>
      <trkpt lat="44.22379" lon="5.6178">
        <ele>724</ele>
        <time>2019-03-27T14:05:33Z</time>
      </trkpt>
      <trkpt lat="44.22376" lon="5.61773">
        <ele>724</ele>
        <time>2019-03-27T14:05:34Z</time>
      </trkpt>
      <trkpt lat="44.22373" lon="5.61766">
        <ele>724</ele>
        <time>2019-03-27T14:05:35Z</time>
      </trkpt>
      <trkpt lat="44.2237" lon="5.61759">
        <ele>725</ele>
        <time>2019-03-27T14:05:36Z</time>
      </trkpt>
      <trkpt lat="44.22367" lon="5.61752">
        <ele>725</ele>
        <time>2019-03-27T14:05:37Z</time>
      </trkpt>
      <trkpt lat="44.22364" lon="5.61746">
        <ele>725</ele>
        <time>2019-03-27T14:05:38Z</time>
      </trkpt>
      <trkpt lat="44.22362" lon="5.61739">
        <ele>725</ele>
        <time>2019-03-27T14:05:39Z</time>
      </trkpt>
      <trkpt lat="44.22359" lon="5.61732">
        <ele>726</ele>
        <time>2019-03-27T14:05:40Z</time>
      </trkpt>
      <trkpt lat="44.22356" lon="5.61726">
        <ele>726</ele>
        <time>2019-03-27T14:05:41Z</time>
      </trkpt>
      <trkpt lat="44.22354" lon="5.61719">
        <ele>726</ele>
        <time>2019-03-27T14:05:42Z</time>
      </trkpt>
      <trkpt lat="44.22351" lon="5.61713">
        <ele>726</ele>
        <time>2019-03-27T14:05:43Z</time>
      </trkpt>
      <trkpt lat="44.22348" lon="5.61706">
        <ele>727</ele>
        <time>2019-03-27T14:05:44Z</time>
      </trkpt>
      <trkpt lat="44.22345" lon="5.61699">
        <ele>727</ele>
        <time>2019-03-27T14:05:45Z</time>
      </trkpt>
      <trkpt lat="44.22343" lon="5.61692">
        <ele>727</ele>
        <time>2019-03-27T14:05:46Z</time>
      </trkpt>
      <trkpt lat="44.2234" lon="5.61685">
        <ele>727</ele>
        <time>2019-03-27T14:05:47Z</time>
      </trkpt>
      <trkpt lat="44.22337" lon="5.61679">
        <ele>727</ele>
        <time>2019-03-27T14:05:48Z</time>
      </trkpt>
      <trkpt lat="44.22334" lon="5.61672">
        <ele>727</ele>
        <time>2019-03-27T14:05:49Z</time>
      </trkpt>
      <trkpt lat="44.22331" lon="5.61665">
        <ele>727</ele>
        <time>2019-03-27T14:05:50Z</time>
      </trkpt>
      <trkpt lat="44.22328" lon="5.61658">
        <ele>727</ele>
        <time>2019-03-27T14:05:51Z</time>
      </trkpt>
      <trkpt lat="44.22325" lon="5.61652">
        <ele>727</ele>
        <time>2019-03-27T14:05:52Z</time>
      </trkpt>
      <trkpt lat="44.22323" lon="5.61645">
        <ele>728</ele>
        <time>2019-03-27T14:05:53Z</time>
      </trkpt>
      <trkpt lat="44.2232" lon="5.61638">
        <ele>728</ele>
        <time>2019-03-27T14:05:54Z</time>
      </trkpt>
      <trkpt lat="44.22317" lon="5.61631">
        <ele>728</ele>
        <time>2019-03-27T14:05:55Z</time>
      </trkpt>
      <trkpt lat="44.22314" lon="5.61624">
        <ele>728</ele>
        <time>2019-03-27T14:05:56Z</time>
      </trkpt>
      <trkpt lat="44.22311" lon="5.61617">
        <ele>728</ele>
        <time>2019-03-27T14:05:57Z</time>
      </trkpt>
      <trkpt lat="44.22309" lon="5.61611">
        <ele>728</ele>
        <time>2019-03-27T14:05:58Z</time>
      </trkpt>
      <trkpt lat="44.22306" lon="5.61604">
        <ele>728</ele>
        <time>2019-03-27T14:05:59Z</time>
      </trkpt>
      <trkpt lat="44.22303" lon="5.61597">
        <ele>728</ele>
        <time>2019-03-27T14:06:00Z</time>
      </trkpt>
      <trkpt lat="44.223" lon="5.6159">
        <ele>728</ele>
        <time>2019-03-27T14:06:01Z</time>
      </trkpt>
      <trkpt lat="44.22298" lon="5.61584">
        <ele>729</ele>
        <time>2019-03-27T14:06:02Z</time>
      </trkpt>
      <trkpt lat="44.22295" lon="5.61577">
        <ele>729</ele>
        <time>2019-03-27T14:06:03Z</time>
      </trkpt>
      <trkpt lat="44.22292" lon="5.61571">
        <ele>729</ele>
        <time>2019-03-27T14:06:04Z</time>
      </trkpt>
      <trkpt lat="44.2229" lon="5.61564">
        <ele>729</ele>
        <time>2019-03-27T14:06:05Z</time>
      </trkpt>
      <trkpt lat="44.22287" lon="5.61557">
        <ele>729</ele>
        <time>2019-03-27T14:06:06Z</time>
      </trkpt>
      <trkpt lat="44.22284" lon="5.6155">
        <ele>729</ele>
        <time>2019-03-27T14:06:07Z</time>
      </trkpt>
      <trkpt lat="44.22282" lon="5.61544">
        <ele>729</ele>
        <time>2019-03-27T14:06:08Z</time>
      </trkpt>
      <trkpt lat="44.22279" lon="5.61537">
        <ele>729</ele>
        <time>2019-03-27T14:06:09Z</time>
      </trkpt>
      <trkpt lat="44.22276" lon="5.6153">
        <ele>729</ele>
        <time>2019-03-27T14:06:10Z</time>
      </trkpt>
      <trkpt lat="44.22274" lon="5.61523">
        <ele>729</ele>
        <time>2019-03-27T14:06:11Z</time>
      </trkpt>
      <trkpt lat="44.22272" lon="5.61516">
        <ele>729</ele>
        <time>2019-03-27T14:06:12Z</time>
      </trkpt>
      <trkpt lat="44.22269" lon="5.61508">
        <ele>730</ele>
        <time>2019-03-27T14:06:13Z</time>
      </trkpt>
      <trkpt lat="44.22268" lon="5.61501">
        <ele>730</ele>
        <time>2019-03-27T14:06:14Z</time>
      </trkpt>
      <trkpt lat="44.22266" lon="5.61493">
        <ele>730</ele>
        <time>2019-03-27T14:06:15Z</time>
      </trkpt>
      <trkpt lat="44.22264" lon="5.61485">
        <ele>730</ele>
        <time>2019-03-27T14:06:16Z</time>
      </trkpt>
      <trkpt lat="44.22262" lon="5.61477">
        <ele>730</ele>
        <time>2019-03-27T14:06:17Z</time>
      </trkpt>
      <trkpt lat="44.2226" lon="5.6147">
        <ele>730</ele>
        <time>2019-03-27T14:06:18Z</time>
      </trkpt>
      <trkpt lat="44.22258" lon="5.61462">
        <ele>730</ele>
        <time>2019-03-27T14:06:19Z</time>
      </trkpt>
      <trkpt lat="44.22256" lon="5.61454">
        <ele>730</ele>
        <time>2019-03-27T14:06:20Z</time>
      </trkpt>
      <trkpt lat="44.22254" lon="5.61446">
        <ele>730</ele>
        <time>2019-03-27T14:06:21Z</time>
      </trkpt>
      <trkpt lat="44.22252" lon="5.61438">
        <ele>730</ele>
        <time>2019-03-27T14:06:22Z</time>
      </trkpt>
      <trkpt lat="44.2225" lon="5.61431">
        <ele>730</ele>
        <time>2019-03-27T14:06:23Z</time>
      </trkpt>
      <trkpt lat="44.22248" lon="5.61423">
        <ele>730</ele>
        <time>2019-03-27T14:06:24Z</time>
      </trkpt>
      <trkpt lat="44.22246" lon="5.61415">
        <ele>730</ele>
        <time>2019-03-27T14:06:25Z</time>
      </trkpt>
      <trkpt lat="44.22245" lon="5.61407">
        <ele>730</ele>
        <time>2019-03-27T14:06:26Z</time>
      </trkpt>
      <trkpt lat="44.22242" lon="5.61399">
        <ele>730</ele>
        <time>2019-03-27T14:06:27Z</time>
      </trkpt>
      <trkpt lat="44.22241" lon="5.61391">
        <ele>730</ele>
        <time>2019-03-27T14:06:28Z</time>
      </trkpt>
      <trkpt lat="44.22239" lon="5.61383">
        <ele>730</ele>
        <time>2019-03-27T14:06:29Z</time>
      </trkpt>
      <trkpt lat="44.22237" lon="5.61375">
        <ele>730</ele>
        <time>2019-03-27T14:06:30Z</time>
      </trkpt>
      <trkpt lat="44.22235" lon="5.61367">
        <ele>730</ele>
        <time>2019-03-27T14:06:31Z</time>
      </trkpt>
      <trkpt lat="44.22233" lon="5.61359">
        <ele>730</ele>
        <time>2019-03-27T14:06:32Z</time>
      </trkpt>
      <trkpt lat="44.22231" lon="5.61352">
        <ele>730</ele>
        <time>2019-03-27T14:06:33Z</time>
      </trkpt>
      <trkpt lat="44.22229" lon="5.61344">
        <ele>730</ele>
        <time>2019-03-27T14:06:34Z</time>
      </trkpt>
      <trkpt lat="44.22228" lon="5.61336">
        <ele>730</ele>
        <time>2019-03-27T14:06:35Z</time>
      </trkpt>
      <trkpt lat="44.22226" lon="5.61329">
        <ele>730</ele>
        <time>2019-03-27T14:06:36Z</time>
      </trkpt>
      <trkpt lat="44.22224" lon="5.61321">
        <ele>730</ele>
        <time>2019-03-27T14:06:37Z</time>
      </trkpt>
      <trkpt lat="44.22222" lon="5.61313">
        <ele>730</ele>
        <time>2019-03-27T14:06:38Z</time>
      </trkpt>
      <trkpt lat="44.2222" lon="5.61306">
        <ele>730</ele>
        <time>2019-03-27T14:06:39Z</time>
      </trkpt>
      <trkpt lat="44.22219" lon="5.61298">
        <ele>730</ele>
        <time>2019-03-27T14:06:40Z</time>
      </trkpt>
      <trkpt lat="44.22217" lon="5.6129">
        <ele>730</ele>
        <time>2019-03-27T14:06:41Z</time>
      </trkpt>
      <trkpt lat="44.22215" lon="5.61283">
        <ele>730</ele>
        <time>2019-03-27T14:06:42Z</time>
      </trkpt>
      <trkpt lat="44.22213" lon="5.61275">
        <ele>730</ele>
        <time>2019-03-27T14:06:43Z</time>
      </trkpt>
      <trkpt lat="44.22211" lon="5.61268">
        <ele>730</ele>
        <time>2019-03-27T14:06:44Z</time>
      </trkpt>
      <trkpt lat="44.22209" lon="5.6126">
        <ele>730</ele>
        <time>2019-03-27T14:06:45Z</time>
      </trkpt>
      <trkpt lat="44.22208" lon="5.61252">
        <ele>730</ele>
        <time>2019-03-27T14:06:46Z</time>
      </trkpt>
      <trkpt lat="44.22206" lon="5.61245">
        <ele>730</ele>
        <time>2019-03-27T14:06:47Z</time>
      </trkpt>
      <trkpt lat="44.22204" lon="5.61238">
        <ele>730</ele>
        <time>2019-03-27T14:06:48Z</time>
      </trkpt>
      <trkpt lat="44.22202" lon="5.6123">
        <ele>730</ele>
        <time>2019-03-27T14:06:49Z</time>
      </trkpt>
      <trkpt lat="44.222" lon="5.61222">
        <ele>730</ele>
        <time>2019-03-27T14:06:50Z</time>
      </trkpt>
      <trkpt lat="44.22198" lon="5.61215">
        <ele>730</ele>
        <time>2019-03-27T14:06:51Z</time>
      </trkpt>
      <trkpt lat="44.22197" lon="5.61207">
        <ele>730</ele>
        <time>2019-03-27T14:06:52Z</time>
      </trkpt>
      <trkpt lat="44.22195" lon="5.612">
        <ele>730</ele>
        <time>2019-03-27T14:06:53Z</time>
      </trkpt>
      <trkpt lat="44.22193" lon="5.61192">
        <ele>730</ele>
        <time>2019-03-27T14:06:54Z</time>
      </trkpt>
      <trkpt lat="44.22192" lon="5.61184">
        <ele>730</ele>
        <time>2019-03-27T14:06:55Z</time>
      </trkpt>
      <trkpt lat="44.2219" lon="5.61177">
        <ele>730</ele>
        <time>2019-03-27T14:06:56Z</time>
      </trkpt>
      <trkpt lat="44.22189" lon="5.61169">
        <ele>731</ele>
        <time>2019-03-27T14:06:57Z</time>
      </trkpt>
      <trkpt lat="44.22187" lon="5.61161">
        <ele>731</ele>
        <time>2019-03-27T14:06:58Z</time>
      </trkpt>
      <trkpt lat="44.22186" lon="5.61153">
        <ele>731</ele>
        <time>2019-03-27T14:06:59Z</time>
      </trkpt>
      <trkpt lat="44.22184" lon="5.61145">
        <ele>731</ele>
        <time>2019-03-27T14:07:00Z</time>
      </trkpt>
      <trkpt lat="44.22183" lon="5.61137">
        <ele>731</ele>
        <time>2019-03-27T14:07:01Z</time>
      </trkpt>
      <trkpt lat="44.22182" lon="5.6113">
        <ele>731</ele>
        <time>2019-03-27T14:07:02Z</time>
      </trkpt>
      <trkpt lat="44.2218" lon="5.61122">
        <ele>731</ele>
        <time>2019-03-27T14:07:03Z</time>
      </trkpt>
      <trkpt lat="44.22179" lon="5.61114">
        <ele>731</ele>
        <time>2019-03-27T14:07:04Z</time>
      </trkpt>
      <trkpt lat="44.22178" lon="5.61105">
        <ele>732</ele>
        <time>2019-03-27T14:07:05Z</time>
      </trkpt>
      <trkpt lat="44.22176" lon="5.61097">
        <ele>732</ele>
        <time>2019-03-27T14:07:06Z</time>
      </trkpt>
      <trkpt lat="44.22175" lon="5.61089">
        <ele>732</ele>
        <time>2019-03-27T14:07:07Z</time>
      </trkpt>
      <trkpt lat="44.22174" lon="5.6108">
        <ele>732</ele>
        <time>2019-03-27T14:07:08Z</time>
      </trkpt>
      <trkpt lat="44.22173" lon="5.61072">
        <ele>732</ele>
        <time>2019-03-27T14:07:09Z</time>
      </trkpt>
      <trkpt lat="44.22171" lon="5.61063">
        <ele>732</ele>
        <time>2019-03-27T14:07:10Z</time>
      </trkpt>
      <trkpt lat="44.2217" lon="5.61055">
        <ele>733</ele>
        <time>2019-03-27T14:07:11Z</time>
      </trkpt>
      <trkpt lat="44.22169" lon="5.61047">
        <ele>733</ele>
        <time>2019-03-27T14:07:12Z</time>
      </trkpt>
      <trkpt lat="44.22168" lon="5.61038">
        <ele>733</ele>
        <time>2019-03-27T14:07:13Z</time>
      </trkpt>
      <trkpt lat="44.22166" lon="5.6103">
        <ele>733</ele>
        <time>2019-03-27T14:07:14Z</time>
      </trkpt>
      <trkpt lat="44.22166" lon="5.61022">
        <ele>733</ele>
        <time>2019-03-27T14:07:15Z</time>
      </trkpt>
      <trkpt lat="44.22165" lon="5.61014">
        <ele>733</ele>
        <time>2019-03-27T14:07:16Z</time>
      </trkpt>
      <trkpt lat="44.22163" lon="5.61005">
        <ele>733</ele>
        <time>2019-03-27T14:07:17Z</time>
      </trkpt>
      <trkpt lat="44.22162" lon="5.60997">
        <ele>733</ele>
        <time>2019-03-27T14:07:18Z</time>
      </trkpt>
      <trkpt lat="44.2216" lon="5.60989">
        <ele>734</ele>
        <time>2019-03-27T14:07:19Z</time>
      </trkpt>
      <trkpt lat="44.22159" lon="5.60981">
        <ele>734</ele>
        <time>2019-03-27T14:07:20Z</time>
      </trkpt>
      <trkpt lat="44.22158" lon="5.60973">
        <ele>734</ele>
        <time>2019-03-27T14:07:21Z</time>
      </trkpt>
      <trkpt lat="44.22156" lon="5.60965">
        <ele>734</ele>
        <time>2019-03-27T14:07:22Z</time>
      </trkpt>
      <trkpt lat="44.22155" lon="5.60956">
        <ele>734</ele>
        <time>2019-03-27T14:07:23Z</time>
      </trkpt>
      <trkpt lat="44.22153" lon="5.60948">
        <ele>734</ele>
        <time>2019-03-27T14:07:24Z</time>
      </trkpt>
      <trkpt lat="44.22151" lon="5.60939">
        <ele>734</ele>
        <time>2019-03-27T14:07:25Z</time>
      </trkpt>
      <trkpt lat="44.22149" lon="5.60931">
        <ele>734</ele>
        <time>2019-03-27T14:07:26Z</time>
      </trkpt>
      <trkpt lat="44.22147" lon="5.60922">
        <ele>734</ele>
        <time>2019-03-27T14:07:27Z</time>
      </trkpt>
      <trkpt lat="44.22145" lon="5.60914">
        <ele>734</ele>
        <time>2019-03-27T14:07:28Z</time>
      </trkpt>
      <trkpt lat="44.22144" lon="5.60905">
        <ele>734</ele>
        <time>2019-03-27T14:07:29Z</time>
      </trkpt>
      <trkpt lat="44.22141" lon="5.60897">
        <ele>734</ele>
        <time>2019-03-27T14:07:30Z</time>
      </trkpt>
      <trkpt lat="44.22139" lon="5.60888">
        <ele>734</ele>
        <time>2019-03-27T14:07:31Z</time>
      </trkpt>
      <trkpt lat="44.22137" lon="5.6088">
        <ele>734</ele>
        <time>2019-03-27T14:07:32Z</time>
      </trkpt>
      <trkpt lat="44.22134" lon="5.60871">
        <ele>734</ele>
        <time>2019-03-27T14:07:33Z</time>
      </trkpt>
      <trkpt lat="44.22131" lon="5.60863">
        <ele>734</ele>
        <time>2019-03-27T14:07:34Z</time>
      </trkpt>
      <trkpt lat="44.22129" lon="5.60854">
        <ele>734</ele>
        <time>2019-03-27T14:07:35Z</time>
      </trkpt>
      <trkpt lat="44.22126" lon="5.60846">
        <ele>734</ele>
        <time>2019-03-27T14:07:36Z</time>
      </trkpt>
      <trkpt lat="44.22123" lon="5.60837">
        <ele>734</ele>
        <time>2019-03-27T14:07:37Z</time>
      </trkpt>
      <trkpt lat="44.22121" lon="5.60828">
        <ele>734</ele>
        <time>2019-03-27T14:07:38Z</time>
      </trkpt>
      <trkpt lat="44.22118" lon="5.60819">
        <ele>734</ele>
        <time>2019-03-27T14:07:39Z</time>
      </trkpt>
      <trkpt lat="44.22116" lon="5.6081">
        <ele>734</ele>
        <time>2019-03-27T14:07:40Z</time>
      </trkpt>
      <trkpt lat="44.22115" lon="5.60801">
        <ele>734</ele>
        <time>2019-03-27T14:07:41Z</time>
      </trkpt>
      <trkpt lat="44.22113" lon="5.60792">
        <ele>734</ele>
        <time>2019-03-27T14:07:42Z</time>
      </trkpt>
      <trkpt lat="44.22113" lon="5.60783">
        <ele>734</ele>
        <time>2019-03-27T14:07:43Z</time>
      </trkpt>
      <trkpt lat="44.22112" lon="5.60774">
        <ele>734</ele>
        <time>2019-03-27T14:07:44Z</time>
      </trkpt>
      <trkpt lat="44.22112" lon="5.60765">
        <ele>734</ele>
        <time>2019-03-27T14:07:45Z</time>
      </trkpt>
      <trkpt lat="44.22112" lon="5.60756">
        <ele>734</ele>
        <time>2019-03-27T14:07:46Z</time>
      </trkpt>
      <trkpt lat="44.22113" lon="5.60747">
        <ele>734</ele>
        <time>2019-03-27T14:07:47Z</time>
      </trkpt>
      <trkpt lat="44.22114" lon="5.60739">
        <ele>734</ele>
        <time>2019-03-27T14:07:48Z</time>
      </trkpt>
      <trkpt lat="44.22115" lon="5.6073">
        <ele>734</ele>
        <time>2019-03-27T14:07:49Z</time>
      </trkpt>
      <trkpt lat="44.22117" lon="5.60721">
        <ele>734</ele>
        <time>2019-03-27T14:07:50Z</time>
      </trkpt>
      <trkpt lat="44.22119" lon="5.60712">
        <ele>734</ele>
        <time>2019-03-27T14:07:51Z</time>
      </trkpt>
      <trkpt lat="44.22121" lon="5.60703">
        <ele>734</ele>
        <time>2019-03-27T14:07:52Z</time>
      </trkpt>
      <trkpt lat="44.22122" lon="5.60694">
        <ele>734</ele>
        <time>2019-03-27T14:07:53Z</time>
      </trkpt>
      <trkpt lat="44.22124" lon="5.60686">
        <ele>734</ele>
        <time>2019-03-27T14:07:54Z</time>
      </trkpt>
      <trkpt lat="44.22126" lon="5.60678">
        <ele>734</ele>
        <time>2019-03-27T14:07:55Z</time>
      </trkpt>
      <trkpt lat="44.22127" lon="5.60671">
        <ele>734</ele>
        <time>2019-03-27T14:07:56Z</time>
      </trkpt>
      <trkpt lat="44.22129" lon="5.60663">
        <ele>734</ele>
        <time>2019-03-27T14:07:57Z</time>
      </trkpt>
      <trkpt lat="44.2213" lon="5.60654">
        <ele>734</ele>
        <time>2019-03-27T14:07:58Z</time>
      </trkpt>
      <trkpt lat="44.22132" lon="5.60646">
        <ele>734</ele>
        <time>2019-03-27T14:07:59Z</time>
      </trkpt>
      <trkpt lat="44.22133" lon="5.60638">
        <ele>734</ele>
        <time>2019-03-27T14:08:00Z</time>
      </trkpt>
      <trkpt lat="44.22134" lon="5.60629">
        <ele>734</ele>
        <time>2019-03-27T14:08:01Z</time>
      </trkpt>
      <trkpt lat="44.22136" lon="5.60621">
        <ele>734</ele>
        <time>2019-03-27T14:08:02Z</time>
      </trkpt>
      <trkpt lat="44.22137" lon="5.60612">
        <ele>734</ele>
        <time>2019-03-27T14:08:03Z</time>
      </trkpt>
      <trkpt lat="44.22137" lon="5.60604">
        <ele>734</ele>
        <time>2019-03-27T14:08:04Z</time>
      </trkpt>
      <trkpt lat="44.22138" lon="5.60595">
        <ele>734</ele>
        <time>2019-03-27T14:08:05Z</time>
      </trkpt>
      <trkpt lat="44.22139" lon="5.60587">
        <ele>734</ele>
        <time>2019-03-27T14:08:06Z</time>
      </trkpt>
      <trkpt lat="44.2214" lon="5.60578">
        <ele>734</ele>
        <time>2019-03-27T14:08:07Z</time>
      </trkpt>
      <trkpt lat="44.2214" lon="5.60569">
        <ele>734</ele>
        <time>2019-03-27T14:08:08Z</time>
      </trkpt>
      <trkpt lat="44.22141" lon="5.60561">
        <ele>734</ele>
        <time>2019-03-27T14:08:09Z</time>
      </trkpt>
      <trkpt lat="44.22142" lon="5.60552">
        <ele>734</ele>
        <time>2019-03-27T14:08:10Z</time>
      </trkpt>
      <trkpt lat="44.22142" lon="5.60543">
        <ele>734</ele>
        <time>2019-03-27T14:08:11Z</time>
      </trkpt>
      <trkpt lat="44.22143" lon="5.60535">
        <ele>734</ele>
        <time>2019-03-27T14:08:12Z</time>
      </trkpt>
      <trkpt lat="44.22143" lon="5.60526">
        <ele>734</ele>
        <time>2019-03-27T14:08:13Z</time>
      </trkpt>
      <trkpt lat="44.22143" lon="5.60517">
        <ele>734</ele>
        <time>2019-03-27T14:08:14Z</time>
      </trkpt>
      <trkpt lat="44.22142" lon="5.60509">
        <ele>734</ele>
        <time>2019-03-27T14:08:15Z</time>
      </trkpt>
      <trkpt lat="44.22142" lon="5.60501">
        <ele>734</ele>
        <time>2019-03-27T14:08:16Z</time>
      </trkpt>
      <trkpt lat="44.22141" lon="5.60492">
        <ele>734</ele>
        <time>2019-03-27T14:08:17Z</time>
      </trkpt>
      <trkpt lat="44.22141" lon="5.60483">
        <ele>734</ele>
        <time>2019-03-27T14:08:18Z</time>
      </trkpt>
      <trkpt lat="44.2214" lon="5.60475">
        <ele>734</ele>
        <time>2019-03-27T14:08:19Z</time>
      </trkpt>
      <trkpt lat="44.22139" lon="5.60466">
        <ele>734</ele>
        <time>2019-03-27T14:08:20Z</time>
      </trkpt>
      <trkpt lat="44.22138" lon="5.60459">
        <ele>734</ele>
        <time>2019-03-27T14:08:21Z</time>
      </trkpt>
      <trkpt lat="44.22137" lon="5.60451">
        <ele>734</ele>
        <time>2019-03-27T14:08:22Z</time>
      </trkpt>
      <trkpt lat="44.22135" lon="5.60442">
        <ele>734</ele>
        <time>2019-03-27T14:08:23Z</time>
      </trkpt>
      <trkpt lat="44.22134" lon="5.60434">
        <ele>735</ele>
        <time>2019-03-27T14:08:24Z</time>
      </trkpt>
      <trkpt lat="44.22132" lon="5.60426">
        <ele>735</ele>
        <time>2019-03-27T14:08:25Z</time>
      </trkpt>
      <trkpt lat="44.22131" lon="5.60418">
        <ele>735</ele>
        <time>2019-03-27T14:08:26Z</time>
      </trkpt>
      <trkpt lat="44.22129" lon="5.6041">
        <ele>735</ele>
        <time>2019-03-27T14:08:27Z</time>
      </trkpt>
      <trkpt lat="44.22128" lon="5.60403">
        <ele>735</ele>
        <time>2019-03-27T14:08:28Z</time>
      </trkpt>
      <trkpt lat="44.22126" lon="5.60395">
        <ele>735</ele>
        <time>2019-03-27T14:08:29Z</time>
      </trkpt>
      <trkpt lat="44.22125" lon="5.60387">
        <ele>735</ele>
        <time>2019-03-27T14:08:30Z</time>
      </trkpt>
      <trkpt lat="44.22124" lon="5.60379">
        <ele>735</ele>
        <time>2019-03-27T14:08:31Z</time>
      </trkpt>
      <trkpt lat="44.22123" lon="5.60371">
        <ele>735</ele>
        <time>2019-03-27T14:08:32Z</time>
      </trkpt>
      <trkpt lat="44.22122" lon="5.60363">
        <ele>735</ele>
        <time>2019-03-27T14:08:33Z</time>
      </trkpt>
      <trkpt lat="44.22121" lon="5.60355">
        <ele>735</ele>
        <time>2019-03-27T14:08:34Z</time>
      </trkpt>
      <trkpt lat="44.22121" lon="5.60347">
        <ele>735</ele>
        <time>2019-03-27T14:08:35Z</time>
      </trkpt>
      <trkpt lat="44.22121" lon="5.60339">
        <ele>735</ele>
        <time>2019-03-27T14:08:36Z</time>
      </trkpt>
      <trkpt lat="44.22122" lon="5.60331">
        <ele>735</ele>
        <time>2019-03-27T14:08:37Z</time>
      </trkpt>
      <trkpt lat="44.22122" lon="5.60323">
        <ele>735</ele>
        <time>2019-03-27T14:08:38Z</time>
      </trkpt>
      <trkpt lat="44.22123" lon="5.60314">
        <ele>735</ele>
        <time>2019-03-27T14:08:39Z</time>
      </trkpt>
      <trkpt lat="44.22124" lon="5.60306">
        <ele>735</ele>
        <time>2019-03-27T14:08:40Z</time>
      </trkpt>
      <trkpt lat="44.22124" lon="5.60298">
        <ele>735</ele>
        <time>2019-03-27T14:08:41Z</time>
      </trkpt>
      <trkpt lat="44.22125" lon="5.6029">
        <ele>735</ele>
        <time>2019-03-27T14:08:42Z</time>
      </trkpt>
      <trkpt lat="44.22126" lon="5.60282">
        <ele>735</ele>
        <time>2019-03-27T14:08:43Z</time>
      </trkpt>
      <trkpt lat="44.22127" lon="5.60274">
        <ele>735</ele>
        <time>2019-03-27T14:08:44Z</time>
      </trkpt>
      <trkpt lat="44.22128" lon="5.60266">
        <ele>735</ele>
        <time>2019-03-27T14:08:45Z</time>
      </trkpt>
      <trkpt lat="44.22128" lon="5.60258">
        <ele>735</ele>
        <time>2019-03-27T14:08:46Z</time>
      </trkpt>
      <trkpt lat="44.22129" lon="5.6025">
        <ele>735</ele>
        <time>2019-03-27T14:08:47Z</time>
      </trkpt>
      <trkpt lat="44.2213" lon="5.60241">
        <ele>735</ele>
        <time>2019-03-27T14:08:48Z</time>
      </trkpt>
      <trkpt lat="44.22131" lon="5.60231">
        <ele>735</ele>
        <time>2019-03-27T14:08:49Z</time>
      </trkpt>
      <trkpt lat="44.22132" lon="5.60222">
        <ele>735</ele>
        <time>2019-03-27T14:08:50Z</time>
      </trkpt>
      <trkpt lat="44.22133" lon="5.60213">
        <ele>735</ele>
        <time>2019-03-27T14:08:51Z</time>
      </trkpt>
      <trkpt lat="44.22134" lon="5.60204">
        <ele>735</ele>
        <time>2019-03-27T14:08:52Z</time>
      </trkpt>
      <trkpt lat="44.22135" lon="5.60195">
        <ele>735</ele>
        <time>2019-03-27T14:08:53Z</time>
      </trkpt>
      <trkpt lat="44.22136" lon="5.60186">
        <ele>735</ele>
        <time>2019-03-27T14:08:54Z</time>
      </trkpt>
      <trkpt lat="44.22137" lon="5.60178">
        <ele>735</ele>
        <time>2019-03-27T14:08:55Z</time>
      </trkpt>
      <trkpt lat="44.22138" lon="5.60169">
        <ele>735</ele>
        <time>2019-03-27T14:08:56Z</time>
      </trkpt>
      <trkpt lat="44.22139" lon="5.60161">
        <ele>735</ele>
        <time>2019-03-27T14:08:57Z</time>
      </trkpt>
      <trkpt lat="44.22139" lon="5.60154">
        <ele>735</ele>
        <time>2019-03-27T14:08:58Z</time>
      </trkpt>
      <trkpt lat="44.22139" lon="5.60146">
        <ele>735</ele>
        <time>2019-03-27T14:08:59Z</time>
      </trkpt>
      <trkpt lat="44.22139" lon="5.60139">
        <ele>735</ele>
        <time>2019-03-27T14:09:00Z</time>
      </trkpt>
      <trkpt lat="44.2214" lon="5.60132">
        <ele>735</ele>
        <time>2019-03-27T14:09:01Z</time>
      </trkpt>
      <trkpt lat="44.2214" lon="5.60124">
        <ele>735</ele>
        <time>2019-03-27T14:09:02Z</time>
      </trkpt>
      <trkpt lat="44.2214" lon="5.60116">
        <ele>735</ele>
        <time>2019-03-27T14:09:03Z</time>
      </trkpt>
      <trkpt lat="44.22141" lon="5.60108">
        <ele>735</ele>
        <time>2019-03-27T14:09:04Z</time>
      </trkpt>
      <trkpt lat="44.22141" lon="5.601">
        <ele>735</ele>
        <time>2019-03-27T14:09:05Z</time>
      </trkpt>
      <trkpt lat="44.22142" lon="5.60092">
        <ele>735</ele>
        <time>2019-03-27T14:09:06Z</time>
      </trkpt>
      <trkpt lat="44.22142" lon="5.60084">
        <ele>735</ele>
        <time>2019-03-27T14:09:07Z</time>
      </trkpt>
      <trkpt lat="44.22142" lon="5.60076">
        <ele>735</ele>
        <time>2019-03-27T14:09:08Z</time>
      </trkpt>
      <trkpt lat="44.22142" lon="5.60068">
        <ele>735</ele>
        <time>2019-03-27T14:09:09Z</time>
      </trkpt>
      <trkpt lat="44.22142" lon="5.60059">
        <ele>735</ele>
        <time>2019-03-27T14:09:10Z</time>
      </trkpt>
      <trkpt lat="44.22142" lon="5.60051">
        <ele>735</ele>
        <time>2019-03-27T14:09:11Z</time>
      </trkpt>
      <trkpt lat="44.22142" lon="5.60043">
        <ele>735</ele>
        <time>2019-03-27T14:09:12Z</time>
      </trkpt>
      <trkpt lat="44.22142" lon="5.60036">
        <ele>735</ele>
        <time>2019-03-27T14:09:13Z</time>
      </trkpt>
      <trkpt lat="44.22142" lon="5.60029">
        <ele>735</ele>
        <time>2019-03-27T14:09:14Z</time>
      </trkpt>
      <trkpt lat="44.22142" lon="5.60021">
        <ele>735</ele>
        <time>2019-03-27T14:09:15Z</time>
      </trkpt>
      <trkpt lat="44.22142" lon="5.60014">
        <ele>735</ele>
        <time>2019-03-27T14:09:16Z</time>
      </trkpt>
      <trkpt lat="44.22142" lon="5.60006">
        <ele>735</ele>
        <time>2019-03-27T14:09:17Z</time>
      </trkpt>
      <trkpt lat="44.22142" lon="5.59998">
        <ele>735</ele>
        <time>2019-03-27T14:09:18Z</time>
      </trkpt>
      <trkpt lat="44.22142" lon="5.59989">
        <ele>735</ele>
        <time>2019-03-27T14:09:19Z</time>
      </trkpt>
      <trkpt lat="44.22142" lon="5.59981">
        <ele>735</ele>
        <time>2019-03-27T14:09:20Z</time>
      </trkpt>
      <trkpt lat="44.22142" lon="5.59974">
        <ele>735</ele>
        <time>2019-03-27T14:09:21Z</time>
      </trkpt>
      <trkpt lat="44.22142" lon="5.59966">
        <ele>735</ele>
        <time>2019-03-27T14:09:22Z</time>
      </trkpt>
      <trkpt lat="44.22142" lon="5.59959">
        <ele>735</ele>
        <time>2019-03-27T14:09:23Z</time>
      </trkpt>
      <trkpt lat="44.22142" lon="5.59951">
        <ele>736</ele>
        <time>2019-03-27T14:09:24Z</time>
      </trkpt>
      <trkpt lat="44.22142" lon="5.59943">
        <ele>736</ele>
        <time>2019-03-27T14:09:25Z</time>
      </trkpt>
      <trkpt lat="44.22142" lon="5.59936">
        <ele>736</ele>
        <time>2019-03-27T14:09:26Z</time>
      </trkpt>
      <trkpt lat="44.22142" lon="5.59928">
        <ele>737</ele>
        <time>2019-03-27T14:09:27Z</time>
      </trkpt>
      <trkpt lat="44.22141" lon="5.59921">
        <ele>738</ele>
        <time>2019-03-27T14:09:28Z</time>
      </trkpt>
      <trkpt lat="44.22141" lon="5.59913">
        <ele>738</ele>
        <time>2019-03-27T14:09:29Z</time>
      </trkpt>
      <trkpt lat="44.2214" lon="5.59905">
        <ele>738</ele>
        <time>2019-03-27T14:09:30Z</time>
      </trkpt>
      <trkpt lat="44.2214" lon="5.59897">
        <ele>739</ele>
        <time>2019-03-27T14:09:31Z</time>
      </trkpt>
      <trkpt lat="44.22139" lon="5.59889">
        <ele>739</ele>
        <time>2019-03-27T14:09:32Z</time>
      </trkpt>
      <trkpt lat="44.22139" lon="5.5988">
        <ele>739</ele>
        <time>2019-03-27T14:09:33Z</time>
      </trkpt>
      <trkpt lat="44.22138" lon="5.59872">
        <ele>739</ele>
        <time>2019-03-27T14:09:34Z</time>
      </trkpt>
      <trkpt lat="44.22138" lon="5.59864">
        <ele>739</ele>
        <time>2019-03-27T14:09:35Z</time>
      </trkpt>
      <trkpt lat="44.22137" lon="5.59856">
        <ele>739</ele>
        <time>2019-03-27T14:09:36Z</time>
      </trkpt>
      <trkpt lat="44.22137" lon="5.59848">
        <ele>739</ele>
        <time>2019-03-27T14:09:37Z</time>
      </trkpt>
      <trkpt lat="44.22137" lon="5.5984">
        <ele>739</ele>
        <time>2019-03-27T14:09:38Z</time>
      </trkpt>
      <trkpt lat="44.22136" lon="5.59832">
        <ele>739</ele>
        <time>2019-03-27T14:09:39Z</time>
      </trkpt>
      <trkpt lat="44.22136" lon="5.59824">
        <ele>739</ele>
        <time>2019-03-27T14:09:40Z</time>
      </trkpt>
      <trkpt lat="44.22136" lon="5.59815">
        <ele>739</ele>
        <time>2019-03-27T14:09:41Z</time>
      </trkpt>
      <trkpt lat="44.22135" lon="5.59807">
        <ele>739</ele>
        <time>2019-03-27T14:09:42Z</time>
      </trkpt>
      <trkpt lat="44.22136" lon="5.59798">
        <ele>739</ele>
        <time>2019-03-27T14:09:43Z</time>
      </trkpt>
      <trkpt lat="44.22136" lon="5.5979">
        <ele>739</ele>
        <time>2019-03-27T14:09:44Z</time>
      </trkpt>
      <trkpt lat="44.22136" lon="5.59782">
        <ele>739</ele>
        <time>2019-03-27T14:09:45Z</time>
      </trkpt>
      <trkpt lat="44.22137" lon="5.59774">
        <ele>739</ele>
        <time>2019-03-27T14:09:46Z</time>
      </trkpt>
      <trkpt lat="44.22137" lon="5.59766">
        <ele>739</ele>
        <time>2019-03-27T14:09:47Z</time>
      </trkpt>
      <trkpt lat="44.22138" lon="5.59758">
        <ele>739</ele>
        <time>2019-03-27T14:09:48Z</time>
      </trkpt>
      <trkpt lat="44.22139" lon="5.5975">
        <ele>739</ele>
        <time>2019-03-27T14:09:49Z</time>
      </trkpt>
      <trkpt lat="44.2214" lon="5.59742">
        <ele>739</ele>
        <time>2019-03-27T14:09:50Z</time>
      </trkpt>
      <trkpt lat="44.22141" lon="5.59734">
        <ele>739</ele>
        <time>2019-03-27T14:09:51Z</time>
      </trkpt>
      <trkpt lat="44.22142" lon="5.59726">
        <ele>739</ele>
        <time>2019-03-27T14:09:52Z</time>
      </trkpt>
      <trkpt lat="44.22143" lon="5.59719">
        <ele>739</ele>
        <time>2019-03-27T14:09:53Z</time>
      </trkpt>
      <trkpt lat="44.22144" lon="5.59711">
        <ele>739</ele>
        <time>2019-03-27T14:09:54Z</time>
      </trkpt>
      <trkpt lat="44.22146" lon="5.59702">
        <ele>739</ele>
        <time>2019-03-27T14:09:55Z</time>
      </trkpt>
      <trkpt lat="44.22147" lon="5.59694">
        <ele>739</ele>
        <time>2019-03-27T14:09:56Z</time>
      </trkpt>
      <trkpt lat="44.22148" lon="5.59687">
        <ele>739</ele>
        <time>2019-03-27T14:09:57Z</time>
      </trkpt>
      <trkpt lat="44.2215" lon="5.59679">
        <ele>739</ele>
        <time>2019-03-27T14:09:58Z</time>
      </trkpt>
      <trkpt lat="44.22151" lon="5.59671">
        <ele>739</ele>
        <time>2019-03-27T14:09:59Z</time>
      </trkpt>
      <trkpt lat="44.22152" lon="5.59663">
        <ele>739</ele>
        <time>2019-03-27T14:10:00Z</time>
      </trkpt>
      <trkpt lat="44.22152" lon="5.59655">
        <ele>739</ele>
        <time>2019-03-27T14:10:01Z</time>
      </trkpt>
      <trkpt lat="44.22152" lon="5.59647">
        <ele>739</ele>
        <time>2019-03-27T14:10:02Z</time>
      </trkpt>
      <trkpt lat="44.22153" lon="5.59639">
        <ele>739</ele>
        <time>2019-03-27T14:10:03Z</time>
      </trkpt>
      <trkpt lat="44.22152" lon="5.59631">
        <ele>739</ele>
        <time>2019-03-27T14:10:04Z</time>
      </trkpt>
      <trkpt lat="44.22152" lon="5.59622">
        <ele>739</ele>
        <time>2019-03-27T14:10:05Z</time>
      </trkpt>
      <trkpt lat="44.22151" lon="5.59614">
        <ele>739</ele>
        <time>2019-03-27T14:10:06Z</time>
      </trkpt>
      <trkpt lat="44.2215" lon="5.59606">
        <ele>739</ele>
        <time>2019-03-27T14:10:07Z</time>
      </trkpt>
      <trkpt lat="44.22149" lon="5.59598">
        <ele>739</ele>
        <time>2019-03-27T14:10:08Z</time>
      </trkpt>
      <trkpt lat="44.22147" lon="5.5959">
        <ele>739</ele>
        <time>2019-03-27T14:10:09Z</time>
      </trkpt>
      <trkpt lat="44.22146" lon="5.59582">
        <ele>739</ele>
        <time>2019-03-27T14:10:10Z</time>
      </trkpt>
      <trkpt lat="44.22144" lon="5.59573">
        <ele>739</ele>
        <time>2019-03-27T14:10:11Z</time>
      </trkpt>
      <trkpt lat="44.22143" lon="5.59565">
        <ele>739</ele>
        <time>2019-03-27T14:10:12Z</time>
      </trkpt>
      <trkpt lat="44.22142" lon="5.59557">
        <ele>739</ele>
        <time>2019-03-27T14:10:13Z</time>
      </trkpt>
      <trkpt lat="44.2214" lon="5.59549">
        <ele>739</ele>
        <time>2019-03-27T14:10:14Z</time>
      </trkpt>
      <trkpt lat="44.22139" lon="5.59541">
        <ele>739</ele>
        <time>2019-03-27T14:10:15Z</time>
      </trkpt>
      <trkpt lat="44.22137" lon="5.59533">
        <ele>739</ele>
        <time>2019-03-27T14:10:16Z</time>
      </trkpt>
      <trkpt lat="44.22136" lon="5.59525">
        <ele>739</ele>
        <time>2019-03-27T14:10:17Z</time>
      </trkpt>
      <trkpt lat="44.22135" lon="5.59518">
        <ele>739</ele>
        <time>2019-03-27T14:10:18Z</time>
      </trkpt>
      <trkpt lat="44.22134" lon="5.5951">
        <ele>739</ele>
        <time>2019-03-27T14:10:19Z</time>
      </trkpt>
      <trkpt lat="44.22132" lon="5.59502">
        <ele>739</ele>
        <time>2019-03-27T14:10:20Z</time>
      </trkpt>
      <trkpt lat="44.22131" lon="5.59495">
        <ele>739</ele>
        <time>2019-03-27T14:10:21Z</time>
      </trkpt>
      <trkpt lat="44.22129" lon="5.59487">
        <ele>739</ele>
        <time>2019-03-27T14:10:22Z</time>
      </trkpt>
      <trkpt lat="44.22128" lon="5.5948">
        <ele>739</ele>
        <time>2019-03-27T14:10:23Z</time>
      </trkpt>
      <trkpt lat="44.22127" lon="5.59472">
        <ele>739</ele>
        <time>2019-03-27T14:10:24Z</time>
      </trkpt>
      <trkpt lat="44.22126" lon="5.59465">
        <ele>739</ele>
        <time>2019-03-27T14:10:25Z</time>
      </trkpt>
      <trkpt lat="44.22124" lon="5.59457">
        <ele>739</ele>
        <time>2019-03-27T14:10:26Z</time>
      </trkpt>
      <trkpt lat="44.22123" lon="5.5945">
        <ele>739</ele>
        <time>2019-03-27T14:10:27Z</time>
      </trkpt>
      <trkpt lat="44.22122" lon="5.59442">
        <ele>739</ele>
        <time>2019-03-27T14:10:28Z</time>
      </trkpt>
      <trkpt lat="44.2212" lon="5.59435">
        <ele>739</ele>
        <time>2019-03-27T14:10:29Z</time>
      </trkpt>
      <trkpt lat="44.22119" lon="5.59428">
        <ele>739</ele>
        <time>2019-03-27T14:10:30Z</time>
      </trkpt>
      <trkpt lat="44.22117" lon="5.5942">
        <ele>739</ele>
        <time>2019-03-27T14:10:31Z</time>
      </trkpt>
      <trkpt lat="44.22116" lon="5.59413">
        <ele>739</ele>
        <time>2019-03-27T14:10:32Z</time>
      </trkpt>
      <trkpt lat="44.22114" lon="5.59405">
        <ele>739</ele>
        <time>2019-03-27T14:10:33Z</time>
      </trkpt>
      <trkpt lat="44.22113" lon="5.59397">
        <ele>739</ele>
        <time>2019-03-27T14:10:34Z</time>
      </trkpt>
      <trkpt lat="44.22112" lon="5.59389">
        <ele>739</ele>
        <time>2019-03-27T14:10:35Z</time>
      </trkpt>
      <trkpt lat="44.2211" lon="5.59381">
        <ele>739</ele>
        <time>2019-03-27T14:10:36Z</time>
      </trkpt>
      <trkpt lat="44.22109" lon="5.59373">
        <ele>739</ele>
        <time>2019-03-27T14:10:37Z</time>
      </trkpt>
      <trkpt lat="44.22108" lon="5.59365">
        <ele>739</ele>
        <time>2019-03-27T14:10:38Z</time>
      </trkpt>
      <trkpt lat="44.22106" lon="5.59357">
        <ele>739</ele>
        <time>2019-03-27T14:10:39Z</time>
      </trkpt>
      <trkpt lat="44.22105" lon="5.59349">
        <ele>739</ele>
        <time>2019-03-27T14:10:40Z</time>
      </trkpt>
      <trkpt lat="44.22104" lon="5.5934">
        <ele>739</ele>
        <time>2019-03-27T14:10:41Z</time>
      </trkpt>
      <trkpt lat="44.22102" lon="5.59332">
        <ele>739</ele>
        <time>2019-03-27T14:10:42Z</time>
      </trkpt>
      <trkpt lat="44.22101" lon="5.59324">
        <ele>739</ele>
        <time>2019-03-27T14:10:43Z</time>
      </trkpt>
      <trkpt lat="44.221" lon="5.59316">
        <ele>739</ele>
        <time>2019-03-27T14:10:44Z</time>
      </trkpt>
      <trkpt lat="44.22099" lon="5.59308">
        <ele>739</ele>
        <time>2019-03-27T14:10:45Z</time>
      </trkpt>
      <trkpt lat="44.22097" lon="5.593">
        <ele>739</ele>
        <time>2019-03-27T14:10:46Z</time>
      </trkpt>
      <trkpt lat="44.22096" lon="5.59291">
        <ele>739</ele>
        <time>2019-03-27T14:10:47Z</time>
      </trkpt>
      <trkpt lat="44.22095" lon="5.59283">
        <ele>739</ele>
        <time>2019-03-27T14:10:48Z</time>
      </trkpt>
      <trkpt lat="44.22093" lon="5.59275">
        <ele>739</ele>
        <time>2019-03-27T14:10:49Z</time>
      </trkpt>
      <trkpt lat="44.22092" lon="5.59267">
        <ele>739</ele>
        <time>2019-03-27T14:10:50Z</time>
      </trkpt>
      <trkpt lat="44.22091" lon="5.59259">
        <ele>739</ele>
        <time>2019-03-27T14:10:51Z</time>
      </trkpt>
      <trkpt lat="44.22089" lon="5.5925">
        <ele>739</ele>
        <time>2019-03-27T14:10:52Z</time>
      </trkpt>
      <trkpt lat="44.22088" lon="5.59242">
        <ele>739</ele>
        <time>2019-03-27T14:10:53Z</time>
      </trkpt>
      <trkpt lat="44.22087" lon="5.59235">
        <ele>739</ele>
        <time>2019-03-27T14:10:54Z</time>
      </trkpt>
      <trkpt lat="44.22086" lon="5.59227">
        <ele>739</ele>
        <time>2019-03-27T14:10:55Z</time>
      </trkpt>
      <trkpt lat="44.22084" lon="5.5922">
        <ele>739</ele>
        <time>2019-03-27T14:10:56Z</time>
      </trkpt>
      <trkpt lat="44.22084" lon="5.59212">
        <ele>739</ele>
        <time>2019-03-27T14:10:57Z</time>
      </trkpt>
      <trkpt lat="44.22083" lon="5.59205">
        <ele>739</ele>
        <time>2019-03-27T14:10:58Z</time>
      </trkpt>
      <trkpt lat="44.22082" lon="5.59198">
        <ele>739</ele>
        <time>2019-03-27T14:10:59Z</time>
      </trkpt>
      <trkpt lat="44.22081" lon="5.5919">
        <ele>739</ele>
        <time>2019-03-27T14:11:00Z</time>
      </trkpt>
      <trkpt lat="44.22081" lon="5.59182">
        <ele>739</ele>
        <time>2019-03-27T14:11:01Z</time>
      </trkpt>
      <trkpt lat="44.2208" lon="5.59175">
        <ele>739</ele>
        <time>2019-03-27T14:11:02Z</time>
      </trkpt>
      <trkpt lat="44.2208" lon="5.59167">
        <ele>739</ele>
        <time>2019-03-27T14:11:03Z</time>
      </trkpt>
      <trkpt lat="44.2208" lon="5.5916">
        <ele>739</ele>
        <time>2019-03-27T14:11:04Z</time>
      </trkpt>
      <trkpt lat="44.2208" lon="5.59153">
        <ele>739</ele>
        <time>2019-03-27T14:11:05Z</time>
      </trkpt>
      <trkpt lat="44.2208" lon="5.59145">
        <ele>739</ele>
        <time>2019-03-27T14:11:06Z</time>
      </trkpt>
      <trkpt lat="44.22081" lon="5.59138">
        <ele>739</ele>
        <time>2019-03-27T14:11:07Z</time>
      </trkpt>
      <trkpt lat="44.22081" lon="5.59131">
        <ele>739</ele>
        <time>2019-03-27T14:11:08Z</time>
      </trkpt>
      <trkpt lat="44.22082" lon="5.59124">
        <ele>739</ele>
        <time>2019-03-27T14:11:09Z</time>
      </trkpt>
      <trkpt lat="44.22083" lon="5.59116">
        <ele>739</ele>
        <time>2019-03-27T14:11:10Z</time>
      </trkpt>
      <trkpt lat="44.22083" lon="5.59108">
        <ele>739</ele>
        <time>2019-03-27T14:11:11Z</time>
      </trkpt>
      <trkpt lat="44.22084" lon="5.59101">
        <ele>739</ele>
        <time>2019-03-27T14:11:12Z</time>
      </trkpt>
      <trkpt lat="44.22084" lon="5.59093">
        <ele>739</ele>
        <time>2019-03-27T14:11:13Z</time>
      </trkpt>
      <trkpt lat="44.22085" lon="5.59086">
        <ele>739</ele>
        <time>2019-03-27T14:11:14Z</time>
      </trkpt>
      <trkpt lat="44.22086" lon="5.59079">
        <ele>739</ele>
        <time>2019-03-27T14:11:15Z</time>
      </trkpt>
      <trkpt lat="44.22087" lon="5.59072">
        <ele>739</ele>
        <time>2019-03-27T14:11:16Z</time>
      </trkpt>
      <trkpt lat="44.22089" lon="5.59065">
        <ele>739</ele>
        <time>2019-03-27T14:11:17Z</time>
      </trkpt>
      <trkpt lat="44.22091" lon="5.59058">
        <ele>739</ele>
        <time>2019-03-27T14:11:18Z</time>
      </trkpt>
      <trkpt lat="44.22092" lon="5.59051">
        <ele>739</ele>
        <time>2019-03-27T14:11:19Z</time>
      </trkpt>
      <trkpt lat="44.22094" lon="5.59045">
        <ele>739</ele>
        <time>2019-03-27T14:11:20Z</time>
      </trkpt>
      <trkpt lat="44.22095" lon="5.59038">
        <ele>739</ele>
        <time>2019-03-27T14:11:21Z</time>
      </trkpt>
      <trkpt lat="44.22097" lon="5.59031">
        <ele>739</ele>
        <time>2019-03-27T14:11:22Z</time>
      </trkpt>
      <trkpt lat="44.22099" lon="5.59024">
        <ele>739</ele>
        <time>2019-03-27T14:11:23Z</time>
      </trkpt>
      <trkpt lat="44.221" lon="5.59018">
        <ele>739</ele>
        <time>2019-03-27T14:11:24Z</time>
      </trkpt>
      <trkpt lat="44.22101" lon="5.59011">
        <ele>739</ele>
        <time>2019-03-27T14:11:25Z</time>
      </trkpt>
      <trkpt lat="44.22103" lon="5.59004">
        <ele>739</ele>
        <time>2019-03-27T14:11:26Z</time>
      </trkpt>
      <trkpt lat="44.22104" lon="5.58997">
        <ele>739</ele>
        <time>2019-03-27T14:11:27Z</time>
      </trkpt>
      <trkpt lat="44.22105" lon="5.5899">
        <ele>739</ele>
        <time>2019-03-27T14:11:28Z</time>
      </trkpt>
      <trkpt lat="44.22106" lon="5.58982">
        <ele>739</ele>
        <time>2019-03-27T14:11:29Z</time>
      </trkpt>
      <trkpt lat="44.22107" lon="5.58975">
        <ele>739</ele>
        <time>2019-03-27T14:11:30Z</time>
      </trkpt>
      <trkpt lat="44.22107" lon="5.58967">
        <ele>739</ele>
        <time>2019-03-27T14:11:31Z</time>
      </trkpt>
      <trkpt lat="44.22108" lon="5.5896">
        <ele>739</ele>
        <time>2019-03-27T14:11:32Z</time>
      </trkpt>
      <trkpt lat="44.22108" lon="5.58953">
        <ele>739</ele>
        <time>2019-03-27T14:11:33Z</time>
      </trkpt>
      <trkpt lat="44.22109" lon="5.58946">
        <ele>739</ele>
        <time>2019-03-27T14:11:34Z</time>
      </trkpt>
      <trkpt lat="44.22108" lon="5.58939">
        <ele>739</ele>
        <time>2019-03-27T14:11:35Z</time>
      </trkpt>
      <trkpt lat="44.22109" lon="5.58932">
        <ele>739</ele>
        <time>2019-03-27T14:11:36Z</time>
      </trkpt>
      <trkpt lat="44.22109" lon="5.58924">
        <ele>739</ele>
        <time>2019-03-27T14:11:37Z</time>
      </trkpt>
      <trkpt lat="44.22109" lon="5.58917">
        <ele>739</ele>
        <time>2019-03-27T14:11:38Z</time>
      </trkpt>
      <trkpt lat="44.22109" lon="5.5891">
        <ele>739</ele>
        <time>2019-03-27T14:11:39Z</time>
      </trkpt>
      <trkpt lat="44.22109" lon="5.58903">
        <ele>739</ele>
        <time>2019-03-27T14:11:40Z</time>
      </trkpt>
      <trkpt lat="44.22109" lon="5.58895">
        <ele>739</ele>
        <time>2019-03-27T14:11:41Z</time>
      </trkpt>
      <trkpt lat="44.22109" lon="5.58888">
        <ele>739</ele>
        <time>2019-03-27T14:11:42Z</time>
      </trkpt>
      <trkpt lat="44.22109" lon="5.58881">
        <ele>739</ele>
        <time>2019-03-27T14:11:43Z</time>
      </trkpt>
      <trkpt lat="44.22109" lon="5.58874">
        <ele>739</ele>
        <time>2019-03-27T14:11:44Z</time>
      </trkpt>
      <trkpt lat="44.22109" lon="5.58867">
        <ele>739</ele>
        <time>2019-03-27T14:11:45Z</time>
      </trkpt>
      <trkpt lat="44.22109" lon="5.58859">
        <ele>739</ele>
        <time>2019-03-27T14:11:46Z</time>
      </trkpt>
      <trkpt lat="44.22108" lon="5.58852">
        <ele>739</ele>
        <time>2019-03-27T14:11:47Z</time>
      </trkpt>
      <trkpt lat="44.22108" lon="5.58846">
        <ele>739</ele>
        <time>2019-03-27T14:11:48Z</time>
      </trkpt>
      <trkpt lat="44.22108" lon="5.58839">
        <ele>739</ele>
        <time>2019-03-27T14:11:49Z</time>
      </trkpt>
      <trkpt lat="44.22108" lon="5.58831">
        <ele>739</ele>
        <time>2019-03-27T14:11:50Z</time>
      </trkpt>
      <trkpt lat="44.22108" lon="5.58824">
        <ele>740</ele>
        <time>2019-03-27T14:11:51Z</time>
      </trkpt>
      <trkpt lat="44.22108" lon="5.58817">
        <ele>740</ele>
        <time>2019-03-27T14:11:52Z</time>
      </trkpt>
      <trkpt lat="44.22108" lon="5.5881">
        <ele>741</ele>
        <time>2019-03-27T14:11:53Z</time>
      </trkpt>
      <trkpt lat="44.22108" lon="5.58803">
        <ele>741</ele>
        <time>2019-03-27T14:11:54Z</time>
      </trkpt>
      <trkpt lat="44.22108" lon="5.58796">
        <ele>741</ele>
        <time>2019-03-27T14:11:55Z</time>
      </trkpt>
      <trkpt lat="44.22108" lon="5.58789">
        <ele>742</ele>
        <time>2019-03-27T14:11:56Z</time>
      </trkpt>
      <trkpt lat="44.22108" lon="5.58782">
        <ele>742</ele>
        <time>2019-03-27T14:11:57Z</time>
      </trkpt>
      <trkpt lat="44.22108" lon="5.58775">
        <ele>743</ele>
        <time>2019-03-27T14:11:58Z</time>
      </trkpt>
      <trkpt lat="44.22108" lon="5.58768">
        <ele>743</ele>
        <time>2019-03-27T14:11:59Z</time>
      </trkpt>
      <trkpt lat="44.22108" lon="5.58761">
        <ele>744</ele>
        <time>2019-03-27T14:12:00Z</time>
      </trkpt>
      <trkpt lat="44.22108" lon="5.58753">
        <ele>744</ele>
        <time>2019-03-27T14:12:01Z</time>
      </trkpt>
      <trkpt lat="44.22108" lon="5.58746">
        <ele>745</ele>
        <time>2019-03-27T14:12:02Z</time>
      </trkpt>
      <trkpt lat="44.22108" lon="5.58739">
        <ele>745</ele>
        <time>2019-03-27T14:12:03Z</time>
      </trkpt>
      <trkpt lat="44.22108" lon="5.58732">
        <ele>745</ele>
        <time>2019-03-27T14:12:04Z</time>
      </trkpt>
      <trkpt lat="44.22108" lon="5.58725">
        <ele>745</ele>
        <time>2019-03-27T14:12:05Z</time>
      </trkpt>
      <trkpt lat="44.22108" lon="5.58717">
        <ele>746</ele>
        <time>2019-03-27T14:12:06Z</time>
      </trkpt>
      <trkpt lat="44.22108" lon="5.5871">
        <ele>746</ele>
        <time>2019-03-27T14:12:07Z</time>
      </trkpt>
      <trkpt lat="44.22108" lon="5.58703">
        <ele>746</ele>
        <time>2019-03-27T14:12:08Z</time>
      </trkpt>
      <trkpt lat="44.22107" lon="5.58696">
        <ele>746</ele>
        <time>2019-03-27T14:12:09Z</time>
      </trkpt>
      <trkpt lat="44.22107" lon="5.58689">
        <ele>747</ele>
        <time>2019-03-27T14:12:10Z</time>
      </trkpt>
      <trkpt lat="44.22107" lon="5.58682">
        <ele>747</ele>
        <time>2019-03-27T14:12:11Z</time>
      </trkpt>
      <trkpt lat="44.22107" lon="5.58675">
        <ele>747</ele>
        <time>2019-03-27T14:12:12Z</time>
      </trkpt>
      <trkpt lat="44.22107" lon="5.58669">
        <ele>747</ele>
        <time>2019-03-27T14:12:13Z</time>
      </trkpt>
      <trkpt lat="44.22107" lon="5.58661">
        <ele>748</ele>
        <time>2019-03-27T14:12:14Z</time>
      </trkpt>
      <trkpt lat="44.22107" lon="5.58654">
        <ele>748</ele>
        <time>2019-03-27T14:12:15Z</time>
      </trkpt>
      <trkpt lat="44.22107" lon="5.58648">
        <ele>748</ele>
        <time>2019-03-27T14:12:16Z</time>
      </trkpt>
      <trkpt lat="44.22107" lon="5.58641">
        <ele>748</ele>
        <time>2019-03-27T14:12:17Z</time>
      </trkpt>
      <trkpt lat="44.22107" lon="5.58635">
        <ele>749</ele>
        <time>2019-03-27T14:12:18Z</time>
      </trkpt>
      <trkpt lat="44.22107" lon="5.58628">
        <ele>749</ele>
        <time>2019-03-27T14:12:19Z</time>
      </trkpt>
      <trkpt lat="44.22107" lon="5.58622">
        <ele>749</ele>
        <time>2019-03-27T14:12:20Z</time>
      </trkpt>
      <trkpt lat="44.22107" lon="5.58615">
        <ele>749</ele>
        <time>2019-03-27T14:12:21Z</time>
      </trkpt>
      <trkpt lat="44.22106" lon="5.58608">
        <ele>750</ele>
        <time>2019-03-27T14:12:22Z</time>
      </trkpt>
      <trkpt lat="44.22106" lon="5.58602">
        <ele>750</ele>
        <time>2019-03-27T14:12:23Z</time>
      </trkpt>
      <trkpt lat="44.22106" lon="5.58595">
        <ele>750</ele>
        <time>2019-03-27T14:12:24Z</time>
      </trkpt>
      <trkpt lat="44.22106" lon="5.58588">
        <ele>750</ele>
        <time>2019-03-27T14:12:25Z</time>
      </trkpt>
      <trkpt lat="44.22106" lon="5.5858">
        <ele>750</ele>
        <time>2019-03-27T14:12:26Z</time>
      </trkpt>
      <trkpt lat="44.22106" lon="5.58573">
        <ele>750</ele>
        <time>2019-03-27T14:12:27Z</time>
      </trkpt>
      <trkpt lat="44.22106" lon="5.58567">
        <ele>751</ele>
        <time>2019-03-27T14:12:28Z</time>
      </trkpt>
      <trkpt lat="44.22106" lon="5.5856">
        <ele>751</ele>
        <time>2019-03-27T14:12:29Z</time>
      </trkpt>
      <trkpt lat="44.22106" lon="5.58553">
        <ele>751</ele>
        <time>2019-03-27T14:12:30Z</time>
      </trkpt>
      <trkpt lat="44.22106" lon="5.58546">
        <ele>751</ele>
        <time>2019-03-27T14:12:31Z</time>
      </trkpt>
      <trkpt lat="44.22106" lon="5.58539">
        <ele>751</ele>
        <time>2019-03-27T14:12:32Z</time>
      </trkpt>
      <trkpt lat="44.22105" lon="5.58532">
        <ele>751</ele>
        <time>2019-03-27T14:12:33Z</time>
      </trkpt>
      <trkpt lat="44.22105" lon="5.58526">
        <ele>751</ele>
        <time>2019-03-27T14:12:34Z</time>
      </trkpt>
      <trkpt lat="44.22105" lon="5.58519">
        <ele>751</ele>
        <time>2019-03-27T14:12:35Z</time>
      </trkpt>
      <trkpt lat="44.22105" lon="5.58512">
        <ele>751</ele>
        <time>2019-03-27T14:12:36Z</time>
      </trkpt>
      <trkpt lat="44.22105" lon="5.58505">
        <ele>752</ele>
        <time>2019-03-27T14:12:37Z</time>
      </trkpt>
      <trkpt lat="44.22105" lon="5.58498">
        <ele>752</ele>
        <time>2019-03-27T14:12:38Z</time>
      </trkpt>
      <trkpt lat="44.22105" lon="5.58491">
        <ele>752</ele>
        <time>2019-03-27T14:12:39Z</time>
      </trkpt>
      <trkpt lat="44.22105" lon="5.58484">
        <ele>752</ele>
        <time>2019-03-27T14:12:40Z</time>
      </trkpt>
      <trkpt lat="44.22105" lon="5.58476">
        <ele>752</ele>
        <time>2019-03-27T14:12:41Z</time>
      </trkpt>
      <trkpt lat="44.22105" lon="5.58469">
        <ele>752</ele>
        <time>2019-03-27T14:12:42Z</time>
      </trkpt>
      <trkpt lat="44.22104" lon="5.58461">
        <ele>752</ele>
        <time>2019-03-27T14:12:43Z</time>
      </trkpt>
      <trkpt lat="44.22104" lon="5.58454">
        <ele>752</ele>
        <time>2019-03-27T14:12:44Z</time>
      </trkpt>
      <trkpt lat="44.22105" lon="5.58447">
        <ele>752</ele>
        <time>2019-03-27T14:12:45Z</time>
      </trkpt>
      <trkpt lat="44.22105" lon="5.58441">
        <ele>753</ele>
        <time>2019-03-27T14:12:46Z</time>
      </trkpt>
      <trkpt lat="44.22104" lon="5.58434">
        <ele>753</ele>
        <time>2019-03-27T14:12:47Z</time>
      </trkpt>
      <trkpt lat="44.22104" lon="5.58427">
        <ele>753</ele>
        <time>2019-03-27T14:12:48Z</time>
      </trkpt>
      <trkpt lat="44.22104" lon="5.5842">
        <ele>753</ele>
        <time>2019-03-27T14:12:49Z</time>
      </trkpt>
      <trkpt lat="44.22104" lon="5.58413">
        <ele>753</ele>
        <time>2019-03-27T14:12:50Z</time>
      </trkpt>
      <trkpt lat="44.22104" lon="5.58406">
        <ele>753</ele>
        <time>2019-03-27T14:12:51Z</time>
      </trkpt>
      <trkpt lat="44.22104" lon="5.584">
        <ele>753</ele>
        <time>2019-03-27T14:12:52Z</time>
      </trkpt>
      <trkpt lat="44.22103" lon="5.58393">
        <ele>753</ele>
        <time>2019-03-27T14:12:53Z</time>
      </trkpt>
      <trkpt lat="44.22103" lon="5.58387">
        <ele>753</ele>
        <time>2019-03-27T14:12:54Z</time>
      </trkpt>
      <trkpt lat="44.22103" lon="5.5838">
        <ele>753</ele>
        <time>2019-03-27T14:12:55Z</time>
      </trkpt>
      <trkpt lat="44.22103" lon="5.58373">
        <ele>753</ele>
        <time>2019-03-27T14:12:56Z</time>
      </trkpt>
      <trkpt lat="44.22103" lon="5.58366">
        <ele>753</ele>
        <time>2019-03-27T14:12:57Z</time>
      </trkpt>
      <trkpt lat="44.22103" lon="5.58359">
        <ele>753</ele>
        <time>2019-03-27T14:12:58Z</time>
      </trkpt>
      <trkpt lat="44.22103" lon="5.58353">
        <ele>754</ele>
        <time>2019-03-27T14:12:59Z</time>
      </trkpt>
      <trkpt lat="44.22103" lon="5.58346">
        <ele>754</ele>
        <time>2019-03-27T14:13:00Z</time>
      </trkpt>
      <trkpt lat="44.22102" lon="5.58339">
        <ele>754</ele>
        <time>2019-03-27T14:13:01Z</time>
      </trkpt>
      <trkpt lat="44.22102" lon="5.58332">
        <ele>754</ele>
        <time>2019-03-27T14:13:02Z</time>
      </trkpt>
      <trkpt lat="44.22102" lon="5.58325">
        <ele>754</ele>
        <time>2019-03-27T14:13:03Z</time>
      </trkpt>
      <trkpt lat="44.22102" lon="5.58318">
        <ele>754</ele>
        <time>2019-03-27T14:13:04Z</time>
      </trkpt>
      <trkpt lat="44.22102" lon="5.58311">
        <ele>754</ele>
        <time>2019-03-27T14:13:05Z</time>
      </trkpt>
      <trkpt lat="44.22102" lon="5.58303">
        <ele>754</ele>
        <time>2019-03-27T14:13:06Z</time>
      </trkpt>
      <trkpt lat="44.22102" lon="5.58295">
        <ele>754</ele>
        <time>2019-03-27T14:13:07Z</time>
      </trkpt>
      <trkpt lat="44.22102" lon="5.58288">
        <ele>754</ele>
        <time>2019-03-27T14:13:08Z</time>
      </trkpt>
      <trkpt lat="44.22102" lon="5.5828">
        <ele>754</ele>
        <time>2019-03-27T14:13:09Z</time>
      </trkpt>
      <trkpt lat="44.22102" lon="5.58272">
        <ele>754</ele>
        <time>2019-03-27T14:13:10Z</time>
      </trkpt>
      <trkpt lat="44.22102" lon="5.58264">
        <ele>754</ele>
        <time>2019-03-27T14:13:11Z</time>
      </trkpt>
      <trkpt lat="44.22102" lon="5.58256">
        <ele>754</ele>
        <time>2019-03-27T14:13:12Z</time>
      </trkpt>
      <trkpt lat="44.22102" lon="5.58249">
        <ele>754</ele>
        <time>2019-03-27T14:13:13Z</time>
      </trkpt>
      <trkpt lat="44.22103" lon="5.58241">
        <ele>754</ele>
        <time>2019-03-27T14:13:14Z</time>
      </trkpt>
      <trkpt lat="44.22103" lon="5.58232">
        <ele>754</ele>
        <time>2019-03-27T14:13:15Z</time>
      </trkpt>
      <trkpt lat="44.22104" lon="5.58224">
        <ele>754</ele>
        <time>2019-03-27T14:13:16Z</time>
      </trkpt>
      <trkpt lat="44.22105" lon="5.58216">
        <ele>754</ele>
        <time>2019-03-27T14:13:17Z</time>
      </trkpt>
      <trkpt lat="44.22106" lon="5.58208">
        <ele>754</ele>
        <time>2019-03-27T14:13:18Z</time>
      </trkpt>
      <trkpt lat="44.22107" lon="5.582">
        <ele>754</ele>
        <time>2019-03-27T14:13:19Z</time>
      </trkpt>
      <trkpt lat="44.22108" lon="5.58191">
        <ele>754</ele>
        <time>2019-03-27T14:13:20Z</time>
      </trkpt>
      <trkpt lat="44.22108" lon="5.58183">
        <ele>754</ele>
        <time>2019-03-27T14:13:21Z</time>
      </trkpt>
      <trkpt lat="44.2211" lon="5.58175">
        <ele>754</ele>
        <time>2019-03-27T14:13:22Z</time>
      </trkpt>
      <trkpt lat="44.22111" lon="5.58167">
        <ele>754</ele>
        <time>2019-03-27T14:13:23Z</time>
      </trkpt>
      <trkpt lat="44.22112" lon="5.58159">
        <ele>754</ele>
        <time>2019-03-27T14:13:24Z</time>
      </trkpt>
      <trkpt lat="44.22113" lon="5.5815">
        <ele>754</ele>
        <time>2019-03-27T14:13:25Z</time>
      </trkpt>
      <trkpt lat="44.22114" lon="5.58142">
        <ele>754</ele>
        <time>2019-03-27T14:13:26Z</time>
      </trkpt>
      <trkpt lat="44.22115" lon="5.58134">
        <ele>754</ele>
        <time>2019-03-27T14:13:27Z</time>
      </trkpt>
      <trkpt lat="44.22115" lon="5.58126">
        <ele>754</ele>
        <time>2019-03-27T14:13:28Z</time>
      </trkpt>
      <trkpt lat="44.22116" lon="5.58118">
        <ele>754</ele>
        <time>2019-03-27T14:13:29Z</time>
      </trkpt>
      <trkpt lat="44.22118" lon="5.5811">
        <ele>754</ele>
        <time>2019-03-27T14:13:30Z</time>
      </trkpt>
      <trkpt lat="44.22118" lon="5.58102">
        <ele>754</ele>
        <time>2019-03-27T14:13:31Z</time>
      </trkpt>
      <trkpt lat="44.22119" lon="5.58094">
        <ele>754</ele>
        <time>2019-03-27T14:13:32Z</time>
      </trkpt>
      <trkpt lat="44.2212" lon="5.58085">
        <ele>754</ele>
        <time>2019-03-27T14:13:33Z</time>
      </trkpt>
      <trkpt lat="44.22121" lon="5.58077">
        <ele>754</ele>
        <time>2019-03-27T14:13:34Z</time>
      </trkpt>
      <trkpt lat="44.22122" lon="5.58069">
        <ele>754</ele>
        <time>2019-03-27T14:13:35Z</time>
      </trkpt>
      <trkpt lat="44.22122" lon="5.5806">
        <ele>754</ele>
        <time>2019-03-27T14:13:36Z</time>
      </trkpt>
      <trkpt lat="44.22123" lon="5.58052">
        <ele>754</ele>
        <time>2019-03-27T14:13:37Z</time>
      </trkpt>
      <trkpt lat="44.22124" lon="5.58043">
        <ele>754</ele>
        <time>2019-03-27T14:13:38Z</time>
      </trkpt>
      <trkpt lat="44.22125" lon="5.58035">
        <ele>754</ele>
        <time>2019-03-27T14:13:39Z</time>
      </trkpt>
      <trkpt lat="44.22126" lon="5.58026">
        <ele>754</ele>
        <time>2019-03-27T14:13:40Z</time>
      </trkpt>
      <trkpt lat="44.22127" lon="5.58018">
        <ele>754</ele>
        <time>2019-03-27T14:13:41Z</time>
      </trkpt>
      <trkpt lat="44.22128" lon="5.58009">
        <ele>754</ele>
        <time>2019-03-27T14:13:42Z</time>
      </trkpt>
      <trkpt lat="44.22129" lon="5.58001">
        <ele>754</ele>
        <time>2019-03-27T14:13:43Z</time>
      </trkpt>
      <trkpt lat="44.2213" lon="5.57992">
        <ele>754</ele>
        <time>2019-03-27T14:13:44Z</time>
      </trkpt>
      <trkpt lat="44.22131" lon="5.57984">
        <ele>754</ele>
        <time>2019-03-27T14:13:45Z</time>
      </trkpt>
      <trkpt lat="44.22132" lon="5.57975">
        <ele>754</ele>
        <time>2019-03-27T14:13:46Z</time>
      </trkpt>
      <trkpt lat="44.22132" lon="5.57967">
        <ele>754</ele>
        <time>2019-03-27T14:13:47Z</time>
      </trkpt>
      <trkpt lat="44.22133" lon="5.57959">
        <ele>754</ele>
        <time>2019-03-27T14:13:48Z</time>
      </trkpt>
      <trkpt lat="44.22134" lon="5.5795">
        <ele>754</ele>
        <time>2019-03-27T14:13:49Z</time>
      </trkpt>
      <trkpt lat="44.22135" lon="5.57942">
        <ele>754</ele>
        <time>2019-03-27T14:13:50Z</time>
      </trkpt>
      <trkpt lat="44.22136" lon="5.57933">
        <ele>754</ele>
        <time>2019-03-27T14:13:51Z</time>
      </trkpt>
      <trkpt lat="44.22137" lon="5.57925">
        <ele>754</ele>
        <time>2019-03-27T14:13:52Z</time>
      </trkpt>
      <trkpt lat="44.22138" lon="5.57916">
        <ele>754</ele>
        <time>2019-03-27T14:13:53Z</time>
      </trkpt>
      <trkpt lat="44.22139" lon="5.57908">
        <ele>754</ele>
        <time>2019-03-27T14:13:54Z</time>
      </trkpt>
      <trkpt lat="44.2214" lon="5.579">
        <ele>754</ele>
        <time>2019-03-27T14:13:55Z</time>
      </trkpt>
      <trkpt lat="44.22141" lon="5.57892">
        <ele>754</ele>
        <time>2019-03-27T14:13:56Z</time>
      </trkpt>
      <trkpt lat="44.22142" lon="5.57883">
        <ele>754</ele>
        <time>2019-03-27T14:13:57Z</time>
      </trkpt>
      <trkpt lat="44.22142" lon="5.57875">
        <ele>754</ele>
        <time>2019-03-27T14:13:58Z</time>
      </trkpt>
      <trkpt lat="44.22143" lon="5.57867">
        <ele>754</ele>
        <time>2019-03-27T14:13:59Z</time>
      </trkpt>
      <trkpt lat="44.22144" lon="5.57859">
        <ele>753</ele>
        <time>2019-03-27T14:14:00Z</time>
      </trkpt>
      <trkpt lat="44.22145" lon="5.57852">
        <ele>753</ele>
        <time>2019-03-27T14:14:01Z</time>
      </trkpt>
      <trkpt lat="44.22146" lon="5.57844">
        <ele>753</ele>
        <time>2019-03-27T14:14:02Z</time>
      </trkpt>
      <trkpt lat="44.22147" lon="5.57836">
        <ele>753</ele>
        <time>2019-03-27T14:14:03Z</time>
      </trkpt>
      <trkpt lat="44.22147" lon="5.57829">
        <ele>753</ele>
        <time>2019-03-27T14:14:04Z</time>
      </trkpt>
      <trkpt lat="44.22148" lon="5.57821">
        <ele>753</ele>
        <time>2019-03-27T14:14:05Z</time>
      </trkpt>
      <trkpt lat="44.22148" lon="5.57814">
        <ele>753</ele>
        <time>2019-03-27T14:14:06Z</time>
      </trkpt>
      <trkpt lat="44.22148" lon="5.57806">
        <ele>753</ele>
        <time>2019-03-27T14:14:07Z</time>
      </trkpt>
      <trkpt lat="44.22148" lon="5.57798">
        <ele>753</ele>
        <time>2019-03-27T14:14:08Z</time>
      </trkpt>
      <trkpt lat="44.22148" lon="5.5779">
        <ele>753</ele>
        <time>2019-03-27T14:14:09Z</time>
      </trkpt>
      <trkpt lat="44.22148" lon="5.57782">
        <ele>753</ele>
        <time>2019-03-27T14:14:10Z</time>
      </trkpt>
      <trkpt lat="44.22148" lon="5.57774">
        <ele>753</ele>
        <time>2019-03-27T14:14:11Z</time>
      </trkpt>
      <trkpt lat="44.22148" lon="5.57766">
        <ele>753</ele>
        <time>2019-03-27T14:14:12Z</time>
      </trkpt>
      <trkpt lat="44.22148" lon="5.57759">
        <ele>753</ele>
        <time>2019-03-27T14:14:13Z</time>
      </trkpt>
      <trkpt lat="44.22148" lon="5.57751">
        <ele>753</ele>
        <time>2019-03-27T14:14:14Z</time>
      </trkpt>
      <trkpt lat="44.22147" lon="5.57742">
        <ele>753</ele>
        <time>2019-03-27T14:14:15Z</time>
      </trkpt>
      <trkpt lat="44.22147" lon="5.57734">
        <ele>753</ele>
        <time>2019-03-27T14:14:16Z</time>
      </trkpt>
      <trkpt lat="44.22147" lon="5.57726">
        <ele>753</ele>
        <time>2019-03-27T14:14:17Z</time>
      </trkpt>
      <trkpt lat="44.22146" lon="5.57719">
        <ele>753</ele>
        <time>2019-03-27T14:14:18Z</time>
      </trkpt>
      <trkpt lat="44.22146" lon="5.57712">
        <ele>753</ele>
        <time>2019-03-27T14:14:19Z</time>
      </trkpt>
      <trkpt lat="44.22145" lon="5.57704">
        <ele>753</ele>
        <time>2019-03-27T14:14:20Z</time>
      </trkpt>
      <trkpt lat="44.22145" lon="5.57697">
        <ele>753</ele>
        <time>2019-03-27T14:14:21Z</time>
      </trkpt>
      <trkpt lat="44.22145" lon="5.5769">
        <ele>753</ele>
        <time>2019-03-27T14:14:22Z</time>
      </trkpt>
      <trkpt lat="44.22144" lon="5.57683">
        <ele>753</ele>
        <time>2019-03-27T14:14:23Z</time>
      </trkpt>
      <trkpt lat="44.22144" lon="5.57676">
        <ele>753</ele>
        <time>2019-03-27T14:14:24Z</time>
      </trkpt>
      <trkpt lat="44.22144" lon="5.57669">
        <ele>753</ele>
        <time>2019-03-27T14:14:25Z</time>
      </trkpt>
      <trkpt lat="44.22144" lon="5.57662">
        <ele>753</ele>
        <time>2019-03-27T14:14:26Z</time>
      </trkpt>
      <trkpt lat="44.22144" lon="5.57656">
        <ele>753</ele>
        <time>2019-03-27T14:14:27Z</time>
      </trkpt>
      <trkpt lat="44.22143" lon="5.57649">
        <ele>753</ele>
        <time>2019-03-27T14:14:28Z</time>
      </trkpt>
      <trkpt lat="44.22143" lon="5.57643">
        <ele>753</ele>
        <time>2019-03-27T14:14:29Z</time>
      </trkpt>
      <trkpt lat="44.22142" lon="5.57636">
        <ele>753</ele>
        <time>2019-03-27T14:14:30Z</time>
      </trkpt>
      <trkpt lat="44.22142" lon="5.5763">
        <ele>753</ele>
        <time>2019-03-27T14:14:31Z</time>
      </trkpt>
      <trkpt lat="44.22142" lon="5.57623">
        <ele>753</ele>
        <time>2019-03-27T14:14:32Z</time>
      </trkpt>
      <trkpt lat="44.22142" lon="5.57617">
        <ele>753</ele>
        <time>2019-03-27T14:14:33Z</time>
      </trkpt>
      <trkpt lat="44.22142" lon="5.57611">
        <ele>753</ele>
        <time>2019-03-27T14:14:34Z</time>
      </trkpt>
      <trkpt lat="44.22142" lon="5.57604">
        <ele>753</ele>
        <time>2019-03-27T14:14:35Z</time>
      </trkpt>
      <trkpt lat="44.22142" lon="5.57598">
        <ele>753</ele>
        <time>2019-03-27T14:14:36Z</time>
      </trkpt>
      <trkpt lat="44.22142" lon="5.57592">
        <ele>753</ele>
        <time>2019-03-27T14:14:37Z</time>
      </trkpt>
      <trkpt lat="44.22141" lon="5.57585">
        <ele>753</ele>
        <time>2019-03-27T14:14:38Z</time>
      </trkpt>
      <trkpt lat="44.22141" lon="5.5758">
        <ele>753</ele>
        <time>2019-03-27T14:14:39Z</time>
      </trkpt>
      <trkpt lat="44.22141" lon="5.57573">
        <ele>753</ele>
        <time>2019-03-27T14:14:40Z</time>
      </trkpt>
      <trkpt lat="44.22141" lon="5.57567">
        <ele>753</ele>
        <time>2019-03-27T14:14:41Z</time>
      </trkpt>
      <trkpt lat="44.22141" lon="5.57561">
        <ele>753</ele>
        <time>2019-03-27T14:14:42Z</time>
      </trkpt>
      <trkpt lat="44.2214" lon="5.57554">
        <ele>753</ele>
        <time>2019-03-27T14:14:43Z</time>
      </trkpt>
      <trkpt lat="44.2214" lon="5.57548">
        <ele>753</ele>
        <time>2019-03-27T14:14:44Z</time>
      </trkpt>
      <trkpt lat="44.2214" lon="5.57542">
        <ele>753</ele>
        <time>2019-03-27T14:14:45Z</time>
      </trkpt>
      <trkpt lat="44.2214" lon="5.57536">
        <ele>753</ele>
        <time>2019-03-27T14:14:46Z</time>
      </trkpt>
      <trkpt lat="44.22139" lon="5.5753">
        <ele>753</ele>
        <time>2019-03-27T14:14:47Z</time>
      </trkpt>
      <trkpt lat="44.22139" lon="5.57523">
        <ele>753</ele>
        <time>2019-03-27T14:14:48Z</time>
      </trkpt>
      <trkpt lat="44.22139" lon="5.57517">
        <ele>753</ele>
        <time>2019-03-27T14:14:49Z</time>
      </trkpt>
      <trkpt lat="44.22139" lon="5.57511">
        <ele>753</ele>
        <time>2019-03-27T14:14:50Z</time>
      </trkpt>
      <trkpt lat="44.22139" lon="5.57505">
        <ele>753</ele>
        <time>2019-03-27T14:14:51Z</time>
      </trkpt>
      <trkpt lat="44.22139" lon="5.57499">
        <ele>753</ele>
        <time>2019-03-27T14:14:52Z</time>
      </trkpt>
      <trkpt lat="44.22139" lon="5.57492">
        <ele>753</ele>
        <time>2019-03-27T14:14:53Z</time>
      </trkpt>
      <trkpt lat="44.22138" lon="5.57486">
        <ele>753</ele>
        <time>2019-03-27T14:14:54Z</time>
      </trkpt>
      <trkpt lat="44.22138" lon="5.5748">
        <ele>753</ele>
        <time>2019-03-27T14:14:55Z</time>
      </trkpt>
      <trkpt lat="44.22138" lon="5.57474">
        <ele>753</ele>
        <time>2019-03-27T14:14:56Z</time>
      </trkpt>
      <trkpt lat="44.22137" lon="5.57468">
        <ele>753</ele>
        <time>2019-03-27T14:14:57Z</time>
      </trkpt>
      <trkpt lat="44.22137" lon="5.57461">
        <ele>753</ele>
        <time>2019-03-27T14:14:58Z</time>
      </trkpt>
      <trkpt lat="44.22137" lon="5.57455">
        <ele>753</ele>
        <time>2019-03-27T14:14:59Z</time>
      </trkpt>
      <trkpt lat="44.22137" lon="5.57448">
        <ele>753</ele>
        <time>2019-03-27T14:15:00Z</time>
      </trkpt>
      <trkpt lat="44.22137" lon="5.57442">
        <ele>753</ele>
        <time>2019-03-27T14:15:01Z</time>
      </trkpt>
      <trkpt lat="44.22137" lon="5.57435">
        <ele>753</ele>
        <time>2019-03-27T14:15:02Z</time>
      </trkpt>
      <trkpt lat="44.22137" lon="5.57429">
        <ele>753</ele>
        <time>2019-03-27T14:15:03Z</time>
      </trkpt>
      <trkpt lat="44.22137" lon="5.57422">
        <ele>753</ele>
        <time>2019-03-27T14:15:04Z</time>
      </trkpt>
      <trkpt lat="44.22137" lon="5.57415">
        <ele>753</ele>
        <time>2019-03-27T14:15:05Z</time>
      </trkpt>
      <trkpt lat="44.22136" lon="5.57408">
        <ele>753</ele>
        <time>2019-03-27T14:15:06Z</time>
      </trkpt>
      <trkpt lat="44.22136" lon="5.57401">
        <ele>753</ele>
        <time>2019-03-27T14:15:07Z</time>
      </trkpt>
      <trkpt lat="44.22136" lon="5.57394">
        <ele>753</ele>
        <time>2019-03-27T14:15:08Z</time>
      </trkpt>
      <trkpt lat="44.22135" lon="5.57387">
        <ele>753</ele>
        <time>2019-03-27T14:15:09Z</time>
      </trkpt>
      <trkpt lat="44.22135" lon="5.5738">
        <ele>753</ele>
        <time>2019-03-27T14:15:10Z</time>
      </trkpt>
      <trkpt lat="44.22135" lon="5.57373">
        <ele>753</ele>
        <time>2019-03-27T14:15:11Z</time>
      </trkpt>
      <trkpt lat="44.22135" lon="5.57366">
        <ele>753</ele>
        <time>2019-03-27T14:15:12Z</time>
      </trkpt>
      <trkpt lat="44.22134" lon="5.57359">
        <ele>753</ele>
        <time>2019-03-27T14:15:13Z</time>
      </trkpt>
      <trkpt lat="44.22134" lon="5.57352">
        <ele>753</ele>
        <time>2019-03-27T14:15:14Z</time>
      </trkpt>
      <trkpt lat="44.22134" lon="5.57345">
        <ele>753</ele>
        <time>2019-03-27T14:15:15Z</time>
      </trkpt>
      <trkpt lat="44.22134" lon="5.57338">
        <ele>753</ele>
        <time>2019-03-27T14:15:16Z</time>
      </trkpt>
      <trkpt lat="44.22134" lon="5.57332">
        <ele>753</ele>
        <time>2019-03-27T14:15:17Z</time>
      </trkpt>
      <trkpt lat="44.22134" lon="5.57325">
        <ele>753</ele>
        <time>2019-03-27T14:15:18Z</time>
      </trkpt>
      <trkpt lat="44.22134" lon="5.57318">
        <ele>753</ele>
        <time>2019-03-27T14:15:19Z</time>
      </trkpt>
      <trkpt lat="44.22133" lon="5.57311">
        <ele>753</ele>
        <time>2019-03-27T14:15:20Z</time>
      </trkpt>
      <trkpt lat="44.22133" lon="5.57304">
        <ele>753</ele>
        <time>2019-03-27T14:15:21Z</time>
      </trkpt>
      <trkpt lat="44.22133" lon="5.57297">
        <ele>753</ele>
        <time>2019-03-27T14:15:22Z</time>
      </trkpt>
      <trkpt lat="44.22133" lon="5.5729">
        <ele>753</ele>
        <time>2019-03-27T14:15:23Z</time>
      </trkpt>
      <trkpt lat="44.22132" lon="5.57282">
        <ele>753</ele>
        <time>2019-03-27T14:15:24Z</time>
      </trkpt>
      <trkpt lat="44.22132" lon="5.57275">
        <ele>753</ele>
        <time>2019-03-27T14:15:25Z</time>
      </trkpt>
      <trkpt lat="44.22132" lon="5.57267">
        <ele>753</ele>
        <time>2019-03-27T14:15:26Z</time>
      </trkpt>
      <trkpt lat="44.22132" lon="5.57259">
        <ele>753</ele>
        <time>2019-03-27T14:15:27Z</time>
      </trkpt>
      <trkpt lat="44.22132" lon="5.57251">
        <ele>753</ele>
        <time>2019-03-27T14:15:28Z</time>
      </trkpt>
      <trkpt lat="44.22131" lon="5.57243">
        <ele>753</ele>
        <time>2019-03-27T14:15:29Z</time>
      </trkpt>
      <trkpt lat="44.22131" lon="5.57236">
        <ele>753</ele>
        <time>2019-03-27T14:15:30Z</time>
      </trkpt>
      <trkpt lat="44.22131" lon="5.57228">
        <ele>753</ele>
        <time>2019-03-27T14:15:31Z</time>
      </trkpt>
      <trkpt lat="44.2213" lon="5.5722">
        <ele>753</ele>
        <time>2019-03-27T14:15:32Z</time>
      </trkpt>
      <trkpt lat="44.2213" lon="5.57211">
        <ele>754</ele>
        <time>2019-03-27T14:15:33Z</time>
      </trkpt>
      <trkpt lat="44.22129" lon="5.57203">
        <ele>754</ele>
        <time>2019-03-27T14:15:34Z</time>
      </trkpt>
      <trkpt lat="44.22129" lon="5.57194">
        <ele>754</ele>
        <time>2019-03-27T14:15:35Z</time>
      </trkpt>
      <trkpt lat="44.22129" lon="5.57186">
        <ele>754</ele>
        <time>2019-03-27T14:15:36Z</time>
      </trkpt>
      <trkpt lat="44.22129" lon="5.57177">
        <ele>754</ele>
        <time>2019-03-27T14:15:37Z</time>
      </trkpt>
      <trkpt lat="44.22129" lon="5.57168">
        <ele>754</ele>
        <time>2019-03-27T14:15:38Z</time>
      </trkpt>
      <trkpt lat="44.22129" lon="5.57159">
        <ele>754</ele>
        <time>2019-03-27T14:15:39Z</time>
      </trkpt>
      <trkpt lat="44.22129" lon="5.5715">
        <ele>754</ele>
        <time>2019-03-27T14:15:40Z</time>
      </trkpt>
      <trkpt lat="44.22129" lon="5.57141">
        <ele>754</ele>
        <time>2019-03-27T14:15:41Z</time>
      </trkpt>
      <trkpt lat="44.22129" lon="5.57133">
        <ele>754</ele>
        <time>2019-03-27T14:15:42Z</time>
      </trkpt>
      <trkpt lat="44.22129" lon="5.57124">
        <ele>754</ele>
        <time>2019-03-27T14:15:43Z</time>
      </trkpt>
      <trkpt lat="44.22128" lon="5.57116">
        <ele>754</ele>
        <time>2019-03-27T14:15:44Z</time>
      </trkpt>
      <trkpt lat="44.22128" lon="5.57107">
        <ele>754</ele>
        <time>2019-03-27T14:15:45Z</time>
      </trkpt>
      <trkpt lat="44.22128" lon="5.57099">
        <ele>754</ele>
        <time>2019-03-27T14:15:46Z</time>
      </trkpt>
      <trkpt lat="44.22128" lon="5.57091">
        <ele>754</ele>
        <time>2019-03-27T14:15:47Z</time>
      </trkpt>
      <trkpt lat="44.22127" lon="5.57082">
        <ele>755</ele>
        <time>2019-03-27T14:15:48Z</time>
      </trkpt>
      <trkpt lat="44.22127" lon="5.57074">
        <ele>755</ele>
        <time>2019-03-27T14:15:49Z</time>
      </trkpt>
      <trkpt lat="44.22127" lon="5.57065">
        <ele>755</ele>
        <time>2019-03-27T14:15:50Z</time>
      </trkpt>
      <trkpt lat="44.22127" lon="5.57057">
        <ele>755</ele>
        <time>2019-03-27T14:15:51Z</time>
      </trkpt>
      <trkpt lat="44.22127" lon="5.57049">
        <ele>755</ele>
        <time>2019-03-27T14:15:52Z</time>
      </trkpt>
      <trkpt lat="44.22127" lon="5.5704">
        <ele>755</ele>
        <time>2019-03-27T14:15:53Z</time>
      </trkpt>
      <trkpt lat="44.22126" lon="5.57032">
        <ele>755</ele>
        <time>2019-03-27T14:15:54Z</time>
      </trkpt>
      <trkpt lat="44.22126" lon="5.57023">
        <ele>755</ele>
        <time>2019-03-27T14:15:55Z</time>
      </trkpt>
      <trkpt lat="44.22126" lon="5.57015">
        <ele>755</ele>
        <time>2019-03-27T14:15:56Z</time>
      </trkpt>
      <trkpt lat="44.22126" lon="5.57007">
        <ele>755</ele>
        <time>2019-03-27T14:15:57Z</time>
      </trkpt>
      <trkpt lat="44.22126" lon="5.56998">
        <ele>755</ele>
        <time>2019-03-27T14:15:58Z</time>
      </trkpt>
      <trkpt lat="44.22125" lon="5.5699">
        <ele>756</ele>
        <time>2019-03-27T14:15:59Z</time>
      </trkpt>
      <trkpt lat="44.22125" lon="5.56982">
        <ele>756</ele>
        <time>2019-03-27T14:16:00Z</time>
      </trkpt>
      <trkpt lat="44.22125" lon="5.56973">
        <ele>756</ele>
        <time>2019-03-27T14:16:01Z</time>
      </trkpt>
      <trkpt lat="44.22125" lon="5.56964">
        <ele>756</ele>
        <time>2019-03-27T14:16:02Z</time>
      </trkpt>
      <trkpt lat="44.22124" lon="5.56956">
        <ele>756</ele>
        <time>2019-03-27T14:16:03Z</time>
      </trkpt>
      <trkpt lat="44.22124" lon="5.56948">
        <ele>756</ele>
        <time>2019-03-27T14:16:04Z</time>
      </trkpt>
      <trkpt lat="44.22124" lon="5.56939">
        <ele>756</ele>
        <time>2019-03-27T14:16:05Z</time>
      </trkpt>
      <trkpt lat="44.22124" lon="5.5693">
        <ele>757</ele>
        <time>2019-03-27T14:16:06Z</time>
      </trkpt>
      <trkpt lat="44.22123" lon="5.56922">
        <ele>757</ele>
        <time>2019-03-27T14:16:07Z</time>
      </trkpt>
      <trkpt lat="44.22123" lon="5.56914">
        <ele>757</ele>
        <time>2019-03-27T14:16:08Z</time>
      </trkpt>
      <trkpt lat="44.22123" lon="5.56905">
        <ele>757</ele>
        <time>2019-03-27T14:16:09Z</time>
      </trkpt>
      <trkpt lat="44.22123" lon="5.56896">
        <ele>757</ele>
        <time>2019-03-27T14:16:10Z</time>
      </trkpt>
      <trkpt lat="44.22123" lon="5.56888">
        <ele>758</ele>
        <time>2019-03-27T14:16:11Z</time>
      </trkpt>
      <trkpt lat="44.22122" lon="5.5688">
        <ele>758</ele>
        <time>2019-03-27T14:16:12Z</time>
      </trkpt>
      <trkpt lat="44.22122" lon="5.56871">
        <ele>758</ele>
        <time>2019-03-27T14:16:13Z</time>
      </trkpt>
      <trkpt lat="44.22122" lon="5.56862">
        <ele>758</ele>
        <time>2019-03-27T14:16:14Z</time>
      </trkpt>
      <trkpt lat="44.22121" lon="5.56854">
        <ele>758</ele>
        <time>2019-03-27T14:16:15Z</time>
      </trkpt>
      <trkpt lat="44.22121" lon="5.56846">
        <ele>758</ele>
        <time>2019-03-27T14:16:16Z</time>
      </trkpt>
      <trkpt lat="44.22121" lon="5.56837">
        <ele>758</ele>
        <time>2019-03-27T14:16:17Z</time>
      </trkpt>
      <trkpt lat="44.22121" lon="5.56828">
        <ele>759</ele>
        <time>2019-03-27T14:16:18Z</time>
      </trkpt>
      <trkpt lat="44.22121" lon="5.5682">
        <ele>759</ele>
        <time>2019-03-27T14:16:19Z</time>
      </trkpt>
      <trkpt lat="44.2212" lon="5.56811">
        <ele>759</ele>
        <time>2019-03-27T14:16:20Z</time>
      </trkpt>
      <trkpt lat="44.2212" lon="5.56803">
        <ele>759</ele>
        <time>2019-03-27T14:16:21Z</time>
      </trkpt>
      <trkpt lat="44.2212" lon="5.56794">
        <ele>759</ele>
        <time>2019-03-27T14:16:22Z</time>
      </trkpt>
      <trkpt lat="44.2212" lon="5.56785">
        <ele>759</ele>
        <time>2019-03-27T14:16:23Z</time>
      </trkpt>
      <trkpt lat="44.22119" lon="5.56776">
        <ele>759</ele>
        <time>2019-03-27T14:16:24Z</time>
      </trkpt>
      <trkpt lat="44.22119" lon="5.56768">
        <ele>759</ele>
        <time>2019-03-27T14:16:25Z</time>
      </trkpt>
      <trkpt lat="44.22119" lon="5.56759">
        <ele>759</ele>
        <time>2019-03-27T14:16:26Z</time>
      </trkpt>
      <trkpt lat="44.22118" lon="5.5675">
        <ele>759</ele>
        <time>2019-03-27T14:16:27Z</time>
      </trkpt>
      <trkpt lat="44.22118" lon="5.56742">
        <ele>759</ele>
        <time>2019-03-27T14:16:28Z</time>
      </trkpt>
      <trkpt lat="44.22118" lon="5.56734">
        <ele>759</ele>
        <time>2019-03-27T14:16:29Z</time>
      </trkpt>
      <trkpt lat="44.22118" lon="5.56725">
        <ele>760</ele>
        <time>2019-03-27T14:16:30Z</time>
      </trkpt>
      <trkpt lat="44.22118" lon="5.56717">
        <ele>760</ele>
        <time>2019-03-27T14:16:31Z</time>
      </trkpt>
      <trkpt lat="44.22118" lon="5.56709">
        <ele>760</ele>
        <time>2019-03-27T14:16:32Z</time>
      </trkpt>
      <trkpt lat="44.22117" lon="5.56701">
        <ele>760</ele>
        <time>2019-03-27T14:16:33Z</time>
      </trkpt>
      <trkpt lat="44.22117" lon="5.56692">
        <ele>760</ele>
        <time>2019-03-27T14:16:34Z</time>
      </trkpt>
      <trkpt lat="44.22117" lon="5.56684">
        <ele>760</ele>
        <time>2019-03-27T14:16:35Z</time>
      </trkpt>
      <trkpt lat="44.22117" lon="5.56676">
        <ele>760</ele>
        <time>2019-03-27T14:16:36Z</time>
      </trkpt>
      <trkpt lat="44.22116" lon="5.56668">
        <ele>760</ele>
        <time>2019-03-27T14:16:37Z</time>
      </trkpt>
      <trkpt lat="44.22116" lon="5.5666">
        <ele>761</ele>
        <time>2019-03-27T14:16:38Z</time>
      </trkpt>
      <trkpt lat="44.22116" lon="5.56651">
        <ele>761</ele>
        <time>2019-03-27T14:16:39Z</time>
      </trkpt>
      <trkpt lat="44.22116" lon="5.56643">
        <ele>761</ele>
        <time>2019-03-27T14:16:40Z</time>
      </trkpt>
      <trkpt lat="44.22116" lon="5.56634">
        <ele>761</ele>
        <time>2019-03-27T14:16:41Z</time>
      </trkpt>
      <trkpt lat="44.22116" lon="5.56626">
        <ele>761</ele>
        <time>2019-03-27T14:16:42Z</time>
      </trkpt>
      <trkpt lat="44.22116" lon="5.56617">
        <ele>761</ele>
        <time>2019-03-27T14:16:43Z</time>
      </trkpt>
      <trkpt lat="44.22115" lon="5.56609">
        <ele>761</ele>
        <time>2019-03-27T14:16:44Z</time>
      </trkpt>
      <trkpt lat="44.22115" lon="5.56601">
        <ele>761</ele>
        <time>2019-03-27T14:16:45Z</time>
      </trkpt>
      <trkpt lat="44.22115" lon="5.56592">
        <ele>761</ele>
        <time>2019-03-27T14:16:46Z</time>
      </trkpt>
      <trkpt lat="44.22115" lon="5.56583">
        <ele>761</ele>
        <time>2019-03-27T14:16:47Z</time>
      </trkpt>
      <trkpt lat="44.22115" lon="5.56575">
        <ele>761</ele>
        <time>2019-03-27T14:16:48Z</time>
      </trkpt>
      <trkpt lat="44.22115" lon="5.56567">
        <ele>761</ele>
        <time>2019-03-27T14:16:49Z</time>
      </trkpt>
      <trkpt lat="44.22115" lon="5.56558">
        <ele>761</ele>
        <time>2019-03-27T14:16:50Z</time>
      </trkpt>
      <trkpt lat="44.22115" lon="5.5655">
        <ele>761</ele>
        <time>2019-03-27T14:16:51Z</time>
      </trkpt>
      <trkpt lat="44.22115" lon="5.56542">
        <ele>761</ele>
        <time>2019-03-27T14:16:52Z</time>
      </trkpt>
      <trkpt lat="44.22114" lon="5.56533">
        <ele>761</ele>
        <time>2019-03-27T14:16:53Z</time>
      </trkpt>
      <trkpt lat="44.22114" lon="5.56525">
        <ele>761</ele>
        <time>2019-03-27T14:16:54Z</time>
      </trkpt>
      <trkpt lat="44.22114" lon="5.56517">
        <ele>761</ele>
        <time>2019-03-27T14:16:55Z</time>
      </trkpt>
      <trkpt lat="44.22113" lon="5.56508">
        <ele>761</ele>
        <time>2019-03-27T14:16:56Z</time>
      </trkpt>
      <trkpt lat="44.22113" lon="5.565">
        <ele>761</ele>
        <time>2019-03-27T14:16:57Z</time>
      </trkpt>
      <trkpt lat="44.22113" lon="5.56491">
        <ele>761</ele>
        <time>2019-03-27T14:16:58Z</time>
      </trkpt>
      <trkpt lat="44.22113" lon="5.56482">
        <ele>761</ele>
        <time>2019-03-27T14:16:59Z</time>
      </trkpt>
      <trkpt lat="44.22112" lon="5.56473">
        <ele>761</ele>
        <time>2019-03-27T14:17:00Z</time>
      </trkpt>
      <trkpt lat="44.22112" lon="5.56464">
        <ele>761</ele>
        <time>2019-03-27T14:17:01Z</time>
      </trkpt>
      <trkpt lat="44.22111" lon="5.56456">
        <ele>761</ele>
        <time>2019-03-27T14:17:02Z</time>
      </trkpt>
      <trkpt lat="44.2211" lon="5.56447">
        <ele>761</ele>
        <time>2019-03-27T14:17:03Z</time>
      </trkpt>
      <trkpt lat="44.22109" lon="5.56438">
        <ele>761</ele>
        <time>2019-03-27T14:17:04Z</time>
      </trkpt>
      <trkpt lat="44.22109" lon="5.56429">
        <ele>761</ele>
        <time>2019-03-27T14:17:05Z</time>
      </trkpt>
      <trkpt lat="44.22108" lon="5.56421">
        <ele>761</ele>
        <time>2019-03-27T14:17:06Z</time>
      </trkpt>
      <trkpt lat="44.22107" lon="5.56412">
        <ele>761</ele>
        <time>2019-03-27T14:17:07Z</time>
      </trkpt>
      <trkpt lat="44.22106" lon="5.56403">
        <ele>761</ele>
        <time>2019-03-27T14:17:08Z</time>
      </trkpt>
      <trkpt lat="44.22105" lon="5.56395">
        <ele>761</ele>
        <time>2019-03-27T14:17:09Z</time>
      </trkpt>
      <trkpt lat="44.22105" lon="5.56386">
        <ele>761</ele>
        <time>2019-03-27T14:17:10Z</time>
      </trkpt>
      <trkpt lat="44.22104" lon="5.56378">
        <ele>761</ele>
        <time>2019-03-27T14:17:11Z</time>
      </trkpt>
      <trkpt lat="44.22103" lon="5.56369">
        <ele>761</ele>
        <time>2019-03-27T14:17:12Z</time>
      </trkpt>
      <trkpt lat="44.22102" lon="5.56361">
        <ele>761</ele>
        <time>2019-03-27T14:17:13Z</time>
      </trkpt>
      <trkpt lat="44.221" lon="5.56353">
        <ele>761</ele>
        <time>2019-03-27T14:17:14Z</time>
      </trkpt>
      <trkpt lat="44.221" lon="5.56344">
        <ele>761</ele>
        <time>2019-03-27T14:17:15Z</time>
      </trkpt>
      <trkpt lat="44.22099" lon="5.56336">
        <ele>762</ele>
        <time>2019-03-27T14:17:16Z</time>
      </trkpt>
      <trkpt lat="44.22098" lon="5.56328">
        <ele>762</ele>
        <time>2019-03-27T14:17:17Z</time>
      </trkpt>
      <trkpt lat="44.22097" lon="5.5632">
        <ele>762</ele>
        <time>2019-03-27T14:17:18Z</time>
      </trkpt>
      <trkpt lat="44.22096" lon="5.56311">
        <ele>763</ele>
        <time>2019-03-27T14:17:19Z</time>
      </trkpt>
      <trkpt lat="44.22095" lon="5.56303">
        <ele>763</ele>
        <time>2019-03-27T14:17:20Z</time>
      </trkpt>
      <trkpt lat="44.22094" lon="5.56294">
        <ele>763</ele>
        <time>2019-03-27T14:17:21Z</time>
      </trkpt>
      <trkpt lat="44.22094" lon="5.56286">
        <ele>763</ele>
        <time>2019-03-27T14:17:22Z</time>
      </trkpt>
      <trkpt lat="44.22092" lon="5.56277">
        <ele>763</ele>
        <time>2019-03-27T14:17:23Z</time>
      </trkpt>
      <trkpt lat="44.22091" lon="5.56268">
        <ele>763</ele>
        <time>2019-03-27T14:17:24Z</time>
      </trkpt>
      <trkpt lat="44.22091" lon="5.56259">
        <ele>763</ele>
        <time>2019-03-27T14:17:25Z</time>
      </trkpt>
      <trkpt lat="44.2209" lon="5.56251">
        <ele>763</ele>
        <time>2019-03-27T14:17:26Z</time>
      </trkpt>
      <trkpt lat="44.22089" lon="5.56242">
        <ele>763</ele>
        <time>2019-03-27T14:17:27Z</time>
      </trkpt>
      <trkpt lat="44.22088" lon="5.56233">
        <ele>763</ele>
        <time>2019-03-27T14:17:28Z</time>
      </trkpt>
      <trkpt lat="44.22086" lon="5.56224">
        <ele>763</ele>
        <time>2019-03-27T14:17:29Z</time>
      </trkpt>
      <trkpt lat="44.22086" lon="5.56215">
        <ele>763</ele>
        <time>2019-03-27T14:17:30Z</time>
      </trkpt>
      <trkpt lat="44.22085" lon="5.56206">
        <ele>763</ele>
        <time>2019-03-27T14:17:31Z</time>
      </trkpt>
      <trkpt lat="44.22084" lon="5.56196">
        <ele>763</ele>
        <time>2019-03-27T14:17:32Z</time>
      </trkpt>
      <trkpt lat="44.22083" lon="5.56187">
        <ele>763</ele>
        <time>2019-03-27T14:17:33Z</time>
      </trkpt>
      <trkpt lat="44.22081" lon="5.56178">
        <ele>763</ele>
        <time>2019-03-27T14:17:34Z</time>
      </trkpt>
      <trkpt lat="44.22081" lon="5.56169">
        <ele>763</ele>
        <time>2019-03-27T14:17:35Z</time>
      </trkpt>
      <trkpt lat="44.2208" lon="5.56159">
        <ele>763</ele>
        <time>2019-03-27T14:17:36Z</time>
      </trkpt>
      <trkpt lat="44.22078" lon="5.56149">
        <ele>763</ele>
        <time>2019-03-27T14:17:37Z</time>
      </trkpt>
      <trkpt lat="44.22078" lon="5.5614">
        <ele>763</ele>
        <time>2019-03-27T14:17:38Z</time>
      </trkpt>
      <trkpt lat="44.22076" lon="5.5613">
        <ele>763</ele>
        <time>2019-03-27T14:17:39Z</time>
      </trkpt>
      <trkpt lat="44.22075" lon="5.5612">
        <ele>763</ele>
        <time>2019-03-27T14:17:40Z</time>
      </trkpt>
      <trkpt lat="44.22074" lon="5.5611">
        <ele>763</ele>
        <time>2019-03-27T14:17:41Z</time>
      </trkpt>
      <trkpt lat="44.22073" lon="5.56101">
        <ele>763</ele>
        <time>2019-03-27T14:17:42Z</time>
      </trkpt>
      <trkpt lat="44.22072" lon="5.56091">
        <ele>763</ele>
        <time>2019-03-27T14:17:43Z</time>
      </trkpt>
      <trkpt lat="44.22071" lon="5.56081">
        <ele>763</ele>
        <time>2019-03-27T14:17:44Z</time>
      </trkpt>
      <trkpt lat="44.2207" lon="5.56072">
        <ele>763</ele>
        <time>2019-03-27T14:17:45Z</time>
      </trkpt>
      <trkpt lat="44.22069" lon="5.56062">
        <ele>763</ele>
        <time>2019-03-27T14:17:46Z</time>
      </trkpt>
      <trkpt lat="44.22068" lon="5.56052">
        <ele>763</ele>
        <time>2019-03-27T14:17:47Z</time>
      </trkpt>
      <trkpt lat="44.22067" lon="5.56042">
        <ele>763</ele>
        <time>2019-03-27T14:17:48Z</time>
      </trkpt>
      <trkpt lat="44.22066" lon="5.56032">
        <ele>763</ele>
        <time>2019-03-27T14:17:49Z</time>
      </trkpt>
      <trkpt lat="44.22065" lon="5.56022">
        <ele>763</ele>
        <time>2019-03-27T14:17:50Z</time>
      </trkpt>
      <trkpt lat="44.22064" lon="5.56013">
        <ele>763</ele>
        <time>2019-03-27T14:17:51Z</time>
      </trkpt>
      <trkpt lat="44.22063" lon="5.56003">
        <ele>763</ele>
        <time>2019-03-27T14:17:52Z</time>
      </trkpt>
      <trkpt lat="44.22062" lon="5.55994">
        <ele>763</ele>
        <time>2019-03-27T14:17:53Z</time>
      </trkpt>
      <trkpt lat="44.22061" lon="5.55984">
        <ele>763</ele>
        <time>2019-03-27T14:17:54Z</time>
      </trkpt>
      <trkpt lat="44.2206" lon="5.55975">
        <ele>763</ele>
        <time>2019-03-27T14:17:55Z</time>
      </trkpt>
      <trkpt lat="44.22059" lon="5.55967">
        <ele>763</ele>
        <time>2019-03-27T14:17:56Z</time>
      </trkpt>
      <trkpt lat="44.22058" lon="5.55958">
        <ele>763</ele>
        <time>2019-03-27T14:17:57Z</time>
      </trkpt>
      <trkpt lat="44.22057" lon="5.55949">
        <ele>763</ele>
        <time>2019-03-27T14:17:58Z</time>
      </trkpt>
      <trkpt lat="44.22056" lon="5.5594">
        <ele>763</ele>
        <time>2019-03-27T14:17:59Z</time>
      </trkpt>
      <trkpt lat="44.22055" lon="5.55931">
        <ele>763</ele>
        <time>2019-03-27T14:18:00Z</time>
      </trkpt>
      <trkpt lat="44.22055" lon="5.55923">
        <ele>763</ele>
        <time>2019-03-27T14:18:01Z</time>
      </trkpt>
      <trkpt lat="44.22054" lon="5.55914">
        <ele>763</ele>
        <time>2019-03-27T14:18:02Z</time>
      </trkpt>
      <trkpt lat="44.22052" lon="5.55905">
        <ele>763</ele>
        <time>2019-03-27T14:18:03Z</time>
      </trkpt>
      <trkpt lat="44.22051" lon="5.55896">
        <ele>763</ele>
        <time>2019-03-27T14:18:04Z</time>
      </trkpt>
      <trkpt lat="44.2205" lon="5.55887">
        <ele>763</ele>
        <time>2019-03-27T14:18:05Z</time>
      </trkpt>
      <trkpt lat="44.22049" lon="5.55878">
        <ele>763</ele>
        <time>2019-03-27T14:18:06Z</time>
      </trkpt>
      <trkpt lat="44.22048" lon="5.55869">
        <ele>763</ele>
        <time>2019-03-27T14:18:07Z</time>
      </trkpt>
      <trkpt lat="44.22047" lon="5.5586">
        <ele>763</ele>
        <time>2019-03-27T14:18:08Z</time>
      </trkpt>
      <trkpt lat="44.22047" lon="5.55851">
        <ele>763</ele>
        <time>2019-03-27T14:18:09Z</time>
      </trkpt>
      <trkpt lat="44.22046" lon="5.55842">
        <ele>763</ele>
        <time>2019-03-27T14:18:10Z</time>
      </trkpt>
      <trkpt lat="44.22045" lon="5.55832">
        <ele>763</ele>
        <time>2019-03-27T14:18:11Z</time>
      </trkpt>
      <trkpt lat="44.22044" lon="5.55823">
        <ele>763</ele>
        <time>2019-03-27T14:18:12Z</time>
      </trkpt>
      <trkpt lat="44.22043" lon="5.55814">
        <ele>763</ele>
        <time>2019-03-27T14:18:13Z</time>
      </trkpt>
      <trkpt lat="44.22042" lon="5.55805">
        <ele>763</ele>
        <time>2019-03-27T14:18:14Z</time>
      </trkpt>
      <trkpt lat="44.22041" lon="5.55796">
        <ele>763</ele>
        <time>2019-03-27T14:18:15Z</time>
      </trkpt>
      <trkpt lat="44.2204" lon="5.55787">
        <ele>763</ele>
        <time>2019-03-27T14:18:16Z</time>
      </trkpt>
      <trkpt lat="44.22039" lon="5.55777">
        <ele>763</ele>
        <time>2019-03-27T14:18:17Z</time>
      </trkpt>
      <trkpt lat="44.22038" lon="5.55768">
        <ele>763</ele>
        <time>2019-03-27T14:18:18Z</time>
      </trkpt>
      <trkpt lat="44.22037" lon="5.55759">
        <ele>763</ele>
        <time>2019-03-27T14:18:19Z</time>
      </trkpt>
      <trkpt lat="44.22036" lon="5.5575">
        <ele>763</ele>
        <time>2019-03-27T14:18:20Z</time>
      </trkpt>
      <trkpt lat="44.22035" lon="5.55741">
        <ele>763</ele>
        <time>2019-03-27T14:18:21Z</time>
      </trkpt>
      <trkpt lat="44.22034" lon="5.55732">
        <ele>763</ele>
        <time>2019-03-27T14:18:22Z</time>
      </trkpt>
      <trkpt lat="44.22033" lon="5.55723">
        <ele>763</ele>
        <time>2019-03-27T14:18:23Z</time>
      </trkpt>
      <trkpt lat="44.22033" lon="5.55714">
        <ele>763</ele>
        <time>2019-03-27T14:18:24Z</time>
      </trkpt>
      <trkpt lat="44.22031" lon="5.55705">
        <ele>763</ele>
        <time>2019-03-27T14:18:25Z</time>
      </trkpt>
      <trkpt lat="44.22031" lon="5.55697">
        <ele>763</ele>
        <time>2019-03-27T14:18:26Z</time>
      </trkpt>
      <trkpt lat="44.2203" lon="5.55688">
        <ele>763</ele>
        <time>2019-03-27T14:18:27Z</time>
      </trkpt>
      <trkpt lat="44.22029" lon="5.5568">
        <ele>763</ele>
        <time>2019-03-27T14:18:28Z</time>
      </trkpt>
      <trkpt lat="44.22028" lon="5.55671">
        <ele>763</ele>
        <time>2019-03-27T14:18:29Z</time>
      </trkpt>
      <trkpt lat="44.22027" lon="5.55662">
        <ele>763</ele>
        <time>2019-03-27T14:18:30Z</time>
      </trkpt>
      <trkpt lat="44.22026" lon="5.55653">
        <ele>763</ele>
        <time>2019-03-27T14:18:31Z</time>
      </trkpt>
      <trkpt lat="44.22025" lon="5.55645">
        <ele>763</ele>
        <time>2019-03-27T14:18:32Z</time>
      </trkpt>
      <trkpt lat="44.22024" lon="5.55636">
        <ele>763</ele>
        <time>2019-03-27T14:18:33Z</time>
      </trkpt>
      <trkpt lat="44.22023" lon="5.55628">
        <ele>763</ele>
        <time>2019-03-27T14:18:34Z</time>
      </trkpt>
      <trkpt lat="44.22023" lon="5.55619">
        <ele>763</ele>
        <time>2019-03-27T14:18:35Z</time>
      </trkpt>
      <trkpt lat="44.22022" lon="5.55611">
        <ele>763</ele>
        <time>2019-03-27T14:18:36Z</time>
      </trkpt>
      <trkpt lat="44.22021" lon="5.55603">
        <ele>763</ele>
        <time>2019-03-27T14:18:37Z</time>
      </trkpt>
      <trkpt lat="44.2202" lon="5.55595">
        <ele>763</ele>
        <time>2019-03-27T14:18:38Z</time>
      </trkpt>
      <trkpt lat="44.22019" lon="5.55586">
        <ele>763</ele>
        <time>2019-03-27T14:18:39Z</time>
      </trkpt>
      <trkpt lat="44.22018" lon="5.55578">
        <ele>763</ele>
        <time>2019-03-27T14:18:40Z</time>
      </trkpt>
      <trkpt lat="44.22018" lon="5.5557">
        <ele>764</ele>
        <time>2019-03-27T14:18:41Z</time>
      </trkpt>
      <trkpt lat="44.22017" lon="5.55562">
        <ele>764</ele>
        <time>2019-03-27T14:18:42Z</time>
      </trkpt>
      <trkpt lat="44.22016" lon="5.55555">
        <ele>764</ele>
        <time>2019-03-27T14:18:43Z</time>
      </trkpt>
      <trkpt lat="44.22015" lon="5.55547">
        <ele>764</ele>
        <time>2019-03-27T14:18:44Z</time>
      </trkpt>
      <trkpt lat="44.22015" lon="5.5554">
        <ele>764</ele>
        <time>2019-03-27T14:18:45Z</time>
      </trkpt>
      <trkpt lat="44.22013" lon="5.55532">
        <ele>764</ele>
        <time>2019-03-27T14:18:46Z</time>
      </trkpt>
      <trkpt lat="44.22013" lon="5.55525">
        <ele>765</ele>
        <time>2019-03-27T14:18:47Z</time>
      </trkpt>
      <trkpt lat="44.22012" lon="5.55517">
        <ele>765</ele>
        <time>2019-03-27T14:18:48Z</time>
      </trkpt>
      <trkpt lat="44.22011" lon="5.5551">
        <ele>765</ele>
        <time>2019-03-27T14:18:49Z</time>
      </trkpt>
      <trkpt lat="44.2201" lon="5.55502">
        <ele>765</ele>
        <time>2019-03-27T14:18:50Z</time>
      </trkpt>
      <trkpt lat="44.2201" lon="5.55494">
        <ele>765</ele>
        <time>2019-03-27T14:18:51Z</time>
      </trkpt>
      <trkpt lat="44.22009" lon="5.55486">
        <ele>766</ele>
        <time>2019-03-27T14:18:52Z</time>
      </trkpt>
      <trkpt lat="44.22008" lon="5.55478">
        <ele>766</ele>
        <time>2019-03-27T14:18:53Z</time>
      </trkpt>
      <trkpt lat="44.22007" lon="5.55471">
        <ele>766</ele>
        <time>2019-03-27T14:18:54Z</time>
      </trkpt>
      <trkpt lat="44.22006" lon="5.55462">
        <ele>766</ele>
        <time>2019-03-27T14:18:55Z</time>
      </trkpt>
      <trkpt lat="44.22005" lon="5.55454">
        <ele>766</ele>
        <time>2019-03-27T14:18:56Z</time>
      </trkpt>
      <trkpt lat="44.22004" lon="5.55445">
        <ele>766</ele>
        <time>2019-03-27T14:18:57Z</time>
      </trkpt>
      <trkpt lat="44.22003" lon="5.55437">
        <ele>766</ele>
        <time>2019-03-27T14:18:58Z</time>
      </trkpt>
      <trkpt lat="44.22002" lon="5.55429">
        <ele>766</ele>
        <time>2019-03-27T14:18:59Z</time>
      </trkpt>
      <trkpt lat="44.22001" lon="5.5542">
        <ele>766</ele>
        <time>2019-03-27T14:19:00Z</time>
      </trkpt>
      <trkpt lat="44.22001" lon="5.55411">
        <ele>766</ele>
        <time>2019-03-27T14:19:01Z</time>
      </trkpt>
      <trkpt lat="44.22" lon="5.55403">
        <ele>767</ele>
        <time>2019-03-27T14:19:02Z</time>
      </trkpt>
      <trkpt lat="44.21999" lon="5.55394">
        <ele>767</ele>
        <time>2019-03-27T14:19:03Z</time>
      </trkpt>
      <trkpt lat="44.21998" lon="5.55386">
        <ele>767</ele>
        <time>2019-03-27T14:19:04Z</time>
      </trkpt>
      <trkpt lat="44.21997" lon="5.55377">
        <ele>767</ele>
        <time>2019-03-27T14:19:05Z</time>
      </trkpt>
      <trkpt lat="44.21996" lon="5.55369">
        <ele>767</ele>
        <time>2019-03-27T14:19:06Z</time>
      </trkpt>
      <trkpt lat="44.21995" lon="5.55361">
        <ele>767</ele>
        <time>2019-03-27T14:19:07Z</time>
      </trkpt>
      <trkpt lat="44.21994" lon="5.55353">
        <ele>767</ele>
        <time>2019-03-27T14:19:08Z</time>
      </trkpt>
      <trkpt lat="44.21994" lon="5.55345">
        <ele>767</ele>
        <time>2019-03-27T14:19:09Z</time>
      </trkpt>
      <trkpt lat="44.21993" lon="5.55337">
        <ele>767</ele>
        <time>2019-03-27T14:19:10Z</time>
      </trkpt>
      <trkpt lat="44.21992" lon="5.55329">
        <ele>767</ele>
        <time>2019-03-27T14:19:11Z</time>
      </trkpt>
      <trkpt lat="44.21991" lon="5.55321">
        <ele>767</ele>
        <time>2019-03-27T14:19:12Z</time>
      </trkpt>
      <trkpt lat="44.2199" lon="5.55313">
        <ele>767</ele>
        <time>2019-03-27T14:19:13Z</time>
      </trkpt>
      <trkpt lat="44.21989" lon="5.55305">
        <ele>767</ele>
        <time>2019-03-27T14:19:14Z</time>
      </trkpt>
      <trkpt lat="44.21988" lon="5.55297">
        <ele>767</ele>
        <time>2019-03-27T14:19:15Z</time>
      </trkpt>
      <trkpt lat="44.21988" lon="5.5529">
        <ele>767</ele>
        <time>2019-03-27T14:19:16Z</time>
      </trkpt>
      <trkpt lat="44.21987" lon="5.55283">
        <ele>767</ele>
        <time>2019-03-27T14:19:17Z</time>
      </trkpt>
      <trkpt lat="44.21986" lon="5.55276">
        <ele>767</ele>
        <time>2019-03-27T14:19:18Z</time>
      </trkpt>
      <trkpt lat="44.21985" lon="5.55269">
        <ele>767</ele>
        <time>2019-03-27T14:19:19Z</time>
      </trkpt>
      <trkpt lat="44.21984" lon="5.55262">
        <ele>767</ele>
        <time>2019-03-27T14:19:20Z</time>
      </trkpt>
      <trkpt lat="44.21983" lon="5.55255">
        <ele>767</ele>
        <time>2019-03-27T14:19:21Z</time>
      </trkpt>
      <trkpt lat="44.21983" lon="5.55248">
        <ele>767</ele>
        <time>2019-03-27T14:19:22Z</time>
      </trkpt>
      <trkpt lat="44.21983" lon="5.55241">
        <ele>767</ele>
        <time>2019-03-27T14:19:23Z</time>
      </trkpt>
      <trkpt lat="44.21982" lon="5.55234">
        <ele>768</ele>
        <time>2019-03-27T14:19:24Z</time>
      </trkpt>
      <trkpt lat="44.21981" lon="5.55227">
        <ele>768</ele>
        <time>2019-03-27T14:19:25Z</time>
      </trkpt>
      <trkpt lat="44.2198" lon="5.5522">
        <ele>769</ele>
        <time>2019-03-27T14:19:26Z</time>
      </trkpt>
      <trkpt lat="44.21979" lon="5.55214">
        <ele>769</ele>
        <time>2019-03-27T14:19:27Z</time>
      </trkpt>
      <trkpt lat="44.21978" lon="5.55207">
        <ele>770</ele>
        <time>2019-03-27T14:19:28Z</time>
      </trkpt>
      <trkpt lat="44.21977" lon="5.55201">
        <ele>771</ele>
        <time>2019-03-27T14:19:29Z</time>
      </trkpt>
      <trkpt lat="44.21976" lon="5.55195">
        <ele>771</ele>
        <time>2019-03-27T14:19:30Z</time>
      </trkpt>
      <trkpt lat="44.21975" lon="5.55189">
        <ele>771</ele>
        <time>2019-03-27T14:19:31Z</time>
      </trkpt>
      <trkpt lat="44.21974" lon="5.55183">
        <ele>772</ele>
        <time>2019-03-27T14:19:32Z</time>
      </trkpt>
      <trkpt lat="44.21973" lon="5.55177">
        <ele>772</ele>
        <time>2019-03-27T14:19:33Z</time>
      </trkpt>
      <trkpt lat="44.21972" lon="5.55171">
        <ele>772</ele>
        <time>2019-03-27T14:19:34Z</time>
      </trkpt>
      <trkpt lat="44.2197" lon="5.55166">
        <ele>772</ele>
        <time>2019-03-27T14:19:35Z</time>
      </trkpt>
      <trkpt lat="44.21968" lon="5.5516">
        <ele>772</ele>
        <time>2019-03-27T14:19:36Z</time>
      </trkpt>
      <trkpt lat="44.21967" lon="5.55155">
        <ele>773</ele>
        <time>2019-03-27T14:19:37Z</time>
      </trkpt>
      <trkpt lat="44.21966" lon="5.5515">
        <ele>773</ele>
        <time>2019-03-27T14:19:38Z</time>
      </trkpt>
      <trkpt lat="44.21965" lon="5.55144">
        <ele>773</ele>
        <time>2019-03-27T14:19:39Z</time>
      </trkpt>
      <trkpt lat="44.21963" lon="5.55139">
        <ele>774</ele>
        <time>2019-03-27T14:19:40Z</time>
      </trkpt>
      <trkpt lat="44.21962" lon="5.55134">
        <ele>774</ele>
        <time>2019-03-27T14:19:41Z</time>
      </trkpt>
      <trkpt lat="44.2196" lon="5.55128">
        <ele>774</ele>
        <time>2019-03-27T14:19:42Z</time>
      </trkpt>
      <trkpt lat="44.21957" lon="5.55122">
        <ele>774</ele>
        <time>2019-03-27T14:19:43Z</time>
      </trkpt>
      <trkpt lat="44.21955" lon="5.55117">
        <ele>774</ele>
        <time>2019-03-27T14:19:44Z</time>
      </trkpt>
      <trkpt lat="44.21953" lon="5.55112">
        <ele>774</ele>
        <time>2019-03-27T14:19:45Z</time>
      </trkpt>
      <trkpt lat="44.21952" lon="5.55106">
        <ele>774</ele>
        <time>2019-03-27T14:19:46Z</time>
      </trkpt>
      <trkpt lat="44.21949" lon="5.551">
        <ele>774</ele>
        <time>2019-03-27T14:19:47Z</time>
      </trkpt>
      <trkpt lat="44.21948" lon="5.55095">
        <ele>774</ele>
        <time>2019-03-27T14:19:48Z</time>
      </trkpt>
      <trkpt lat="44.21946" lon="5.5509">
        <ele>774</ele>
        <time>2019-03-27T14:19:49Z</time>
      </trkpt>
      <trkpt lat="44.21944" lon="5.55085">
        <ele>774</ele>
        <time>2019-03-27T14:19:50Z</time>
      </trkpt>
      <trkpt lat="44.21942" lon="5.5508">
        <ele>774</ele>
        <time>2019-03-27T14:19:51Z</time>
      </trkpt>
      <trkpt lat="44.2194" lon="5.55075">
        <ele>774</ele>
        <time>2019-03-27T14:19:52Z</time>
      </trkpt>
      <trkpt lat="44.21938" lon="5.5507">
        <ele>775</ele>
        <time>2019-03-27T14:19:53Z</time>
      </trkpt>
      <trkpt lat="44.21936" lon="5.55065">
        <ele>775</ele>
        <time>2019-03-27T14:19:54Z</time>
      </trkpt>
      <trkpt lat="44.21935" lon="5.5506">
        <ele>775</ele>
        <time>2019-03-27T14:19:55Z</time>
      </trkpt>
      <trkpt lat="44.21933" lon="5.55056">
        <ele>775</ele>
        <time>2019-03-27T14:19:56Z</time>
      </trkpt>
      <trkpt lat="44.21931" lon="5.55051">
        <ele>775</ele>
        <time>2019-03-27T14:19:57Z</time>
      </trkpt>
      <trkpt lat="44.21929" lon="5.55046">
        <ele>775</ele>
        <time>2019-03-27T14:19:58Z</time>
      </trkpt>
      <trkpt lat="44.21927" lon="5.55041">
        <ele>775</ele>
        <time>2019-03-27T14:19:59Z</time>
      </trkpt>
      <trkpt lat="44.21925" lon="5.55036">
        <ele>776</ele>
        <time>2019-03-27T14:20:00Z</time>
      </trkpt>
      <trkpt lat="44.21923" lon="5.55031">
        <ele>776</ele>
        <time>2019-03-27T14:20:01Z</time>
      </trkpt>
      <trkpt lat="44.21922" lon="5.55027">
        <ele>776</ele>
        <time>2019-03-27T14:20:02Z</time>
      </trkpt>
      <trkpt lat="44.2192" lon="5.55022">
        <ele>776</ele>
        <time>2019-03-27T14:20:03Z</time>
      </trkpt>
      <trkpt lat="44.21918" lon="5.55017">
        <ele>776</ele>
        <time>2019-03-27T14:20:04Z</time>
      </trkpt>
      <trkpt lat="44.21917" lon="5.55013">
        <ele>776</ele>
        <time>2019-03-27T14:20:05Z</time>
      </trkpt>
      <trkpt lat="44.21915" lon="5.55008">
        <ele>776</ele>
        <time>2019-03-27T14:20:06Z</time>
      </trkpt>
      <trkpt lat="44.21914" lon="5.55003">
        <ele>776</ele>
        <time>2019-03-27T14:20:07Z</time>
      </trkpt>
      <trkpt lat="44.21912" lon="5.54998">
        <ele>776</ele>
        <time>2019-03-27T14:20:08Z</time>
      </trkpt>
      <trkpt lat="44.2191" lon="5.54993">
        <ele>776</ele>
        <time>2019-03-27T14:20:09Z</time>
      </trkpt>
      <trkpt lat="44.21908" lon="5.54989">
        <ele>776</ele>
        <time>2019-03-27T14:20:10Z</time>
      </trkpt>
      <trkpt lat="44.21906" lon="5.54984">
        <ele>776</ele>
        <time>2019-03-27T14:20:11Z</time>
      </trkpt>
      <trkpt lat="44.21905" lon="5.54979">
        <ele>776</ele>
        <time>2019-03-27T14:20:12Z</time>
      </trkpt>
      <trkpt lat="44.21903" lon="5.54975">
        <ele>776</ele>
        <time>2019-03-27T14:20:13Z</time>
      </trkpt>
      <trkpt lat="44.21901" lon="5.5497">
        <ele>776</ele>
        <time>2019-03-27T14:20:14Z</time>
      </trkpt>
      <trkpt lat="44.21899" lon="5.54965">
        <ele>776</ele>
        <time>2019-03-27T14:20:15Z</time>
      </trkpt>
      <trkpt lat="44.21897" lon="5.54961">
        <ele>776</ele>
        <time>2019-03-27T14:20:16Z</time>
      </trkpt>
      <trkpt lat="44.21895" lon="5.54956">
        <ele>776</ele>
        <time>2019-03-27T14:20:17Z</time>
      </trkpt>
      <trkpt lat="44.21893" lon="5.54951">
        <ele>777</ele>
        <time>2019-03-27T14:20:18Z</time>
      </trkpt>
      <trkpt lat="44.21892" lon="5.54947">
        <ele>777</ele>
        <time>2019-03-27T14:20:20Z</time>
      </trkpt>
      <trkpt lat="44.2189" lon="5.54942">
        <ele>777</ele>
        <time>2019-03-27T14:20:20Z</time>
      </trkpt>
      <trkpt lat="44.21889" lon="5.54937">
        <ele>777</ele>
        <time>2019-03-27T14:20:21Z</time>
      </trkpt>
      <trkpt lat="44.21887" lon="5.54932">
        <ele>777</ele>
        <time>2019-03-27T14:20:22Z</time>
      </trkpt>
      <trkpt lat="44.21885" lon="5.54928">
        <ele>777</ele>
        <time>2019-03-27T14:20:23Z</time>
      </trkpt>
      <trkpt lat="44.21883" lon="5.54923">
        <ele>777</ele>
        <time>2019-03-27T14:20:24Z</time>
      </trkpt>
      <trkpt lat="44.21881" lon="5.54918">
        <ele>777</ele>
        <time>2019-03-27T14:20:25Z</time>
      </trkpt>
      <trkpt lat="44.2188" lon="5.54914">
        <ele>777</ele>
        <time>2019-03-27T14:20:26Z</time>
      </trkpt>
      <trkpt lat="44.21878" lon="5.54909">
        <ele>777</ele>
        <time>2019-03-27T14:20:27Z</time>
      </trkpt>
      <trkpt lat="44.21877" lon="5.54905">
        <ele>777</ele>
        <time>2019-03-27T14:20:28Z</time>
      </trkpt>
      <trkpt lat="44.21875" lon="5.549">
        <ele>778</ele>
        <time>2019-03-27T14:20:29Z</time>
      </trkpt>
      <trkpt lat="44.21873" lon="5.54895">
        <ele>778</ele>
        <time>2019-03-27T14:20:30Z</time>
      </trkpt>
      <trkpt lat="44.21872" lon="5.54891">
        <ele>778</ele>
        <time>2019-03-27T14:20:31Z</time>
      </trkpt>
      <trkpt lat="44.2187" lon="5.54886">
        <ele>779</ele>
        <time>2019-03-27T14:20:32Z</time>
      </trkpt>
      <trkpt lat="44.21868" lon="5.54882">
        <ele>779</ele>
        <time>2019-03-27T14:20:33Z</time>
      </trkpt>
      <trkpt lat="44.21866" lon="5.54877">
        <ele>779</ele>
        <time>2019-03-27T14:20:34Z</time>
      </trkpt>
      <trkpt lat="44.21864" lon="5.54872">
        <ele>780</ele>
        <time>2019-03-27T14:20:35Z</time>
      </trkpt>
      <trkpt lat="44.21863" lon="5.54868">
        <ele>780</ele>
        <time>2019-03-27T14:20:36Z</time>
      </trkpt>
      <trkpt lat="44.21861" lon="5.54862">
        <ele>780</ele>
        <time>2019-03-27T14:20:37Z</time>
      </trkpt>
      <trkpt lat="44.21859" lon="5.54858">
        <ele>780</ele>
        <time>2019-03-27T14:20:38Z</time>
      </trkpt>
      <trkpt lat="44.21857" lon="5.54853">
        <ele>780</ele>
        <time>2019-03-27T14:20:39Z</time>
      </trkpt>
      <trkpt lat="44.21855" lon="5.54848">
        <ele>780</ele>
        <time>2019-03-27T14:20:40Z</time>
      </trkpt>
      <trkpt lat="44.21854" lon="5.54844">
        <ele>780</ele>
        <time>2019-03-27T14:20:41Z</time>
      </trkpt>
      <trkpt lat="44.21852" lon="5.54839">
        <ele>780</ele>
        <time>2019-03-27T14:20:42Z</time>
      </trkpt>
      <trkpt lat="44.2185" lon="5.54834">
        <ele>780</ele>
        <time>2019-03-27T14:20:43Z</time>
      </trkpt>
      <trkpt lat="44.21849" lon="5.54829">
        <ele>780</ele>
        <time>2019-03-27T14:20:44Z</time>
      </trkpt>
      <trkpt lat="44.21846" lon="5.54823">
        <ele>780</ele>
        <time>2019-03-27T14:20:45Z</time>
      </trkpt>
      <trkpt lat="44.21844" lon="5.54819">
        <ele>781</ele>
        <time>2019-03-27T14:20:46Z</time>
      </trkpt>
      <trkpt lat="44.21843" lon="5.54814">
        <ele>781</ele>
        <time>2019-03-27T14:20:47Z</time>
      </trkpt>
      <trkpt lat="44.21841" lon="5.54809">
        <ele>781</ele>
        <time>2019-03-27T14:20:48Z</time>
      </trkpt>
      <trkpt lat="44.21838" lon="5.54804">
        <ele>781</ele>
        <time>2019-03-27T14:20:49Z</time>
      </trkpt>
      <trkpt lat="44.21836" lon="5.54798">
        <ele>781</ele>
        <time>2019-03-27T14:20:50Z</time>
      </trkpt>
      <trkpt lat="44.21835" lon="5.54793">
        <ele>781</ele>
        <time>2019-03-27T14:20:51Z</time>
      </trkpt>
      <trkpt lat="44.21833" lon="5.54787">
        <ele>781</ele>
        <time>2019-03-27T14:20:52Z</time>
      </trkpt>
      <trkpt lat="44.21831" lon="5.54781">
        <ele>781</ele>
        <time>2019-03-27T14:20:53Z</time>
      </trkpt>
      <trkpt lat="44.21829" lon="5.54776">
        <ele>782</ele>
        <time>2019-03-27T14:20:54Z</time>
      </trkpt>
      <trkpt lat="44.21826" lon="5.5477">
        <ele>782</ele>
        <time>2019-03-27T14:20:55Z</time>
      </trkpt>
      <trkpt lat="44.21824" lon="5.54764">
        <ele>782</ele>
        <time>2019-03-27T14:20:56Z</time>
      </trkpt>
      <trkpt lat="44.21822" lon="5.54757">
        <ele>782</ele>
        <time>2019-03-27T14:20:57Z</time>
      </trkpt>
      <trkpt lat="44.21819" lon="5.54751">
        <ele>782</ele>
        <time>2019-03-27T14:20:58Z</time>
      </trkpt>
      <trkpt lat="44.21817" lon="5.54744">
        <ele>782</ele>
        <time>2019-03-27T14:20:59Z</time>
      </trkpt>
      <trkpt lat="44.21815" lon="5.54738">
        <ele>782</ele>
        <time>2019-03-27T14:21:00Z</time>
      </trkpt>
      <trkpt lat="44.21812" lon="5.54731">
        <ele>782</ele>
        <time>2019-03-27T14:21:01Z</time>
      </trkpt>
      <trkpt lat="44.21809" lon="5.54724">
        <ele>782</ele>
        <time>2019-03-27T14:21:02Z</time>
      </trkpt>
      <trkpt lat="44.21807" lon="5.54717">
        <ele>782</ele>
        <time>2019-03-27T14:21:03Z</time>
      </trkpt>
      <trkpt lat="44.21804" lon="5.5471">
        <ele>782</ele>
        <time>2019-03-27T14:21:04Z</time>
      </trkpt>
      <trkpt lat="44.21801" lon="5.54702">
        <ele>782</ele>
        <time>2019-03-27T14:21:05Z</time>
      </trkpt>
      <trkpt lat="44.21799" lon="5.54695">
        <ele>782</ele>
        <time>2019-03-27T14:21:06Z</time>
      </trkpt>
      <trkpt lat="44.21796" lon="5.54688">
        <ele>782</ele>
        <time>2019-03-27T14:21:07Z</time>
      </trkpt>
      <trkpt lat="44.21793" lon="5.5468">
        <ele>782</ele>
        <time>2019-03-27T14:21:08Z</time>
      </trkpt>
      <trkpt lat="44.2179" lon="5.54673">
        <ele>782</ele>
        <time>2019-03-27T14:21:09Z</time>
      </trkpt>
      <trkpt lat="44.21787" lon="5.54665">
        <ele>782</ele>
        <time>2019-03-27T14:21:10Z</time>
      </trkpt>
      <trkpt lat="44.21784" lon="5.54657">
        <ele>782</ele>
        <time>2019-03-27T14:21:11Z</time>
      </trkpt>
      <trkpt lat="44.21782" lon="5.54649">
        <ele>782</ele>
        <time>2019-03-27T14:21:12Z</time>
      </trkpt>
      <trkpt lat="44.21778" lon="5.54641">
        <ele>782</ele>
        <time>2019-03-27T14:21:13Z</time>
      </trkpt>
      <trkpt lat="44.21775" lon="5.54634">
        <ele>782</ele>
        <time>2019-03-27T14:21:14Z</time>
      </trkpt>
      <trkpt lat="44.21772" lon="5.54626">
        <ele>782</ele>
        <time>2019-03-27T14:21:15Z</time>
      </trkpt>
      <trkpt lat="44.21769" lon="5.54618">
        <ele>782</ele>
        <time>2019-03-27T14:21:16Z</time>
      </trkpt>
      <trkpt lat="44.21766" lon="5.5461">
        <ele>782</ele>
        <time>2019-03-27T14:21:17Z</time>
      </trkpt>
      <trkpt lat="44.21763" lon="5.54601">
        <ele>782</ele>
        <time>2019-03-27T14:21:18Z</time>
      </trkpt>
      <trkpt lat="44.2176" lon="5.54594">
        <ele>782</ele>
        <time>2019-03-27T14:21:19Z</time>
      </trkpt>
      <trkpt lat="44.21757" lon="5.54586">
        <ele>782</ele>
        <time>2019-03-27T14:21:20Z</time>
      </trkpt>
      <trkpt lat="44.21753" lon="5.54577">
        <ele>782</ele>
        <time>2019-03-27T14:21:21Z</time>
      </trkpt>
      <trkpt lat="44.2175" lon="5.54569">
        <ele>782</ele>
        <time>2019-03-27T14:21:22Z</time>
      </trkpt>
      <trkpt lat="44.21747" lon="5.54562">
        <ele>782</ele>
        <time>2019-03-27T14:21:23Z</time>
      </trkpt>
      <trkpt lat="44.21744" lon="5.54553">
        <ele>782</ele>
        <time>2019-03-27T14:21:24Z</time>
      </trkpt>
      <trkpt lat="44.21741" lon="5.54545">
        <ele>782</ele>
        <time>2019-03-27T14:21:25Z</time>
      </trkpt>
      <trkpt lat="44.21738" lon="5.54537">
        <ele>782</ele>
        <time>2019-03-27T14:21:26Z</time>
      </trkpt>
      <trkpt lat="44.21735" lon="5.54528">
        <ele>782</ele>
        <time>2019-03-27T14:21:27Z</time>
      </trkpt>
      <trkpt lat="44.21731" lon="5.5452">
        <ele>782</ele>
        <time>2019-03-27T14:21:28Z</time>
      </trkpt>
      <trkpt lat="44.21728" lon="5.54511">
        <ele>782</ele>
        <time>2019-03-27T14:21:29Z</time>
      </trkpt>
      <trkpt lat="44.21726" lon="5.54502">
        <ele>782</ele>
        <time>2019-03-27T14:21:30Z</time>
      </trkpt>
      <trkpt lat="44.21723" lon="5.54494">
        <ele>782</ele>
        <time>2019-03-27T14:21:31Z</time>
      </trkpt>
      <trkpt lat="44.2172" lon="5.54485">
        <ele>782</ele>
        <time>2019-03-27T14:21:32Z</time>
      </trkpt>
      <trkpt lat="44.21717" lon="5.54476">
        <ele>782</ele>
        <time>2019-03-27T14:21:33Z</time>
      </trkpt>
      <trkpt lat="44.21713" lon="5.54468">
        <ele>782</ele>
        <time>2019-03-27T14:21:34Z</time>
      </trkpt>
      <trkpt lat="44.2171" lon="5.54459">
        <ele>782</ele>
        <time>2019-03-27T14:21:35Z</time>
      </trkpt>
      <trkpt lat="44.21707" lon="5.54451">
        <ele>782</ele>
        <time>2019-03-27T14:21:36Z</time>
      </trkpt>
      <trkpt lat="44.21703" lon="5.54442">
        <ele>782</ele>
        <time>2019-03-27T14:21:37Z</time>
      </trkpt>
      <trkpt lat="44.217" lon="5.54434">
        <ele>782</ele>
        <time>2019-03-27T14:21:38Z</time>
      </trkpt>
      <trkpt lat="44.21696" lon="5.54426">
        <ele>782</ele>
        <time>2019-03-27T14:21:39Z</time>
      </trkpt>
      <trkpt lat="44.21691" lon="5.54419">
        <ele>782</ele>
        <time>2019-03-27T14:21:40Z</time>
      </trkpt>
      <trkpt lat="44.21687" lon="5.54412">
        <ele>782</ele>
        <time>2019-03-27T14:21:41Z</time>
      </trkpt>
      <trkpt lat="44.21682" lon="5.54405">
        <ele>782</ele>
        <time>2019-03-27T14:21:42Z</time>
      </trkpt>
      <trkpt lat="44.21677" lon="5.54398">
        <ele>782</ele>
        <time>2019-03-27T14:21:43Z</time>
      </trkpt>
      <trkpt lat="44.21672" lon="5.54392">
        <ele>782</ele>
        <time>2019-03-27T14:21:44Z</time>
      </trkpt>
      <trkpt lat="44.21667" lon="5.54386">
        <ele>782</ele>
        <time>2019-03-27T14:21:45Z</time>
      </trkpt>
      <trkpt lat="44.21662" lon="5.54381">
        <ele>782</ele>
        <time>2019-03-27T14:21:46Z</time>
      </trkpt>
      <trkpt lat="44.21656" lon="5.54376">
        <ele>782</ele>
        <time>2019-03-27T14:21:47Z</time>
      </trkpt>
      <trkpt lat="44.21651" lon="5.54372">
        <ele>782</ele>
        <time>2019-03-27T14:21:48Z</time>
      </trkpt>
      <trkpt lat="44.21645" lon="5.54368">
        <ele>782</ele>
        <time>2019-03-27T14:21:49Z</time>
      </trkpt>
      <trkpt lat="44.21639" lon="5.54365">
        <ele>782</ele>
        <time>2019-03-27T14:21:50Z</time>
      </trkpt>
      <trkpt lat="44.21633" lon="5.54362">
        <ele>782</ele>
        <time>2019-03-27T14:21:51Z</time>
      </trkpt>
      <trkpt lat="44.21627" lon="5.54359">
        <ele>782</ele>
        <time>2019-03-27T14:21:52Z</time>
      </trkpt>
      <trkpt lat="44.21621" lon="5.54356">
        <ele>782</ele>
        <time>2019-03-27T14:21:53Z</time>
      </trkpt>
      <trkpt lat="44.21615" lon="5.54353">
        <ele>782</ele>
        <time>2019-03-27T14:21:54Z</time>
      </trkpt>
      <trkpt lat="44.21609" lon="5.5435">
        <ele>782</ele>
        <time>2019-03-27T14:21:55Z</time>
      </trkpt>
      <trkpt lat="44.21603" lon="5.54347">
        <ele>782</ele>
        <time>2019-03-27T14:21:56Z</time>
      </trkpt>
      <trkpt lat="44.21597" lon="5.54343">
        <ele>782</ele>
        <time>2019-03-27T14:21:57Z</time>
      </trkpt>
      <trkpt lat="44.21592" lon="5.54339">
        <ele>782</ele>
        <time>2019-03-27T14:21:58Z</time>
      </trkpt>
      <trkpt lat="44.21586" lon="5.54334">
        <ele>782</ele>
        <time>2019-03-27T14:21:59Z</time>
      </trkpt>
      <trkpt lat="44.21581" lon="5.54329">
        <ele>782</ele>
        <time>2019-03-27T14:22:00Z</time>
      </trkpt>
      <trkpt lat="44.21576" lon="5.54325">
        <ele>782</ele>
        <time>2019-03-27T14:22:01Z</time>
      </trkpt>
      <trkpt lat="44.2157" lon="5.5432">
        <ele>782</ele>
        <time>2019-03-27T14:22:02Z</time>
      </trkpt>
      <trkpt lat="44.21566" lon="5.54315">
        <ele>782</ele>
        <time>2019-03-27T14:22:03Z</time>
      </trkpt>
      <trkpt lat="44.21561" lon="5.5431">
        <ele>782</ele>
        <time>2019-03-27T14:22:04Z</time>
      </trkpt>
      <trkpt lat="44.21556" lon="5.54305">
        <ele>782</ele>
        <time>2019-03-27T14:22:05Z</time>
      </trkpt>
      <trkpt lat="44.21552" lon="5.543">
        <ele>782</ele>
        <time>2019-03-27T14:22:06Z</time>
      </trkpt>
      <trkpt lat="44.21548" lon="5.54295">
        <ele>782</ele>
        <time>2019-03-27T14:22:07Z</time>
      </trkpt>
      <trkpt lat="44.21544" lon="5.5429">
        <ele>782</ele>
        <time>2019-03-27T14:22:08Z</time>
      </trkpt>
      <trkpt lat="44.2154" lon="5.54286">
        <ele>782</ele>
        <time>2019-03-27T14:22:09Z</time>
      </trkpt>
      <trkpt lat="44.21535" lon="5.54281">
        <ele>782</ele>
        <time>2019-03-27T14:22:10Z</time>
      </trkpt>
      <trkpt lat="44.21531" lon="5.54277">
        <ele>782</ele>
        <time>2019-03-27T14:22:11Z</time>
      </trkpt>
      <trkpt lat="44.21527" lon="5.54272">
        <ele>782</ele>
        <time>2019-03-27T14:22:12Z</time>
      </trkpt>
      <trkpt lat="44.21523" lon="5.54267">
        <ele>782</ele>
        <time>2019-03-27T14:22:13Z</time>
      </trkpt>
      <trkpt lat="44.21519" lon="5.54263">
        <ele>782</ele>
        <time>2019-03-27T14:22:14Z</time>
      </trkpt>
      <trkpt lat="44.21515" lon="5.54258">
        <ele>782</ele>
        <time>2019-03-27T14:22:15Z</time>
      </trkpt>
      <trkpt lat="44.21511" lon="5.54253">
        <ele>782</ele>
        <time>2019-03-27T14:22:16Z</time>
      </trkpt>
      <trkpt lat="44.21507" lon="5.54249">
        <ele>782</ele>
        <time>2019-03-27T14:22:17Z</time>
      </trkpt>
      <trkpt lat="44.21503" lon="5.54245">
        <ele>782</ele>
        <time>2019-03-27T14:22:18Z</time>
      </trkpt>
      <trkpt lat="44.21499" lon="5.5424">
        <ele>782</ele>
        <time>2019-03-27T14:22:19Z</time>
      </trkpt>
      <trkpt lat="44.21495" lon="5.54236">
        <ele>782</ele>
        <time>2019-03-27T14:22:20Z</time>
      </trkpt>
      <trkpt lat="44.2149" lon="5.54231">
        <ele>782</ele>
        <time>2019-03-27T14:22:21Z</time>
      </trkpt>
      <trkpt lat="44.21486" lon="5.54227">
        <ele>782</ele>
        <time>2019-03-27T14:22:22Z</time>
      </trkpt>
      <trkpt lat="44.21482" lon="5.54222">
        <ele>782</ele>
        <time>2019-03-27T14:22:23Z</time>
      </trkpt>
      <trkpt lat="44.21478" lon="5.54217">
        <ele>782</ele>
        <time>2019-03-27T14:22:24Z</time>
      </trkpt>
      <trkpt lat="44.21474" lon="5.54213">
        <ele>782</ele>
        <time>2019-03-27T14:22:25Z</time>
      </trkpt>
      <trkpt lat="44.21469" lon="5.54208">
        <ele>782</ele>
        <time>2019-03-27T14:22:26Z</time>
      </trkpt>
      <trkpt lat="44.21465" lon="5.54203">
        <ele>782</ele>
        <time>2019-03-27T14:22:27Z</time>
      </trkpt>
      <trkpt lat="44.21461" lon="5.54199">
        <ele>782</ele>
        <time>2019-03-27T14:22:28Z</time>
      </trkpt>
      <trkpt lat="44.21457" lon="5.54193">
        <ele>782</ele>
        <time>2019-03-27T14:22:29Z</time>
      </trkpt>
      <trkpt lat="44.21453" lon="5.54189">
        <ele>782</ele>
        <time>2019-03-27T14:22:30Z</time>
      </trkpt>
      <trkpt lat="44.21449" lon="5.54184">
        <ele>782</ele>
        <time>2019-03-27T14:22:31Z</time>
      </trkpt>
      <trkpt lat="44.21445" lon="5.54179">
        <ele>782</ele>
        <time>2019-03-27T14:22:32Z</time>
      </trkpt>
      <trkpt lat="44.21441" lon="5.54175">
        <ele>782</ele>
        <time>2019-03-27T14:22:33Z</time>
      </trkpt>
      <trkpt lat="44.21437" lon="5.5417">
        <ele>782</ele>
        <time>2019-03-27T14:22:34Z</time>
      </trkpt>
      <trkpt lat="44.21433" lon="5.54165">
        <ele>782</ele>
        <time>2019-03-27T14:22:35Z</time>
      </trkpt>
      <trkpt lat="44.21429" lon="5.54161">
        <ele>783</ele>
        <time>2019-03-27T14:22:36Z</time>
      </trkpt>
      <trkpt lat="44.21425" lon="5.54156">
        <ele>783</ele>
        <time>2019-03-27T14:22:37Z</time>
      </trkpt>
      <trkpt lat="44.21421" lon="5.54152">
        <ele>783</ele>
        <time>2019-03-27T14:22:38Z</time>
      </trkpt>
      <trkpt lat="44.21417" lon="5.54147">
        <ele>783</ele>
        <time>2019-03-27T14:22:39Z</time>
      </trkpt>
      <trkpt lat="44.21413" lon="5.54143">
        <ele>783</ele>
        <time>2019-03-27T14:22:40Z</time>
      </trkpt>
      <trkpt lat="44.2141" lon="5.54139">
        <ele>783</ele>
        <time>2019-03-27T14:22:41Z</time>
      </trkpt>
      <trkpt lat="44.21406" lon="5.54135">
        <ele>784</ele>
        <time>2019-03-27T14:22:42Z</time>
      </trkpt>
      <trkpt lat="44.21402" lon="5.54131">
        <ele>784</ele>
        <time>2019-03-27T14:22:43Z</time>
      </trkpt>
      <trkpt lat="44.21398" lon="5.54127">
        <ele>784</ele>
        <time>2019-03-27T14:22:44Z</time>
      </trkpt>
      <trkpt lat="44.21395" lon="5.54123">
        <ele>784</ele>
        <time>2019-03-27T14:22:45Z</time>
      </trkpt>
      <trkpt lat="44.21391" lon="5.54118">
        <ele>784</ele>
        <time>2019-03-27T14:22:46Z</time>
      </trkpt>
      <trkpt lat="44.21387" lon="5.54114">
        <ele>784</ele>
        <time>2019-03-27T14:22:47Z</time>
      </trkpt>
      <trkpt lat="44.21384" lon="5.5411">
        <ele>785</ele>
        <time>2019-03-27T14:22:48Z</time>
      </trkpt>
      <trkpt lat="44.2138" lon="5.54106">
        <ele>785</ele>
        <time>2019-03-27T14:22:49Z</time>
      </trkpt>
      <trkpt lat="44.21377" lon="5.54102">
        <ele>785</ele>
        <time>2019-03-27T14:22:50Z</time>
      </trkpt>
      <trkpt lat="44.21373" lon="5.54098">
        <ele>785</ele>
        <time>2019-03-27T14:22:51Z</time>
      </trkpt>
      <trkpt lat="44.2137" lon="5.54094">
        <ele>785</ele>
        <time>2019-03-27T14:22:52Z</time>
      </trkpt>
      <trkpt lat="44.21366" lon="5.5409">
        <ele>785</ele>
        <time>2019-03-27T14:22:53Z</time>
      </trkpt>
      <trkpt lat="44.21362" lon="5.54085">
        <ele>786</ele>
        <time>2019-03-27T14:22:54Z</time>
      </trkpt>
      <trkpt lat="44.21358" lon="5.54081">
        <ele>786</ele>
        <time>2019-03-27T14:22:55Z</time>
      </trkpt>
      <trkpt lat="44.21354" lon="5.54076">
        <ele>786</ele>
        <time>2019-03-27T14:22:56Z</time>
      </trkpt>
      <trkpt lat="44.21349" lon="5.54071">
        <ele>786</ele>
        <time>2019-03-27T14:22:57Z</time>
      </trkpt>
      <trkpt lat="44.21345" lon="5.54067">
        <ele>786</ele>
        <time>2019-03-27T14:22:58Z</time>
      </trkpt>
      <trkpt lat="44.21341" lon="5.54063">
        <ele>786</ele>
        <time>2019-03-27T14:22:59Z</time>
      </trkpt>
      <trkpt lat="44.21337" lon="5.54059">
        <ele>786</ele>
        <time>2019-03-27T14:23:00Z</time>
      </trkpt>
      <trkpt lat="44.21333" lon="5.54055">
        <ele>786</ele>
        <time>2019-03-27T14:23:01Z</time>
      </trkpt>
      <trkpt lat="44.21328" lon="5.5405">
        <ele>786</ele>
        <time>2019-03-27T14:23:02Z</time>
      </trkpt>
      <trkpt lat="44.21324" lon="5.54047">
        <ele>786</ele>
        <time>2019-03-27T14:23:03Z</time>
      </trkpt>
      <trkpt lat="44.2132" lon="5.54043">
        <ele>786</ele>
        <time>2019-03-27T14:23:04Z</time>
      </trkpt>
      <trkpt lat="44.21315" lon="5.54039">
        <ele>786</ele>
        <time>2019-03-27T14:23:05Z</time>
      </trkpt>
      <trkpt lat="44.21311" lon="5.54036">
        <ele>786</ele>
        <time>2019-03-27T14:23:06Z</time>
      </trkpt>
      <trkpt lat="44.21307" lon="5.54033">
        <ele>786</ele>
        <time>2019-03-27T14:23:07Z</time>
      </trkpt>
      <trkpt lat="44.21302" lon="5.54029">
        <ele>786</ele>
        <time>2019-03-27T14:23:08Z</time>
      </trkpt>
      <trkpt lat="44.21298" lon="5.54026">
        <ele>786</ele>
        <time>2019-03-27T14:23:09Z</time>
      </trkpt>
      <trkpt lat="44.21293" lon="5.54023">
        <ele>786</ele>
        <time>2019-03-27T14:23:10Z</time>
      </trkpt>
      <trkpt lat="44.21289" lon="5.54021">
        <ele>786</ele>
        <time>2019-03-27T14:23:11Z</time>
      </trkpt>
      <trkpt lat="44.21284" lon="5.54018">
        <ele>786</ele>
        <time>2019-03-27T14:23:12Z</time>
      </trkpt>
      <trkpt lat="44.21279" lon="5.54015">
        <ele>786</ele>
        <time>2019-03-27T14:23:13Z</time>
      </trkpt>
      <trkpt lat="44.21275" lon="5.54012">
        <ele>786</ele>
        <time>2019-03-27T14:23:14Z</time>
      </trkpt>
      <trkpt lat="44.2127" lon="5.54009">
        <ele>786</ele>
        <time>2019-03-27T14:23:15Z</time>
      </trkpt>
      <trkpt lat="44.21265" lon="5.54006">
        <ele>786</ele>
        <time>2019-03-27T14:23:16Z</time>
      </trkpt>
      <trkpt lat="44.2126" lon="5.54003">
        <ele>787</ele>
        <time>2019-03-27T14:23:17Z</time>
      </trkpt>
      <trkpt lat="44.21255" lon="5.54001">
        <ele>787</ele>
        <time>2019-03-27T14:23:18Z</time>
      </trkpt>
      <trkpt lat="44.2125" lon="5.53998">
        <ele>787</ele>
        <time>2019-03-27T14:23:19Z</time>
      </trkpt>
      <trkpt lat="44.21245" lon="5.53995">
        <ele>787</ele>
        <time>2019-03-27T14:23:20Z</time>
      </trkpt>
      <trkpt lat="44.2124" lon="5.53993">
        <ele>787</ele>
        <time>2019-03-27T14:23:21Z</time>
      </trkpt>
      <trkpt lat="44.21235" lon="5.5399">
        <ele>787</ele>
        <time>2019-03-27T14:23:22Z</time>
      </trkpt>
      <trkpt lat="44.2123" lon="5.53987">
        <ele>787</ele>
        <time>2019-03-27T14:23:23Z</time>
      </trkpt>
      <trkpt lat="44.21225" lon="5.53984">
        <ele>787</ele>
        <time>2019-03-27T14:23:24Z</time>
      </trkpt>
      <trkpt lat="44.2122" lon="5.53981">
        <ele>787</ele>
        <time>2019-03-27T14:23:25Z</time>
      </trkpt>
      <trkpt lat="44.21215" lon="5.53979">
        <ele>788</ele>
        <time>2019-03-27T14:23:26Z</time>
      </trkpt>
      <trkpt lat="44.2121" lon="5.53976">
        <ele>788</ele>
        <time>2019-03-27T14:23:27Z</time>
      </trkpt>
      <trkpt lat="44.21204" lon="5.53973">
        <ele>788</ele>
        <time>2019-03-27T14:23:28Z</time>
      </trkpt>
      <trkpt lat="44.21199" lon="5.53971">
        <ele>788</ele>
        <time>2019-03-27T14:23:29Z</time>
      </trkpt>
      <trkpt lat="44.21194" lon="5.53968">
        <ele>788</ele>
        <time>2019-03-27T14:23:30Z</time>
      </trkpt>
      <trkpt lat="44.21189" lon="5.53965">
        <ele>788</ele>
        <time>2019-03-27T14:23:31Z</time>
      </trkpt>
      <trkpt lat="44.21184" lon="5.53962">
        <ele>788</ele>
        <time>2019-03-27T14:23:32Z</time>
      </trkpt>
      <trkpt lat="44.21179" lon="5.53959">
        <ele>789</ele>
        <time>2019-03-27T14:23:33Z</time>
      </trkpt>
      <trkpt lat="44.21174" lon="5.53956">
        <ele>789</ele>
        <time>2019-03-27T14:23:34Z</time>
      </trkpt>
      <trkpt lat="44.21169" lon="5.53954">
        <ele>789</ele>
        <time>2019-03-27T14:23:35Z</time>
      </trkpt>
      <trkpt lat="44.21164" lon="5.53951">
        <ele>789</ele>
        <time>2019-03-27T14:23:36Z</time>
      </trkpt>
      <trkpt lat="44.21159" lon="5.53948">
        <ele>789</ele>
        <time>2019-03-27T14:23:37Z</time>
      </trkpt>
      <trkpt lat="44.21154" lon="5.53946">
        <ele>789</ele>
        <time>2019-03-27T14:23:38Z</time>
      </trkpt>
      <trkpt lat="44.21149" lon="5.53943">
        <ele>789</ele>
        <time>2019-03-27T14:23:39Z</time>
      </trkpt>
      <trkpt lat="44.21144" lon="5.5394">
        <ele>789</ele>
        <time>2019-03-27T14:23:40Z</time>
      </trkpt>
      <trkpt lat="44.2114" lon="5.53937">
        <ele>790</ele>
        <time>2019-03-27T14:23:41Z</time>
      </trkpt>
      <trkpt lat="44.21135" lon="5.53935">
        <ele>790</ele>
        <time>2019-03-27T14:23:42Z</time>
      </trkpt>
      <trkpt lat="44.2113" lon="5.53933">
        <ele>790</ele>
        <time>2019-03-27T14:23:43Z</time>
      </trkpt>
      <trkpt lat="44.21125" lon="5.5393">
        <ele>790</ele>
        <time>2019-03-27T14:23:44Z</time>
      </trkpt>
      <trkpt lat="44.2112" lon="5.53927">
        <ele>790</ele>
        <time>2019-03-27T14:23:45Z</time>
      </trkpt>
      <trkpt lat="44.21115" lon="5.53925">
        <ele>790</ele>
        <time>2019-03-27T14:23:46Z</time>
      </trkpt>
      <trkpt lat="44.21111" lon="5.53922">
        <ele>791</ele>
        <time>2019-03-27T14:23:47Z</time>
      </trkpt>
      <trkpt lat="44.21106" lon="5.5392">
        <ele>791</ele>
        <time>2019-03-27T14:23:48Z</time>
      </trkpt>
      <trkpt lat="44.21101" lon="5.53917">
        <ele>791</ele>
        <time>2019-03-27T14:23:49Z</time>
      </trkpt>
      <trkpt lat="44.21097" lon="5.53914">
        <ele>791</ele>
        <time>2019-03-27T14:23:50Z</time>
      </trkpt>
      <trkpt lat="44.21092" lon="5.53911">
        <ele>791</ele>
        <time>2019-03-27T14:23:51Z</time>
      </trkpt>
      <trkpt lat="44.21087" lon="5.53908">
        <ele>791</ele>
        <time>2019-03-27T14:23:52Z</time>
      </trkpt>
      <trkpt lat="44.21082" lon="5.53905">
        <ele>791</ele>
        <time>2019-03-27T14:23:53Z</time>
      </trkpt>
      <trkpt lat="44.21077" lon="5.53902">
        <ele>791</ele>
        <time>2019-03-27T14:23:54Z</time>
      </trkpt>
      <trkpt lat="44.21073" lon="5.53898">
        <ele>791</ele>
        <time>2019-03-27T14:23:55Z</time>
      </trkpt>
      <trkpt lat="44.21068" lon="5.53895">
        <ele>791</ele>
        <time>2019-03-27T14:23:56Z</time>
      </trkpt>
      <trkpt lat="44.21064" lon="5.53892">
        <ele>791</ele>
        <time>2019-03-27T14:23:57Z</time>
      </trkpt>
      <trkpt lat="44.21059" lon="5.53888">
        <ele>792</ele>
        <time>2019-03-27T14:23:58Z</time>
      </trkpt>
      <trkpt lat="44.21054" lon="5.53884">
        <ele>792</ele>
        <time>2019-03-27T14:23:59Z</time>
      </trkpt>
      <trkpt lat="44.2105" lon="5.5388">
        <ele>792</ele>
        <time>2019-03-27T14:24:00Z</time>
      </trkpt>
      <trkpt lat="44.21046" lon="5.53876">
        <ele>792</ele>
        <time>2019-03-27T14:24:01Z</time>
      </trkpt>
      <trkpt lat="44.21041" lon="5.53872">
        <ele>792</ele>
        <time>2019-03-27T14:24:02Z</time>
      </trkpt>
      <trkpt lat="44.21037" lon="5.53868">
        <ele>792</ele>
        <time>2019-03-27T14:24:03Z</time>
      </trkpt>
      <trkpt lat="44.21032" lon="5.53864">
        <ele>792</ele>
        <time>2019-03-27T14:24:04Z</time>
      </trkpt>
      <trkpt lat="44.21028" lon="5.53859">
        <ele>792</ele>
        <time>2019-03-27T14:24:05Z</time>
      </trkpt>
      <trkpt lat="44.21024" lon="5.53855">
        <ele>792</ele>
        <time>2019-03-27T14:24:06Z</time>
      </trkpt>
      <trkpt lat="44.2102" lon="5.5385">
        <ele>792</ele>
        <time>2019-03-27T14:24:07Z</time>
      </trkpt>
      <trkpt lat="44.21016" lon="5.53845">
        <ele>792</ele>
        <time>2019-03-27T14:24:08Z</time>
      </trkpt>
      <trkpt lat="44.21012" lon="5.5384">
        <ele>792</ele>
        <time>2019-03-27T14:24:09Z</time>
      </trkpt>
      <trkpt lat="44.21009" lon="5.53835">
        <ele>792</ele>
        <time>2019-03-27T14:24:10Z</time>
      </trkpt>
      <trkpt lat="44.21005" lon="5.5383">
        <ele>792</ele>
        <time>2019-03-27T14:24:11Z</time>
      </trkpt>
      <trkpt lat="44.21002" lon="5.53824">
        <ele>793</ele>
        <time>2019-03-27T14:24:12Z</time>
      </trkpt>
      <trkpt lat="44.20998" lon="5.53819">
        <ele>793</ele>
        <time>2019-03-27T14:24:13Z</time>
      </trkpt>
      <trkpt lat="44.20995" lon="5.53813">
        <ele>793</ele>
        <time>2019-03-27T14:24:14Z</time>
      </trkpt>
      <trkpt lat="44.20991" lon="5.53808">
        <ele>793</ele>
        <time>2019-03-27T14:24:15Z</time>
      </trkpt>
      <trkpt lat="44.20988" lon="5.53802">
        <ele>793</ele>
        <time>2019-03-27T14:24:16Z</time>
      </trkpt>
      <trkpt lat="44.20985" lon="5.53796">
        <ele>793</ele>
        <time>2019-03-27T14:24:17Z</time>
      </trkpt>
      <trkpt lat="44.20981" lon="5.5379">
        <ele>794</ele>
        <time>2019-03-27T14:24:18Z</time>
      </trkpt>
      <trkpt lat="44.20978" lon="5.53784">
        <ele>794</ele>
        <time>2019-03-27T14:24:19Z</time>
      </trkpt>
      <trkpt lat="44.20975" lon="5.53777">
        <ele>794</ele>
        <time>2019-03-27T14:24:20Z</time>
      </trkpt>
      <trkpt lat="44.20972" lon="5.5377">
        <ele>794</ele>
        <time>2019-03-27T14:24:21Z</time>
      </trkpt>
      <trkpt lat="44.20969" lon="5.53764">
        <ele>794</ele>
        <time>2019-03-27T14:24:22Z</time>
      </trkpt>
      <trkpt lat="44.20967" lon="5.53757">
        <ele>794</ele>
        <time>2019-03-27T14:24:23Z</time>
      </trkpt>
      <trkpt lat="44.20964" lon="5.53749">
        <ele>794</ele>
        <time>2019-03-27T14:24:24Z</time>
      </trkpt>
      <trkpt lat="44.20961" lon="5.53742">
        <ele>794</ele>
        <time>2019-03-27T14:24:25Z</time>
      </trkpt>
      <trkpt lat="44.20959" lon="5.53735">
        <ele>794</ele>
        <time>2019-03-27T14:24:26Z</time>
      </trkpt>
      <trkpt lat="44.20956" lon="5.53728">
        <ele>794</ele>
        <time>2019-03-27T14:24:27Z</time>
      </trkpt>
      <trkpt lat="44.20953" lon="5.53721">
        <ele>794</ele>
        <time>2019-03-27T14:24:28Z</time>
      </trkpt>
      <trkpt lat="44.20951" lon="5.53713">
        <ele>794</ele>
        <time>2019-03-27T14:24:29Z</time>
      </trkpt>
      <trkpt lat="44.20948" lon="5.53706">
        <ele>794</ele>
        <time>2019-03-27T14:24:30Z</time>
      </trkpt>
      <trkpt lat="44.20945" lon="5.53698">
        <ele>794</ele>
        <time>2019-03-27T14:24:31Z</time>
      </trkpt>
      <trkpt lat="44.20942" lon="5.5369">
        <ele>795</ele>
        <time>2019-03-27T14:24:32Z</time>
      </trkpt>
      <trkpt lat="44.20939" lon="5.53683">
        <ele>795</ele>
        <time>2019-03-27T14:24:33Z</time>
      </trkpt>
      <trkpt lat="44.20936" lon="5.53676">
        <ele>795</ele>
        <time>2019-03-27T14:24:34Z</time>
      </trkpt>
      <trkpt lat="44.20933" lon="5.53668">
        <ele>795</ele>
        <time>2019-03-27T14:24:35Z</time>
      </trkpt>
      <trkpt lat="44.20929" lon="5.53661">
        <ele>795</ele>
        <time>2019-03-27T14:24:36Z</time>
      </trkpt>
      <trkpt lat="44.20924" lon="5.53655">
        <ele>795</ele>
        <time>2019-03-27T14:24:37Z</time>
      </trkpt>
      <trkpt lat="44.20919" lon="5.53649">
        <ele>795</ele>
        <time>2019-03-27T14:24:38Z</time>
      </trkpt>
      <trkpt lat="44.20913" lon="5.53645">
        <ele>795</ele>
        <time>2019-03-27T14:24:39Z</time>
      </trkpt>
      <trkpt lat="44.20907" lon="5.53642">
        <ele>795</ele>
        <time>2019-03-27T14:24:40Z</time>
      </trkpt>
      <trkpt lat="44.209" lon="5.5364">
        <ele>796</ele>
        <time>2019-03-27T14:24:41Z</time>
      </trkpt>
      <trkpt lat="44.20893" lon="5.53641">
        <ele>796</ele>
        <time>2019-03-27T14:24:42Z</time>
      </trkpt>
      <trkpt lat="44.20886" lon="5.53641">
        <ele>796</ele>
        <time>2019-03-27T14:24:43Z</time>
      </trkpt>
      <trkpt lat="44.20879" lon="5.53643">
        <ele>796</ele>
        <time>2019-03-27T14:24:44Z</time>
      </trkpt>
      <trkpt lat="44.20872" lon="5.53644">
        <ele>796</ele>
        <time>2019-03-27T14:24:45Z</time>
      </trkpt>
      <trkpt lat="44.20865" lon="5.53646">
        <ele>796</ele>
        <time>2019-03-27T14:24:46Z</time>
      </trkpt>
      <trkpt lat="44.20858" lon="5.53647">
        <ele>796</ele>
        <time>2019-03-27T14:24:47Z</time>
      </trkpt>
      <trkpt lat="44.20851" lon="5.53649">
        <ele>796</ele>
        <time>2019-03-27T14:24:48Z</time>
      </trkpt>
      <trkpt lat="44.20844" lon="5.53651">
        <ele>796</ele>
        <time>2019-03-27T14:24:49Z</time>
      </trkpt>
      <trkpt lat="44.20837" lon="5.53652">
        <ele>796</ele>
        <time>2019-03-27T14:24:50Z</time>
      </trkpt>
      <trkpt lat="44.20831" lon="5.53654">
        <ele>796</ele>
        <time>2019-03-27T14:24:51Z</time>
      </trkpt>
      <trkpt lat="44.20824" lon="5.53655">
        <ele>796</ele>
        <time>2019-03-27T14:24:52Z</time>
      </trkpt>
      <trkpt lat="44.20818" lon="5.53656">
        <ele>796</ele>
        <time>2019-03-27T14:24:53Z</time>
      </trkpt>
      <trkpt lat="44.20811" lon="5.53657">
        <ele>796</ele>
        <time>2019-03-27T14:24:54Z</time>
      </trkpt>
      <trkpt lat="44.20805" lon="5.53658">
        <ele>796</ele>
        <time>2019-03-27T14:24:55Z</time>
      </trkpt>
      <trkpt lat="44.20799" lon="5.5366">
        <ele>796</ele>
        <time>2019-03-27T14:24:56Z</time>
      </trkpt>
      <trkpt lat="44.20792" lon="5.5366">
        <ele>796</ele>
        <time>2019-03-27T14:24:57Z</time>
      </trkpt>
      <trkpt lat="44.20786" lon="5.5366">
        <ele>796</ele>
        <time>2019-03-27T14:24:58Z</time>
      </trkpt>
      <trkpt lat="44.2078" lon="5.53659">
        <ele>796</ele>
        <time>2019-03-27T14:24:59Z</time>
      </trkpt>
      <trkpt lat="44.20773" lon="5.53657">
        <ele>795</ele>
        <time>2019-03-27T14:25:00Z</time>
      </trkpt>
      <trkpt lat="44.20767" lon="5.53655">
        <ele>794</ele>
        <time>2019-03-27T14:25:01Z</time>
      </trkpt>
      <trkpt lat="44.20761" lon="5.53653">
        <ele>794</ele>
        <time>2019-03-27T14:25:02Z</time>
      </trkpt>
      <trkpt lat="44.20756" lon="5.53651">
        <ele>793</ele>
        <time>2019-03-27T14:25:03Z</time>
      </trkpt>
      <trkpt lat="44.2075" lon="5.53649">
        <ele>793</ele>
        <time>2019-03-27T14:25:04Z</time>
      </trkpt>
      <trkpt lat="44.20744" lon="5.53647">
        <ele>792</ele>
        <time>2019-03-27T14:25:05Z</time>
      </trkpt>
      <trkpt lat="44.20739" lon="5.53646">
        <ele>792</ele>
        <time>2019-03-27T14:25:06Z</time>
      </trkpt>
      <trkpt lat="44.20733" lon="5.53644">
        <ele>792</ele>
        <time>2019-03-27T14:25:07Z</time>
      </trkpt>
      <trkpt lat="44.20727" lon="5.53642">
        <ele>792</ele>
        <time>2019-03-27T14:25:08Z</time>
      </trkpt>
      <trkpt lat="44.20721" lon="5.53641">
        <ele>792</ele>
        <time>2019-03-27T14:25:09Z</time>
      </trkpt>
      <trkpt lat="44.20715" lon="5.5364">
        <ele>792</ele>
        <time>2019-03-27T14:25:10Z</time>
      </trkpt>
      <trkpt lat="44.20708" lon="5.53639">
        <ele>792</ele>
        <time>2019-03-27T14:25:11Z</time>
      </trkpt>
      <trkpt lat="44.20702" lon="5.53638">
        <ele>792</ele>
        <time>2019-03-27T14:25:12Z</time>
      </trkpt>
      <trkpt lat="44.20695" lon="5.53637">
        <ele>792</ele>
        <time>2019-03-27T14:25:13Z</time>
      </trkpt>
      <trkpt lat="44.20689" lon="5.53637">
        <ele>792</ele>
        <time>2019-03-27T14:25:14Z</time>
      </trkpt>
      <trkpt lat="44.20683" lon="5.53637">
        <ele>792</ele>
        <time>2019-03-27T14:25:15Z</time>
      </trkpt>
      <trkpt lat="44.20678" lon="5.53637">
        <ele>792</ele>
        <time>2019-03-27T14:25:16Z</time>
      </trkpt>
      <trkpt lat="44.20671" lon="5.53638">
        <ele>793</ele>
        <time>2019-03-27T14:25:17Z</time>
      </trkpt>
      <trkpt lat="44.20665" lon="5.53639">
        <ele>794</ele>
        <time>2019-03-27T14:25:18Z</time>
      </trkpt>
      <trkpt lat="44.20659" lon="5.53641">
        <ele>795</ele>
        <time>2019-03-27T14:25:19Z</time>
      </trkpt>
      <trkpt lat="44.20652" lon="5.53643">
        <ele>795</ele>
        <time>2019-03-27T14:25:20Z</time>
      </trkpt>
      <trkpt lat="44.20647" lon="5.53645">
        <ele>796</ele>
        <time>2019-03-27T14:25:21Z</time>
      </trkpt>
      <trkpt lat="44.20642" lon="5.53647">
        <ele>797</ele>
        <time>2019-03-27T14:25:22Z</time>
      </trkpt>
      <trkpt lat="44.20637" lon="5.53649">
        <ele>797</ele>
        <time>2019-03-27T14:25:23Z</time>
      </trkpt>
      <trkpt lat="44.20631" lon="5.53652">
        <ele>797</ele>
        <time>2019-03-27T14:25:24Z</time>
      </trkpt>
      <trkpt lat="44.20626" lon="5.53656">
        <ele>797</ele>
        <time>2019-03-27T14:25:25Z</time>
      </trkpt>
      <trkpt lat="44.2062" lon="5.53659">
        <ele>797</ele>
        <time>2019-03-27T14:25:26Z</time>
      </trkpt>
      <trkpt lat="44.20614" lon="5.53663">
        <ele>797</ele>
        <time>2019-03-27T14:25:27Z</time>
      </trkpt>
      <trkpt lat="44.20609" lon="5.53666">
        <ele>797</ele>
        <time>2019-03-27T14:25:28Z</time>
      </trkpt>
      <trkpt lat="44.20603" lon="5.5367">
        <ele>797</ele>
        <time>2019-03-27T14:25:29Z</time>
      </trkpt>
      <trkpt lat="44.20598" lon="5.53672">
        <ele>797</ele>
        <time>2019-03-27T14:25:30Z</time>
      </trkpt>
      <trkpt lat="44.20593" lon="5.53674">
        <ele>797</ele>
        <time>2019-03-27T14:25:31Z</time>
      </trkpt>
      <trkpt lat="44.20588" lon="5.53676">
        <ele>797</ele>
        <time>2019-03-27T14:25:32Z</time>
      </trkpt>
      <trkpt lat="44.20583" lon="5.53678">
        <ele>797</ele>
        <time>2019-03-27T14:25:33Z</time>
      </trkpt>
      <trkpt lat="44.20577" lon="5.5368">
        <ele>797</ele>
        <time>2019-03-27T14:25:34Z</time>
      </trkpt>
      <trkpt lat="44.20572" lon="5.53682">
        <ele>796</ele>
        <time>2019-03-27T14:25:35Z</time>
      </trkpt>
      <trkpt lat="44.20567" lon="5.53683">
        <ele>796</ele>
        <time>2019-03-27T14:25:36Z</time>
      </trkpt>
      <trkpt lat="44.20562" lon="5.53683">
        <ele>795</ele>
        <time>2019-03-27T14:25:37Z</time>
      </trkpt>
      <trkpt lat="44.20555" lon="5.53681">
        <ele>795</ele>
        <time>2019-03-27T14:25:38Z</time>
      </trkpt>
      <trkpt lat="44.2055" lon="5.53679">
        <ele>795</ele>
        <time>2019-03-27T14:25:39Z</time>
      </trkpt>
      <trkpt lat="44.20544" lon="5.53677">
        <ele>795</ele>
        <time>2019-03-27T14:25:40Z</time>
      </trkpt>
      <trkpt lat="44.20537" lon="5.53675">
        <ele>795</ele>
        <time>2019-03-27T14:25:41Z</time>
      </trkpt>
      <trkpt lat="44.20531" lon="5.53673">
        <ele>795</ele>
        <time>2019-03-27T14:25:42Z</time>
      </trkpt>
      <trkpt lat="44.20525" lon="5.53673">
        <ele>795</ele>
        <time>2019-03-27T14:25:43Z</time>
      </trkpt>
      <trkpt lat="44.20518" lon="5.53672">
        <ele>795</ele>
        <time>2019-03-27T14:25:44Z</time>
      </trkpt>
      <trkpt lat="44.20512" lon="5.5367">
        <ele>795</ele>
        <time>2019-03-27T14:25:45Z</time>
      </trkpt>
      <trkpt lat="44.20507" lon="5.53667">
        <ele>796</ele>
        <time>2019-03-27T14:25:46Z</time>
      </trkpt>
      <trkpt lat="44.20502" lon="5.53664">
        <ele>797</ele>
        <time>2019-03-27T14:25:47Z</time>
      </trkpt>
      <trkpt lat="44.20499" lon="5.53661">
        <ele>798</ele>
        <time>2019-03-27T14:25:48Z</time>
      </trkpt>
      <trkpt lat="44.20494" lon="5.53658">
        <ele>798</ele>
        <time>2019-03-27T14:25:49Z</time>
      </trkpt>
      <trkpt lat="44.2049" lon="5.53656">
        <ele>799</ele>
        <time>2019-03-27T14:25:50Z</time>
      </trkpt>
      <trkpt lat="44.20486" lon="5.53653">
        <ele>799</ele>
        <time>2019-03-27T14:25:51Z</time>
      </trkpt>
      <trkpt lat="44.20481" lon="5.53651">
        <ele>800</ele>
        <time>2019-03-27T14:25:52Z</time>
      </trkpt>
      <trkpt lat="44.20477" lon="5.5365">
        <ele>800</ele>
        <time>2019-03-27T14:25:53Z</time>
      </trkpt>
      <trkpt lat="44.20472" lon="5.53648">
        <ele>801</ele>
        <time>2019-03-27T14:25:54Z</time>
      </trkpt>
      <trkpt lat="44.20468" lon="5.53645">
        <ele>802</ele>
        <time>2019-03-27T14:25:55Z</time>
      </trkpt>
      <trkpt lat="44.20463" lon="5.53641">
        <ele>803</ele>
        <time>2019-03-27T14:25:56Z</time>
      </trkpt>
      <trkpt lat="44.20459" lon="5.53638">
        <ele>804</ele>
        <time>2019-03-27T14:25:57Z</time>
      </trkpt>
      <trkpt lat="44.20454" lon="5.53636">
        <ele>805</ele>
        <time>2019-03-27T14:25:58Z</time>
      </trkpt>
      <trkpt lat="44.20449" lon="5.53633">
        <ele>805</ele>
        <time>2019-03-27T14:25:59Z</time>
      </trkpt>
      <trkpt lat="44.20444" lon="5.53631">
        <ele>806</ele>
        <time>2019-03-27T14:26:00Z</time>
      </trkpt>
      <trkpt lat="44.20439" lon="5.5363">
        <ele>806</ele>
        <time>2019-03-27T14:26:01Z</time>
      </trkpt>
      <trkpt lat="44.20434" lon="5.5363">
        <ele>806</ele>
        <time>2019-03-27T14:26:02Z</time>
      </trkpt>
      <trkpt lat="44.20429" lon="5.5363">
        <ele>807</ele>
        <time>2019-03-27T14:26:03Z</time>
      </trkpt>
      <trkpt lat="44.20424" lon="5.53631">
        <ele>808</ele>
        <time>2019-03-27T14:26:04Z</time>
      </trkpt>
      <trkpt lat="44.20419" lon="5.53632">
        <ele>809</ele>
        <time>2019-03-27T14:26:05Z</time>
      </trkpt>
      <trkpt lat="44.20414" lon="5.53633">
        <ele>810</ele>
        <time>2019-03-27T14:26:06Z</time>
      </trkpt>
      <trkpt lat="44.20408" lon="5.53633">
        <ele>811</ele>
        <time>2019-03-27T14:26:07Z</time>
      </trkpt>
      <trkpt lat="44.20404" lon="5.53634">
        <ele>812</ele>
        <time>2019-03-27T14:26:08Z</time>
      </trkpt>
      <trkpt lat="44.20399" lon="5.53634">
        <ele>812</ele>
        <time>2019-03-27T14:26:09Z</time>
      </trkpt>
      <trkpt lat="44.20396" lon="5.53633">
        <ele>812</ele>
        <time>2019-03-27T14:26:10Z</time>
      </trkpt>
      <trkpt lat="44.20392" lon="5.53633">
        <ele>812</ele>
        <time>2019-03-27T14:26:11Z</time>
      </trkpt>
      <trkpt lat="44.20389" lon="5.53635">
        <ele>812</ele>
        <time>2019-03-27T14:26:12Z</time>
      </trkpt>
      <trkpt lat="44.20384" lon="5.53637">
        <ele>812</ele>
        <time>2019-03-27T14:26:13Z</time>
      </trkpt>
      <trkpt lat="44.2038" lon="5.5364">
        <ele>812</ele>
        <time>2019-03-27T14:26:14Z</time>
      </trkpt>
      <trkpt lat="44.20375" lon="5.53641">
        <ele>812</ele>
        <time>2019-03-27T14:26:15Z</time>
      </trkpt>
      <trkpt lat="44.20371" lon="5.53642">
        <ele>812</ele>
        <time>2019-03-27T14:26:16Z</time>
      </trkpt>
      <trkpt lat="44.20367" lon="5.53644">
        <ele>812</ele>
        <time>2019-03-27T14:26:17Z</time>
      </trkpt>
      <trkpt lat="44.20362" lon="5.53646">
        <ele>812</ele>
        <time>2019-03-27T14:26:18Z</time>
      </trkpt>
      <trkpt lat="44.20358" lon="5.53648">
        <ele>812</ele>
        <time>2019-03-27T14:26:19Z</time>
      </trkpt>
      <trkpt lat="44.20345" lon="5.53655">
        <ele>812</ele>
        <time>2019-03-27T14:26:22Z</time>
      </trkpt>
      <trkpt lat="44.2034" lon="5.53657">
        <ele>811</ele>
        <time>2019-03-27T14:26:23Z</time>
      </trkpt>
      <trkpt lat="44.20336" lon="5.53658">
        <ele>810</ele>
        <time>2019-03-27T14:26:24Z</time>
      </trkpt>
      <trkpt lat="44.20332" lon="5.53659">
        <ele>809</ele>
        <time>2019-03-27T14:26:25Z</time>
      </trkpt>
      <trkpt lat="44.20329" lon="5.5366">
        <ele>809</ele>
        <time>2019-03-27T14:26:26Z</time>
      </trkpt>
      <trkpt lat="44.20326" lon="5.5366">
        <ele>809</ele>
        <time>2019-03-27T14:26:27Z</time>
      </trkpt>
      <trkpt lat="44.20324" lon="5.5366">
        <ele>808</ele>
        <time>2019-03-27T14:26:28Z</time>
      </trkpt>
      <trkpt lat="44.20322" lon="5.53661">
        <ele>808</ele>
        <time>2019-03-27T14:26:29Z</time>
      </trkpt>
      <trkpt lat="44.20321" lon="5.53663">
        <ele>808</ele>
        <time>2019-03-27T14:26:31Z</time>
      </trkpt>
      <trkpt lat="44.2032" lon="5.53663">
        <ele>807</ele>
        <time>2019-03-27T14:26:37Z</time>
      </trkpt>
      <trkpt lat="44.20319" lon="5.53662">
        <ele>807</ele>
        <time>2019-03-27T14:26:40Z</time>
      </trkpt>
      <trkpt lat="44.20317" lon="5.53662">
        <ele>805</ele>
        <time>2019-03-27T14:26:46Z</time>
      </trkpt>
      <trkpt lat="44.20318" lon="5.53664">
        <ele>804</ele>
        <time>2019-03-27T14:27:05Z</time>
      </trkpt>
      <trkpt lat="44.20318" lon="5.53665">
        <ele>804</ele>
        <time>2019-03-27T14:27:08Z</time>
      </trkpt>
      <trkpt lat="44.20318" lon="5.53664">
        <ele>804</ele>
        <time>2019-03-27T14:27:10Z</time>
      </trkpt>
      <trkpt lat="44.20317" lon="5.53662">
        <ele>802</ele>
        <time>2019-03-27T14:27:17Z</time>
      </trkpt>
      <trkpt lat="44.20319" lon="5.53663">
        <ele>802</ele>
        <time>2019-03-27T14:27:27Z</time>
      </trkpt>
      <trkpt lat="44.20319" lon="5.53665">
        <ele>802</ele>
        <time>2019-03-27T14:27:44Z</time>
      </trkpt>
      <trkpt lat="44.20319" lon="5.53663">
        <ele>802</ele>
        <time>2019-03-27T14:27:57Z</time>
      </trkpt>
      <trkpt lat="44.20319" lon="5.53662">
        <ele>802</ele>
        <time>2019-03-27T14:27:58Z</time>
      </trkpt>
      <trkpt lat="44.20318" lon="5.5366">
        <ele>802</ele>
        <time>2019-03-27T14:28:00Z</time>
      </trkpt>
      <trkpt lat="44.20318" lon="5.53658">
        <ele>802</ele>
        <time>2019-03-27T14:28:07Z</time>
      </trkpt>
      <trkpt lat="44.20319" lon="5.53657">
        <ele>802</ele>
        <time>2019-03-27T14:28:22Z</time>
      </trkpt>
      <trkpt lat="44.20319" lon="5.53656">
        <ele>798</ele>
        <time>2019-03-27T14:28:30Z</time>
      </trkpt>
      <trkpt lat="44.20319" lon="5.53657">
        <ele>795</ele>
        <time>2019-03-27T14:28:42Z</time>
      </trkpt>
      <trkpt lat="44.2032" lon="5.53658">
        <ele>795</ele>
        <time>2019-03-27T14:29:03Z</time>
      </trkpt>
      <trkpt lat="44.20321" lon="5.53659">
        <ele>796</ele>
        <time>2019-03-27T14:29:33Z</time>
      </trkpt>
      <trkpt lat="44.20322" lon="5.5366">
        <ele>796</ele>
        <time>2019-03-27T14:29:39Z</time>
      </trkpt>
      <trkpt lat="44.20321" lon="5.53661">
        <ele>796</ele>
        <time>2019-03-27T14:29:45Z</time>
      </trkpt>
      <trkpt lat="44.2032" lon="5.53662">
        <ele>797</ele>
        <time>2019-03-27T14:29:49Z</time>
      </trkpt>
      <trkpt lat="44.20319" lon="5.53662">
        <ele>798</ele>
        <time>2019-03-27T14:29:56Z</time>
      </trkpt>
      <trkpt lat="44.20318" lon="5.5366">
        <ele>798</ele>
        <time>2019-03-27T14:30:31Z</time>
      </trkpt>
      <trkpt lat="44.20318" lon="5.53662">
        <ele>801</ele>
        <time>2019-03-27T14:30:49Z</time>
      </trkpt>
      <trkpt lat="44.20319" lon="5.53663">
        <ele>801</ele>
        <time>2019-03-27T14:30:51Z</time>
      </trkpt>
      <trkpt lat="44.20319" lon="5.53665">
        <ele>802</ele>
        <time>2019-03-27T14:30:54Z</time>
      </trkpt>
      <trkpt lat="44.20318" lon="5.53666">
        <ele>803</ele>
        <time>2019-03-27T14:30:58Z</time>
      </trkpt>
      <trkpt lat="44.20318" lon="5.53665">
        <ele>803</ele>
        <time>2019-03-27T14:31:11Z</time>
      </trkpt>
      <trkpt lat="44.20317" lon="5.53666">
        <ele>803</ele>
        <time>2019-03-27T14:31:25Z</time>
      </trkpt>
      <trkpt lat="44.20315" lon="5.53666">
        <ele>803</ele>
        <time>2019-03-27T14:31:27Z</time>
      </trkpt>
      <trkpt lat="44.20313" lon="5.53667">
        <ele>803</ele>
        <time>2019-03-27T14:31:29Z</time>
      </trkpt>
      <trkpt lat="44.20311" lon="5.53668">
        <ele>803</ele>
        <time>2019-03-27T14:31:30Z</time>
      </trkpt>
      <trkpt lat="44.20309" lon="5.5367">
        <ele>803</ele>
        <time>2019-03-27T14:31:31Z</time>
      </trkpt>
      <trkpt lat="44.20308" lon="5.53671">
        <ele>803</ele>
        <time>2019-03-27T14:31:32Z</time>
      </trkpt>
      <trkpt lat="44.20305" lon="5.53671">
        <ele>803</ele>
        <time>2019-03-27T14:31:33Z</time>
      </trkpt>
      <trkpt lat="44.20302" lon="5.53671">
        <ele>803</ele>
        <time>2019-03-27T14:31:34Z</time>
      </trkpt>
      <trkpt lat="44.20298" lon="5.53673">
        <ele>803</ele>
        <time>2019-03-27T14:31:35Z</time>
      </trkpt>
      <trkpt lat="44.20295" lon="5.53675">
        <ele>803</ele>
        <time>2019-03-27T14:31:36Z</time>
      </trkpt>
      <trkpt lat="44.20292" lon="5.53677">
        <ele>803</ele>
        <time>2019-03-27T14:31:37Z</time>
      </trkpt>
      <trkpt lat="44.20288" lon="5.53678">
        <ele>803</ele>
        <time>2019-03-27T14:31:38Z</time>
      </trkpt>
      <trkpt lat="44.20285" lon="5.53677">
        <ele>803</ele>
        <time>2019-03-27T14:31:39Z</time>
      </trkpt>
      <trkpt lat="44.20281" lon="5.53677">
        <ele>803</ele>
        <time>2019-03-27T14:31:40Z</time>
      </trkpt>
      <trkpt lat="44.20278" lon="5.53676">
        <ele>803</ele>
        <time>2019-03-27T14:31:41Z</time>
      </trkpt>
      <trkpt lat="44.20275" lon="5.53677">
        <ele>803</ele>
        <time>2019-03-27T14:31:42Z</time>
      </trkpt>
      <trkpt lat="44.20272" lon="5.53677">
        <ele>803</ele>
        <time>2019-03-27T14:31:43Z</time>
      </trkpt>
      <trkpt lat="44.20269" lon="5.53677">
        <ele>803</ele>
        <time>2019-03-27T14:31:44Z</time>
      </trkpt>
      <trkpt lat="44.20265" lon="5.53678">
        <ele>803</ele>
        <time>2019-03-27T14:31:45Z</time>
      </trkpt>
      <trkpt lat="44.20262" lon="5.53678">
        <ele>803</ele>
        <time>2019-03-27T14:31:46Z</time>
      </trkpt>
      <trkpt lat="44.20259" lon="5.53678">
        <ele>803</ele>
        <time>2019-03-27T14:31:47Z</time>
      </trkpt>
      <trkpt lat="44.20256" lon="5.53679">
        <ele>803</ele>
        <time>2019-03-27T14:31:48Z</time>
      </trkpt>
      <trkpt lat="44.20253" lon="5.5368">
        <ele>803</ele>
        <time>2019-03-27T14:31:49Z</time>
      </trkpt>
      <trkpt lat="44.20251" lon="5.5368">
        <ele>803</ele>
        <time>2019-03-27T14:31:50Z</time>
      </trkpt>
      <trkpt lat="44.20248" lon="5.5368">
        <ele>803</ele>
        <time>2019-03-27T14:31:51Z</time>
      </trkpt>
      <trkpt lat="44.20246" lon="5.5368">
        <ele>803</ele>
        <time>2019-03-27T14:31:52Z</time>
      </trkpt>
      <trkpt lat="44.20243" lon="5.5368">
        <ele>803</ele>
        <time>2019-03-27T14:31:53Z</time>
      </trkpt>
      <trkpt lat="44.2024" lon="5.5368">
        <ele>803</ele>
        <time>2019-03-27T14:31:54Z</time>
      </trkpt>
      <trkpt lat="44.20237" lon="5.5368">
        <ele>803</ele>
        <time>2019-03-27T14:31:55Z</time>
      </trkpt>
      <trkpt lat="44.20234" lon="5.53679">
        <ele>803</ele>
        <time>2019-03-27T14:31:56Z</time>
      </trkpt>
      <trkpt lat="44.2023" lon="5.53679">
        <ele>803</ele>
        <time>2019-03-27T14:31:57Z</time>
      </trkpt>
      <trkpt lat="44.20227" lon="5.53679">
        <ele>803</ele>
        <time>2019-03-27T14:31:58Z</time>
      </trkpt>
      <trkpt lat="44.20223" lon="5.53679">
        <ele>803</ele>
        <time>2019-03-27T14:31:59Z</time>
      </trkpt>
      <trkpt lat="44.2022" lon="5.53679">
        <ele>803</ele>
        <time>2019-03-27T14:32:00Z</time>
      </trkpt>
      <trkpt lat="44.20216" lon="5.53679">
        <ele>803</ele>
        <time>2019-03-27T14:32:01Z</time>
      </trkpt>
      <trkpt lat="44.20211" lon="5.53679">
        <ele>803</ele>
        <time>2019-03-27T14:32:02Z</time>
      </trkpt>
      <trkpt lat="44.20208" lon="5.5368">
        <ele>803</ele>
        <time>2019-03-27T14:32:03Z</time>
      </trkpt>
      <trkpt lat="44.20203" lon="5.5368">
        <ele>803</ele>
        <time>2019-03-27T14:32:04Z</time>
      </trkpt>
      <trkpt lat="44.202" lon="5.5368">
        <ele>803</ele>
        <time>2019-03-27T14:32:05Z</time>
      </trkpt>
      <trkpt lat="44.20195" lon="5.53681">
        <ele>803</ele>
        <time>2019-03-27T14:32:06Z</time>
      </trkpt>
      <trkpt lat="44.20191" lon="5.53681">
        <ele>803</ele>
        <time>2019-03-27T14:32:07Z</time>
      </trkpt>
      <trkpt lat="44.20187" lon="5.53681">
        <ele>803</ele>
        <time>2019-03-27T14:32:08Z</time>
      </trkpt>
      <trkpt lat="44.20183" lon="5.53681">
        <ele>803</ele>
        <time>2019-03-27T14:32:09Z</time>
      </trkpt>
      <trkpt lat="44.20179" lon="5.53682">
        <ele>803</ele>
        <time>2019-03-27T14:32:10Z</time>
      </trkpt>
      <trkpt lat="44.20175" lon="5.53682">
        <ele>802</ele>
        <time>2019-03-27T14:32:11Z</time>
      </trkpt>
      <trkpt lat="44.20171" lon="5.53682">
        <ele>802</ele>
        <time>2019-03-27T14:32:12Z</time>
      </trkpt>
      <trkpt lat="44.20167" lon="5.53682">
        <ele>801</ele>
        <time>2019-03-27T14:32:13Z</time>
      </trkpt>
      <trkpt lat="44.20164" lon="5.53682">
        <ele>801</ele>
        <time>2019-03-27T14:32:14Z</time>
      </trkpt>
      <trkpt lat="44.2016" lon="5.53682">
        <ele>801</ele>
        <time>2019-03-27T14:32:15Z</time>
      </trkpt>
      <trkpt lat="44.20155" lon="5.53682">
        <ele>801</ele>
        <time>2019-03-27T14:32:16Z</time>
      </trkpt>
      <trkpt lat="44.20151" lon="5.53683">
        <ele>801</ele>
        <time>2019-03-27T14:32:17Z</time>
      </trkpt>
      <trkpt lat="44.20147" lon="5.53683">
        <ele>801</ele>
        <time>2019-03-27T14:32:18Z</time>
      </trkpt>
      <trkpt lat="44.20143" lon="5.53683">
        <ele>801</ele>
        <time>2019-03-27T14:32:19Z</time>
      </trkpt>
      <trkpt lat="44.20139" lon="5.53683">
        <ele>801</ele>
        <time>2019-03-27T14:32:20Z</time>
      </trkpt>
      <trkpt lat="44.20135" lon="5.53684">
        <ele>801</ele>
        <time>2019-03-27T14:32:21Z</time>
      </trkpt>
      <trkpt lat="44.20131" lon="5.53684">
        <ele>801</ele>
        <time>2019-03-27T14:32:22Z</time>
      </trkpt>
      <trkpt lat="44.20127" lon="5.53684">
        <ele>801</ele>
        <time>2019-03-27T14:32:23Z</time>
      </trkpt>
      <trkpt lat="44.20123" lon="5.53684">
        <ele>801</ele>
        <time>2019-03-27T14:32:24Z</time>
      </trkpt>
      <trkpt lat="44.20118" lon="5.53683">
        <ele>801</ele>
        <time>2019-03-27T14:32:25Z</time>
      </trkpt>
      <trkpt lat="44.20114" lon="5.53683">
        <ele>801</ele>
        <time>2019-03-27T14:32:26Z</time>
      </trkpt>
      <trkpt lat="44.2011" lon="5.53683">
        <ele>801</ele>
        <time>2019-03-27T14:32:27Z</time>
      </trkpt>
      <trkpt lat="44.20105" lon="5.53682">
        <ele>801</ele>
        <time>2019-03-27T14:32:28Z</time>
      </trkpt>
      <trkpt lat="44.20101" lon="5.53682">
        <ele>801</ele>
        <time>2019-03-27T14:32:29Z</time>
      </trkpt>
      <trkpt lat="44.20097" lon="5.53683">
        <ele>801</ele>
        <time>2019-03-27T14:32:30Z</time>
      </trkpt>
      <trkpt lat="44.20093" lon="5.53683">
        <ele>801</ele>
        <time>2019-03-27T14:32:31Z</time>
      </trkpt>
      <trkpt lat="44.20089" lon="5.53684">
        <ele>801</ele>
        <time>2019-03-27T14:32:32Z</time>
      </trkpt>
      <trkpt lat="44.20084" lon="5.53684">
        <ele>801</ele>
        <time>2019-03-27T14:32:33Z</time>
      </trkpt>
      <trkpt lat="44.2008" lon="5.53684">
        <ele>801</ele>
        <time>2019-03-27T14:32:34Z</time>
      </trkpt>
      <trkpt lat="44.20076" lon="5.53684">
        <ele>801</ele>
        <time>2019-03-27T14:32:35Z</time>
      </trkpt>
      <trkpt lat="44.20072" lon="5.53683">
        <ele>801</ele>
        <time>2019-03-27T14:32:36Z</time>
      </trkpt>
      <trkpt lat="44.20068" lon="5.53683">
        <ele>801</ele>
        <time>2019-03-27T14:32:37Z</time>
      </trkpt>
      <trkpt lat="44.20064" lon="5.53683">
        <ele>801</ele>
        <time>2019-03-27T14:32:38Z</time>
      </trkpt>
      <trkpt lat="44.2006" lon="5.53684">
        <ele>801</ele>
        <time>2019-03-27T14:32:39Z</time>
      </trkpt>
      <trkpt lat="44.20055" lon="5.53684">
        <ele>801</ele>
        <time>2019-03-27T14:32:40Z</time>
      </trkpt>
      <trkpt lat="44.20051" lon="5.53686">
        <ele>801</ele>
        <time>2019-03-27T14:32:41Z</time>
      </trkpt>
      <trkpt lat="44.20046" lon="5.53687">
        <ele>801</ele>
        <time>2019-03-27T14:32:42Z</time>
      </trkpt>
      <trkpt lat="44.20042" lon="5.53688">
        <ele>801</ele>
        <time>2019-03-27T14:32:43Z</time>
      </trkpt>
      <trkpt lat="44.20038" lon="5.53689">
        <ele>801</ele>
        <time>2019-03-27T14:32:44Z</time>
      </trkpt>
      <trkpt lat="44.20033" lon="5.5369">
        <ele>801</ele>
        <time>2019-03-27T14:32:45Z</time>
      </trkpt>
      <trkpt lat="44.20029" lon="5.53691">
        <ele>801</ele>
        <time>2019-03-27T14:32:46Z</time>
      </trkpt>
      <trkpt lat="44.20025" lon="5.53692">
        <ele>801</ele>
        <time>2019-03-27T14:32:47Z</time>
      </trkpt>
      <trkpt lat="44.2002" lon="5.53692">
        <ele>801</ele>
        <time>2019-03-27T14:32:48Z</time>
      </trkpt>
      <trkpt lat="44.20016" lon="5.53694">
        <ele>801</ele>
        <time>2019-03-27T14:32:49Z</time>
      </trkpt>
      <trkpt lat="44.20012" lon="5.53695">
        <ele>801</ele>
        <time>2019-03-27T14:32:50Z</time>
      </trkpt>
      <trkpt lat="44.20008" lon="5.53696">
        <ele>801</ele>
        <time>2019-03-27T14:32:51Z</time>
      </trkpt>
      <trkpt lat="44.20004" lon="5.53697">
        <ele>801</ele>
        <time>2019-03-27T14:32:52Z</time>
      </trkpt>
      <trkpt lat="44.19999" lon="5.53698">
        <ele>801</ele>
        <time>2019-03-27T14:32:53Z</time>
      </trkpt>
      <trkpt lat="44.19995" lon="5.53701">
        <ele>801</ele>
        <time>2019-03-27T14:32:54Z</time>
      </trkpt>
      <trkpt lat="44.19991" lon="5.53702">
        <ele>801</ele>
        <time>2019-03-27T14:32:55Z</time>
      </trkpt>
      <trkpt lat="44.19986" lon="5.53703">
        <ele>801</ele>
        <time>2019-03-27T14:32:56Z</time>
      </trkpt>
      <trkpt lat="44.19982" lon="5.53705">
        <ele>801</ele>
        <time>2019-03-27T14:32:57Z</time>
      </trkpt>
      <trkpt lat="44.19977" lon="5.53707">
        <ele>801</ele>
        <time>2019-03-27T14:32:58Z</time>
      </trkpt>
      <trkpt lat="44.19973" lon="5.53708">
        <ele>801</ele>
        <time>2019-03-27T14:32:59Z</time>
      </trkpt>
      <trkpt lat="44.19969" lon="5.53709">
        <ele>801</ele>
        <time>2019-03-27T14:33:00Z</time>
      </trkpt>
      <trkpt lat="44.19965" lon="5.53711">
        <ele>801</ele>
        <time>2019-03-27T14:33:01Z</time>
      </trkpt>
      <trkpt lat="44.19961" lon="5.53713">
        <ele>801</ele>
        <time>2019-03-27T14:33:02Z</time>
      </trkpt>
      <trkpt lat="44.19957" lon="5.53715">
        <ele>801</ele>
        <time>2019-03-27T14:33:03Z</time>
      </trkpt>
      <trkpt lat="44.19952" lon="5.53716">
        <ele>801</ele>
        <time>2019-03-27T14:33:04Z</time>
      </trkpt>
      <trkpt lat="44.19949" lon="5.53717">
        <ele>801</ele>
        <time>2019-03-27T14:33:05Z</time>
      </trkpt>
      <trkpt lat="44.19944" lon="5.53719">
        <ele>801</ele>
        <time>2019-03-27T14:33:06Z</time>
      </trkpt>
      <trkpt lat="44.19939" lon="5.5372">
        <ele>801</ele>
        <time>2019-03-27T14:33:07Z</time>
      </trkpt>
      <trkpt lat="44.19935" lon="5.53722">
        <ele>801</ele>
        <time>2019-03-27T14:33:08Z</time>
      </trkpt>
      <trkpt lat="44.19931" lon="5.53724">
        <ele>801</ele>
        <time>2019-03-27T14:33:09Z</time>
      </trkpt>
      <trkpt lat="44.19926" lon="5.53726">
        <ele>801</ele>
        <time>2019-03-27T14:33:10Z</time>
      </trkpt>
      <trkpt lat="44.19922" lon="5.53728">
        <ele>801</ele>
        <time>2019-03-27T14:33:11Z</time>
      </trkpt>
      <trkpt lat="44.19918" lon="5.5373">
        <ele>801</ele>
        <time>2019-03-27T14:33:12Z</time>
      </trkpt>
      <trkpt lat="44.19914" lon="5.53731">
        <ele>801</ele>
        <time>2019-03-27T14:33:13Z</time>
      </trkpt>
      <trkpt lat="44.1991" lon="5.53733">
        <ele>801</ele>
        <time>2019-03-27T14:33:14Z</time>
      </trkpt>
      <trkpt lat="44.19905" lon="5.53734">
        <ele>801</ele>
        <time>2019-03-27T14:33:15Z</time>
      </trkpt>
      <trkpt lat="44.19901" lon="5.53735">
        <ele>801</ele>
        <time>2019-03-27T14:33:16Z</time>
      </trkpt>
      <trkpt lat="44.19896" lon="5.53736">
        <ele>801</ele>
        <time>2019-03-27T14:33:17Z</time>
      </trkpt>
      <trkpt lat="44.19892" lon="5.53739">
        <ele>801</ele>
        <time>2019-03-27T14:33:18Z</time>
      </trkpt>
      <trkpt lat="44.19887" lon="5.53741">
        <ele>801</ele>
        <time>2019-03-27T14:33:19Z</time>
      </trkpt>
      <trkpt lat="44.19883" lon="5.53743">
        <ele>801</ele>
        <time>2019-03-27T14:33:20Z</time>
      </trkpt>
      <trkpt lat="44.19879" lon="5.53744">
        <ele>801</ele>
        <time>2019-03-27T14:33:21Z</time>
      </trkpt>
      <trkpt lat="44.19874" lon="5.53745">
        <ele>801</ele>
        <time>2019-03-27T14:33:22Z</time>
      </trkpt>
      <trkpt lat="44.1987" lon="5.53746">
        <ele>801</ele>
        <time>2019-03-27T14:33:23Z</time>
      </trkpt>
      <trkpt lat="44.19865" lon="5.53748">
        <ele>801</ele>
        <time>2019-03-27T14:33:24Z</time>
      </trkpt>
      <trkpt lat="44.19861" lon="5.53749">
        <ele>801</ele>
        <time>2019-03-27T14:33:25Z</time>
      </trkpt>
      <trkpt lat="44.19856" lon="5.5375">
        <ele>801</ele>
        <time>2019-03-27T14:33:26Z</time>
      </trkpt>
      <trkpt lat="44.19851" lon="5.53751">
        <ele>801</ele>
        <time>2019-03-27T14:33:27Z</time>
      </trkpt>
      <trkpt lat="44.19846" lon="5.53752">
        <ele>802</ele>
        <time>2019-03-27T14:33:28Z</time>
      </trkpt>
      <trkpt lat="44.19842" lon="5.53753">
        <ele>802</ele>
        <time>2019-03-27T14:33:29Z</time>
      </trkpt>
      <trkpt lat="44.19837" lon="5.53753">
        <ele>802</ele>
        <time>2019-03-27T14:33:30Z</time>
      </trkpt>
      <trkpt lat="44.19833" lon="5.53753">
        <ele>802</ele>
        <time>2019-03-27T14:33:31Z</time>
      </trkpt>
      <trkpt lat="44.19828" lon="5.53754">
        <ele>802</ele>
        <time>2019-03-27T14:33:32Z</time>
      </trkpt>
      <trkpt lat="44.19823" lon="5.53754">
        <ele>802</ele>
        <time>2019-03-27T14:33:33Z</time>
      </trkpt>
      <trkpt lat="44.19819" lon="5.53755">
        <ele>802</ele>
        <time>2019-03-27T14:33:34Z</time>
      </trkpt>
      <trkpt lat="44.19814" lon="5.53755">
        <ele>802</ele>
        <time>2019-03-27T14:33:35Z</time>
      </trkpt>
      <trkpt lat="44.19809" lon="5.53755">
        <ele>802</ele>
        <time>2019-03-27T14:33:36Z</time>
      </trkpt>
      <trkpt lat="44.19805" lon="5.53755">
        <ele>802</ele>
        <time>2019-03-27T14:33:37Z</time>
      </trkpt>
      <trkpt lat="44.198" lon="5.53754">
        <ele>802</ele>
        <time>2019-03-27T14:33:38Z</time>
      </trkpt>
      <trkpt lat="44.19796" lon="5.53754">
        <ele>802</ele>
        <time>2019-03-27T14:33:39Z</time>
      </trkpt>
      <trkpt lat="44.19791" lon="5.53754">
        <ele>802</ele>
        <time>2019-03-27T14:33:40Z</time>
      </trkpt>
      <trkpt lat="44.19787" lon="5.53755">
        <ele>802</ele>
        <time>2019-03-27T14:33:41Z</time>
      </trkpt>
      <trkpt lat="44.19782" lon="5.53756">
        <ele>802</ele>
        <time>2019-03-27T14:33:42Z</time>
      </trkpt>
      <trkpt lat="44.19778" lon="5.53756">
        <ele>802</ele>
        <time>2019-03-27T14:33:43Z</time>
      </trkpt>
      <trkpt lat="44.19774" lon="5.53755">
        <ele>803</ele>
        <time>2019-03-27T14:33:44Z</time>
      </trkpt>
      <trkpt lat="44.19769" lon="5.53755">
        <ele>803</ele>
        <time>2019-03-27T14:33:45Z</time>
      </trkpt>
      <trkpt lat="44.19765" lon="5.53755">
        <ele>803</ele>
        <time>2019-03-27T14:33:46Z</time>
      </trkpt>
      <trkpt lat="44.19761" lon="5.53755">
        <ele>804</ele>
        <time>2019-03-27T14:33:47Z</time>
      </trkpt>
      <trkpt lat="44.19756" lon="5.53755">
        <ele>804</ele>
        <time>2019-03-27T14:33:48Z</time>
      </trkpt>
      <trkpt lat="44.19752" lon="5.53756">
        <ele>804</ele>
        <time>2019-03-27T14:33:49Z</time>
      </trkpt>
      <trkpt lat="44.19748" lon="5.53756">
        <ele>805</ele>
        <time>2019-03-27T14:33:50Z</time>
      </trkpt>
      <trkpt lat="44.19743" lon="5.53756">
        <ele>806</ele>
        <time>2019-03-27T14:33:51Z</time>
      </trkpt>
      <trkpt lat="44.19739" lon="5.53756">
        <ele>806</ele>
        <time>2019-03-27T14:33:52Z</time>
      </trkpt>
      <trkpt lat="44.19734" lon="5.53757">
        <ele>806</ele>
        <time>2019-03-27T14:33:53Z</time>
      </trkpt>
      <trkpt lat="44.1973" lon="5.53757">
        <ele>807</ele>
        <time>2019-03-27T14:33:54Z</time>
      </trkpt>
      <trkpt lat="44.19725" lon="5.53757">
        <ele>807</ele>
        <time>2019-03-27T14:33:55Z</time>
      </trkpt>
      <trkpt lat="44.1972" lon="5.53757">
        <ele>807</ele>
        <time>2019-03-27T14:33:56Z</time>
      </trkpt>
      <trkpt lat="44.19716" lon="5.53757">
        <ele>807</ele>
        <time>2019-03-27T14:33:57Z</time>
      </trkpt>
      <trkpt lat="44.19711" lon="5.53757">
        <ele>807</ele>
        <time>2019-03-27T14:33:58Z</time>
      </trkpt>
      <trkpt lat="44.19706" lon="5.53758">
        <ele>807</ele>
        <time>2019-03-27T14:33:59Z</time>
      </trkpt>
      <trkpt lat="44.19702" lon="5.53759">
        <ele>807</ele>
        <time>2019-03-27T14:34:00Z</time>
      </trkpt>
      <trkpt lat="44.19697" lon="5.53759">
        <ele>807</ele>
        <time>2019-03-27T14:34:01Z</time>
      </trkpt>
      <trkpt lat="44.19692" lon="5.53758">
        <ele>807</ele>
        <time>2019-03-27T14:34:02Z</time>
      </trkpt>
      <trkpt lat="44.19688" lon="5.53758">
        <ele>808</ele>
        <time>2019-03-27T14:34:03Z</time>
      </trkpt>
      <trkpt lat="44.19683" lon="5.53758">
        <ele>808</ele>
        <time>2019-03-27T14:34:04Z</time>
      </trkpt>
      <trkpt lat="44.19678" lon="5.53758">
        <ele>808</ele>
        <time>2019-03-27T14:34:05Z</time>
      </trkpt>
      <trkpt lat="44.19673" lon="5.53758">
        <ele>808</ele>
        <time>2019-03-27T14:34:06Z</time>
      </trkpt>
      <trkpt lat="44.19668" lon="5.53758">
        <ele>808</ele>
        <time>2019-03-27T14:34:07Z</time>
      </trkpt>
      <trkpt lat="44.19664" lon="5.53758">
        <ele>808</ele>
        <time>2019-03-27T14:34:08Z</time>
      </trkpt>
      <trkpt lat="44.19659" lon="5.53759">
        <ele>808</ele>
        <time>2019-03-27T14:34:09Z</time>
      </trkpt>
      <trkpt lat="44.19654" lon="5.53759">
        <ele>808</ele>
        <time>2019-03-27T14:34:10Z</time>
      </trkpt>
      <trkpt lat="44.1965" lon="5.53759">
        <ele>808</ele>
        <time>2019-03-27T14:34:11Z</time>
      </trkpt>
      <trkpt lat="44.19645" lon="5.53759">
        <ele>808</ele>
        <time>2019-03-27T14:34:12Z</time>
      </trkpt>
      <trkpt lat="44.1964" lon="5.53759">
        <ele>808</ele>
        <time>2019-03-27T14:34:13Z</time>
      </trkpt>
      <trkpt lat="44.19636" lon="5.53759">
        <ele>808</ele>
        <time>2019-03-27T14:34:14Z</time>
      </trkpt>
      <trkpt lat="44.19632" lon="5.53759">
        <ele>809</ele>
        <time>2019-03-27T14:34:15Z</time>
      </trkpt>
      <trkpt lat="44.19627" lon="5.53759">
        <ele>809</ele>
        <time>2019-03-27T14:34:16Z</time>
      </trkpt>
      <trkpt lat="44.19623" lon="5.5376">
        <ele>809</ele>
        <time>2019-03-27T14:34:17Z</time>
      </trkpt>
      <trkpt lat="44.19618" lon="5.5376">
        <ele>809</ele>
        <time>2019-03-27T14:34:18Z</time>
      </trkpt>
      <trkpt lat="44.19614" lon="5.5376">
        <ele>809</ele>
        <time>2019-03-27T14:34:19Z</time>
      </trkpt>
      <trkpt lat="44.1961" lon="5.53759">
        <ele>809</ele>
        <time>2019-03-27T14:34:20Z</time>
      </trkpt>
      <trkpt lat="44.19606" lon="5.53759">
        <ele>810</ele>
        <time>2019-03-27T14:34:21Z</time>
      </trkpt>
      <trkpt lat="44.19601" lon="5.5376">
        <ele>810</ele>
        <time>2019-03-27T14:34:22Z</time>
      </trkpt>
      <trkpt lat="44.19597" lon="5.5376">
        <ele>810</ele>
        <time>2019-03-27T14:34:23Z</time>
      </trkpt>
      <trkpt lat="44.19593" lon="5.5376">
        <ele>810</ele>
        <time>2019-03-27T14:34:24Z</time>
      </trkpt>
      <trkpt lat="44.19589" lon="5.5376">
        <ele>810</ele>
        <time>2019-03-27T14:34:25Z</time>
      </trkpt>
      <trkpt lat="44.19585" lon="5.5376">
        <ele>810</ele>
        <time>2019-03-27T14:34:26Z</time>
      </trkpt>
      <trkpt lat="44.19581" lon="5.5376">
        <ele>811</ele>
        <time>2019-03-27T14:34:27Z</time>
      </trkpt>
      <trkpt lat="44.19577" lon="5.53761">
        <ele>811</ele>
        <time>2019-03-27T14:34:28Z</time>
      </trkpt>
      <trkpt lat="44.19572" lon="5.53761">
        <ele>811</ele>
        <time>2019-03-27T14:34:29Z</time>
      </trkpt>
      <trkpt lat="44.19568" lon="5.53761">
        <ele>811</ele>
        <time>2019-03-27T14:34:30Z</time>
      </trkpt>
      <trkpt lat="44.19564" lon="5.53761">
        <ele>811</ele>
        <time>2019-03-27T14:34:31Z</time>
      </trkpt>
      <trkpt lat="44.19559" lon="5.53761">
        <ele>811</ele>
        <time>2019-03-27T14:34:32Z</time>
      </trkpt>
      <trkpt lat="44.19555" lon="5.53761">
        <ele>812</ele>
        <time>2019-03-27T14:34:33Z</time>
      </trkpt>
      <trkpt lat="44.1955" lon="5.53761">
        <ele>812</ele>
        <time>2019-03-27T14:34:34Z</time>
      </trkpt>
      <trkpt lat="44.19546" lon="5.53761">
        <ele>812</ele>
        <time>2019-03-27T14:34:35Z</time>
      </trkpt>
      <trkpt lat="44.19542" lon="5.53761">
        <ele>812</ele>
        <time>2019-03-27T14:34:36Z</time>
      </trkpt>
      <trkpt lat="44.19537" lon="5.53761">
        <ele>812</ele>
        <time>2019-03-27T14:34:37Z</time>
      </trkpt>
      <trkpt lat="44.19533" lon="5.53761">
        <ele>812</ele>
        <time>2019-03-27T14:34:38Z</time>
      </trkpt>
      <trkpt lat="44.19529" lon="5.53761">
        <ele>812</ele>
        <time>2019-03-27T14:34:39Z</time>
      </trkpt>
      <trkpt lat="44.19524" lon="5.53761">
        <ele>812</ele>
        <time>2019-03-27T14:34:40Z</time>
      </trkpt>
      <trkpt lat="44.19519" lon="5.53761">
        <ele>812</ele>
        <time>2019-03-27T14:34:41Z</time>
      </trkpt>
      <trkpt lat="44.19515" lon="5.53761">
        <ele>813</ele>
        <time>2019-03-27T14:34:42Z</time>
      </trkpt>
      <trkpt lat="44.1951" lon="5.53761">
        <ele>813</ele>
        <time>2019-03-27T14:34:43Z</time>
      </trkpt>
      <trkpt lat="44.19506" lon="5.53761">
        <ele>813</ele>
        <time>2019-03-27T14:34:44Z</time>
      </trkpt>
      <trkpt lat="44.19501" lon="5.53761">
        <ele>813</ele>
        <time>2019-03-27T14:34:45Z</time>
      </trkpt>
      <trkpt lat="44.19497" lon="5.53761">
        <ele>813</ele>
        <time>2019-03-27T14:34:46Z</time>
      </trkpt>
      <trkpt lat="44.19492" lon="5.5376">
        <ele>813</ele>
        <time>2019-03-27T14:34:47Z</time>
      </trkpt>
      <trkpt lat="44.19488" lon="5.5376">
        <ele>813</ele>
        <time>2019-03-27T14:34:48Z</time>
      </trkpt>
      <trkpt lat="44.19483" lon="5.5376">
        <ele>813</ele>
        <time>2019-03-27T14:34:49Z</time>
      </trkpt>
      <trkpt lat="44.19479" lon="5.53759">
        <ele>813</ele>
        <time>2019-03-27T14:34:50Z</time>
      </trkpt>
      <trkpt lat="44.19474" lon="5.53758">
        <ele>814</ele>
        <time>2019-03-27T14:34:51Z</time>
      </trkpt>
      <trkpt lat="44.1947" lon="5.53758">
        <ele>814</ele>
        <time>2019-03-27T14:34:52Z</time>
      </trkpt>
      <trkpt lat="44.19465" lon="5.53758">
        <ele>814</ele>
        <time>2019-03-27T14:34:53Z</time>
      </trkpt>
      <trkpt lat="44.1946" lon="5.53758">
        <ele>814</ele>
        <time>2019-03-27T14:34:54Z</time>
      </trkpt>
      <trkpt lat="44.19455" lon="5.53757">
        <ele>814</ele>
        <time>2019-03-27T14:34:55Z</time>
      </trkpt>
      <trkpt lat="44.1945" lon="5.53756">
        <ele>815</ele>
        <time>2019-03-27T14:34:56Z</time>
      </trkpt>
      <trkpt lat="44.19445" lon="5.53756">
        <ele>815</ele>
        <time>2019-03-27T14:34:57Z</time>
      </trkpt>
      <trkpt lat="44.19441" lon="5.53755">
        <ele>815</ele>
        <time>2019-03-27T14:34:58Z</time>
      </trkpt>
      <trkpt lat="44.19436" lon="5.53755">
        <ele>815</ele>
        <time>2019-03-27T14:34:59Z</time>
      </trkpt>
      <trkpt lat="44.19432" lon="5.53754">
        <ele>815</ele>
        <time>2019-03-27T14:35:00Z</time>
      </trkpt>
      <trkpt lat="44.19427" lon="5.53754">
        <ele>815</ele>
        <time>2019-03-27T14:35:01Z</time>
      </trkpt>
      <trkpt lat="44.19423" lon="5.53754">
        <ele>815</ele>
        <time>2019-03-27T14:35:02Z</time>
      </trkpt>
      <trkpt lat="44.19418" lon="5.53753">
        <ele>815</ele>
        <time>2019-03-27T14:35:03Z</time>
      </trkpt>
      <trkpt lat="44.19413" lon="5.53753">
        <ele>815</ele>
        <time>2019-03-27T14:35:04Z</time>
      </trkpt>
      <trkpt lat="44.19408" lon="5.53752">
        <ele>815</ele>
        <time>2019-03-27T14:35:05Z</time>
      </trkpt>
      <trkpt lat="44.19404" lon="5.53752">
        <ele>815</ele>
        <time>2019-03-27T14:35:06Z</time>
      </trkpt>
      <trkpt lat="44.19399" lon="5.53751">
        <ele>815</ele>
        <time>2019-03-27T14:35:07Z</time>
      </trkpt>
      <trkpt lat="44.19395" lon="5.53751">
        <ele>816</ele>
        <time>2019-03-27T14:35:08Z</time>
      </trkpt>
      <trkpt lat="44.1939" lon="5.5375">
        <ele>816</ele>
        <time>2019-03-27T14:35:09Z</time>
      </trkpt>
      <trkpt lat="44.19385" lon="5.5375">
        <ele>816</ele>
        <time>2019-03-27T14:35:10Z</time>
      </trkpt>
      <trkpt lat="44.19381" lon="5.53749">
        <ele>816</ele>
        <time>2019-03-27T14:35:11Z</time>
      </trkpt>
      <trkpt lat="44.19376" lon="5.53749">
        <ele>816</ele>
        <time>2019-03-27T14:35:12Z</time>
      </trkpt>
      <trkpt lat="44.19371" lon="5.53748">
        <ele>816</ele>
        <time>2019-03-27T14:35:13Z</time>
      </trkpt>
      <trkpt lat="44.19367" lon="5.53748">
        <ele>816</ele>
        <time>2019-03-27T14:35:14Z</time>
      </trkpt>
      <trkpt lat="44.19362" lon="5.53748">
        <ele>816</ele>
        <time>2019-03-27T14:35:15Z</time>
      </trkpt>
      <trkpt lat="44.19358" lon="5.53747">
        <ele>816</ele>
        <time>2019-03-27T14:35:16Z</time>
      </trkpt>
      <trkpt lat="44.19353" lon="5.53747">
        <ele>816</ele>
        <time>2019-03-27T14:35:17Z</time>
      </trkpt>
      <trkpt lat="44.19349" lon="5.53746">
        <ele>816</ele>
        <time>2019-03-27T14:35:18Z</time>
      </trkpt>
      <trkpt lat="44.19344" lon="5.53746">
        <ele>816</ele>
        <time>2019-03-27T14:35:19Z</time>
      </trkpt>
      <trkpt lat="44.1934" lon="5.53746">
        <ele>816</ele>
        <time>2019-03-27T14:35:20Z</time>
      </trkpt>
      <trkpt lat="44.19336" lon="5.53745">
        <ele>817</ele>
        <time>2019-03-27T14:35:21Z</time>
      </trkpt>
      <trkpt lat="44.19331" lon="5.53745">
        <ele>817</ele>
        <time>2019-03-27T14:35:22Z</time>
      </trkpt>
      <trkpt lat="44.19327" lon="5.53745">
        <ele>817</ele>
        <time>2019-03-27T14:35:23Z</time>
      </trkpt>
      <trkpt lat="44.19323" lon="5.53744">
        <ele>817</ele>
        <time>2019-03-27T14:35:24Z</time>
      </trkpt>
      <trkpt lat="44.19318" lon="5.53744">
        <ele>817</ele>
        <time>2019-03-27T14:35:25Z</time>
      </trkpt>
      <trkpt lat="44.19314" lon="5.53744">
        <ele>817</ele>
        <time>2019-03-27T14:35:26Z</time>
      </trkpt>
      <trkpt lat="44.1931" lon="5.53743">
        <ele>817</ele>
        <time>2019-03-27T14:35:27Z</time>
      </trkpt>
      <trkpt lat="44.19305" lon="5.53743">
        <ele>817</ele>
        <time>2019-03-27T14:35:28Z</time>
      </trkpt>
      <trkpt lat="44.19301" lon="5.53742">
        <ele>817</ele>
        <time>2019-03-27T14:35:29Z</time>
      </trkpt>
      <trkpt lat="44.19297" lon="5.53742">
        <ele>817</ele>
        <time>2019-03-27T14:35:30Z</time>
      </trkpt>
      <trkpt lat="44.19293" lon="5.53741">
        <ele>817</ele>
        <time>2019-03-27T14:35:31Z</time>
      </trkpt>
      <trkpt lat="44.19289" lon="5.53741">
        <ele>817</ele>
        <time>2019-03-27T14:35:32Z</time>
      </trkpt>
      <trkpt lat="44.19284" lon="5.53741">
        <ele>818</ele>
        <time>2019-03-27T14:35:33Z</time>
      </trkpt>
      <trkpt lat="44.1928" lon="5.53741">
        <ele>818</ele>
        <time>2019-03-27T14:35:34Z</time>
      </trkpt>
      <trkpt lat="44.19276" lon="5.5374">
        <ele>818</ele>
        <time>2019-03-27T14:35:35Z</time>
      </trkpt>
      <trkpt lat="44.19271" lon="5.5374">
        <ele>818</ele>
        <time>2019-03-27T14:35:36Z</time>
      </trkpt>
      <trkpt lat="44.19267" lon="5.53739">
        <ele>818</ele>
        <time>2019-03-27T14:35:37Z</time>
      </trkpt>
      <trkpt lat="44.19263" lon="5.53739">
        <ele>818</ele>
        <time>2019-03-27T14:35:38Z</time>
      </trkpt>
      <trkpt lat="44.19258" lon="5.53739">
        <ele>819</ele>
        <time>2019-03-27T14:35:39Z</time>
      </trkpt>
      <trkpt lat="44.19254" lon="5.53739">
        <ele>819</ele>
        <time>2019-03-27T14:35:40Z</time>
      </trkpt>
      <trkpt lat="44.1925" lon="5.53738">
        <ele>819</ele>
        <time>2019-03-27T14:35:41Z</time>
      </trkpt>
      <trkpt lat="44.19245" lon="5.53738">
        <ele>819</ele>
        <time>2019-03-27T14:35:42Z</time>
      </trkpt>
      <trkpt lat="44.19241" lon="5.53738">
        <ele>819</ele>
        <time>2019-03-27T14:35:43Z</time>
      </trkpt>
      <trkpt lat="44.19237" lon="5.53737">
        <ele>819</ele>
        <time>2019-03-27T14:35:44Z</time>
      </trkpt>
      <trkpt lat="44.19233" lon="5.53737">
        <ele>820</ele>
        <time>2019-03-27T14:35:45Z</time>
      </trkpt>
      <trkpt lat="44.19229" lon="5.53737">
        <ele>820</ele>
        <time>2019-03-27T14:35:46Z</time>
      </trkpt>
      <trkpt lat="44.19225" lon="5.53736">
        <ele>820</ele>
        <time>2019-03-27T14:35:47Z</time>
      </trkpt>
      <trkpt lat="44.1922" lon="5.53735">
        <ele>820</ele>
        <time>2019-03-27T14:35:48Z</time>
      </trkpt>
      <trkpt lat="44.19217" lon="5.53735">
        <ele>820</ele>
        <time>2019-03-27T14:35:49Z</time>
      </trkpt>
      <trkpt lat="44.19212" lon="5.53735">
        <ele>820</ele>
        <time>2019-03-27T14:35:50Z</time>
      </trkpt>
      <trkpt lat="44.19209" lon="5.53734">
        <ele>820</ele>
        <time>2019-03-27T14:35:51Z</time>
      </trkpt>
      <trkpt lat="44.19204" lon="5.53734">
        <ele>820</ele>
        <time>2019-03-27T14:35:52Z</time>
      </trkpt>
      <trkpt lat="44.19201" lon="5.53734">
        <ele>820</ele>
        <time>2019-03-27T14:35:53Z</time>
      </trkpt>
      <trkpt lat="44.19197" lon="5.53734">
        <ele>821</ele>
        <time>2019-03-27T14:35:54Z</time>
      </trkpt>
      <trkpt lat="44.19193" lon="5.53733">
        <ele>821</ele>
        <time>2019-03-27T14:35:55Z</time>
      </trkpt>
      <trkpt lat="44.1919" lon="5.53733">
        <ele>821</ele>
        <time>2019-03-27T14:35:56Z</time>
      </trkpt>
      <trkpt lat="44.19186" lon="5.53733">
        <ele>821</ele>
        <time>2019-03-27T14:35:57Z</time>
      </trkpt>
      <trkpt lat="44.19182" lon="5.53733">
        <ele>822</ele>
        <time>2019-03-27T14:35:58Z</time>
      </trkpt>
      <trkpt lat="44.19179" lon="5.53732">
        <ele>822</ele>
        <time>2019-03-27T14:35:59Z</time>
      </trkpt>
      <trkpt lat="44.19175" lon="5.53732">
        <ele>822</ele>
        <time>2019-03-27T14:36:00Z</time>
      </trkpt>
      <trkpt lat="44.19172" lon="5.53731">
        <ele>822</ele>
        <time>2019-03-27T14:36:01Z</time>
      </trkpt>
      <trkpt lat="44.19168" lon="5.5373">
        <ele>822</ele>
        <time>2019-03-27T14:36:02Z</time>
      </trkpt>
      <trkpt lat="44.19165" lon="5.5373">
        <ele>822</ele>
        <time>2019-03-27T14:36:03Z</time>
      </trkpt>
      <trkpt lat="44.19161" lon="5.5373">
        <ele>822</ele>
        <time>2019-03-27T14:36:04Z</time>
      </trkpt>
      <trkpt lat="44.19157" lon="5.5373">
        <ele>822</ele>
        <time>2019-03-27T14:36:05Z</time>
      </trkpt>
      <trkpt lat="44.19154" lon="5.53729">
        <ele>822</ele>
        <time>2019-03-27T14:36:06Z</time>
      </trkpt>
      <trkpt lat="44.19151" lon="5.53729">
        <ele>822</ele>
        <time>2019-03-27T14:36:07Z</time>
      </trkpt>
      <trkpt lat="44.19147" lon="5.53729">
        <ele>822</ele>
        <time>2019-03-27T14:36:08Z</time>
      </trkpt>
      <trkpt lat="44.19144" lon="5.53729">
        <ele>822</ele>
        <time>2019-03-27T14:36:09Z</time>
      </trkpt>
      <trkpt lat="44.19141" lon="5.53729">
        <ele>823</ele>
        <time>2019-03-27T14:36:10Z</time>
      </trkpt>
      <trkpt lat="44.19137" lon="5.53729">
        <ele>823</ele>
        <time>2019-03-27T14:36:11Z</time>
      </trkpt>
      <trkpt lat="44.19134" lon="5.53729">
        <ele>823</ele>
        <time>2019-03-27T14:36:12Z</time>
      </trkpt>
      <trkpt lat="44.1913" lon="5.53729">
        <ele>823</ele>
        <time>2019-03-27T14:36:13Z</time>
      </trkpt>
      <trkpt lat="44.19127" lon="5.53729">
        <ele>824</ele>
        <time>2019-03-27T14:36:14Z</time>
      </trkpt>
      <trkpt lat="44.19124" lon="5.5373">
        <ele>824</ele>
        <time>2019-03-27T14:36:15Z</time>
      </trkpt>
      <trkpt lat="44.19121" lon="5.5373">
        <ele>824</ele>
        <time>2019-03-27T14:36:16Z</time>
      </trkpt>
      <trkpt lat="44.19117" lon="5.5373">
        <ele>824</ele>
        <time>2019-03-27T14:36:17Z</time>
      </trkpt>
      <trkpt lat="44.19114" lon="5.5373">
        <ele>824</ele>
        <time>2019-03-27T14:36:18Z</time>
      </trkpt>
      <trkpt lat="44.19111" lon="5.5373">
        <ele>825</ele>
        <time>2019-03-27T14:36:19Z</time>
      </trkpt>
      <trkpt lat="44.19108" lon="5.5373">
        <ele>825</ele>
        <time>2019-03-27T14:36:20Z</time>
      </trkpt>
      <trkpt lat="44.19105" lon="5.53729">
        <ele>825</ele>
        <time>2019-03-27T14:36:21Z</time>
      </trkpt>
      <trkpt lat="44.19102" lon="5.53729">
        <ele>825</ele>
        <time>2019-03-27T14:36:22Z</time>
      </trkpt>
      <trkpt lat="44.19099" lon="5.53728">
        <ele>826</ele>
        <time>2019-03-27T14:36:23Z</time>
      </trkpt>
      <trkpt lat="44.19095" lon="5.53728">
        <ele>826</ele>
        <time>2019-03-27T14:36:24Z</time>
      </trkpt>
      <trkpt lat="44.19092" lon="5.53728">
        <ele>826</ele>
        <time>2019-03-27T14:36:25Z</time>
      </trkpt>
      <trkpt lat="44.19089" lon="5.53727">
        <ele>826</ele>
        <time>2019-03-27T14:36:26Z</time>
      </trkpt>
      <trkpt lat="44.19085" lon="5.53727">
        <ele>826</ele>
        <time>2019-03-27T14:36:27Z</time>
      </trkpt>
      <trkpt lat="44.19082" lon="5.53727">
        <ele>826</ele>
        <time>2019-03-27T14:36:28Z</time>
      </trkpt>
      <trkpt lat="44.19078" lon="5.53727">
        <ele>826</ele>
        <time>2019-03-27T14:36:29Z</time>
      </trkpt>
      <trkpt lat="44.19075" lon="5.53727">
        <ele>826</ele>
        <time>2019-03-27T14:36:30Z</time>
      </trkpt>
      <trkpt lat="44.19071" lon="5.53726">
        <ele>826</ele>
        <time>2019-03-27T14:36:31Z</time>
      </trkpt>
      <trkpt lat="44.19068" lon="5.53726">
        <ele>827</ele>
        <time>2019-03-27T14:36:32Z</time>
      </trkpt>
      <trkpt lat="44.19065" lon="5.53725">
        <ele>827</ele>
        <time>2019-03-27T14:36:33Z</time>
      </trkpt>
      <trkpt lat="44.19062" lon="5.53725">
        <ele>827</ele>
        <time>2019-03-27T14:36:34Z</time>
      </trkpt>
      <trkpt lat="44.19059" lon="5.53725">
        <ele>828</ele>
        <time>2019-03-27T14:36:35Z</time>
      </trkpt>
      <trkpt lat="44.19056" lon="5.53725">
        <ele>828</ele>
        <time>2019-03-27T14:36:36Z</time>
      </trkpt>
      <trkpt lat="44.19052" lon="5.53725">
        <ele>829</ele>
        <time>2019-03-27T14:36:37Z</time>
      </trkpt>
      <trkpt lat="44.19049" lon="5.53725">
        <ele>830</ele>
        <time>2019-03-27T14:36:38Z</time>
      </trkpt>
      <trkpt lat="44.19046" lon="5.53724">
        <ele>830</ele>
        <time>2019-03-27T14:36:39Z</time>
      </trkpt>
      <trkpt lat="44.19043" lon="5.53724">
        <ele>831</ele>
        <time>2019-03-27T14:36:40Z</time>
      </trkpt>
      <trkpt lat="44.1904" lon="5.53723">
        <ele>831</ele>
        <time>2019-03-27T14:36:41Z</time>
      </trkpt>
      <trkpt lat="44.19037" lon="5.53723">
        <ele>832</ele>
        <time>2019-03-27T14:36:42Z</time>
      </trkpt>
      <trkpt lat="44.19034" lon="5.53722">
        <ele>832</ele>
        <time>2019-03-27T14:36:43Z</time>
      </trkpt>
      <trkpt lat="44.1903" lon="5.53722">
        <ele>832</ele>
        <time>2019-03-27T14:36:44Z</time>
      </trkpt>
      <trkpt lat="44.19027" lon="5.53722">
        <ele>832</ele>
        <time>2019-03-27T14:36:45Z</time>
      </trkpt>
      <trkpt lat="44.19024" lon="5.53721">
        <ele>833</ele>
        <time>2019-03-27T14:36:46Z</time>
      </trkpt>
      <trkpt lat="44.19021" lon="5.53721">
        <ele>833</ele>
        <time>2019-03-27T14:36:47Z</time>
      </trkpt>
      <trkpt lat="44.19017" lon="5.5372">
        <ele>833</ele>
        <time>2019-03-27T14:36:48Z</time>
      </trkpt>
      <trkpt lat="44.19014" lon="5.5372">
        <ele>833</ele>
        <time>2019-03-27T14:36:49Z</time>
      </trkpt>
      <trkpt lat="44.19011" lon="5.5372">
        <ele>833</ele>
        <time>2019-03-27T14:36:50Z</time>
      </trkpt>
      <trkpt lat="44.19008" lon="5.53719">
        <ele>833</ele>
        <time>2019-03-27T14:36:51Z</time>
      </trkpt>
      <trkpt lat="44.19005" lon="5.53718">
        <ele>833</ele>
        <time>2019-03-27T14:36:52Z</time>
      </trkpt>
      <trkpt lat="44.19002" lon="5.53717">
        <ele>834</ele>
        <time>2019-03-27T14:36:53Z</time>
      </trkpt>
      <trkpt lat="44.18999" lon="5.53716">
        <ele>834</ele>
        <time>2019-03-27T14:36:54Z</time>
      </trkpt>
      <trkpt lat="44.18996" lon="5.53716">
        <ele>834</ele>
        <time>2019-03-27T14:36:55Z</time>
      </trkpt>
      <trkpt lat="44.18993" lon="5.53716">
        <ele>834</ele>
        <time>2019-03-27T14:36:56Z</time>
      </trkpt>
      <trkpt lat="44.1899" lon="5.53715">
        <ele>834</ele>
        <time>2019-03-27T14:36:57Z</time>
      </trkpt>
      <trkpt lat="44.18987" lon="5.53715">
        <ele>834</ele>
        <time>2019-03-27T14:36:58Z</time>
      </trkpt>
      <trkpt lat="44.18984" lon="5.53714">
        <ele>835</ele>
        <time>2019-03-27T14:36:59Z</time>
      </trkpt>
      <trkpt lat="44.18981" lon="5.53713">
        <ele>835</ele>
        <time>2019-03-27T14:37:00Z</time>
      </trkpt>
      <trkpt lat="44.18979" lon="5.53712">
        <ele>835</ele>
        <time>2019-03-27T14:37:01Z</time>
      </trkpt>
      <trkpt lat="44.18976" lon="5.53712">
        <ele>835</ele>
        <time>2019-03-27T14:37:02Z</time>
      </trkpt>
      <trkpt lat="44.18974" lon="5.53712">
        <ele>835</ele>
        <time>2019-03-27T14:37:03Z</time>
      </trkpt>
      <trkpt lat="44.18971" lon="5.53712">
        <ele>835</ele>
        <time>2019-03-27T14:37:04Z</time>
      </trkpt>
      <trkpt lat="44.18968" lon="5.53712">
        <ele>836</ele>
        <time>2019-03-27T14:37:05Z</time>
      </trkpt>
      <trkpt lat="44.18965" lon="5.53712">
        <ele>836</ele>
        <time>2019-03-27T14:37:06Z</time>
      </trkpt>
      <trkpt lat="44.18962" lon="5.53712">
        <ele>836</ele>
        <time>2019-03-27T14:37:07Z</time>
      </trkpt>
      <trkpt lat="44.1896" lon="5.53712">
        <ele>836</ele>
        <time>2019-03-27T14:37:08Z</time>
      </trkpt>
      <trkpt lat="44.18957" lon="5.53713">
        <ele>836</ele>
        <time>2019-03-27T14:37:09Z</time>
      </trkpt>
      <trkpt lat="44.18954" lon="5.53714">
        <ele>836</ele>
        <time>2019-03-27T14:37:10Z</time>
      </trkpt>
      <trkpt lat="44.18951" lon="5.53716">
        <ele>836</ele>
        <time>2019-03-27T14:37:11Z</time>
      </trkpt>
      <trkpt lat="44.18948" lon="5.53718">
        <ele>837</ele>
        <time>2019-03-27T14:37:12Z</time>
      </trkpt>
      <trkpt lat="44.18945" lon="5.5372">
        <ele>837</ele>
        <time>2019-03-27T14:37:13Z</time>
      </trkpt>
      <trkpt lat="44.18942" lon="5.53722">
        <ele>837</ele>
        <time>2019-03-27T14:37:14Z</time>
      </trkpt>
      <trkpt lat="44.18939" lon="5.53724">
        <ele>838</ele>
        <time>2019-03-27T14:37:15Z</time>
      </trkpt>
      <trkpt lat="44.18935" lon="5.53726">
        <ele>838</ele>
        <time>2019-03-27T14:37:16Z</time>
      </trkpt>
      <trkpt lat="44.18932" lon="5.53728">
        <ele>838</ele>
        <time>2019-03-27T14:37:17Z</time>
      </trkpt>
      <trkpt lat="44.1893" lon="5.5373">
        <ele>838</ele>
        <time>2019-03-27T14:37:18Z</time>
      </trkpt>
      <trkpt lat="44.18927" lon="5.53732">
        <ele>839</ele>
        <time>2019-03-27T14:37:19Z</time>
      </trkpt>
      <trkpt lat="44.18924" lon="5.53734">
        <ele>839</ele>
        <time>2019-03-27T14:37:20Z</time>
      </trkpt>
      <trkpt lat="44.18922" lon="5.53736">
        <ele>839</ele>
        <time>2019-03-27T14:37:21Z</time>
      </trkpt>
      <trkpt lat="44.18919" lon="5.53738">
        <ele>839</ele>
        <time>2019-03-27T14:37:22Z</time>
      </trkpt>
      <trkpt lat="44.18917" lon="5.5374">
        <ele>839</ele>
        <time>2019-03-27T14:37:23Z</time>
      </trkpt>
      <trkpt lat="44.18914" lon="5.53741">
        <ele>839</ele>
        <time>2019-03-27T14:37:24Z</time>
      </trkpt>
      <trkpt lat="44.18912" lon="5.53742">
        <ele>840</ele>
        <time>2019-03-27T14:37:25Z</time>
      </trkpt>
      <trkpt lat="44.18909" lon="5.53743">
        <ele>840</ele>
        <time>2019-03-27T14:37:26Z</time>
      </trkpt>
      <trkpt lat="44.18907" lon="5.53744">
        <ele>840</ele>
        <time>2019-03-27T14:37:27Z</time>
      </trkpt>
      <trkpt lat="44.18905" lon="5.53745">
        <ele>840</ele>
        <time>2019-03-27T14:37:28Z</time>
      </trkpt>
      <trkpt lat="44.18903" lon="5.53746">
        <ele>841</ele>
        <time>2019-03-27T14:37:29Z</time>
      </trkpt>
      <trkpt lat="44.189" lon="5.53747">
        <ele>841</ele>
        <time>2019-03-27T14:37:30Z</time>
      </trkpt>
      <trkpt lat="44.18898" lon="5.53748">
        <ele>841</ele>
        <time>2019-03-27T14:37:31Z</time>
      </trkpt>
      <trkpt lat="44.18895" lon="5.53748">
        <ele>841</ele>
        <time>2019-03-27T14:37:32Z</time>
      </trkpt>
      <trkpt lat="44.18893" lon="5.53749">
        <ele>841</ele>
        <time>2019-03-27T14:37:33Z</time>
      </trkpt>
      <trkpt lat="44.18891" lon="5.5375">
        <ele>842</ele>
        <time>2019-03-27T14:37:34Z</time>
      </trkpt>
      <trkpt lat="44.18888" lon="5.53751">
        <ele>842</ele>
        <time>2019-03-27T14:37:35Z</time>
      </trkpt>
      <trkpt lat="44.18885" lon="5.53752">
        <ele>842</ele>
        <time>2019-03-27T14:37:36Z</time>
      </trkpt>
      <trkpt lat="44.18883" lon="5.53753">
        <ele>843</ele>
        <time>2019-03-27T14:37:37Z</time>
      </trkpt>
      <trkpt lat="44.1888" lon="5.53754">
        <ele>843</ele>
        <time>2019-03-27T14:37:38Z</time>
      </trkpt>
      <trkpt lat="44.18877" lon="5.53755">
        <ele>843</ele>
        <time>2019-03-27T14:37:39Z</time>
      </trkpt>
      <trkpt lat="44.18874" lon="5.53756">
        <ele>843</ele>
        <time>2019-03-27T14:37:40Z</time>
      </trkpt>
      <trkpt lat="44.18871" lon="5.53757">
        <ele>844</ele>
        <time>2019-03-27T14:37:41Z</time>
      </trkpt>
      <trkpt lat="44.18868" lon="5.53758">
        <ele>844</ele>
        <time>2019-03-27T14:37:42Z</time>
      </trkpt>
      <trkpt lat="44.18865" lon="5.53759">
        <ele>844</ele>
        <time>2019-03-27T14:37:43Z</time>
      </trkpt>
      <trkpt lat="44.18862" lon="5.53759">
        <ele>845</ele>
        <time>2019-03-27T14:37:44Z</time>
      </trkpt>
      <trkpt lat="44.18859" lon="5.5376">
        <ele>845</ele>
        <time>2019-03-27T14:37:45Z</time>
      </trkpt>
      <trkpt lat="44.18856" lon="5.5376">
        <ele>846</ele>
        <time>2019-03-27T14:37:46Z</time>
      </trkpt>
      <trkpt lat="44.18853" lon="5.5376">
        <ele>846</ele>
        <time>2019-03-27T14:37:47Z</time>
      </trkpt>
      <trkpt lat="44.1885" lon="5.53761">
        <ele>846</ele>
        <time>2019-03-27T14:37:48Z</time>
      </trkpt>
      <trkpt lat="44.18847" lon="5.53761">
        <ele>846</ele>
        <time>2019-03-27T14:37:49Z</time>
      </trkpt>
      <trkpt lat="44.18845" lon="5.53761">
        <ele>847</ele>
        <time>2019-03-27T14:37:50Z</time>
      </trkpt>
      <trkpt lat="44.18842" lon="5.53761">
        <ele>847</ele>
        <time>2019-03-27T14:37:51Z</time>
      </trkpt>
      <trkpt lat="44.18839" lon="5.53761">
        <ele>847</ele>
        <time>2019-03-27T14:37:52Z</time>
      </trkpt>
      <trkpt lat="44.18836" lon="5.53761">
        <ele>847</ele>
        <time>2019-03-27T14:37:53Z</time>
      </trkpt>
      <trkpt lat="44.18833" lon="5.53761">
        <ele>848</ele>
        <time>2019-03-27T14:37:54Z</time>
      </trkpt>
      <trkpt lat="44.1883" lon="5.5376">
        <ele>848</ele>
        <time>2019-03-27T14:37:55Z</time>
      </trkpt>
      <trkpt lat="44.18827" lon="5.53759">
        <ele>848</ele>
        <time>2019-03-27T14:37:56Z</time>
      </trkpt>
      <trkpt lat="44.18825" lon="5.53758">
        <ele>848</ele>
        <time>2019-03-27T14:37:57Z</time>
      </trkpt>
      <trkpt lat="44.18822" lon="5.53757">
        <ele>848</ele>
        <time>2019-03-27T14:37:58Z</time>
      </trkpt>
      <trkpt lat="44.1882" lon="5.53757">
        <ele>848</ele>
        <time>2019-03-27T14:37:59Z</time>
      </trkpt>
      <trkpt lat="44.18817" lon="5.53756">
        <ele>849</ele>
        <time>2019-03-27T14:38:00Z</time>
      </trkpt>
      <trkpt lat="44.18814" lon="5.53755">
        <ele>849</ele>
        <time>2019-03-27T14:38:01Z</time>
      </trkpt>
      <trkpt lat="44.18812" lon="5.53754">
        <ele>849</ele>
        <time>2019-03-27T14:38:02Z</time>
      </trkpt>
      <trkpt lat="44.18809" lon="5.53754">
        <ele>849</ele>
        <time>2019-03-27T14:38:03Z</time>
      </trkpt>
      <trkpt lat="44.18807" lon="5.53754">
        <ele>849</ele>
        <time>2019-03-27T14:38:04Z</time>
      </trkpt>
      <trkpt lat="44.18804" lon="5.53754">
        <ele>849</ele>
        <time>2019-03-27T14:38:05Z</time>
      </trkpt>
      <trkpt lat="44.18801" lon="5.53754">
        <ele>849</ele>
        <time>2019-03-27T14:38:06Z</time>
      </trkpt>
      <trkpt lat="44.18798" lon="5.53754">
        <ele>849</ele>
        <time>2019-03-27T14:38:07Z</time>
      </trkpt>
      <trkpt lat="44.18795" lon="5.53755">
        <ele>849</ele>
        <time>2019-03-27T14:38:08Z</time>
      </trkpt>
      <trkpt lat="44.18792" lon="5.53755">
        <ele>849</ele>
        <time>2019-03-27T14:38:09Z</time>
      </trkpt>
      <trkpt lat="44.1879" lon="5.53756">
        <ele>849</ele>
        <time>2019-03-27T14:38:10Z</time>
      </trkpt>
      <trkpt lat="44.18786" lon="5.53756">
        <ele>849</ele>
        <time>2019-03-27T14:38:11Z</time>
      </trkpt>
      <trkpt lat="44.18783" lon="5.53757">
        <ele>849</ele>
        <time>2019-03-27T14:38:12Z</time>
      </trkpt>
      <trkpt lat="44.1878" lon="5.53757">
        <ele>849</ele>
        <time>2019-03-27T14:38:13Z</time>
      </trkpt>
      <trkpt lat="44.18777" lon="5.53757">
        <ele>849</ele>
        <time>2019-03-27T14:38:14Z</time>
      </trkpt>
      <trkpt lat="44.18774" lon="5.53757">
        <ele>849</ele>
        <time>2019-03-27T14:38:15Z</time>
      </trkpt>
      <trkpt lat="44.18771" lon="5.53757">
        <ele>849</ele>
        <time>2019-03-27T14:38:16Z</time>
      </trkpt>
      <trkpt lat="44.18768" lon="5.53756">
        <ele>849</ele>
        <time>2019-03-27T14:38:17Z</time>
      </trkpt>
      <trkpt lat="44.18765" lon="5.53756">
        <ele>849</ele>
        <time>2019-03-27T14:38:18Z</time>
      </trkpt>
      <trkpt lat="44.18762" lon="5.53755">
        <ele>849</ele>
        <time>2019-03-27T14:38:19Z</time>
      </trkpt>
      <trkpt lat="44.1876" lon="5.53754">
        <ele>849</ele>
        <time>2019-03-27T14:38:20Z</time>
      </trkpt>
      <trkpt lat="44.18757" lon="5.53753">
        <ele>849</ele>
        <time>2019-03-27T14:38:21Z</time>
      </trkpt>
      <trkpt lat="44.18754" lon="5.53751">
        <ele>849</ele>
        <time>2019-03-27T14:38:22Z</time>
      </trkpt>
      <trkpt lat="44.18751" lon="5.53749">
        <ele>849</ele>
        <time>2019-03-27T14:38:23Z</time>
      </trkpt>
      <trkpt lat="44.18749" lon="5.53747">
        <ele>849</ele>
        <time>2019-03-27T14:38:24Z</time>
      </trkpt>
      <trkpt lat="44.18746" lon="5.53744">
        <ele>849</ele>
        <time>2019-03-27T14:38:25Z</time>
      </trkpt>
      <trkpt lat="44.18744" lon="5.53741">
        <ele>849</ele>
        <time>2019-03-27T14:38:26Z</time>
      </trkpt>
      <trkpt lat="44.18742" lon="5.53738">
        <ele>849</ele>
        <time>2019-03-27T14:38:27Z</time>
      </trkpt>
      <trkpt lat="44.1874" lon="5.53735">
        <ele>850</ele>
        <time>2019-03-27T14:38:28Z</time>
      </trkpt>
      <trkpt lat="44.18739" lon="5.53731">
        <ele>850</ele>
        <time>2019-03-27T14:38:29Z</time>
      </trkpt>
      <trkpt lat="44.18737" lon="5.53727">
        <ele>850</ele>
        <time>2019-03-27T14:38:30Z</time>
      </trkpt>
      <trkpt lat="44.18736" lon="5.53723">
        <ele>850</ele>
        <time>2019-03-27T14:38:31Z</time>
      </trkpt>
      <trkpt lat="44.18735" lon="5.5372">
        <ele>851</ele>
        <time>2019-03-27T14:38:32Z</time>
      </trkpt>
      <trkpt lat="44.18734" lon="5.53716">
        <ele>851</ele>
        <time>2019-03-27T14:38:33Z</time>
      </trkpt>
      <trkpt lat="44.18732" lon="5.53712">
        <ele>851</ele>
        <time>2019-03-27T14:38:34Z</time>
      </trkpt>
      <trkpt lat="44.18732" lon="5.53708">
        <ele>852</ele>
        <time>2019-03-27T14:38:35Z</time>
      </trkpt>
      <trkpt lat="44.18731" lon="5.53704">
        <ele>852</ele>
        <time>2019-03-27T14:38:36Z</time>
      </trkpt>
      <trkpt lat="44.1873" lon="5.537">
        <ele>853</ele>
        <time>2019-03-27T14:38:37Z</time>
      </trkpt>
      <trkpt lat="44.18729" lon="5.53696">
        <ele>853</ele>
        <time>2019-03-27T14:38:38Z</time>
      </trkpt>
      <trkpt lat="44.18728" lon="5.53692">
        <ele>854</ele>
        <time>2019-03-27T14:38:39Z</time>
      </trkpt>
      <trkpt lat="44.18727" lon="5.53688">
        <ele>855</ele>
        <time>2019-03-27T14:38:40Z</time>
      </trkpt>
      <trkpt lat="44.18727" lon="5.53685">
        <ele>855</ele>
        <time>2019-03-27T14:38:41Z</time>
      </trkpt>
      <trkpt lat="44.18726" lon="5.53681">
        <ele>856</ele>
        <time>2019-03-27T14:38:42Z</time>
      </trkpt>
      <trkpt lat="44.18726" lon="5.53678">
        <ele>857</ele>
        <time>2019-03-27T14:38:43Z</time>
      </trkpt>
      <trkpt lat="44.18725" lon="5.53674">
        <ele>857</ele>
        <time>2019-03-27T14:38:44Z</time>
      </trkpt>
      <trkpt lat="44.18724" lon="5.53671">
        <ele>858</ele>
        <time>2019-03-27T14:38:45Z</time>
      </trkpt>
      <trkpt lat="44.18724" lon="5.53667">
        <ele>858</ele>
        <time>2019-03-27T14:38:46Z</time>
      </trkpt>
      <trkpt lat="44.18724" lon="5.53664">
        <ele>859</ele>
        <time>2019-03-27T14:38:47Z</time>
      </trkpt>
      <trkpt lat="44.18723" lon="5.5366">
        <ele>859</ele>
        <time>2019-03-27T14:38:48Z</time>
      </trkpt>
      <trkpt lat="44.18722" lon="5.53657">
        <ele>860</ele>
        <time>2019-03-27T14:38:49Z</time>
      </trkpt>
      <trkpt lat="44.18722" lon="5.53654">
        <ele>860</ele>
        <time>2019-03-27T14:38:50Z</time>
      </trkpt>
      <trkpt lat="44.18721" lon="5.5365">
        <ele>861</ele>
        <time>2019-03-27T14:38:51Z</time>
      </trkpt>
      <trkpt lat="44.18721" lon="5.53647">
        <ele>861</ele>
        <time>2019-03-27T14:38:52Z</time>
      </trkpt>
      <trkpt lat="44.1872" lon="5.53644">
        <ele>862</ele>
        <time>2019-03-27T14:38:53Z</time>
      </trkpt>
      <trkpt lat="44.1872" lon="5.5364">
        <ele>862</ele>
        <time>2019-03-27T14:38:54Z</time>
      </trkpt>
      <trkpt lat="44.18719" lon="5.53637">
        <ele>862</ele>
        <time>2019-03-27T14:38:55Z</time>
      </trkpt>
      <trkpt lat="44.18718" lon="5.53634">
        <ele>862</ele>
        <time>2019-03-27T14:38:56Z</time>
      </trkpt>
      <trkpt lat="44.18718" lon="5.5363">
        <ele>863</ele>
        <time>2019-03-27T14:38:57Z</time>
      </trkpt>
      <trkpt lat="44.18718" lon="5.53627">
        <ele>863</ele>
        <time>2019-03-27T14:38:58Z</time>
      </trkpt>
      <trkpt lat="44.18717" lon="5.53624">
        <ele>863</ele>
        <time>2019-03-27T14:38:59Z</time>
      </trkpt>
      <trkpt lat="44.18717" lon="5.53621">
        <ele>863</ele>
        <time>2019-03-27T14:39:00Z</time>
      </trkpt>
      <trkpt lat="44.18717" lon="5.53617">
        <ele>864</ele>
        <time>2019-03-27T14:39:01Z</time>
      </trkpt>
      <trkpt lat="44.18716" lon="5.53614">
        <ele>864</ele>
        <time>2019-03-27T14:39:02Z</time>
      </trkpt>
      <trkpt lat="44.18716" lon="5.5361">
        <ele>864</ele>
        <time>2019-03-27T14:39:03Z</time>
      </trkpt>
      <trkpt lat="44.18715" lon="5.53607">
        <ele>864</ele>
        <time>2019-03-27T14:39:04Z</time>
      </trkpt>
      <trkpt lat="44.18715" lon="5.53603">
        <ele>864</ele>
        <time>2019-03-27T14:39:05Z</time>
      </trkpt>
      <trkpt lat="44.18714" lon="5.53599">
        <ele>864</ele>
        <time>2019-03-27T14:39:06Z</time>
      </trkpt>
      <trkpt lat="44.18714" lon="5.53596">
        <ele>864</ele>
        <time>2019-03-27T14:39:07Z</time>
      </trkpt>
      <trkpt lat="44.18713" lon="5.53592">
        <ele>864</ele>
        <time>2019-03-27T14:39:08Z</time>
      </trkpt>
      <trkpt lat="44.18713" lon="5.53588">
        <ele>864</ele>
        <time>2019-03-27T14:39:09Z</time>
      </trkpt>
      <trkpt lat="44.18712" lon="5.53584">
        <ele>864</ele>
        <time>2019-03-27T14:39:10Z</time>
      </trkpt>
      <trkpt lat="44.18711" lon="5.53581">
        <ele>864</ele>
        <time>2019-03-27T14:39:11Z</time>
      </trkpt>
      <trkpt lat="44.1871" lon="5.53577">
        <ele>864</ele>
        <time>2019-03-27T14:39:12Z</time>
      </trkpt>
      <trkpt lat="44.1871" lon="5.53573">
        <ele>865</ele>
        <time>2019-03-27T14:39:13Z</time>
      </trkpt>
      <trkpt lat="44.1871" lon="5.5357">
        <ele>866</ele>
        <time>2019-03-27T14:39:14Z</time>
      </trkpt>
      <trkpt lat="44.18709" lon="5.53566">
        <ele>866</ele>
        <time>2019-03-27T14:39:15Z</time>
      </trkpt>
      <trkpt lat="44.18708" lon="5.53562">
        <ele>867</ele>
        <time>2019-03-27T14:39:16Z</time>
      </trkpt>
      <trkpt lat="44.18707" lon="5.53558">
        <ele>867</ele>
        <time>2019-03-27T14:39:17Z</time>
      </trkpt>
      <trkpt lat="44.18707" lon="5.53554">
        <ele>868</ele>
        <time>2019-03-27T14:39:18Z</time>
      </trkpt>
      <trkpt lat="44.18706" lon="5.5355">
        <ele>868</ele>
        <time>2019-03-27T14:39:19Z</time>
      </trkpt>
      <trkpt lat="44.18705" lon="5.53546">
        <ele>868</ele>
        <time>2019-03-27T14:39:20Z</time>
      </trkpt>
      <trkpt lat="44.18705" lon="5.53542">
        <ele>869</ele>
        <time>2019-03-27T14:39:21Z</time>
      </trkpt>
      <trkpt lat="44.18704" lon="5.53538">
        <ele>869</ele>
        <time>2019-03-27T14:39:22Z</time>
      </trkpt>
      <trkpt lat="44.18703" lon="5.53535">
        <ele>869</ele>
        <time>2019-03-27T14:39:23Z</time>
      </trkpt>
      <trkpt lat="44.18702" lon="5.53531">
        <ele>869</ele>
        <time>2019-03-27T14:39:24Z</time>
      </trkpt>
      <trkpt lat="44.18702" lon="5.53527">
        <ele>869</ele>
        <time>2019-03-27T14:39:25Z</time>
      </trkpt>
      <trkpt lat="44.18701" lon="5.53523">
        <ele>870</ele>
        <time>2019-03-27T14:39:26Z</time>
      </trkpt>
      <trkpt lat="44.187" lon="5.5352">
        <ele>870</ele>
        <time>2019-03-27T14:39:27Z</time>
      </trkpt>
      <trkpt lat="44.18698" lon="5.53516">
        <ele>871</ele>
        <time>2019-03-27T14:39:28Z</time>
      </trkpt>
      <trkpt lat="44.18697" lon="5.53512">
        <ele>871</ele>
        <time>2019-03-27T14:39:29Z</time>
      </trkpt>
      <trkpt lat="44.18697" lon="5.53509">
        <ele>871</ele>
        <time>2019-03-27T14:39:30Z</time>
      </trkpt>
      <trkpt lat="44.18696" lon="5.53505">
        <ele>872</ele>
        <time>2019-03-27T14:39:31Z</time>
      </trkpt>
      <trkpt lat="44.18695" lon="5.53501">
        <ele>872</ele>
        <time>2019-03-27T14:39:32Z</time>
      </trkpt>
      <trkpt lat="44.18693" lon="5.53498">
        <ele>872</ele>
        <time>2019-03-27T14:39:33Z</time>
      </trkpt>
      <trkpt lat="44.18692" lon="5.53495">
        <ele>873</ele>
        <time>2019-03-27T14:39:34Z</time>
      </trkpt>
      <trkpt lat="44.18691" lon="5.53491">
        <ele>873</ele>
        <time>2019-03-27T14:39:35Z</time>
      </trkpt>
      <trkpt lat="44.18689" lon="5.53488">
        <ele>873</ele>
        <time>2019-03-27T14:39:36Z</time>
      </trkpt>
      <trkpt lat="44.18688" lon="5.53485">
        <ele>874</ele>
        <time>2019-03-27T14:39:37Z</time>
      </trkpt>
      <trkpt lat="44.18686" lon="5.53481">
        <ele>875</ele>
        <time>2019-03-27T14:39:38Z</time>
      </trkpt>
      <trkpt lat="44.18684" lon="5.53478">
        <ele>875</ele>
        <time>2019-03-27T14:39:39Z</time>
      </trkpt>
      <trkpt lat="44.18682" lon="5.53476">
        <ele>876</ele>
        <time>2019-03-27T14:39:40Z</time>
      </trkpt>
      <trkpt lat="44.1868" lon="5.53473">
        <ele>876</ele>
        <time>2019-03-27T14:39:41Z</time>
      </trkpt>
      <trkpt lat="44.18678" lon="5.5347">
        <ele>877</ele>
        <time>2019-03-27T14:39:42Z</time>
      </trkpt>
      <trkpt lat="44.18676" lon="5.53467">
        <ele>877</ele>
        <time>2019-03-27T14:39:43Z</time>
      </trkpt>
      <trkpt lat="44.18674" lon="5.53465">
        <ele>877</ele>
        <time>2019-03-27T14:39:44Z</time>
      </trkpt>
      <trkpt lat="44.18672" lon="5.53463">
        <ele>878</ele>
        <time>2019-03-27T14:39:45Z</time>
      </trkpt>
      <trkpt lat="44.18669" lon="5.5346">
        <ele>878</ele>
        <time>2019-03-27T14:39:46Z</time>
      </trkpt>
      <trkpt lat="44.18667" lon="5.53458">
        <ele>878</ele>
        <time>2019-03-27T14:39:47Z</time>
      </trkpt>
      <trkpt lat="44.18665" lon="5.53456">
        <ele>878</ele>
        <time>2019-03-27T14:39:48Z</time>
      </trkpt>
      <trkpt lat="44.18662" lon="5.53454">
        <ele>878</ele>
        <time>2019-03-27T14:39:49Z</time>
      </trkpt>
      <trkpt lat="44.1866" lon="5.53452">
        <ele>878</ele>
        <time>2019-03-27T14:39:50Z</time>
      </trkpt>
      <trkpt lat="44.18658" lon="5.5345">
        <ele>878</ele>
        <time>2019-03-27T14:39:51Z</time>
      </trkpt>
      <trkpt lat="44.18656" lon="5.53448">
        <ele>878</ele>
        <time>2019-03-27T14:39:52Z</time>
      </trkpt>
      <trkpt lat="44.18654" lon="5.53446">
        <ele>878</ele>
        <time>2019-03-27T14:39:53Z</time>
      </trkpt>
      <trkpt lat="44.18652" lon="5.53444">
        <ele>878</ele>
        <time>2019-03-27T14:39:54Z</time>
      </trkpt>
      <trkpt lat="44.1865" lon="5.53441">
        <ele>878</ele>
        <time>2019-03-27T14:39:55Z</time>
      </trkpt>
      <trkpt lat="44.18647" lon="5.53439">
        <ele>878</ele>
        <time>2019-03-27T14:39:56Z</time>
      </trkpt>
      <trkpt lat="44.18645" lon="5.53436">
        <ele>878</ele>
        <time>2019-03-27T14:39:57Z</time>
      </trkpt>
      <trkpt lat="44.18643" lon="5.53433">
        <ele>878</ele>
        <time>2019-03-27T14:39:58Z</time>
      </trkpt>
      <trkpt lat="44.18641" lon="5.5343">
        <ele>878</ele>
        <time>2019-03-27T14:39:59Z</time>
      </trkpt>
      <trkpt lat="44.18639" lon="5.53427">
        <ele>878</ele>
        <time>2019-03-27T14:40:00Z</time>
      </trkpt>
      <trkpt lat="44.18637" lon="5.53424">
        <ele>879</ele>
        <time>2019-03-27T14:40:01Z</time>
      </trkpt>
      <trkpt lat="44.18636" lon="5.5342">
        <ele>879</ele>
        <time>2019-03-27T14:40:02Z</time>
      </trkpt>
      <trkpt lat="44.18634" lon="5.53418">
        <ele>879</ele>
        <time>2019-03-27T14:40:03Z</time>
      </trkpt>
      <trkpt lat="44.18632" lon="5.53415">
        <ele>879</ele>
        <time>2019-03-27T14:40:04Z</time>
      </trkpt>
      <trkpt lat="44.18631" lon="5.53412">
        <ele>879</ele>
        <time>2019-03-27T14:40:05Z</time>
      </trkpt>
      <trkpt lat="44.18629" lon="5.53409">
        <ele>879</ele>
        <time>2019-03-27T14:40:06Z</time>
      </trkpt>
      <trkpt lat="44.18628" lon="5.53406">
        <ele>879</ele>
        <time>2019-03-27T14:40:07Z</time>
      </trkpt>
      <trkpt lat="44.18626" lon="5.53403">
        <ele>879</ele>
        <time>2019-03-27T14:40:08Z</time>
      </trkpt>
      <trkpt lat="44.18625" lon="5.534">
        <ele>879</ele>
        <time>2019-03-27T14:40:09Z</time>
      </trkpt>
      <trkpt lat="44.18623" lon="5.53397">
        <ele>879</ele>
        <time>2019-03-27T14:40:10Z</time>
      </trkpt>
      <trkpt lat="44.18621" lon="5.53394">
        <ele>879</ele>
        <time>2019-03-27T14:40:11Z</time>
      </trkpt>
      <trkpt lat="44.1862" lon="5.53391">
        <ele>879</ele>
        <time>2019-03-27T14:40:12Z</time>
      </trkpt>
      <trkpt lat="44.18618" lon="5.53388">
        <ele>879</ele>
        <time>2019-03-27T14:40:13Z</time>
      </trkpt>
      <trkpt lat="44.18616" lon="5.53384">
        <ele>879</ele>
        <time>2019-03-27T14:40:14Z</time>
      </trkpt>
      <trkpt lat="44.18615" lon="5.53381">
        <ele>880</ele>
        <time>2019-03-27T14:40:15Z</time>
      </trkpt>
      <trkpt lat="44.18614" lon="5.53378">
        <ele>880</ele>
        <time>2019-03-27T14:40:16Z</time>
      </trkpt>
      <trkpt lat="44.18612" lon="5.53375">
        <ele>880</ele>
        <time>2019-03-27T14:40:17Z</time>
      </trkpt>
      <trkpt lat="44.18611" lon="5.53372">
        <ele>880</ele>
        <time>2019-03-27T14:40:18Z</time>
      </trkpt>
      <trkpt lat="44.1861" lon="5.53369">
        <ele>880</ele>
        <time>2019-03-27T14:40:19Z</time>
      </trkpt>
      <trkpt lat="44.18609" lon="5.53365">
        <ele>880</ele>
        <time>2019-03-27T14:40:20Z</time>
      </trkpt>
      <trkpt lat="44.1861" lon="5.53362">
        <ele>881</ele>
        <time>2019-03-27T14:40:21Z</time>
      </trkpt>
      <trkpt lat="44.18612" lon="5.5336">
        <ele>881</ele>
        <time>2019-03-27T14:40:22Z</time>
      </trkpt>
      <trkpt lat="44.18614" lon="5.53359">
        <ele>881</ele>
        <time>2019-03-27T14:40:23Z</time>
      </trkpt>
      <trkpt lat="44.18617" lon="5.53359">
        <ele>882</ele>
        <time>2019-03-27T14:40:24Z</time>
      </trkpt>
      <trkpt lat="44.18619" lon="5.53361">
        <ele>882</ele>
        <time>2019-03-27T14:40:25Z</time>
      </trkpt>
      <trkpt lat="44.18621" lon="5.53365">
        <ele>882</ele>
        <time>2019-03-27T14:40:26Z</time>
      </trkpt>
      <trkpt lat="44.18623" lon="5.53369">
        <ele>882</ele>
        <time>2019-03-27T14:40:27Z</time>
      </trkpt>
      <trkpt lat="44.18625" lon="5.53372">
        <ele>882</ele>
        <time>2019-03-27T14:40:28Z</time>
      </trkpt>
      <trkpt lat="44.18627" lon="5.53376">
        <ele>882</ele>
        <time>2019-03-27T14:40:29Z</time>
      </trkpt>
      <trkpt lat="44.18629" lon="5.53379">
        <ele>882</ele>
        <time>2019-03-27T14:40:30Z</time>
      </trkpt>
      <trkpt lat="44.18631" lon="5.53383">
        <ele>882</ele>
        <time>2019-03-27T14:40:31Z</time>
      </trkpt>
      <trkpt lat="44.18633" lon="5.53386">
        <ele>882</ele>
        <time>2019-03-27T14:40:32Z</time>
      </trkpt>
      <trkpt lat="44.18634" lon="5.5339">
        <ele>882</ele>
        <time>2019-03-27T14:40:33Z</time>
      </trkpt>
      <trkpt lat="44.18636" lon="5.53393">
        <ele>882</ele>
        <time>2019-03-27T14:40:34Z</time>
      </trkpt>
      <trkpt lat="44.18638" lon="5.53396">
        <ele>882</ele>
        <time>2019-03-27T14:40:35Z</time>
      </trkpt>
      <trkpt lat="44.18639" lon="5.534">
        <ele>882</ele>
        <time>2019-03-27T14:40:36Z</time>
      </trkpt>
      <trkpt lat="44.18642" lon="5.53403">
        <ele>882</ele>
        <time>2019-03-27T14:40:37Z</time>
      </trkpt>
      <trkpt lat="44.18643" lon="5.53406">
        <ele>882</ele>
        <time>2019-03-27T14:40:38Z</time>
      </trkpt>
      <trkpt lat="44.18645" lon="5.53408">
        <ele>882</ele>
        <time>2019-03-27T14:40:39Z</time>
      </trkpt>
      <trkpt lat="44.18648" lon="5.5341">
        <ele>882</ele>
        <time>2019-03-27T14:40:40Z</time>
      </trkpt>
      <trkpt lat="44.18651" lon="5.53412">
        <ele>882</ele>
        <time>2019-03-27T14:40:41Z</time>
      </trkpt>
      <trkpt lat="44.18653" lon="5.53414">
        <ele>882</ele>
        <time>2019-03-27T14:40:42Z</time>
      </trkpt>
      <trkpt lat="44.18656" lon="5.53416">
        <ele>882</ele>
        <time>2019-03-27T14:40:43Z</time>
      </trkpt>
      <trkpt lat="44.18659" lon="5.53417">
        <ele>882</ele>
        <time>2019-03-27T14:40:44Z</time>
      </trkpt>
      <trkpt lat="44.18662" lon="5.53418">
        <ele>882</ele>
        <time>2019-03-27T14:40:45Z</time>
      </trkpt>
      <trkpt lat="44.18665" lon="5.53418">
        <ele>882</ele>
        <time>2019-03-27T14:40:46Z</time>
      </trkpt>
      <trkpt lat="44.18669" lon="5.53417">
        <ele>882</ele>
        <time>2019-03-27T14:40:47Z</time>
      </trkpt>
      <trkpt lat="44.18672" lon="5.53415">
        <ele>882</ele>
        <time>2019-03-27T14:40:48Z</time>
      </trkpt>
      <trkpt lat="44.18674" lon="5.53412">
        <ele>882</ele>
        <time>2019-03-27T14:40:49Z</time>
      </trkpt>
      <trkpt lat="44.18677" lon="5.53409">
        <ele>882</ele>
        <time>2019-03-27T14:40:50Z</time>
      </trkpt>
      <trkpt lat="44.18679" lon="5.53406">
        <ele>882</ele>
        <time>2019-03-27T14:40:51Z</time>
      </trkpt>
      <trkpt lat="44.1868" lon="5.53402">
        <ele>882</ele>
        <time>2019-03-27T14:40:52Z</time>
      </trkpt>
      <trkpt lat="44.18681" lon="5.53398">
        <ele>882</ele>
        <time>2019-03-27T14:40:53Z</time>
      </trkpt>
      <trkpt lat="44.18681" lon="5.53394">
        <ele>882</ele>
        <time>2019-03-27T14:40:54Z</time>
      </trkpt>
      <trkpt lat="44.1868" lon="5.5339">
        <ele>882</ele>
        <time>2019-03-27T14:40:55Z</time>
      </trkpt>
      <trkpt lat="44.18679" lon="5.53385">
        <ele>882</ele>
        <time>2019-03-27T14:40:56Z</time>
      </trkpt>
      <trkpt lat="44.18678" lon="5.53382">
        <ele>882</ele>
        <time>2019-03-27T14:40:57Z</time>
      </trkpt>
      <trkpt lat="44.18676" lon="5.53378">
        <ele>883</ele>
        <time>2019-03-27T14:40:58Z</time>
      </trkpt>
      <trkpt lat="44.18673" lon="5.53375">
        <ele>883</ele>
        <time>2019-03-27T14:40:59Z</time>
      </trkpt>
      <trkpt lat="44.18671" lon="5.53372">
        <ele>884</ele>
        <time>2019-03-27T14:41:00Z</time>
      </trkpt>
      <trkpt lat="44.18669" lon="5.5337">
        <ele>884</ele>
        <time>2019-03-27T14:41:01Z</time>
      </trkpt>
      <trkpt lat="44.18666" lon="5.53367">
        <ele>885</ele>
        <time>2019-03-27T14:41:02Z</time>
      </trkpt>
      <trkpt lat="44.18664" lon="5.53365">
        <ele>885</ele>
        <time>2019-03-27T14:41:03Z</time>
      </trkpt>
      <trkpt lat="44.18661" lon="5.53363">
        <ele>885</ele>
        <time>2019-03-27T14:41:04Z</time>
      </trkpt>
      <trkpt lat="44.18659" lon="5.53362">
        <ele>885</ele>
        <time>2019-03-27T14:41:05Z</time>
      </trkpt>
      <trkpt lat="44.18656" lon="5.5336">
        <ele>885</ele>
        <time>2019-03-27T14:41:06Z</time>
      </trkpt>
      <trkpt lat="44.18653" lon="5.53358">
        <ele>885</ele>
        <time>2019-03-27T14:41:07Z</time>
      </trkpt>
      <trkpt lat="44.18651" lon="5.53356">
        <ele>885</ele>
        <time>2019-03-27T14:41:08Z</time>
      </trkpt>
      <trkpt lat="44.18649" lon="5.53353">
        <ele>885</ele>
        <time>2019-03-27T14:41:09Z</time>
      </trkpt>
      <trkpt lat="44.18646" lon="5.53351">
        <ele>885</ele>
        <time>2019-03-27T14:41:10Z</time>
      </trkpt>
      <trkpt lat="44.18644" lon="5.53349">
        <ele>885</ele>
        <time>2019-03-27T14:41:11Z</time>
      </trkpt>
      <trkpt lat="44.18641" lon="5.53346">
        <ele>885</ele>
        <time>2019-03-27T14:41:12Z</time>
      </trkpt>
      <trkpt lat="44.18639" lon="5.53344">
        <ele>885</ele>
        <time>2019-03-27T14:41:13Z</time>
      </trkpt>
      <trkpt lat="44.18637" lon="5.53341">
        <ele>885</ele>
        <time>2019-03-27T14:41:14Z</time>
      </trkpt>
      <trkpt lat="44.18634" lon="5.53339">
        <ele>886</ele>
        <time>2019-03-27T14:41:15Z</time>
      </trkpt>
      <trkpt lat="44.18633" lon="5.53336">
        <ele>886</ele>
        <time>2019-03-27T14:41:16Z</time>
      </trkpt>
      <trkpt lat="44.18631" lon="5.53334">
        <ele>886</ele>
        <time>2019-03-27T14:41:17Z</time>
      </trkpt>
      <trkpt lat="44.18629" lon="5.53331">
        <ele>887</ele>
        <time>2019-03-27T14:41:18Z</time>
      </trkpt>
      <trkpt lat="44.18628" lon="5.53329">
        <ele>887</ele>
        <time>2019-03-27T14:41:19Z</time>
      </trkpt>
      <trkpt lat="44.18626" lon="5.53326">
        <ele>887</ele>
        <time>2019-03-27T14:41:20Z</time>
      </trkpt>
      <trkpt lat="44.18625" lon="5.53323">
        <ele>887</ele>
        <time>2019-03-27T14:41:21Z</time>
      </trkpt>
      <trkpt lat="44.18624" lon="5.5332">
        <ele>887</ele>
        <time>2019-03-27T14:41:22Z</time>
      </trkpt>
      <trkpt lat="44.18623" lon="5.53317">
        <ele>888</ele>
        <time>2019-03-27T14:41:23Z</time>
      </trkpt>
      <trkpt lat="44.18621" lon="5.53314">
        <ele>888</ele>
        <time>2019-03-27T14:41:24Z</time>
      </trkpt>
      <trkpt lat="44.1862" lon="5.53311">
        <ele>888</ele>
        <time>2019-03-27T14:41:25Z</time>
      </trkpt>
      <trkpt lat="44.18618" lon="5.53307">
        <ele>888</ele>
        <time>2019-03-27T14:41:26Z</time>
      </trkpt>
      <trkpt lat="44.18617" lon="5.53304">
        <ele>888</ele>
        <time>2019-03-27T14:41:27Z</time>
      </trkpt>
      <trkpt lat="44.18616" lon="5.53301">
        <ele>888</ele>
        <time>2019-03-27T14:41:28Z</time>
      </trkpt>
      <trkpt lat="44.18614" lon="5.53298">
        <ele>888</ele>
        <time>2019-03-27T14:41:29Z</time>
      </trkpt>
      <trkpt lat="44.18613" lon="5.53294">
        <ele>889</ele>
        <time>2019-03-27T14:41:30Z</time>
      </trkpt>
      <trkpt lat="44.18612" lon="5.53291">
        <ele>889</ele>
        <time>2019-03-27T14:41:31Z</time>
      </trkpt>
      <trkpt lat="44.18611" lon="5.53287">
        <ele>889</ele>
        <time>2019-03-27T14:41:32Z</time>
      </trkpt>
      <trkpt lat="44.18609" lon="5.53284">
        <ele>889</ele>
        <time>2019-03-27T14:41:33Z</time>
      </trkpt>
      <trkpt lat="44.18608" lon="5.5328">
        <ele>890</ele>
        <time>2019-03-27T14:41:34Z</time>
      </trkpt>
      <trkpt lat="44.18607" lon="5.53277">
        <ele>890</ele>
        <time>2019-03-27T14:41:35Z</time>
      </trkpt>
      <trkpt lat="44.18605" lon="5.53274">
        <ele>890</ele>
        <time>2019-03-27T14:41:36Z</time>
      </trkpt>
      <trkpt lat="44.18604" lon="5.5327">
        <ele>891</ele>
        <time>2019-03-27T14:41:37Z</time>
      </trkpt>
      <trkpt lat="44.18603" lon="5.53267">
        <ele>891</ele>
        <time>2019-03-27T14:41:38Z</time>
      </trkpt>
      <trkpt lat="44.18602" lon="5.53265">
        <ele>891</ele>
        <time>2019-03-27T14:41:39Z</time>
      </trkpt>
      <trkpt lat="44.186" lon="5.53262">
        <ele>892</ele>
        <time>2019-03-27T14:41:40Z</time>
      </trkpt>
      <trkpt lat="44.18599" lon="5.53259">
        <ele>892</ele>
        <time>2019-03-27T14:41:41Z</time>
      </trkpt>
      <trkpt lat="44.18598" lon="5.53256">
        <ele>892</ele>
        <time>2019-03-27T14:41:42Z</time>
      </trkpt>
      <trkpt lat="44.18597" lon="5.53253">
        <ele>893</ele>
        <time>2019-03-27T14:41:43Z</time>
      </trkpt>
      <trkpt lat="44.18595" lon="5.5325">
        <ele>893</ele>
        <time>2019-03-27T14:41:44Z</time>
      </trkpt>
      <trkpt lat="44.18593" lon="5.53247">
        <ele>893</ele>
        <time>2019-03-27T14:41:45Z</time>
      </trkpt>
      <trkpt lat="44.18592" lon="5.53244">
        <ele>893</ele>
        <time>2019-03-27T14:41:46Z</time>
      </trkpt>
      <trkpt lat="44.1859" lon="5.53241">
        <ele>894</ele>
        <time>2019-03-27T14:41:47Z</time>
      </trkpt>
      <trkpt lat="44.18588" lon="5.53238">
        <ele>894</ele>
        <time>2019-03-27T14:41:48Z</time>
      </trkpt>
      <trkpt lat="44.18586" lon="5.53235">
        <ele>894</ele>
        <time>2019-03-27T14:41:49Z</time>
      </trkpt>
      <trkpt lat="44.18585" lon="5.53231">
        <ele>894</ele>
        <time>2019-03-27T14:41:50Z</time>
      </trkpt>
      <trkpt lat="44.18583" lon="5.53228">
        <ele>895</ele>
        <time>2019-03-27T14:41:51Z</time>
      </trkpt>
      <trkpt lat="44.18582" lon="5.53225">
        <ele>895</ele>
        <time>2019-03-27T14:41:52Z</time>
      </trkpt>
      <trkpt lat="44.1858" lon="5.53223">
        <ele>895</ele>
        <time>2019-03-27T14:41:53Z</time>
      </trkpt>
      <trkpt lat="44.18578" lon="5.5322">
        <ele>895</ele>
        <time>2019-03-27T14:41:54Z</time>
      </trkpt>
      <trkpt lat="44.18576" lon="5.53217">
        <ele>896</ele>
        <time>2019-03-27T14:41:55Z</time>
      </trkpt>
      <trkpt lat="44.18575" lon="5.53214">
        <ele>896</ele>
        <time>2019-03-27T14:41:56Z</time>
      </trkpt>
      <trkpt lat="44.18573" lon="5.5321">
        <ele>897</ele>
        <time>2019-03-27T14:41:57Z</time>
      </trkpt>
      <trkpt lat="44.18571" lon="5.53207">
        <ele>897</ele>
        <time>2019-03-27T14:41:58Z</time>
      </trkpt>
      <trkpt lat="44.18569" lon="5.53204">
        <ele>898</ele>
        <time>2019-03-27T14:41:59Z</time>
      </trkpt>
      <trkpt lat="44.18567" lon="5.53201">
        <ele>898</ele>
        <time>2019-03-27T14:42:00Z</time>
      </trkpt>
      <trkpt lat="44.18565" lon="5.53198">
        <ele>898</ele>
        <time>2019-03-27T14:42:01Z</time>
      </trkpt>
      <trkpt lat="44.18563" lon="5.53196">
        <ele>898</ele>
        <time>2019-03-27T14:42:02Z</time>
      </trkpt>
      <trkpt lat="44.18561" lon="5.53193">
        <ele>898</ele>
        <time>2019-03-27T14:42:03Z</time>
      </trkpt>
      <trkpt lat="44.18559" lon="5.5319">
        <ele>898</ele>
        <time>2019-03-27T14:42:04Z</time>
      </trkpt>
      <trkpt lat="44.18557" lon="5.53188">
        <ele>899</ele>
        <time>2019-03-27T14:42:05Z</time>
      </trkpt>
      <trkpt lat="44.18555" lon="5.53186">
        <ele>899</ele>
        <time>2019-03-27T14:42:06Z</time>
      </trkpt>
      <trkpt lat="44.18552" lon="5.53183">
        <ele>899</ele>
        <time>2019-03-27T14:42:07Z</time>
      </trkpt>
      <trkpt lat="44.1855" lon="5.53181">
        <ele>900</ele>
        <time>2019-03-27T14:42:08Z</time>
      </trkpt>
      <trkpt lat="44.18548" lon="5.5318">
        <ele>900</ele>
        <time>2019-03-27T14:42:09Z</time>
      </trkpt>
      <trkpt lat="44.18545" lon="5.53178">
        <ele>900</ele>
        <time>2019-03-27T14:42:10Z</time>
      </trkpt>
      <trkpt lat="44.18543" lon="5.53176">
        <ele>901</ele>
        <time>2019-03-27T14:42:11Z</time>
      </trkpt>
      <trkpt lat="44.18541" lon="5.53174">
        <ele>901</ele>
        <time>2019-03-27T14:42:12Z</time>
      </trkpt>
      <trkpt lat="44.18539" lon="5.53172">
        <ele>901</ele>
        <time>2019-03-27T14:42:13Z</time>
      </trkpt>
      <trkpt lat="44.18536" lon="5.5317">
        <ele>901</ele>
        <time>2019-03-27T14:42:14Z</time>
      </trkpt>
      <trkpt lat="44.18534" lon="5.53169">
        <ele>901</ele>
        <time>2019-03-27T14:42:15Z</time>
      </trkpt>
      <trkpt lat="44.18531" lon="5.53167">
        <ele>901</ele>
        <time>2019-03-27T14:42:16Z</time>
      </trkpt>
      <trkpt lat="44.18529" lon="5.53164">
        <ele>901</ele>
        <time>2019-03-27T14:42:17Z</time>
      </trkpt>
      <trkpt lat="44.18526" lon="5.53162">
        <ele>901</ele>
        <time>2019-03-27T14:42:18Z</time>
      </trkpt>
      <trkpt lat="44.18524" lon="5.5316">
        <ele>901</ele>
        <time>2019-03-27T14:42:19Z</time>
      </trkpt>
      <trkpt lat="44.18521" lon="5.53158">
        <ele>901</ele>
        <time>2019-03-27T14:42:20Z</time>
      </trkpt>
      <trkpt lat="44.18519" lon="5.53156">
        <ele>901</ele>
        <time>2019-03-27T14:42:21Z</time>
      </trkpt>
      <trkpt lat="44.18517" lon="5.53155">
        <ele>901</ele>
        <time>2019-03-27T14:42:22Z</time>
      </trkpt>
      <trkpt lat="44.18514" lon="5.53153">
        <ele>901</ele>
        <time>2019-03-27T14:42:23Z</time>
      </trkpt>
      <trkpt lat="44.18512" lon="5.53151">
        <ele>901</ele>
        <time>2019-03-27T14:42:24Z</time>
      </trkpt>
      <trkpt lat="44.18509" lon="5.5315">
        <ele>901</ele>
        <time>2019-03-27T14:42:25Z</time>
      </trkpt>
      <trkpt lat="44.18507" lon="5.53149">
        <ele>901</ele>
        <time>2019-03-27T14:42:26Z</time>
      </trkpt>
      <trkpt lat="44.18504" lon="5.53147">
        <ele>901</ele>
        <time>2019-03-27T14:42:27Z</time>
      </trkpt>
      <trkpt lat="44.18502" lon="5.53146">
        <ele>901</ele>
        <time>2019-03-27T14:42:28Z</time>
      </trkpt>
      <trkpt lat="44.18499" lon="5.53146">
        <ele>901</ele>
        <time>2019-03-27T14:42:29Z</time>
      </trkpt>
      <trkpt lat="44.18496" lon="5.53145">
        <ele>901</ele>
        <time>2019-03-27T14:42:30Z</time>
      </trkpt>
      <trkpt lat="44.18493" lon="5.53144">
        <ele>901</ele>
        <time>2019-03-27T14:42:31Z</time>
      </trkpt>
      <trkpt lat="44.18491" lon="5.53144">
        <ele>901</ele>
        <time>2019-03-27T14:42:32Z</time>
      </trkpt>
      <trkpt lat="44.18488" lon="5.53144">
        <ele>901</ele>
        <time>2019-03-27T14:42:33Z</time>
      </trkpt>
      <trkpt lat="44.18485" lon="5.53144">
        <ele>901</ele>
        <time>2019-03-27T14:42:34Z</time>
      </trkpt>
      <trkpt lat="44.18483" lon="5.53144">
        <ele>901</ele>
        <time>2019-03-27T14:42:35Z</time>
      </trkpt>
      <trkpt lat="44.1848" lon="5.53144">
        <ele>901</ele>
        <time>2019-03-27T14:42:36Z</time>
      </trkpt>
      <trkpt lat="44.18477" lon="5.53145">
        <ele>901</ele>
        <time>2019-03-27T14:42:37Z</time>
      </trkpt>
      <trkpt lat="44.18475" lon="5.53145">
        <ele>901</ele>
        <time>2019-03-27T14:42:38Z</time>
      </trkpt>
      <trkpt lat="44.18472" lon="5.53146">
        <ele>901</ele>
        <time>2019-03-27T14:42:39Z</time>
      </trkpt>
      <trkpt lat="44.18469" lon="5.53147">
        <ele>901</ele>
        <time>2019-03-27T14:42:40Z</time>
      </trkpt>
      <trkpt lat="44.18467" lon="5.53149">
        <ele>901</ele>
        <time>2019-03-27T14:42:41Z</time>
      </trkpt>
      <trkpt lat="44.18464" lon="5.5315">
        <ele>901</ele>
        <time>2019-03-27T14:42:42Z</time>
      </trkpt>
      <trkpt lat="44.18461" lon="5.53151">
        <ele>901</ele>
        <time>2019-03-27T14:42:43Z</time>
      </trkpt>
      <trkpt lat="44.18459" lon="5.53151">
        <ele>901</ele>
        <time>2019-03-27T14:42:44Z</time>
      </trkpt>
      <trkpt lat="44.18456" lon="5.53152">
        <ele>901</ele>
        <time>2019-03-27T14:42:45Z</time>
      </trkpt>
      <trkpt lat="44.18454" lon="5.53153">
        <ele>901</ele>
        <time>2019-03-27T14:42:46Z</time>
      </trkpt>
      <trkpt lat="44.18451" lon="5.53153">
        <ele>901</ele>
        <time>2019-03-27T14:42:47Z</time>
      </trkpt>
      <trkpt lat="44.18448" lon="5.53154">
        <ele>901</ele>
        <time>2019-03-27T14:42:48Z</time>
      </trkpt>
      <trkpt lat="44.18445" lon="5.53155">
        <ele>901</ele>
        <time>2019-03-27T14:42:49Z</time>
      </trkpt>
      <trkpt lat="44.18442" lon="5.53155">
        <ele>901</ele>
        <time>2019-03-27T14:42:50Z</time>
      </trkpt>
      <trkpt lat="44.18439" lon="5.53156">
        <ele>901</ele>
        <time>2019-03-27T14:42:51Z</time>
      </trkpt>
      <trkpt lat="44.18436" lon="5.53156">
        <ele>901</ele>
        <time>2019-03-27T14:42:52Z</time>
      </trkpt>
      <trkpt lat="44.18434" lon="5.53156">
        <ele>901</ele>
        <time>2019-03-27T14:42:53Z</time>
      </trkpt>
      <trkpt lat="44.18431" lon="5.53156">
        <ele>901</ele>
        <time>2019-03-27T14:42:54Z</time>
      </trkpt>
      <trkpt lat="44.18428" lon="5.53155">
        <ele>901</ele>
        <time>2019-03-27T14:42:55Z</time>
      </trkpt>
      <trkpt lat="44.18425" lon="5.53154">
        <ele>901</ele>
        <time>2019-03-27T14:42:56Z</time>
      </trkpt>
      <trkpt lat="44.18423" lon="5.53152">
        <ele>901</ele>
        <time>2019-03-27T14:42:57Z</time>
      </trkpt>
      <trkpt lat="44.1842" lon="5.53151">
        <ele>901</ele>
        <time>2019-03-27T14:42:58Z</time>
      </trkpt>
      <trkpt lat="44.18418" lon="5.5315">
        <ele>901</ele>
        <time>2019-03-27T14:42:59Z</time>
      </trkpt>
      <trkpt lat="44.18415" lon="5.53149">
        <ele>901</ele>
        <time>2019-03-27T14:43:00Z</time>
      </trkpt>
      <trkpt lat="44.18413" lon="5.53148">
        <ele>901</ele>
        <time>2019-03-27T14:43:01Z</time>
      </trkpt>
      <trkpt lat="44.18411" lon="5.53145">
        <ele>902</ele>
        <time>2019-03-27T14:43:02Z</time>
      </trkpt>
      <trkpt lat="44.18409" lon="5.53142">
        <ele>902</ele>
        <time>2019-03-27T14:43:03Z</time>
      </trkpt>
      <trkpt lat="44.18407" lon="5.53139">
        <ele>903</ele>
        <time>2019-03-27T14:43:04Z</time>
      </trkpt>
      <trkpt lat="44.18405" lon="5.53136">
        <ele>903</ele>
        <time>2019-03-27T14:43:05Z</time>
      </trkpt>
      <trkpt lat="44.18404" lon="5.53134">
        <ele>904</ele>
        <time>2019-03-27T14:43:06Z</time>
      </trkpt>
      <trkpt lat="44.18402" lon="5.53131">
        <ele>904</ele>
        <time>2019-03-27T14:43:07Z</time>
      </trkpt>
      <trkpt lat="44.184" lon="5.53129">
        <ele>904</ele>
        <time>2019-03-27T14:43:08Z</time>
      </trkpt>
      <trkpt lat="44.18399" lon="5.53126">
        <ele>905</ele>
        <time>2019-03-27T14:43:09Z</time>
      </trkpt>
      <trkpt lat="44.18398" lon="5.53123">
        <ele>905</ele>
        <time>2019-03-27T14:43:10Z</time>
      </trkpt>
      <trkpt lat="44.18396" lon="5.5312">
        <ele>905</ele>
        <time>2019-03-27T14:43:11Z</time>
      </trkpt>
      <trkpt lat="44.18394" lon="5.53117">
        <ele>906</ele>
        <time>2019-03-27T14:43:12Z</time>
      </trkpt>
      <trkpt lat="44.18393" lon="5.53114">
        <ele>906</ele>
        <time>2019-03-27T14:43:13Z</time>
      </trkpt>
      <trkpt lat="44.18392" lon="5.53111">
        <ele>906</ele>
        <time>2019-03-27T14:43:14Z</time>
      </trkpt>
      <trkpt lat="44.18391" lon="5.53107">
        <ele>906</ele>
        <time>2019-03-27T14:43:15Z</time>
      </trkpt>
      <trkpt lat="44.1839" lon="5.53103">
        <ele>907</ele>
        <time>2019-03-27T14:43:16Z</time>
      </trkpt>
      <trkpt lat="44.18389" lon="5.531">
        <ele>907</ele>
        <time>2019-03-27T14:43:17Z</time>
      </trkpt>
      <trkpt lat="44.18389" lon="5.53096">
        <ele>907</ele>
        <time>2019-03-27T14:43:18Z</time>
      </trkpt>
      <trkpt lat="44.18388" lon="5.53092">
        <ele>907</ele>
        <time>2019-03-27T14:43:19Z</time>
      </trkpt>
      <trkpt lat="44.18388" lon="5.53088">
        <ele>907</ele>
        <time>2019-03-27T14:43:20Z</time>
      </trkpt>
      <trkpt lat="44.18388" lon="5.53084">
        <ele>907</ele>
        <time>2019-03-27T14:43:21Z</time>
      </trkpt>
      <trkpt lat="44.18388" lon="5.53081">
        <ele>907</ele>
        <time>2019-03-27T14:43:22Z</time>
      </trkpt>
      <trkpt lat="44.18388" lon="5.53077">
        <ele>907</ele>
        <time>2019-03-27T14:43:23Z</time>
      </trkpt>
      <trkpt lat="44.18388" lon="5.53074">
        <ele>907</ele>
        <time>2019-03-27T14:43:24Z</time>
      </trkpt>
      <trkpt lat="44.18389" lon="5.5307">
        <ele>908</ele>
        <time>2019-03-27T14:43:25Z</time>
      </trkpt>
      <trkpt lat="44.1839" lon="5.53067">
        <ele>908</ele>
        <time>2019-03-27T14:43:26Z</time>
      </trkpt>
      <trkpt lat="44.1839" lon="5.53064">
        <ele>908</ele>
        <time>2019-03-27T14:43:27Z</time>
      </trkpt>
      <trkpt lat="44.18391" lon="5.53061">
        <ele>908</ele>
        <time>2019-03-27T14:43:28Z</time>
      </trkpt>
      <trkpt lat="44.18392" lon="5.53058">
        <ele>908</ele>
        <time>2019-03-27T14:43:29Z</time>
      </trkpt>
      <trkpt lat="44.18393" lon="5.53055">
        <ele>908</ele>
        <time>2019-03-27T14:43:30Z</time>
      </trkpt>
      <trkpt lat="44.18394" lon="5.53052">
        <ele>908</ele>
        <time>2019-03-27T14:43:31Z</time>
      </trkpt>
      <trkpt lat="44.18396" lon="5.53049">
        <ele>909</ele>
        <time>2019-03-27T14:43:32Z</time>
      </trkpt>
      <trkpt lat="44.18397" lon="5.53046">
        <ele>909</ele>
        <time>2019-03-27T14:43:33Z</time>
      </trkpt>
      <trkpt lat="44.18398" lon="5.53043">
        <ele>909</ele>
        <time>2019-03-27T14:43:34Z</time>
      </trkpt>
      <trkpt lat="44.18399" lon="5.5304">
        <ele>909</ele>
        <time>2019-03-27T14:43:35Z</time>
      </trkpt>
      <trkpt lat="44.184" lon="5.53037">
        <ele>909</ele>
        <time>2019-03-27T14:43:36Z</time>
      </trkpt>
      <trkpt lat="44.18401" lon="5.53034">
        <ele>909</ele>
        <time>2019-03-27T14:43:37Z</time>
      </trkpt>
      <trkpt lat="44.18402" lon="5.53031">
        <ele>909</ele>
        <time>2019-03-27T14:43:38Z</time>
      </trkpt>
      <trkpt lat="44.18404" lon="5.53028">
        <ele>910</ele>
        <time>2019-03-27T14:43:39Z</time>
      </trkpt>
      <trkpt lat="44.18405" lon="5.53025">
        <ele>910</ele>
        <time>2019-03-27T14:43:40Z</time>
      </trkpt>
      <trkpt lat="44.18406" lon="5.53022">
        <ele>910</ele>
        <time>2019-03-27T14:43:41Z</time>
      </trkpt>
      <trkpt lat="44.18407" lon="5.5302">
        <ele>911</ele>
        <time>2019-03-27T14:43:42Z</time>
      </trkpt>
      <trkpt lat="44.18407" lon="5.53016">
        <ele>911</ele>
        <time>2019-03-27T14:43:43Z</time>
      </trkpt>
      <trkpt lat="44.18408" lon="5.53013">
        <ele>911</ele>
        <time>2019-03-27T14:43:44Z</time>
      </trkpt>
      <trkpt lat="44.18409" lon="5.5301">
        <ele>911</ele>
        <time>2019-03-27T14:43:45Z</time>
      </trkpt>
      <trkpt lat="44.18409" lon="5.53007">
        <ele>911</ele>
        <time>2019-03-27T14:43:46Z</time>
      </trkpt>
      <trkpt lat="44.1841" lon="5.53004">
        <ele>911</ele>
        <time>2019-03-27T14:43:47Z</time>
      </trkpt>
      <trkpt lat="44.18411" lon="5.53">
        <ele>911</ele>
        <time>2019-03-27T14:43:48Z</time>
      </trkpt>
      <trkpt lat="44.18411" lon="5.52997">
        <ele>911</ele>
        <time>2019-03-27T14:43:49Z</time>
      </trkpt>
      <trkpt lat="44.18411" lon="5.52993">
        <ele>911</ele>
        <time>2019-03-27T14:43:50Z</time>
      </trkpt>
      <trkpt lat="44.18412" lon="5.5299">
        <ele>911</ele>
        <time>2019-03-27T14:43:51Z</time>
      </trkpt>
      <trkpt lat="44.18412" lon="5.52987">
        <ele>911</ele>
        <time>2019-03-27T14:43:52Z</time>
      </trkpt>
      <trkpt lat="44.18412" lon="5.52983">
        <ele>911</ele>
        <time>2019-03-27T14:43:53Z</time>
      </trkpt>
      <trkpt lat="44.18411" lon="5.5298">
        <ele>911</ele>
        <time>2019-03-27T14:43:54Z</time>
      </trkpt>
      <trkpt lat="44.18411" lon="5.52976">
        <ele>911</ele>
        <time>2019-03-27T14:43:55Z</time>
      </trkpt>
      <trkpt lat="44.1841" lon="5.52973">
        <ele>912</ele>
        <time>2019-03-27T14:43:56Z</time>
      </trkpt>
      <trkpt lat="44.18409" lon="5.5297">
        <ele>912</ele>
        <time>2019-03-27T14:43:57Z</time>
      </trkpt>
      <trkpt lat="44.18408" lon="5.52966">
        <ele>913</ele>
        <time>2019-03-27T14:43:58Z</time>
      </trkpt>
      <trkpt lat="44.18407" lon="5.52963">
        <ele>913</ele>
        <time>2019-03-27T14:43:59Z</time>
      </trkpt>
      <trkpt lat="44.18406" lon="5.5296">
        <ele>914</ele>
        <time>2019-03-27T14:44:00Z</time>
      </trkpt>
      <trkpt lat="44.18405" lon="5.52957">
        <ele>914</ele>
        <time>2019-03-27T14:44:01Z</time>
      </trkpt>
      <trkpt lat="44.18404" lon="5.52953">
        <ele>915</ele>
        <time>2019-03-27T14:44:02Z</time>
      </trkpt>
      <trkpt lat="44.18402" lon="5.5295">
        <ele>915</ele>
        <time>2019-03-27T14:44:03Z</time>
      </trkpt>
      <trkpt lat="44.18401" lon="5.52947">
        <ele>916</ele>
        <time>2019-03-27T14:44:04Z</time>
      </trkpt>
      <trkpt lat="44.18399" lon="5.52943">
        <ele>916</ele>
        <time>2019-03-27T14:44:05Z</time>
      </trkpt>
      <trkpt lat="44.18398" lon="5.5294">
        <ele>916</ele>
        <time>2019-03-27T14:44:06Z</time>
      </trkpt>
      <trkpt lat="44.18397" lon="5.52936">
        <ele>916</ele>
        <time>2019-03-27T14:44:07Z</time>
      </trkpt>
      <trkpt lat="44.18395" lon="5.52933">
        <ele>917</ele>
        <time>2019-03-27T14:44:08Z</time>
      </trkpt>
      <trkpt lat="44.18394" lon="5.5293">
        <ele>917</ele>
        <time>2019-03-27T14:44:09Z</time>
      </trkpt>
      <trkpt lat="44.18392" lon="5.52926">
        <ele>917</ele>
        <time>2019-03-27T14:44:10Z</time>
      </trkpt>
      <trkpt lat="44.18391" lon="5.52923">
        <ele>917</ele>
        <time>2019-03-27T14:44:11Z</time>
      </trkpt>
      <trkpt lat="44.18389" lon="5.5292">
        <ele>917</ele>
        <time>2019-03-27T14:44:12Z</time>
      </trkpt>
      <trkpt lat="44.18388" lon="5.52916">
        <ele>917</ele>
        <time>2019-03-27T14:44:13Z</time>
      </trkpt>
      <trkpt lat="44.18387" lon="5.52913">
        <ele>917</ele>
        <time>2019-03-27T14:44:14Z</time>
      </trkpt>
      <trkpt lat="44.18386" lon="5.5291">
        <ele>917</ele>
        <time>2019-03-27T14:44:15Z</time>
      </trkpt>
      <trkpt lat="44.18385" lon="5.52906">
        <ele>917</ele>
        <time>2019-03-27T14:44:16Z</time>
      </trkpt>
      <trkpt lat="44.18383" lon="5.52903">
        <ele>917</ele>
        <time>2019-03-27T14:44:17Z</time>
      </trkpt>
      <trkpt lat="44.18383" lon="5.529">
        <ele>917</ele>
        <time>2019-03-27T14:44:18Z</time>
      </trkpt>
      <trkpt lat="44.18381" lon="5.52896">
        <ele>918</ele>
        <time>2019-03-27T14:44:19Z</time>
      </trkpt>
      <trkpt lat="44.1838" lon="5.52893">
        <ele>918</ele>
        <time>2019-03-27T14:44:20Z</time>
      </trkpt>
      <trkpt lat="44.1838" lon="5.5289">
        <ele>918</ele>
        <time>2019-03-27T14:44:21Z</time>
      </trkpt>
      <trkpt lat="44.18378" lon="5.52887">
        <ele>918</ele>
        <time>2019-03-27T14:44:22Z</time>
      </trkpt>
      <trkpt lat="44.18378" lon="5.52884">
        <ele>918</ele>
        <time>2019-03-27T14:44:23Z</time>
      </trkpt>
      <trkpt lat="44.18377" lon="5.5288">
        <ele>918</ele>
        <time>2019-03-27T14:44:24Z</time>
      </trkpt>
      <trkpt lat="44.18376" lon="5.52877">
        <ele>919</ele>
        <time>2019-03-27T14:44:25Z</time>
      </trkpt>
      <trkpt lat="44.18375" lon="5.52874">
        <ele>919</ele>
        <time>2019-03-27T14:44:26Z</time>
      </trkpt>
      <trkpt lat="44.18374" lon="5.5287">
        <ele>919</ele>
        <time>2019-03-27T14:44:27Z</time>
      </trkpt>
      <trkpt lat="44.18373" lon="5.52867">
        <ele>919</ele>
        <time>2019-03-27T14:44:28Z</time>
      </trkpt>
      <trkpt lat="44.18373" lon="5.52864">
        <ele>919</ele>
        <time>2019-03-27T14:44:29Z</time>
      </trkpt>
      <trkpt lat="44.18372" lon="5.5286">
        <ele>919</ele>
        <time>2019-03-27T14:44:30Z</time>
      </trkpt>
      <trkpt lat="44.18372" lon="5.52857">
        <ele>919</ele>
        <time>2019-03-27T14:44:31Z</time>
      </trkpt>
      <trkpt lat="44.18372" lon="5.52853">
        <ele>920</ele>
        <time>2019-03-27T14:44:32Z</time>
      </trkpt>
      <trkpt lat="44.18371" lon="5.5285">
        <ele>920</ele>
        <time>2019-03-27T14:44:33Z</time>
      </trkpt>
      <trkpt lat="44.18371" lon="5.52847">
        <ele>920</ele>
        <time>2019-03-27T14:44:34Z</time>
      </trkpt>
      <trkpt lat="44.18371" lon="5.52844">
        <ele>920</ele>
        <time>2019-03-27T14:44:35Z</time>
      </trkpt>
      <trkpt lat="44.1837" lon="5.52841">
        <ele>920</ele>
        <time>2019-03-27T14:44:36Z</time>
      </trkpt>
      <trkpt lat="44.1837" lon="5.52837">
        <ele>920</ele>
        <time>2019-03-27T14:44:37Z</time>
      </trkpt>
      <trkpt lat="44.1837" lon="5.52834">
        <ele>921</ele>
        <time>2019-03-27T14:44:38Z</time>
      </trkpt>
      <trkpt lat="44.18369" lon="5.52831">
        <ele>921</ele>
        <time>2019-03-27T14:44:39Z</time>
      </trkpt>
      <trkpt lat="44.18369" lon="5.52827">
        <ele>921</ele>
        <time>2019-03-27T14:44:40Z</time>
      </trkpt>
      <trkpt lat="44.18368" lon="5.52824">
        <ele>921</ele>
        <time>2019-03-27T14:44:41Z</time>
      </trkpt>
      <trkpt lat="44.18368" lon="5.52821">
        <ele>921</ele>
        <time>2019-03-27T14:44:42Z</time>
      </trkpt>
      <trkpt lat="44.18367" lon="5.52818">
        <ele>921</ele>
        <time>2019-03-27T14:44:43Z</time>
      </trkpt>
      <trkpt lat="44.18367" lon="5.52814">
        <ele>921</ele>
        <time>2019-03-27T14:44:44Z</time>
      </trkpt>
      <trkpt lat="44.18366" lon="5.52811">
        <ele>921</ele>
        <time>2019-03-27T14:44:45Z</time>
      </trkpt>
      <trkpt lat="44.18366" lon="5.52808">
        <ele>921</ele>
        <time>2019-03-27T14:44:46Z</time>
      </trkpt>
      <trkpt lat="44.18366" lon="5.52805">
        <ele>921</ele>
        <time>2019-03-27T14:44:47Z</time>
      </trkpt>
      <trkpt lat="44.18365" lon="5.52802">
        <ele>921</ele>
        <time>2019-03-27T14:44:48Z</time>
      </trkpt>
      <trkpt lat="44.18365" lon="5.52799">
        <ele>921</ele>
        <time>2019-03-27T14:44:49Z</time>
      </trkpt>
      <trkpt lat="44.18364" lon="5.52796">
        <ele>921</ele>
        <time>2019-03-27T14:44:50Z</time>
      </trkpt>
      <trkpt lat="44.18363" lon="5.52793">
        <ele>921</ele>
        <time>2019-03-27T14:44:51Z</time>
      </trkpt>
      <trkpt lat="44.18363" lon="5.52789">
        <ele>922</ele>
        <time>2019-03-27T14:44:52Z</time>
      </trkpt>
      <trkpt lat="44.18362" lon="5.52786">
        <ele>922</ele>
        <time>2019-03-27T14:44:53Z</time>
      </trkpt>
      <trkpt lat="44.18361" lon="5.52783">
        <ele>922</ele>
        <time>2019-03-27T14:44:54Z</time>
      </trkpt>
      <trkpt lat="44.1836" lon="5.52779">
        <ele>922</ele>
        <time>2019-03-27T14:44:55Z</time>
      </trkpt>
      <trkpt lat="44.18359" lon="5.52776">
        <ele>922</ele>
        <time>2019-03-27T14:44:56Z</time>
      </trkpt>
      <trkpt lat="44.18358" lon="5.52773">
        <ele>923</ele>
        <time>2019-03-27T14:44:57Z</time>
      </trkpt>
      <trkpt lat="44.18357" lon="5.5277">
        <ele>923</ele>
        <time>2019-03-27T14:44:58Z</time>
      </trkpt>
      <trkpt lat="44.18356" lon="5.52766">
        <ele>923</ele>
        <time>2019-03-27T14:44:59Z</time>
      </trkpt>
      <trkpt lat="44.18354" lon="5.52763">
        <ele>924</ele>
        <time>2019-03-27T14:45:00Z</time>
      </trkpt>
      <trkpt lat="44.18353" lon="5.5276">
        <ele>924</ele>
        <time>2019-03-27T14:45:01Z</time>
      </trkpt>
      <trkpt lat="44.18352" lon="5.52757">
        <ele>924</ele>
        <time>2019-03-27T14:45:02Z</time>
      </trkpt>
      <trkpt lat="44.18351" lon="5.52754">
        <ele>924</ele>
        <time>2019-03-27T14:45:03Z</time>
      </trkpt>
      <trkpt lat="44.18349" lon="5.52751">
        <ele>925</ele>
        <time>2019-03-27T14:45:04Z</time>
      </trkpt>
      <trkpt lat="44.18348" lon="5.52748">
        <ele>925</ele>
        <time>2019-03-27T14:45:05Z</time>
      </trkpt>
      <trkpt lat="44.18346" lon="5.52745">
        <ele>925</ele>
        <time>2019-03-27T14:45:06Z</time>
      </trkpt>
      <trkpt lat="44.18344" lon="5.52742">
        <ele>925</ele>
        <time>2019-03-27T14:45:07Z</time>
      </trkpt>
      <trkpt lat="44.18343" lon="5.52739">
        <ele>926</ele>
        <time>2019-03-27T14:45:08Z</time>
      </trkpt>
      <trkpt lat="44.18341" lon="5.52737">
        <ele>926</ele>
        <time>2019-03-27T14:45:09Z</time>
      </trkpt>
      <trkpt lat="44.18339" lon="5.52734">
        <ele>926</ele>
        <time>2019-03-27T14:45:10Z</time>
      </trkpt>
      <trkpt lat="44.18338" lon="5.52731">
        <ele>926</ele>
        <time>2019-03-27T14:45:11Z</time>
      </trkpt>
      <trkpt lat="44.18335" lon="5.52729">
        <ele>927</ele>
        <time>2019-03-27T14:45:12Z</time>
      </trkpt>
      <trkpt lat="44.18333" lon="5.52726">
        <ele>927</ele>
        <time>2019-03-27T14:45:13Z</time>
      </trkpt>
      <trkpt lat="44.18331" lon="5.52723">
        <ele>927</ele>
        <time>2019-03-27T14:45:14Z</time>
      </trkpt>
      <trkpt lat="44.18329" lon="5.52721">
        <ele>928</ele>
        <time>2019-03-27T14:45:15Z</time>
      </trkpt>
      <trkpt lat="44.18327" lon="5.52718">
        <ele>928</ele>
        <time>2019-03-27T14:45:16Z</time>
      </trkpt>
      <trkpt lat="44.18324" lon="5.52716">
        <ele>928</ele>
        <time>2019-03-27T14:45:17Z</time>
      </trkpt>
      <trkpt lat="44.18322" lon="5.52713">
        <ele>929</ele>
        <time>2019-03-27T14:45:18Z</time>
      </trkpt>
      <trkpt lat="44.1832" lon="5.52711">
        <ele>929</ele>
        <time>2019-03-27T14:45:19Z</time>
      </trkpt>
      <trkpt lat="44.18318" lon="5.52709">
        <ele>929</ele>
        <time>2019-03-27T14:45:20Z</time>
      </trkpt>
      <trkpt lat="44.18315" lon="5.52707">
        <ele>930</ele>
        <time>2019-03-27T14:45:21Z</time>
      </trkpt>
      <trkpt lat="44.18313" lon="5.52705">
        <ele>931</ele>
        <time>2019-03-27T14:45:22Z</time>
      </trkpt>
      <trkpt lat="44.1831" lon="5.52703">
        <ele>931</ele>
        <time>2019-03-27T14:45:23Z</time>
      </trkpt>
      <trkpt lat="44.18308" lon="5.52701">
        <ele>932</ele>
        <time>2019-03-27T14:45:24Z</time>
      </trkpt>
      <trkpt lat="44.18306" lon="5.52699">
        <ele>932</ele>
        <time>2019-03-27T14:45:25Z</time>
      </trkpt>
      <trkpt lat="44.18303" lon="5.52697">
        <ele>932</ele>
        <time>2019-03-27T14:45:26Z</time>
      </trkpt>
      <trkpt lat="44.18301" lon="5.52695">
        <ele>932</ele>
        <time>2019-03-27T14:45:27Z</time>
      </trkpt>
      <trkpt lat="44.18298" lon="5.52693">
        <ele>932</ele>
        <time>2019-03-27T14:45:28Z</time>
      </trkpt>
      <trkpt lat="44.18296" lon="5.5269">
        <ele>932</ele>
        <time>2019-03-27T14:45:29Z</time>
      </trkpt>
      <trkpt lat="44.18294" lon="5.52688">
        <ele>932</ele>
        <time>2019-03-27T14:45:30Z</time>
      </trkpt>
      <trkpt lat="44.18291" lon="5.52685">
        <ele>932</ele>
        <time>2019-03-27T14:45:31Z</time>
      </trkpt>
      <trkpt lat="44.1829" lon="5.52682">
        <ele>932</ele>
        <time>2019-03-27T14:45:32Z</time>
      </trkpt>
      <trkpt lat="44.18288" lon="5.52679">
        <ele>933</ele>
        <time>2019-03-27T14:45:33Z</time>
      </trkpt>
      <trkpt lat="44.18286" lon="5.52676">
        <ele>933</ele>
        <time>2019-03-27T14:45:34Z</time>
      </trkpt>
      <trkpt lat="44.18285" lon="5.52673">
        <ele>933</ele>
        <time>2019-03-27T14:45:35Z</time>
      </trkpt>
      <trkpt lat="44.18283" lon="5.5267">
        <ele>934</ele>
        <time>2019-03-27T14:45:36Z</time>
      </trkpt>
      <trkpt lat="44.18282" lon="5.52668">
        <ele>934</ele>
        <time>2019-03-27T14:45:37Z</time>
      </trkpt>
      <trkpt lat="44.18281" lon="5.52664">
        <ele>934</ele>
        <time>2019-03-27T14:45:38Z</time>
      </trkpt>
      <trkpt lat="44.1828" lon="5.52661">
        <ele>934</ele>
        <time>2019-03-27T14:45:39Z</time>
      </trkpt>
      <trkpt lat="44.18279" lon="5.52659">
        <ele>935</ele>
        <time>2019-03-27T14:45:40Z</time>
      </trkpt>
      <trkpt lat="44.18278" lon="5.52656">
        <ele>935</ele>
        <time>2019-03-27T14:45:41Z</time>
      </trkpt>
      <trkpt lat="44.18277" lon="5.52653">
        <ele>935</ele>
        <time>2019-03-27T14:45:42Z</time>
      </trkpt>
      <trkpt lat="44.18276" lon="5.5265">
        <ele>935</ele>
        <time>2019-03-27T14:45:43Z</time>
      </trkpt>
      <trkpt lat="44.18276" lon="5.52647">
        <ele>936</ele>
        <time>2019-03-27T14:45:44Z</time>
      </trkpt>
      <trkpt lat="44.18275" lon="5.52644">
        <ele>936</ele>
        <time>2019-03-27T14:45:45Z</time>
      </trkpt>
      <trkpt lat="44.18274" lon="5.5264">
        <ele>936</ele>
        <time>2019-03-27T14:45:46Z</time>
      </trkpt>
      <trkpt lat="44.18274" lon="5.52637">
        <ele>936</ele>
        <time>2019-03-27T14:45:47Z</time>
      </trkpt>
      <trkpt lat="44.18273" lon="5.52634">
        <ele>937</ele>
        <time>2019-03-27T14:45:48Z</time>
      </trkpt>
      <trkpt lat="44.18272" lon="5.52631">
        <ele>937</ele>
        <time>2019-03-27T14:45:49Z</time>
      </trkpt>
      <trkpt lat="44.18271" lon="5.52628">
        <ele>937</ele>
        <time>2019-03-27T14:45:50Z</time>
      </trkpt>
      <trkpt lat="44.1827" lon="5.52626">
        <ele>937</ele>
        <time>2019-03-27T14:45:51Z</time>
      </trkpt>
      <trkpt lat="44.1827" lon="5.52623">
        <ele>937</ele>
        <time>2019-03-27T14:45:52Z</time>
      </trkpt>
      <trkpt lat="44.18269" lon="5.5262">
        <ele>938</ele>
        <time>2019-03-27T14:45:53Z</time>
      </trkpt>
      <trkpt lat="44.18269" lon="5.52617">
        <ele>938</ele>
        <time>2019-03-27T14:45:54Z</time>
      </trkpt>
      <trkpt lat="44.18269" lon="5.52614">
        <ele>938</ele>
        <time>2019-03-27T14:45:55Z</time>
      </trkpt>
      <trkpt lat="44.18269" lon="5.52611">
        <ele>938</ele>
        <time>2019-03-27T14:45:56Z</time>
      </trkpt>
      <trkpt lat="44.18269" lon="5.52608">
        <ele>939</ele>
        <time>2019-03-27T14:45:57Z</time>
      </trkpt>
      <trkpt lat="44.18269" lon="5.52605">
        <ele>939</ele>
        <time>2019-03-27T14:45:58Z</time>
      </trkpt>
      <trkpt lat="44.18268" lon="5.52601">
        <ele>939</ele>
        <time>2019-03-27T14:45:59Z</time>
      </trkpt>
      <trkpt lat="44.18268" lon="5.52598">
        <ele>939</ele>
        <time>2019-03-27T14:46:00Z</time>
      </trkpt>
      <trkpt lat="44.18268" lon="5.52595">
        <ele>939</ele>
        <time>2019-03-27T14:46:01Z</time>
      </trkpt>
      <trkpt lat="44.18268" lon="5.52591">
        <ele>939</ele>
        <time>2019-03-27T14:46:02Z</time>
      </trkpt>
      <trkpt lat="44.18268" lon="5.52588">
        <ele>939</ele>
        <time>2019-03-27T14:46:03Z</time>
      </trkpt>
      <trkpt lat="44.18267" lon="5.52585">
        <ele>939</ele>
        <time>2019-03-27T14:46:04Z</time>
      </trkpt>
      <trkpt lat="44.18267" lon="5.52582">
        <ele>939</ele>
        <time>2019-03-27T14:46:05Z</time>
      </trkpt>
      <trkpt lat="44.18267" lon="5.52579">
        <ele>940</ele>
        <time>2019-03-27T14:46:06Z</time>
      </trkpt>
      <trkpt lat="44.18267" lon="5.52576">
        <ele>940</ele>
        <time>2019-03-27T14:46:07Z</time>
      </trkpt>
      <trkpt lat="44.18267" lon="5.52572">
        <ele>940</ele>
        <time>2019-03-27T14:46:08Z</time>
      </trkpt>
      <trkpt lat="44.18267" lon="5.52569">
        <ele>940</ele>
        <time>2019-03-27T14:46:09Z</time>
      </trkpt>
      <trkpt lat="44.18267" lon="5.52566">
        <ele>940</ele>
        <time>2019-03-27T14:46:10Z</time>
      </trkpt>
      <trkpt lat="44.18267" lon="5.52563">
        <ele>940</ele>
        <time>2019-03-27T14:46:11Z</time>
      </trkpt>
      <trkpt lat="44.18266" lon="5.5256">
        <ele>940</ele>
        <time>2019-03-27T14:46:12Z</time>
      </trkpt>
      <trkpt lat="44.18266" lon="5.52556">
        <ele>940</ele>
        <time>2019-03-27T14:46:13Z</time>
      </trkpt>
      <trkpt lat="44.18267" lon="5.52553">
        <ele>940</ele>
        <time>2019-03-27T14:46:14Z</time>
      </trkpt>
      <trkpt lat="44.18267" lon="5.52551">
        <ele>940</ele>
        <time>2019-03-27T14:46:15Z</time>
      </trkpt>
      <trkpt lat="44.18266" lon="5.52548">
        <ele>940</ele>
        <time>2019-03-27T14:46:16Z</time>
      </trkpt>
      <trkpt lat="44.18266" lon="5.52544">
        <ele>940</ele>
        <time>2019-03-27T14:46:17Z</time>
      </trkpt>
      <trkpt lat="44.18266" lon="5.52541">
        <ele>941</ele>
        <time>2019-03-27T14:46:18Z</time>
      </trkpt>
      <trkpt lat="44.18265" lon="5.52538">
        <ele>941</ele>
        <time>2019-03-27T14:46:19Z</time>
      </trkpt>
      <trkpt lat="44.18265" lon="5.52535">
        <ele>941</ele>
        <time>2019-03-27T14:46:20Z</time>
      </trkpt>
      <trkpt lat="44.18264" lon="5.52532">
        <ele>941</ele>
        <time>2019-03-27T14:46:21Z</time>
      </trkpt>
      <trkpt lat="44.18264" lon="5.52529">
        <ele>942</ele>
        <time>2019-03-27T14:46:22Z</time>
      </trkpt>
      <trkpt lat="44.18264" lon="5.52526">
        <ele>942</ele>
        <time>2019-03-27T14:46:23Z</time>
      </trkpt>
      <trkpt lat="44.18263" lon="5.52523">
        <ele>942</ele>
        <time>2019-03-27T14:46:24Z</time>
      </trkpt>
      <trkpt lat="44.18262" lon="5.52519">
        <ele>942</ele>
        <time>2019-03-27T14:46:25Z</time>
      </trkpt>
      <trkpt lat="44.18262" lon="5.52516">
        <ele>942</ele>
        <time>2019-03-27T14:46:26Z</time>
      </trkpt>
      <trkpt lat="44.18261" lon="5.52512">
        <ele>942</ele>
        <time>2019-03-27T14:46:27Z</time>
      </trkpt>
      <trkpt lat="44.18261" lon="5.52508">
        <ele>942</ele>
        <time>2019-03-27T14:46:28Z</time>
      </trkpt>
      <trkpt lat="44.18261" lon="5.52504">
        <ele>942</ele>
        <time>2019-03-27T14:46:29Z</time>
      </trkpt>
      <trkpt lat="44.18261" lon="5.525">
        <ele>942</ele>
        <time>2019-03-27T14:46:30Z</time>
      </trkpt>
      <trkpt lat="44.18261" lon="5.52496">
        <ele>942</ele>
        <time>2019-03-27T14:46:31Z</time>
      </trkpt>
      <trkpt lat="44.18261" lon="5.52493">
        <ele>942</ele>
        <time>2019-03-27T14:46:32Z</time>
      </trkpt>
      <trkpt lat="44.18261" lon="5.52489">
        <ele>942</ele>
        <time>2019-03-27T14:46:33Z</time>
      </trkpt>
      <trkpt lat="44.18261" lon="5.52486">
        <ele>942</ele>
        <time>2019-03-27T14:46:34Z</time>
      </trkpt>
      <trkpt lat="44.18261" lon="5.52483">
        <ele>942</ele>
        <time>2019-03-27T14:46:35Z</time>
      </trkpt>
      <trkpt lat="44.18262" lon="5.52479">
        <ele>942</ele>
        <time>2019-03-27T14:46:36Z</time>
      </trkpt>
      <trkpt lat="44.18262" lon="5.52476">
        <ele>942</ele>
        <time>2019-03-27T14:46:37Z</time>
      </trkpt>
      <trkpt lat="44.18262" lon="5.52472">
        <ele>942</ele>
        <time>2019-03-27T14:46:38Z</time>
      </trkpt>
      <trkpt lat="44.18262" lon="5.52469">
        <ele>942</ele>
        <time>2019-03-27T14:46:39Z</time>
      </trkpt>
      <trkpt lat="44.18262" lon="5.52466">
        <ele>942</ele>
        <time>2019-03-27T14:46:40Z</time>
      </trkpt>
      <trkpt lat="44.18262" lon="5.52463">
        <ele>942</ele>
        <time>2019-03-27T14:46:41Z</time>
      </trkpt>
      <trkpt lat="44.18263" lon="5.52459">
        <ele>942</ele>
        <time>2019-03-27T14:46:42Z</time>
      </trkpt>
      <trkpt lat="44.18263" lon="5.52456">
        <ele>942</ele>
        <time>2019-03-27T14:46:43Z</time>
      </trkpt>
      <trkpt lat="44.18264" lon="5.52452">
        <ele>942</ele>
        <time>2019-03-27T14:46:44Z</time>
      </trkpt>
      <trkpt lat="44.18264" lon="5.52448">
        <ele>942</ele>
        <time>2019-03-27T14:46:45Z</time>
      </trkpt>
      <trkpt lat="44.18265" lon="5.52445">
        <ele>942</ele>
        <time>2019-03-27T14:46:46Z</time>
      </trkpt>
      <trkpt lat="44.18266" lon="5.52441">
        <ele>942</ele>
        <time>2019-03-27T14:46:47Z</time>
      </trkpt>
      <trkpt lat="44.18266" lon="5.52437">
        <ele>942</ele>
        <time>2019-03-27T14:46:48Z</time>
      </trkpt>
      <trkpt lat="44.18267" lon="5.52434">
        <ele>942</ele>
        <time>2019-03-27T14:46:49Z</time>
      </trkpt>
      <trkpt lat="44.18268" lon="5.5243">
        <ele>942</ele>
        <time>2019-03-27T14:46:50Z</time>
      </trkpt>
      <trkpt lat="44.18269" lon="5.52426">
        <ele>942</ele>
        <time>2019-03-27T14:46:51Z</time>
      </trkpt>
      <trkpt lat="44.1827" lon="5.52423">
        <ele>942</ele>
        <time>2019-03-27T14:46:52Z</time>
      </trkpt>
      <trkpt lat="44.18271" lon="5.52419">
        <ele>942</ele>
        <time>2019-03-27T14:46:53Z</time>
      </trkpt>
      <trkpt lat="44.18271" lon="5.52415">
        <ele>942</ele>
        <time>2019-03-27T14:46:54Z</time>
      </trkpt>
      <trkpt lat="44.18272" lon="5.52412">
        <ele>942</ele>
        <time>2019-03-27T14:46:55Z</time>
      </trkpt>
      <trkpt lat="44.18274" lon="5.52409">
        <ele>942</ele>
        <time>2019-03-27T14:46:56Z</time>
      </trkpt>
      <trkpt lat="44.18275" lon="5.52405">
        <ele>942</ele>
        <time>2019-03-27T14:46:57Z</time>
      </trkpt>
      <trkpt lat="44.18276" lon="5.52402">
        <ele>942</ele>
        <time>2019-03-27T14:46:58Z</time>
      </trkpt>
      <trkpt lat="44.18277" lon="5.52398">
        <ele>942</ele>
        <time>2019-03-27T14:46:59Z</time>
      </trkpt>
      <trkpt lat="44.18278" lon="5.52395">
        <ele>942</ele>
        <time>2019-03-27T14:47:00Z</time>
      </trkpt>
      <trkpt lat="44.1828" lon="5.52391">
        <ele>942</ele>
        <time>2019-03-27T14:47:01Z</time>
      </trkpt>
      <trkpt lat="44.18281" lon="5.52388">
        <ele>942</ele>
        <time>2019-03-27T14:47:02Z</time>
      </trkpt>
      <trkpt lat="44.18282" lon="5.52385">
        <ele>942</ele>
        <time>2019-03-27T14:47:03Z</time>
      </trkpt>
      <trkpt lat="44.18283" lon="5.52382">
        <ele>942</ele>
        <time>2019-03-27T14:47:04Z</time>
      </trkpt>
      <trkpt lat="44.18285" lon="5.52379">
        <ele>942</ele>
        <time>2019-03-27T14:47:05Z</time>
      </trkpt>
      <trkpt lat="44.18285" lon="5.52375">
        <ele>942</ele>
        <time>2019-03-27T14:47:06Z</time>
      </trkpt>
      <trkpt lat="44.18287" lon="5.52372">
        <ele>942</ele>
        <time>2019-03-27T14:47:07Z</time>
      </trkpt>
      <trkpt lat="44.18288" lon="5.52368">
        <ele>942</ele>
        <time>2019-03-27T14:47:08Z</time>
      </trkpt>
      <trkpt lat="44.1829" lon="5.52364">
        <ele>942</ele>
        <time>2019-03-27T14:47:09Z</time>
      </trkpt>
      <trkpt lat="44.18291" lon="5.5236">
        <ele>942</ele>
        <time>2019-03-27T14:47:10Z</time>
      </trkpt>
      <trkpt lat="44.18292" lon="5.52356">
        <ele>942</ele>
        <time>2019-03-27T14:47:11Z</time>
      </trkpt>
      <trkpt lat="44.18293" lon="5.52351">
        <ele>942</ele>
        <time>2019-03-27T14:47:12Z</time>
      </trkpt>
      <trkpt lat="44.18293" lon="5.52347">
        <ele>943</ele>
        <time>2019-03-27T14:47:13Z</time>
      </trkpt>
      <trkpt lat="44.18294" lon="5.52343">
        <ele>943</ele>
        <time>2019-03-27T14:47:14Z</time>
      </trkpt>
      <trkpt lat="44.18294" lon="5.52339">
        <ele>944</ele>
        <time>2019-03-27T14:47:15Z</time>
      </trkpt>
      <trkpt lat="44.18294" lon="5.52335">
        <ele>945</ele>
        <time>2019-03-27T14:47:16Z</time>
      </trkpt>
      <trkpt lat="44.18294" lon="5.52331">
        <ele>946</ele>
        <time>2019-03-27T14:47:17Z</time>
      </trkpt>
      <trkpt lat="44.18294" lon="5.52327">
        <ele>946</ele>
        <time>2019-03-27T14:47:18Z</time>
      </trkpt>
      <trkpt lat="44.18294" lon="5.52323">
        <ele>947</ele>
        <time>2019-03-27T14:47:19Z</time>
      </trkpt>
      <trkpt lat="44.18295" lon="5.52319">
        <ele>947</ele>
        <time>2019-03-27T14:47:20Z</time>
      </trkpt>
      <trkpt lat="44.18295" lon="5.52315">
        <ele>947</ele>
        <time>2019-03-27T14:47:21Z</time>
      </trkpt>
      <trkpt lat="44.18295" lon="5.52311">
        <ele>947</ele>
        <time>2019-03-27T14:47:22Z</time>
      </trkpt>
      <trkpt lat="44.18295" lon="5.52307">
        <ele>947</ele>
        <time>2019-03-27T14:47:23Z</time>
      </trkpt>
      <trkpt lat="44.18296" lon="5.52303">
        <ele>947</ele>
        <time>2019-03-27T14:47:24Z</time>
      </trkpt>
      <trkpt lat="44.18296" lon="5.52299">
        <ele>947</ele>
        <time>2019-03-27T14:47:25Z</time>
      </trkpt>
      <trkpt lat="44.18296" lon="5.52295">
        <ele>947</ele>
        <time>2019-03-27T14:47:26Z</time>
      </trkpt>
      <trkpt lat="44.18296" lon="5.52292">
        <ele>947</ele>
        <time>2019-03-27T14:47:27Z</time>
      </trkpt>
      <trkpt lat="44.18296" lon="5.52288">
        <ele>947</ele>
        <time>2019-03-27T14:47:28Z</time>
      </trkpt>
      <trkpt lat="44.18296" lon="5.52283">
        <ele>947</ele>
        <time>2019-03-27T14:47:29Z</time>
      </trkpt>
      <trkpt lat="44.18296" lon="5.5228">
        <ele>948</ele>
        <time>2019-03-27T14:47:30Z</time>
      </trkpt>
      <trkpt lat="44.18296" lon="5.52275">
        <ele>948</ele>
        <time>2019-03-27T14:47:31Z</time>
      </trkpt>
      <trkpt lat="44.18297" lon="5.52271">
        <ele>948</ele>
        <time>2019-03-27T14:47:32Z</time>
      </trkpt>
      <trkpt lat="44.18298" lon="5.52267">
        <ele>948</ele>
        <time>2019-03-27T14:47:33Z</time>
      </trkpt>
      <trkpt lat="44.18299" lon="5.52263">
        <ele>948</ele>
        <time>2019-03-27T14:47:34Z</time>
      </trkpt>
      <trkpt lat="44.183" lon="5.5226">
        <ele>948</ele>
        <time>2019-03-27T14:47:35Z</time>
      </trkpt>
      <trkpt lat="44.18301" lon="5.52256">
        <ele>948</ele>
        <time>2019-03-27T14:47:36Z</time>
      </trkpt>
      <trkpt lat="44.18301" lon="5.52253">
        <ele>948</ele>
        <time>2019-03-27T14:47:37Z</time>
      </trkpt>
      <trkpt lat="44.18302" lon="5.52249">
        <ele>948</ele>
        <time>2019-03-27T14:47:38Z</time>
      </trkpt>
      <trkpt lat="44.18303" lon="5.52246">
        <ele>948</ele>
        <time>2019-03-27T14:47:39Z</time>
      </trkpt>
      <trkpt lat="44.18304" lon="5.52243">
        <ele>948</ele>
        <time>2019-03-27T14:47:40Z</time>
      </trkpt>
      <trkpt lat="44.18305" lon="5.5224">
        <ele>948</ele>
        <time>2019-03-27T14:47:41Z</time>
      </trkpt>
      <trkpt lat="44.18306" lon="5.52237">
        <ele>948</ele>
        <time>2019-03-27T14:47:42Z</time>
      </trkpt>
      <trkpt lat="44.18307" lon="5.52234">
        <ele>948</ele>
        <time>2019-03-27T14:47:43Z</time>
      </trkpt>
      <trkpt lat="44.18309" lon="5.52231">
        <ele>948</ele>
        <time>2019-03-27T14:47:44Z</time>
      </trkpt>
      <trkpt lat="44.1831" lon="5.52227">
        <ele>948</ele>
        <time>2019-03-27T14:47:45Z</time>
      </trkpt>
      <trkpt lat="44.18311" lon="5.52224">
        <ele>949</ele>
        <time>2019-03-27T14:47:46Z</time>
      </trkpt>
      <trkpt lat="44.18313" lon="5.52222">
        <ele>949</ele>
        <time>2019-03-27T14:47:47Z</time>
      </trkpt>
      <trkpt lat="44.18314" lon="5.52219">
        <ele>949</ele>
        <time>2019-03-27T14:47:48Z</time>
      </trkpt>
      <trkpt lat="44.18315" lon="5.52216">
        <ele>949</ele>
        <time>2019-03-27T14:47:49Z</time>
      </trkpt>
      <trkpt lat="44.18317" lon="5.52213">
        <ele>949</ele>
        <time>2019-03-27T14:47:50Z</time>
      </trkpt>
      <trkpt lat="44.18318" lon="5.5221">
        <ele>949</ele>
        <time>2019-03-27T14:47:51Z</time>
      </trkpt>
      <trkpt lat="44.18319" lon="5.52207">
        <ele>950</ele>
        <time>2019-03-27T14:47:52Z</time>
      </trkpt>
      <trkpt lat="44.18321" lon="5.52204">
        <ele>950</ele>
        <time>2019-03-27T14:47:53Z</time>
      </trkpt>
      <trkpt lat="44.18322" lon="5.52201">
        <ele>950</ele>
        <time>2019-03-27T14:47:54Z</time>
      </trkpt>
      <trkpt lat="44.18324" lon="5.52198">
        <ele>950</ele>
        <time>2019-03-27T14:47:55Z</time>
      </trkpt>
      <trkpt lat="44.18325" lon="5.52196">
        <ele>950</ele>
        <time>2019-03-27T14:47:56Z</time>
      </trkpt>
      <trkpt lat="44.18326" lon="5.52193">
        <ele>950</ele>
        <time>2019-03-27T14:47:57Z</time>
      </trkpt>
      <trkpt lat="44.18328" lon="5.5219">
        <ele>950</ele>
        <time>2019-03-27T14:47:58Z</time>
      </trkpt>
      <trkpt lat="44.18329" lon="5.52188">
        <ele>950</ele>
        <time>2019-03-27T14:47:59Z</time>
      </trkpt>
      <trkpt lat="44.1833" lon="5.52185">
        <ele>950</ele>
        <time>2019-03-27T14:48:00Z</time>
      </trkpt>
      <trkpt lat="44.18331" lon="5.52183">
        <ele>950</ele>
        <time>2019-03-27T14:48:01Z</time>
      </trkpt>
      <trkpt lat="44.18332" lon="5.5218">
        <ele>950</ele>
        <time>2019-03-27T14:48:02Z</time>
      </trkpt>
      <trkpt lat="44.18333" lon="5.52178">
        <ele>950</ele>
        <time>2019-03-27T14:48:03Z</time>
      </trkpt>
      <trkpt lat="44.18335" lon="5.52176">
        <ele>950</ele>
        <time>2019-03-27T14:48:04Z</time>
      </trkpt>
      <trkpt lat="44.18336" lon="5.52173">
        <ele>950</ele>
        <time>2019-03-27T14:48:05Z</time>
      </trkpt>
      <trkpt lat="44.18337" lon="5.52171">
        <ele>950</ele>
        <time>2019-03-27T14:48:06Z</time>
      </trkpt>
      <trkpt lat="44.18338" lon="5.52169">
        <ele>950</ele>
        <time>2019-03-27T14:48:07Z</time>
      </trkpt>
      <trkpt lat="44.18339" lon="5.52166">
        <ele>950</ele>
        <time>2019-03-27T14:48:08Z</time>
      </trkpt>
      <trkpt lat="44.18341" lon="5.52164">
        <ele>951</ele>
        <time>2019-03-27T14:48:09Z</time>
      </trkpt>
      <trkpt lat="44.18342" lon="5.52161">
        <ele>951</ele>
        <time>2019-03-27T14:48:10Z</time>
      </trkpt>
      <trkpt lat="44.18344" lon="5.52159">
        <ele>951</ele>
        <time>2019-03-27T14:48:11Z</time>
      </trkpt>
      <trkpt lat="44.18345" lon="5.52156">
        <ele>951</ele>
        <time>2019-03-27T14:48:12Z</time>
      </trkpt>
      <trkpt lat="44.18346" lon="5.52154">
        <ele>951</ele>
        <time>2019-03-27T14:48:13Z</time>
      </trkpt>
      <trkpt lat="44.18348" lon="5.52151">
        <ele>951</ele>
        <time>2019-03-27T14:48:14Z</time>
      </trkpt>
      <trkpt lat="44.18349" lon="5.52149">
        <ele>951</ele>
        <time>2019-03-27T14:48:15Z</time>
      </trkpt>
      <trkpt lat="44.1835" lon="5.52146">
        <ele>951</ele>
        <time>2019-03-27T14:48:16Z</time>
      </trkpt>
      <trkpt lat="44.18351" lon="5.52143">
        <ele>951</ele>
        <time>2019-03-27T14:48:17Z</time>
      </trkpt>
      <trkpt lat="44.18353" lon="5.52141">
        <ele>951</ele>
        <time>2019-03-27T14:48:18Z</time>
      </trkpt>
      <trkpt lat="44.18354" lon="5.52139">
        <ele>951</ele>
        <time>2019-03-27T14:48:19Z</time>
      </trkpt>
      <trkpt lat="44.18355" lon="5.52136">
        <ele>951</ele>
        <time>2019-03-27T14:48:20Z</time>
      </trkpt>
      <trkpt lat="44.18356" lon="5.52133">
        <ele>951</ele>
        <time>2019-03-27T14:48:21Z</time>
      </trkpt>
      <trkpt lat="44.18357" lon="5.52131">
        <ele>951</ele>
        <time>2019-03-27T14:48:22Z</time>
      </trkpt>
      <trkpt lat="44.18358" lon="5.52128">
        <ele>951</ele>
        <time>2019-03-27T14:48:23Z</time>
      </trkpt>
      <trkpt lat="44.18359" lon="5.52125">
        <ele>951</ele>
        <time>2019-03-27T14:48:24Z</time>
      </trkpt>
      <trkpt lat="44.1836" lon="5.52122">
        <ele>951</ele>
        <time>2019-03-27T14:48:25Z</time>
      </trkpt>
      <trkpt lat="44.18361" lon="5.52119">
        <ele>951</ele>
        <time>2019-03-27T14:48:26Z</time>
      </trkpt>
      <trkpt lat="44.18362" lon="5.52116">
        <ele>951</ele>
        <time>2019-03-27T14:48:27Z</time>
      </trkpt>
      <trkpt lat="44.18363" lon="5.52113">
        <ele>952</ele>
        <time>2019-03-27T14:48:28Z</time>
      </trkpt>
      <trkpt lat="44.18363" lon="5.52109">
        <ele>952</ele>
        <time>2019-03-27T14:48:29Z</time>
      </trkpt>
      <trkpt lat="44.18364" lon="5.52106">
        <ele>952</ele>
        <time>2019-03-27T14:48:30Z</time>
      </trkpt>
      <trkpt lat="44.18365" lon="5.52103">
        <ele>953</ele>
        <time>2019-03-27T14:48:31Z</time>
      </trkpt>
      <trkpt lat="44.18365" lon="5.521">
        <ele>953</ele>
        <time>2019-03-27T14:48:32Z</time>
      </trkpt>
      <trkpt lat="44.18366" lon="5.52097">
        <ele>954</ele>
        <time>2019-03-27T14:48:33Z</time>
      </trkpt>
      <trkpt lat="44.18366" lon="5.52094">
        <ele>954</ele>
        <time>2019-03-27T14:48:34Z</time>
      </trkpt>
      <trkpt lat="44.18367" lon="5.52091">
        <ele>954</ele>
        <time>2019-03-27T14:48:35Z</time>
      </trkpt>
      <trkpt lat="44.18367" lon="5.52087">
        <ele>955</ele>
        <time>2019-03-27T14:48:36Z</time>
      </trkpt>
      <trkpt lat="44.18367" lon="5.52084">
        <ele>955</ele>
        <time>2019-03-27T14:48:37Z</time>
      </trkpt>
      <trkpt lat="44.18367" lon="5.52081">
        <ele>955</ele>
        <time>2019-03-27T14:48:38Z</time>
      </trkpt>
      <trkpt lat="44.18367" lon="5.52077">
        <ele>955</ele>
        <time>2019-03-27T14:48:39Z</time>
      </trkpt>
      <trkpt lat="44.18367" lon="5.52073">
        <ele>955</ele>
        <time>2019-03-27T14:48:40Z</time>
      </trkpt>
      <trkpt lat="44.18367" lon="5.5207">
        <ele>956</ele>
        <time>2019-03-27T14:48:41Z</time>
      </trkpt>
      <trkpt lat="44.18366" lon="5.52067">
        <ele>956</ele>
        <time>2019-03-27T14:48:42Z</time>
      </trkpt>
      <trkpt lat="44.18365" lon="5.52064">
        <ele>956</ele>
        <time>2019-03-27T14:48:43Z</time>
      </trkpt>
      <trkpt lat="44.18364" lon="5.5206">
        <ele>956</ele>
        <time>2019-03-27T14:48:44Z</time>
      </trkpt>
      <trkpt lat="44.18363" lon="5.52056">
        <ele>957</ele>
        <time>2019-03-27T14:48:45Z</time>
      </trkpt>
      <trkpt lat="44.18362" lon="5.52053">
        <ele>957</ele>
        <time>2019-03-27T14:48:46Z</time>
      </trkpt>
      <trkpt lat="44.18361" lon="5.52049">
        <ele>958</ele>
        <time>2019-03-27T14:48:47Z</time>
      </trkpt>
      <trkpt lat="44.1836" lon="5.52045">
        <ele>959</ele>
        <time>2019-03-27T14:48:48Z</time>
      </trkpt>
      <trkpt lat="44.18359" lon="5.52042">
        <ele>959</ele>
        <time>2019-03-27T14:48:49Z</time>
      </trkpt>
      <trkpt lat="44.18359" lon="5.52039">
        <ele>960</ele>
        <time>2019-03-27T14:48:50Z</time>
      </trkpt>
      <trkpt lat="44.18358" lon="5.52037">
        <ele>961</ele>
        <time>2019-03-27T14:48:51Z</time>
      </trkpt>
      <trkpt lat="44.18357" lon="5.52034">
        <ele>961</ele>
        <time>2019-03-27T14:48:52Z</time>
      </trkpt>
      <trkpt lat="44.18356" lon="5.52031">
        <ele>962</ele>
        <time>2019-03-27T14:48:53Z</time>
      </trkpt>
      <trkpt lat="44.18355" lon="5.52027">
        <ele>963</ele>
        <time>2019-03-27T14:48:54Z</time>
      </trkpt>
      <trkpt lat="44.18354" lon="5.52024">
        <ele>963</ele>
        <time>2019-03-27T14:48:55Z</time>
      </trkpt>
      <trkpt lat="44.18353" lon="5.5202">
        <ele>964</ele>
        <time>2019-03-27T14:48:56Z</time>
      </trkpt>
      <trkpt lat="44.18352" lon="5.52017">
        <ele>965</ele>
        <time>2019-03-27T14:48:57Z</time>
      </trkpt>
      <trkpt lat="44.18351" lon="5.52013">
        <ele>965</ele>
        <time>2019-03-27T14:48:58Z</time>
      </trkpt>
      <trkpt lat="44.1835" lon="5.52009">
        <ele>966</ele>
        <time>2019-03-27T14:48:59Z</time>
      </trkpt>
      <trkpt lat="44.18349" lon="5.52006">
        <ele>967</ele>
        <time>2019-03-27T14:49:00Z</time>
      </trkpt>
      <trkpt lat="44.18348" lon="5.52002">
        <ele>967</ele>
        <time>2019-03-27T14:49:01Z</time>
      </trkpt>
      <trkpt lat="44.18347" lon="5.51999">
        <ele>968</ele>
        <time>2019-03-27T14:49:02Z</time>
      </trkpt>
      <trkpt lat="44.18346" lon="5.51996">
        <ele>968</ele>
        <time>2019-03-27T14:49:03Z</time>
      </trkpt>
      <trkpt lat="44.18345" lon="5.51992">
        <ele>968</ele>
        <time>2019-03-27T14:49:04Z</time>
      </trkpt>
      <trkpt lat="44.18344" lon="5.51988">
        <ele>969</ele>
        <time>2019-03-27T14:49:05Z</time>
      </trkpt>
      <trkpt lat="44.18343" lon="5.51985">
        <ele>969</ele>
        <time>2019-03-27T14:49:06Z</time>
      </trkpt>
      <trkpt lat="44.18343" lon="5.51981">
        <ele>969</ele>
        <time>2019-03-27T14:49:07Z</time>
      </trkpt>
      <trkpt lat="44.18342" lon="5.51977">
        <ele>969</ele>
        <time>2019-03-27T14:49:08Z</time>
      </trkpt>
      <trkpt lat="44.1834" lon="5.51974">
        <ele>969</ele>
        <time>2019-03-27T14:49:09Z</time>
      </trkpt>
      <trkpt lat="44.18339" lon="5.51971">
        <ele>969</ele>
        <time>2019-03-27T14:49:10Z</time>
      </trkpt>
      <trkpt lat="44.18338" lon="5.51967">
        <ele>969</ele>
        <time>2019-03-27T14:49:11Z</time>
      </trkpt>
      <trkpt lat="44.18336" lon="5.51964">
        <ele>969</ele>
        <time>2019-03-27T14:49:12Z</time>
      </trkpt>
      <trkpt lat="44.18335" lon="5.5196">
        <ele>969</ele>
        <time>2019-03-27T14:49:13Z</time>
      </trkpt>
      <trkpt lat="44.18333" lon="5.51957">
        <ele>969</ele>
        <time>2019-03-27T14:49:14Z</time>
      </trkpt>
      <trkpt lat="44.18332" lon="5.51953">
        <ele>969</ele>
        <time>2019-03-27T14:49:15Z</time>
      </trkpt>
      <trkpt lat="44.1833" lon="5.5195">
        <ele>969</ele>
        <time>2019-03-27T14:49:16Z</time>
      </trkpt>
      <trkpt lat="44.18328" lon="5.51947">
        <ele>969</ele>
        <time>2019-03-27T14:49:17Z</time>
      </trkpt>
      <trkpt lat="44.18326" lon="5.51944">
        <ele>969</ele>
        <time>2019-03-27T14:49:18Z</time>
      </trkpt>
      <trkpt lat="44.18324" lon="5.51941">
        <ele>970</ele>
        <time>2019-03-27T14:49:19Z</time>
      </trkpt>
      <trkpt lat="44.18322" lon="5.51937">
        <ele>970</ele>
        <time>2019-03-27T14:49:20Z</time>
      </trkpt>
      <trkpt lat="44.1832" lon="5.51934">
        <ele>970</ele>
        <time>2019-03-27T14:49:21Z</time>
      </trkpt>
      <trkpt lat="44.18319" lon="5.51931">
        <ele>970</ele>
        <time>2019-03-27T14:49:22Z</time>
      </trkpt>
      <trkpt lat="44.18317" lon="5.51928">
        <ele>971</ele>
        <time>2019-03-27T14:49:23Z</time>
      </trkpt>
      <trkpt lat="44.18315" lon="5.51925">
        <ele>971</ele>
        <time>2019-03-27T14:49:24Z</time>
      </trkpt>
      <trkpt lat="44.18312" lon="5.51922">
        <ele>971</ele>
        <time>2019-03-27T14:49:25Z</time>
      </trkpt>
      <trkpt lat="44.1831" lon="5.51919">
        <ele>971</ele>
        <time>2019-03-27T14:49:26Z</time>
      </trkpt>
      <trkpt lat="44.18308" lon="5.51916">
        <ele>972</ele>
        <time>2019-03-27T14:49:27Z</time>
      </trkpt>
      <trkpt lat="44.18306" lon="5.51913">
        <ele>972</ele>
        <time>2019-03-27T14:49:28Z</time>
      </trkpt>
      <trkpt lat="44.18305" lon="5.5191">
        <ele>972</ele>
        <time>2019-03-27T14:49:29Z</time>
      </trkpt>
      <trkpt lat="44.18303" lon="5.51906">
        <ele>972</ele>
        <time>2019-03-27T14:49:30Z</time>
      </trkpt>
      <trkpt lat="44.18301" lon="5.51903">
        <ele>973</ele>
        <time>2019-03-27T14:49:31Z</time>
      </trkpt>
      <trkpt lat="44.18299" lon="5.519">
        <ele>973</ele>
        <time>2019-03-27T14:49:32Z</time>
      </trkpt>
      <trkpt lat="44.18298" lon="5.51896">
        <ele>973</ele>
        <time>2019-03-27T14:49:33Z</time>
      </trkpt>
      <trkpt lat="44.18296" lon="5.51893">
        <ele>973</ele>
        <time>2019-03-27T14:49:34Z</time>
      </trkpt>
      <trkpt lat="44.18294" lon="5.5189">
        <ele>974</ele>
        <time>2019-03-27T14:49:35Z</time>
      </trkpt>
      <trkpt lat="44.18293" lon="5.51886">
        <ele>974</ele>
        <time>2019-03-27T14:49:36Z</time>
      </trkpt>
      <trkpt lat="44.18292" lon="5.51883">
        <ele>974</ele>
        <time>2019-03-27T14:49:37Z</time>
      </trkpt>
      <trkpt lat="44.18291" lon="5.51879">
        <ele>974</ele>
        <time>2019-03-27T14:49:38Z</time>
      </trkpt>
      <trkpt lat="44.1829" lon="5.51875">
        <ele>974</ele>
        <time>2019-03-27T14:49:39Z</time>
      </trkpt>
      <trkpt lat="44.18289" lon="5.51872">
        <ele>975</ele>
        <time>2019-03-27T14:49:40Z</time>
      </trkpt>
      <trkpt lat="44.18289" lon="5.51868">
        <ele>975</ele>
        <time>2019-03-27T14:49:41Z</time>
      </trkpt>
      <trkpt lat="44.18288" lon="5.51865">
        <ele>975</ele>
        <time>2019-03-27T14:49:42Z</time>
      </trkpt>
      <trkpt lat="44.18288" lon="5.51861">
        <ele>975</ele>
        <time>2019-03-27T14:49:43Z</time>
      </trkpt>
      <trkpt lat="44.18288" lon="5.51857">
        <ele>975</ele>
        <time>2019-03-27T14:49:44Z</time>
      </trkpt>
      <trkpt lat="44.18288" lon="5.51854">
        <ele>975</ele>
        <time>2019-03-27T14:49:45Z</time>
      </trkpt>
      <trkpt lat="44.18288" lon="5.5185">
        <ele>975</ele>
        <time>2019-03-27T14:49:46Z</time>
      </trkpt>
      <trkpt lat="44.18289" lon="5.51846">
        <ele>975</ele>
        <time>2019-03-27T14:49:47Z</time>
      </trkpt>
      <trkpt lat="44.1829" lon="5.51843">
        <ele>975</ele>
        <time>2019-03-27T14:49:48Z</time>
      </trkpt>
      <trkpt lat="44.1829" lon="5.5184">
        <ele>975</ele>
        <time>2019-03-27T14:49:49Z</time>
      </trkpt>
      <trkpt lat="44.18291" lon="5.51836">
        <ele>975</ele>
        <time>2019-03-27T14:49:50Z</time>
      </trkpt>
      <trkpt lat="44.18291" lon="5.51833">
        <ele>975</ele>
        <time>2019-03-27T14:49:51Z</time>
      </trkpt>
      <trkpt lat="44.18293" lon="5.51831">
        <ele>975</ele>
        <time>2019-03-27T14:49:52Z</time>
      </trkpt>
      <trkpt lat="44.18294" lon="5.51828">
        <ele>975</ele>
        <time>2019-03-27T14:49:53Z</time>
      </trkpt>
      <trkpt lat="44.18295" lon="5.51825">
        <ele>975</ele>
        <time>2019-03-27T14:49:54Z</time>
      </trkpt>
      <trkpt lat="44.18297" lon="5.51823">
        <ele>975</ele>
        <time>2019-03-27T14:49:55Z</time>
      </trkpt>
      <trkpt lat="44.18298" lon="5.5182">
        <ele>975</ele>
        <time>2019-03-27T14:49:56Z</time>
      </trkpt>
      <trkpt lat="44.183" lon="5.51817">
        <ele>975</ele>
        <time>2019-03-27T14:49:57Z</time>
      </trkpt>
      <trkpt lat="44.18302" lon="5.51814">
        <ele>975</ele>
        <time>2019-03-27T14:49:58Z</time>
      </trkpt>
      <trkpt lat="44.18304" lon="5.51812">
        <ele>976</ele>
        <time>2019-03-27T14:49:59Z</time>
      </trkpt>
      <trkpt lat="44.18306" lon="5.51808">
        <ele>976</ele>
        <time>2019-03-27T14:50:00Z</time>
      </trkpt>
      <trkpt lat="44.18308" lon="5.51805">
        <ele>976</ele>
        <time>2019-03-27T14:50:01Z</time>
      </trkpt>
      <trkpt lat="44.1831" lon="5.51802">
        <ele>977</ele>
        <time>2019-03-27T14:50:02Z</time>
      </trkpt>
      <trkpt lat="44.18312" lon="5.51799">
        <ele>977</ele>
        <time>2019-03-27T14:50:03Z</time>
      </trkpt>
      <trkpt lat="44.18315" lon="5.51796">
        <ele>977</ele>
        <time>2019-03-27T14:50:04Z</time>
      </trkpt>
      <trkpt lat="44.18317" lon="5.51793">
        <ele>977</ele>
        <time>2019-03-27T14:50:05Z</time>
      </trkpt>
      <trkpt lat="44.18319" lon="5.51791">
        <ele>977</ele>
        <time>2019-03-27T14:50:06Z</time>
      </trkpt>
      <trkpt lat="44.18322" lon="5.51789">
        <ele>977</ele>
        <time>2019-03-27T14:50:07Z</time>
      </trkpt>
      <trkpt lat="44.18324" lon="5.51787">
        <ele>977</ele>
        <time>2019-03-27T14:50:08Z</time>
      </trkpt>
      <trkpt lat="44.18326" lon="5.51784">
        <ele>978</ele>
        <time>2019-03-27T14:50:09Z</time>
      </trkpt>
      <trkpt lat="44.18328" lon="5.51782">
        <ele>978</ele>
        <time>2019-03-27T14:50:10Z</time>
      </trkpt>
      <trkpt lat="44.1833" lon="5.5178">
        <ele>978</ele>
        <time>2019-03-27T14:50:11Z</time>
      </trkpt>
      <trkpt lat="44.18332" lon="5.51778">
        <ele>978</ele>
        <time>2019-03-27T14:50:12Z</time>
      </trkpt>
      <trkpt lat="44.18334" lon="5.51775">
        <ele>978</ele>
        <time>2019-03-27T14:50:13Z</time>
      </trkpt>
      <trkpt lat="44.18336" lon="5.51773">
        <ele>978</ele>
        <time>2019-03-27T14:50:14Z</time>
      </trkpt>
      <trkpt lat="44.18338" lon="5.51771">
        <ele>978</ele>
        <time>2019-03-27T14:50:15Z</time>
      </trkpt>
      <trkpt lat="44.18339" lon="5.51768">
        <ele>978</ele>
        <time>2019-03-27T14:50:16Z</time>
      </trkpt>
      <trkpt lat="44.18341" lon="5.51766">
        <ele>978</ele>
        <time>2019-03-27T14:50:17Z</time>
      </trkpt>
      <trkpt lat="44.18343" lon="5.51764">
        <ele>978</ele>
        <time>2019-03-27T14:50:18Z</time>
      </trkpt>
      <trkpt lat="44.18344" lon="5.51762">
        <ele>978</ele>
        <time>2019-03-27T14:50:19Z</time>
      </trkpt>
      <trkpt lat="44.18346" lon="5.5176">
        <ele>978</ele>
        <time>2019-03-27T14:50:20Z</time>
      </trkpt>
      <trkpt lat="44.18348" lon="5.51758">
        <ele>978</ele>
        <time>2019-03-27T14:50:21Z</time>
      </trkpt>
      <trkpt lat="44.18349" lon="5.51756">
        <ele>978</ele>
        <time>2019-03-27T14:50:22Z</time>
      </trkpt>
      <trkpt lat="44.1835" lon="5.51753">
        <ele>978</ele>
        <time>2019-03-27T14:50:23Z</time>
      </trkpt>
      <trkpt lat="44.18352" lon="5.5175">
        <ele>978</ele>
        <time>2019-03-27T14:50:24Z</time>
      </trkpt>
      <trkpt lat="44.18354" lon="5.51747">
        <ele>978</ele>
        <time>2019-03-27T14:50:25Z</time>
      </trkpt>
      <trkpt lat="44.18355" lon="5.51744">
        <ele>978</ele>
        <time>2019-03-27T14:50:26Z</time>
      </trkpt>
      <trkpt lat="44.18356" lon="5.51741">
        <ele>978</ele>
        <time>2019-03-27T14:50:27Z</time>
      </trkpt>
      <trkpt lat="44.18358" lon="5.51738">
        <ele>978</ele>
        <time>2019-03-27T14:50:28Z</time>
      </trkpt>
      <trkpt lat="44.18359" lon="5.51734">
        <ele>978</ele>
        <time>2019-03-27T14:50:29Z</time>
      </trkpt>
      <trkpt lat="44.18361" lon="5.51731">
        <ele>978</ele>
        <time>2019-03-27T14:50:30Z</time>
      </trkpt>
      <trkpt lat="44.18362" lon="5.51728">
        <ele>978</ele>
        <time>2019-03-27T14:50:31Z</time>
      </trkpt>
      <trkpt lat="44.18363" lon="5.51724">
        <ele>978</ele>
        <time>2019-03-27T14:50:32Z</time>
      </trkpt>
      <trkpt lat="44.18364" lon="5.51721">
        <ele>978</ele>
        <time>2019-03-27T14:50:33Z</time>
      </trkpt>
      <trkpt lat="44.18365" lon="5.51718">
        <ele>978</ele>
        <time>2019-03-27T14:50:34Z</time>
      </trkpt>
      <trkpt lat="44.18366" lon="5.51715">
        <ele>978</ele>
        <time>2019-03-27T14:50:35Z</time>
      </trkpt>
      <trkpt lat="44.18367" lon="5.51711">
        <ele>978</ele>
        <time>2019-03-27T14:50:36Z</time>
      </trkpt>
      <trkpt lat="44.18368" lon="5.51708">
        <ele>978</ele>
        <time>2019-03-27T14:50:37Z</time>
      </trkpt>
      <trkpt lat="44.18369" lon="5.51704">
        <ele>978</ele>
        <time>2019-03-27T14:50:38Z</time>
      </trkpt>
      <trkpt lat="44.1837" lon="5.51701">
        <ele>978</ele>
        <time>2019-03-27T14:50:39Z</time>
      </trkpt>
      <trkpt lat="44.18371" lon="5.51698">
        <ele>978</ele>
        <time>2019-03-27T14:50:40Z</time>
      </trkpt>
      <trkpt lat="44.18372" lon="5.51694">
        <ele>978</ele>
        <time>2019-03-27T14:50:41Z</time>
      </trkpt>
      <trkpt lat="44.18372" lon="5.51691">
        <ele>978</ele>
        <time>2019-03-27T14:50:42Z</time>
      </trkpt>
      <trkpt lat="44.18373" lon="5.51687">
        <ele>978</ele>
        <time>2019-03-27T14:50:43Z</time>
      </trkpt>
      <trkpt lat="44.18374" lon="5.51684">
        <ele>978</ele>
        <time>2019-03-27T14:50:44Z</time>
      </trkpt>
      <trkpt lat="44.18375" lon="5.51681">
        <ele>978</ele>
        <time>2019-03-27T14:50:45Z</time>
      </trkpt>
      <trkpt lat="44.18375" lon="5.51677">
        <ele>978</ele>
        <time>2019-03-27T14:50:46Z</time>
      </trkpt>
      <trkpt lat="44.18376" lon="5.51674">
        <ele>978</ele>
        <time>2019-03-27T14:50:47Z</time>
      </trkpt>
      <trkpt lat="44.18376" lon="5.5167">
        <ele>978</ele>
        <time>2019-03-27T14:50:48Z</time>
      </trkpt>
      <trkpt lat="44.18376" lon="5.51666">
        <ele>978</ele>
        <time>2019-03-27T14:50:49Z</time>
      </trkpt>
      <trkpt lat="44.18377" lon="5.51663">
        <ele>978</ele>
        <time>2019-03-27T14:50:50Z</time>
      </trkpt>
      <trkpt lat="44.18377" lon="5.5166">
        <ele>978</ele>
        <time>2019-03-27T14:50:51Z</time>
      </trkpt>
      <trkpt lat="44.18378" lon="5.51656">
        <ele>978</ele>
        <time>2019-03-27T14:50:52Z</time>
      </trkpt>
      <trkpt lat="44.18378" lon="5.51653">
        <ele>978</ele>
        <time>2019-03-27T14:50:53Z</time>
      </trkpt>
      <trkpt lat="44.18378" lon="5.5165">
        <ele>978</ele>
        <time>2019-03-27T14:50:54Z</time>
      </trkpt>
      <trkpt lat="44.18378" lon="5.51646">
        <ele>978</ele>
        <time>2019-03-27T14:50:55Z</time>
      </trkpt>
      <trkpt lat="44.18379" lon="5.51643">
        <ele>978</ele>
        <time>2019-03-27T14:50:56Z</time>
      </trkpt>
      <trkpt lat="44.1838" lon="5.5164">
        <ele>978</ele>
        <time>2019-03-27T14:50:57Z</time>
      </trkpt>
      <trkpt lat="44.1838" lon="5.51637">
        <ele>979</ele>
        <time>2019-03-27T14:50:58Z</time>
      </trkpt>
      <trkpt lat="44.1838" lon="5.51633">
        <ele>979</ele>
        <time>2019-03-27T14:50:59Z</time>
      </trkpt>
      <trkpt lat="44.1838" lon="5.5163">
        <ele>979</ele>
        <time>2019-03-27T14:51:00Z</time>
      </trkpt>
      <trkpt lat="44.1838" lon="5.51626">
        <ele>980</ele>
        <time>2019-03-27T14:51:01Z</time>
      </trkpt>
      <trkpt lat="44.1838" lon="5.51623">
        <ele>980</ele>
        <time>2019-03-27T14:51:02Z</time>
      </trkpt>
      <trkpt lat="44.1838" lon="5.5162">
        <ele>981</ele>
        <time>2019-03-27T14:51:03Z</time>
      </trkpt>
      <trkpt lat="44.1838" lon="5.51616">
        <ele>981</ele>
        <time>2019-03-27T14:51:04Z</time>
      </trkpt>
      <trkpt lat="44.1838" lon="5.51613">
        <ele>982</ele>
        <time>2019-03-27T14:51:05Z</time>
      </trkpt>
      <trkpt lat="44.1838" lon="5.5161">
        <ele>982</ele>
        <time>2019-03-27T14:51:06Z</time>
      </trkpt>
      <trkpt lat="44.18381" lon="5.51607">
        <ele>982</ele>
        <time>2019-03-27T14:51:07Z</time>
      </trkpt>
      <trkpt lat="44.18381" lon="5.51603">
        <ele>982</ele>
        <time>2019-03-27T14:51:08Z</time>
      </trkpt>
      <trkpt lat="44.18381" lon="5.516">
        <ele>983</ele>
        <time>2019-03-27T14:51:09Z</time>
      </trkpt>
      <trkpt lat="44.18381" lon="5.51597">
        <ele>983</ele>
        <time>2019-03-27T14:51:10Z</time>
      </trkpt>
      <trkpt lat="44.18381" lon="5.51593">
        <ele>983</ele>
        <time>2019-03-27T14:51:11Z</time>
      </trkpt>
      <trkpt lat="44.18382" lon="5.5159">
        <ele>984</ele>
        <time>2019-03-27T14:51:12Z</time>
      </trkpt>
      <trkpt lat="44.18382" lon="5.51586">
        <ele>984</ele>
        <time>2019-03-27T14:51:13Z</time>
      </trkpt>
      <trkpt lat="44.18382" lon="5.51582">
        <ele>985</ele>
        <time>2019-03-27T14:51:14Z</time>
      </trkpt>
      <trkpt lat="44.18382" lon="5.51579">
        <ele>985</ele>
        <time>2019-03-27T14:51:15Z</time>
      </trkpt>
      <trkpt lat="44.18382" lon="5.51575">
        <ele>985</ele>
        <time>2019-03-27T14:51:16Z</time>
      </trkpt>
      <trkpt lat="44.18382" lon="5.51571">
        <ele>986</ele>
        <time>2019-03-27T14:51:17Z</time>
      </trkpt>
      <trkpt lat="44.18383" lon="5.51567">
        <ele>986</ele>
        <time>2019-03-27T14:51:18Z</time>
      </trkpt>
      <trkpt lat="44.18383" lon="5.51564">
        <ele>987</ele>
        <time>2019-03-27T14:51:19Z</time>
      </trkpt>
      <trkpt lat="44.18383" lon="5.5156">
        <ele>987</ele>
        <time>2019-03-27T14:51:20Z</time>
      </trkpt>
      <trkpt lat="44.18383" lon="5.51556">
        <ele>987</ele>
        <time>2019-03-27T14:51:21Z</time>
      </trkpt>
      <trkpt lat="44.18384" lon="5.51552">
        <ele>987</ele>
        <time>2019-03-27T14:51:22Z</time>
      </trkpt>
      <trkpt lat="44.18384" lon="5.51548">
        <ele>988</ele>
        <time>2019-03-27T14:51:23Z</time>
      </trkpt>
      <trkpt lat="44.18385" lon="5.51544">
        <ele>988</ele>
        <time>2019-03-27T14:51:24Z</time>
      </trkpt>
      <trkpt lat="44.18385" lon="5.5154">
        <ele>988</ele>
        <time>2019-03-27T14:51:25Z</time>
      </trkpt>
      <trkpt lat="44.18386" lon="5.51536">
        <ele>988</ele>
        <time>2019-03-27T14:51:26Z</time>
      </trkpt>
      <trkpt lat="44.18387" lon="5.51532">
        <ele>988</ele>
        <time>2019-03-27T14:51:27Z</time>
      </trkpt>
      <trkpt lat="44.18388" lon="5.51528">
        <ele>988</ele>
        <time>2019-03-27T14:51:28Z</time>
      </trkpt>
      <trkpt lat="44.18389" lon="5.51524">
        <ele>988</ele>
        <time>2019-03-27T14:51:29Z</time>
      </trkpt>
      <trkpt lat="44.1839" lon="5.5152">
        <ele>988</ele>
        <time>2019-03-27T14:51:30Z</time>
      </trkpt>
      <trkpt lat="44.18391" lon="5.51516">
        <ele>988</ele>
        <time>2019-03-27T14:51:31Z</time>
      </trkpt>
      <trkpt lat="44.18392" lon="5.51513">
        <ele>988</ele>
        <time>2019-03-27T14:51:32Z</time>
      </trkpt>
      <trkpt lat="44.18393" lon="5.5151">
        <ele>988</ele>
        <time>2019-03-27T14:51:33Z</time>
      </trkpt>
      <trkpt lat="44.18395" lon="5.51506">
        <ele>988</ele>
        <time>2019-03-27T14:51:34Z</time>
      </trkpt>
      <trkpt lat="44.18396" lon="5.51502">
        <ele>988</ele>
        <time>2019-03-27T14:51:35Z</time>
      </trkpt>
      <trkpt lat="44.18397" lon="5.51498">
        <ele>988</ele>
        <time>2019-03-27T14:51:36Z</time>
      </trkpt>
      <trkpt lat="44.18399" lon="5.51495">
        <ele>988</ele>
        <time>2019-03-27T14:51:37Z</time>
      </trkpt>
      <trkpt lat="44.184" lon="5.51491">
        <ele>988</ele>
        <time>2019-03-27T14:51:38Z</time>
      </trkpt>
      <trkpt lat="44.18401" lon="5.51488">
        <ele>988</ele>
        <time>2019-03-27T14:51:39Z</time>
      </trkpt>
      <trkpt lat="44.18403" lon="5.51485">
        <ele>988</ele>
        <time>2019-03-27T14:51:40Z</time>
      </trkpt>
      <trkpt lat="44.18404" lon="5.51481">
        <ele>988</ele>
        <time>2019-03-27T14:51:41Z</time>
      </trkpt>
      <trkpt lat="44.18406" lon="5.51478">
        <ele>988</ele>
        <time>2019-03-27T14:51:42Z</time>
      </trkpt>
      <trkpt lat="44.18407" lon="5.51474">
        <ele>988</ele>
        <time>2019-03-27T14:51:43Z</time>
      </trkpt>
      <trkpt lat="44.18409" lon="5.51471">
        <ele>988</ele>
        <time>2019-03-27T14:51:44Z</time>
      </trkpt>
      <trkpt lat="44.1841" lon="5.51468">
        <ele>988</ele>
        <time>2019-03-27T14:51:45Z</time>
      </trkpt>
      <trkpt lat="44.18412" lon="5.51465">
        <ele>988</ele>
        <time>2019-03-27T14:51:46Z</time>
      </trkpt>
      <trkpt lat="44.18414" lon="5.51462">
        <ele>988</ele>
        <time>2019-03-27T14:51:47Z</time>
      </trkpt>
      <trkpt lat="44.18416" lon="5.51459">
        <ele>988</ele>
        <time>2019-03-27T14:51:48Z</time>
      </trkpt>
      <trkpt lat="44.18417" lon="5.51456">
        <ele>988</ele>
        <time>2019-03-27T14:51:49Z</time>
      </trkpt>
      <trkpt lat="44.18419" lon="5.51454">
        <ele>988</ele>
        <time>2019-03-27T14:51:50Z</time>
      </trkpt>
      <trkpt lat="44.18421" lon="5.51451">
        <ele>988</ele>
        <time>2019-03-27T14:51:51Z</time>
      </trkpt>
      <trkpt lat="44.18423" lon="5.51448">
        <ele>988</ele>
        <time>2019-03-27T14:51:52Z</time>
      </trkpt>
      <trkpt lat="44.18425" lon="5.51445">
        <ele>988</ele>
        <time>2019-03-27T14:51:53Z</time>
      </trkpt>
      <trkpt lat="44.18427" lon="5.51442">
        <ele>988</ele>
        <time>2019-03-27T14:51:54Z</time>
      </trkpt>
      <trkpt lat="44.18429" lon="5.51439">
        <ele>988</ele>
        <time>2019-03-27T14:51:55Z</time>
      </trkpt>
      <trkpt lat="44.18431" lon="5.51436">
        <ele>988</ele>
        <time>2019-03-27T14:51:56Z</time>
      </trkpt>
      <trkpt lat="44.18433" lon="5.51434">
        <ele>988</ele>
        <time>2019-03-27T14:51:57Z</time>
      </trkpt>
      <trkpt lat="44.18435" lon="5.51431">
        <ele>988</ele>
        <time>2019-03-27T14:51:58Z</time>
      </trkpt>
      <trkpt lat="44.18436" lon="5.51428">
        <ele>988</ele>
        <time>2019-03-27T14:51:59Z</time>
      </trkpt>
      <trkpt lat="44.18438" lon="5.51426">
        <ele>988</ele>
        <time>2019-03-27T14:52:00Z</time>
      </trkpt>
      <trkpt lat="44.1844" lon="5.51423">
        <ele>988</ele>
        <time>2019-03-27T14:52:01Z</time>
      </trkpt>
      <trkpt lat="44.18441" lon="5.5142">
        <ele>988</ele>
        <time>2019-03-27T14:52:02Z</time>
      </trkpt>
      <trkpt lat="44.18443" lon="5.51418">
        <ele>988</ele>
        <time>2019-03-27T14:52:03Z</time>
      </trkpt>
      <trkpt lat="44.18445" lon="5.51415">
        <ele>988</ele>
        <time>2019-03-27T14:52:04Z</time>
      </trkpt>
      <trkpt lat="44.18447" lon="5.51413">
        <ele>988</ele>
        <time>2019-03-27T14:52:05Z</time>
      </trkpt>
      <trkpt lat="44.18449" lon="5.5141">
        <ele>988</ele>
        <time>2019-03-27T14:52:06Z</time>
      </trkpt>
      <trkpt lat="44.1845" lon="5.51407">
        <ele>988</ele>
        <time>2019-03-27T14:52:07Z</time>
      </trkpt>
      <trkpt lat="44.18452" lon="5.51404">
        <ele>988</ele>
        <time>2019-03-27T14:52:08Z</time>
      </trkpt>
      <trkpt lat="44.18453" lon="5.51401">
        <ele>988</ele>
        <time>2019-03-27T14:52:09Z</time>
      </trkpt>
      <trkpt lat="44.18455" lon="5.51398">
        <ele>988</ele>
        <time>2019-03-27T14:52:10Z</time>
      </trkpt>
      <trkpt lat="44.18457" lon="5.51395">
        <ele>988</ele>
        <time>2019-03-27T14:52:11Z</time>
      </trkpt>
      <trkpt lat="44.18458" lon="5.51391">
        <ele>988</ele>
        <time>2019-03-27T14:52:12Z</time>
      </trkpt>
      <trkpt lat="44.18459" lon="5.51388">
        <ele>989</ele>
        <time>2019-03-27T14:52:13Z</time>
      </trkpt>
      <trkpt lat="44.1846" lon="5.51384">
        <ele>989</ele>
        <time>2019-03-27T14:52:14Z</time>
      </trkpt>
      <trkpt lat="44.18461" lon="5.5138">
        <ele>989</ele>
        <time>2019-03-27T14:52:15Z</time>
      </trkpt>
      <trkpt lat="44.18462" lon="5.51376">
        <ele>989</ele>
        <time>2019-03-27T14:52:16Z</time>
      </trkpt>
      <trkpt lat="44.18462" lon="5.51373">
        <ele>990</ele>
        <time>2019-03-27T14:52:17Z</time>
      </trkpt>
      <trkpt lat="44.18463" lon="5.51369">
        <ele>990</ele>
        <time>2019-03-27T14:52:18Z</time>
      </trkpt>
      <trkpt lat="44.18464" lon="5.51365">
        <ele>991</ele>
        <time>2019-03-27T14:52:19Z</time>
      </trkpt>
      <trkpt lat="44.18465" lon="5.51362">
        <ele>991</ele>
        <time>2019-03-27T14:52:20Z</time>
      </trkpt>
      <trkpt lat="44.18465" lon="5.51358">
        <ele>991</ele>
        <time>2019-03-27T14:52:21Z</time>
      </trkpt>
      <trkpt lat="44.18466" lon="5.51355">
        <ele>991</ele>
        <time>2019-03-27T14:52:22Z</time>
      </trkpt>
      <trkpt lat="44.18466" lon="5.51351">
        <ele>992</ele>
        <time>2019-03-27T14:52:23Z</time>
      </trkpt>
      <trkpt lat="44.18467" lon="5.51348">
        <ele>992</ele>
        <time>2019-03-27T14:52:24Z</time>
      </trkpt>
      <trkpt lat="44.18468" lon="5.51344">
        <ele>992</ele>
        <time>2019-03-27T14:52:25Z</time>
      </trkpt>
      <trkpt lat="44.18469" lon="5.51341">
        <ele>992</ele>
        <time>2019-03-27T14:52:26Z</time>
      </trkpt>
      <trkpt lat="44.1847" lon="5.51337">
        <ele>992</ele>
        <time>2019-03-27T14:52:27Z</time>
      </trkpt>
      <trkpt lat="44.1847" lon="5.51333">
        <ele>992</ele>
        <time>2019-03-27T14:52:28Z</time>
      </trkpt>
      <trkpt lat="44.18471" lon="5.5133">
        <ele>993</ele>
        <time>2019-03-27T14:52:29Z</time>
      </trkpt>
      <trkpt lat="44.18471" lon="5.51326">
        <ele>993</ele>
        <time>2019-03-27T14:52:30Z</time>
      </trkpt>
      <trkpt lat="44.18472" lon="5.51322">
        <ele>993</ele>
        <time>2019-03-27T14:52:31Z</time>
      </trkpt>
      <trkpt lat="44.18473" lon="5.51319">
        <ele>993</ele>
        <time>2019-03-27T14:52:32Z</time>
      </trkpt>
      <trkpt lat="44.18473" lon="5.51315">
        <ele>993</ele>
        <time>2019-03-27T14:52:33Z</time>
      </trkpt>
      <trkpt lat="44.18474" lon="5.51311">
        <ele>994</ele>
        <time>2019-03-27T14:52:34Z</time>
      </trkpt>
      <trkpt lat="44.18474" lon="5.51307">
        <ele>994</ele>
        <time>2019-03-27T14:52:35Z</time>
      </trkpt>
      <trkpt lat="44.18475" lon="5.51303">
        <ele>994</ele>
        <time>2019-03-27T14:52:36Z</time>
      </trkpt>
      <trkpt lat="44.18476" lon="5.513">
        <ele>994</ele>
        <time>2019-03-27T14:52:37Z</time>
      </trkpt>
      <trkpt lat="44.18476" lon="5.51296">
        <ele>994</ele>
        <time>2019-03-27T14:52:38Z</time>
      </trkpt>
      <trkpt lat="44.18477" lon="5.51293">
        <ele>994</ele>
        <time>2019-03-27T14:52:39Z</time>
      </trkpt>
      <trkpt lat="44.18477" lon="5.51289">
        <ele>994</ele>
        <time>2019-03-27T14:52:40Z</time>
      </trkpt>
      <trkpt lat="44.18478" lon="5.51285">
        <ele>995</ele>
        <time>2019-03-27T14:52:41Z</time>
      </trkpt>
      <trkpt lat="44.18479" lon="5.51281">
        <ele>995</ele>
        <time>2019-03-27T14:52:42Z</time>
      </trkpt>
      <trkpt lat="44.18481" lon="5.51278">
        <ele>996</ele>
        <time>2019-03-27T14:52:43Z</time>
      </trkpt>
      <trkpt lat="44.18483" lon="5.51276">
        <ele>996</ele>
        <time>2019-03-27T14:52:44Z</time>
      </trkpt>
      <trkpt lat="44.18486" lon="5.51275">
        <ele>996</ele>
        <time>2019-03-27T14:52:45Z</time>
      </trkpt>
      <trkpt lat="44.18488" lon="5.51276">
        <ele>997</ele>
        <time>2019-03-27T14:52:46Z</time>
      </trkpt>
      <trkpt lat="44.1849" lon="5.51277">
        <ele>997</ele>
        <time>2019-03-27T14:52:47Z</time>
      </trkpt>
      <trkpt lat="44.18493" lon="5.5128">
        <ele>997</ele>
        <time>2019-03-27T14:52:48Z</time>
      </trkpt>
      <trkpt lat="44.18494" lon="5.51284">
        <ele>997</ele>
        <time>2019-03-27T14:52:49Z</time>
      </trkpt>
      <trkpt lat="44.18496" lon="5.51288">
        <ele>998</ele>
        <time>2019-03-27T14:52:50Z</time>
      </trkpt>
      <trkpt lat="44.18497" lon="5.51292">
        <ele>998</ele>
        <time>2019-03-27T14:52:51Z</time>
      </trkpt>
      <trkpt lat="44.18499" lon="5.51295">
        <ele>998</ele>
        <time>2019-03-27T14:52:52Z</time>
      </trkpt>
      <trkpt lat="44.18499" lon="5.51299">
        <ele>998</ele>
        <time>2019-03-27T14:52:53Z</time>
      </trkpt>
      <trkpt lat="44.18501" lon="5.51303">
        <ele>998</ele>
        <time>2019-03-27T14:52:54Z</time>
      </trkpt>
      <trkpt lat="44.18502" lon="5.51307">
        <ele>998</ele>
        <time>2019-03-27T14:52:55Z</time>
      </trkpt>
      <trkpt lat="44.18503" lon="5.51311">
        <ele>998</ele>
        <time>2019-03-27T14:52:56Z</time>
      </trkpt>
      <trkpt lat="44.18504" lon="5.51315">
        <ele>998</ele>
        <time>2019-03-27T14:52:57Z</time>
      </trkpt>
      <trkpt lat="44.18505" lon="5.51319">
        <ele>998</ele>
        <time>2019-03-27T14:52:58Z</time>
      </trkpt>
      <trkpt lat="44.18506" lon="5.51323">
        <ele>998</ele>
        <time>2019-03-27T14:52:59Z</time>
      </trkpt>
      <trkpt lat="44.18507" lon="5.51327">
        <ele>998</ele>
        <time>2019-03-27T14:53:00Z</time>
      </trkpt>
      <trkpt lat="44.18509" lon="5.5133">
        <ele>999</ele>
        <time>2019-03-27T14:53:01Z</time>
      </trkpt>
      <trkpt lat="44.1851" lon="5.51334">
        <ele>999</ele>
        <time>2019-03-27T14:53:02Z</time>
      </trkpt>
      <trkpt lat="44.1851" lon="5.51338">
        <ele>999</ele>
        <time>2019-03-27T14:53:03Z</time>
      </trkpt>
      <trkpt lat="44.18511" lon="5.51342">
        <ele>999</ele>
        <time>2019-03-27T14:53:04Z</time>
      </trkpt>
      <trkpt lat="44.18512" lon="5.51347">
        <ele>999</ele>
        <time>2019-03-27T14:53:05Z</time>
      </trkpt>
      <trkpt lat="44.18512" lon="5.51351">
        <ele>999</ele>
        <time>2019-03-27T14:53:06Z</time>
      </trkpt>
      <trkpt lat="44.18512" lon="5.51356">
        <ele>999</ele>
        <time>2019-03-27T14:53:07Z</time>
      </trkpt>
      <trkpt lat="44.18512" lon="5.5136">
        <ele>999</ele>
        <time>2019-03-27T14:53:08Z</time>
      </trkpt>
      <trkpt lat="44.18512" lon="5.51364">
        <ele>999</ele>
        <time>2019-03-27T14:53:09Z</time>
      </trkpt>
      <trkpt lat="44.18512" lon="5.51368">
        <ele>999</ele>
        <time>2019-03-27T14:53:10Z</time>
      </trkpt>
      <trkpt lat="44.18512" lon="5.51372">
        <ele>999</ele>
        <time>2019-03-27T14:53:11Z</time>
      </trkpt>
      <trkpt lat="44.18512" lon="5.51377">
        <ele>1000</ele>
        <time>2019-03-27T14:53:12Z</time>
      </trkpt>
      <trkpt lat="44.1851" lon="5.51381">
        <ele>1000</ele>
        <time>2019-03-27T14:53:13Z</time>
      </trkpt>
      <trkpt lat="44.1851" lon="5.51385">
        <ele>1000</ele>
        <time>2019-03-27T14:53:14Z</time>
      </trkpt>
      <trkpt lat="44.18509" lon="5.51389">
        <ele>1000</ele>
        <time>2019-03-27T14:53:15Z</time>
      </trkpt>
      <trkpt lat="44.18508" lon="5.51393">
        <ele>1000</ele>
        <time>2019-03-27T14:53:16Z</time>
      </trkpt>
      <trkpt lat="44.18507" lon="5.51397">
        <ele>1000</ele>
        <time>2019-03-27T14:53:17Z</time>
      </trkpt>
      <trkpt lat="44.18506" lon="5.514">
        <ele>1000</ele>
        <time>2019-03-27T14:53:18Z</time>
      </trkpt>
      <trkpt lat="44.18505" lon="5.51404">
        <ele>1001</ele>
        <time>2019-03-27T14:53:19Z</time>
      </trkpt>
      <trkpt lat="44.18504" lon="5.51408">
        <ele>1001</ele>
        <time>2019-03-27T14:53:20Z</time>
      </trkpt>
      <trkpt lat="44.18504" lon="5.51412">
        <ele>1001</ele>
        <time>2019-03-27T14:53:21Z</time>
      </trkpt>
      <trkpt lat="44.18503" lon="5.51416">
        <ele>1001</ele>
        <time>2019-03-27T14:53:22Z</time>
      </trkpt>
      <trkpt lat="44.18502" lon="5.5142">
        <ele>1001</ele>
        <time>2019-03-27T14:53:23Z</time>
      </trkpt>
      <trkpt lat="44.18502" lon="5.51424">
        <ele>1001</ele>
        <time>2019-03-27T14:53:24Z</time>
      </trkpt>
      <trkpt lat="44.18501" lon="5.51429">
        <ele>1001</ele>
        <time>2019-03-27T14:53:25Z</time>
      </trkpt>
      <trkpt lat="44.18501" lon="5.51433">
        <ele>1001</ele>
        <time>2019-03-27T14:53:26Z</time>
      </trkpt>
      <trkpt lat="44.18501" lon="5.51437">
        <ele>1001</ele>
        <time>2019-03-27T14:53:27Z</time>
      </trkpt>
      <trkpt lat="44.18501" lon="5.51441">
        <ele>1001</ele>
        <time>2019-03-27T14:53:28Z</time>
      </trkpt>
      <trkpt lat="44.185" lon="5.51446">
        <ele>1001</ele>
        <time>2019-03-27T14:53:29Z</time>
      </trkpt>
      <trkpt lat="44.185" lon="5.5145">
        <ele>1002</ele>
        <time>2019-03-27T14:53:30Z</time>
      </trkpt>
      <trkpt lat="44.18499" lon="5.51455">
        <ele>1002</ele>
        <time>2019-03-27T14:53:31Z</time>
      </trkpt>
      <trkpt lat="44.18499" lon="5.5146">
        <ele>1002</ele>
        <time>2019-03-27T14:53:32Z</time>
      </trkpt>
      <trkpt lat="44.18499" lon="5.51464">
        <ele>1002</ele>
        <time>2019-03-27T14:53:33Z</time>
      </trkpt>
      <trkpt lat="44.18498" lon="5.51469">
        <ele>1002</ele>
        <time>2019-03-27T14:53:34Z</time>
      </trkpt>
      <trkpt lat="44.18498" lon="5.51473">
        <ele>1002</ele>
        <time>2019-03-27T14:53:35Z</time>
      </trkpt>
      <trkpt lat="44.18497" lon="5.51477">
        <ele>1002</ele>
        <time>2019-03-27T14:53:36Z</time>
      </trkpt>
      <trkpt lat="44.18496" lon="5.51482">
        <ele>1002</ele>
        <time>2019-03-27T14:53:37Z</time>
      </trkpt>
      <trkpt lat="44.18496" lon="5.51487">
        <ele>1002</ele>
        <time>2019-03-27T14:53:38Z</time>
      </trkpt>
      <trkpt lat="44.18495" lon="5.51491">
        <ele>1002</ele>
        <time>2019-03-27T14:53:39Z</time>
      </trkpt>
      <trkpt lat="44.18494" lon="5.51496">
        <ele>1002</ele>
        <time>2019-03-27T14:53:40Z</time>
      </trkpt>
      <trkpt lat="44.18492" lon="5.515">
        <ele>1002</ele>
        <time>2019-03-27T14:53:41Z</time>
      </trkpt>
      <trkpt lat="44.18491" lon="5.51504">
        <ele>1002</ele>
        <time>2019-03-27T14:53:42Z</time>
      </trkpt>
      <trkpt lat="44.18489" lon="5.51508">
        <ele>1002</ele>
        <time>2019-03-27T14:53:43Z</time>
      </trkpt>
      <trkpt lat="44.18488" lon="5.51513">
        <ele>1003</ele>
        <time>2019-03-27T14:53:44Z</time>
      </trkpt>
      <trkpt lat="44.18487" lon="5.51517">
        <ele>1003</ele>
        <time>2019-03-27T14:53:45Z</time>
      </trkpt>
      <trkpt lat="44.18486" lon="5.51522">
        <ele>1003</ele>
        <time>2019-03-27T14:53:46Z</time>
      </trkpt>
      <trkpt lat="44.18486" lon="5.51526">
        <ele>1003</ele>
        <time>2019-03-27T14:53:47Z</time>
      </trkpt>
      <trkpt lat="44.18488" lon="5.51531">
        <ele>1003</ele>
        <time>2019-03-27T14:53:48Z</time>
      </trkpt>
      <trkpt lat="44.1849" lon="5.51534">
        <ele>1003</ele>
        <time>2019-03-27T14:53:49Z</time>
      </trkpt>
      <trkpt lat="44.18493" lon="5.51536">
        <ele>1003</ele>
        <time>2019-03-27T14:53:50Z</time>
      </trkpt>
      <trkpt lat="44.18497" lon="5.51535">
        <ele>1003</ele>
        <time>2019-03-27T14:53:51Z</time>
      </trkpt>
      <trkpt lat="44.185" lon="5.51533">
        <ele>1003</ele>
        <time>2019-03-27T14:53:52Z</time>
      </trkpt>
      <trkpt lat="44.18502" lon="5.5153">
        <ele>1003</ele>
        <time>2019-03-27T14:53:53Z</time>
      </trkpt>
      <trkpt lat="44.18504" lon="5.51525">
        <ele>1003</ele>
        <time>2019-03-27T14:53:54Z</time>
      </trkpt>
      <trkpt lat="44.18506" lon="5.51521">
        <ele>1004</ele>
        <time>2019-03-27T14:53:55Z</time>
      </trkpt>
      <trkpt lat="44.18507" lon="5.51517">
        <ele>1004</ele>
        <time>2019-03-27T14:53:56Z</time>
      </trkpt>
      <trkpt lat="44.18509" lon="5.51513">
        <ele>1004</ele>
        <time>2019-03-27T14:53:57Z</time>
      </trkpt>
      <trkpt lat="44.18511" lon="5.51509">
        <ele>1004</ele>
        <time>2019-03-27T14:53:58Z</time>
      </trkpt>
      <trkpt lat="44.18512" lon="5.51504">
        <ele>1005</ele>
        <time>2019-03-27T14:53:59Z</time>
      </trkpt>
      <trkpt lat="44.18513" lon="5.51499">
        <ele>1005</ele>
        <time>2019-03-27T14:54:00Z</time>
      </trkpt>
      <trkpt lat="44.18515" lon="5.51495">
        <ele>1005</ele>
        <time>2019-03-27T14:54:01Z</time>
      </trkpt>
      <trkpt lat="44.18516" lon="5.51491">
        <ele>1005</ele>
        <time>2019-03-27T14:54:02Z</time>
      </trkpt>
      <trkpt lat="44.18517" lon="5.51486">
        <ele>1006</ele>
        <time>2019-03-27T14:54:03Z</time>
      </trkpt>
      <trkpt lat="44.18518" lon="5.51482">
        <ele>1006</ele>
        <time>2019-03-27T14:54:04Z</time>
      </trkpt>
      <trkpt lat="44.1852" lon="5.51479">
        <ele>1006</ele>
        <time>2019-03-27T14:54:05Z</time>
      </trkpt>
      <trkpt lat="44.1852" lon="5.51476">
        <ele>1006</ele>
        <time>2019-03-27T14:54:06Z</time>
      </trkpt>
      <trkpt lat="44.18521" lon="5.51472">
        <ele>1006</ele>
        <time>2019-03-27T14:54:07Z</time>
      </trkpt>
      <trkpt lat="44.18523" lon="5.51469">
        <ele>1006</ele>
        <time>2019-03-27T14:54:08Z</time>
      </trkpt>
      <trkpt lat="44.18523" lon="5.51465">
        <ele>1006</ele>
        <time>2019-03-27T14:54:09Z</time>
      </trkpt>
      <trkpt lat="44.18524" lon="5.51462">
        <ele>1006</ele>
        <time>2019-03-27T14:54:10Z</time>
      </trkpt>
      <trkpt lat="44.18525" lon="5.51458">
        <ele>1006</ele>
        <time>2019-03-27T14:54:11Z</time>
      </trkpt>
      <trkpt lat="44.18526" lon="5.51454">
        <ele>1006</ele>
        <time>2019-03-27T14:54:12Z</time>
      </trkpt>
      <trkpt lat="44.18528" lon="5.5145">
        <ele>1006</ele>
        <time>2019-03-27T14:54:13Z</time>
      </trkpt>
      <trkpt lat="44.18529" lon="5.51447">
        <ele>1006</ele>
        <time>2019-03-27T14:54:14Z</time>
      </trkpt>
      <trkpt lat="44.1853" lon="5.51443">
        <ele>1007</ele>
        <time>2019-03-27T14:54:15Z</time>
      </trkpt>
      <trkpt lat="44.18531" lon="5.51439">
        <ele>1007</ele>
        <time>2019-03-27T14:54:16Z</time>
      </trkpt>
      <trkpt lat="44.18532" lon="5.51436">
        <ele>1007</ele>
        <time>2019-03-27T14:54:17Z</time>
      </trkpt>
      <trkpt lat="44.18533" lon="5.51432">
        <ele>1007</ele>
        <time>2019-03-27T14:54:18Z</time>
      </trkpt>
      <trkpt lat="44.18534" lon="5.51429">
        <ele>1008</ele>
        <time>2019-03-27T14:54:19Z</time>
      </trkpt>
      <trkpt lat="44.18535" lon="5.51426">
        <ele>1008</ele>
        <time>2019-03-27T14:54:20Z</time>
      </trkpt>
      <trkpt lat="44.18537" lon="5.51423">
        <ele>1008</ele>
        <time>2019-03-27T14:54:21Z</time>
      </trkpt>
      <trkpt lat="44.18538" lon="5.51419">
        <ele>1008</ele>
        <time>2019-03-27T14:54:22Z</time>
      </trkpt>
      <trkpt lat="44.1854" lon="5.51416">
        <ele>1008</ele>
        <time>2019-03-27T14:54:23Z</time>
      </trkpt>
      <trkpt lat="44.18541" lon="5.51413">
        <ele>1008</ele>
        <time>2019-03-27T14:54:24Z</time>
      </trkpt>
      <trkpt lat="44.18543" lon="5.5141">
        <ele>1008</ele>
        <time>2019-03-27T14:54:25Z</time>
      </trkpt>
      <trkpt lat="44.18544" lon="5.51407">
        <ele>1008</ele>
        <time>2019-03-27T14:54:26Z</time>
      </trkpt>
      <trkpt lat="44.18546" lon="5.51404">
        <ele>1008</ele>
        <time>2019-03-27T14:54:27Z</time>
      </trkpt>
      <trkpt lat="44.18547" lon="5.514">
        <ele>1008</ele>
        <time>2019-03-27T14:54:28Z</time>
      </trkpt>
      <trkpt lat="44.18548" lon="5.51397">
        <ele>1008</ele>
        <time>2019-03-27T14:54:29Z</time>
      </trkpt>
      <trkpt lat="44.18549" lon="5.51393">
        <ele>1008</ele>
        <time>2019-03-27T14:54:30Z</time>
      </trkpt>
      <trkpt lat="44.18551" lon="5.5139">
        <ele>1008</ele>
        <time>2019-03-27T14:54:31Z</time>
      </trkpt>
      <trkpt lat="44.18552" lon="5.51386">
        <ele>1008</ele>
        <time>2019-03-27T14:54:32Z</time>
      </trkpt>
      <trkpt lat="44.18554" lon="5.51382">
        <ele>1009</ele>
        <time>2019-03-27T14:54:33Z</time>
      </trkpt>
      <trkpt lat="44.18555" lon="5.51379">
        <ele>1009</ele>
        <time>2019-03-27T14:54:34Z</time>
      </trkpt>
      <trkpt lat="44.18557" lon="5.51375">
        <ele>1009</ele>
        <time>2019-03-27T14:54:35Z</time>
      </trkpt>
      <trkpt lat="44.18558" lon="5.51371">
        <ele>1009</ele>
        <time>2019-03-27T14:54:36Z</time>
      </trkpt>
      <trkpt lat="44.18559" lon="5.51367">
        <ele>1009</ele>
        <time>2019-03-27T14:54:37Z</time>
      </trkpt>
      <trkpt lat="44.1856" lon="5.51363">
        <ele>1009</ele>
        <time>2019-03-27T14:54:38Z</time>
      </trkpt>
      <trkpt lat="44.18561" lon="5.51359">
        <ele>1009</ele>
        <time>2019-03-27T14:54:39Z</time>
      </trkpt>
      <trkpt lat="44.18562" lon="5.51355">
        <ele>1010</ele>
        <time>2019-03-27T14:54:40Z</time>
      </trkpt>
      <trkpt lat="44.18563" lon="5.51351">
        <ele>1010</ele>
        <time>2019-03-27T14:54:41Z</time>
      </trkpt>
      <trkpt lat="44.18564" lon="5.51347">
        <ele>1011</ele>
        <time>2019-03-27T14:54:42Z</time>
      </trkpt>
      <trkpt lat="44.18565" lon="5.51343">
        <ele>1011</ele>
        <time>2019-03-27T14:54:43Z</time>
      </trkpt>
      <trkpt lat="44.18566" lon="5.5134">
        <ele>1011</ele>
        <time>2019-03-27T14:54:44Z</time>
      </trkpt>
      <trkpt lat="44.18567" lon="5.51337">
        <ele>1011</ele>
        <time>2019-03-27T14:54:45Z</time>
      </trkpt>
      <trkpt lat="44.18568" lon="5.51334">
        <ele>1012</ele>
        <time>2019-03-27T14:54:46Z</time>
      </trkpt>
      <trkpt lat="44.18569" lon="5.51331">
        <ele>1012</ele>
        <time>2019-03-27T14:54:47Z</time>
      </trkpt>
      <trkpt lat="44.1857" lon="5.51327">
        <ele>1012</ele>
        <time>2019-03-27T14:54:48Z</time>
      </trkpt>
      <trkpt lat="44.18571" lon="5.51324">
        <ele>1012</ele>
        <time>2019-03-27T14:54:49Z</time>
      </trkpt>
      <trkpt lat="44.18572" lon="5.51321">
        <ele>1012</ele>
        <time>2019-03-27T14:54:50Z</time>
      </trkpt>
      <trkpt lat="44.18573" lon="5.51318">
        <ele>1013</ele>
        <time>2019-03-27T14:54:51Z</time>
      </trkpt>
      <trkpt lat="44.18575" lon="5.51315">
        <ele>1013</ele>
        <time>2019-03-27T14:54:52Z</time>
      </trkpt>
      <trkpt lat="44.18576" lon="5.51312">
        <ele>1013</ele>
        <time>2019-03-27T14:54:53Z</time>
      </trkpt>
      <trkpt lat="44.18577" lon="5.51309">
        <ele>1013</ele>
        <time>2019-03-27T14:54:54Z</time>
      </trkpt>
      <trkpt lat="44.18578" lon="5.51306">
        <ele>1013</ele>
        <time>2019-03-27T14:54:55Z</time>
      </trkpt>
      <trkpt lat="44.18579" lon="5.51303">
        <ele>1013</ele>
        <time>2019-03-27T14:54:56Z</time>
      </trkpt>
      <trkpt lat="44.18581" lon="5.513">
        <ele>1013</ele>
        <time>2019-03-27T14:54:57Z</time>
      </trkpt>
      <trkpt lat="44.18582" lon="5.51297">
        <ele>1013</ele>
        <time>2019-03-27T14:54:58Z</time>
      </trkpt>
      <trkpt lat="44.18583" lon="5.51294">
        <ele>1013</ele>
        <time>2019-03-27T14:54:59Z</time>
      </trkpt>
      <trkpt lat="44.18584" lon="5.51291">
        <ele>1013</ele>
        <time>2019-03-27T14:55:00Z</time>
      </trkpt>
      <trkpt lat="44.18585" lon="5.51288">
        <ele>1014</ele>
        <time>2019-03-27T14:55:01Z</time>
      </trkpt>
      <trkpt lat="44.18586" lon="5.51286">
        <ele>1014</ele>
        <time>2019-03-27T14:55:02Z</time>
      </trkpt>
      <trkpt lat="44.18588" lon="5.51283">
        <ele>1014</ele>
        <time>2019-03-27T14:55:03Z</time>
      </trkpt>
      <trkpt lat="44.18589" lon="5.5128">
        <ele>1014</ele>
        <time>2019-03-27T14:55:04Z</time>
      </trkpt>
      <trkpt lat="44.1859" lon="5.51276">
        <ele>1015</ele>
        <time>2019-03-27T14:55:05Z</time>
      </trkpt>
      <trkpt lat="44.18591" lon="5.51273">
        <ele>1015</ele>
        <time>2019-03-27T14:55:06Z</time>
      </trkpt>
      <trkpt lat="44.18592" lon="5.51269">
        <ele>1015</ele>
        <time>2019-03-27T14:55:07Z</time>
      </trkpt>
      <trkpt lat="44.18594" lon="5.51266">
        <ele>1015</ele>
        <time>2019-03-27T14:55:08Z</time>
      </trkpt>
      <trkpt lat="44.18595" lon="5.51262">
        <ele>1016</ele>
        <time>2019-03-27T14:55:09Z</time>
      </trkpt>
      <trkpt lat="44.18596" lon="5.51259">
        <ele>1016</ele>
        <time>2019-03-27T14:55:10Z</time>
      </trkpt>
      <trkpt lat="44.18597" lon="5.51255">
        <ele>1016</ele>
        <time>2019-03-27T14:55:11Z</time>
      </trkpt>
      <trkpt lat="44.18598" lon="5.51252">
        <ele>1016</ele>
        <time>2019-03-27T14:55:12Z</time>
      </trkpt>
      <trkpt lat="44.18599" lon="5.51248">
        <ele>1016</ele>
        <time>2019-03-27T14:55:13Z</time>
      </trkpt>
      <trkpt lat="44.186" lon="5.51245">
        <ele>1016</ele>
        <time>2019-03-27T14:55:14Z</time>
      </trkpt>
      <trkpt lat="44.18602" lon="5.51241">
        <ele>1017</ele>
        <time>2019-03-27T14:55:15Z</time>
      </trkpt>
      <trkpt lat="44.18602" lon="5.51237">
        <ele>1017</ele>
        <time>2019-03-27T14:55:16Z</time>
      </trkpt>
      <trkpt lat="44.18603" lon="5.51233">
        <ele>1017</ele>
        <time>2019-03-27T14:55:17Z</time>
      </trkpt>
      <trkpt lat="44.18604" lon="5.5123">
        <ele>1017</ele>
        <time>2019-03-27T14:55:18Z</time>
      </trkpt>
      <trkpt lat="44.18605" lon="5.51226">
        <ele>1017</ele>
        <time>2019-03-27T14:55:19Z</time>
      </trkpt>
      <trkpt lat="44.18605" lon="5.51222">
        <ele>1018</ele>
        <time>2019-03-27T14:55:20Z</time>
      </trkpt>
      <trkpt lat="44.18606" lon="5.51219">
        <ele>1018</ele>
        <time>2019-03-27T14:55:21Z</time>
      </trkpt>
      <trkpt lat="44.18606" lon="5.51215">
        <ele>1018</ele>
        <time>2019-03-27T14:55:22Z</time>
      </trkpt>
      <trkpt lat="44.18607" lon="5.51211">
        <ele>1018</ele>
        <time>2019-03-27T14:55:23Z</time>
      </trkpt>
      <trkpt lat="44.18607" lon="5.51208">
        <ele>1018</ele>
        <time>2019-03-27T14:55:24Z</time>
      </trkpt>
      <trkpt lat="44.18607" lon="5.51204">
        <ele>1018</ele>
        <time>2019-03-27T14:55:25Z</time>
      </trkpt>
      <trkpt lat="44.18608" lon="5.512">
        <ele>1018</ele>
        <time>2019-03-27T14:55:26Z</time>
      </trkpt>
      <trkpt lat="44.18608" lon="5.51196">
        <ele>1018</ele>
        <time>2019-03-27T14:55:27Z</time>
      </trkpt>
      <trkpt lat="44.18608" lon="5.51193">
        <ele>1018</ele>
        <time>2019-03-27T14:55:28Z</time>
      </trkpt>
      <trkpt lat="44.18608" lon="5.51189">
        <ele>1018</ele>
        <time>2019-03-27T14:55:29Z</time>
      </trkpt>
      <trkpt lat="44.18608" lon="5.51186">
        <ele>1018</ele>
        <time>2019-03-27T14:55:30Z</time>
      </trkpt>
      <trkpt lat="44.18608" lon="5.51182">
        <ele>1019</ele>
        <time>2019-03-27T14:55:31Z</time>
      </trkpt>
      <trkpt lat="44.18608" lon="5.51178">
        <ele>1019</ele>
        <time>2019-03-27T14:55:32Z</time>
      </trkpt>
      <trkpt lat="44.18607" lon="5.51174">
        <ele>1019</ele>
        <time>2019-03-27T14:55:33Z</time>
      </trkpt>
      <trkpt lat="44.18607" lon="5.5117">
        <ele>1019</ele>
        <time>2019-03-27T14:55:34Z</time>
      </trkpt>
      <trkpt lat="44.18607" lon="5.51166">
        <ele>1020</ele>
        <time>2019-03-27T14:55:35Z</time>
      </trkpt>
      <trkpt lat="44.18606" lon="5.51161">
        <ele>1020</ele>
        <time>2019-03-27T14:55:36Z</time>
      </trkpt>
      <trkpt lat="44.18605" lon="5.51157">
        <ele>1020</ele>
        <time>2019-03-27T14:55:37Z</time>
      </trkpt>
      <trkpt lat="44.18605" lon="5.51153">
        <ele>1020</ele>
        <time>2019-03-27T14:55:38Z</time>
      </trkpt>
      <trkpt lat="44.18603" lon="5.5115">
        <ele>1021</ele>
        <time>2019-03-27T14:55:39Z</time>
      </trkpt>
      <trkpt lat="44.18602" lon="5.51146">
        <ele>1021</ele>
        <time>2019-03-27T14:55:40Z</time>
      </trkpt>
      <trkpt lat="44.186" lon="5.51142">
        <ele>1021</ele>
        <time>2019-03-27T14:55:41Z</time>
      </trkpt>
      <trkpt lat="44.18599" lon="5.51138">
        <ele>1022</ele>
        <time>2019-03-27T14:55:42Z</time>
      </trkpt>
      <trkpt lat="44.18597" lon="5.51135">
        <ele>1022</ele>
        <time>2019-03-27T14:55:43Z</time>
      </trkpt>
      <trkpt lat="44.18596" lon="5.51131">
        <ele>1022</ele>
        <time>2019-03-27T14:55:44Z</time>
      </trkpt>
      <trkpt lat="44.18594" lon="5.51128">
        <ele>1023</ele>
        <time>2019-03-27T14:55:45Z</time>
      </trkpt>
      <trkpt lat="44.18592" lon="5.51124">
        <ele>1023</ele>
        <time>2019-03-27T14:55:46Z</time>
      </trkpt>
      <trkpt lat="44.1859" lon="5.51121">
        <ele>1023</ele>
        <time>2019-03-27T14:55:47Z</time>
      </trkpt>
      <trkpt lat="44.18589" lon="5.51117">
        <ele>1024</ele>
        <time>2019-03-27T14:55:48Z</time>
      </trkpt>
      <trkpt lat="44.18588" lon="5.51113">
        <ele>1024</ele>
        <time>2019-03-27T14:55:49Z</time>
      </trkpt>
      <trkpt lat="44.18587" lon="5.51109">
        <ele>1024</ele>
        <time>2019-03-27T14:55:50Z</time>
      </trkpt>
      <trkpt lat="44.18586" lon="5.51105">
        <ele>1025</ele>
        <time>2019-03-27T14:55:51Z</time>
      </trkpt>
      <trkpt lat="44.18586" lon="5.51101">
        <ele>1025</ele>
        <time>2019-03-27T14:55:52Z</time>
      </trkpt>
      <trkpt lat="44.18586" lon="5.51097">
        <ele>1025</ele>
        <time>2019-03-27T14:55:53Z</time>
      </trkpt>
      <trkpt lat="44.18586" lon="5.51093">
        <ele>1025</ele>
        <time>2019-03-27T14:55:54Z</time>
      </trkpt>
      <trkpt lat="44.18586" lon="5.51089">
        <ele>1026</ele>
        <time>2019-03-27T14:55:55Z</time>
      </trkpt>
      <trkpt lat="44.18587" lon="5.51086">
        <ele>1026</ele>
        <time>2019-03-27T14:55:56Z</time>
      </trkpt>
      <trkpt lat="44.18587" lon="5.51082">
        <ele>1026</ele>
        <time>2019-03-27T14:55:57Z</time>
      </trkpt>
      <trkpt lat="44.18588" lon="5.51079">
        <ele>1026</ele>
        <time>2019-03-27T14:55:58Z</time>
      </trkpt>
      <trkpt lat="44.18589" lon="5.51076">
        <ele>1026</ele>
        <time>2019-03-27T14:55:59Z</time>
      </trkpt>
      <trkpt lat="44.18591" lon="5.51073">
        <ele>1027</ele>
        <time>2019-03-27T14:56:00Z</time>
      </trkpt>
      <trkpt lat="44.18592" lon="5.51069">
        <ele>1027</ele>
        <time>2019-03-27T14:56:01Z</time>
      </trkpt>
      <trkpt lat="44.18593" lon="5.51065">
        <ele>1027</ele>
        <time>2019-03-27T14:56:02Z</time>
      </trkpt>
      <trkpt lat="44.18594" lon="5.51062">
        <ele>1027</ele>
        <time>2019-03-27T14:56:03Z</time>
      </trkpt>
      <trkpt lat="44.18595" lon="5.51059">
        <ele>1027</ele>
        <time>2019-03-27T14:56:04Z</time>
      </trkpt>
      <trkpt lat="44.18596" lon="5.51056">
        <ele>1027</ele>
        <time>2019-03-27T14:56:05Z</time>
      </trkpt>
      <trkpt lat="44.18598" lon="5.51053">
        <ele>1027</ele>
        <time>2019-03-27T14:56:06Z</time>
      </trkpt>
      <trkpt lat="44.186" lon="5.5105">
        <ele>1028</ele>
        <time>2019-03-27T14:56:07Z</time>
      </trkpt>
      <trkpt lat="44.18601" lon="5.51047">
        <ele>1028</ele>
        <time>2019-03-27T14:56:08Z</time>
      </trkpt>
      <trkpt lat="44.18602" lon="5.51044">
        <ele>1028</ele>
        <time>2019-03-27T14:56:09Z</time>
      </trkpt>
      <trkpt lat="44.18604" lon="5.51041">
        <ele>1028</ele>
        <time>2019-03-27T14:56:10Z</time>
      </trkpt>
      <trkpt lat="44.18605" lon="5.51038">
        <ele>1028</ele>
        <time>2019-03-27T14:56:11Z</time>
      </trkpt>
      <trkpt lat="44.18606" lon="5.51034">
        <ele>1028</ele>
        <time>2019-03-27T14:56:12Z</time>
      </trkpt>
      <trkpt lat="44.18607" lon="5.51031">
        <ele>1029</ele>
        <time>2019-03-27T14:56:13Z</time>
      </trkpt>
      <trkpt lat="44.18608" lon="5.51027">
        <ele>1029</ele>
        <time>2019-03-27T14:56:14Z</time>
      </trkpt>
      <trkpt lat="44.18609" lon="5.51024">
        <ele>1029</ele>
        <time>2019-03-27T14:56:15Z</time>
      </trkpt>
      <trkpt lat="44.18609" lon="5.5102">
        <ele>1029</ele>
        <time>2019-03-27T14:56:16Z</time>
      </trkpt>
      <trkpt lat="44.18609" lon="5.51016">
        <ele>1029</ele>
        <time>2019-03-27T14:56:17Z</time>
      </trkpt>
      <trkpt lat="44.18609" lon="5.51012">
        <ele>1029</ele>
        <time>2019-03-27T14:56:18Z</time>
      </trkpt>
      <trkpt lat="44.18609" lon="5.51009">
        <ele>1029</ele>
        <time>2019-03-27T14:56:19Z</time>
      </trkpt>
      <trkpt lat="44.18608" lon="5.51005">
        <ele>1030</ele>
        <time>2019-03-27T14:56:20Z</time>
      </trkpt>
      <trkpt lat="44.18608" lon="5.51002">
        <ele>1030</ele>
        <time>2019-03-27T14:56:21Z</time>
      </trkpt>
      <trkpt lat="44.18607" lon="5.50998">
        <ele>1030</ele>
        <time>2019-03-27T14:56:22Z</time>
      </trkpt>
      <trkpt lat="44.18606" lon="5.50995">
        <ele>1031</ele>
        <time>2019-03-27T14:56:23Z</time>
      </trkpt>
      <trkpt lat="44.18605" lon="5.50992">
        <ele>1031</ele>
        <time>2019-03-27T14:56:24Z</time>
      </trkpt>
      <trkpt lat="44.18604" lon="5.50988">
        <ele>1031</ele>
        <time>2019-03-27T14:56:25Z</time>
      </trkpt>
      <trkpt lat="44.18603" lon="5.50985">
        <ele>1032</ele>
        <time>2019-03-27T14:56:26Z</time>
      </trkpt>
      <trkpt lat="44.18601" lon="5.50982">
        <ele>1032</ele>
        <time>2019-03-27T14:56:27Z</time>
      </trkpt>
      <trkpt lat="44.186" lon="5.50979">
        <ele>1032</ele>
        <time>2019-03-27T14:56:28Z</time>
      </trkpt>
      <trkpt lat="44.18598" lon="5.50975">
        <ele>1033</ele>
        <time>2019-03-27T14:56:29Z</time>
      </trkpt>
      <trkpt lat="44.18597" lon="5.50972">
        <ele>1033</ele>
        <time>2019-03-27T14:56:30Z</time>
      </trkpt>
      <trkpt lat="44.18595" lon="5.50969">
        <ele>1033</ele>
        <time>2019-03-27T14:56:31Z</time>
      </trkpt>
      <trkpt lat="44.18594" lon="5.50966">
        <ele>1033</ele>
        <time>2019-03-27T14:56:32Z</time>
      </trkpt>
      <trkpt lat="44.18592" lon="5.50962">
        <ele>1034</ele>
        <time>2019-03-27T14:56:33Z</time>
      </trkpt>
      <trkpt lat="44.1859" lon="5.50959">
        <ele>1034</ele>
        <time>2019-03-27T14:56:34Z</time>
      </trkpt>
      <trkpt lat="44.18588" lon="5.50956">
        <ele>1034</ele>
        <time>2019-03-27T14:56:35Z</time>
      </trkpt>
      <trkpt lat="44.18587" lon="5.50954">
        <ele>1034</ele>
        <time>2019-03-27T14:56:36Z</time>
      </trkpt>
      <trkpt lat="44.18585" lon="5.50951">
        <ele>1035</ele>
        <time>2019-03-27T14:56:37Z</time>
      </trkpt>
      <trkpt lat="44.18583" lon="5.50948">
        <ele>1035</ele>
        <time>2019-03-27T14:56:38Z</time>
      </trkpt>
      <trkpt lat="44.18581" lon="5.50945">
        <ele>1035</ele>
        <time>2019-03-27T14:56:39Z</time>
      </trkpt>
      <trkpt lat="44.18579" lon="5.50942">
        <ele>1035</ele>
        <time>2019-03-27T14:56:40Z</time>
      </trkpt>
      <trkpt lat="44.18578" lon="5.50939">
        <ele>1035</ele>
        <time>2019-03-27T14:56:41Z</time>
      </trkpt>
      <trkpt lat="44.18576" lon="5.50936">
        <ele>1035</ele>
        <time>2019-03-27T14:56:42Z</time>
      </trkpt>
      <trkpt lat="44.18574" lon="5.50933">
        <ele>1035</ele>
        <time>2019-03-27T14:56:43Z</time>
      </trkpt>
      <trkpt lat="44.18572" lon="5.5093">
        <ele>1035</ele>
        <time>2019-03-27T14:56:44Z</time>
      </trkpt>
      <trkpt lat="44.1857" lon="5.50927">
        <ele>1035</ele>
        <time>2019-03-27T14:56:45Z</time>
      </trkpt>
      <trkpt lat="44.18568" lon="5.50925">
        <ele>1035</ele>
        <time>2019-03-27T14:56:46Z</time>
      </trkpt>
      <trkpt lat="44.18566" lon="5.50922">
        <ele>1035</ele>
        <time>2019-03-27T14:56:47Z</time>
      </trkpt>
      <trkpt lat="44.18564" lon="5.50919">
        <ele>1035</ele>
        <time>2019-03-27T14:56:48Z</time>
      </trkpt>
      <trkpt lat="44.18562" lon="5.50916">
        <ele>1035</ele>
        <time>2019-03-27T14:56:49Z</time>
      </trkpt>
      <trkpt lat="44.1856" lon="5.50913">
        <ele>1035</ele>
        <time>2019-03-27T14:56:50Z</time>
      </trkpt>
      <trkpt lat="44.18558" lon="5.5091">
        <ele>1035</ele>
        <time>2019-03-27T14:56:51Z</time>
      </trkpt>
      <trkpt lat="44.18556" lon="5.50907">
        <ele>1035</ele>
        <time>2019-03-27T14:56:52Z</time>
      </trkpt>
      <trkpt lat="44.18554" lon="5.50904">
        <ele>1035</ele>
        <time>2019-03-27T14:56:53Z</time>
      </trkpt>
      <trkpt lat="44.18552" lon="5.50902">
        <ele>1035</ele>
        <time>2019-03-27T14:56:54Z</time>
      </trkpt>
      <trkpt lat="44.1855" lon="5.50899">
        <ele>1035</ele>
        <time>2019-03-27T14:56:55Z</time>
      </trkpt>
      <trkpt lat="44.18548" lon="5.50896">
        <ele>1035</ele>
        <time>2019-03-27T14:56:56Z</time>
      </trkpt>
      <trkpt lat="44.18546" lon="5.50893">
        <ele>1035</ele>
        <time>2019-03-27T14:56:57Z</time>
      </trkpt>
      <trkpt lat="44.18544" lon="5.50891">
        <ele>1035</ele>
        <time>2019-03-27T14:56:58Z</time>
      </trkpt>
      <trkpt lat="44.18543" lon="5.50888">
        <ele>1035</ele>
        <time>2019-03-27T14:56:59Z</time>
      </trkpt>
      <trkpt lat="44.18541" lon="5.50885">
        <ele>1035</ele>
        <time>2019-03-27T14:57:00Z</time>
      </trkpt>
      <trkpt lat="44.1854" lon="5.50882">
        <ele>1035</ele>
        <time>2019-03-27T14:57:01Z</time>
      </trkpt>
      <trkpt lat="44.18538" lon="5.50879">
        <ele>1036</ele>
        <time>2019-03-27T14:57:02Z</time>
      </trkpt>
      <trkpt lat="44.18536" lon="5.50876">
        <ele>1036</ele>
        <time>2019-03-27T14:57:03Z</time>
      </trkpt>
      <trkpt lat="44.18535" lon="5.50873">
        <ele>1036</ele>
        <time>2019-03-27T14:57:04Z</time>
      </trkpt>
      <trkpt lat="44.18533" lon="5.5087">
        <ele>1036</ele>
        <time>2019-03-27T14:57:05Z</time>
      </trkpt>
      <trkpt lat="44.18532" lon="5.50867">
        <ele>1036</ele>
        <time>2019-03-27T14:57:06Z</time>
      </trkpt>
      <trkpt lat="44.18531" lon="5.50864">
        <ele>1036</ele>
        <time>2019-03-27T14:57:07Z</time>
      </trkpt>
      <trkpt lat="44.1853" lon="5.50861">
        <ele>1037</ele>
        <time>2019-03-27T14:57:08Z</time>
      </trkpt>
      <trkpt lat="44.18528" lon="5.50857">
        <ele>1037</ele>
        <time>2019-03-27T14:57:09Z</time>
      </trkpt>
      <trkpt lat="44.18527" lon="5.50854">
        <ele>1037</ele>
        <time>2019-03-27T14:57:10Z</time>
      </trkpt>
      <trkpt lat="44.18526" lon="5.50851">
        <ele>1038</ele>
        <time>2019-03-27T14:57:11Z</time>
      </trkpt>
      <trkpt lat="44.18525" lon="5.50848">
        <ele>1038</ele>
        <time>2019-03-27T14:57:12Z</time>
      </trkpt>
      <trkpt lat="44.18523" lon="5.50846">
        <ele>1038</ele>
        <time>2019-03-27T14:57:13Z</time>
      </trkpt>
      <trkpt lat="44.18522" lon="5.50843">
        <ele>1039</ele>
        <time>2019-03-27T14:57:14Z</time>
      </trkpt>
      <trkpt lat="44.18521" lon="5.5084">
        <ele>1039</ele>
        <time>2019-03-27T14:57:15Z</time>
      </trkpt>
      <trkpt lat="44.1852" lon="5.50837">
        <ele>1039</ele>
        <time>2019-03-27T14:57:16Z</time>
      </trkpt>
      <trkpt lat="44.18518" lon="5.50834">
        <ele>1039</ele>
        <time>2019-03-27T14:57:17Z</time>
      </trkpt>
      <trkpt lat="44.18517" lon="5.50831">
        <ele>1040</ele>
        <time>2019-03-27T14:57:18Z</time>
      </trkpt>
      <trkpt lat="44.18516" lon="5.50828">
        <ele>1040</ele>
        <time>2019-03-27T14:57:19Z</time>
      </trkpt>
      <trkpt lat="44.18515" lon="5.50825">
        <ele>1040</ele>
        <time>2019-03-27T14:57:20Z</time>
      </trkpt>
      <trkpt lat="44.18513" lon="5.50822">
        <ele>1040</ele>
        <time>2019-03-27T14:57:21Z</time>
      </trkpt>
      <trkpt lat="44.18512" lon="5.50819">
        <ele>1041</ele>
        <time>2019-03-27T14:57:22Z</time>
      </trkpt>
      <trkpt lat="44.1851" lon="5.50815">
        <ele>1041</ele>
        <time>2019-03-27T14:57:23Z</time>
      </trkpt>
      <trkpt lat="44.18508" lon="5.50812">
        <ele>1041</ele>
        <time>2019-03-27T14:57:24Z</time>
      </trkpt>
      <trkpt lat="44.18507" lon="5.50809">
        <ele>1041</ele>
        <time>2019-03-27T14:57:25Z</time>
      </trkpt>
      <trkpt lat="44.18505" lon="5.50806">
        <ele>1042</ele>
        <time>2019-03-27T14:57:26Z</time>
      </trkpt>
      <trkpt lat="44.18504" lon="5.50803">
        <ele>1042</ele>
        <time>2019-03-27T14:57:27Z</time>
      </trkpt>
      <trkpt lat="44.18502" lon="5.508">
        <ele>1042</ele>
        <time>2019-03-27T14:57:28Z</time>
      </trkpt>
      <trkpt lat="44.18501" lon="5.50796">
        <ele>1043</ele>
        <time>2019-03-27T14:57:29Z</time>
      </trkpt>
      <trkpt lat="44.185" lon="5.50793">
        <ele>1043</ele>
        <time>2019-03-27T14:57:30Z</time>
      </trkpt>
      <trkpt lat="44.18498" lon="5.5079">
        <ele>1043</ele>
        <time>2019-03-27T14:57:31Z</time>
      </trkpt>
      <trkpt lat="44.18496" lon="5.50787">
        <ele>1044</ele>
        <time>2019-03-27T14:57:32Z</time>
      </trkpt>
      <trkpt lat="44.18495" lon="5.50785">
        <ele>1044</ele>
        <time>2019-03-27T14:57:33Z</time>
      </trkpt>
      <trkpt lat="44.18493" lon="5.50782">
        <ele>1044</ele>
        <time>2019-03-27T14:57:34Z</time>
      </trkpt>
      <trkpt lat="44.18492" lon="5.5078">
        <ele>1044</ele>
        <time>2019-03-27T14:57:35Z</time>
      </trkpt>
      <trkpt lat="44.1849" lon="5.50777">
        <ele>1045</ele>
        <time>2019-03-27T14:57:36Z</time>
      </trkpt>
      <trkpt lat="44.18488" lon="5.50775">
        <ele>1045</ele>
        <time>2019-03-27T14:57:37Z</time>
      </trkpt>
      <trkpt lat="44.18486" lon="5.50772">
        <ele>1045</ele>
        <time>2019-03-27T14:57:38Z</time>
      </trkpt>
      <trkpt lat="44.18484" lon="5.5077">
        <ele>1045</ele>
        <time>2019-03-27T14:57:39Z</time>
      </trkpt>
      <trkpt lat="44.18482" lon="5.50767">
        <ele>1045</ele>
        <time>2019-03-27T14:57:40Z</time>
      </trkpt>
      <trkpt lat="44.1848" lon="5.50765">
        <ele>1045</ele>
        <time>2019-03-27T14:57:41Z</time>
      </trkpt>
      <trkpt lat="44.18478" lon="5.50763">
        <ele>1046</ele>
        <time>2019-03-27T14:57:42Z</time>
      </trkpt>
      <trkpt lat="44.18476" lon="5.50761">
        <ele>1046</ele>
        <time>2019-03-27T14:57:43Z</time>
      </trkpt>
      <trkpt lat="44.18474" lon="5.50759">
        <ele>1046</ele>
        <time>2019-03-27T14:57:44Z</time>
      </trkpt>
      <trkpt lat="44.18472" lon="5.50756">
        <ele>1046</ele>
        <time>2019-03-27T14:57:45Z</time>
      </trkpt>
      <trkpt lat="44.1847" lon="5.50754">
        <ele>1047</ele>
        <time>2019-03-27T14:57:46Z</time>
      </trkpt>
      <trkpt lat="44.18468" lon="5.50753">
        <ele>1047</ele>
        <time>2019-03-27T14:57:47Z</time>
      </trkpt>
      <trkpt lat="44.18465" lon="5.50751">
        <ele>1047</ele>
        <time>2019-03-27T14:57:48Z</time>
      </trkpt>
      <trkpt lat="44.18463" lon="5.5075">
        <ele>1047</ele>
        <time>2019-03-27T14:57:49Z</time>
      </trkpt>
      <trkpt lat="44.18461" lon="5.50749">
        <ele>1047</ele>
        <time>2019-03-27T14:57:50Z</time>
      </trkpt>
      <trkpt lat="44.18458" lon="5.50748">
        <ele>1047</ele>
        <time>2019-03-27T14:57:51Z</time>
      </trkpt>
      <trkpt lat="44.18456" lon="5.50747">
        <ele>1047</ele>
        <time>2019-03-27T14:57:52Z</time>
      </trkpt>
      <trkpt lat="44.18453" lon="5.50746">
        <ele>1047</ele>
        <time>2019-03-27T14:57:53Z</time>
      </trkpt>
      <trkpt lat="44.1845" lon="5.50745">
        <ele>1047</ele>
        <time>2019-03-27T14:57:54Z</time>
      </trkpt>
      <trkpt lat="44.18447" lon="5.50745">
        <ele>1047</ele>
        <time>2019-03-27T14:57:55Z</time>
      </trkpt>
      <trkpt lat="44.18444" lon="5.50744">
        <ele>1047</ele>
        <time>2019-03-27T14:57:56Z</time>
      </trkpt>
      <trkpt lat="44.18441" lon="5.50745">
        <ele>1047</ele>
        <time>2019-03-27T14:57:57Z</time>
      </trkpt>
      <trkpt lat="44.18438" lon="5.50746">
        <ele>1047</ele>
        <time>2019-03-27T14:57:58Z</time>
      </trkpt>
      <trkpt lat="44.18435" lon="5.50747">
        <ele>1047</ele>
        <time>2019-03-27T14:57:59Z</time>
      </trkpt>
      <trkpt lat="44.18432" lon="5.50749">
        <ele>1047</ele>
        <time>2019-03-27T14:58:00Z</time>
      </trkpt>
      <trkpt lat="44.1843" lon="5.50751">
        <ele>1047</ele>
        <time>2019-03-27T14:58:01Z</time>
      </trkpt>
      <trkpt lat="44.18427" lon="5.50753">
        <ele>1047</ele>
        <time>2019-03-27T14:58:02Z</time>
      </trkpt>
      <trkpt lat="44.18424" lon="5.50756">
        <ele>1047</ele>
        <time>2019-03-27T14:58:03Z</time>
      </trkpt>
      <trkpt lat="44.18422" lon="5.50758">
        <ele>1047</ele>
        <time>2019-03-27T14:58:04Z</time>
      </trkpt>
      <trkpt lat="44.18419" lon="5.50761">
        <ele>1047</ele>
        <time>2019-03-27T14:58:05Z</time>
      </trkpt>
      <trkpt lat="44.18417" lon="5.50764">
        <ele>1047</ele>
        <time>2019-03-27T14:58:06Z</time>
      </trkpt>
      <trkpt lat="44.18415" lon="5.50766">
        <ele>1047</ele>
        <time>2019-03-27T14:58:07Z</time>
      </trkpt>
      <trkpt lat="44.18414" lon="5.5077">
        <ele>1047</ele>
        <time>2019-03-27T14:58:08Z</time>
      </trkpt>
      <trkpt lat="44.18413" lon="5.50773">
        <ele>1047</ele>
        <time>2019-03-27T14:58:09Z</time>
      </trkpt>
      <trkpt lat="44.18412" lon="5.50776">
        <ele>1047</ele>
        <time>2019-03-27T14:58:10Z</time>
      </trkpt>
      <trkpt lat="44.1841" lon="5.50779">
        <ele>1047</ele>
        <time>2019-03-27T14:58:11Z</time>
      </trkpt>
      <trkpt lat="44.18408" lon="5.50782">
        <ele>1047</ele>
        <time>2019-03-27T14:58:12Z</time>
      </trkpt>
      <trkpt lat="44.18407" lon="5.50785">
        <ele>1048</ele>
        <time>2019-03-27T14:58:13Z</time>
      </trkpt>
      <trkpt lat="44.18405" lon="5.50788">
        <ele>1048</ele>
        <time>2019-03-27T14:58:14Z</time>
      </trkpt>
      <trkpt lat="44.18403" lon="5.50791">
        <ele>1048</ele>
        <time>2019-03-27T14:58:15Z</time>
      </trkpt>
      <trkpt lat="44.18402" lon="5.50794">
        <ele>1048</ele>
        <time>2019-03-27T14:58:16Z</time>
      </trkpt>
      <trkpt lat="44.184" lon="5.50797">
        <ele>1048</ele>
        <time>2019-03-27T14:58:17Z</time>
      </trkpt>
      <trkpt lat="44.18399" lon="5.508">
        <ele>1048</ele>
        <time>2019-03-27T14:58:18Z</time>
      </trkpt>
      <trkpt lat="44.18397" lon="5.50803">
        <ele>1049</ele>
        <time>2019-03-27T14:58:19Z</time>
      </trkpt>
      <trkpt lat="44.18395" lon="5.50806">
        <ele>1049</ele>
        <time>2019-03-27T14:58:20Z</time>
      </trkpt>
      <trkpt lat="44.18393" lon="5.50809">
        <ele>1049</ele>
        <time>2019-03-27T14:58:21Z</time>
      </trkpt>
      <trkpt lat="44.18391" lon="5.50812">
        <ele>1049</ele>
        <time>2019-03-27T14:58:22Z</time>
      </trkpt>
      <trkpt lat="44.1839" lon="5.50815">
        <ele>1049</ele>
        <time>2019-03-27T14:58:23Z</time>
      </trkpt>
      <trkpt lat="44.18388" lon="5.50818">
        <ele>1049</ele>
        <time>2019-03-27T14:58:24Z</time>
      </trkpt>
      <trkpt lat="44.18386" lon="5.50821">
        <ele>1049</ele>
        <time>2019-03-27T14:58:25Z</time>
      </trkpt>
      <trkpt lat="44.18384" lon="5.50824">
        <ele>1049</ele>
        <time>2019-03-27T14:58:26Z</time>
      </trkpt>
      <trkpt lat="44.18382" lon="5.50827">
        <ele>1049</ele>
        <time>2019-03-27T14:58:27Z</time>
      </trkpt>
      <trkpt lat="44.1838" lon="5.5083">
        <ele>1049</ele>
        <time>2019-03-27T14:58:28Z</time>
      </trkpt>
      <trkpt lat="44.18377" lon="5.50833">
        <ele>1049</ele>
        <time>2019-03-27T14:58:29Z</time>
      </trkpt>
      <trkpt lat="44.18375" lon="5.50835">
        <ele>1049</ele>
        <time>2019-03-27T14:58:30Z</time>
      </trkpt>
      <trkpt lat="44.18373" lon="5.50838">
        <ele>1049</ele>
        <time>2019-03-27T14:58:31Z</time>
      </trkpt>
      <trkpt lat="44.1837" lon="5.50841">
        <ele>1050</ele>
        <time>2019-03-27T14:58:32Z</time>
      </trkpt>
      <trkpt lat="44.18368" lon="5.50843">
        <ele>1050</ele>
        <time>2019-03-27T14:58:33Z</time>
      </trkpt>
      <trkpt lat="44.18365" lon="5.50846">
        <ele>1050</ele>
        <time>2019-03-27T14:58:34Z</time>
      </trkpt>
      <trkpt lat="44.18363" lon="5.50848">
        <ele>1050</ele>
        <time>2019-03-27T14:58:35Z</time>
      </trkpt>
      <trkpt lat="44.1836" lon="5.50851">
        <ele>1050</ele>
        <time>2019-03-27T14:58:36Z</time>
      </trkpt>
      <trkpt lat="44.18357" lon="5.50853">
        <ele>1050</ele>
        <time>2019-03-27T14:58:37Z</time>
      </trkpt>
      <trkpt lat="44.18354" lon="5.50855">
        <ele>1051</ele>
        <time>2019-03-27T14:58:38Z</time>
      </trkpt>
      <trkpt lat="44.18351" lon="5.50857">
        <ele>1051</ele>
        <time>2019-03-27T14:58:39Z</time>
      </trkpt>
      <trkpt lat="44.18348" lon="5.50859">
        <ele>1051</ele>
        <time>2019-03-27T14:58:40Z</time>
      </trkpt>
      <trkpt lat="44.18345" lon="5.50861">
        <ele>1051</ele>
        <time>2019-03-27T14:58:41Z</time>
      </trkpt>
      <trkpt lat="44.18343" lon="5.50862">
        <ele>1051</ele>
        <time>2019-03-27T14:58:42Z</time>
      </trkpt>
      <trkpt lat="44.1834" lon="5.50864">
        <ele>1051</ele>
        <time>2019-03-27T14:58:43Z</time>
      </trkpt>
      <trkpt lat="44.18337" lon="5.50865">
        <ele>1051</ele>
        <time>2019-03-27T14:58:44Z</time>
      </trkpt>
      <trkpt lat="44.18334" lon="5.50866">
        <ele>1051</ele>
        <time>2019-03-27T14:58:45Z</time>
      </trkpt>
      <trkpt lat="44.18331" lon="5.50868">
        <ele>1051</ele>
        <time>2019-03-27T14:58:46Z</time>
      </trkpt>
      <trkpt lat="44.18328" lon="5.5087">
        <ele>1051</ele>
        <time>2019-03-27T14:58:47Z</time>
      </trkpt>
      <trkpt lat="44.18325" lon="5.50871">
        <ele>1051</ele>
        <time>2019-03-27T14:58:48Z</time>
      </trkpt>
      <trkpt lat="44.18322" lon="5.50873">
        <ele>1051</ele>
        <time>2019-03-27T14:58:49Z</time>
      </trkpt>
      <trkpt lat="44.18319" lon="5.50875">
        <ele>1051</ele>
        <time>2019-03-27T14:58:50Z</time>
      </trkpt>
      <trkpt lat="44.18317" lon="5.50876">
        <ele>1052</ele>
        <time>2019-03-27T14:58:51Z</time>
      </trkpt>
      <trkpt lat="44.18314" lon="5.50878">
        <ele>1052</ele>
        <time>2019-03-27T14:58:52Z</time>
      </trkpt>
      <trkpt lat="44.18311" lon="5.50879">
        <ele>1052</ele>
        <time>2019-03-27T14:58:53Z</time>
      </trkpt>
      <trkpt lat="44.18308" lon="5.50881">
        <ele>1052</ele>
        <time>2019-03-27T14:58:54Z</time>
      </trkpt>
      <trkpt lat="44.18306" lon="5.50882">
        <ele>1052</ele>
        <time>2019-03-27T14:58:55Z</time>
      </trkpt>
      <trkpt lat="44.18303" lon="5.50884">
        <ele>1052</ele>
        <time>2019-03-27T14:58:56Z</time>
      </trkpt>
      <trkpt lat="44.183" lon="5.50886">
        <ele>1052</ele>
        <time>2019-03-27T14:58:57Z</time>
      </trkpt>
      <trkpt lat="44.18297" lon="5.50888">
        <ele>1052</ele>
        <time>2019-03-27T14:58:58Z</time>
      </trkpt>
      <trkpt lat="44.18295" lon="5.5089">
        <ele>1052</ele>
        <time>2019-03-27T14:58:59Z</time>
      </trkpt>
      <trkpt lat="44.18292" lon="5.50892">
        <ele>1052</ele>
        <time>2019-03-27T14:59:00Z</time>
      </trkpt>
      <trkpt lat="44.1829" lon="5.50895">
        <ele>1052</ele>
        <time>2019-03-27T14:59:01Z</time>
      </trkpt>
      <trkpt lat="44.18287" lon="5.50897">
        <ele>1052</ele>
        <time>2019-03-27T14:59:02Z</time>
      </trkpt>
      <trkpt lat="44.18285" lon="5.509">
        <ele>1052</ele>
        <time>2019-03-27T14:59:03Z</time>
      </trkpt>
      <trkpt lat="44.18283" lon="5.50903">
        <ele>1053</ele>
        <time>2019-03-27T14:59:04Z</time>
      </trkpt>
      <trkpt lat="44.18282" lon="5.50905">
        <ele>1053</ele>
        <time>2019-03-27T14:59:05Z</time>
      </trkpt>
      <trkpt lat="44.1828" lon="5.50908">
        <ele>1053</ele>
        <time>2019-03-27T14:59:06Z</time>
      </trkpt>
      <trkpt lat="44.18278" lon="5.50911">
        <ele>1053</ele>
        <time>2019-03-27T14:59:07Z</time>
      </trkpt>
      <trkpt lat="44.18276" lon="5.50914">
        <ele>1053</ele>
        <time>2019-03-27T14:59:08Z</time>
      </trkpt>
      <trkpt lat="44.18274" lon="5.50918">
        <ele>1053</ele>
        <time>2019-03-27T14:59:09Z</time>
      </trkpt>
      <trkpt lat="44.18272" lon="5.50921">
        <ele>1053</ele>
        <time>2019-03-27T14:59:10Z</time>
      </trkpt>
      <trkpt lat="44.1827" lon="5.50924">
        <ele>1053</ele>
        <time>2019-03-27T14:59:11Z</time>
      </trkpt>
      <trkpt lat="44.18268" lon="5.50927">
        <ele>1053</ele>
        <time>2019-03-27T14:59:12Z</time>
      </trkpt>
      <trkpt lat="44.18267" lon="5.5093">
        <ele>1053</ele>
        <time>2019-03-27T14:59:13Z</time>
      </trkpt>
      <trkpt lat="44.18265" lon="5.50933">
        <ele>1053</ele>
        <time>2019-03-27T14:59:14Z</time>
      </trkpt>
      <trkpt lat="44.18263" lon="5.50937">
        <ele>1054</ele>
        <time>2019-03-27T14:59:15Z</time>
      </trkpt>
      <trkpt lat="44.18261" lon="5.5094">
        <ele>1054</ele>
        <time>2019-03-27T14:59:16Z</time>
      </trkpt>
      <trkpt lat="44.18259" lon="5.50943">
        <ele>1054</ele>
        <time>2019-03-27T14:59:17Z</time>
      </trkpt>
      <trkpt lat="44.18257" lon="5.50947">
        <ele>1054</ele>
        <time>2019-03-27T14:59:18Z</time>
      </trkpt>
      <trkpt lat="44.18255" lon="5.5095">
        <ele>1054</ele>
        <time>2019-03-27T14:59:19Z</time>
      </trkpt>
      <trkpt lat="44.18253" lon="5.50953">
        <ele>1054</ele>
        <time>2019-03-27T14:59:20Z</time>
      </trkpt>
      <trkpt lat="44.18251" lon="5.50957">
        <ele>1055</ele>
        <time>2019-03-27T14:59:21Z</time>
      </trkpt>
      <trkpt lat="44.18249" lon="5.5096">
        <ele>1055</ele>
        <time>2019-03-27T14:59:22Z</time>
      </trkpt>
      <trkpt lat="44.18248" lon="5.50963">
        <ele>1055</ele>
        <time>2019-03-27T14:59:23Z</time>
      </trkpt>
      <trkpt lat="44.18246" lon="5.50967">
        <ele>1055</ele>
        <time>2019-03-27T14:59:24Z</time>
      </trkpt>
      <trkpt lat="44.18244" lon="5.50971">
        <ele>1055</ele>
        <time>2019-03-27T14:59:25Z</time>
      </trkpt>
      <trkpt lat="44.18242" lon="5.50974">
        <ele>1055</ele>
        <time>2019-03-27T14:59:26Z</time>
      </trkpt>
      <trkpt lat="44.18241" lon="5.50978">
        <ele>1056</ele>
        <time>2019-03-27T14:59:27Z</time>
      </trkpt>
      <trkpt lat="44.1824" lon="5.50982">
        <ele>1056</ele>
        <time>2019-03-27T14:59:28Z</time>
      </trkpt>
      <trkpt lat="44.18239" lon="5.50985">
        <ele>1056</ele>
        <time>2019-03-27T14:59:29Z</time>
      </trkpt>
      <trkpt lat="44.18238" lon="5.50989">
        <ele>1056</ele>
        <time>2019-03-27T14:59:30Z</time>
      </trkpt>
      <trkpt lat="44.18237" lon="5.50992">
        <ele>1056</ele>
        <time>2019-03-27T14:59:31Z</time>
      </trkpt>
      <trkpt lat="44.18235" lon="5.50995">
        <ele>1057</ele>
        <time>2019-03-27T14:59:32Z</time>
      </trkpt>
      <trkpt lat="44.18234" lon="5.50999">
        <ele>1057</ele>
        <time>2019-03-27T14:59:33Z</time>
      </trkpt>
      <trkpt lat="44.18232" lon="5.51002">
        <ele>1057</ele>
        <time>2019-03-27T14:59:34Z</time>
      </trkpt>
      <trkpt lat="44.18231" lon="5.51005">
        <ele>1057</ele>
        <time>2019-03-27T14:59:35Z</time>
      </trkpt>
      <trkpt lat="44.1823" lon="5.51008">
        <ele>1057</ele>
        <time>2019-03-27T14:59:36Z</time>
      </trkpt>
      <trkpt lat="44.18228" lon="5.5101">
        <ele>1057</ele>
        <time>2019-03-27T14:59:37Z</time>
      </trkpt>
      <trkpt lat="44.18227" lon="5.51012">
        <ele>1058</ele>
        <time>2019-03-27T14:59:38Z</time>
      </trkpt>
      <trkpt lat="44.18226" lon="5.51013">
        <ele>1058</ele>
        <time>2019-03-27T14:59:39Z</time>
      </trkpt>
      <trkpt lat="44.18225" lon="5.51015">
        <ele>1058</ele>
        <time>2019-03-27T14:59:41Z</time>
      </trkpt>
      <trkpt lat="44.18226" lon="5.51017">
        <ele>1061</ele>
        <time>2019-03-27T14:59:48Z</time>
      </trkpt>
      <trkpt lat="44.18224" lon="5.51018">
        <ele>1061</ele>
        <time>2019-03-27T14:59:52Z</time>
      </trkpt>
      <trkpt lat="44.18223" lon="5.51019">
        <ele>1061</ele>
        <time>2019-03-27T14:59:56Z</time>
      </trkpt>
      <trkpt lat="44.18222" lon="5.51019">
        <ele>1061</ele>
        <time>2019-03-27T15:00:01Z</time>
      </trkpt>
      <trkpt lat="44.18223" lon="5.51019">
        <ele>1061</ele>
        <time>2019-03-27T15:00:09Z</time>
      </trkpt>
      <trkpt lat="44.18224" lon="5.51019">
        <ele>1061</ele>
        <time>2019-03-27T15:00:21Z</time>
      </trkpt>
      <trkpt lat="44.18226" lon="5.5102">
        <ele>1061</ele>
        <time>2019-03-27T15:00:27Z</time>
      </trkpt>
      <trkpt lat="44.18227" lon="5.51022">
        <ele>1061</ele>
        <time>2019-03-27T15:00:33Z</time>
      </trkpt>
      <trkpt lat="44.18227" lon="5.51024">
        <ele>1061</ele>
        <time>2019-03-27T15:00:37Z</time>
      </trkpt>
      <trkpt lat="44.18227" lon="5.51025">
        <ele>1061</ele>
        <time>2019-03-27T15:00:43Z</time>
      </trkpt>
      <trkpt lat="44.18227" lon="5.51027">
        <ele>1061</ele>
        <time>2019-03-27T15:00:48Z</time>
      </trkpt>
      <trkpt lat="44.18226" lon="5.51025">
        <ele>1061</ele>
        <time>2019-03-27T15:01:06Z</time>
      </trkpt>
      <trkpt lat="44.18226" lon="5.51024">
        <ele>1061</ele>
        <time>2019-03-27T15:01:09Z</time>
      </trkpt>
      <trkpt lat="44.18225" lon="5.51022">
        <ele>1061</ele>
        <time>2019-03-27T15:01:17Z</time>
      </trkpt>
      <trkpt lat="44.18225" lon="5.51021">
        <ele>1061</ele>
        <time>2019-03-27T15:01:40Z</time>
      </trkpt>
      <trkpt lat="44.18224" lon="5.51019">
        <ele>1061</ele>
        <time>2019-03-27T15:01:45Z</time>
      </trkpt>
      <trkpt lat="44.18224" lon="5.51018">
        <ele>1061</ele>
        <time>2019-03-27T15:01:53Z</time>
      </trkpt>
      <trkpt lat="44.18225" lon="5.51017">
        <ele>1062</ele>
        <time>2019-03-27T15:02:04Z</time>
      </trkpt>
      <trkpt lat="44.18225" lon="5.51019">
        <ele>1065</ele>
        <time>2019-03-27T15:02:17Z</time>
      </trkpt>
      <trkpt lat="44.18225" lon="5.5102">
        <ele>1065</ele>
        <time>2019-03-27T15:02:25Z</time>
      </trkpt>
      <trkpt lat="44.18225" lon="5.51022">
        <ele>1064</ele>
        <time>2019-03-27T15:02:51Z</time>
      </trkpt>
      <trkpt lat="44.18226" lon="5.51021">
        <ele>1064</ele>
        <time>2019-03-27T15:03:00Z</time>
      </trkpt>
      <trkpt lat="44.18226" lon="5.51019">
        <ele>1067</ele>
        <time>2019-03-27T15:03:09Z</time>
      </trkpt>
      <trkpt lat="44.18227" lon="5.51018">
        <ele>1067</ele>
        <time>2019-03-27T15:03:37Z</time>
      </trkpt>
      <trkpt lat="44.18228" lon="5.51019">
        <ele>1067</ele>
        <time>2019-03-27T15:03:43Z</time>
      </trkpt>
      <trkpt lat="44.18227" lon="5.51018">
        <ele>1068</ele>
        <time>2019-03-27T15:03:55Z</time>
      </trkpt>
      <trkpt lat="44.18225" lon="5.5102">
        <ele>1068</ele>
        <time>2019-03-27T15:04:14Z</time>
      </trkpt>
      <trkpt lat="44.18224" lon="5.51018">
        <ele>1068</ele>
        <time>2019-03-27T15:04:24Z</time>
      </trkpt>
      <trkpt lat="44.18224" lon="5.51017">
        <ele>1068</ele>
        <time>2019-03-27T15:04:30Z</time>
      </trkpt>
      <trkpt lat="44.18225" lon="5.51018">
        <ele>1067</ele>
        <time>2019-03-27T15:04:46Z</time>
      </trkpt>
      <trkpt lat="44.18227" lon="5.51018">
        <ele>1067</ele>
        <time>2019-03-27T15:04:50Z</time>
      </trkpt>
      <trkpt lat="44.18229" lon="5.51031">
        <ele>1067</ele>
        <time>2019-03-27T15:05:02Z</time>
      </trkpt>
      <trkpt lat="44.18228" lon="5.51034">
        <ele>1067</ele>
        <time>2019-03-27T15:05:03Z</time>
      </trkpt>
      <trkpt lat="44.18226" lon="5.51034">
        <ele>1067</ele>
        <time>2019-03-27T15:05:04Z</time>
      </trkpt>
      <trkpt lat="44.18225" lon="5.51031">
        <ele>1067</ele>
        <time>2019-03-27T15:05:07Z</time>
      </trkpt>
      <trkpt lat="44.18225" lon="5.51027">
        <ele>1067</ele>
        <time>2019-03-27T15:05:08Z</time>
      </trkpt>
      <trkpt lat="44.18227" lon="5.51025">
        <ele>1067</ele>
        <time>2019-03-27T15:05:09Z</time>
      </trkpt>
      <trkpt lat="44.18228" lon="5.51021">
        <ele>1067</ele>
        <time>2019-03-27T15:05:10Z</time>
      </trkpt>
      <trkpt lat="44.18229" lon="5.51019">
        <ele>1067</ele>
        <time>2019-03-27T15:05:11Z</time>
      </trkpt>
      <trkpt lat="44.1823" lon="5.51018">
        <ele>1068</ele>
        <time>2019-03-27T15:05:12Z</time>
      </trkpt>
      <trkpt lat="44.18228" lon="5.51018">
        <ele>1072</ele>
        <time>2019-03-27T15:05:18Z</time>
      </trkpt>
      <trkpt lat="44.18227" lon="5.51018">
        <ele>1072</ele>
        <time>2019-03-27T15:05:22Z</time>
      </trkpt>
      <trkpt lat="44.18228" lon="5.51016">
        <ele>1066</ele>
        <time>2019-03-27T15:06:01Z</time>
      </trkpt>
      <trkpt lat="44.18228" lon="5.51015">
        <ele>1066</ele>
        <time>2019-03-27T15:06:04Z</time>
      </trkpt>
      <trkpt lat="44.18228" lon="5.51013">
        <ele>1066</ele>
        <time>2019-03-27T15:06:12Z</time>
      </trkpt>
      <trkpt lat="44.18228" lon="5.51012">
        <ele>1067</ele>
        <time>2019-03-27T15:06:17Z</time>
      </trkpt>
      <trkpt lat="44.18229" lon="5.5101">
        <ele>1069</ele>
        <time>2019-03-27T15:06:33Z</time>
      </trkpt>
      <trkpt lat="44.18228" lon="5.51009">
        <ele>1069</ele>
        <time>2019-03-27T15:06:54Z</time>
      </trkpt>
      <trkpt lat="44.18229" lon="5.51005">
        <ele>1069</ele>
        <time>2019-03-27T15:06:56Z</time>
      </trkpt>
      <trkpt lat="44.1823" lon="5.51003">
        <ele>1069</ele>
        <time>2019-03-27T15:06:57Z</time>
      </trkpt>
      <trkpt lat="44.18232" lon="5.51">
        <ele>1069</ele>
        <time>2019-03-27T15:06:58Z</time>
      </trkpt>
      <trkpt lat="44.18234" lon="5.50998">
        <ele>1069</ele>
        <time>2019-03-27T15:06:59Z</time>
      </trkpt>
      <trkpt lat="44.18236" lon="5.50995">
        <ele>1069</ele>
        <time>2019-03-27T15:07:00Z</time>
      </trkpt>
      <trkpt lat="44.18238" lon="5.50991">
        <ele>1069</ele>
        <time>2019-03-27T15:07:01Z</time>
      </trkpt>
      <trkpt lat="44.1824" lon="5.50987">
        <ele>1069</ele>
        <time>2019-03-27T15:07:02Z</time>
      </trkpt>
      <trkpt lat="44.18242" lon="5.50982">
        <ele>1069</ele>
        <time>2019-03-27T15:07:03Z</time>
      </trkpt>
      <trkpt lat="44.18245" lon="5.50978">
        <ele>1069</ele>
        <time>2019-03-27T15:07:04Z</time>
      </trkpt>
      <trkpt lat="44.18248" lon="5.50972">
        <ele>1069</ele>
        <time>2019-03-27T15:07:05Z</time>
      </trkpt>
      <trkpt lat="44.18251" lon="5.50966">
        <ele>1069</ele>
        <time>2019-03-27T15:07:06Z</time>
      </trkpt>
      <trkpt lat="44.18254" lon="5.5096">
        <ele>1069</ele>
        <time>2019-03-27T15:07:07Z</time>
      </trkpt>
      <trkpt lat="44.18258" lon="5.50953">
        <ele>1069</ele>
        <time>2019-03-27T15:07:08Z</time>
      </trkpt>
      <trkpt lat="44.18262" lon="5.50947">
        <ele>1068</ele>
        <time>2019-03-27T15:07:09Z</time>
      </trkpt>
      <trkpt lat="44.18266" lon="5.50941">
        <ele>1068</ele>
        <time>2019-03-27T15:07:10Z</time>
      </trkpt>
      <trkpt lat="44.1827" lon="5.50933">
        <ele>1068</ele>
        <time>2019-03-27T15:07:11Z</time>
      </trkpt>
      <trkpt lat="44.18274" lon="5.50927">
        <ele>1067</ele>
        <time>2019-03-27T15:07:12Z</time>
      </trkpt>
      <trkpt lat="44.18278" lon="5.5092">
        <ele>1067</ele>
        <time>2019-03-27T15:07:13Z</time>
      </trkpt>
      <trkpt lat="44.18283" lon="5.50914">
        <ele>1066</ele>
        <time>2019-03-27T15:07:14Z</time>
      </trkpt>
      <trkpt lat="44.18287" lon="5.50908">
        <ele>1066</ele>
        <time>2019-03-27T15:07:15Z</time>
      </trkpt>
      <trkpt lat="44.18292" lon="5.50901">
        <ele>1065</ele>
        <time>2019-03-27T15:07:16Z</time>
      </trkpt>
      <trkpt lat="44.18297" lon="5.50896">
        <ele>1065</ele>
        <time>2019-03-27T15:07:17Z</time>
      </trkpt>
      <trkpt lat="44.18303" lon="5.50891">
        <ele>1065</ele>
        <time>2019-03-27T15:07:18Z</time>
      </trkpt>
      <trkpt lat="44.18309" lon="5.50887">
        <ele>1064</ele>
        <time>2019-03-27T15:07:19Z</time>
      </trkpt>
      <trkpt lat="44.18314" lon="5.50883">
        <ele>1064</ele>
        <time>2019-03-27T15:07:20Z</time>
      </trkpt>
      <trkpt lat="44.1832" lon="5.5088">
        <ele>1064</ele>
        <time>2019-03-27T15:07:21Z</time>
      </trkpt>
      <trkpt lat="44.18327" lon="5.50877">
        <ele>1063</ele>
        <time>2019-03-27T15:07:22Z</time>
      </trkpt>
      <trkpt lat="44.18333" lon="5.50873">
        <ele>1063</ele>
        <time>2019-03-27T15:07:23Z</time>
      </trkpt>
      <trkpt lat="44.1834" lon="5.5087">
        <ele>1062</ele>
        <time>2019-03-27T15:07:24Z</time>
      </trkpt>
      <trkpt lat="44.18347" lon="5.50866">
        <ele>1062</ele>
        <time>2019-03-27T15:07:25Z</time>
      </trkpt>
      <trkpt lat="44.18354" lon="5.50862">
        <ele>1062</ele>
        <time>2019-03-27T15:07:26Z</time>
      </trkpt>
      <trkpt lat="44.18361" lon="5.50857">
        <ele>1061</ele>
        <time>2019-03-27T15:07:27Z</time>
      </trkpt>
      <trkpt lat="44.18367" lon="5.50851">
        <ele>1061</ele>
        <time>2019-03-27T15:07:28Z</time>
      </trkpt>
      <trkpt lat="44.18373" lon="5.50845">
        <ele>1060</ele>
        <time>2019-03-27T15:07:29Z</time>
      </trkpt>
      <trkpt lat="44.18379" lon="5.50839">
        <ele>1060</ele>
        <time>2019-03-27T15:07:30Z</time>
      </trkpt>
      <trkpt lat="44.18385" lon="5.50832">
        <ele>1059</ele>
        <time>2019-03-27T15:07:31Z</time>
      </trkpt>
      <trkpt lat="44.1839" lon="5.50824">
        <ele>1059</ele>
        <time>2019-03-27T15:07:32Z</time>
      </trkpt>
      <trkpt lat="44.18394" lon="5.50816">
        <ele>1058</ele>
        <time>2019-03-27T15:07:33Z</time>
      </trkpt>
      <trkpt lat="44.18399" lon="5.50808">
        <ele>1058</ele>
        <time>2019-03-27T15:07:34Z</time>
      </trkpt>
      <trkpt lat="44.18404" lon="5.508">
        <ele>1057</ele>
        <time>2019-03-27T15:07:35Z</time>
      </trkpt>
      <trkpt lat="44.18408" lon="5.50791">
        <ele>1057</ele>
        <time>2019-03-27T15:07:36Z</time>
      </trkpt>
      <trkpt lat="44.18412" lon="5.50782">
        <ele>1056</ele>
        <time>2019-03-27T15:07:37Z</time>
      </trkpt>
      <trkpt lat="44.18417" lon="5.50773">
        <ele>1055</ele>
        <time>2019-03-27T15:07:38Z</time>
      </trkpt>
      <trkpt lat="44.18423" lon="5.50765">
        <ele>1055</ele>
        <time>2019-03-27T15:07:39Z</time>
      </trkpt>
      <trkpt lat="44.18429" lon="5.50757">
        <ele>1054</ele>
        <time>2019-03-27T15:07:40Z</time>
      </trkpt>
      <trkpt lat="44.18436" lon="5.50751">
        <ele>1054</ele>
        <time>2019-03-27T15:07:41Z</time>
      </trkpt>
      <trkpt lat="44.18444" lon="5.50748">
        <ele>1053</ele>
        <time>2019-03-27T15:07:42Z</time>
      </trkpt>
      <trkpt lat="44.18452" lon="5.50747">
        <ele>1053</ele>
        <time>2019-03-27T15:07:43Z</time>
      </trkpt>
      <trkpt lat="44.18459" lon="5.5075">
        <ele>1053</ele>
        <time>2019-03-27T15:07:44Z</time>
      </trkpt>
      <trkpt lat="44.18467" lon="5.50754">
        <ele>1052</ele>
        <time>2019-03-27T15:07:45Z</time>
      </trkpt>
      <trkpt lat="44.18473" lon="5.50759">
        <ele>1052</ele>
        <time>2019-03-27T15:07:46Z</time>
      </trkpt>
      <trkpt lat="44.1848" lon="5.50766">
        <ele>1051</ele>
        <time>2019-03-27T15:07:47Z</time>
      </trkpt>
      <trkpt lat="44.18486" lon="5.50773">
        <ele>1051</ele>
        <time>2019-03-27T15:07:48Z</time>
      </trkpt>
      <trkpt lat="44.18492" lon="5.50782">
        <ele>1050</ele>
        <time>2019-03-27T15:07:49Z</time>
      </trkpt>
      <trkpt lat="44.18498" lon="5.50792">
        <ele>1050</ele>
        <time>2019-03-27T15:07:50Z</time>
      </trkpt>
      <trkpt lat="44.18503" lon="5.50802">
        <ele>1049</ele>
        <time>2019-03-27T15:07:51Z</time>
      </trkpt>
      <trkpt lat="44.18508" lon="5.50813">
        <ele>1048</ele>
        <time>2019-03-27T15:07:52Z</time>
      </trkpt>
      <trkpt lat="44.18513" lon="5.50825">
        <ele>1048</ele>
        <time>2019-03-27T15:07:53Z</time>
      </trkpt>
      <trkpt lat="44.18518" lon="5.50837">
        <ele>1047</ele>
        <time>2019-03-27T15:07:54Z</time>
      </trkpt>
      <trkpt lat="44.18523" lon="5.50849">
        <ele>1046</ele>
        <time>2019-03-27T15:07:55Z</time>
      </trkpt>
      <trkpt lat="44.18527" lon="5.50861">
        <ele>1046</ele>
        <time>2019-03-27T15:07:56Z</time>
      </trkpt>
      <trkpt lat="44.18532" lon="5.50873">
        <ele>1045</ele>
        <time>2019-03-27T15:07:57Z</time>
      </trkpt>
      <trkpt lat="44.18538" lon="5.50884">
        <ele>1045</ele>
        <time>2019-03-27T15:07:58Z</time>
      </trkpt>
      <trkpt lat="44.18544" lon="5.50893">
        <ele>1044</ele>
        <time>2019-03-27T15:07:59Z</time>
      </trkpt>
      <trkpt lat="44.1855" lon="5.50902">
        <ele>1044</ele>
        <time>2019-03-27T15:08:00Z</time>
      </trkpt>
      <trkpt lat="44.18556" lon="5.50911">
        <ele>1043</ele>
        <time>2019-03-27T15:08:01Z</time>
      </trkpt>
      <trkpt lat="44.18562" lon="5.50918">
        <ele>1042</ele>
        <time>2019-03-27T15:08:02Z</time>
      </trkpt>
      <trkpt lat="44.18567" lon="5.50927">
        <ele>1042</ele>
        <time>2019-03-27T15:08:03Z</time>
      </trkpt>
      <trkpt lat="44.18572" lon="5.50935">
        <ele>1041</ele>
        <time>2019-03-27T15:08:04Z</time>
      </trkpt>
      <trkpt lat="44.18577" lon="5.50943">
        <ele>1041</ele>
        <time>2019-03-27T15:08:05Z</time>
      </trkpt>
      <trkpt lat="44.18582" lon="5.50951">
        <ele>1040</ele>
        <time>2019-03-27T15:08:06Z</time>
      </trkpt>
      <trkpt lat="44.18587" lon="5.5096">
        <ele>1040</ele>
        <time>2019-03-27T15:08:07Z</time>
      </trkpt>
      <trkpt lat="44.18592" lon="5.50969">
        <ele>1039</ele>
        <time>2019-03-27T15:08:08Z</time>
      </trkpt>
      <trkpt lat="44.18597" lon="5.50978">
        <ele>1039</ele>
        <time>2019-03-27T15:08:09Z</time>
      </trkpt>
      <trkpt lat="44.18601" lon="5.50988">
        <ele>1038</ele>
        <time>2019-03-27T15:08:10Z</time>
      </trkpt>
      <trkpt lat="44.18605" lon="5.50998">
        <ele>1037</ele>
        <time>2019-03-27T15:08:11Z</time>
      </trkpt>
      <trkpt lat="44.18607" lon="5.51009">
        <ele>1036</ele>
        <time>2019-03-27T15:08:12Z</time>
      </trkpt>
      <trkpt lat="44.18607" lon="5.5102">
        <ele>1036</ele>
        <time>2019-03-27T15:08:13Z</time>
      </trkpt>
      <trkpt lat="44.18606" lon="5.51031">
        <ele>1035</ele>
        <time>2019-03-27T15:08:14Z</time>
      </trkpt>
      <trkpt lat="44.18602" lon="5.51042">
        <ele>1034</ele>
        <time>2019-03-27T15:08:15Z</time>
      </trkpt>
      <trkpt lat="44.18597" lon="5.51053">
        <ele>1033</ele>
        <time>2019-03-27T15:08:16Z</time>
      </trkpt>
      <trkpt lat="44.18592" lon="5.51064">
        <ele>1032</ele>
        <time>2019-03-27T15:08:17Z</time>
      </trkpt>
      <trkpt lat="44.18587" lon="5.51075">
        <ele>1031</ele>
        <time>2019-03-27T15:08:18Z</time>
      </trkpt>
      <trkpt lat="44.18584" lon="5.51087">
        <ele>1031</ele>
        <time>2019-03-27T15:08:19Z</time>
      </trkpt>
      <trkpt lat="44.18581" lon="5.51098">
        <ele>1030</ele>
        <time>2019-03-27T15:08:20Z</time>
      </trkpt>
      <trkpt lat="44.18581" lon="5.5111">
        <ele>1029</ele>
        <time>2019-03-27T15:08:21Z</time>
      </trkpt>
      <trkpt lat="44.18583" lon="5.51121">
        <ele>1029</ele>
        <time>2019-03-27T15:08:22Z</time>
      </trkpt>
      <trkpt lat="44.18587" lon="5.51131">
        <ele>1028</ele>
        <time>2019-03-27T15:08:23Z</time>
      </trkpt>
      <trkpt lat="44.18592" lon="5.5114">
        <ele>1028</ele>
        <time>2019-03-27T15:08:24Z</time>
      </trkpt>
      <trkpt lat="44.18597" lon="5.51151">
        <ele>1027</ele>
        <time>2019-03-27T15:08:25Z</time>
      </trkpt>
      <trkpt lat="44.186" lon="5.51161">
        <ele>1027</ele>
        <time>2019-03-27T15:08:26Z</time>
      </trkpt>
      <trkpt lat="44.18602" lon="5.51173">
        <ele>1026</ele>
        <time>2019-03-27T15:08:27Z</time>
      </trkpt>
      <trkpt lat="44.18603" lon="5.51186">
        <ele>1025</ele>
        <time>2019-03-27T15:08:28Z</time>
      </trkpt>
      <trkpt lat="44.18603" lon="5.51198">
        <ele>1025</ele>
        <time>2019-03-27T15:08:29Z</time>
      </trkpt>
      <trkpt lat="44.18601" lon="5.51211">
        <ele>1024</ele>
        <time>2019-03-27T15:08:30Z</time>
      </trkpt>
      <trkpt lat="44.18599" lon="5.51224">
        <ele>1023</ele>
        <time>2019-03-27T15:08:31Z</time>
      </trkpt>
      <trkpt lat="44.18597" lon="5.51236">
        <ele>1022</ele>
        <time>2019-03-27T15:08:32Z</time>
      </trkpt>
      <trkpt lat="44.18593" lon="5.51248">
        <ele>1022</ele>
        <time>2019-03-27T15:08:33Z</time>
      </trkpt>
      <trkpt lat="44.1859" lon="5.5126">
        <ele>1021</ele>
        <time>2019-03-27T15:08:34Z</time>
      </trkpt>
      <trkpt lat="44.18586" lon="5.51271">
        <ele>1021</ele>
        <time>2019-03-27T15:08:35Z</time>
      </trkpt>
      <trkpt lat="44.18581" lon="5.51283">
        <ele>1020</ele>
        <time>2019-03-27T15:08:36Z</time>
      </trkpt>
      <trkpt lat="44.18577" lon="5.51294">
        <ele>1020</ele>
        <time>2019-03-27T15:08:37Z</time>
      </trkpt>
      <trkpt lat="44.18573" lon="5.51305">
        <ele>1019</ele>
        <time>2019-03-27T15:08:38Z</time>
      </trkpt>
      <trkpt lat="44.18568" lon="5.51317">
        <ele>1019</ele>
        <time>2019-03-27T15:08:39Z</time>
      </trkpt>
      <trkpt lat="44.18564" lon="5.51329">
        <ele>1018</ele>
        <time>2019-03-27T15:08:40Z</time>
      </trkpt>
      <trkpt lat="44.18561" lon="5.5134">
        <ele>1018</ele>
        <time>2019-03-27T15:08:41Z</time>
      </trkpt>
      <trkpt lat="44.18557" lon="5.51352">
        <ele>1018</ele>
        <time>2019-03-27T15:08:42Z</time>
      </trkpt>
      <trkpt lat="44.18553" lon="5.51364">
        <ele>1017</ele>
        <time>2019-03-27T15:08:43Z</time>
      </trkpt>
      <trkpt lat="44.1855" lon="5.51375">
        <ele>1017</ele>
        <time>2019-03-27T15:08:44Z</time>
      </trkpt>
      <trkpt lat="44.18546" lon="5.51385">
        <ele>1016</ele>
        <time>2019-03-27T15:08:45Z</time>
      </trkpt>
      <trkpt lat="44.18542" lon="5.51396">
        <ele>1016</ele>
        <time>2019-03-27T15:08:46Z</time>
      </trkpt>
      <trkpt lat="44.18538" lon="5.51406">
        <ele>1015</ele>
        <time>2019-03-27T15:08:47Z</time>
      </trkpt>
      <trkpt lat="44.18534" lon="5.51416">
        <ele>1015</ele>
        <time>2019-03-27T15:08:48Z</time>
      </trkpt>
      <trkpt lat="44.1853" lon="5.51427">
        <ele>1014</ele>
        <time>2019-03-27T15:08:49Z</time>
      </trkpt>
      <trkpt lat="44.18526" lon="5.51438">
        <ele>1014</ele>
        <time>2019-03-27T15:08:50Z</time>
      </trkpt>
      <trkpt lat="44.18523" lon="5.5145">
        <ele>1013</ele>
        <time>2019-03-27T15:08:51Z</time>
      </trkpt>
      <trkpt lat="44.1852" lon="5.51461">
        <ele>1013</ele>
        <time>2019-03-27T15:08:52Z</time>
      </trkpt>
      <trkpt lat="44.18517" lon="5.51472">
        <ele>1012</ele>
        <time>2019-03-27T15:08:53Z</time>
      </trkpt>
      <trkpt lat="44.18514" lon="5.51483">
        <ele>1012</ele>
        <time>2019-03-27T15:08:54Z</time>
      </trkpt>
      <trkpt lat="44.18512" lon="5.51494">
        <ele>1011</ele>
        <time>2019-03-27T15:08:55Z</time>
      </trkpt>
      <trkpt lat="44.1851" lon="5.51504">
        <ele>1011</ele>
        <time>2019-03-27T15:08:56Z</time>
      </trkpt>
      <trkpt lat="44.18507" lon="5.51513">
        <ele>1011</ele>
        <time>2019-03-27T15:08:57Z</time>
      </trkpt>
      <trkpt lat="44.18505" lon="5.51521">
        <ele>1010</ele>
        <time>2019-03-27T15:08:58Z</time>
      </trkpt>
      <trkpt lat="44.18501" lon="5.51528">
        <ele>1010</ele>
        <time>2019-03-27T15:08:59Z</time>
      </trkpt>
      <trkpt lat="44.18497" lon="5.51533">
        <ele>1010</ele>
        <time>2019-03-27T15:09:00Z</time>
      </trkpt>
      <trkpt lat="44.18492" lon="5.51534">
        <ele>1010</ele>
        <time>2019-03-27T15:09:01Z</time>
      </trkpt>
      <trkpt lat="44.18489" lon="5.51529">
        <ele>1009</ele>
        <time>2019-03-27T15:09:02Z</time>
      </trkpt>
      <trkpt lat="44.18488" lon="5.51523">
        <ele>1009</ele>
        <time>2019-03-27T15:09:03Z</time>
      </trkpt>
      <trkpt lat="44.1849" lon="5.51516">
        <ele>1009</ele>
        <time>2019-03-27T15:09:04Z</time>
      </trkpt>
      <trkpt lat="44.18492" lon="5.51509">
        <ele>1009</ele>
        <time>2019-03-27T15:09:05Z</time>
      </trkpt>
      <trkpt lat="44.18494" lon="5.51502">
        <ele>1009</ele>
        <time>2019-03-27T15:09:06Z</time>
      </trkpt>
      <trkpt lat="44.18497" lon="5.51494">
        <ele>1009</ele>
        <time>2019-03-27T15:09:07Z</time>
      </trkpt>
      <trkpt lat="44.18499" lon="5.51486">
        <ele>1009</ele>
        <time>2019-03-27T15:09:08Z</time>
      </trkpt>
      <trkpt lat="44.18501" lon="5.51478">
        <ele>1009</ele>
        <time>2019-03-27T15:09:09Z</time>
      </trkpt>
      <trkpt lat="44.18503" lon="5.51469">
        <ele>1008</ele>
        <time>2019-03-27T15:09:10Z</time>
      </trkpt>
      <trkpt lat="44.18504" lon="5.5146">
        <ele>1008</ele>
        <time>2019-03-27T15:09:11Z</time>
      </trkpt>
      <trkpt lat="44.18504" lon="5.5145">
        <ele>1008</ele>
        <time>2019-03-27T15:09:12Z</time>
      </trkpt>
      <trkpt lat="44.18505" lon="5.5144">
        <ele>1008</ele>
        <time>2019-03-27T15:09:13Z</time>
      </trkpt>
      <trkpt lat="44.18506" lon="5.51431">
        <ele>1007</ele>
        <time>2019-03-27T15:09:14Z</time>
      </trkpt>
      <trkpt lat="44.18507" lon="5.5142">
        <ele>1007</ele>
        <time>2019-03-27T15:09:15Z</time>
      </trkpt>
      <trkpt lat="44.18509" lon="5.5141">
        <ele>1006</ele>
        <time>2019-03-27T15:09:16Z</time>
      </trkpt>
      <trkpt lat="44.1851" lon="5.51401">
        <ele>1006</ele>
        <time>2019-03-27T15:09:17Z</time>
      </trkpt>
      <trkpt lat="44.18512" lon="5.5139">
        <ele>1005</ele>
        <time>2019-03-27T15:09:18Z</time>
      </trkpt>
      <trkpt lat="44.18514" lon="5.5138">
        <ele>1005</ele>
        <time>2019-03-27T15:09:19Z</time>
      </trkpt>
      <trkpt lat="44.18515" lon="5.51369">
        <ele>1004</ele>
        <time>2019-03-27T15:09:20Z</time>
      </trkpt>
      <trkpt lat="44.18516" lon="5.51358">
        <ele>1004</ele>
        <time>2019-03-27T15:09:21Z</time>
      </trkpt>
      <trkpt lat="44.18515" lon="5.51347">
        <ele>1003</ele>
        <time>2019-03-27T15:09:22Z</time>
      </trkpt>
      <trkpt lat="44.18513" lon="5.51336">
        <ele>1003</ele>
        <time>2019-03-27T15:09:23Z</time>
      </trkpt>
      <trkpt lat="44.1851" lon="5.51325">
        <ele>1002</ele>
        <time>2019-03-27T15:09:24Z</time>
      </trkpt>
      <trkpt lat="44.18507" lon="5.51314">
        <ele>1002</ele>
        <time>2019-03-27T15:09:25Z</time>
      </trkpt>
      <trkpt lat="44.18503" lon="5.51304">
        <ele>1001</ele>
        <time>2019-03-27T15:09:26Z</time>
      </trkpt>
      <trkpt lat="44.185" lon="5.51293">
        <ele>1001</ele>
        <time>2019-03-27T15:09:27Z</time>
      </trkpt>
      <trkpt lat="44.18496" lon="5.51283">
        <ele>1000</ele>
        <time>2019-03-27T15:09:28Z</time>
      </trkpt>
      <trkpt lat="44.18493" lon="5.51275">
        <ele>999</ele>
        <time>2019-03-27T15:09:29Z</time>
      </trkpt>
      <trkpt lat="44.18487" lon="5.5127">
        <ele>999</ele>
        <time>2019-03-27T15:09:30Z</time>
      </trkpt>
      <trkpt lat="44.18481" lon="5.5127">
        <ele>999</ele>
        <time>2019-03-27T15:09:31Z</time>
      </trkpt>
      <trkpt lat="44.18476" lon="5.51275">
        <ele>998</ele>
        <time>2019-03-27T15:09:32Z</time>
      </trkpt>
      <trkpt lat="44.18473" lon="5.51282">
        <ele>998</ele>
        <time>2019-03-27T15:09:33Z</time>
      </trkpt>
      <trkpt lat="44.18471" lon="5.51291">
        <ele>998</ele>
        <time>2019-03-27T15:09:34Z</time>
      </trkpt>
      <trkpt lat="44.1847" lon="5.51301">
        <ele>998</ele>
        <time>2019-03-27T15:09:35Z</time>
      </trkpt>
      <trkpt lat="44.18468" lon="5.51311">
        <ele>997</ele>
        <time>2019-03-27T15:09:36Z</time>
      </trkpt>
      <trkpt lat="44.18466" lon="5.51322">
        <ele>997</ele>
        <time>2019-03-27T15:09:37Z</time>
      </trkpt>
      <trkpt lat="44.18464" lon="5.51333">
        <ele>996</ele>
        <time>2019-03-27T15:09:38Z</time>
      </trkpt>
      <trkpt lat="44.18462" lon="5.51344">
        <ele>996</ele>
        <time>2019-03-27T15:09:39Z</time>
      </trkpt>
      <trkpt lat="44.1846" lon="5.51356">
        <ele>995</ele>
        <time>2019-03-27T15:09:40Z</time>
      </trkpt>
      <trkpt lat="44.18458" lon="5.51368">
        <ele>995</ele>
        <time>2019-03-27T15:09:41Z</time>
      </trkpt>
      <trkpt lat="44.18455" lon="5.51381">
        <ele>994</ele>
        <time>2019-03-27T15:09:42Z</time>
      </trkpt>
      <trkpt lat="44.1845" lon="5.51393">
        <ele>994</ele>
        <time>2019-03-27T15:09:43Z</time>
      </trkpt>
      <trkpt lat="44.18445" lon="5.51404">
        <ele>993</ele>
        <time>2019-03-27T15:09:44Z</time>
      </trkpt>
      <trkpt lat="44.18438" lon="5.51414">
        <ele>993</ele>
        <time>2019-03-27T15:09:45Z</time>
      </trkpt>
      <trkpt lat="44.18431" lon="5.51424">
        <ele>992</ele>
        <time>2019-03-27T15:09:46Z</time>
      </trkpt>
      <trkpt lat="44.18424" lon="5.51434">
        <ele>992</ele>
        <time>2019-03-27T15:09:47Z</time>
      </trkpt>
      <trkpt lat="44.18417" lon="5.51444">
        <ele>991</ele>
        <time>2019-03-27T15:09:48Z</time>
      </trkpt>
      <trkpt lat="44.1841" lon="5.51454">
        <ele>990</ele>
        <time>2019-03-27T15:09:49Z</time>
      </trkpt>
      <trkpt lat="44.18404" lon="5.51465">
        <ele>990</ele>
        <time>2019-03-27T15:09:50Z</time>
      </trkpt>
      <trkpt lat="44.18398" lon="5.51477">
        <ele>989</ele>
        <time>2019-03-27T15:09:51Z</time>
      </trkpt>
      <trkpt lat="44.18393" lon="5.51489">
        <ele>988</ele>
        <time>2019-03-27T15:09:52Z</time>
      </trkpt>
      <trkpt lat="44.18389" lon="5.51501">
        <ele>987</ele>
        <time>2019-03-27T15:09:53Z</time>
      </trkpt>
      <trkpt lat="44.18385" lon="5.51513">
        <ele>987</ele>
        <time>2019-03-27T15:09:54Z</time>
      </trkpt>
      <trkpt lat="44.18383" lon="5.51525">
        <ele>986</ele>
        <time>2019-03-27T15:09:55Z</time>
      </trkpt>
      <trkpt lat="44.1838" lon="5.51538">
        <ele>986</ele>
        <time>2019-03-27T15:09:56Z</time>
      </trkpt>
      <trkpt lat="44.18378" lon="5.51551">
        <ele>985</ele>
        <time>2019-03-27T15:09:57Z</time>
      </trkpt>
      <trkpt lat="44.18377" lon="5.51564">
        <ele>985</ele>
        <time>2019-03-27T15:09:58Z</time>
      </trkpt>
      <trkpt lat="44.18376" lon="5.51577">
        <ele>985</ele>
        <time>2019-03-27T15:09:59Z</time>
      </trkpt>
      <trkpt lat="44.18375" lon="5.51591">
        <ele>984</ele>
        <time>2019-03-27T15:10:00Z</time>
      </trkpt>
      <trkpt lat="44.18374" lon="5.51604">
        <ele>984</ele>
        <time>2019-03-27T15:10:01Z</time>
      </trkpt>
      <trkpt lat="44.18373" lon="5.51617">
        <ele>983</ele>
        <time>2019-03-27T15:10:02Z</time>
      </trkpt>
      <trkpt lat="44.18372" lon="5.51631">
        <ele>982</ele>
        <time>2019-03-27T15:10:03Z</time>
      </trkpt>
      <trkpt lat="44.18371" lon="5.51644">
        <ele>982</ele>
        <time>2019-03-27T15:10:04Z</time>
      </trkpt>
      <trkpt lat="44.1837" lon="5.51657">
        <ele>981</ele>
        <time>2019-03-27T15:10:05Z</time>
      </trkpt>
      <trkpt lat="44.18369" lon="5.51671">
        <ele>980</ele>
        <time>2019-03-27T15:10:06Z</time>
      </trkpt>
      <trkpt lat="44.18366" lon="5.51684">
        <ele>979</ele>
        <time>2019-03-27T15:10:07Z</time>
      </trkpt>
      <trkpt lat="44.18364" lon="5.51696">
        <ele>979</ele>
        <time>2019-03-27T15:10:08Z</time>
      </trkpt>
      <trkpt lat="44.18361" lon="5.51709">
        <ele>978</ele>
        <time>2019-03-27T15:10:09Z</time>
      </trkpt>
      <trkpt lat="44.18356" lon="5.51722">
        <ele>978</ele>
        <time>2019-03-27T15:10:10Z</time>
      </trkpt>
      <trkpt lat="44.18352" lon="5.51734">
        <ele>977</ele>
        <time>2019-03-27T15:10:11Z</time>
      </trkpt>
      <trkpt lat="44.18346" lon="5.51745">
        <ele>977</ele>
        <time>2019-03-27T15:10:12Z</time>
      </trkpt>
      <trkpt lat="44.18341" lon="5.51755">
        <ele>976</ele>
        <time>2019-03-27T15:10:13Z</time>
      </trkpt>
      <trkpt lat="44.18334" lon="5.51764">
        <ele>976</ele>
        <time>2019-03-27T15:10:14Z</time>
      </trkpt>
      <trkpt lat="44.18327" lon="5.51773">
        <ele>975</ele>
        <time>2019-03-27T15:10:15Z</time>
      </trkpt>
      <trkpt lat="44.1832" lon="5.51781">
        <ele>974</ele>
        <time>2019-03-27T15:10:16Z</time>
      </trkpt>
      <trkpt lat="44.18313" lon="5.51789">
        <ele>974</ele>
        <time>2019-03-27T15:10:17Z</time>
      </trkpt>
      <trkpt lat="44.18306" lon="5.51797">
        <ele>973</ele>
        <time>2019-03-27T15:10:18Z</time>
      </trkpt>
      <trkpt lat="44.18299" lon="5.51806">
        <ele>973</ele>
        <time>2019-03-27T15:10:19Z</time>
      </trkpt>
      <trkpt lat="44.18292" lon="5.51815">
        <ele>972</ele>
        <time>2019-03-27T15:10:20Z</time>
      </trkpt>
      <trkpt lat="44.18287" lon="5.51825">
        <ele>972</ele>
        <time>2019-03-27T15:10:21Z</time>
      </trkpt>
      <trkpt lat="44.18283" lon="5.51835">
        <ele>972</ele>
        <time>2019-03-27T15:10:22Z</time>
      </trkpt>
      <trkpt lat="44.18281" lon="5.51845">
        <ele>971</ele>
        <time>2019-03-27T15:10:23Z</time>
      </trkpt>
      <trkpt lat="44.18281" lon="5.51856">
        <ele>971</ele>
        <time>2019-03-27T15:10:24Z</time>
      </trkpt>
      <trkpt lat="44.18282" lon="5.51867">
        <ele>971</ele>
        <time>2019-03-27T15:10:25Z</time>
      </trkpt>
      <trkpt lat="44.18284" lon="5.51878">
        <ele>970</ele>
        <time>2019-03-27T15:10:26Z</time>
      </trkpt>
      <trkpt lat="44.18287" lon="5.51888">
        <ele>970</ele>
        <time>2019-03-27T15:10:27Z</time>
      </trkpt>
      <trkpt lat="44.1829" lon="5.51898">
        <ele>969</ele>
        <time>2019-03-27T15:10:28Z</time>
      </trkpt>
      <trkpt lat="44.18295" lon="5.51907">
        <ele>969</ele>
        <time>2019-03-27T15:10:29Z</time>
      </trkpt>
      <trkpt lat="44.18299" lon="5.51916">
        <ele>968</ele>
        <time>2019-03-27T15:10:30Z</time>
      </trkpt>
      <trkpt lat="44.18305" lon="5.51925">
        <ele>968</ele>
        <time>2019-03-27T15:10:31Z</time>
      </trkpt>
      <trkpt lat="44.18311" lon="5.51934">
        <ele>967</ele>
        <time>2019-03-27T15:10:32Z</time>
      </trkpt>
      <trkpt lat="44.18316" lon="5.51943">
        <ele>967</ele>
        <time>2019-03-27T15:10:33Z</time>
      </trkpt>
      <trkpt lat="44.18322" lon="5.51953">
        <ele>967</ele>
        <time>2019-03-27T15:10:34Z</time>
      </trkpt>
      <trkpt lat="44.18327" lon="5.51964">
        <ele>966</ele>
        <time>2019-03-27T15:10:35Z</time>
      </trkpt>
      <trkpt lat="44.18332" lon="5.51975">
        <ele>966</ele>
        <time>2019-03-27T15:10:36Z</time>
      </trkpt>
      <trkpt lat="44.18336" lon="5.51987">
        <ele>965</ele>
        <time>2019-03-27T15:10:37Z</time>
      </trkpt>
      <trkpt lat="44.1834" lon="5.51999">
        <ele>965</ele>
        <time>2019-03-27T15:10:38Z</time>
      </trkpt>
      <trkpt lat="44.18344" lon="5.52012">
        <ele>964</ele>
        <time>2019-03-27T15:10:39Z</time>
      </trkpt>
      <trkpt lat="44.18347" lon="5.52026">
        <ele>964</ele>
        <time>2019-03-27T15:10:40Z</time>
      </trkpt>
      <trkpt lat="44.18351" lon="5.52039">
        <ele>963</ele>
        <time>2019-03-27T15:10:41Z</time>
      </trkpt>
      <trkpt lat="44.18354" lon="5.52052">
        <ele>963</ele>
        <time>2019-03-27T15:10:42Z</time>
      </trkpt>
      <trkpt lat="44.18357" lon="5.52065">
        <ele>962</ele>
        <time>2019-03-27T15:10:43Z</time>
      </trkpt>
      <trkpt lat="44.18359" lon="5.52077">
        <ele>962</ele>
        <time>2019-03-27T15:10:44Z</time>
      </trkpt>
      <trkpt lat="44.18359" lon="5.5209">
        <ele>961</ele>
        <time>2019-03-27T15:10:45Z</time>
      </trkpt>
      <trkpt lat="44.18358" lon="5.52103">
        <ele>960</ele>
        <time>2019-03-27T15:10:46Z</time>
      </trkpt>
      <trkpt lat="44.18355" lon="5.52115">
        <ele>960</ele>
        <time>2019-03-27T15:10:47Z</time>
      </trkpt>
      <trkpt lat="44.18351" lon="5.52127">
        <ele>960</ele>
        <time>2019-03-27T15:10:48Z</time>
      </trkpt>
      <trkpt lat="44.18346" lon="5.52138">
        <ele>959</ele>
        <time>2019-03-27T15:10:49Z</time>
      </trkpt>
      <trkpt lat="44.1834" lon="5.52149">
        <ele>959</ele>
        <time>2019-03-27T15:10:50Z</time>
      </trkpt>
      <trkpt lat="44.18334" lon="5.52159">
        <ele>959</ele>
        <time>2019-03-27T15:10:51Z</time>
      </trkpt>
      <trkpt lat="44.18329" lon="5.52169">
        <ele>958</ele>
        <time>2019-03-27T15:10:52Z</time>
      </trkpt>
      <trkpt lat="44.18324" lon="5.5218">
        <ele>958</ele>
        <time>2019-03-27T15:10:53Z</time>
      </trkpt>
      <trkpt lat="44.18318" lon="5.52191">
        <ele>957</ele>
        <time>2019-03-27T15:10:54Z</time>
      </trkpt>
      <trkpt lat="44.18312" lon="5.52202">
        <ele>957</ele>
        <time>2019-03-27T15:10:55Z</time>
      </trkpt>
      <trkpt lat="44.18307" lon="5.52214">
        <ele>956</ele>
        <time>2019-03-27T15:10:56Z</time>
      </trkpt>
      <trkpt lat="44.18301" lon="5.52225">
        <ele>955</ele>
        <time>2019-03-27T15:10:57Z</time>
      </trkpt>
      <trkpt lat="44.18296" lon="5.52236">
        <ele>955</ele>
        <time>2019-03-27T15:10:58Z</time>
      </trkpt>
      <trkpt lat="44.18293" lon="5.52248">
        <ele>954</ele>
        <time>2019-03-27T15:10:59Z</time>
      </trkpt>
      <trkpt lat="44.18289" lon="5.5226">
        <ele>953</ele>
        <time>2019-03-27T15:11:00Z</time>
      </trkpt>
      <trkpt lat="44.18286" lon="5.52272">
        <ele>953</ele>
        <time>2019-03-27T15:11:01Z</time>
      </trkpt>
      <trkpt lat="44.18284" lon="5.52284">
        <ele>953</ele>
        <time>2019-03-27T15:11:02Z</time>
      </trkpt>
      <trkpt lat="44.18283" lon="5.52296">
        <ele>952</ele>
        <time>2019-03-27T15:11:03Z</time>
      </trkpt>
      <trkpt lat="44.18283" lon="5.52309">
        <ele>951</ele>
        <time>2019-03-27T15:11:04Z</time>
      </trkpt>
      <trkpt lat="44.18283" lon="5.52321">
        <ele>951</ele>
        <time>2019-03-27T15:11:05Z</time>
      </trkpt>
      <trkpt lat="44.18283" lon="5.52334">
        <ele>950</ele>
        <time>2019-03-27T15:11:06Z</time>
      </trkpt>
      <trkpt lat="44.18282" lon="5.52347">
        <ele>949</ele>
        <time>2019-03-27T15:11:07Z</time>
      </trkpt>
      <trkpt lat="44.18279" lon="5.52359">
        <ele>948</ele>
        <time>2019-03-27T15:11:08Z</time>
      </trkpt>
      <trkpt lat="44.18276" lon="5.52372">
        <ele>948</ele>
        <time>2019-03-27T15:11:09Z</time>
      </trkpt>
      <trkpt lat="44.18272" lon="5.52383">
        <ele>947</ele>
        <time>2019-03-27T15:11:10Z</time>
      </trkpt>
      <trkpt lat="44.18269" lon="5.52395">
        <ele>947</ele>
        <time>2019-03-27T15:11:11Z</time>
      </trkpt>
      <trkpt lat="44.18265" lon="5.52407">
        <ele>946</ele>
        <time>2019-03-27T15:11:12Z</time>
      </trkpt>
      <trkpt lat="44.18262" lon="5.52418">
        <ele>945</ele>
        <time>2019-03-27T15:11:13Z</time>
      </trkpt>
      <trkpt lat="44.18259" lon="5.5243">
        <ele>944</ele>
        <time>2019-03-27T15:11:14Z</time>
      </trkpt>
      <trkpt lat="44.18256" lon="5.52443">
        <ele>943</ele>
        <time>2019-03-27T15:11:15Z</time>
      </trkpt>
      <trkpt lat="44.18254" lon="5.52455">
        <ele>942</ele>
        <time>2019-03-27T15:11:16Z</time>
      </trkpt>
      <trkpt lat="44.18253" lon="5.52468">
        <ele>942</ele>
        <time>2019-03-27T15:11:17Z</time>
      </trkpt>
      <trkpt lat="44.18253" lon="5.52482">
        <ele>941</ele>
        <time>2019-03-27T15:11:18Z</time>
      </trkpt>
      <trkpt lat="44.18252" lon="5.52496">
        <ele>940</ele>
        <time>2019-03-27T15:11:19Z</time>
      </trkpt>
      <trkpt lat="44.18253" lon="5.5251">
        <ele>939</ele>
        <time>2019-03-27T15:11:20Z</time>
      </trkpt>
      <trkpt lat="44.18254" lon="5.52524">
        <ele>938</ele>
        <time>2019-03-27T15:11:21Z</time>
      </trkpt>
      <trkpt lat="44.18256" lon="5.52536">
        <ele>938</ele>
        <time>2019-03-27T15:11:22Z</time>
      </trkpt>
      <trkpt lat="44.18257" lon="5.52549">
        <ele>937</ele>
        <time>2019-03-27T15:11:23Z</time>
      </trkpt>
      <trkpt lat="44.18258" lon="5.52561">
        <ele>937</ele>
        <time>2019-03-27T15:11:24Z</time>
      </trkpt>
      <trkpt lat="44.18259" lon="5.52572">
        <ele>936</ele>
        <time>2019-03-27T15:11:25Z</time>
      </trkpt>
      <trkpt lat="44.1826" lon="5.52582">
        <ele>936</ele>
        <time>2019-03-27T15:11:26Z</time>
      </trkpt>
      <trkpt lat="44.18261" lon="5.52592">
        <ele>936</ele>
        <time>2019-03-27T15:11:27Z</time>
      </trkpt>
      <trkpt lat="44.18262" lon="5.52602">
        <ele>935</ele>
        <time>2019-03-27T15:11:28Z</time>
      </trkpt>
      <trkpt lat="44.18263" lon="5.52611">
        <ele>935</ele>
        <time>2019-03-27T15:11:29Z</time>
      </trkpt>
      <trkpt lat="44.18265" lon="5.52621">
        <ele>935</ele>
        <time>2019-03-27T15:11:30Z</time>
      </trkpt>
      <trkpt lat="44.18267" lon="5.5263">
        <ele>935</ele>
        <time>2019-03-27T15:11:31Z</time>
      </trkpt>
      <trkpt lat="44.18269" lon="5.52639">
        <ele>934</ele>
        <time>2019-03-27T15:11:32Z</time>
      </trkpt>
      <trkpt lat="44.1827" lon="5.52648">
        <ele>934</ele>
        <time>2019-03-27T15:11:33Z</time>
      </trkpt>
      <trkpt lat="44.18272" lon="5.52657">
        <ele>934</ele>
        <time>2019-03-27T15:11:34Z</time>
      </trkpt>
      <trkpt lat="44.18275" lon="5.52666">
        <ele>933</ele>
        <time>2019-03-27T15:11:35Z</time>
      </trkpt>
      <trkpt lat="44.18278" lon="5.52675">
        <ele>932</ele>
        <time>2019-03-27T15:11:36Z</time>
      </trkpt>
      <trkpt lat="44.18282" lon="5.52684">
        <ele>932</ele>
        <time>2019-03-27T15:11:37Z</time>
      </trkpt>
      <trkpt lat="44.18287" lon="5.52692">
        <ele>931</ele>
        <time>2019-03-27T15:11:38Z</time>
      </trkpt>
      <trkpt lat="44.18293" lon="5.52699">
        <ele>931</ele>
        <time>2019-03-27T15:11:39Z</time>
      </trkpt>
      <trkpt lat="44.183" lon="5.52706">
        <ele>931</ele>
        <time>2019-03-27T15:11:40Z</time>
      </trkpt>
      <trkpt lat="44.18307" lon="5.52712">
        <ele>930</ele>
        <time>2019-03-27T15:11:41Z</time>
      </trkpt>
      <trkpt lat="44.18314" lon="5.52718">
        <ele>930</ele>
        <time>2019-03-27T15:11:42Z</time>
      </trkpt>
      <trkpt lat="44.18321" lon="5.52725">
        <ele>929</ele>
        <time>2019-03-27T15:11:43Z</time>
      </trkpt>
      <trkpt lat="44.18328" lon="5.52733">
        <ele>928</ele>
        <time>2019-03-27T15:11:44Z</time>
      </trkpt>
      <trkpt lat="44.18334" lon="5.5274">
        <ele>928</ele>
        <time>2019-03-27T15:11:45Z</time>
      </trkpt>
      <trkpt lat="44.1834" lon="5.52748">
        <ele>927</ele>
        <time>2019-03-27T15:11:46Z</time>
      </trkpt>
      <trkpt lat="44.18344" lon="5.52758">
        <ele>927</ele>
        <time>2019-03-27T15:11:47Z</time>
      </trkpt>
      <trkpt lat="44.18349" lon="5.52767">
        <ele>926</ele>
        <time>2019-03-27T15:11:48Z</time>
      </trkpt>
      <trkpt lat="44.18352" lon="5.52778">
        <ele>926</ele>
        <time>2019-03-27T15:11:49Z</time>
      </trkpt>
      <trkpt lat="44.18356" lon="5.52789">
        <ele>925</ele>
        <time>2019-03-27T15:11:50Z</time>
      </trkpt>
      <trkpt lat="44.18358" lon="5.52801">
        <ele>924</ele>
        <time>2019-03-27T15:11:51Z</time>
      </trkpt>
      <trkpt lat="44.18361" lon="5.52814">
        <ele>923</ele>
        <time>2019-03-27T15:11:52Z</time>
      </trkpt>
      <trkpt lat="44.18363" lon="5.52827">
        <ele>923</ele>
        <time>2019-03-27T15:11:53Z</time>
      </trkpt>
      <trkpt lat="44.18365" lon="5.5284">
        <ele>922</ele>
        <time>2019-03-27T15:11:54Z</time>
      </trkpt>
      <trkpt lat="44.18367" lon="5.52854">
        <ele>921</ele>
        <time>2019-03-27T15:11:55Z</time>
      </trkpt>
      <trkpt lat="44.18369" lon="5.52868">
        <ele>921</ele>
        <time>2019-03-27T15:11:56Z</time>
      </trkpt>
      <trkpt lat="44.18372" lon="5.52883">
        <ele>920</ele>
        <time>2019-03-27T15:11:57Z</time>
      </trkpt>
      <trkpt lat="44.18376" lon="5.52897">
        <ele>919</ele>
        <time>2019-03-27T15:11:58Z</time>
      </trkpt>
      <trkpt lat="44.1838" lon="5.52911">
        <ele>919</ele>
        <time>2019-03-27T15:11:59Z</time>
      </trkpt>
      <trkpt lat="44.18385" lon="5.52924">
        <ele>918</ele>
        <time>2019-03-27T15:12:00Z</time>
      </trkpt>
      <trkpt lat="44.1839" lon="5.52937">
        <ele>918</ele>
        <time>2019-03-27T15:12:01Z</time>
      </trkpt>
      <trkpt lat="44.18396" lon="5.5295">
        <ele>917</ele>
        <time>2019-03-27T15:12:02Z</time>
      </trkpt>
      <trkpt lat="44.18401" lon="5.52962">
        <ele>917</ele>
        <time>2019-03-27T15:12:03Z</time>
      </trkpt>
      <trkpt lat="44.18404" lon="5.52975">
        <ele>916</ele>
        <time>2019-03-27T15:12:04Z</time>
      </trkpt>
      <trkpt lat="44.18406" lon="5.52988">
        <ele>915</ele>
        <time>2019-03-27T15:12:05Z</time>
      </trkpt>
      <trkpt lat="44.18406" lon="5.53001">
        <ele>914</ele>
        <time>2019-03-27T15:12:06Z</time>
      </trkpt>
      <trkpt lat="44.18404" lon="5.53013">
        <ele>914</ele>
        <time>2019-03-27T15:12:07Z</time>
      </trkpt>
      <trkpt lat="44.184" lon="5.53025">
        <ele>913</ele>
        <time>2019-03-27T15:12:08Z</time>
      </trkpt>
      <trkpt lat="44.18396" lon="5.53037">
        <ele>912</ele>
        <time>2019-03-27T15:12:09Z</time>
      </trkpt>
      <trkpt lat="44.18391" lon="5.53049">
        <ele>911</ele>
        <time>2019-03-27T15:12:10Z</time>
      </trkpt>
      <trkpt lat="44.18387" lon="5.5306">
        <ele>911</ele>
        <time>2019-03-27T15:12:11Z</time>
      </trkpt>
      <trkpt lat="44.18383" lon="5.53071">
        <ele>910</ele>
        <time>2019-03-27T15:12:12Z</time>
      </trkpt>
      <trkpt lat="44.18381" lon="5.53083">
        <ele>910</ele>
        <time>2019-03-27T15:12:13Z</time>
      </trkpt>
      <trkpt lat="44.1838" lon="5.53095">
        <ele>909</ele>
        <time>2019-03-27T15:12:14Z</time>
      </trkpt>
      <trkpt lat="44.18381" lon="5.53106">
        <ele>909</ele>
        <time>2019-03-27T15:12:15Z</time>
      </trkpt>
      <trkpt lat="44.18384" lon="5.53117">
        <ele>908</ele>
        <time>2019-03-27T15:12:16Z</time>
      </trkpt>
      <trkpt lat="44.18388" lon="5.53127">
        <ele>908</ele>
        <time>2019-03-27T15:12:17Z</time>
      </trkpt>
      <trkpt lat="44.18393" lon="5.53136">
        <ele>907</ele>
        <time>2019-03-27T15:12:18Z</time>
      </trkpt>
      <trkpt lat="44.18398" lon="5.53145">
        <ele>907</ele>
        <time>2019-03-27T15:12:19Z</time>
      </trkpt>
      <trkpt lat="44.18403" lon="5.53154">
        <ele>906</ele>
        <time>2019-03-27T15:12:20Z</time>
      </trkpt>
      <trkpt lat="44.18409" lon="5.53161">
        <ele>905</ele>
        <time>2019-03-27T15:12:21Z</time>
      </trkpt>
      <trkpt lat="44.18416" lon="5.53166">
        <ele>905</ele>
        <time>2019-03-27T15:12:22Z</time>
      </trkpt>
      <trkpt lat="44.18423" lon="5.5317">
        <ele>904</ele>
        <time>2019-03-27T15:12:23Z</time>
      </trkpt>
      <trkpt lat="44.18431" lon="5.53171">
        <ele>904</ele>
        <time>2019-03-27T15:12:24Z</time>
      </trkpt>
      <trkpt lat="44.18438" lon="5.53171">
        <ele>903</ele>
        <time>2019-03-27T15:12:25Z</time>
      </trkpt>
      <trkpt lat="44.18446" lon="5.53169">
        <ele>903</ele>
        <time>2019-03-27T15:12:26Z</time>
      </trkpt>
      <trkpt lat="44.18453" lon="5.53167">
        <ele>902</ele>
        <time>2019-03-27T15:12:27Z</time>
      </trkpt>
      <trkpt lat="44.1846" lon="5.53164">
        <ele>902</ele>
        <time>2019-03-27T15:12:28Z</time>
      </trkpt>
      <trkpt lat="44.18466" lon="5.53161">
        <ele>901</ele>
        <time>2019-03-27T15:12:29Z</time>
      </trkpt>
      <trkpt lat="44.18473" lon="5.53158">
        <ele>901</ele>
        <time>2019-03-27T15:12:30Z</time>
      </trkpt>
      <trkpt lat="44.1848" lon="5.53156">
        <ele>901</ele>
        <time>2019-03-27T15:12:31Z</time>
      </trkpt>
      <trkpt lat="44.18487" lon="5.53156">
        <ele>901</ele>
        <time>2019-03-27T15:12:32Z</time>
      </trkpt>
      <trkpt lat="44.18495" lon="5.53157">
        <ele>901</ele>
        <time>2019-03-27T15:12:33Z</time>
      </trkpt>
      <trkpt lat="44.18503" lon="5.53159">
        <ele>900</ele>
        <time>2019-03-27T15:12:34Z</time>
      </trkpt>
      <trkpt lat="44.1851" lon="5.53163">
        <ele>900</ele>
        <time>2019-03-27T15:12:35Z</time>
      </trkpt>
      <trkpt lat="44.18518" lon="5.53168">
        <ele>900</ele>
        <time>2019-03-27T15:12:36Z</time>
      </trkpt>
      <trkpt lat="44.18525" lon="5.53173">
        <ele>899</ele>
        <time>2019-03-27T15:12:37Z</time>
      </trkpt>
      <trkpt lat="44.18533" lon="5.53178">
        <ele>899</ele>
        <time>2019-03-27T15:12:38Z</time>
      </trkpt>
      <trkpt lat="44.18541" lon="5.53184">
        <ele>898</ele>
        <time>2019-03-27T15:12:39Z</time>
      </trkpt>
      <trkpt lat="44.18549" lon="5.5319">
        <ele>898</ele>
        <time>2019-03-27T15:12:40Z</time>
      </trkpt>
      <trkpt lat="44.18556" lon="5.53197">
        <ele>897</ele>
        <time>2019-03-27T15:12:41Z</time>
      </trkpt>
      <trkpt lat="44.18563" lon="5.53206">
        <ele>897</ele>
        <time>2019-03-27T15:12:42Z</time>
      </trkpt>
      <trkpt lat="44.1857" lon="5.53216">
        <ele>896</ele>
        <time>2019-03-27T15:12:43Z</time>
      </trkpt>
      <trkpt lat="44.18576" lon="5.53227">
        <ele>896</ele>
        <time>2019-03-27T15:12:44Z</time>
      </trkpt>
      <trkpt lat="44.18582" lon="5.53237">
        <ele>895</ele>
        <time>2019-03-27T15:12:45Z</time>
      </trkpt>
      <trkpt lat="44.18587" lon="5.53248">
        <ele>895</ele>
        <time>2019-03-27T15:12:46Z</time>
      </trkpt>
      <trkpt lat="44.18592" lon="5.53258">
        <ele>894</ele>
        <time>2019-03-27T15:12:47Z</time>
      </trkpt>
      <trkpt lat="44.18597" lon="5.53269">
        <ele>893</ele>
        <time>2019-03-27T15:12:48Z</time>
      </trkpt>
      <trkpt lat="44.18602" lon="5.53281">
        <ele>893</ele>
        <time>2019-03-27T15:12:49Z</time>
      </trkpt>
      <trkpt lat="44.18607" lon="5.53294">
        <ele>892</ele>
        <time>2019-03-27T15:12:50Z</time>
      </trkpt>
      <trkpt lat="44.18612" lon="5.53306">
        <ele>891</ele>
        <time>2019-03-27T15:12:51Z</time>
      </trkpt>
      <trkpt lat="44.18617" lon="5.53318">
        <ele>891</ele>
        <time>2019-03-27T15:12:52Z</time>
      </trkpt>
      <trkpt lat="44.18622" lon="5.53329">
        <ele>890</ele>
        <time>2019-03-27T15:12:53Z</time>
      </trkpt>
      <trkpt lat="44.18627" lon="5.53338">
        <ele>890</ele>
        <time>2019-03-27T15:12:54Z</time>
      </trkpt>
      <trkpt lat="44.18632" lon="5.53347">
        <ele>889</ele>
        <time>2019-03-27T15:12:55Z</time>
      </trkpt>
      <trkpt lat="44.18637" lon="5.53354">
        <ele>889</ele>
        <time>2019-03-27T15:12:56Z</time>
      </trkpt>
      <trkpt lat="44.18644" lon="5.5336">
        <ele>888</ele>
        <time>2019-03-27T15:12:57Z</time>
      </trkpt>
      <trkpt lat="44.18651" lon="5.53364">
        <ele>887</ele>
        <time>2019-03-27T15:12:58Z</time>
      </trkpt>
      <trkpt lat="44.18657" lon="5.53368">
        <ele>887</ele>
        <time>2019-03-27T15:12:59Z</time>
      </trkpt>
      <trkpt lat="44.18663" lon="5.53372">
        <ele>886</ele>
        <time>2019-03-27T15:13:00Z</time>
      </trkpt>
      <trkpt lat="44.18669" lon="5.53377">
        <ele>886</ele>
        <time>2019-03-27T15:13:01Z</time>
      </trkpt>
      <trkpt lat="44.18673" lon="5.53383">
        <ele>885</ele>
        <time>2019-03-27T15:13:02Z</time>
      </trkpt>
      <trkpt lat="44.18675" lon="5.53391">
        <ele>885</ele>
        <time>2019-03-27T15:13:03Z</time>
      </trkpt>
      <trkpt lat="44.18675" lon="5.534">
        <ele>884</ele>
        <time>2019-03-27T15:13:04Z</time>
      </trkpt>
      <trkpt lat="44.18672" lon="5.53408">
        <ele>883</ele>
        <time>2019-03-27T15:13:05Z</time>
      </trkpt>
      <trkpt lat="44.18667" lon="5.53414">
        <ele>883</ele>
        <time>2019-03-27T15:13:06Z</time>
      </trkpt>
      <trkpt lat="44.1866" lon="5.53415">
        <ele>882</ele>
        <time>2019-03-27T15:13:07Z</time>
      </trkpt>
      <trkpt lat="44.18653" lon="5.53412">
        <ele>881</ele>
        <time>2019-03-27T15:13:08Z</time>
      </trkpt>
      <trkpt lat="44.18647" lon="5.53407">
        <ele>880</ele>
        <time>2019-03-27T15:13:09Z</time>
      </trkpt>
      <trkpt lat="44.18642" lon="5.534">
        <ele>879</ele>
        <time>2019-03-27T15:13:10Z</time>
      </trkpt>
      <trkpt lat="44.18637" lon="5.53393">
        <ele>878</ele>
        <time>2019-03-27T15:13:11Z</time>
      </trkpt>
      <trkpt lat="44.18632" lon="5.53385">
        <ele>878</ele>
        <time>2019-03-27T15:13:12Z</time>
      </trkpt>
      <trkpt lat="44.18628" lon="5.53377">
        <ele>877</ele>
        <time>2019-03-27T15:13:13Z</time>
      </trkpt>
      <trkpt lat="44.18623" lon="5.53368">
        <ele>877</ele>
        <time>2019-03-27T15:13:14Z</time>
      </trkpt>
      <trkpt lat="44.18619" lon="5.53361">
        <ele>877</ele>
        <time>2019-03-27T15:13:15Z</time>
      </trkpt>
      <trkpt lat="44.18614" lon="5.53355">
        <ele>877</ele>
        <time>2019-03-27T15:13:16Z</time>
      </trkpt>
      <trkpt lat="44.1861" lon="5.53353">
        <ele>877</ele>
        <time>2019-03-27T15:13:17Z</time>
      </trkpt>
      <trkpt lat="44.18605" lon="5.53355">
        <ele>877</ele>
        <time>2019-03-27T15:13:18Z</time>
      </trkpt>
      <trkpt lat="44.18602" lon="5.53361">
        <ele>877</ele>
        <time>2019-03-27T15:13:19Z</time>
      </trkpt>
      <trkpt lat="44.18601" lon="5.53368">
        <ele>877</ele>
        <time>2019-03-27T15:13:20Z</time>
      </trkpt>
      <trkpt lat="44.18602" lon="5.53376">
        <ele>877</ele>
        <time>2019-03-27T15:13:21Z</time>
      </trkpt>
      <trkpt lat="44.18605" lon="5.53384">
        <ele>877</ele>
        <time>2019-03-27T15:13:22Z</time>
      </trkpt>
      <trkpt lat="44.18609" lon="5.53392">
        <ele>877</ele>
        <time>2019-03-27T15:13:23Z</time>
      </trkpt>
      <trkpt lat="44.18613" lon="5.534">
        <ele>876</ele>
        <time>2019-03-27T15:13:24Z</time>
      </trkpt>
      <trkpt lat="44.18618" lon="5.53408">
        <ele>876</ele>
        <time>2019-03-27T15:13:25Z</time>
      </trkpt>
      <trkpt lat="44.18622" lon="5.53417">
        <ele>876</ele>
        <time>2019-03-27T15:13:26Z</time>
      </trkpt>
      <trkpt lat="44.18627" lon="5.53425">
        <ele>875</ele>
        <time>2019-03-27T15:13:27Z</time>
      </trkpt>
      <trkpt lat="44.18633" lon="5.53434">
        <ele>875</ele>
        <time>2019-03-27T15:13:28Z</time>
      </trkpt>
      <trkpt lat="44.18639" lon="5.53442">
        <ele>875</ele>
        <time>2019-03-27T15:13:29Z</time>
      </trkpt>
      <trkpt lat="44.18646" lon="5.53449">
        <ele>874</ele>
        <time>2019-03-27T15:13:30Z</time>
      </trkpt>
      <trkpt lat="44.18653" lon="5.53456">
        <ele>874</ele>
        <time>2019-03-27T15:13:31Z</time>
      </trkpt>
      <trkpt lat="44.18661" lon="5.53464">
        <ele>873</ele>
        <time>2019-03-27T15:13:32Z</time>
      </trkpt>
      <trkpt lat="44.18669" lon="5.53472">
        <ele>872</ele>
        <time>2019-03-27T15:13:33Z</time>
      </trkpt>
      <trkpt lat="44.18676" lon="5.53481">
        <ele>872</ele>
        <time>2019-03-27T15:13:34Z</time>
      </trkpt>
      <trkpt lat="44.18682" lon="5.53491">
        <ele>871</ele>
        <time>2019-03-27T15:13:35Z</time>
      </trkpt>
      <trkpt lat="44.18688" lon="5.53503">
        <ele>871</ele>
        <time>2019-03-27T15:13:36Z</time>
      </trkpt>
      <trkpt lat="44.18692" lon="5.53515">
        <ele>870</ele>
        <time>2019-03-27T15:13:37Z</time>
      </trkpt>
      <trkpt lat="44.18696" lon="5.53528">
        <ele>869</ele>
        <time>2019-03-27T15:13:38Z</time>
      </trkpt>
      <trkpt lat="44.18699" lon="5.53542">
        <ele>869</ele>
        <time>2019-03-27T15:13:39Z</time>
      </trkpt>
      <trkpt lat="44.18701" lon="5.53556">
        <ele>868</ele>
        <time>2019-03-27T15:13:40Z</time>
      </trkpt>
      <trkpt lat="44.18703" lon="5.53571">
        <ele>868</ele>
        <time>2019-03-27T15:13:41Z</time>
      </trkpt>
      <trkpt lat="44.18705" lon="5.53585">
        <ele>867</ele>
        <time>2019-03-27T15:13:42Z</time>
      </trkpt>
      <trkpt lat="44.18708" lon="5.536">
        <ele>867</ele>
        <time>2019-03-27T15:13:43Z</time>
      </trkpt>
      <trkpt lat="44.1871" lon="5.53614">
        <ele>866</ele>
        <time>2019-03-27T15:13:44Z</time>
      </trkpt>
      <trkpt lat="44.18712" lon="5.53629">
        <ele>865</ele>
        <time>2019-03-27T15:13:45Z</time>
      </trkpt>
      <trkpt lat="44.18715" lon="5.53644">
        <ele>865</ele>
        <time>2019-03-27T15:13:46Z</time>
      </trkpt>
      <trkpt lat="44.18718" lon="5.53658">
        <ele>864</ele>
        <time>2019-03-27T15:13:47Z</time>
      </trkpt>
      <trkpt lat="44.1872" lon="5.53672">
        <ele>863</ele>
        <time>2019-03-27T15:13:48Z</time>
      </trkpt>
      <trkpt lat="44.18722" lon="5.53686">
        <ele>862</ele>
        <time>2019-03-27T15:13:49Z</time>
      </trkpt>
      <trkpt lat="44.18724" lon="5.53698">
        <ele>861</ele>
        <time>2019-03-27T15:13:50Z</time>
      </trkpt>
      <trkpt lat="44.18727" lon="5.53711">
        <ele>861</ele>
        <time>2019-03-27T15:13:51Z</time>
      </trkpt>
      <trkpt lat="44.1873" lon="5.53723">
        <ele>860</ele>
        <time>2019-03-27T15:13:52Z</time>
      </trkpt>
      <trkpt lat="44.18733" lon="5.53733">
        <ele>859</ele>
        <time>2019-03-27T15:13:53Z</time>
      </trkpt>
      <trkpt lat="44.18737" lon="5.53744">
        <ele>858</ele>
        <time>2019-03-27T15:13:54Z</time>
      </trkpt>
      <trkpt lat="44.18742" lon="5.53753">
        <ele>858</ele>
        <time>2019-03-27T15:13:55Z</time>
      </trkpt>
      <trkpt lat="44.18748" lon="5.5376">
        <ele>857</ele>
        <time>2019-03-27T15:13:56Z</time>
      </trkpt>
      <trkpt lat="44.18755" lon="5.53766">
        <ele>856</ele>
        <time>2019-03-27T15:13:57Z</time>
      </trkpt>
      <trkpt lat="44.18763" lon="5.53769">
        <ele>856</ele>
        <time>2019-03-27T15:13:58Z</time>
      </trkpt>
      <trkpt lat="44.18772" lon="5.53769">
        <ele>855</ele>
        <time>2019-03-27T15:13:59Z</time>
      </trkpt>
      <trkpt lat="44.1878" lon="5.53769">
        <ele>855</ele>
        <time>2019-03-27T15:14:00Z</time>
      </trkpt>
      <trkpt lat="44.18789" lon="5.53768">
        <ele>854</ele>
        <time>2019-03-27T15:14:01Z</time>
      </trkpt>
      <trkpt lat="44.18797" lon="5.53767">
        <ele>854</ele>
        <time>2019-03-27T15:14:02Z</time>
      </trkpt>
      <trkpt lat="44.18805" lon="5.53766">
        <ele>853</ele>
        <time>2019-03-27T15:14:03Z</time>
      </trkpt>
      <trkpt lat="44.18813" lon="5.53767">
        <ele>853</ele>
        <time>2019-03-27T15:14:04Z</time>
      </trkpt>
      <trkpt lat="44.18821" lon="5.53768">
        <ele>852</ele>
        <time>2019-03-27T15:14:05Z</time>
      </trkpt>
      <trkpt lat="44.18829" lon="5.53769">
        <ele>852</ele>
        <time>2019-03-27T15:14:06Z</time>
      </trkpt>
      <trkpt lat="44.18837" lon="5.5377">
        <ele>851</ele>
        <time>2019-03-27T15:14:07Z</time>
      </trkpt>
      <trkpt lat="44.18845" lon="5.5377">
        <ele>851</ele>
        <time>2019-03-27T15:14:08Z</time>
      </trkpt>
      <trkpt lat="44.18853" lon="5.53769">
        <ele>850</ele>
        <time>2019-03-27T15:14:09Z</time>
      </trkpt>
      <trkpt lat="44.18861" lon="5.53768">
        <ele>850</ele>
        <time>2019-03-27T15:14:10Z</time>
      </trkpt>
      <trkpt lat="44.18869" lon="5.53767">
        <ele>849</ele>
        <time>2019-03-27T15:14:11Z</time>
      </trkpt>
      <trkpt lat="44.18878" lon="5.53764">
        <ele>849</ele>
        <time>2019-03-27T15:14:12Z</time>
      </trkpt>
      <trkpt lat="44.18887" lon="5.53762">
        <ele>849</ele>
        <time>2019-03-27T15:14:13Z</time>
      </trkpt>
      <trkpt lat="44.18895" lon="5.53759">
        <ele>848</ele>
        <time>2019-03-27T15:14:14Z</time>
      </trkpt>
      <trkpt lat="44.18904" lon="5.53756">
        <ele>848</ele>
        <time>2019-03-27T15:14:15Z</time>
      </trkpt>
      <trkpt lat="44.18913" lon="5.53752">
        <ele>847</ele>
        <time>2019-03-27T15:14:16Z</time>
      </trkpt>
      <trkpt lat="44.18922" lon="5.53748">
        <ele>847</ele>
        <time>2019-03-27T15:14:17Z</time>
      </trkpt>
      <trkpt lat="44.1893" lon="5.53744">
        <ele>846</ele>
        <time>2019-03-27T15:14:18Z</time>
      </trkpt>
      <trkpt lat="44.18937" lon="5.53739">
        <ele>845</ele>
        <time>2019-03-27T15:14:19Z</time>
      </trkpt>
      <trkpt lat="44.18944" lon="5.53734">
        <ele>845</ele>
        <time>2019-03-27T15:14:20Z</time>
      </trkpt>
      <trkpt lat="44.18951" lon="5.5373">
        <ele>844</ele>
        <time>2019-03-27T15:14:21Z</time>
      </trkpt>
      <trkpt lat="44.18959" lon="5.53728">
        <ele>844</ele>
        <time>2019-03-27T15:14:22Z</time>
      </trkpt>
      <trkpt lat="44.18966" lon="5.53726">
        <ele>843</ele>
        <time>2019-03-27T15:14:23Z</time>
      </trkpt>
      <trkpt lat="44.18974" lon="5.53726">
        <ele>843</ele>
        <time>2019-03-27T15:14:24Z</time>
      </trkpt>
      <trkpt lat="44.18982" lon="5.53727">
        <ele>843</ele>
        <time>2019-03-27T15:14:25Z</time>
      </trkpt>
      <trkpt lat="44.1899" lon="5.53728">
        <ele>842</ele>
        <time>2019-03-27T15:14:26Z</time>
      </trkpt>
      <trkpt lat="44.18998" lon="5.53729">
        <ele>842</ele>
        <time>2019-03-27T15:14:27Z</time>
      </trkpt>
      <trkpt lat="44.19006" lon="5.5373">
        <ele>841</ele>
        <time>2019-03-27T15:14:28Z</time>
      </trkpt>
      <trkpt lat="44.19014" lon="5.53731">
        <ele>841</ele>
        <time>2019-03-27T15:14:29Z</time>
      </trkpt>
      <trkpt lat="44.19023" lon="5.53731">
        <ele>840</ele>
        <time>2019-03-27T15:14:30Z</time>
      </trkpt>
      <trkpt lat="44.19032" lon="5.53732">
        <ele>840</ele>
        <time>2019-03-27T15:14:31Z</time>
      </trkpt>
      <trkpt lat="44.19041" lon="5.53733">
        <ele>840</ele>
        <time>2019-03-27T15:14:32Z</time>
      </trkpt>
      <trkpt lat="44.1905" lon="5.53733">
        <ele>839</ele>
        <time>2019-03-27T15:14:33Z</time>
      </trkpt>
      <trkpt lat="44.19059" lon="5.53734">
        <ele>839</ele>
        <time>2019-03-27T15:14:34Z</time>
      </trkpt>
      <trkpt lat="44.19068" lon="5.53734">
        <ele>839</ele>
        <time>2019-03-27T15:14:35Z</time>
      </trkpt>
      <trkpt lat="44.19077" lon="5.53735">
        <ele>838</ele>
        <time>2019-03-27T15:14:36Z</time>
      </trkpt>
      <trkpt lat="44.19086" lon="5.53736">
        <ele>838</ele>
        <time>2019-03-27T15:14:37Z</time>
      </trkpt>
      <trkpt lat="44.19096" lon="5.53737">
        <ele>837</ele>
        <time>2019-03-27T15:14:38Z</time>
      </trkpt>
      <trkpt lat="44.19105" lon="5.53737">
        <ele>837</ele>
        <time>2019-03-27T15:14:39Z</time>
      </trkpt>
      <trkpt lat="44.19116" lon="5.53738">
        <ele>836</ele>
        <time>2019-03-27T15:14:40Z</time>
      </trkpt>
      <trkpt lat="44.19125" lon="5.53739">
        <ele>836</ele>
        <time>2019-03-27T15:14:41Z</time>
      </trkpt>
      <trkpt lat="44.19136" lon="5.5374">
        <ele>835</ele>
        <time>2019-03-27T15:14:42Z</time>
      </trkpt>
      <trkpt lat="44.19145" lon="5.53741">
        <ele>834</ele>
        <time>2019-03-27T15:14:43Z</time>
      </trkpt>
      <trkpt lat="44.19155" lon="5.53741">
        <ele>834</ele>
        <time>2019-03-27T15:14:44Z</time>
      </trkpt>
      <trkpt lat="44.19166" lon="5.53742">
        <ele>833</ele>
        <time>2019-03-27T15:14:45Z</time>
      </trkpt>
      <trkpt lat="44.19176" lon="5.53743">
        <ele>832</ele>
        <time>2019-03-27T15:14:46Z</time>
      </trkpt>
      <trkpt lat="44.19186" lon="5.53745">
        <ele>832</ele>
        <time>2019-03-27T15:14:47Z</time>
      </trkpt>
      <trkpt lat="44.19196" lon="5.53746">
        <ele>831</ele>
        <time>2019-03-27T15:14:48Z</time>
      </trkpt>
      <trkpt lat="44.19207" lon="5.53747">
        <ele>830</ele>
        <time>2019-03-27T15:14:49Z</time>
      </trkpt>
      <trkpt lat="44.19217" lon="5.53748">
        <ele>830</ele>
        <time>2019-03-27T15:14:50Z</time>
      </trkpt>
      <trkpt lat="44.19228" lon="5.53749">
        <ele>829</ele>
        <time>2019-03-27T15:14:51Z</time>
      </trkpt>
      <trkpt lat="44.19239" lon="5.5375">
        <ele>828</ele>
        <time>2019-03-27T15:14:52Z</time>
      </trkpt>
      <trkpt lat="44.1925" lon="5.53751">
        <ele>828</ele>
        <time>2019-03-27T15:14:53Z</time>
      </trkpt>
      <trkpt lat="44.19261" lon="5.53752">
        <ele>827</ele>
        <time>2019-03-27T15:14:54Z</time>
      </trkpt>
      <trkpt lat="44.19271" lon="5.53753">
        <ele>827</ele>
        <time>2019-03-27T15:14:55Z</time>
      </trkpt>
      <trkpt lat="44.19282" lon="5.53754">
        <ele>826</ele>
        <time>2019-03-27T15:14:56Z</time>
      </trkpt>
      <trkpt lat="44.19292" lon="5.53755">
        <ele>826</ele>
        <time>2019-03-27T15:14:57Z</time>
      </trkpt>
      <trkpt lat="44.19302" lon="5.53756">
        <ele>825</ele>
        <time>2019-03-27T15:14:58Z</time>
      </trkpt>
      <trkpt lat="44.19313" lon="5.53756">
        <ele>825</ele>
        <time>2019-03-27T15:14:59Z</time>
      </trkpt>
      <trkpt lat="44.19323" lon="5.53757">
        <ele>825</ele>
        <time>2019-03-27T15:15:00Z</time>
      </trkpt>
      <trkpt lat="44.19333" lon="5.53758">
        <ele>824</ele>
        <time>2019-03-27T15:15:01Z</time>
      </trkpt>
      <trkpt lat="44.19343" lon="5.53759">
        <ele>824</ele>
        <time>2019-03-27T15:15:02Z</time>
      </trkpt>
      <trkpt lat="44.19353" lon="5.5376">
        <ele>824</ele>
        <time>2019-03-27T15:15:03Z</time>
      </trkpt>
      <trkpt lat="44.19363" lon="5.53761">
        <ele>823</ele>
        <time>2019-03-27T15:15:04Z</time>
      </trkpt>
      <trkpt lat="44.19373" lon="5.53761">
        <ele>823</ele>
        <time>2019-03-27T15:15:05Z</time>
      </trkpt>
      <trkpt lat="44.19382" lon="5.53762">
        <ele>823</ele>
        <time>2019-03-27T15:15:06Z</time>
      </trkpt>
      <trkpt lat="44.19392" lon="5.53763">
        <ele>822</ele>
        <time>2019-03-27T15:15:07Z</time>
      </trkpt>
      <trkpt lat="44.19401" lon="5.53764">
        <ele>822</ele>
        <time>2019-03-27T15:15:08Z</time>
      </trkpt>
      <trkpt lat="44.19411" lon="5.53765">
        <ele>822</ele>
        <time>2019-03-27T15:15:09Z</time>
      </trkpt>
      <trkpt lat="44.1942" lon="5.53766">
        <ele>822</ele>
        <time>2019-03-27T15:15:10Z</time>
      </trkpt>
      <trkpt lat="44.19429" lon="5.53766">
        <ele>822</ele>
        <time>2019-03-27T15:15:11Z</time>
      </trkpt>
      <trkpt lat="44.19438" lon="5.53767">
        <ele>821</ele>
        <time>2019-03-27T15:15:12Z</time>
      </trkpt>
      <trkpt lat="44.19447" lon="5.53768">
        <ele>821</ele>
        <time>2019-03-27T15:15:13Z</time>
      </trkpt>
      <trkpt lat="44.19455" lon="5.53768">
        <ele>821</ele>
        <time>2019-03-27T15:15:14Z</time>
      </trkpt>
      <trkpt lat="44.19464" lon="5.53769">
        <ele>821</ele>
        <time>2019-03-27T15:15:15Z</time>
      </trkpt>
      <trkpt lat="44.19472" lon="5.5377">
        <ele>821</ele>
        <time>2019-03-27T15:15:16Z</time>
      </trkpt>
      <trkpt lat="44.1948" lon="5.5377">
        <ele>821</ele>
        <time>2019-03-27T15:15:17Z</time>
      </trkpt>
      <trkpt lat="44.19488" lon="5.53771">
        <ele>821</ele>
        <time>2019-03-27T15:15:18Z</time>
      </trkpt>
      <trkpt lat="44.19496" lon="5.53772">
        <ele>821</ele>
        <time>2019-03-27T15:15:19Z</time>
      </trkpt>
      <trkpt lat="44.19504" lon="5.53773">
        <ele>821</ele>
        <time>2019-03-27T15:15:20Z</time>
      </trkpt>
      <trkpt lat="44.19511" lon="5.53774">
        <ele>821</ele>
        <time>2019-03-27T15:15:21Z</time>
      </trkpt>
      <trkpt lat="44.19519" lon="5.53774">
        <ele>821</ele>
        <time>2019-03-27T15:15:22Z</time>
      </trkpt>
      <trkpt lat="44.19527" lon="5.53774">
        <ele>820</ele>
        <time>2019-03-27T15:15:23Z</time>
      </trkpt>
      <trkpt lat="44.19534" lon="5.53774">
        <ele>820</ele>
        <time>2019-03-27T15:15:24Z</time>
      </trkpt>
      <trkpt lat="44.19541" lon="5.53774">
        <ele>820</ele>
        <time>2019-03-27T15:15:25Z</time>
      </trkpt>
      <trkpt lat="44.19548" lon="5.53774">
        <ele>820</ele>
        <time>2019-03-27T15:15:26Z</time>
      </trkpt>
      <trkpt lat="44.19556" lon="5.53773">
        <ele>820</ele>
        <time>2019-03-27T15:15:27Z</time>
      </trkpt>
      <trkpt lat="44.19563" lon="5.53773">
        <ele>819</ele>
        <time>2019-03-27T15:15:28Z</time>
      </trkpt>
      <trkpt lat="44.19571" lon="5.53773">
        <ele>819</ele>
        <time>2019-03-27T15:15:29Z</time>
      </trkpt>
      <trkpt lat="44.19578" lon="5.53773">
        <ele>819</ele>
        <time>2019-03-27T15:15:30Z</time>
      </trkpt>
      <trkpt lat="44.19585" lon="5.53773">
        <ele>819</ele>
        <time>2019-03-27T15:15:31Z</time>
      </trkpt>
      <trkpt lat="44.19593" lon="5.53773">
        <ele>819</ele>
        <time>2019-03-27T15:15:32Z</time>
      </trkpt>
      <trkpt lat="44.19601" lon="5.53773">
        <ele>818</ele>
        <time>2019-03-27T15:15:33Z</time>
      </trkpt>
      <trkpt lat="44.19608" lon="5.53773">
        <ele>818</ele>
        <time>2019-03-27T15:15:34Z</time>
      </trkpt>
      <trkpt lat="44.19616" lon="5.53772">
        <ele>818</ele>
        <time>2019-03-27T15:15:35Z</time>
      </trkpt>
      <trkpt lat="44.19623" lon="5.53772">
        <ele>818</ele>
        <time>2019-03-27T15:15:36Z</time>
      </trkpt>
      <trkpt lat="44.19631" lon="5.53772">
        <ele>818</ele>
        <time>2019-03-27T15:15:37Z</time>
      </trkpt>
      <trkpt lat="44.19638" lon="5.53772">
        <ele>818</ele>
        <time>2019-03-27T15:15:38Z</time>
      </trkpt>
      <trkpt lat="44.19646" lon="5.53772">
        <ele>817</ele>
        <time>2019-03-27T15:15:39Z</time>
      </trkpt>
      <trkpt lat="44.19654" lon="5.53771">
        <ele>817</ele>
        <time>2019-03-27T15:15:40Z</time>
      </trkpt>
      <trkpt lat="44.19661" lon="5.53771">
        <ele>817</ele>
        <time>2019-03-27T15:15:41Z</time>
      </trkpt>
      <trkpt lat="44.19669" lon="5.53771">
        <ele>817</ele>
        <time>2019-03-27T15:15:42Z</time>
      </trkpt>
      <trkpt lat="44.19677" lon="5.53771">
        <ele>816</ele>
        <time>2019-03-27T15:15:43Z</time>
      </trkpt>
      <trkpt lat="44.19684" lon="5.5377">
        <ele>816</ele>
        <time>2019-03-27T15:15:44Z</time>
      </trkpt>
      <trkpt lat="44.19692" lon="5.5377">
        <ele>816</ele>
        <time>2019-03-27T15:15:45Z</time>
      </trkpt>
      <trkpt lat="44.19699" lon="5.5377">
        <ele>816</ele>
        <time>2019-03-27T15:15:46Z</time>
      </trkpt>
      <trkpt lat="44.19707" lon="5.5377">
        <ele>816</ele>
        <time>2019-03-27T15:15:47Z</time>
      </trkpt>
      <trkpt lat="44.19714" lon="5.53769">
        <ele>815</ele>
        <time>2019-03-27T15:15:48Z</time>
      </trkpt>
      <trkpt lat="44.19721" lon="5.53769">
        <ele>815</ele>
        <time>2019-03-27T15:15:49Z</time>
      </trkpt>
      <trkpt lat="44.19729" lon="5.53768">
        <ele>815</ele>
        <time>2019-03-27T15:15:50Z</time>
      </trkpt>
      <trkpt lat="44.19736" lon="5.53768">
        <ele>815</ele>
        <time>2019-03-27T15:15:51Z</time>
      </trkpt>
      <trkpt lat="44.19744" lon="5.53768">
        <ele>815</ele>
        <time>2019-03-27T15:15:52Z</time>
      </trkpt>
      <trkpt lat="44.19751" lon="5.53768">
        <ele>815</ele>
        <time>2019-03-27T15:15:53Z</time>
      </trkpt>
      <trkpt lat="44.19759" lon="5.53768">
        <ele>815</ele>
        <time>2019-03-27T15:15:54Z</time>
      </trkpt>
      <trkpt lat="44.19767" lon="5.53768">
        <ele>814</ele>
        <time>2019-03-27T15:15:55Z</time>
      </trkpt>
      <trkpt lat="44.19774" lon="5.53768">
        <ele>814</ele>
        <time>2019-03-27T15:15:56Z</time>
      </trkpt>
      <trkpt lat="44.19782" lon="5.53768">
        <ele>814</ele>
        <time>2019-03-27T15:15:57Z</time>
      </trkpt>
      <trkpt lat="44.1979" lon="5.53767">
        <ele>814</ele>
        <time>2019-03-27T15:15:58Z</time>
      </trkpt>
      <trkpt lat="44.19797" lon="5.53767">
        <ele>813</ele>
        <time>2019-03-27T15:15:59Z</time>
      </trkpt>
      <trkpt lat="44.19805" lon="5.53767">
        <ele>813</ele>
        <time>2019-03-27T15:16:00Z</time>
      </trkpt>
      <trkpt lat="44.19812" lon="5.53767">
        <ele>813</ele>
        <time>2019-03-27T15:16:01Z</time>
      </trkpt>
      <trkpt lat="44.1982" lon="5.53766">
        <ele>813</ele>
        <time>2019-03-27T15:16:02Z</time>
      </trkpt>
      <trkpt lat="44.19827" lon="5.53766">
        <ele>812</ele>
        <time>2019-03-27T15:16:03Z</time>
      </trkpt>
      <trkpt lat="44.19835" lon="5.53765">
        <ele>812</ele>
        <time>2019-03-27T15:16:04Z</time>
      </trkpt>
      <trkpt lat="44.19842" lon="5.53765">
        <ele>812</ele>
        <time>2019-03-27T15:16:05Z</time>
      </trkpt>
      <trkpt lat="44.1985" lon="5.53764">
        <ele>811</ele>
        <time>2019-03-27T15:16:06Z</time>
      </trkpt>
      <trkpt lat="44.19857" lon="5.53762">
        <ele>811</ele>
        <time>2019-03-27T15:16:07Z</time>
      </trkpt>
      <trkpt lat="44.19865" lon="5.5376">
        <ele>811</ele>
        <time>2019-03-27T15:16:08Z</time>
      </trkpt>
      <trkpt lat="44.19872" lon="5.53758">
        <ele>810</ele>
        <time>2019-03-27T15:16:09Z</time>
      </trkpt>
      <trkpt lat="44.1988" lon="5.53755">
        <ele>810</ele>
        <time>2019-03-27T15:16:10Z</time>
      </trkpt>
      <trkpt lat="44.19887" lon="5.53753">
        <ele>810</ele>
        <time>2019-03-27T15:16:11Z</time>
      </trkpt>
      <trkpt lat="44.19894" lon="5.53751">
        <ele>810</ele>
        <time>2019-03-27T15:16:12Z</time>
      </trkpt>
      <trkpt lat="44.19902" lon="5.53748">
        <ele>809</ele>
        <time>2019-03-27T15:16:13Z</time>
      </trkpt>
      <trkpt lat="44.19909" lon="5.53745">
        <ele>809</ele>
        <time>2019-03-27T15:16:14Z</time>
      </trkpt>
      <trkpt lat="44.19916" lon="5.53743">
        <ele>809</ele>
        <time>2019-03-27T15:16:15Z</time>
      </trkpt>
      <trkpt lat="44.19923" lon="5.5374">
        <ele>809</ele>
        <time>2019-03-27T15:16:16Z</time>
      </trkpt>
      <trkpt lat="44.19929" lon="5.53737">
        <ele>809</ele>
        <time>2019-03-27T15:16:17Z</time>
      </trkpt>
      <trkpt lat="44.19936" lon="5.53734">
        <ele>809</ele>
        <time>2019-03-27T15:16:18Z</time>
      </trkpt>
      <trkpt lat="44.19943" lon="5.53732">
        <ele>809</ele>
        <time>2019-03-27T15:16:19Z</time>
      </trkpt>
      <trkpt lat="44.19949" lon="5.5373">
        <ele>809</ele>
        <time>2019-03-27T15:16:20Z</time>
      </trkpt>
      <trkpt lat="44.19955" lon="5.53728">
        <ele>809</ele>
        <time>2019-03-27T15:16:21Z</time>
      </trkpt>
      <trkpt lat="44.19961" lon="5.53726">
        <ele>809</ele>
        <time>2019-03-27T15:16:22Z</time>
      </trkpt>
      <trkpt lat="44.19968" lon="5.53724">
        <ele>809</ele>
        <time>2019-03-27T15:16:23Z</time>
      </trkpt>
      <trkpt lat="44.19974" lon="5.53722">
        <ele>809</ele>
        <time>2019-03-27T15:16:24Z</time>
      </trkpt>
      <trkpt lat="44.1998" lon="5.5372">
        <ele>809</ele>
        <time>2019-03-27T15:16:25Z</time>
      </trkpt>
      <trkpt lat="44.19986" lon="5.53718">
        <ele>809</ele>
        <time>2019-03-27T15:16:26Z</time>
      </trkpt>
      <trkpt lat="44.19992" lon="5.53715">
        <ele>809</ele>
        <time>2019-03-27T15:16:27Z</time>
      </trkpt>
      <trkpt lat="44.19999" lon="5.53713">
        <ele>809</ele>
        <time>2019-03-27T15:16:28Z</time>
      </trkpt>
      <trkpt lat="44.20005" lon="5.53711">
        <ele>809</ele>
        <time>2019-03-27T15:16:29Z</time>
      </trkpt>
      <trkpt lat="44.20011" lon="5.53709">
        <ele>808</ele>
        <time>2019-03-27T15:16:30Z</time>
      </trkpt>
      <trkpt lat="44.20018" lon="5.53707">
        <ele>808</ele>
        <time>2019-03-27T15:16:31Z</time>
      </trkpt>
      <trkpt lat="44.20024" lon="5.53706">
        <ele>808</ele>
        <time>2019-03-27T15:16:32Z</time>
      </trkpt>
      <trkpt lat="44.2003" lon="5.53705">
        <ele>808</ele>
        <time>2019-03-27T15:16:33Z</time>
      </trkpt>
      <trkpt lat="44.20037" lon="5.53703">
        <ele>808</ele>
        <time>2019-03-27T15:16:34Z</time>
      </trkpt>
      <trkpt lat="44.20043" lon="5.53702">
        <ele>808</ele>
        <time>2019-03-27T15:16:35Z</time>
      </trkpt>
      <trkpt lat="44.2005" lon="5.53701">
        <ele>808</ele>
        <time>2019-03-27T15:16:36Z</time>
      </trkpt>
      <trkpt lat="44.20056" lon="5.53699">
        <ele>808</ele>
        <time>2019-03-27T15:16:37Z</time>
      </trkpt>
      <trkpt lat="44.20063" lon="5.53699">
        <ele>808</ele>
        <time>2019-03-27T15:16:38Z</time>
      </trkpt>
      <trkpt lat="44.20069" lon="5.53698">
        <ele>808</ele>
        <time>2019-03-27T15:16:39Z</time>
      </trkpt>
      <trkpt lat="44.20075" lon="5.53697">
        <ele>808</ele>
        <time>2019-03-27T15:16:40Z</time>
      </trkpt>
      <trkpt lat="44.20082" lon="5.53696">
        <ele>808</ele>
        <time>2019-03-27T15:16:41Z</time>
      </trkpt>
      <trkpt lat="44.20089" lon="5.53695">
        <ele>808</ele>
        <time>2019-03-27T15:16:42Z</time>
      </trkpt>
      <trkpt lat="44.20096" lon="5.53694">
        <ele>808</ele>
        <time>2019-03-27T15:16:43Z</time>
      </trkpt>
      <trkpt lat="44.20103" lon="5.53694">
        <ele>808</ele>
        <time>2019-03-27T15:16:44Z</time>
      </trkpt>
      <trkpt lat="44.2011" lon="5.53694">
        <ele>808</ele>
        <time>2019-03-27T15:16:45Z</time>
      </trkpt>
      <trkpt lat="44.20117" lon="5.53694">
        <ele>808</ele>
        <time>2019-03-27T15:16:46Z</time>
      </trkpt>
      <trkpt lat="44.20123" lon="5.53694">
        <ele>808</ele>
        <time>2019-03-27T15:16:47Z</time>
      </trkpt>
      <trkpt lat="44.2013" lon="5.53693">
        <ele>808</ele>
        <time>2019-03-27T15:16:48Z</time>
      </trkpt>
      <trkpt lat="44.20136" lon="5.53693">
        <ele>808</ele>
        <time>2019-03-27T15:16:49Z</time>
      </trkpt>
      <trkpt lat="44.20143" lon="5.53694">
        <ele>808</ele>
        <time>2019-03-27T15:16:50Z</time>
      </trkpt>
      <trkpt lat="44.20149" lon="5.53693">
        <ele>808</ele>
        <time>2019-03-27T15:16:51Z</time>
      </trkpt>
      <trkpt lat="44.20155" lon="5.53693">
        <ele>808</ele>
        <time>2019-03-27T15:16:52Z</time>
      </trkpt>
      <trkpt lat="44.20161" lon="5.53692">
        <ele>808</ele>
        <time>2019-03-27T15:16:53Z</time>
      </trkpt>
      <trkpt lat="44.20168" lon="5.53691">
        <ele>808</ele>
        <time>2019-03-27T15:16:54Z</time>
      </trkpt>
      <trkpt lat="44.20174" lon="5.5369">
        <ele>808</ele>
        <time>2019-03-27T15:16:55Z</time>
      </trkpt>
      <trkpt lat="44.2018" lon="5.5369">
        <ele>808</ele>
        <time>2019-03-27T15:16:56Z</time>
      </trkpt>
      <trkpt lat="44.20186" lon="5.53689">
        <ele>808</ele>
        <time>2019-03-27T15:16:57Z</time>
      </trkpt>
      <trkpt lat="44.20193" lon="5.53689">
        <ele>808</ele>
        <time>2019-03-27T15:16:58Z</time>
      </trkpt>
      <trkpt lat="44.20199" lon="5.53689">
        <ele>808</ele>
        <time>2019-03-27T15:16:59Z</time>
      </trkpt>
      <trkpt lat="44.20206" lon="5.53689">
        <ele>808</ele>
        <time>2019-03-27T15:17:00Z</time>
      </trkpt>
      <trkpt lat="44.20212" lon="5.53689">
        <ele>808</ele>
        <time>2019-03-27T15:17:01Z</time>
      </trkpt>
      <trkpt lat="44.20219" lon="5.53688">
        <ele>808</ele>
        <time>2019-03-27T15:17:02Z</time>
      </trkpt>
      <trkpt lat="44.20225" lon="5.53688">
        <ele>808</ele>
        <time>2019-03-27T15:17:03Z</time>
      </trkpt>
      <trkpt lat="44.20232" lon="5.53687">
        <ele>808</ele>
        <time>2019-03-27T15:17:04Z</time>
      </trkpt>
      <trkpt lat="44.20238" lon="5.53687">
        <ele>808</ele>
        <time>2019-03-27T15:17:05Z</time>
      </trkpt>
      <trkpt lat="44.20245" lon="5.53686">
        <ele>808</ele>
        <time>2019-03-27T15:17:06Z</time>
      </trkpt>
      <trkpt lat="44.20252" lon="5.53685">
        <ele>808</ele>
        <time>2019-03-27T15:17:07Z</time>
      </trkpt>
      <trkpt lat="44.20259" lon="5.53684">
        <ele>808</ele>
        <time>2019-03-27T15:17:08Z</time>
      </trkpt>
      <trkpt lat="44.20266" lon="5.53683">
        <ele>808</ele>
        <time>2019-03-27T15:17:09Z</time>
      </trkpt>
      <trkpt lat="44.20272" lon="5.53682">
        <ele>808</ele>
        <time>2019-03-27T15:17:10Z</time>
      </trkpt>
      <trkpt lat="44.20279" lon="5.53681">
        <ele>808</ele>
        <time>2019-03-27T15:17:11Z</time>
      </trkpt>
      <trkpt lat="44.20284" lon="5.53681">
        <ele>808</ele>
        <time>2019-03-27T15:17:12Z</time>
      </trkpt>
      <trkpt lat="44.20289" lon="5.5368">
        <ele>808</ele>
        <time>2019-03-27T15:17:13Z</time>
      </trkpt>
      <trkpt lat="44.20294" lon="5.53678">
        <ele>808</ele>
        <time>2019-03-27T15:17:14Z</time>
      </trkpt>
      <trkpt lat="44.20299" lon="5.53676">
        <ele>808</ele>
        <time>2019-03-27T15:17:15Z</time>
      </trkpt>
      <trkpt lat="44.20305" lon="5.53673">
        <ele>807</ele>
        <time>2019-03-27T15:17:16Z</time>
      </trkpt>
      <trkpt lat="44.20311" lon="5.53671">
        <ele>807</ele>
        <time>2019-03-27T15:17:17Z</time>
      </trkpt>
      <trkpt lat="44.20317" lon="5.53669">
        <ele>807</ele>
        <time>2019-03-27T15:17:18Z</time>
      </trkpt>
      <trkpt lat="44.20323" lon="5.53666">
        <ele>807</ele>
        <time>2019-03-27T15:17:19Z</time>
      </trkpt>
      <trkpt lat="44.20329" lon="5.53664">
        <ele>807</ele>
        <time>2019-03-27T15:17:20Z</time>
      </trkpt>
      <trkpt lat="44.20335" lon="5.53661">
        <ele>807</ele>
        <time>2019-03-27T15:17:21Z</time>
      </trkpt>
      <trkpt lat="44.20341" lon="5.53658">
        <ele>807</ele>
        <time>2019-03-27T15:17:22Z</time>
      </trkpt>
      <trkpt lat="44.20346" lon="5.53654">
        <ele>807</ele>
        <time>2019-03-27T15:17:23Z</time>
      </trkpt>
      <trkpt lat="44.20352" lon="5.53651">
        <ele>807</ele>
        <time>2019-03-27T15:17:24Z</time>
      </trkpt>
      <trkpt lat="44.20357" lon="5.53648">
        <ele>806</ele>
        <time>2019-03-27T15:17:25Z</time>
      </trkpt>
      <trkpt lat="44.20362" lon="5.53645">
        <ele>806</ele>
        <time>2019-03-27T15:17:26Z</time>
      </trkpt>
      <trkpt lat="44.20367" lon="5.53643">
        <ele>806</ele>
        <time>2019-03-27T15:17:27Z</time>
      </trkpt>
      <trkpt lat="44.20372" lon="5.53642">
        <ele>806</ele>
        <time>2019-03-27T15:17:28Z</time>
      </trkpt>
      <trkpt lat="44.20378" lon="5.53641">
        <ele>806</ele>
        <time>2019-03-27T15:17:29Z</time>
      </trkpt>
      <trkpt lat="44.20383" lon="5.5364">
        <ele>806</ele>
        <time>2019-03-27T15:17:30Z</time>
      </trkpt>
      <trkpt lat="44.20389" lon="5.5364">
        <ele>806</ele>
        <time>2019-03-27T15:17:31Z</time>
      </trkpt>
      <trkpt lat="44.20394" lon="5.53639">
        <ele>806</ele>
        <time>2019-03-27T15:17:32Z</time>
      </trkpt>
      <trkpt lat="44.204" lon="5.53639">
        <ele>806</ele>
        <time>2019-03-27T15:17:33Z</time>
      </trkpt>
      <trkpt lat="44.20405" lon="5.53638">
        <ele>806</ele>
        <time>2019-03-27T15:17:34Z</time>
      </trkpt>
      <trkpt lat="44.2041" lon="5.53638">
        <ele>806</ele>
        <time>2019-03-27T15:17:35Z</time>
      </trkpt>
      <trkpt lat="44.20416" lon="5.53637">
        <ele>807</ele>
        <time>2019-03-27T15:17:36Z</time>
      </trkpt>
      <trkpt lat="44.20423" lon="5.53636">
        <ele>808</ele>
        <time>2019-03-27T15:17:37Z</time>
      </trkpt>
      <trkpt lat="44.20429" lon="5.53636">
        <ele>809</ele>
        <time>2019-03-27T15:17:38Z</time>
      </trkpt>
      <trkpt lat="44.20436" lon="5.53636">
        <ele>810</ele>
        <time>2019-03-27T15:17:39Z</time>
      </trkpt>
      <trkpt lat="44.20443" lon="5.53637">
        <ele>811</ele>
        <time>2019-03-27T15:17:40Z</time>
      </trkpt>
      <trkpt lat="44.20451" lon="5.53636">
        <ele>812</ele>
        <time>2019-03-27T15:17:41Z</time>
      </trkpt>
      <trkpt lat="44.20457" lon="5.53638">
        <ele>812</ele>
        <time>2019-03-27T15:17:42Z</time>
      </trkpt>
      <trkpt lat="44.20465" lon="5.5364">
        <ele>813</ele>
        <time>2019-03-27T15:17:43Z</time>
      </trkpt>
      <trkpt lat="44.20472" lon="5.53642">
        <ele>813</ele>
        <time>2019-03-27T15:17:44Z</time>
      </trkpt>
      <trkpt lat="44.20479" lon="5.53644">
        <ele>813</ele>
        <time>2019-03-27T15:17:45Z</time>
      </trkpt>
      <trkpt lat="44.20486" lon="5.53645">
        <ele>813</ele>
        <time>2019-03-27T15:17:46Z</time>
      </trkpt>
      <trkpt lat="44.20493" lon="5.53648">
        <ele>813</ele>
        <time>2019-03-27T15:17:47Z</time>
      </trkpt>
      <trkpt lat="44.205" lon="5.53653">
        <ele>813</ele>
        <time>2019-03-27T15:17:48Z</time>
      </trkpt>
      <trkpt lat="44.20507" lon="5.53659">
        <ele>813</ele>
        <time>2019-03-27T15:17:49Z</time>
      </trkpt>
      <trkpt lat="44.20515" lon="5.53663">
        <ele>812</ele>
        <time>2019-03-27T15:17:50Z</time>
      </trkpt>
      <trkpt lat="44.20523" lon="5.53669">
        <ele>811</ele>
        <time>2019-03-27T15:17:51Z</time>
      </trkpt>
      <trkpt lat="44.20531" lon="5.53674">
        <ele>810</ele>
        <time>2019-03-27T15:17:52Z</time>
      </trkpt>
      <trkpt lat="44.20538" lon="5.53678">
        <ele>809</ele>
        <time>2019-03-27T15:17:53Z</time>
      </trkpt>
      <trkpt lat="44.20546" lon="5.53681">
        <ele>808</ele>
        <time>2019-03-27T15:17:54Z</time>
      </trkpt>
      <trkpt lat="44.20554" lon="5.53685">
        <ele>807</ele>
        <time>2019-03-27T15:17:55Z</time>
      </trkpt>
      <trkpt lat="44.2056" lon="5.53687">
        <ele>807</ele>
        <time>2019-03-27T15:17:56Z</time>
      </trkpt>
      <trkpt lat="44.20566" lon="5.53689">
        <ele>806</ele>
        <time>2019-03-27T15:17:57Z</time>
      </trkpt>
      <trkpt lat="44.20572" lon="5.53688">
        <ele>805</ele>
        <time>2019-03-27T15:17:58Z</time>
      </trkpt>
      <trkpt lat="44.20578" lon="5.53687">
        <ele>805</ele>
        <time>2019-03-27T15:17:59Z</time>
      </trkpt>
      <trkpt lat="44.20584" lon="5.53684">
        <ele>804</ele>
        <time>2019-03-27T15:18:00Z</time>
      </trkpt>
      <trkpt lat="44.2059" lon="5.53682">
        <ele>803</ele>
        <time>2019-03-27T15:18:01Z</time>
      </trkpt>
      <trkpt lat="44.20596" lon="5.53679">
        <ele>803</ele>
        <time>2019-03-27T15:18:02Z</time>
      </trkpt>
      <trkpt lat="44.20602" lon="5.53677">
        <ele>803</ele>
        <time>2019-03-27T15:18:03Z</time>
      </trkpt>
      <trkpt lat="44.20607" lon="5.53673">
        <ele>802</ele>
        <time>2019-03-27T15:18:04Z</time>
      </trkpt>
      <trkpt lat="44.20613" lon="5.53671">
        <ele>802</ele>
        <time>2019-03-27T15:18:05Z</time>
      </trkpt>
      <trkpt lat="44.2062" lon="5.53668">
        <ele>802</ele>
        <time>2019-03-27T15:18:06Z</time>
      </trkpt>
      <trkpt lat="44.20626" lon="5.53666">
        <ele>802</ele>
        <time>2019-03-27T15:18:07Z</time>
      </trkpt>
      <trkpt lat="44.20633" lon="5.53665">
        <ele>801</ele>
        <time>2019-03-27T15:18:08Z</time>
      </trkpt>
      <trkpt lat="44.20639" lon="5.53663">
        <ele>801</ele>
        <time>2019-03-27T15:18:09Z</time>
      </trkpt>
      <trkpt lat="44.20646" lon="5.53661">
        <ele>801</ele>
        <time>2019-03-27T15:18:10Z</time>
      </trkpt>
      <trkpt lat="44.20652" lon="5.53658">
        <ele>800</ele>
        <time>2019-03-27T15:18:11Z</time>
      </trkpt>
      <trkpt lat="44.20658" lon="5.53656">
        <ele>800</ele>
        <time>2019-03-27T15:18:12Z</time>
      </trkpt>
      <trkpt lat="44.20665" lon="5.53654">
        <ele>799</ele>
        <time>2019-03-27T15:18:13Z</time>
      </trkpt>
      <trkpt lat="44.20671" lon="5.53652">
        <ele>799</ele>
        <time>2019-03-27T15:18:14Z</time>
      </trkpt>
      <trkpt lat="44.20678" lon="5.5365">
        <ele>798</ele>
        <time>2019-03-27T15:18:15Z</time>
      </trkpt>
      <trkpt lat="44.20685" lon="5.53649">
        <ele>798</ele>
        <time>2019-03-27T15:18:16Z</time>
      </trkpt>
      <trkpt lat="44.20692" lon="5.53648">
        <ele>798</ele>
        <time>2019-03-27T15:18:17Z</time>
      </trkpt>
      <trkpt lat="44.20699" lon="5.53648">
        <ele>798</ele>
        <time>2019-03-27T15:18:18Z</time>
      </trkpt>
      <trkpt lat="44.20705" lon="5.53649">
        <ele>798</ele>
        <time>2019-03-27T15:18:19Z</time>
      </trkpt>
      <trkpt lat="44.20712" lon="5.53649">
        <ele>798</ele>
        <time>2019-03-27T15:18:20Z</time>
      </trkpt>
      <trkpt lat="44.2072" lon="5.5365">
        <ele>798</ele>
        <time>2019-03-27T15:18:21Z</time>
      </trkpt>
      <trkpt lat="44.20726" lon="5.53651">
        <ele>798</ele>
        <time>2019-03-27T15:18:22Z</time>
      </trkpt>
      <trkpt lat="44.20734" lon="5.53652">
        <ele>798</ele>
        <time>2019-03-27T15:18:23Z</time>
      </trkpt>
      <trkpt lat="44.20741" lon="5.53654">
        <ele>798</ele>
        <time>2019-03-27T15:18:24Z</time>
      </trkpt>
      <trkpt lat="44.20748" lon="5.53657">
        <ele>798</ele>
        <time>2019-03-27T15:18:25Z</time>
      </trkpt>
      <trkpt lat="44.20755" lon="5.5366">
        <ele>798</ele>
        <time>2019-03-27T15:18:26Z</time>
      </trkpt>
      <trkpt lat="44.20763" lon="5.53663">
        <ele>798</ele>
        <time>2019-03-27T15:18:27Z</time>
      </trkpt>
      <trkpt lat="44.2077" lon="5.53665">
        <ele>798</ele>
        <time>2019-03-27T15:18:28Z</time>
      </trkpt>
      <trkpt lat="44.20778" lon="5.53667">
        <ele>798</ele>
        <time>2019-03-27T15:18:29Z</time>
      </trkpt>
      <trkpt lat="44.20786" lon="5.53669">
        <ele>798</ele>
        <time>2019-03-27T15:18:30Z</time>
      </trkpt>
      <trkpt lat="44.20793" lon="5.53669">
        <ele>798</ele>
        <time>2019-03-27T15:18:31Z</time>
      </trkpt>
      <trkpt lat="44.20801" lon="5.53669">
        <ele>797</ele>
        <time>2019-03-27T15:18:32Z</time>
      </trkpt>
      <trkpt lat="44.20809" lon="5.53668">
        <ele>797</ele>
        <time>2019-03-27T15:18:33Z</time>
      </trkpt>
      <trkpt lat="44.20817" lon="5.53666">
        <ele>797</ele>
        <time>2019-03-27T15:18:34Z</time>
      </trkpt>
      <trkpt lat="44.20825" lon="5.53665">
        <ele>797</ele>
        <time>2019-03-27T15:18:35Z</time>
      </trkpt>
      <trkpt lat="44.20833" lon="5.53663">
        <ele>797</ele>
        <time>2019-03-27T15:18:36Z</time>
      </trkpt>
      <trkpt lat="44.20841" lon="5.53662">
        <ele>796</ele>
        <time>2019-03-27T15:18:37Z</time>
      </trkpt>
      <trkpt lat="44.20848" lon="5.5366">
        <ele>796</ele>
        <time>2019-03-27T15:18:38Z</time>
      </trkpt>
      <trkpt lat="44.20856" lon="5.53659">
        <ele>796</ele>
        <time>2019-03-27T15:18:39Z</time>
      </trkpt>
      <trkpt lat="44.20863" lon="5.53657">
        <ele>796</ele>
        <time>2019-03-27T15:18:40Z</time>
      </trkpt>
      <trkpt lat="44.2087" lon="5.53655">
        <ele>796</ele>
        <time>2019-03-27T15:18:41Z</time>
      </trkpt>
      <trkpt lat="44.20877" lon="5.53653">
        <ele>796</ele>
        <time>2019-03-27T15:18:42Z</time>
      </trkpt>
      <trkpt lat="44.20883" lon="5.53652">
        <ele>796</ele>
        <time>2019-03-27T15:18:43Z</time>
      </trkpt>
      <trkpt lat="44.2089" lon="5.53651">
        <ele>796</ele>
        <time>2019-03-27T15:18:44Z</time>
      </trkpt>
      <trkpt lat="44.20896" lon="5.53651">
        <ele>796</ele>
        <time>2019-03-27T15:18:45Z</time>
      </trkpt>
      <trkpt lat="44.20903" lon="5.53651">
        <ele>796</ele>
        <time>2019-03-27T15:18:46Z</time>
      </trkpt>
      <trkpt lat="44.2091" lon="5.53652">
        <ele>796</ele>
        <time>2019-03-27T15:18:47Z</time>
      </trkpt>
      <trkpt lat="44.20916" lon="5.53656">
        <ele>796</ele>
        <time>2019-03-27T15:18:48Z</time>
      </trkpt>
      <trkpt lat="44.20922" lon="5.53661">
        <ele>796</ele>
        <time>2019-03-27T15:18:49Z</time>
      </trkpt>
      <trkpt lat="44.20927" lon="5.53667">
        <ele>796</ele>
        <time>2019-03-27T15:18:50Z</time>
      </trkpt>
      <trkpt lat="44.20932" lon="5.53674">
        <ele>796</ele>
        <time>2019-03-27T15:18:51Z</time>
      </trkpt>
      <trkpt lat="44.20935" lon="5.53682">
        <ele>796</ele>
        <time>2019-03-27T15:18:52Z</time>
      </trkpt>
      <trkpt lat="44.20939" lon="5.5369">
        <ele>796</ele>
        <time>2019-03-27T15:18:53Z</time>
      </trkpt>
      <trkpt lat="44.20942" lon="5.53698">
        <ele>796</ele>
        <time>2019-03-27T15:18:54Z</time>
      </trkpt>
      <trkpt lat="44.20945" lon="5.53706">
        <ele>796</ele>
        <time>2019-03-27T15:18:55Z</time>
      </trkpt>
      <trkpt lat="44.20948" lon="5.53714">
        <ele>796</ele>
        <time>2019-03-27T15:18:56Z</time>
      </trkpt>
      <trkpt lat="44.2095" lon="5.53722">
        <ele>796</ele>
        <time>2019-03-27T15:18:57Z</time>
      </trkpt>
      <trkpt lat="44.20953" lon="5.53729">
        <ele>796</ele>
        <time>2019-03-27T15:18:58Z</time>
      </trkpt>
      <trkpt lat="44.20955" lon="5.53737">
        <ele>796</ele>
        <time>2019-03-27T15:18:59Z</time>
      </trkpt>
      <trkpt lat="44.20958" lon="5.53746">
        <ele>796</ele>
        <time>2019-03-27T15:19:00Z</time>
      </trkpt>
      <trkpt lat="44.20961" lon="5.53754">
        <ele>796</ele>
        <time>2019-03-27T15:19:01Z</time>
      </trkpt>
      <trkpt lat="44.20964" lon="5.53761">
        <ele>796</ele>
        <time>2019-03-27T15:19:02Z</time>
      </trkpt>
      <trkpt lat="44.20967" lon="5.53769">
        <ele>796</ele>
        <time>2019-03-27T15:19:03Z</time>
      </trkpt>
      <trkpt lat="44.20971" lon="5.53777">
        <ele>796</ele>
        <time>2019-03-27T15:19:04Z</time>
      </trkpt>
      <trkpt lat="44.20974" lon="5.53785">
        <ele>796</ele>
        <time>2019-03-27T15:19:05Z</time>
      </trkpt>
      <trkpt lat="44.20977" lon="5.53792">
        <ele>796</ele>
        <time>2019-03-27T15:19:06Z</time>
      </trkpt>
      <trkpt lat="44.2098" lon="5.538">
        <ele>796</ele>
        <time>2019-03-27T15:19:07Z</time>
      </trkpt>
      <trkpt lat="44.20984" lon="5.53807">
        <ele>796</ele>
        <time>2019-03-27T15:19:08Z</time>
      </trkpt>
      <trkpt lat="44.20988" lon="5.53814">
        <ele>796</ele>
        <time>2019-03-27T15:19:09Z</time>
      </trkpt>
      <trkpt lat="44.20992" lon="5.53821">
        <ele>796</ele>
        <time>2019-03-27T15:19:10Z</time>
      </trkpt>
      <trkpt lat="44.20996" lon="5.53828">
        <ele>796</ele>
        <time>2019-03-27T15:19:11Z</time>
      </trkpt>
      <trkpt lat="44.21001" lon="5.53834">
        <ele>796</ele>
        <time>2019-03-27T15:19:12Z</time>
      </trkpt>
      <trkpt lat="44.21005" lon="5.53841">
        <ele>795</ele>
        <time>2019-03-27T15:19:13Z</time>
      </trkpt>
      <trkpt lat="44.2101" lon="5.53847">
        <ele>795</ele>
        <time>2019-03-27T15:19:14Z</time>
      </trkpt>
      <trkpt lat="44.21014" lon="5.53853">
        <ele>795</ele>
        <time>2019-03-27T15:19:15Z</time>
      </trkpt>
      <trkpt lat="44.21019" lon="5.5386">
        <ele>795</ele>
        <time>2019-03-27T15:19:16Z</time>
      </trkpt>
      <trkpt lat="44.21024" lon="5.53866">
        <ele>795</ele>
        <time>2019-03-27T15:19:17Z</time>
      </trkpt>
      <trkpt lat="44.21029" lon="5.53872">
        <ele>795</ele>
        <time>2019-03-27T15:19:18Z</time>
      </trkpt>
      <trkpt lat="44.21034" lon="5.53877">
        <ele>795</ele>
        <time>2019-03-27T15:19:19Z</time>
      </trkpt>
      <trkpt lat="44.21039" lon="5.53883">
        <ele>795</ele>
        <time>2019-03-27T15:19:20Z</time>
      </trkpt>
      <trkpt lat="44.21045" lon="5.53888">
        <ele>794</ele>
        <time>2019-03-27T15:19:21Z</time>
      </trkpt>
      <trkpt lat="44.2105" lon="5.53893">
        <ele>794</ele>
        <time>2019-03-27T15:19:22Z</time>
      </trkpt>
      <trkpt lat="44.21056" lon="5.53898">
        <ele>794</ele>
        <time>2019-03-27T15:19:23Z</time>
      </trkpt>
      <trkpt lat="44.21062" lon="5.53902">
        <ele>794</ele>
        <time>2019-03-27T15:19:24Z</time>
      </trkpt>
      <trkpt lat="44.21068" lon="5.53907">
        <ele>794</ele>
        <time>2019-03-27T15:19:25Z</time>
      </trkpt>
      <trkpt lat="44.21074" lon="5.53911">
        <ele>794</ele>
        <time>2019-03-27T15:19:26Z</time>
      </trkpt>
      <trkpt lat="44.2108" lon="5.53914">
        <ele>793</ele>
        <time>2019-03-27T15:19:27Z</time>
      </trkpt>
      <trkpt lat="44.21086" lon="5.53918">
        <ele>793</ele>
        <time>2019-03-27T15:19:28Z</time>
      </trkpt>
      <trkpt lat="44.21092" lon="5.53922">
        <ele>793</ele>
        <time>2019-03-27T15:19:29Z</time>
      </trkpt>
      <trkpt lat="44.21098" lon="5.53926">
        <ele>793</ele>
        <time>2019-03-27T15:19:30Z</time>
      </trkpt>
      <trkpt lat="44.21105" lon="5.53929">
        <ele>792</ele>
        <time>2019-03-27T15:19:31Z</time>
      </trkpt>
      <trkpt lat="44.21111" lon="5.53933">
        <ele>792</ele>
        <time>2019-03-27T15:19:32Z</time>
      </trkpt>
      <trkpt lat="44.21118" lon="5.53936">
        <ele>792</ele>
        <time>2019-03-27T15:19:33Z</time>
      </trkpt>
      <trkpt lat="44.21125" lon="5.53939">
        <ele>792</ele>
        <time>2019-03-27T15:19:34Z</time>
      </trkpt>
      <trkpt lat="44.21131" lon="5.53942">
        <ele>792</ele>
        <time>2019-03-27T15:19:35Z</time>
      </trkpt>
      <trkpt lat="44.21138" lon="5.53946">
        <ele>791</ele>
        <time>2019-03-27T15:19:36Z</time>
      </trkpt>
      <trkpt lat="44.21145" lon="5.5395">
        <ele>791</ele>
        <time>2019-03-27T15:19:37Z</time>
      </trkpt>
      <trkpt lat="44.21151" lon="5.53953">
        <ele>791</ele>
        <time>2019-03-27T15:19:38Z</time>
      </trkpt>
      <trkpt lat="44.21158" lon="5.53957">
        <ele>791</ele>
        <time>2019-03-27T15:19:39Z</time>
      </trkpt>
      <trkpt lat="44.21165" lon="5.53961">
        <ele>790</ele>
        <time>2019-03-27T15:19:40Z</time>
      </trkpt>
      <trkpt lat="44.21172" lon="5.53965">
        <ele>790</ele>
        <time>2019-03-27T15:19:41Z</time>
      </trkpt>
      <trkpt lat="44.21179" lon="5.53968">
        <ele>790</ele>
        <time>2019-03-27T15:19:42Z</time>
      </trkpt>
      <trkpt lat="44.21186" lon="5.53972">
        <ele>790</ele>
        <time>2019-03-27T15:19:43Z</time>
      </trkpt>
      <trkpt lat="44.21193" lon="5.53976">
        <ele>790</ele>
        <time>2019-03-27T15:19:44Z</time>
      </trkpt>
      <trkpt lat="44.21199" lon="5.5398">
        <ele>789</ele>
        <time>2019-03-27T15:19:45Z</time>
      </trkpt>
      <trkpt lat="44.21207" lon="5.53984">
        <ele>789</ele>
        <time>2019-03-27T15:19:46Z</time>
      </trkpt>
      <trkpt lat="44.21213" lon="5.53988">
        <ele>789</ele>
        <time>2019-03-27T15:19:47Z</time>
      </trkpt>
      <trkpt lat="44.2122" lon="5.53992">
        <ele>789</ele>
        <time>2019-03-27T15:19:48Z</time>
      </trkpt>
      <trkpt lat="44.21227" lon="5.53996">
        <ele>789</ele>
        <time>2019-03-27T15:19:49Z</time>
      </trkpt>
      <trkpt lat="44.21234" lon="5.53999">
        <ele>789</ele>
        <time>2019-03-27T15:19:50Z</time>
      </trkpt>
      <trkpt lat="44.21241" lon="5.54003">
        <ele>788</ele>
        <time>2019-03-27T15:19:51Z</time>
      </trkpt>
      <trkpt lat="44.21247" lon="5.54006">
        <ele>788</ele>
        <time>2019-03-27T15:19:52Z</time>
      </trkpt>
      <trkpt lat="44.21254" lon="5.5401">
        <ele>788</ele>
        <time>2019-03-27T15:19:53Z</time>
      </trkpt>
      <trkpt lat="44.2126" lon="5.54013">
        <ele>788</ele>
        <time>2019-03-27T15:19:54Z</time>
      </trkpt>
      <trkpt lat="44.21267" lon="5.54017">
        <ele>788</ele>
        <time>2019-03-27T15:19:55Z</time>
      </trkpt>
      <trkpt lat="44.21274" lon="5.54021">
        <ele>787</ele>
        <time>2019-03-27T15:19:56Z</time>
      </trkpt>
      <trkpt lat="44.21281" lon="5.54025">
        <ele>787</ele>
        <time>2019-03-27T15:19:57Z</time>
      </trkpt>
      <trkpt lat="44.21288" lon="5.54029">
        <ele>787</ele>
        <time>2019-03-27T15:19:58Z</time>
      </trkpt>
      <trkpt lat="44.21295" lon="5.54034">
        <ele>787</ele>
        <time>2019-03-27T15:19:59Z</time>
      </trkpt>
      <trkpt lat="44.21302" lon="5.54039">
        <ele>786</ele>
        <time>2019-03-27T15:20:00Z</time>
      </trkpt>
      <trkpt lat="44.21309" lon="5.54044">
        <ele>786</ele>
        <time>2019-03-27T15:20:01Z</time>
      </trkpt>
      <trkpt lat="44.21316" lon="5.54049">
        <ele>786</ele>
        <time>2019-03-27T15:20:02Z</time>
      </trkpt>
      <trkpt lat="44.21323" lon="5.54055">
        <ele>786</ele>
        <time>2019-03-27T15:20:03Z</time>
      </trkpt>
      <trkpt lat="44.2133" lon="5.54062">
        <ele>786</ele>
        <time>2019-03-27T15:20:04Z</time>
      </trkpt>
      <trkpt lat="44.21337" lon="5.54069">
        <ele>786</ele>
        <time>2019-03-27T15:20:05Z</time>
      </trkpt>
      <trkpt lat="44.21343" lon="5.54076">
        <ele>785</ele>
        <time>2019-03-27T15:20:06Z</time>
      </trkpt>
      <trkpt lat="44.2135" lon="5.54083">
        <ele>785</ele>
        <time>2019-03-27T15:20:07Z</time>
      </trkpt>
      <trkpt lat="44.21356" lon="5.54091">
        <ele>785</ele>
        <time>2019-03-27T15:20:08Z</time>
      </trkpt>
      <trkpt lat="44.21363" lon="5.54099">
        <ele>785</ele>
        <time>2019-03-27T15:20:09Z</time>
      </trkpt>
      <trkpt lat="44.21369" lon="5.54106">
        <ele>785</ele>
        <time>2019-03-27T15:20:10Z</time>
      </trkpt>
      <trkpt lat="44.21376" lon="5.54113">
        <ele>785</ele>
        <time>2019-03-27T15:20:11Z</time>
      </trkpt>
      <trkpt lat="44.21382" lon="5.54121">
        <ele>785</ele>
        <time>2019-03-27T15:20:12Z</time>
      </trkpt>
      <trkpt lat="44.21388" lon="5.54128">
        <ele>784</ele>
        <time>2019-03-27T15:20:13Z</time>
      </trkpt>
      <trkpt lat="44.21395" lon="5.54136">
        <ele>784</ele>
        <time>2019-03-27T15:20:14Z</time>
      </trkpt>
      <trkpt lat="44.21401" lon="5.54143">
        <ele>784</ele>
        <time>2019-03-27T15:20:15Z</time>
      </trkpt>
      <trkpt lat="44.21408" lon="5.54151">
        <ele>784</ele>
        <time>2019-03-27T15:20:16Z</time>
      </trkpt>
      <trkpt lat="44.21414" lon="5.54158">
        <ele>784</ele>
        <time>2019-03-27T15:20:17Z</time>
      </trkpt>
      <trkpt lat="44.21421" lon="5.54166">
        <ele>783</ele>
        <time>2019-03-27T15:20:18Z</time>
      </trkpt>
      <trkpt lat="44.21428" lon="5.54174">
        <ele>783</ele>
        <time>2019-03-27T15:20:19Z</time>
      </trkpt>
      <trkpt lat="44.21434" lon="5.54181">
        <ele>783</ele>
        <time>2019-03-27T15:20:20Z</time>
      </trkpt>
      <trkpt lat="44.21441" lon="5.54189">
        <ele>783</ele>
        <time>2019-03-27T15:20:21Z</time>
      </trkpt>
      <trkpt lat="44.21447" lon="5.54197">
        <ele>783</ele>
        <time>2019-03-27T15:20:22Z</time>
      </trkpt>
      <trkpt lat="44.21454" lon="5.54204">
        <ele>782</ele>
        <time>2019-03-27T15:20:23Z</time>
      </trkpt>
      <trkpt lat="44.2146" lon="5.54212">
        <ele>782</ele>
        <time>2019-03-27T15:20:24Z</time>
      </trkpt>
      <trkpt lat="44.21466" lon="5.5422">
        <ele>782</ele>
        <time>2019-03-27T15:20:25Z</time>
      </trkpt>
      <trkpt lat="44.21472" lon="5.54227">
        <ele>782</ele>
        <time>2019-03-27T15:20:26Z</time>
      </trkpt>
      <trkpt lat="44.21478" lon="5.54235">
        <ele>782</ele>
        <time>2019-03-27T15:20:27Z</time>
      </trkpt>
      <trkpt lat="44.21484" lon="5.54242">
        <ele>782</ele>
        <time>2019-03-27T15:20:28Z</time>
      </trkpt>
      <trkpt lat="44.2149" lon="5.54249">
        <ele>781</ele>
        <time>2019-03-27T15:20:29Z</time>
      </trkpt>
      <trkpt lat="44.21495" lon="5.54257">
        <ele>781</ele>
        <time>2019-03-27T15:20:30Z</time>
      </trkpt>
      <trkpt lat="44.21501" lon="5.54264">
        <ele>781</ele>
        <time>2019-03-27T15:20:31Z</time>
      </trkpt>
      <trkpt lat="44.21507" lon="5.54271">
        <ele>781</ele>
        <time>2019-03-27T15:20:32Z</time>
      </trkpt>
      <trkpt lat="44.21512" lon="5.54277">
        <ele>781</ele>
        <time>2019-03-27T15:20:33Z</time>
      </trkpt>
      <trkpt lat="44.21518" lon="5.54284">
        <ele>781</ele>
        <time>2019-03-27T15:20:34Z</time>
      </trkpt>
      <trkpt lat="44.21523" lon="5.5429">
        <ele>781</ele>
        <time>2019-03-27T15:20:35Z</time>
      </trkpt>
      <trkpt lat="44.21528" lon="5.54296">
        <ele>781</ele>
        <time>2019-03-27T15:20:36Z</time>
      </trkpt>
      <trkpt lat="44.21534" lon="5.54302">
        <ele>781</ele>
        <time>2019-03-27T15:20:37Z</time>
      </trkpt>
      <trkpt lat="44.21539" lon="5.54309">
        <ele>781</ele>
        <time>2019-03-27T15:20:38Z</time>
      </trkpt>
      <trkpt lat="44.21544" lon="5.54315">
        <ele>781</ele>
        <time>2019-03-27T15:20:39Z</time>
      </trkpt>
      <trkpt lat="44.2155" lon="5.54321">
        <ele>781</ele>
        <time>2019-03-27T15:20:40Z</time>
      </trkpt>
      <trkpt lat="44.21555" lon="5.54327">
        <ele>781</ele>
        <time>2019-03-27T15:20:41Z</time>
      </trkpt>
      <trkpt lat="44.2156" lon="5.54333">
        <ele>781</ele>
        <time>2019-03-27T15:20:42Z</time>
      </trkpt>
      <trkpt lat="44.21566" lon="5.54339">
        <ele>781</ele>
        <time>2019-03-27T15:20:43Z</time>
      </trkpt>
      <trkpt lat="44.21571" lon="5.54344">
        <ele>781</ele>
        <time>2019-03-27T15:20:44Z</time>
      </trkpt>
      <trkpt lat="44.21577" lon="5.54349">
        <ele>780</ele>
        <time>2019-03-27T15:20:45Z</time>
      </trkpt>
      <trkpt lat="44.21583" lon="5.54353">
        <ele>780</ele>
        <time>2019-03-27T15:20:46Z</time>
      </trkpt>
      <trkpt lat="44.21589" lon="5.54357">
        <ele>780</ele>
        <time>2019-03-27T15:20:47Z</time>
      </trkpt>
      <trkpt lat="44.21596" lon="5.5436">
        <ele>780</ele>
        <time>2019-03-27T15:20:48Z</time>
      </trkpt>
      <trkpt lat="44.21602" lon="5.54362">
        <ele>780</ele>
        <time>2019-03-27T15:20:49Z</time>
      </trkpt>
      <trkpt lat="44.21609" lon="5.54365">
        <ele>780</ele>
        <time>2019-03-27T15:20:50Z</time>
      </trkpt>
      <trkpt lat="44.21616" lon="5.54367">
        <ele>779</ele>
        <time>2019-03-27T15:20:51Z</time>
      </trkpt>
      <trkpt lat="44.21623" lon="5.5437">
        <ele>779</ele>
        <time>2019-03-27T15:20:52Z</time>
      </trkpt>
      <trkpt lat="44.2163" lon="5.54373">
        <ele>779</ele>
        <time>2019-03-27T15:20:53Z</time>
      </trkpt>
      <trkpt lat="44.21637" lon="5.54376">
        <ele>779</ele>
        <time>2019-03-27T15:20:54Z</time>
      </trkpt>
      <trkpt lat="44.21643" lon="5.5438">
        <ele>779</ele>
        <time>2019-03-27T15:20:55Z</time>
      </trkpt>
      <trkpt lat="44.21649" lon="5.54384">
        <ele>778</ele>
        <time>2019-03-27T15:20:56Z</time>
      </trkpt>
      <trkpt lat="44.21655" lon="5.54389">
        <ele>778</ele>
        <time>2019-03-27T15:20:57Z</time>
      </trkpt>
      <trkpt lat="44.21661" lon="5.54394">
        <ele>778</ele>
        <time>2019-03-27T15:20:58Z</time>
      </trkpt>
      <trkpt lat="44.21667" lon="5.544">
        <ele>778</ele>
        <time>2019-03-27T15:20:59Z</time>
      </trkpt>
      <trkpt lat="44.21672" lon="5.54407">
        <ele>778</ele>
        <time>2019-03-27T15:21:00Z</time>
      </trkpt>
      <trkpt lat="44.21677" lon="5.54414">
        <ele>778</ele>
        <time>2019-03-27T15:21:01Z</time>
      </trkpt>
      <trkpt lat="44.21682" lon="5.54421">
        <ele>778</ele>
        <time>2019-03-27T15:21:02Z</time>
      </trkpt>
      <trkpt lat="44.21686" lon="5.54428">
        <ele>778</ele>
        <time>2019-03-27T15:21:03Z</time>
      </trkpt>
      <trkpt lat="44.2169" lon="5.54435">
        <ele>778</ele>
        <time>2019-03-27T15:21:04Z</time>
      </trkpt>
      <trkpt lat="44.21694" lon="5.54444">
        <ele>778</ele>
        <time>2019-03-27T15:21:05Z</time>
      </trkpt>
      <trkpt lat="44.21698" lon="5.54452">
        <ele>778</ele>
        <time>2019-03-27T15:21:06Z</time>
      </trkpt>
      <trkpt lat="44.21702" lon="5.5446">
        <ele>778</ele>
        <time>2019-03-27T15:21:07Z</time>
      </trkpt>
      <trkpt lat="44.21706" lon="5.54469">
        <ele>778</ele>
        <time>2019-03-27T15:21:08Z</time>
      </trkpt>
      <trkpt lat="44.21709" lon="5.54478">
        <ele>778</ele>
        <time>2019-03-27T15:21:09Z</time>
      </trkpt>
      <trkpt lat="44.21712" lon="5.54487">
        <ele>778</ele>
        <time>2019-03-27T15:21:10Z</time>
      </trkpt>
      <trkpt lat="44.21714" lon="5.54495">
        <ele>778</ele>
        <time>2019-03-27T15:21:11Z</time>
      </trkpt>
      <trkpt lat="44.21717" lon="5.54504">
        <ele>778</ele>
        <time>2019-03-27T15:21:12Z</time>
      </trkpt>
      <trkpt lat="44.21719" lon="5.54513">
        <ele>778</ele>
        <time>2019-03-27T15:21:13Z</time>
      </trkpt>
      <trkpt lat="44.21722" lon="5.54521">
        <ele>778</ele>
        <time>2019-03-27T15:21:14Z</time>
      </trkpt>
      <trkpt lat="44.21725" lon="5.54529">
        <ele>778</ele>
        <time>2019-03-27T15:21:15Z</time>
      </trkpt>
      <trkpt lat="44.21727" lon="5.54537">
        <ele>778</ele>
        <time>2019-03-27T15:21:16Z</time>
      </trkpt>
      <trkpt lat="44.21731" lon="5.54545">
        <ele>778</ele>
        <time>2019-03-27T15:21:17Z</time>
      </trkpt>
      <trkpt lat="44.21734" lon="5.54553">
        <ele>778</ele>
        <time>2019-03-27T15:21:18Z</time>
      </trkpt>
      <trkpt lat="44.21737" lon="5.54561">
        <ele>778</ele>
        <time>2019-03-27T15:21:19Z</time>
      </trkpt>
      <trkpt lat="44.2174" lon="5.54569">
        <ele>778</ele>
        <time>2019-03-27T15:21:20Z</time>
      </trkpt>
      <trkpt lat="44.21743" lon="5.54576">
        <ele>778</ele>
        <time>2019-03-27T15:21:21Z</time>
      </trkpt>
      <trkpt lat="44.21746" lon="5.54584">
        <ele>778</ele>
        <time>2019-03-27T15:21:22Z</time>
      </trkpt>
      <trkpt lat="44.21749" lon="5.54592">
        <ele>778</ele>
        <time>2019-03-27T15:21:23Z</time>
      </trkpt>
      <trkpt lat="44.21752" lon="5.546">
        <ele>778</ele>
        <time>2019-03-27T15:21:24Z</time>
      </trkpt>
      <trkpt lat="44.21755" lon="5.54608">
        <ele>778</ele>
        <time>2019-03-27T15:21:25Z</time>
      </trkpt>
      <trkpt lat="44.21758" lon="5.54615">
        <ele>778</ele>
        <time>2019-03-27T15:21:26Z</time>
      </trkpt>
      <trkpt lat="44.21762" lon="5.54623">
        <ele>778</ele>
        <time>2019-03-27T15:21:27Z</time>
      </trkpt>
      <trkpt lat="44.21765" lon="5.54631">
        <ele>778</ele>
        <time>2019-03-27T15:21:28Z</time>
      </trkpt>
      <trkpt lat="44.21768" lon="5.54638">
        <ele>778</ele>
        <time>2019-03-27T15:21:29Z</time>
      </trkpt>
      <trkpt lat="44.2177" lon="5.54646">
        <ele>778</ele>
        <time>2019-03-27T15:21:30Z</time>
      </trkpt>
      <trkpt lat="44.21774" lon="5.54653">
        <ele>778</ele>
        <time>2019-03-27T15:21:31Z</time>
      </trkpt>
      <trkpt lat="44.21777" lon="5.5466">
        <ele>778</ele>
        <time>2019-03-27T15:21:32Z</time>
      </trkpt>
      <trkpt lat="44.2178" lon="5.54668">
        <ele>778</ele>
        <time>2019-03-27T15:21:33Z</time>
      </trkpt>
      <trkpt lat="44.21783" lon="5.54674">
        <ele>778</ele>
        <time>2019-03-27T15:21:34Z</time>
      </trkpt>
      <trkpt lat="44.21785" lon="5.54681">
        <ele>778</ele>
        <time>2019-03-27T15:21:35Z</time>
      </trkpt>
      <trkpt lat="44.21788" lon="5.54688">
        <ele>778</ele>
        <time>2019-03-27T15:21:36Z</time>
      </trkpt>
      <trkpt lat="44.21791" lon="5.54695">
        <ele>778</ele>
        <time>2019-03-27T15:21:37Z</time>
      </trkpt>
      <trkpt lat="44.21794" lon="5.54702">
        <ele>778</ele>
        <time>2019-03-27T15:21:38Z</time>
      </trkpt>
      <trkpt lat="44.21796" lon="5.54709">
        <ele>778</ele>
        <time>2019-03-27T15:21:39Z</time>
      </trkpt>
      <trkpt lat="44.21799" lon="5.54717">
        <ele>778</ele>
        <time>2019-03-27T15:21:40Z</time>
      </trkpt>
      <trkpt lat="44.21802" lon="5.54724">
        <ele>778</ele>
        <time>2019-03-27T15:21:41Z</time>
      </trkpt>
      <trkpt lat="44.21804" lon="5.54731">
        <ele>778</ele>
        <time>2019-03-27T15:21:42Z</time>
      </trkpt>
      <trkpt lat="44.21807" lon="5.54739">
        <ele>778</ele>
        <time>2019-03-27T15:21:43Z</time>
      </trkpt>
      <trkpt lat="44.21809" lon="5.54746">
        <ele>778</ele>
        <time>2019-03-27T15:21:44Z</time>
      </trkpt>
      <trkpt lat="44.21812" lon="5.54753">
        <ele>778</ele>
        <time>2019-03-27T15:21:45Z</time>
      </trkpt>
      <trkpt lat="44.21815" lon="5.54761">
        <ele>778</ele>
        <time>2019-03-27T15:21:46Z</time>
      </trkpt>
      <trkpt lat="44.21818" lon="5.54768">
        <ele>778</ele>
        <time>2019-03-27T15:21:47Z</time>
      </trkpt>
      <trkpt lat="44.2182" lon="5.54775">
        <ele>778</ele>
        <time>2019-03-27T15:21:48Z</time>
      </trkpt>
      <trkpt lat="44.21823" lon="5.54783">
        <ele>778</ele>
        <time>2019-03-27T15:21:49Z</time>
      </trkpt>
      <trkpt lat="44.21826" lon="5.5479">
        <ele>778</ele>
        <time>2019-03-27T15:21:50Z</time>
      </trkpt>
      <trkpt lat="44.21828" lon="5.54798">
        <ele>778</ele>
        <time>2019-03-27T15:21:51Z</time>
      </trkpt>
      <trkpt lat="44.21831" lon="5.54805">
        <ele>778</ele>
        <time>2019-03-27T15:21:52Z</time>
      </trkpt>
      <trkpt lat="44.21834" lon="5.54813">
        <ele>778</ele>
        <time>2019-03-27T15:21:53Z</time>
      </trkpt>
      <trkpt lat="44.21837" lon="5.54821">
        <ele>778</ele>
        <time>2019-03-27T15:21:54Z</time>
      </trkpt>
      <trkpt lat="44.2184" lon="5.54829">
        <ele>778</ele>
        <time>2019-03-27T15:21:55Z</time>
      </trkpt>
      <trkpt lat="44.21843" lon="5.54837">
        <ele>778</ele>
        <time>2019-03-27T15:21:56Z</time>
      </trkpt>
      <trkpt lat="44.21846" lon="5.54845">
        <ele>778</ele>
        <time>2019-03-27T15:21:57Z</time>
      </trkpt>
      <trkpt lat="44.21849" lon="5.54854">
        <ele>778</ele>
        <time>2019-03-27T15:21:58Z</time>
      </trkpt>
      <trkpt lat="44.21852" lon="5.54863">
        <ele>778</ele>
        <time>2019-03-27T15:21:59Z</time>
      </trkpt>
      <trkpt lat="44.21856" lon="5.54872">
        <ele>778</ele>
        <time>2019-03-27T15:22:00Z</time>
      </trkpt>
      <trkpt lat="44.21859" lon="5.54881">
        <ele>778</ele>
        <time>2019-03-27T15:22:01Z</time>
      </trkpt>
      <trkpt lat="44.21862" lon="5.5489">
        <ele>778</ele>
        <time>2019-03-27T15:22:02Z</time>
      </trkpt>
      <trkpt lat="44.21866" lon="5.549">
        <ele>778</ele>
        <time>2019-03-27T15:22:03Z</time>
      </trkpt>
      <trkpt lat="44.21869" lon="5.5491">
        <ele>778</ele>
        <time>2019-03-27T15:22:04Z</time>
      </trkpt>
      <trkpt lat="44.21873" lon="5.54919">
        <ele>778</ele>
        <time>2019-03-27T15:22:05Z</time>
      </trkpt>
      <trkpt lat="44.21877" lon="5.54929">
        <ele>778</ele>
        <time>2019-03-27T15:22:06Z</time>
      </trkpt>
      <trkpt lat="44.2188" lon="5.54939">
        <ele>778</ele>
        <time>2019-03-27T15:22:07Z</time>
      </trkpt>
      <trkpt lat="44.21884" lon="5.5495">
        <ele>778</ele>
        <time>2019-03-27T15:22:08Z</time>
      </trkpt>
      <trkpt lat="44.21888" lon="5.5496">
        <ele>778</ele>
        <time>2019-03-27T15:22:09Z</time>
      </trkpt>
      <trkpt lat="44.21892" lon="5.5497">
        <ele>778</ele>
        <time>2019-03-27T15:22:10Z</time>
      </trkpt>
      <trkpt lat="44.21896" lon="5.54981">
        <ele>778</ele>
        <time>2019-03-27T15:22:11Z</time>
      </trkpt>
      <trkpt lat="44.21901" lon="5.54991">
        <ele>777</ele>
        <time>2019-03-27T15:22:12Z</time>
      </trkpt>
      <trkpt lat="44.21905" lon="5.55002">
        <ele>777</ele>
        <time>2019-03-27T15:22:13Z</time>
      </trkpt>
      <trkpt lat="44.21909" lon="5.55012">
        <ele>777</ele>
        <time>2019-03-27T15:22:14Z</time>
      </trkpt>
      <trkpt lat="44.21913" lon="5.55023">
        <ele>777</ele>
        <time>2019-03-27T15:22:15Z</time>
      </trkpt>
      <trkpt lat="44.21917" lon="5.55034">
        <ele>776</ele>
        <time>2019-03-27T15:22:16Z</time>
      </trkpt>
      <trkpt lat="44.2192" lon="5.55045">
        <ele>776</ele>
        <time>2019-03-27T15:22:17Z</time>
      </trkpt>
      <trkpt lat="44.21924" lon="5.55056">
        <ele>776</ele>
        <time>2019-03-27T15:22:18Z</time>
      </trkpt>
      <trkpt lat="44.21928" lon="5.55067">
        <ele>775</ele>
        <time>2019-03-27T15:22:19Z</time>
      </trkpt>
      <trkpt lat="44.21933" lon="5.55078">
        <ele>775</ele>
        <time>2019-03-27T15:22:20Z</time>
      </trkpt>
      <trkpt lat="44.21937" lon="5.55089">
        <ele>775</ele>
        <time>2019-03-27T15:22:21Z</time>
      </trkpt>
      <trkpt lat="44.21941" lon="5.551">
        <ele>774</ele>
        <time>2019-03-27T15:22:22Z</time>
      </trkpt>
      <trkpt lat="44.21944" lon="5.55112">
        <ele>774</ele>
        <time>2019-03-27T15:22:23Z</time>
      </trkpt>
      <trkpt lat="44.21949" lon="5.55124">
        <ele>774</ele>
        <time>2019-03-27T15:22:24Z</time>
      </trkpt>
      <trkpt lat="44.21953" lon="5.55135">
        <ele>773</ele>
        <time>2019-03-27T15:22:25Z</time>
      </trkpt>
      <trkpt lat="44.21957" lon="5.55148">
        <ele>773</ele>
        <time>2019-03-27T15:22:26Z</time>
      </trkpt>
      <trkpt lat="44.2196" lon="5.5516">
        <ele>773</ele>
        <time>2019-03-27T15:22:27Z</time>
      </trkpt>
      <trkpt lat="44.21963" lon="5.55173">
        <ele>772</ele>
        <time>2019-03-27T15:22:28Z</time>
      </trkpt>
      <trkpt lat="44.21966" lon="5.55186">
        <ele>772</ele>
        <time>2019-03-27T15:22:29Z</time>
      </trkpt>
      <trkpt lat="44.21968" lon="5.55199">
        <ele>772</ele>
        <time>2019-03-27T15:22:30Z</time>
      </trkpt>
      <trkpt lat="44.2197" lon="5.55212">
        <ele>771</ele>
        <time>2019-03-27T15:22:31Z</time>
      </trkpt>
      <trkpt lat="44.21972" lon="5.55226">
        <ele>771</ele>
        <time>2019-03-27T15:22:32Z</time>
      </trkpt>
      <trkpt lat="44.21973" lon="5.5524">
        <ele>770</ele>
        <time>2019-03-27T15:22:33Z</time>
      </trkpt>
      <trkpt lat="44.21975" lon="5.55254">
        <ele>770</ele>
        <time>2019-03-27T15:22:34Z</time>
      </trkpt>
      <trkpt lat="44.21977" lon="5.55267">
        <ele>770</ele>
        <time>2019-03-27T15:22:35Z</time>
      </trkpt>
      <trkpt lat="44.21979" lon="5.55281">
        <ele>769</ele>
        <time>2019-03-27T15:22:36Z</time>
      </trkpt>
      <trkpt lat="44.21981" lon="5.55296">
        <ele>769</ele>
        <time>2019-03-27T15:22:37Z</time>
      </trkpt>
      <trkpt lat="44.21982" lon="5.5531">
        <ele>768</ele>
        <time>2019-03-27T15:22:38Z</time>
      </trkpt>
      <trkpt lat="44.21984" lon="5.55324">
        <ele>768</ele>
        <time>2019-03-27T15:22:39Z</time>
      </trkpt>
      <trkpt lat="44.21986" lon="5.55338">
        <ele>768</ele>
        <time>2019-03-27T15:22:40Z</time>
      </trkpt>
      <trkpt lat="44.21988" lon="5.55352">
        <ele>768</ele>
        <time>2019-03-27T15:22:41Z</time>
      </trkpt>
      <trkpt lat="44.21989" lon="5.55366">
        <ele>768</ele>
        <time>2019-03-27T15:22:42Z</time>
      </trkpt>
      <trkpt lat="44.2199" lon="5.5538">
        <ele>767</ele>
        <time>2019-03-27T15:22:43Z</time>
      </trkpt>
      <trkpt lat="44.21992" lon="5.55393">
        <ele>767</ele>
        <time>2019-03-27T15:22:44Z</time>
      </trkpt>
      <trkpt lat="44.21993" lon="5.55407">
        <ele>767</ele>
        <time>2019-03-27T15:22:45Z</time>
      </trkpt>
      <trkpt lat="44.21994" lon="5.5542">
        <ele>767</ele>
        <time>2019-03-27T15:22:46Z</time>
      </trkpt>
      <trkpt lat="44.21996" lon="5.55433">
        <ele>766</ele>
        <time>2019-03-27T15:22:47Z</time>
      </trkpt>
      <trkpt lat="44.21997" lon="5.55446">
        <ele>766</ele>
        <time>2019-03-27T15:22:48Z</time>
      </trkpt>
      <trkpt lat="44.21998" lon="5.55459">
        <ele>766</ele>
        <time>2019-03-27T15:22:49Z</time>
      </trkpt>
      <trkpt lat="44.22" lon="5.55471">
        <ele>766</ele>
        <time>2019-03-27T15:22:50Z</time>
      </trkpt>
      <trkpt lat="44.22001" lon="5.55483">
        <ele>766</ele>
        <time>2019-03-27T15:22:51Z</time>
      </trkpt>
      <trkpt lat="44.22002" lon="5.55496">
        <ele>766</ele>
        <time>2019-03-27T15:22:52Z</time>
      </trkpt>
      <trkpt lat="44.22003" lon="5.55508">
        <ele>766</ele>
        <time>2019-03-27T15:22:53Z</time>
      </trkpt>
      <trkpt lat="44.22004" lon="5.5552">
        <ele>766</ele>
        <time>2019-03-27T15:22:54Z</time>
      </trkpt>
      <trkpt lat="44.22006" lon="5.55532">
        <ele>766</ele>
        <time>2019-03-27T15:22:55Z</time>
      </trkpt>
      <trkpt lat="44.22007" lon="5.55544">
        <ele>766</ele>
        <time>2019-03-27T15:22:56Z</time>
      </trkpt>
      <trkpt lat="44.22009" lon="5.55556">
        <ele>766</ele>
        <time>2019-03-27T15:22:57Z</time>
      </trkpt>
      <trkpt lat="44.2201" lon="5.55569">
        <ele>766</ele>
        <time>2019-03-27T15:22:58Z</time>
      </trkpt>
      <trkpt lat="44.22011" lon="5.55581">
        <ele>766</ele>
        <time>2019-03-27T15:22:59Z</time>
      </trkpt>
      <trkpt lat="44.22012" lon="5.55593">
        <ele>766</ele>
        <time>2019-03-27T15:23:00Z</time>
      </trkpt>
      <trkpt lat="44.22014" lon="5.55606">
        <ele>766</ele>
        <time>2019-03-27T15:23:01Z</time>
      </trkpt>
      <trkpt lat="44.22015" lon="5.55618">
        <ele>766</ele>
        <time>2019-03-27T15:23:02Z</time>
      </trkpt>
      <trkpt lat="44.22016" lon="5.5563">
        <ele>766</ele>
        <time>2019-03-27T15:23:03Z</time>
      </trkpt>
      <trkpt lat="44.22018" lon="5.55643">
        <ele>766</ele>
        <time>2019-03-27T15:23:04Z</time>
      </trkpt>
      <trkpt lat="44.22019" lon="5.55656">
        <ele>766</ele>
        <time>2019-03-27T15:23:05Z</time>
      </trkpt>
      <trkpt lat="44.22021" lon="5.55668">
        <ele>766</ele>
        <time>2019-03-27T15:23:06Z</time>
      </trkpt>
      <trkpt lat="44.22022" lon="5.55681">
        <ele>766</ele>
        <time>2019-03-27T15:23:07Z</time>
      </trkpt>
      <trkpt lat="44.22023" lon="5.55694">
        <ele>766</ele>
        <time>2019-03-27T15:23:08Z</time>
      </trkpt>
      <trkpt lat="44.22025" lon="5.55708">
        <ele>766</ele>
        <time>2019-03-27T15:23:09Z</time>
      </trkpt>
      <trkpt lat="44.22026" lon="5.55721">
        <ele>766</ele>
        <time>2019-03-27T15:23:10Z</time>
      </trkpt>
      <trkpt lat="44.22028" lon="5.55734">
        <ele>766</ele>
        <time>2019-03-27T15:23:11Z</time>
      </trkpt>
      <trkpt lat="44.2203" lon="5.55747">
        <ele>766</ele>
        <time>2019-03-27T15:23:12Z</time>
      </trkpt>
      <trkpt lat="44.22031" lon="5.5576">
        <ele>766</ele>
        <time>2019-03-27T15:23:13Z</time>
      </trkpt>
      <trkpt lat="44.22033" lon="5.55774">
        <ele>765</ele>
        <time>2019-03-27T15:23:14Z</time>
      </trkpt>
      <trkpt lat="44.22034" lon="5.55788">
        <ele>765</ele>
        <time>2019-03-27T15:23:15Z</time>
      </trkpt>
      <trkpt lat="44.22035" lon="5.55801">
        <ele>765</ele>
        <time>2019-03-27T15:23:16Z</time>
      </trkpt>
      <trkpt lat="44.22036" lon="5.55815">
        <ele>765</ele>
        <time>2019-03-27T15:23:17Z</time>
      </trkpt>
      <trkpt lat="44.22038" lon="5.55829">
        <ele>765</ele>
        <time>2019-03-27T15:23:18Z</time>
      </trkpt>
      <trkpt lat="44.22039" lon="5.55843">
        <ele>765</ele>
        <time>2019-03-27T15:23:19Z</time>
      </trkpt>
      <trkpt lat="44.22041" lon="5.55857">
        <ele>765</ele>
        <time>2019-03-27T15:23:20Z</time>
      </trkpt>
      <trkpt lat="44.22043" lon="5.55871">
        <ele>765</ele>
        <time>2019-03-27T15:23:21Z</time>
      </trkpt>
      <trkpt lat="44.22044" lon="5.55885">
        <ele>765</ele>
        <time>2019-03-27T15:23:22Z</time>
      </trkpt>
      <trkpt lat="44.22046" lon="5.55898">
        <ele>765</ele>
        <time>2019-03-27T15:23:23Z</time>
      </trkpt>
      <trkpt lat="44.22047" lon="5.55911">
        <ele>765</ele>
        <time>2019-03-27T15:23:24Z</time>
      </trkpt>
      <trkpt lat="44.22049" lon="5.55925">
        <ele>765</ele>
        <time>2019-03-27T15:23:25Z</time>
      </trkpt>
      <trkpt lat="44.2205" lon="5.55938">
        <ele>765</ele>
        <time>2019-03-27T15:23:26Z</time>
      </trkpt>
      <trkpt lat="44.22052" lon="5.55951">
        <ele>765</ele>
        <time>2019-03-27T15:23:27Z</time>
      </trkpt>
      <trkpt lat="44.22053" lon="5.55965">
        <ele>765</ele>
        <time>2019-03-27T15:23:28Z</time>
      </trkpt>
      <trkpt lat="44.22055" lon="5.55978">
        <ele>765</ele>
        <time>2019-03-27T15:23:29Z</time>
      </trkpt>
      <trkpt lat="44.22056" lon="5.55992">
        <ele>765</ele>
        <time>2019-03-27T15:23:30Z</time>
      </trkpt>
      <trkpt lat="44.22057" lon="5.56006">
        <ele>764</ele>
        <time>2019-03-27T15:23:31Z</time>
      </trkpt>
      <trkpt lat="44.22058" lon="5.56019">
        <ele>764</ele>
        <time>2019-03-27T15:23:32Z</time>
      </trkpt>
      <trkpt lat="44.2206" lon="5.56033">
        <ele>764</ele>
        <time>2019-03-27T15:23:33Z</time>
      </trkpt>
      <trkpt lat="44.22061" lon="5.56047">
        <ele>764</ele>
        <time>2019-03-27T15:23:34Z</time>
      </trkpt>
      <trkpt lat="44.22063" lon="5.5606">
        <ele>764</ele>
        <time>2019-03-27T15:23:35Z</time>
      </trkpt>
      <trkpt lat="44.22064" lon="5.56074">
        <ele>764</ele>
        <time>2019-03-27T15:23:36Z</time>
      </trkpt>
      <trkpt lat="44.22065" lon="5.56087">
        <ele>764</ele>
        <time>2019-03-27T15:23:37Z</time>
      </trkpt>
      <trkpt lat="44.22066" lon="5.561">
        <ele>764</ele>
        <time>2019-03-27T15:23:38Z</time>
      </trkpt>
      <trkpt lat="44.22068" lon="5.56113">
        <ele>764</ele>
        <time>2019-03-27T15:23:39Z</time>
      </trkpt>
      <trkpt lat="44.22069" lon="5.56126">
        <ele>764</ele>
        <time>2019-03-27T15:23:40Z</time>
      </trkpt>
      <trkpt lat="44.2207" lon="5.56139">
        <ele>764</ele>
        <time>2019-03-27T15:23:41Z</time>
      </trkpt>
      <trkpt lat="44.22072" lon="5.56152">
        <ele>764</ele>
        <time>2019-03-27T15:23:42Z</time>
      </trkpt>
      <trkpt lat="44.22073" lon="5.56165">
        <ele>764</ele>
        <time>2019-03-27T15:23:43Z</time>
      </trkpt>
      <trkpt lat="44.22075" lon="5.56178">
        <ele>764</ele>
        <time>2019-03-27T15:23:44Z</time>
      </trkpt>
      <trkpt lat="44.22076" lon="5.56191">
        <ele>764</ele>
        <time>2019-03-27T15:23:45Z</time>
      </trkpt>
      <trkpt lat="44.22078" lon="5.56203">
        <ele>764</ele>
        <time>2019-03-27T15:23:46Z</time>
      </trkpt>
      <trkpt lat="44.22079" lon="5.56216">
        <ele>764</ele>
        <time>2019-03-27T15:23:47Z</time>
      </trkpt>
      <trkpt lat="44.2208" lon="5.56229">
        <ele>764</ele>
        <time>2019-03-27T15:23:48Z</time>
      </trkpt>
      <trkpt lat="44.22081" lon="5.56241">
        <ele>764</ele>
        <time>2019-03-27T15:23:49Z</time>
      </trkpt>
      <trkpt lat="44.22083" lon="5.56254">
        <ele>764</ele>
        <time>2019-03-27T15:23:50Z</time>
      </trkpt>
      <trkpt lat="44.22084" lon="5.56266">
        <ele>764</ele>
        <time>2019-03-27T15:23:51Z</time>
      </trkpt>
      <trkpt lat="44.22086" lon="5.56279">
        <ele>764</ele>
        <time>2019-03-27T15:23:52Z</time>
      </trkpt>
      <trkpt lat="44.22087" lon="5.56292">
        <ele>764</ele>
        <time>2019-03-27T15:23:53Z</time>
      </trkpt>
      <trkpt lat="44.22088" lon="5.56305">
        <ele>764</ele>
        <time>2019-03-27T15:23:54Z</time>
      </trkpt>
      <trkpt lat="44.22089" lon="5.56317">
        <ele>764</ele>
        <time>2019-03-27T15:23:55Z</time>
      </trkpt>
      <trkpt lat="44.22091" lon="5.5633">
        <ele>764</ele>
        <time>2019-03-27T15:23:56Z</time>
      </trkpt>
      <trkpt lat="44.22092" lon="5.56342">
        <ele>764</ele>
        <time>2019-03-27T15:23:57Z</time>
      </trkpt>
      <trkpt lat="44.22093" lon="5.56355">
        <ele>764</ele>
        <time>2019-03-27T15:23:58Z</time>
      </trkpt>
      <trkpt lat="44.22094" lon="5.56367">
        <ele>764</ele>
        <time>2019-03-27T15:23:59Z</time>
      </trkpt>
      <trkpt lat="44.22095" lon="5.5638">
        <ele>764</ele>
        <time>2019-03-27T15:24:00Z</time>
      </trkpt>
      <trkpt lat="44.22096" lon="5.56392">
        <ele>764</ele>
        <time>2019-03-27T15:24:01Z</time>
      </trkpt>
      <trkpt lat="44.22097" lon="5.56405">
        <ele>764</ele>
        <time>2019-03-27T15:24:02Z</time>
      </trkpt>
      <trkpt lat="44.22098" lon="5.56418">
        <ele>764</ele>
        <time>2019-03-27T15:24:03Z</time>
      </trkpt>
      <trkpt lat="44.22099" lon="5.56431">
        <ele>764</ele>
        <time>2019-03-27T15:24:04Z</time>
      </trkpt>
      <trkpt lat="44.221" lon="5.56444">
        <ele>764</ele>
        <time>2019-03-27T15:24:05Z</time>
      </trkpt>
      <trkpt lat="44.22102" lon="5.56456">
        <ele>764</ele>
        <time>2019-03-27T15:24:06Z</time>
      </trkpt>
      <trkpt lat="44.22102" lon="5.56469">
        <ele>764</ele>
        <time>2019-03-27T15:24:07Z</time>
      </trkpt>
      <trkpt lat="44.22103" lon="5.56482">
        <ele>764</ele>
        <time>2019-03-27T15:24:08Z</time>
      </trkpt>
      <trkpt lat="44.22104" lon="5.56496">
        <ele>764</ele>
        <time>2019-03-27T15:24:09Z</time>
      </trkpt>
      <trkpt lat="44.22104" lon="5.56509">
        <ele>764</ele>
        <time>2019-03-27T15:24:10Z</time>
      </trkpt>
      <trkpt lat="44.22105" lon="5.56522">
        <ele>764</ele>
        <time>2019-03-27T15:24:11Z</time>
      </trkpt>
      <trkpt lat="44.22105" lon="5.56535">
        <ele>764</ele>
        <time>2019-03-27T15:24:12Z</time>
      </trkpt>
      <trkpt lat="44.22106" lon="5.56549">
        <ele>764</ele>
        <time>2019-03-27T15:24:13Z</time>
      </trkpt>
      <trkpt lat="44.22106" lon="5.56562">
        <ele>764</ele>
        <time>2019-03-27T15:24:14Z</time>
      </trkpt>
      <trkpt lat="44.22106" lon="5.56576">
        <ele>763</ele>
        <time>2019-03-27T15:24:15Z</time>
      </trkpt>
      <trkpt lat="44.22107" lon="5.5659">
        <ele>763</ele>
        <time>2019-03-27T15:24:16Z</time>
      </trkpt>
      <trkpt lat="44.22107" lon="5.56603">
        <ele>763</ele>
        <time>2019-03-27T15:24:17Z</time>
      </trkpt>
      <trkpt lat="44.22107" lon="5.56617">
        <ele>763</ele>
        <time>2019-03-27T15:24:18Z</time>
      </trkpt>
      <trkpt lat="44.22108" lon="5.56631">
        <ele>763</ele>
        <time>2019-03-27T15:24:19Z</time>
      </trkpt>
      <trkpt lat="44.22108" lon="5.56645">
        <ele>763</ele>
        <time>2019-03-27T15:24:20Z</time>
      </trkpt>
      <trkpt lat="44.22109" lon="5.5666">
        <ele>762</ele>
        <time>2019-03-27T15:24:21Z</time>
      </trkpt>
      <trkpt lat="44.22109" lon="5.56674">
        <ele>762</ele>
        <time>2019-03-27T15:24:22Z</time>
      </trkpt>
      <trkpt lat="44.22109" lon="5.56688">
        <ele>762</ele>
        <time>2019-03-27T15:24:23Z</time>
      </trkpt>
      <trkpt lat="44.2211" lon="5.56703">
        <ele>762</ele>
        <time>2019-03-27T15:24:24Z</time>
      </trkpt>
      <trkpt lat="44.2211" lon="5.56717">
        <ele>762</ele>
        <time>2019-03-27T15:24:25Z</time>
      </trkpt>
      <trkpt lat="44.2211" lon="5.56732">
        <ele>762</ele>
        <time>2019-03-27T15:24:26Z</time>
      </trkpt>
      <trkpt lat="44.22111" lon="5.56746">
        <ele>761</ele>
        <time>2019-03-27T15:24:27Z</time>
      </trkpt>
      <trkpt lat="44.22111" lon="5.56761">
        <ele>761</ele>
        <time>2019-03-27T15:24:28Z</time>
      </trkpt>
      <trkpt lat="44.22112" lon="5.56776">
        <ele>761</ele>
        <time>2019-03-27T15:24:29Z</time>
      </trkpt>
      <trkpt lat="44.22112" lon="5.56791">
        <ele>761</ele>
        <time>2019-03-27T15:24:30Z</time>
      </trkpt>
      <trkpt lat="44.22112" lon="5.56807">
        <ele>760</ele>
        <time>2019-03-27T15:24:31Z</time>
      </trkpt>
      <trkpt lat="44.22113" lon="5.56822">
        <ele>760</ele>
        <time>2019-03-27T15:24:32Z</time>
      </trkpt>
      <trkpt lat="44.22113" lon="5.56837">
        <ele>760</ele>
        <time>2019-03-27T15:24:33Z</time>
      </trkpt>
      <trkpt lat="44.22113" lon="5.56852">
        <ele>760</ele>
        <time>2019-03-27T15:24:34Z</time>
      </trkpt>
      <trkpt lat="44.22114" lon="5.56868">
        <ele>760</ele>
        <time>2019-03-27T15:24:35Z</time>
      </trkpt>
      <trkpt lat="44.22114" lon="5.56883">
        <ele>760</ele>
        <time>2019-03-27T15:24:36Z</time>
      </trkpt>
      <trkpt lat="44.22115" lon="5.56898">
        <ele>759</ele>
        <time>2019-03-27T15:24:37Z</time>
      </trkpt>
      <trkpt lat="44.22115" lon="5.56914">
        <ele>759</ele>
        <time>2019-03-27T15:24:38Z</time>
      </trkpt>
      <trkpt lat="44.22115" lon="5.56929">
        <ele>759</ele>
        <time>2019-03-27T15:24:39Z</time>
      </trkpt>
      <trkpt lat="44.22116" lon="5.56944">
        <ele>759</ele>
        <time>2019-03-27T15:24:40Z</time>
      </trkpt>
      <trkpt lat="44.22116" lon="5.56959">
        <ele>759</ele>
        <time>2019-03-27T15:24:41Z</time>
      </trkpt>
      <trkpt lat="44.22117" lon="5.56975">
        <ele>758</ele>
        <time>2019-03-27T15:24:42Z</time>
      </trkpt>
      <trkpt lat="44.22117" lon="5.5699">
        <ele>758</ele>
        <time>2019-03-27T15:24:43Z</time>
      </trkpt>
      <trkpt lat="44.22117" lon="5.57005">
        <ele>758</ele>
        <time>2019-03-27T15:24:44Z</time>
      </trkpt>
      <trkpt lat="44.22118" lon="5.57021">
        <ele>758</ele>
        <time>2019-03-27T15:24:45Z</time>
      </trkpt>
      <trkpt lat="44.22118" lon="5.57036">
        <ele>758</ele>
        <time>2019-03-27T15:24:46Z</time>
      </trkpt>
      <trkpt lat="44.22118" lon="5.57051">
        <ele>758</ele>
        <time>2019-03-27T15:24:47Z</time>
      </trkpt>
      <trkpt lat="44.22119" lon="5.57067">
        <ele>757</ele>
        <time>2019-03-27T15:24:48Z</time>
      </trkpt>
      <trkpt lat="44.22119" lon="5.57082">
        <ele>757</ele>
        <time>2019-03-27T15:24:49Z</time>
      </trkpt>
      <trkpt lat="44.2212" lon="5.57097">
        <ele>757</ele>
        <time>2019-03-27T15:24:50Z</time>
      </trkpt>
      <trkpt lat="44.2212" lon="5.57113">
        <ele>757</ele>
        <time>2019-03-27T15:24:51Z</time>
      </trkpt>
      <trkpt lat="44.2212" lon="5.57128">
        <ele>756</ele>
        <time>2019-03-27T15:24:52Z</time>
      </trkpt>
      <trkpt lat="44.22121" lon="5.57144">
        <ele>756</ele>
        <time>2019-03-27T15:24:53Z</time>
      </trkpt>
      <trkpt lat="44.22122" lon="5.57159">
        <ele>756</ele>
        <time>2019-03-27T15:24:54Z</time>
      </trkpt>
      <trkpt lat="44.22122" lon="5.57174">
        <ele>756</ele>
        <time>2019-03-27T15:24:55Z</time>
      </trkpt>
      <trkpt lat="44.22123" lon="5.57189">
        <ele>756</ele>
        <time>2019-03-27T15:24:56Z</time>
      </trkpt>
      <trkpt lat="44.22123" lon="5.57204">
        <ele>756</ele>
        <time>2019-03-27T15:24:57Z</time>
      </trkpt>
      <trkpt lat="44.22123" lon="5.57219">
        <ele>756</ele>
        <time>2019-03-27T15:24:58Z</time>
      </trkpt>
      <trkpt lat="44.22124" lon="5.57234">
        <ele>756</ele>
        <time>2019-03-27T15:24:59Z</time>
      </trkpt>
      <trkpt lat="44.22124" lon="5.57249">
        <ele>756</ele>
        <time>2019-03-27T15:25:00Z</time>
      </trkpt>
      <trkpt lat="44.22124" lon="5.57264">
        <ele>756</ele>
        <time>2019-03-27T15:25:01Z</time>
      </trkpt>
      <trkpt lat="44.22125" lon="5.57278">
        <ele>756</ele>
        <time>2019-03-27T15:25:02Z</time>
      </trkpt>
      <trkpt lat="44.22125" lon="5.57293">
        <ele>755</ele>
        <time>2019-03-27T15:25:03Z</time>
      </trkpt>
      <trkpt lat="44.22126" lon="5.57307">
        <ele>755</ele>
        <time>2019-03-27T15:25:04Z</time>
      </trkpt>
      <trkpt lat="44.22126" lon="5.57322">
        <ele>755</ele>
        <time>2019-03-27T15:25:05Z</time>
      </trkpt>
      <trkpt lat="44.22126" lon="5.57336">
        <ele>755</ele>
        <time>2019-03-27T15:25:06Z</time>
      </trkpt>
      <trkpt lat="44.22127" lon="5.57351">
        <ele>755</ele>
        <time>2019-03-27T15:25:07Z</time>
      </trkpt>
      <trkpt lat="44.22127" lon="5.57365">
        <ele>755</ele>
        <time>2019-03-27T15:25:08Z</time>
      </trkpt>
      <trkpt lat="44.22128" lon="5.5738">
        <ele>755</ele>
        <time>2019-03-27T15:25:09Z</time>
      </trkpt>
      <trkpt lat="44.22129" lon="5.57395">
        <ele>755</ele>
        <time>2019-03-27T15:25:10Z</time>
      </trkpt>
      <trkpt lat="44.22129" lon="5.5741">
        <ele>754</ele>
        <time>2019-03-27T15:25:11Z</time>
      </trkpt>
      <trkpt lat="44.22129" lon="5.57425">
        <ele>754</ele>
        <time>2019-03-27T15:25:12Z</time>
      </trkpt>
      <trkpt lat="44.2213" lon="5.5744">
        <ele>754</ele>
        <time>2019-03-27T15:25:13Z</time>
      </trkpt>
      <trkpt lat="44.22131" lon="5.57455">
        <ele>754</ele>
        <time>2019-03-27T15:25:14Z</time>
      </trkpt>
      <trkpt lat="44.22131" lon="5.5747">
        <ele>754</ele>
        <time>2019-03-27T15:25:15Z</time>
      </trkpt>
      <trkpt lat="44.22132" lon="5.57485">
        <ele>754</ele>
        <time>2019-03-27T15:25:16Z</time>
      </trkpt>
      <trkpt lat="44.22132" lon="5.575">
        <ele>754</ele>
        <time>2019-03-27T15:25:17Z</time>
      </trkpt>
      <trkpt lat="44.22133" lon="5.57514">
        <ele>754</ele>
        <time>2019-03-27T15:25:18Z</time>
      </trkpt>
      <trkpt lat="44.22134" lon="5.57529">
        <ele>754</ele>
        <time>2019-03-27T15:25:19Z</time>
      </trkpt>
      <trkpt lat="44.22134" lon="5.57545">
        <ele>753</ele>
        <time>2019-03-27T15:25:20Z</time>
      </trkpt>
      <trkpt lat="44.22134" lon="5.57559">
        <ele>753</ele>
        <time>2019-03-27T15:25:21Z</time>
      </trkpt>
      <trkpt lat="44.22134" lon="5.57575">
        <ele>753</ele>
        <time>2019-03-27T15:25:22Z</time>
      </trkpt>
      <trkpt lat="44.22135" lon="5.57589">
        <ele>753</ele>
        <time>2019-03-27T15:25:23Z</time>
      </trkpt>
      <trkpt lat="44.22135" lon="5.57604">
        <ele>753</ele>
        <time>2019-03-27T15:25:24Z</time>
      </trkpt>
      <trkpt lat="44.22136" lon="5.57619">
        <ele>753</ele>
        <time>2019-03-27T15:25:25Z</time>
      </trkpt>
      <trkpt lat="44.22136" lon="5.57634">
        <ele>753</ele>
        <time>2019-03-27T15:25:26Z</time>
      </trkpt>
      <trkpt lat="44.22137" lon="5.57649">
        <ele>753</ele>
        <time>2019-03-27T15:25:27Z</time>
      </trkpt>
      <trkpt lat="44.22138" lon="5.57663">
        <ele>753</ele>
        <time>2019-03-27T15:25:28Z</time>
      </trkpt>
      <trkpt lat="44.22138" lon="5.57678">
        <ele>753</ele>
        <time>2019-03-27T15:25:29Z</time>
      </trkpt>
      <trkpt lat="44.22139" lon="5.57692">
        <ele>753</ele>
        <time>2019-03-27T15:25:30Z</time>
      </trkpt>
      <trkpt lat="44.22139" lon="5.57707">
        <ele>752</ele>
        <time>2019-03-27T15:25:31Z</time>
      </trkpt>
      <trkpt lat="44.2214" lon="5.57721">
        <ele>752</ele>
        <time>2019-03-27T15:25:32Z</time>
      </trkpt>
      <trkpt lat="44.22141" lon="5.57735">
        <ele>752</ele>
        <time>2019-03-27T15:25:33Z</time>
      </trkpt>
      <trkpt lat="44.22141" lon="5.5775">
        <ele>752</ele>
        <time>2019-03-27T15:25:34Z</time>
      </trkpt>
      <trkpt lat="44.22142" lon="5.57764">
        <ele>752</ele>
        <time>2019-03-27T15:25:35Z</time>
      </trkpt>
      <trkpt lat="44.22142" lon="5.57779">
        <ele>752</ele>
        <time>2019-03-27T15:25:36Z</time>
      </trkpt>
      <trkpt lat="44.22142" lon="5.57793">
        <ele>752</ele>
        <time>2019-03-27T15:25:37Z</time>
      </trkpt>
      <trkpt lat="44.22141" lon="5.57807">
        <ele>752</ele>
        <time>2019-03-27T15:25:38Z</time>
      </trkpt>
      <trkpt lat="44.22141" lon="5.57822">
        <ele>751</ele>
        <time>2019-03-27T15:25:39Z</time>
      </trkpt>
      <trkpt lat="44.2214" lon="5.57836">
        <ele>751</ele>
        <time>2019-03-27T15:25:40Z</time>
      </trkpt>
      <trkpt lat="44.22139" lon="5.57851">
        <ele>751</ele>
        <time>2019-03-27T15:25:41Z</time>
      </trkpt>
      <trkpt lat="44.22137" lon="5.57865">
        <ele>751</ele>
        <time>2019-03-27T15:25:42Z</time>
      </trkpt>
      <trkpt lat="44.22136" lon="5.57879">
        <ele>751</ele>
        <time>2019-03-27T15:25:43Z</time>
      </trkpt>
      <trkpt lat="44.22134" lon="5.57893">
        <ele>751</ele>
        <time>2019-03-27T15:25:44Z</time>
      </trkpt>
      <trkpt lat="44.22133" lon="5.57906">
        <ele>751</ele>
        <time>2019-03-27T15:25:45Z</time>
      </trkpt>
      <trkpt lat="44.22131" lon="5.5792">
        <ele>750</ele>
        <time>2019-03-27T15:25:46Z</time>
      </trkpt>
      <trkpt lat="44.2213" lon="5.57934">
        <ele>750</ele>
        <time>2019-03-27T15:25:47Z</time>
      </trkpt>
      <trkpt lat="44.22129" lon="5.57948">
        <ele>750</ele>
        <time>2019-03-27T15:25:48Z</time>
      </trkpt>
      <trkpt lat="44.22127" lon="5.57961">
        <ele>750</ele>
        <time>2019-03-27T15:25:49Z</time>
      </trkpt>
      <trkpt lat="44.22126" lon="5.57975">
        <ele>750</ele>
        <time>2019-03-27T15:25:50Z</time>
      </trkpt>
      <trkpt lat="44.22124" lon="5.57988">
        <ele>750</ele>
        <time>2019-03-27T15:25:51Z</time>
      </trkpt>
      <trkpt lat="44.22123" lon="5.58001">
        <ele>750</ele>
        <time>2019-03-27T15:25:52Z</time>
      </trkpt>
      <trkpt lat="44.22122" lon="5.58014">
        <ele>750</ele>
        <time>2019-03-27T15:25:53Z</time>
      </trkpt>
      <trkpt lat="44.2212" lon="5.58027">
        <ele>750</ele>
        <time>2019-03-27T15:25:54Z</time>
      </trkpt>
      <trkpt lat="44.22119" lon="5.5804">
        <ele>750</ele>
        <time>2019-03-27T15:25:55Z</time>
      </trkpt>
      <trkpt lat="44.22117" lon="5.58053">
        <ele>750</ele>
        <time>2019-03-27T15:25:56Z</time>
      </trkpt>
      <trkpt lat="44.22116" lon="5.58066">
        <ele>750</ele>
        <time>2019-03-27T15:25:57Z</time>
      </trkpt>
      <trkpt lat="44.22114" lon="5.58078">
        <ele>750</ele>
        <time>2019-03-27T15:25:58Z</time>
      </trkpt>
      <trkpt lat="44.22113" lon="5.5809">
        <ele>750</ele>
        <time>2019-03-27T15:25:59Z</time>
      </trkpt>
      <trkpt lat="44.22111" lon="5.58102">
        <ele>750</ele>
        <time>2019-03-27T15:26:00Z</time>
      </trkpt>
      <trkpt lat="44.2211" lon="5.58114">
        <ele>750</ele>
        <time>2019-03-27T15:26:01Z</time>
      </trkpt>
      <trkpt lat="44.22108" lon="5.58126">
        <ele>750</ele>
        <time>2019-03-27T15:26:02Z</time>
      </trkpt>
      <trkpt lat="44.22107" lon="5.58138">
        <ele>750</ele>
        <time>2019-03-27T15:26:03Z</time>
      </trkpt>
      <trkpt lat="44.22106" lon="5.5815">
        <ele>750</ele>
        <time>2019-03-27T15:26:04Z</time>
      </trkpt>
      <trkpt lat="44.22105" lon="5.58161">
        <ele>750</ele>
        <time>2019-03-27T15:26:05Z</time>
      </trkpt>
      <trkpt lat="44.22103" lon="5.58174">
        <ele>750</ele>
        <time>2019-03-27T15:26:06Z</time>
      </trkpt>
      <trkpt lat="44.22102" lon="5.58185">
        <ele>750</ele>
        <time>2019-03-27T15:26:07Z</time>
      </trkpt>
      <trkpt lat="44.22101" lon="5.58197">
        <ele>750</ele>
        <time>2019-03-27T15:26:08Z</time>
      </trkpt>
      <trkpt lat="44.221" lon="5.58209">
        <ele>750</ele>
        <time>2019-03-27T15:26:09Z</time>
      </trkpt>
      <trkpt lat="44.22099" lon="5.58221">
        <ele>750</ele>
        <time>2019-03-27T15:26:10Z</time>
      </trkpt>
      <trkpt lat="44.22097" lon="5.58233">
        <ele>750</ele>
        <time>2019-03-27T15:26:11Z</time>
      </trkpt>
      <trkpt lat="44.22097" lon="5.58246">
        <ele>750</ele>
        <time>2019-03-27T15:26:12Z</time>
      </trkpt>
      <trkpt lat="44.22096" lon="5.58258">
        <ele>750</ele>
        <time>2019-03-27T15:26:13Z</time>
      </trkpt>
      <trkpt lat="44.22096" lon="5.58271">
        <ele>750</ele>
        <time>2019-03-27T15:26:14Z</time>
      </trkpt>
      <trkpt lat="44.22096" lon="5.58283">
        <ele>750</ele>
        <time>2019-03-27T15:26:15Z</time>
      </trkpt>
      <trkpt lat="44.22096" lon="5.58295">
        <ele>750</ele>
        <time>2019-03-27T15:26:16Z</time>
      </trkpt>
      <trkpt lat="44.22096" lon="5.58307">
        <ele>750</ele>
        <time>2019-03-27T15:26:17Z</time>
      </trkpt>
      <trkpt lat="44.22096" lon="5.58319">
        <ele>750</ele>
        <time>2019-03-27T15:26:18Z</time>
      </trkpt>
      <trkpt lat="44.22097" lon="5.58331">
        <ele>750</ele>
        <time>2019-03-27T15:26:19Z</time>
      </trkpt>
      <trkpt lat="44.22097" lon="5.58342">
        <ele>750</ele>
        <time>2019-03-27T15:26:20Z</time>
      </trkpt>
      <trkpt lat="44.22097" lon="5.58354">
        <ele>750</ele>
        <time>2019-03-27T15:26:21Z</time>
      </trkpt>
      <trkpt lat="44.22098" lon="5.58365">
        <ele>750</ele>
        <time>2019-03-27T15:26:22Z</time>
      </trkpt>
      <trkpt lat="44.22098" lon="5.58377">
        <ele>749</ele>
        <time>2019-03-27T15:26:23Z</time>
      </trkpt>
      <trkpt lat="44.22098" lon="5.58389">
        <ele>749</ele>
        <time>2019-03-27T15:26:24Z</time>
      </trkpt>
      <trkpt lat="44.22099" lon="5.58401">
        <ele>749</ele>
        <time>2019-03-27T15:26:25Z</time>
      </trkpt>
      <trkpt lat="44.22099" lon="5.58413">
        <ele>749</ele>
        <time>2019-03-27T15:26:26Z</time>
      </trkpt>
      <trkpt lat="44.22099" lon="5.58424">
        <ele>749</ele>
        <time>2019-03-27T15:26:27Z</time>
      </trkpt>
      <trkpt lat="44.221" lon="5.58436">
        <ele>749</ele>
        <time>2019-03-27T15:26:28Z</time>
      </trkpt>
      <trkpt lat="44.221" lon="5.58448">
        <ele>748</ele>
        <time>2019-03-27T15:26:29Z</time>
      </trkpt>
      <trkpt lat="44.221" lon="5.5846">
        <ele>748</ele>
        <time>2019-03-27T15:26:30Z</time>
      </trkpt>
      <trkpt lat="44.221" lon="5.58471">
        <ele>748</ele>
        <time>2019-03-27T15:26:31Z</time>
      </trkpt>
      <trkpt lat="44.221" lon="5.58483">
        <ele>748</ele>
        <time>2019-03-27T15:26:32Z</time>
      </trkpt>
      <trkpt lat="44.221" lon="5.58494">
        <ele>748</ele>
        <time>2019-03-27T15:26:33Z</time>
      </trkpt>
      <trkpt lat="44.221" lon="5.58504">
        <ele>748</ele>
        <time>2019-03-27T15:26:34Z</time>
      </trkpt>
      <trkpt lat="44.221" lon="5.58515">
        <ele>747</ele>
        <time>2019-03-27T15:26:35Z</time>
      </trkpt>
      <trkpt lat="44.221" lon="5.58525">
        <ele>747</ele>
        <time>2019-03-27T15:26:36Z</time>
      </trkpt>
      <trkpt lat="44.221" lon="5.58536">
        <ele>747</ele>
        <time>2019-03-27T15:26:37Z</time>
      </trkpt>
      <trkpt lat="44.221" lon="5.58547">
        <ele>747</ele>
        <time>2019-03-27T15:26:38Z</time>
      </trkpt>
      <trkpt lat="44.221" lon="5.58557">
        <ele>747</ele>
        <time>2019-03-27T15:26:39Z</time>
      </trkpt>
      <trkpt lat="44.22101" lon="5.58568">
        <ele>747</ele>
        <time>2019-03-27T15:26:40Z</time>
      </trkpt>
      <trkpt lat="44.22101" lon="5.58579">
        <ele>747</ele>
        <time>2019-03-27T15:26:41Z</time>
      </trkpt>
      <trkpt lat="44.22101" lon="5.5859">
        <ele>747</ele>
        <time>2019-03-27T15:26:42Z</time>
      </trkpt>
      <trkpt lat="44.22101" lon="5.58601">
        <ele>746</ele>
        <time>2019-03-27T15:26:43Z</time>
      </trkpt>
      <trkpt lat="44.22101" lon="5.58612">
        <ele>746</ele>
        <time>2019-03-27T15:26:44Z</time>
      </trkpt>
      <trkpt lat="44.221" lon="5.58623">
        <ele>746</ele>
        <time>2019-03-27T15:26:45Z</time>
      </trkpt>
      <trkpt lat="44.22101" lon="5.58634">
        <ele>746</ele>
        <time>2019-03-27T15:26:46Z</time>
      </trkpt>
      <trkpt lat="44.22101" lon="5.58646">
        <ele>746</ele>
        <time>2019-03-27T15:26:47Z</time>
      </trkpt>
      <trkpt lat="44.22101" lon="5.58658">
        <ele>746</ele>
        <time>2019-03-27T15:26:48Z</time>
      </trkpt>
      <trkpt lat="44.22102" lon="5.5867">
        <ele>746</ele>
        <time>2019-03-27T15:26:49Z</time>
      </trkpt>
      <trkpt lat="44.22102" lon="5.58682">
        <ele>746</ele>
        <time>2019-03-27T15:26:50Z</time>
      </trkpt>
      <trkpt lat="44.22102" lon="5.58695">
        <ele>746</ele>
        <time>2019-03-27T15:26:51Z</time>
      </trkpt>
      <trkpt lat="44.22103" lon="5.58708">
        <ele>745</ele>
        <time>2019-03-27T15:26:52Z</time>
      </trkpt>
      <trkpt lat="44.22104" lon="5.5872">
        <ele>745</ele>
        <time>2019-03-27T15:26:53Z</time>
      </trkpt>
      <trkpt lat="44.22104" lon="5.58734">
        <ele>745</ele>
        <time>2019-03-27T15:26:54Z</time>
      </trkpt>
      <trkpt lat="44.22104" lon="5.58747">
        <ele>745</ele>
        <time>2019-03-27T15:26:55Z</time>
      </trkpt>
      <trkpt lat="44.22105" lon="5.5876">
        <ele>745</ele>
        <time>2019-03-27T15:26:56Z</time>
      </trkpt>
      <trkpt lat="44.22105" lon="5.58773">
        <ele>744</ele>
        <time>2019-03-27T15:26:57Z</time>
      </trkpt>
      <trkpt lat="44.22105" lon="5.58786">
        <ele>744</ele>
        <time>2019-03-27T15:26:58Z</time>
      </trkpt>
      <trkpt lat="44.22105" lon="5.58799">
        <ele>744</ele>
        <time>2019-03-27T15:26:59Z</time>
      </trkpt>
      <trkpt lat="44.22106" lon="5.58812">
        <ele>744</ele>
        <time>2019-03-27T15:27:00Z</time>
      </trkpt>
      <trkpt lat="44.22106" lon="5.58824">
        <ele>744</ele>
        <time>2019-03-27T15:27:01Z</time>
      </trkpt>
      <trkpt lat="44.22106" lon="5.58837">
        <ele>744</ele>
        <time>2019-03-27T15:27:02Z</time>
      </trkpt>
      <trkpt lat="44.22106" lon="5.58849">
        <ele>743</ele>
        <time>2019-03-27T15:27:03Z</time>
      </trkpt>
      <trkpt lat="44.22106" lon="5.58862">
        <ele>743</ele>
        <time>2019-03-27T15:27:04Z</time>
      </trkpt>
      <trkpt lat="44.22106" lon="5.58875">
        <ele>743</ele>
        <time>2019-03-27T15:27:05Z</time>
      </trkpt>
      <trkpt lat="44.22106" lon="5.58889">
        <ele>743</ele>
        <time>2019-03-27T15:27:06Z</time>
      </trkpt>
      <trkpt lat="44.22106" lon="5.58902">
        <ele>743</ele>
        <time>2019-03-27T15:27:07Z</time>
      </trkpt>
      <trkpt lat="44.22106" lon="5.58915">
        <ele>743</ele>
        <time>2019-03-27T15:27:08Z</time>
      </trkpt>
      <trkpt lat="44.22107" lon="5.58928">
        <ele>743</ele>
        <time>2019-03-27T15:27:09Z</time>
      </trkpt>
      <trkpt lat="44.22106" lon="5.58942">
        <ele>742</ele>
        <time>2019-03-27T15:27:10Z</time>
      </trkpt>
      <trkpt lat="44.22106" lon="5.58955">
        <ele>742</ele>
        <time>2019-03-27T15:27:11Z</time>
      </trkpt>
      <trkpt lat="44.22105" lon="5.58968">
        <ele>742</ele>
        <time>2019-03-27T15:27:12Z</time>
      </trkpt>
      <trkpt lat="44.22104" lon="5.58981">
        <ele>742</ele>
        <time>2019-03-27T15:27:13Z</time>
      </trkpt>
      <trkpt lat="44.22102" lon="5.58994">
        <ele>742</ele>
        <time>2019-03-27T15:27:14Z</time>
      </trkpt>
      <trkpt lat="44.221" lon="5.59007">
        <ele>742</ele>
        <time>2019-03-27T15:27:15Z</time>
      </trkpt>
      <trkpt lat="44.22098" lon="5.5902">
        <ele>742</ele>
        <time>2019-03-27T15:27:16Z</time>
      </trkpt>
      <trkpt lat="44.22096" lon="5.59032">
        <ele>742</ele>
        <time>2019-03-27T15:27:17Z</time>
      </trkpt>
      <trkpt lat="44.22093" lon="5.59044">
        <ele>741</ele>
        <time>2019-03-27T15:27:18Z</time>
      </trkpt>
      <trkpt lat="44.2209" lon="5.59056">
        <ele>741</ele>
        <time>2019-03-27T15:27:19Z</time>
      </trkpt>
      <trkpt lat="44.22088" lon="5.59068">
        <ele>741</ele>
        <time>2019-03-27T15:27:20Z</time>
      </trkpt>
      <trkpt lat="44.22085" lon="5.5908">
        <ele>741</ele>
        <time>2019-03-27T15:27:21Z</time>
      </trkpt>
      <trkpt lat="44.22083" lon="5.59092">
        <ele>741</ele>
        <time>2019-03-27T15:27:22Z</time>
      </trkpt>
      <trkpt lat="44.22081" lon="5.59104">
        <ele>741</ele>
        <time>2019-03-27T15:27:23Z</time>
      </trkpt>
      <trkpt lat="44.22079" lon="5.59116">
        <ele>740</ele>
        <time>2019-03-27T15:27:24Z</time>
      </trkpt>
      <trkpt lat="44.22078" lon="5.59128">
        <ele>740</ele>
        <time>2019-03-27T15:27:25Z</time>
      </trkpt>
      <trkpt lat="44.22078" lon="5.59141">
        <ele>740</ele>
        <time>2019-03-27T15:27:26Z</time>
      </trkpt>
      <trkpt lat="44.22077" lon="5.59153">
        <ele>740</ele>
        <time>2019-03-27T15:27:27Z</time>
      </trkpt>
      <trkpt lat="44.22077" lon="5.59166">
        <ele>740</ele>
        <time>2019-03-27T15:27:28Z</time>
      </trkpt>
      <trkpt lat="44.22077" lon="5.59179">
        <ele>739</ele>
        <time>2019-03-27T15:27:29Z</time>
      </trkpt>
      <trkpt lat="44.22078" lon="5.59192">
        <ele>739</ele>
        <time>2019-03-27T15:27:30Z</time>
      </trkpt>
      <trkpt lat="44.22078" lon="5.59205">
        <ele>739</ele>
        <time>2019-03-27T15:27:31Z</time>
      </trkpt>
      <trkpt lat="44.2208" lon="5.59218">
        <ele>739</ele>
        <time>2019-03-27T15:27:32Z</time>
      </trkpt>
      <trkpt lat="44.22081" lon="5.59232">
        <ele>738</ele>
        <time>2019-03-27T15:27:33Z</time>
      </trkpt>
      <trkpt lat="44.22083" lon="5.59245">
        <ele>738</ele>
        <time>2019-03-27T15:27:34Z</time>
      </trkpt>
      <trkpt lat="44.22085" lon="5.59258">
        <ele>738</ele>
        <time>2019-03-27T15:27:35Z</time>
      </trkpt>
      <trkpt lat="44.22087" lon="5.59271">
        <ele>738</ele>
        <time>2019-03-27T15:27:36Z</time>
      </trkpt>
      <trkpt lat="44.2209" lon="5.59285">
        <ele>737</ele>
        <time>2019-03-27T15:27:37Z</time>
      </trkpt>
      <trkpt lat="44.22092" lon="5.59298">
        <ele>737</ele>
        <time>2019-03-27T15:27:38Z</time>
      </trkpt>
      <trkpt lat="44.22094" lon="5.59311">
        <ele>737</ele>
        <time>2019-03-27T15:27:39Z</time>
      </trkpt>
      <trkpt lat="44.22096" lon="5.59325">
        <ele>737</ele>
        <time>2019-03-27T15:27:40Z</time>
      </trkpt>
      <trkpt lat="44.22098" lon="5.59338">
        <ele>737</ele>
        <time>2019-03-27T15:27:41Z</time>
      </trkpt>
      <trkpt lat="44.221" lon="5.5935">
        <ele>737</ele>
        <time>2019-03-27T15:27:42Z</time>
      </trkpt>
      <trkpt lat="44.22102" lon="5.59364">
        <ele>737</ele>
        <time>2019-03-27T15:27:43Z</time>
      </trkpt>
      <trkpt lat="44.22105" lon="5.59376">
        <ele>737</ele>
        <time>2019-03-27T15:27:44Z</time>
      </trkpt>
      <trkpt lat="44.22107" lon="5.59389">
        <ele>737</ele>
        <time>2019-03-27T15:27:45Z</time>
      </trkpt>
      <trkpt lat="44.22109" lon="5.59402">
        <ele>737</ele>
        <time>2019-03-27T15:27:46Z</time>
      </trkpt>
      <trkpt lat="44.22111" lon="5.59414">
        <ele>737</ele>
        <time>2019-03-27T15:27:47Z</time>
      </trkpt>
      <trkpt lat="44.22113" lon="5.59427">
        <ele>737</ele>
        <time>2019-03-27T15:27:48Z</time>
      </trkpt>
      <trkpt lat="44.22115" lon="5.59439">
        <ele>737</ele>
        <time>2019-03-27T15:27:49Z</time>
      </trkpt>
      <trkpt lat="44.22118" lon="5.59451">
        <ele>737</ele>
        <time>2019-03-27T15:27:50Z</time>
      </trkpt>
      <trkpt lat="44.2212" lon="5.59464">
        <ele>736</ele>
        <time>2019-03-27T15:27:51Z</time>
      </trkpt>
      <trkpt lat="44.22121" lon="5.59477">
        <ele>736</ele>
        <time>2019-03-27T15:27:52Z</time>
      </trkpt>
      <trkpt lat="44.22123" lon="5.59491">
        <ele>736</ele>
        <time>2019-03-27T15:27:53Z</time>
      </trkpt>
      <trkpt lat="44.22125" lon="5.59504">
        <ele>736</ele>
        <time>2019-03-27T15:27:54Z</time>
      </trkpt>
      <trkpt lat="44.22127" lon="5.59518">
        <ele>735</ele>
        <time>2019-03-27T15:27:55Z</time>
      </trkpt>
      <trkpt lat="44.22129" lon="5.59531">
        <ele>735</ele>
        <time>2019-03-27T15:27:56Z</time>
      </trkpt>
      <trkpt lat="44.22131" lon="5.59545">
        <ele>734</ele>
        <time>2019-03-27T15:27:57Z</time>
      </trkpt>
      <trkpt lat="44.22134" lon="5.59559">
        <ele>734</ele>
        <time>2019-03-27T15:27:58Z</time>
      </trkpt>
      <trkpt lat="44.22136" lon="5.59573">
        <ele>734</ele>
        <time>2019-03-27T15:27:59Z</time>
      </trkpt>
      <trkpt lat="44.22139" lon="5.59586">
        <ele>734</ele>
        <time>2019-03-27T15:28:00Z</time>
      </trkpt>
      <trkpt lat="44.22141" lon="5.596">
        <ele>734</ele>
        <time>2019-03-27T15:28:01Z</time>
      </trkpt>
      <trkpt lat="44.22143" lon="5.59614">
        <ele>733</ele>
        <time>2019-03-27T15:28:02Z</time>
      </trkpt>
      <trkpt lat="44.22145" lon="5.59628">
        <ele>733</ele>
        <time>2019-03-27T15:28:03Z</time>
      </trkpt>
      <trkpt lat="44.22146" lon="5.59642">
        <ele>733</ele>
        <time>2019-03-27T15:28:04Z</time>
      </trkpt>
      <trkpt lat="44.22146" lon="5.59656">
        <ele>733</ele>
        <time>2019-03-27T15:28:05Z</time>
      </trkpt>
      <trkpt lat="44.22145" lon="5.59669">
        <ele>733</ele>
        <time>2019-03-27T15:28:06Z</time>
      </trkpt>
      <trkpt lat="44.22144" lon="5.59683">
        <ele>733</ele>
        <time>2019-03-27T15:28:07Z</time>
      </trkpt>
      <trkpt lat="44.22142" lon="5.59697">
        <ele>733</ele>
        <time>2019-03-27T15:28:08Z</time>
      </trkpt>
      <trkpt lat="44.22139" lon="5.5971">
        <ele>733</ele>
        <time>2019-03-27T15:28:09Z</time>
      </trkpt>
      <trkpt lat="44.22137" lon="5.59724">
        <ele>733</ele>
        <time>2019-03-27T15:28:10Z</time>
      </trkpt>
      <trkpt lat="44.22135" lon="5.59737">
        <ele>733</ele>
        <time>2019-03-27T15:28:11Z</time>
      </trkpt>
      <trkpt lat="44.22134" lon="5.5975">
        <ele>733</ele>
        <time>2019-03-27T15:28:12Z</time>
      </trkpt>
      <trkpt lat="44.22132" lon="5.59764">
        <ele>733</ele>
        <time>2019-03-27T15:28:13Z</time>
      </trkpt>
      <trkpt lat="44.22131" lon="5.59777">
        <ele>733</ele>
        <time>2019-03-27T15:28:14Z</time>
      </trkpt>
      <trkpt lat="44.22131" lon="5.59791">
        <ele>733</ele>
        <time>2019-03-27T15:28:15Z</time>
      </trkpt>
      <trkpt lat="44.2213" lon="5.59804">
        <ele>733</ele>
        <time>2019-03-27T15:28:16Z</time>
      </trkpt>
      <trkpt lat="44.2213" lon="5.59818">
        <ele>733</ele>
        <time>2019-03-27T15:28:17Z</time>
      </trkpt>
      <trkpt lat="44.2213" lon="5.59831">
        <ele>733</ele>
        <time>2019-03-27T15:28:18Z</time>
      </trkpt>
      <trkpt lat="44.22131" lon="5.59844">
        <ele>733</ele>
        <time>2019-03-27T15:28:19Z</time>
      </trkpt>
      <trkpt lat="44.22131" lon="5.59858">
        <ele>733</ele>
        <time>2019-03-27T15:28:20Z</time>
      </trkpt>
      <trkpt lat="44.22132" lon="5.59871">
        <ele>733</ele>
        <time>2019-03-27T15:28:21Z</time>
      </trkpt>
      <trkpt lat="44.22133" lon="5.59885">
        <ele>733</ele>
        <time>2019-03-27T15:28:22Z</time>
      </trkpt>
      <trkpt lat="44.22134" lon="5.59898">
        <ele>733</ele>
        <time>2019-03-27T15:28:23Z</time>
      </trkpt>
      <trkpt lat="44.22134" lon="5.59911">
        <ele>733</ele>
        <time>2019-03-27T15:28:24Z</time>
      </trkpt>
      <trkpt lat="44.22135" lon="5.59925">
        <ele>733</ele>
        <time>2019-03-27T15:28:25Z</time>
      </trkpt>
      <trkpt lat="44.22135" lon="5.59938">
        <ele>733</ele>
        <time>2019-03-27T15:28:26Z</time>
      </trkpt>
      <trkpt lat="44.22135" lon="5.59951">
        <ele>733</ele>
        <time>2019-03-27T15:28:27Z</time>
      </trkpt>
      <trkpt lat="44.22135" lon="5.59964">
        <ele>733</ele>
        <time>2019-03-27T15:28:28Z</time>
      </trkpt>
      <trkpt lat="44.22135" lon="5.59977">
        <ele>733</ele>
        <time>2019-03-27T15:28:29Z</time>
      </trkpt>
      <trkpt lat="44.22134" lon="5.59991">
        <ele>733</ele>
        <time>2019-03-27T15:28:30Z</time>
      </trkpt>
      <trkpt lat="44.22134" lon="5.60004">
        <ele>733</ele>
        <time>2019-03-27T15:28:31Z</time>
      </trkpt>
      <trkpt lat="44.22134" lon="5.60017">
        <ele>733</ele>
        <time>2019-03-27T15:28:32Z</time>
      </trkpt>
      <trkpt lat="44.22134" lon="5.60031">
        <ele>733</ele>
        <time>2019-03-27T15:28:33Z</time>
      </trkpt>
      <trkpt lat="44.22133" lon="5.60044">
        <ele>733</ele>
        <time>2019-03-27T15:28:34Z</time>
      </trkpt>
      <trkpt lat="44.22133" lon="5.60058">
        <ele>733</ele>
        <time>2019-03-27T15:28:35Z</time>
      </trkpt>
      <trkpt lat="44.22132" lon="5.60072">
        <ele>733</ele>
        <time>2019-03-27T15:28:36Z</time>
      </trkpt>
      <trkpt lat="44.22132" lon="5.60085">
        <ele>733</ele>
        <time>2019-03-27T15:28:37Z</time>
      </trkpt>
      <trkpt lat="44.22131" lon="5.601">
        <ele>733</ele>
        <time>2019-03-27T15:28:38Z</time>
      </trkpt>
      <trkpt lat="44.22131" lon="5.60113">
        <ele>733</ele>
        <time>2019-03-27T15:28:39Z</time>
      </trkpt>
      <trkpt lat="44.22131" lon="5.60127">
        <ele>733</ele>
        <time>2019-03-27T15:28:40Z</time>
      </trkpt>
      <trkpt lat="44.2213" lon="5.60141">
        <ele>733</ele>
        <time>2019-03-27T15:28:41Z</time>
      </trkpt>
      <trkpt lat="44.22129" lon="5.60155">
        <ele>733</ele>
        <time>2019-03-27T15:28:42Z</time>
      </trkpt>
      <trkpt lat="44.22128" lon="5.60169">
        <ele>733</ele>
        <time>2019-03-27T15:28:43Z</time>
      </trkpt>
      <trkpt lat="44.22127" lon="5.60183">
        <ele>733</ele>
        <time>2019-03-27T15:28:44Z</time>
      </trkpt>
      <trkpt lat="44.22126" lon="5.60197">
        <ele>733</ele>
        <time>2019-03-27T15:28:45Z</time>
      </trkpt>
      <trkpt lat="44.22125" lon="5.60211">
        <ele>733</ele>
        <time>2019-03-27T15:28:46Z</time>
      </trkpt>
      <trkpt lat="44.22124" lon="5.60225">
        <ele>733</ele>
        <time>2019-03-27T15:28:47Z</time>
      </trkpt>
      <trkpt lat="44.22122" lon="5.60239">
        <ele>733</ele>
        <time>2019-03-27T15:28:48Z</time>
      </trkpt>
      <trkpt lat="44.22121" lon="5.60252">
        <ele>733</ele>
        <time>2019-03-27T15:28:49Z</time>
      </trkpt>
      <trkpt lat="44.2212" lon="5.60266">
        <ele>733</ele>
        <time>2019-03-27T15:28:50Z</time>
      </trkpt>
      <trkpt lat="44.22118" lon="5.6028">
        <ele>732</ele>
        <time>2019-03-27T15:28:51Z</time>
      </trkpt>
      <trkpt lat="44.22116" lon="5.60293">
        <ele>732</ele>
        <time>2019-03-27T15:28:52Z</time>
      </trkpt>
      <trkpt lat="44.22115" lon="5.60307">
        <ele>732</ele>
        <time>2019-03-27T15:28:53Z</time>
      </trkpt>
      <trkpt lat="44.22113" lon="5.6032">
        <ele>732</ele>
        <time>2019-03-27T15:28:54Z</time>
      </trkpt>
      <trkpt lat="44.22113" lon="5.60333">
        <ele>732</ele>
        <time>2019-03-27T15:28:55Z</time>
      </trkpt>
      <trkpt lat="44.22112" lon="5.60346">
        <ele>732</ele>
        <time>2019-03-27T15:28:56Z</time>
      </trkpt>
      <trkpt lat="44.22112" lon="5.60359">
        <ele>732</ele>
        <time>2019-03-27T15:28:57Z</time>
      </trkpt>
      <trkpt lat="44.22113" lon="5.60372">
        <ele>732</ele>
        <time>2019-03-27T15:28:58Z</time>
      </trkpt>
      <trkpt lat="44.22115" lon="5.60386">
        <ele>732</ele>
        <time>2019-03-27T15:28:59Z</time>
      </trkpt>
      <trkpt lat="44.22117" lon="5.60399">
        <ele>732</ele>
        <time>2019-03-27T15:29:00Z</time>
      </trkpt>
      <trkpt lat="44.22119" lon="5.60412">
        <ele>732</ele>
        <time>2019-03-27T15:29:01Z</time>
      </trkpt>
      <trkpt lat="44.22122" lon="5.60425">
        <ele>732</ele>
        <time>2019-03-27T15:29:02Z</time>
      </trkpt>
      <trkpt lat="44.22124" lon="5.60437">
        <ele>732</ele>
        <time>2019-03-27T15:29:03Z</time>
      </trkpt>
      <trkpt lat="44.22126" lon="5.6045">
        <ele>731</ele>
        <time>2019-03-27T15:29:04Z</time>
      </trkpt>
      <trkpt lat="44.22128" lon="5.60464">
        <ele>731</ele>
        <time>2019-03-27T15:29:05Z</time>
      </trkpt>
      <trkpt lat="44.2213" lon="5.60477">
        <ele>731</ele>
        <time>2019-03-27T15:29:06Z</time>
      </trkpt>
      <trkpt lat="44.22131" lon="5.60491">
        <ele>731</ele>
        <time>2019-03-27T15:29:07Z</time>
      </trkpt>
      <trkpt lat="44.22132" lon="5.60504">
        <ele>731</ele>
        <time>2019-03-27T15:29:08Z</time>
      </trkpt>
      <trkpt lat="44.22132" lon="5.60518">
        <ele>730</ele>
        <time>2019-03-27T15:29:09Z</time>
      </trkpt>
      <trkpt lat="44.22132" lon="5.60532">
        <ele>730</ele>
        <time>2019-03-27T15:29:10Z</time>
      </trkpt>
      <trkpt lat="44.22132" lon="5.60545">
        <ele>730</ele>
        <time>2019-03-27T15:29:11Z</time>
      </trkpt>
      <trkpt lat="44.22131" lon="5.60559">
        <ele>730</ele>
        <time>2019-03-27T15:29:12Z</time>
      </trkpt>
      <trkpt lat="44.22131" lon="5.60572">
        <ele>730</ele>
        <time>2019-03-27T15:29:13Z</time>
      </trkpt>
      <trkpt lat="44.22129" lon="5.60586">
        <ele>730</ele>
        <time>2019-03-27T15:29:14Z</time>
      </trkpt>
      <trkpt lat="44.22128" lon="5.60599">
        <ele>730</ele>
        <time>2019-03-27T15:29:15Z</time>
      </trkpt>
      <trkpt lat="44.22126" lon="5.60613">
        <ele>730</ele>
        <time>2019-03-27T15:29:16Z</time>
      </trkpt>
      <trkpt lat="44.22125" lon="5.60626">
        <ele>730</ele>
        <time>2019-03-27T15:29:17Z</time>
      </trkpt>
      <trkpt lat="44.22123" lon="5.6064">
        <ele>729</ele>
        <time>2019-03-27T15:29:18Z</time>
      </trkpt>
      <trkpt lat="44.22121" lon="5.60653">
        <ele>729</ele>
        <time>2019-03-27T15:29:19Z</time>
      </trkpt>
      <trkpt lat="44.22119" lon="5.60667">
        <ele>729</ele>
        <time>2019-03-27T15:29:20Z</time>
      </trkpt>
      <trkpt lat="44.22116" lon="5.6068">
        <ele>729</ele>
        <time>2019-03-27T15:29:21Z</time>
      </trkpt>
      <trkpt lat="44.22114" lon="5.60693">
        <ele>729</ele>
        <time>2019-03-27T15:29:22Z</time>
      </trkpt>
      <trkpt lat="44.22112" lon="5.60706">
        <ele>729</ele>
        <time>2019-03-27T15:29:23Z</time>
      </trkpt>
      <trkpt lat="44.2211" lon="5.60719">
        <ele>729</ele>
        <time>2019-03-27T15:29:24Z</time>
      </trkpt>
      <trkpt lat="44.22107" lon="5.60733">
        <ele>729</ele>
        <time>2019-03-27T15:29:25Z</time>
      </trkpt>
      <trkpt lat="44.22105" lon="5.60745">
        <ele>729</ele>
        <time>2019-03-27T15:29:26Z</time>
      </trkpt>
      <trkpt lat="44.22104" lon="5.60758">
        <ele>729</ele>
        <time>2019-03-27T15:29:27Z</time>
      </trkpt>
      <trkpt lat="44.22104" lon="5.60771">
        <ele>729</ele>
        <time>2019-03-27T15:29:28Z</time>
      </trkpt>
      <trkpt lat="44.22104" lon="5.60784">
        <ele>729</ele>
        <time>2019-03-27T15:29:29Z</time>
      </trkpt>
      <trkpt lat="44.22105" lon="5.60796">
        <ele>729</ele>
        <time>2019-03-27T15:29:30Z</time>
      </trkpt>
      <trkpt lat="44.22107" lon="5.60809">
        <ele>729</ele>
        <time>2019-03-27T15:29:31Z</time>
      </trkpt>
      <trkpt lat="44.2211" lon="5.60822">
        <ele>729</ele>
        <time>2019-03-27T15:29:32Z</time>
      </trkpt>
      <trkpt lat="44.22113" lon="5.60834">
        <ele>729</ele>
        <time>2019-03-27T15:29:33Z</time>
      </trkpt>
      <trkpt lat="44.22117" lon="5.60846">
        <ele>729</ele>
        <time>2019-03-27T15:29:34Z</time>
      </trkpt>
      <trkpt lat="44.22121" lon="5.60858">
        <ele>729</ele>
        <time>2019-03-27T15:29:35Z</time>
      </trkpt>
      <trkpt lat="44.22124" lon="5.60869">
        <ele>729</ele>
        <time>2019-03-27T15:29:36Z</time>
      </trkpt>
      <trkpt lat="44.22128" lon="5.60881">
        <ele>729</ele>
        <time>2019-03-27T15:29:37Z</time>
      </trkpt>
      <trkpt lat="44.22131" lon="5.60892">
        <ele>729</ele>
        <time>2019-03-27T15:29:38Z</time>
      </trkpt>
      <trkpt lat="44.22134" lon="5.60904">
        <ele>729</ele>
        <time>2019-03-27T15:29:39Z</time>
      </trkpt>
      <trkpt lat="44.22137" lon="5.60915">
        <ele>729</ele>
        <time>2019-03-27T15:29:40Z</time>
      </trkpt>
      <trkpt lat="44.2214" lon="5.60927">
        <ele>729</ele>
        <time>2019-03-27T15:29:41Z</time>
      </trkpt>
      <trkpt lat="44.22142" lon="5.60939">
        <ele>729</ele>
        <time>2019-03-27T15:29:42Z</time>
      </trkpt>
      <trkpt lat="44.22144" lon="5.6095">
        <ele>729</ele>
        <time>2019-03-27T15:29:43Z</time>
      </trkpt>
      <trkpt lat="44.22147" lon="5.60962">
        <ele>729</ele>
        <time>2019-03-27T15:29:44Z</time>
      </trkpt>
      <trkpt lat="44.22148" lon="5.60974">
        <ele>729</ele>
        <time>2019-03-27T15:29:45Z</time>
      </trkpt>
      <trkpt lat="44.2215" lon="5.60985">
        <ele>729</ele>
        <time>2019-03-27T15:29:46Z</time>
      </trkpt>
      <trkpt lat="44.22152" lon="5.60997">
        <ele>729</ele>
        <time>2019-03-27T15:29:47Z</time>
      </trkpt>
      <trkpt lat="44.22154" lon="5.61008">
        <ele>729</ele>
        <time>2019-03-27T15:29:48Z</time>
      </trkpt>
      <trkpt lat="44.22156" lon="5.6102">
        <ele>729</ele>
        <time>2019-03-27T15:29:49Z</time>
      </trkpt>
      <trkpt lat="44.22158" lon="5.61031">
        <ele>729</ele>
        <time>2019-03-27T15:29:50Z</time>
      </trkpt>
      <trkpt lat="44.2216" lon="5.61043">
        <ele>729</ele>
        <time>2019-03-27T15:29:51Z</time>
      </trkpt>
      <trkpt lat="44.22161" lon="5.61055">
        <ele>729</ele>
        <time>2019-03-27T15:29:52Z</time>
      </trkpt>
      <trkpt lat="44.22163" lon="5.61067">
        <ele>729</ele>
        <time>2019-03-27T15:29:53Z</time>
      </trkpt>
      <trkpt lat="44.22165" lon="5.61079">
        <ele>729</ele>
        <time>2019-03-27T15:29:54Z</time>
      </trkpt>
      <trkpt lat="44.22167" lon="5.61091">
        <ele>729</ele>
        <time>2019-03-27T15:29:55Z</time>
      </trkpt>
      <trkpt lat="44.22169" lon="5.61103">
        <ele>729</ele>
        <time>2019-03-27T15:29:56Z</time>
      </trkpt>
      <trkpt lat="44.22171" lon="5.61115">
        <ele>729</ele>
        <time>2019-03-27T15:29:57Z</time>
      </trkpt>
      <trkpt lat="44.22173" lon="5.61127">
        <ele>729</ele>
        <time>2019-03-27T15:29:58Z</time>
      </trkpt>
      <trkpt lat="44.22175" lon="5.61139">
        <ele>729</ele>
        <time>2019-03-27T15:29:59Z</time>
      </trkpt>
      <trkpt lat="44.22177" lon="5.61151">
        <ele>729</ele>
        <time>2019-03-27T15:30:00Z</time>
      </trkpt>
      <trkpt lat="44.22179" lon="5.61163">
        <ele>729</ele>
        <time>2019-03-27T15:30:01Z</time>
      </trkpt>
      <trkpt lat="44.22182" lon="5.61176">
        <ele>729</ele>
        <time>2019-03-27T15:30:02Z</time>
      </trkpt>
      <trkpt lat="44.22184" lon="5.61188">
        <ele>729</ele>
        <time>2019-03-27T15:30:03Z</time>
      </trkpt>
      <trkpt lat="44.22187" lon="5.61201">
        <ele>729</ele>
        <time>2019-03-27T15:30:04Z</time>
      </trkpt>
      <trkpt lat="44.2219" lon="5.61213">
        <ele>729</ele>
        <time>2019-03-27T15:30:05Z</time>
      </trkpt>
      <trkpt lat="44.22193" lon="5.61225">
        <ele>729</ele>
        <time>2019-03-27T15:30:06Z</time>
      </trkpt>
      <trkpt lat="44.22197" lon="5.61238">
        <ele>729</ele>
        <time>2019-03-27T15:30:07Z</time>
      </trkpt>
      <trkpt lat="44.222" lon="5.61251">
        <ele>729</ele>
        <time>2019-03-27T15:30:08Z</time>
      </trkpt>
      <trkpt lat="44.22203" lon="5.61264">
        <ele>729</ele>
        <time>2019-03-27T15:30:09Z</time>
      </trkpt>
      <trkpt lat="44.22206" lon="5.61276">
        <ele>729</ele>
        <time>2019-03-27T15:30:10Z</time>
      </trkpt>
      <trkpt lat="44.22209" lon="5.6129">
        <ele>729</ele>
        <time>2019-03-27T15:30:11Z</time>
      </trkpt>
      <trkpt lat="44.22213" lon="5.61303">
        <ele>729</ele>
        <time>2019-03-27T15:30:12Z</time>
      </trkpt>
      <trkpt lat="44.22216" lon="5.61316">
        <ele>729</ele>
        <time>2019-03-27T15:30:13Z</time>
      </trkpt>
      <trkpt lat="44.2222" lon="5.61329">
        <ele>729</ele>
        <time>2019-03-27T15:30:14Z</time>
      </trkpt>
      <trkpt lat="44.22223" lon="5.61343">
        <ele>729</ele>
        <time>2019-03-27T15:30:15Z</time>
      </trkpt>
      <trkpt lat="44.22226" lon="5.61356">
        <ele>729</ele>
        <time>2019-03-27T15:30:16Z</time>
      </trkpt>
      <trkpt lat="44.22229" lon="5.6137">
        <ele>729</ele>
        <time>2019-03-27T15:30:17Z</time>
      </trkpt>
      <trkpt lat="44.22232" lon="5.61383">
        <ele>728</ele>
        <time>2019-03-27T15:30:18Z</time>
      </trkpt>
      <trkpt lat="44.22235" lon="5.61397">
        <ele>728</ele>
        <time>2019-03-27T15:30:19Z</time>
      </trkpt>
      <trkpt lat="44.22238" lon="5.6141">
        <ele>728</ele>
        <time>2019-03-27T15:30:20Z</time>
      </trkpt>
      <trkpt lat="44.22241" lon="5.61424">
        <ele>728</ele>
        <time>2019-03-27T15:30:21Z</time>
      </trkpt>
      <trkpt lat="44.22243" lon="5.61437">
        <ele>728</ele>
        <time>2019-03-27T15:30:22Z</time>
      </trkpt>
      <trkpt lat="44.22247" lon="5.6145">
        <ele>728</ele>
        <time>2019-03-27T15:30:23Z</time>
      </trkpt>
      <trkpt lat="44.2225" lon="5.61464">
        <ele>728</ele>
        <time>2019-03-27T15:30:24Z</time>
      </trkpt>
      <trkpt lat="44.22253" lon="5.61477">
        <ele>728</ele>
        <time>2019-03-27T15:30:25Z</time>
      </trkpt>
      <trkpt lat="44.22257" lon="5.6149">
        <ele>728</ele>
        <time>2019-03-27T15:30:26Z</time>
      </trkpt>
      <trkpt lat="44.2226" lon="5.61503">
        <ele>727</ele>
        <time>2019-03-27T15:30:27Z</time>
      </trkpt>
      <trkpt lat="44.22264" lon="5.61516">
        <ele>727</ele>
        <time>2019-03-27T15:30:28Z</time>
      </trkpt>
      <trkpt lat="44.22268" lon="5.61529">
        <ele>727</ele>
        <time>2019-03-27T15:30:29Z</time>
      </trkpt>
      <trkpt lat="44.22271" lon="5.61542">
        <ele>727</ele>
        <time>2019-03-27T15:30:30Z</time>
      </trkpt>
      <trkpt lat="44.22276" lon="5.61554">
        <ele>727</ele>
        <time>2019-03-27T15:30:31Z</time>
      </trkpt>
      <trkpt lat="44.2228" lon="5.61567">
        <ele>727</ele>
        <time>2019-03-27T15:30:32Z</time>
      </trkpt>
      <trkpt lat="44.22285" lon="5.61579">
        <ele>727</ele>
        <time>2019-03-27T15:30:33Z</time>
      </trkpt>
      <trkpt lat="44.2229" lon="5.61591">
        <ele>727</ele>
        <time>2019-03-27T15:30:34Z</time>
      </trkpt>
      <trkpt lat="44.22295" lon="5.61604">
        <ele>727</ele>
        <time>2019-03-27T15:30:35Z</time>
      </trkpt>
      <trkpt lat="44.223" lon="5.61617">
        <ele>727</ele>
        <time>2019-03-27T15:30:36Z</time>
      </trkpt>
      <trkpt lat="44.22305" lon="5.6163">
        <ele>727</ele>
        <time>2019-03-27T15:30:37Z</time>
      </trkpt>
      <trkpt lat="44.22311" lon="5.61643">
        <ele>726</ele>
        <time>2019-03-27T15:30:38Z</time>
      </trkpt>
      <trkpt lat="44.22316" lon="5.61656">
        <ele>726</ele>
        <time>2019-03-27T15:30:39Z</time>
      </trkpt>
      <trkpt lat="44.22321" lon="5.61669">
        <ele>726</ele>
        <time>2019-03-27T15:30:40Z</time>
      </trkpt>
      <trkpt lat="44.22327" lon="5.61682">
        <ele>726</ele>
        <time>2019-03-27T15:30:41Z</time>
      </trkpt>
      <trkpt lat="44.22332" lon="5.61695">
        <ele>726</ele>
        <time>2019-03-27T15:30:42Z</time>
      </trkpt>
      <trkpt lat="44.22337" lon="5.61708">
        <ele>726</ele>
        <time>2019-03-27T15:30:43Z</time>
      </trkpt>
      <trkpt lat="44.22343" lon="5.61721">
        <ele>726</ele>
        <time>2019-03-27T15:30:44Z</time>
      </trkpt>
      <trkpt lat="44.22348" lon="5.61734">
        <ele>726</ele>
        <time>2019-03-27T15:30:45Z</time>
      </trkpt>
      <trkpt lat="44.22354" lon="5.61748">
        <ele>726</ele>
        <time>2019-03-27T15:30:46Z</time>
      </trkpt>
      <trkpt lat="44.22359" lon="5.61761">
        <ele>726</ele>
        <time>2019-03-27T15:30:47Z</time>
      </trkpt>
      <trkpt lat="44.22364" lon="5.61775">
        <ele>725</ele>
        <time>2019-03-27T15:30:48Z</time>
      </trkpt>
      <trkpt lat="44.2237" lon="5.61789">
        <ele>725</ele>
        <time>2019-03-27T15:30:49Z</time>
      </trkpt>
      <trkpt lat="44.22375" lon="5.61803">
        <ele>725</ele>
        <time>2019-03-27T15:30:50Z</time>
      </trkpt>
      <trkpt lat="44.22379" lon="5.61817">
        <ele>725</ele>
        <time>2019-03-27T15:30:51Z</time>
      </trkpt>
      <trkpt lat="44.22383" lon="5.61832">
        <ele>724</ele>
        <time>2019-03-27T15:30:52Z</time>
      </trkpt>
      <trkpt lat="44.22387" lon="5.61846">
        <ele>724</ele>
        <time>2019-03-27T15:30:53Z</time>
      </trkpt>
      <trkpt lat="44.2239" lon="5.61861">
        <ele>724</ele>
        <time>2019-03-27T15:30:54Z</time>
      </trkpt>
      <trkpt lat="44.22394" lon="5.61876">
        <ele>724</ele>
        <time>2019-03-27T15:30:55Z</time>
      </trkpt>
      <trkpt lat="44.22397" lon="5.6189">
        <ele>724</ele>
        <time>2019-03-27T15:30:56Z</time>
      </trkpt>
      <trkpt lat="44.22401" lon="5.61903">
        <ele>724</ele>
        <time>2019-03-27T15:30:57Z</time>
      </trkpt>
      <trkpt lat="44.22406" lon="5.61916">
        <ele>724</ele>
        <time>2019-03-27T15:30:58Z</time>
      </trkpt>
      <trkpt lat="44.22411" lon="5.61929">
        <ele>724</ele>
        <time>2019-03-27T15:30:59Z</time>
      </trkpt>
      <trkpt lat="44.22417" lon="5.61942">
        <ele>724</ele>
        <time>2019-03-27T15:31:00Z</time>
      </trkpt>
      <trkpt lat="44.22424" lon="5.61954">
        <ele>724</ele>
        <time>2019-03-27T15:31:01Z</time>
      </trkpt>
      <trkpt lat="44.2243" lon="5.61967">
        <ele>723</ele>
        <time>2019-03-27T15:31:02Z</time>
      </trkpt>
      <trkpt lat="44.22435" lon="5.61979">
        <ele>723</ele>
        <time>2019-03-27T15:31:03Z</time>
      </trkpt>
      <trkpt lat="44.22441" lon="5.61992">
        <ele>723</ele>
        <time>2019-03-27T15:31:04Z</time>
      </trkpt>
      <trkpt lat="44.22447" lon="5.62004">
        <ele>722</ele>
        <time>2019-03-27T15:31:05Z</time>
      </trkpt>
      <trkpt lat="44.22453" lon="5.62016">
        <ele>722</ele>
        <time>2019-03-27T15:31:06Z</time>
      </trkpt>
      <trkpt lat="44.22459" lon="5.62029">
        <ele>722</ele>
        <time>2019-03-27T15:31:07Z</time>
      </trkpt>
      <trkpt lat="44.22465" lon="5.62041">
        <ele>721</ele>
        <time>2019-03-27T15:31:08Z</time>
      </trkpt>
      <trkpt lat="44.22471" lon="5.62054">
        <ele>721</ele>
        <time>2019-03-27T15:31:09Z</time>
      </trkpt>
      <trkpt lat="44.22476" lon="5.62067">
        <ele>721</ele>
        <time>2019-03-27T15:31:10Z</time>
      </trkpt>
      <trkpt lat="44.22482" lon="5.62079">
        <ele>721</ele>
        <time>2019-03-27T15:31:11Z</time>
      </trkpt>
      <trkpt lat="44.22487" lon="5.6209">
        <ele>721</ele>
        <time>2019-03-27T15:31:12Z</time>
      </trkpt>
      <trkpt lat="44.22492" lon="5.62102">
        <ele>721</ele>
        <time>2019-03-27T15:31:13Z</time>
      </trkpt>
      <trkpt lat="44.22498" lon="5.62114">
        <ele>721</ele>
        <time>2019-03-27T15:31:14Z</time>
      </trkpt>
      <trkpt lat="44.22503" lon="5.62125">
        <ele>721</ele>
        <time>2019-03-27T15:31:15Z</time>
      </trkpt>
      <trkpt lat="44.22508" lon="5.62138">
        <ele>721</ele>
        <time>2019-03-27T15:31:16Z</time>
      </trkpt>
      <trkpt lat="44.22513" lon="5.6215">
        <ele>721</ele>
        <time>2019-03-27T15:31:17Z</time>
      </trkpt>
      <trkpt lat="44.22516" lon="5.62163">
        <ele>721</ele>
        <time>2019-03-27T15:31:18Z</time>
      </trkpt>
      <trkpt lat="44.22519" lon="5.62175">
        <ele>721</ele>
        <time>2019-03-27T15:31:19Z</time>
      </trkpt>
      <trkpt lat="44.22522" lon="5.62188">
        <ele>721</ele>
        <time>2019-03-27T15:31:20Z</time>
      </trkpt>
      <trkpt lat="44.22523" lon="5.62201">
        <ele>721</ele>
        <time>2019-03-27T15:31:21Z</time>
      </trkpt>
      <trkpt lat="44.22523" lon="5.62213">
        <ele>721</ele>
        <time>2019-03-27T15:31:22Z</time>
      </trkpt>
      <trkpt lat="44.22524" lon="5.62226">
        <ele>721</ele>
        <time>2019-03-27T15:31:23Z</time>
      </trkpt>
      <trkpt lat="44.22524" lon="5.62239">
        <ele>721</ele>
        <time>2019-03-27T15:31:24Z</time>
      </trkpt>
      <trkpt lat="44.22525" lon="5.62251">
        <ele>721</ele>
        <time>2019-03-27T15:31:25Z</time>
      </trkpt>
      <trkpt lat="44.22527" lon="5.62263">
        <ele>721</ele>
        <time>2019-03-27T15:31:26Z</time>
      </trkpt>
      <trkpt lat="44.22528" lon="5.62275">
        <ele>721</ele>
        <time>2019-03-27T15:31:27Z</time>
      </trkpt>
      <trkpt lat="44.22529" lon="5.62287">
        <ele>721</ele>
        <time>2019-03-27T15:31:28Z</time>
      </trkpt>
      <trkpt lat="44.2253" lon="5.62299">
        <ele>721</ele>
        <time>2019-03-27T15:31:29Z</time>
      </trkpt>
      <trkpt lat="44.22533" lon="5.62311">
        <ele>721</ele>
        <time>2019-03-27T15:31:30Z</time>
      </trkpt>
      <trkpt lat="44.22535" lon="5.62323">
        <ele>721</ele>
        <time>2019-03-27T15:31:31Z</time>
      </trkpt>
      <trkpt lat="44.22539" lon="5.62335">
        <ele>721</ele>
        <time>2019-03-27T15:31:32Z</time>
      </trkpt>
      <trkpt lat="44.22542" lon="5.62347">
        <ele>721</ele>
        <time>2019-03-27T15:31:33Z</time>
      </trkpt>
      <trkpt lat="44.22546" lon="5.62358">
        <ele>721</ele>
        <time>2019-03-27T15:31:34Z</time>
      </trkpt>
      <trkpt lat="44.2255" lon="5.6237">
        <ele>721</ele>
        <time>2019-03-27T15:31:35Z</time>
      </trkpt>
      <trkpt lat="44.22554" lon="5.6238">
        <ele>721</ele>
        <time>2019-03-27T15:31:36Z</time>
      </trkpt>
      <trkpt lat="44.22558" lon="5.62391">
        <ele>721</ele>
        <time>2019-03-27T15:31:37Z</time>
      </trkpt>
      <trkpt lat="44.22563" lon="5.62401">
        <ele>721</ele>
        <time>2019-03-27T15:31:38Z</time>
      </trkpt>
      <trkpt lat="44.22568" lon="5.62412">
        <ele>721</ele>
        <time>2019-03-27T15:31:39Z</time>
      </trkpt>
      <trkpt lat="44.22572" lon="5.62423">
        <ele>721</ele>
        <time>2019-03-27T15:31:40Z</time>
      </trkpt>
      <trkpt lat="44.22577" lon="5.62433">
        <ele>721</ele>
        <time>2019-03-27T15:31:41Z</time>
      </trkpt>
      <trkpt lat="44.22582" lon="5.62443">
        <ele>721</ele>
        <time>2019-03-27T15:31:42Z</time>
      </trkpt>
      <trkpt lat="44.22586" lon="5.62454">
        <ele>721</ele>
        <time>2019-03-27T15:31:43Z</time>
      </trkpt>
      <trkpt lat="44.22591" lon="5.62464">
        <ele>721</ele>
        <time>2019-03-27T15:31:44Z</time>
      </trkpt>
      <trkpt lat="44.22596" lon="5.62473">
        <ele>721</ele>
        <time>2019-03-27T15:31:45Z</time>
      </trkpt>
      <trkpt lat="44.22601" lon="5.62483">
        <ele>721</ele>
        <time>2019-03-27T15:31:46Z</time>
      </trkpt>
      <trkpt lat="44.22606" lon="5.62493">
        <ele>721</ele>
        <time>2019-03-27T15:31:47Z</time>
      </trkpt>
      <trkpt lat="44.22612" lon="5.62502">
        <ele>721</ele>
        <time>2019-03-27T15:31:48Z</time>
      </trkpt>
      <trkpt lat="44.22617" lon="5.62512">
        <ele>721</ele>
        <time>2019-03-27T15:31:49Z</time>
      </trkpt>
      <trkpt lat="44.22623" lon="5.62521">
        <ele>721</ele>
        <time>2019-03-27T15:31:50Z</time>
      </trkpt>
      <trkpt lat="44.22628" lon="5.62531">
        <ele>721</ele>
        <time>2019-03-27T15:31:51Z</time>
      </trkpt>
      <trkpt lat="44.22634" lon="5.6254">
        <ele>721</ele>
        <time>2019-03-27T15:31:52Z</time>
      </trkpt>
      <trkpt lat="44.22639" lon="5.62549">
        <ele>721</ele>
        <time>2019-03-27T15:31:53Z</time>
      </trkpt>
      <trkpt lat="44.22645" lon="5.62558">
        <ele>721</ele>
        <time>2019-03-27T15:31:54Z</time>
      </trkpt>
      <trkpt lat="44.2265" lon="5.62568">
        <ele>721</ele>
        <time>2019-03-27T15:31:55Z</time>
      </trkpt>
      <trkpt lat="44.22656" lon="5.62577">
        <ele>721</ele>
        <time>2019-03-27T15:31:56Z</time>
      </trkpt>
      <trkpt lat="44.22662" lon="5.62586">
        <ele>721</ele>
        <time>2019-03-27T15:31:57Z</time>
      </trkpt>
      <trkpt lat="44.22667" lon="5.62595">
        <ele>721</ele>
        <time>2019-03-27T15:31:58Z</time>
      </trkpt>
      <trkpt lat="44.22673" lon="5.62604">
        <ele>721</ele>
        <time>2019-03-27T15:31:59Z</time>
      </trkpt>
      <trkpt lat="44.22678" lon="5.62612">
        <ele>721</ele>
        <time>2019-03-27T15:32:00Z</time>
      </trkpt>
      <trkpt lat="44.22683" lon="5.62621">
        <ele>721</ele>
        <time>2019-03-27T15:32:01Z</time>
      </trkpt>
      <trkpt lat="44.22688" lon="5.6263">
        <ele>721</ele>
        <time>2019-03-27T15:32:02Z</time>
      </trkpt>
      <trkpt lat="44.22693" lon="5.62639">
        <ele>721</ele>
        <time>2019-03-27T15:32:03Z</time>
      </trkpt>
      <trkpt lat="44.22698" lon="5.62647">
        <ele>721</ele>
        <time>2019-03-27T15:32:04Z</time>
      </trkpt>
      <trkpt lat="44.22703" lon="5.62656">
        <ele>721</ele>
        <time>2019-03-27T15:32:05Z</time>
      </trkpt>
      <trkpt lat="44.22708" lon="5.62664">
        <ele>721</ele>
        <time>2019-03-27T15:32:06Z</time>
      </trkpt>
      <trkpt lat="44.22713" lon="5.62673">
        <ele>721</ele>
        <time>2019-03-27T15:32:07Z</time>
      </trkpt>
      <trkpt lat="44.22718" lon="5.62681">
        <ele>721</ele>
        <time>2019-03-27T15:32:08Z</time>
      </trkpt>
      <trkpt lat="44.22723" lon="5.62689">
        <ele>721</ele>
        <time>2019-03-27T15:32:09Z</time>
      </trkpt>
      <trkpt lat="44.22729" lon="5.62698">
        <ele>721</ele>
        <time>2019-03-27T15:32:10Z</time>
      </trkpt>
      <trkpt lat="44.22734" lon="5.62706">
        <ele>721</ele>
        <time>2019-03-27T15:32:11Z</time>
      </trkpt>
      <trkpt lat="44.22739" lon="5.62714">
        <ele>721</ele>
        <time>2019-03-27T15:32:12Z</time>
      </trkpt>
      <trkpt lat="44.22745" lon="5.62722">
        <ele>721</ele>
        <time>2019-03-27T15:32:13Z</time>
      </trkpt>
      <trkpt lat="44.22751" lon="5.6273">
        <ele>721</ele>
        <time>2019-03-27T15:32:14Z</time>
      </trkpt>
      <trkpt lat="44.22757" lon="5.62738">
        <ele>721</ele>
        <time>2019-03-27T15:32:15Z</time>
      </trkpt>
      <trkpt lat="44.22763" lon="5.62745">
        <ele>721</ele>
        <time>2019-03-27T15:32:16Z</time>
      </trkpt>
      <trkpt lat="44.2277" lon="5.62752">
        <ele>721</ele>
        <time>2019-03-27T15:32:17Z</time>
      </trkpt>
      <trkpt lat="44.22776" lon="5.62759">
        <ele>721</ele>
        <time>2019-03-27T15:32:18Z</time>
      </trkpt>
      <trkpt lat="44.22783" lon="5.62766">
        <ele>721</ele>
        <time>2019-03-27T15:32:19Z</time>
      </trkpt>
      <trkpt lat="44.2279" lon="5.62773">
        <ele>721</ele>
        <time>2019-03-27T15:32:20Z</time>
      </trkpt>
      <trkpt lat="44.22797" lon="5.6278">
        <ele>721</ele>
        <time>2019-03-27T15:32:21Z</time>
      </trkpt>
      <trkpt lat="44.22804" lon="5.62786">
        <ele>721</ele>
        <time>2019-03-27T15:32:22Z</time>
      </trkpt>
      <trkpt lat="44.22811" lon="5.62793">
        <ele>721</ele>
        <time>2019-03-27T15:32:23Z</time>
      </trkpt>
      <trkpt lat="44.22817" lon="5.62801">
        <ele>721</ele>
        <time>2019-03-27T15:32:24Z</time>
      </trkpt>
      <trkpt lat="44.22824" lon="5.62808">
        <ele>721</ele>
        <time>2019-03-27T15:32:25Z</time>
      </trkpt>
      <trkpt lat="44.22831" lon="5.62816">
        <ele>721</ele>
        <time>2019-03-27T15:32:26Z</time>
      </trkpt>
      <trkpt lat="44.22837" lon="5.62823">
        <ele>721</ele>
        <time>2019-03-27T15:32:27Z</time>
      </trkpt>
      <trkpt lat="44.22843" lon="5.62832">
        <ele>721</ele>
        <time>2019-03-27T15:32:28Z</time>
      </trkpt>
      <trkpt lat="44.2285" lon="5.6284">
        <ele>721</ele>
        <time>2019-03-27T15:32:29Z</time>
      </trkpt>
      <trkpt lat="44.22856" lon="5.62848">
        <ele>721</ele>
        <time>2019-03-27T15:32:30Z</time>
      </trkpt>
      <trkpt lat="44.22862" lon="5.62856">
        <ele>721</ele>
        <time>2019-03-27T15:32:31Z</time>
      </trkpt>
      <trkpt lat="44.22869" lon="5.62864">
        <ele>721</ele>
        <time>2019-03-27T15:32:32Z</time>
      </trkpt>
      <trkpt lat="44.22876" lon="5.62872">
        <ele>721</ele>
        <time>2019-03-27T15:32:33Z</time>
      </trkpt>
      <trkpt lat="44.22884" lon="5.6288">
        <ele>721</ele>
        <time>2019-03-27T15:32:34Z</time>
      </trkpt>
      <trkpt lat="44.22891" lon="5.62888">
        <ele>721</ele>
        <time>2019-03-27T15:32:35Z</time>
      </trkpt>
      <trkpt lat="44.22898" lon="5.62897">
        <ele>721</ele>
        <time>2019-03-27T15:32:36Z</time>
      </trkpt>
      <trkpt lat="44.22905" lon="5.62905">
        <ele>721</ele>
        <time>2019-03-27T15:32:37Z</time>
      </trkpt>
      <trkpt lat="44.22913" lon="5.62914">
        <ele>721</ele>
        <time>2019-03-27T15:32:38Z</time>
      </trkpt>
      <trkpt lat="44.22921" lon="5.62922">
        <ele>721</ele>
        <time>2019-03-27T15:32:39Z</time>
      </trkpt>
      <trkpt lat="44.22929" lon="5.62931">
        <ele>721</ele>
        <time>2019-03-27T15:32:40Z</time>
      </trkpt>
      <trkpt lat="44.22937" lon="5.62939">
        <ele>721</ele>
        <time>2019-03-27T15:32:41Z</time>
      </trkpt>
      <trkpt lat="44.22946" lon="5.62947">
        <ele>720</ele>
        <time>2019-03-27T15:32:42Z</time>
      </trkpt>
      <trkpt lat="44.22955" lon="5.62954">
        <ele>720</ele>
        <time>2019-03-27T15:32:43Z</time>
      </trkpt>
      <trkpt lat="44.22964" lon="5.62959">
        <ele>719</ele>
        <time>2019-03-27T15:32:44Z</time>
      </trkpt>
      <trkpt lat="44.22973" lon="5.62965">
        <ele>719</ele>
        <time>2019-03-27T15:32:45Z</time>
      </trkpt>
      <trkpt lat="44.22982" lon="5.62972">
        <ele>718</ele>
        <time>2019-03-27T15:32:46Z</time>
      </trkpt>
      <trkpt lat="44.22992" lon="5.62979">
        <ele>718</ele>
        <time>2019-03-27T15:32:47Z</time>
      </trkpt>
      <trkpt lat="44.23001" lon="5.62987">
        <ele>718</ele>
        <time>2019-03-27T15:32:48Z</time>
      </trkpt>
      <trkpt lat="44.2301" lon="5.62995">
        <ele>717</ele>
        <time>2019-03-27T15:32:49Z</time>
      </trkpt>
      <trkpt lat="44.23019" lon="5.63005">
        <ele>717</ele>
        <time>2019-03-27T15:32:50Z</time>
      </trkpt>
      <trkpt lat="44.23027" lon="5.63015">
        <ele>717</ele>
        <time>2019-03-27T15:32:51Z</time>
      </trkpt>
      <trkpt lat="44.23035" lon="5.63024">
        <ele>716</ele>
        <time>2019-03-27T15:32:52Z</time>
      </trkpt>
      <trkpt lat="44.23043" lon="5.63034">
        <ele>716</ele>
        <time>2019-03-27T15:32:53Z</time>
      </trkpt>
      <trkpt lat="44.23052" lon="5.63043">
        <ele>715</ele>
        <time>2019-03-27T15:32:54Z</time>
      </trkpt>
      <trkpt lat="44.23061" lon="5.63051">
        <ele>715</ele>
        <time>2019-03-27T15:32:55Z</time>
      </trkpt>
      <trkpt lat="44.23071" lon="5.63058">
        <ele>714</ele>
        <time>2019-03-27T15:32:56Z</time>
      </trkpt>
      <trkpt lat="44.23081" lon="5.63063">
        <ele>714</ele>
        <time>2019-03-27T15:32:57Z</time>
      </trkpt>
      <trkpt lat="44.23091" lon="5.63068">
        <ele>713</ele>
        <time>2019-03-27T15:32:58Z</time>
      </trkpt>
      <trkpt lat="44.23102" lon="5.63072">
        <ele>713</ele>
        <time>2019-03-27T15:32:59Z</time>
      </trkpt>
      <trkpt lat="44.23113" lon="5.63075">
        <ele>713</ele>
        <time>2019-03-27T15:33:00Z</time>
      </trkpt>
      <trkpt lat="44.23124" lon="5.63077">
        <ele>712</ele>
        <time>2019-03-27T15:33:01Z</time>
      </trkpt>
      <trkpt lat="44.23135" lon="5.6308">
        <ele>712</ele>
        <time>2019-03-27T15:33:02Z</time>
      </trkpt>
      <trkpt lat="44.23146" lon="5.63083">
        <ele>712</ele>
        <time>2019-03-27T15:33:03Z</time>
      </trkpt>
      <trkpt lat="44.23157" lon="5.63085">
        <ele>711</ele>
        <time>2019-03-27T15:33:04Z</time>
      </trkpt>
      <trkpt lat="44.23168" lon="5.63088">
        <ele>711</ele>
        <time>2019-03-27T15:33:05Z</time>
      </trkpt>
      <trkpt lat="44.23179" lon="5.6309">
        <ele>711</ele>
        <time>2019-03-27T15:33:06Z</time>
      </trkpt>
      <trkpt lat="44.23189" lon="5.63093">
        <ele>711</ele>
        <time>2019-03-27T15:33:07Z</time>
      </trkpt>
      <trkpt lat="44.232" lon="5.63095">
        <ele>710</ele>
        <time>2019-03-27T15:33:08Z</time>
      </trkpt>
      <trkpt lat="44.2321" lon="5.63098">
        <ele>710</ele>
        <time>2019-03-27T15:33:09Z</time>
      </trkpt>
      <trkpt lat="44.23221" lon="5.631">
        <ele>710</ele>
        <time>2019-03-27T15:33:10Z</time>
      </trkpt>
      <trkpt lat="44.23231" lon="5.63103">
        <ele>710</ele>
        <time>2019-03-27T15:33:11Z</time>
      </trkpt>
      <trkpt lat="44.23241" lon="5.63106">
        <ele>710</ele>
        <time>2019-03-27T15:33:12Z</time>
      </trkpt>
      <trkpt lat="44.23252" lon="5.63108">
        <ele>710</ele>
        <time>2019-03-27T15:33:13Z</time>
      </trkpt>
      <trkpt lat="44.23262" lon="5.63111">
        <ele>710</ele>
        <time>2019-03-27T15:33:14Z</time>
      </trkpt>
      <trkpt lat="44.23272" lon="5.63113">
        <ele>710</ele>
        <time>2019-03-27T15:33:15Z</time>
      </trkpt>
      <trkpt lat="44.23282" lon="5.63115">
        <ele>710</ele>
        <time>2019-03-27T15:33:16Z</time>
      </trkpt>
      <trkpt lat="44.23291" lon="5.63118">
        <ele>710</ele>
        <time>2019-03-27T15:33:17Z</time>
      </trkpt>
      <trkpt lat="44.23301" lon="5.6312">
        <ele>710</ele>
        <time>2019-03-27T15:33:18Z</time>
      </trkpt>
      <trkpt lat="44.23311" lon="5.63122">
        <ele>710</ele>
        <time>2019-03-27T15:33:19Z</time>
      </trkpt>
      <trkpt lat="44.23321" lon="5.63124">
        <ele>710</ele>
        <time>2019-03-27T15:33:20Z</time>
      </trkpt>
      <trkpt lat="44.23331" lon="5.63127">
        <ele>710</ele>
        <time>2019-03-27T15:33:21Z</time>
      </trkpt>
      <trkpt lat="44.2334" lon="5.63129">
        <ele>710</ele>
        <time>2019-03-27T15:33:22Z</time>
      </trkpt>
      <trkpt lat="44.2335" lon="5.63131">
        <ele>710</ele>
        <time>2019-03-27T15:33:23Z</time>
      </trkpt>
      <trkpt lat="44.2336" lon="5.63133">
        <ele>710</ele>
        <time>2019-03-27T15:33:24Z</time>
      </trkpt>
      <trkpt lat="44.23369" lon="5.63136">
        <ele>710</ele>
        <time>2019-03-27T15:33:25Z</time>
      </trkpt>
      <trkpt lat="44.23379" lon="5.63138">
        <ele>710</ele>
        <time>2019-03-27T15:33:26Z</time>
      </trkpt>
      <trkpt lat="44.23388" lon="5.6314">
        <ele>710</ele>
        <time>2019-03-27T15:33:27Z</time>
      </trkpt>
      <trkpt lat="44.23398" lon="5.63143">
        <ele>710</ele>
        <time>2019-03-27T15:33:28Z</time>
      </trkpt>
      <trkpt lat="44.23407" lon="5.63145">
        <ele>710</ele>
        <time>2019-03-27T15:33:29Z</time>
      </trkpt>
      <trkpt lat="44.23416" lon="5.63147">
        <ele>710</ele>
        <time>2019-03-27T15:33:30Z</time>
      </trkpt>
      <trkpt lat="44.23425" lon="5.63149">
        <ele>710</ele>
        <time>2019-03-27T15:33:31Z</time>
      </trkpt>
      <trkpt lat="44.23434" lon="5.63151">
        <ele>710</ele>
        <time>2019-03-27T15:33:32Z</time>
      </trkpt>
      <trkpt lat="44.23443" lon="5.63154">
        <ele>710</ele>
        <time>2019-03-27T15:33:33Z</time>
      </trkpt>
      <trkpt lat="44.23451" lon="5.63156">
        <ele>710</ele>
        <time>2019-03-27T15:33:34Z</time>
      </trkpt>
      <trkpt lat="44.2346" lon="5.63158">
        <ele>710</ele>
        <time>2019-03-27T15:33:35Z</time>
      </trkpt>
      <trkpt lat="44.23468" lon="5.6316">
        <ele>710</ele>
        <time>2019-03-27T15:33:36Z</time>
      </trkpt>
      <trkpt lat="44.23477" lon="5.63162">
        <ele>710</ele>
        <time>2019-03-27T15:33:37Z</time>
      </trkpt>
      <trkpt lat="44.23485" lon="5.63164">
        <ele>710</ele>
        <time>2019-03-27T15:33:38Z</time>
      </trkpt>
      <trkpt lat="44.23493" lon="5.63166">
        <ele>710</ele>
        <time>2019-03-27T15:33:39Z</time>
      </trkpt>
      <trkpt lat="44.23501" lon="5.63167">
        <ele>710</ele>
        <time>2019-03-27T15:33:40Z</time>
      </trkpt>
      <trkpt lat="44.23509" lon="5.63169">
        <ele>710</ele>
        <time>2019-03-27T15:33:41Z</time>
      </trkpt>
      <trkpt lat="44.23516" lon="5.63171">
        <ele>710</ele>
        <time>2019-03-27T15:33:42Z</time>
      </trkpt>
      <trkpt lat="44.23524" lon="5.63173">
        <ele>710</ele>
        <time>2019-03-27T15:33:43Z</time>
      </trkpt>
      <trkpt lat="44.23531" lon="5.63175">
        <ele>710</ele>
        <time>2019-03-27T15:33:44Z</time>
      </trkpt>
      <trkpt lat="44.23539" lon="5.63177">
        <ele>710</ele>
        <time>2019-03-27T15:33:45Z</time>
      </trkpt>
      <trkpt lat="44.23547" lon="5.63179">
        <ele>710</ele>
        <time>2019-03-27T15:33:46Z</time>
      </trkpt>
      <trkpt lat="44.23555" lon="5.63181">
        <ele>710</ele>
        <time>2019-03-27T15:33:47Z</time>
      </trkpt>
      <trkpt lat="44.23563" lon="5.63183">
        <ele>710</ele>
        <time>2019-03-27T15:33:48Z</time>
      </trkpt>
      <trkpt lat="44.23572" lon="5.63185">
        <ele>710</ele>
        <time>2019-03-27T15:33:49Z</time>
      </trkpt>
      <trkpt lat="44.2358" lon="5.63187">
        <ele>710</ele>
        <time>2019-03-27T15:33:50Z</time>
      </trkpt>
      <trkpt lat="44.23589" lon="5.63189">
        <ele>710</ele>
        <time>2019-03-27T15:33:51Z</time>
      </trkpt>
      <trkpt lat="44.23598" lon="5.63191">
        <ele>710</ele>
        <time>2019-03-27T15:33:52Z</time>
      </trkpt>
      <trkpt lat="44.23607" lon="5.63193">
        <ele>710</ele>
        <time>2019-03-27T15:33:53Z</time>
      </trkpt>
      <trkpt lat="44.23616" lon="5.63195">
        <ele>710</ele>
        <time>2019-03-27T15:33:54Z</time>
      </trkpt>
      <trkpt lat="44.23625" lon="5.63197">
        <ele>710</ele>
        <time>2019-03-27T15:33:55Z</time>
      </trkpt>
      <trkpt lat="44.23634" lon="5.632">
        <ele>710</ele>
        <time>2019-03-27T15:33:56Z</time>
      </trkpt>
      <trkpt lat="44.23642" lon="5.63202">
        <ele>710</ele>
        <time>2019-03-27T15:33:57Z</time>
      </trkpt>
      <trkpt lat="44.23651" lon="5.63204">
        <ele>710</ele>
        <time>2019-03-27T15:33:58Z</time>
      </trkpt>
      <trkpt lat="44.2366" lon="5.63206">
        <ele>710</ele>
        <time>2019-03-27T15:33:59Z</time>
      </trkpt>
      <trkpt lat="44.23668" lon="5.63208">
        <ele>710</ele>
        <time>2019-03-27T15:34:00Z</time>
      </trkpt>
      <trkpt lat="44.23677" lon="5.63211">
        <ele>710</ele>
        <time>2019-03-27T15:34:01Z</time>
      </trkpt>
      <trkpt lat="44.23685" lon="5.63213">
        <ele>710</ele>
        <time>2019-03-27T15:34:02Z</time>
      </trkpt>
      <trkpt lat="44.23693" lon="5.63215">
        <ele>710</ele>
        <time>2019-03-27T15:34:03Z</time>
      </trkpt>
      <trkpt lat="44.237" lon="5.63217">
        <ele>710</ele>
        <time>2019-03-27T15:34:04Z</time>
      </trkpt>
      <trkpt lat="44.23708" lon="5.6322">
        <ele>710</ele>
        <time>2019-03-27T15:34:05Z</time>
      </trkpt>
      <trkpt lat="44.23716" lon="5.63223">
        <ele>710</ele>
        <time>2019-03-27T15:34:06Z</time>
      </trkpt>
      <trkpt lat="44.23723" lon="5.63226">
        <ele>710</ele>
        <time>2019-03-27T15:34:07Z</time>
      </trkpt>
      <trkpt lat="44.23731" lon="5.6323">
        <ele>710</ele>
        <time>2019-03-27T15:34:08Z</time>
      </trkpt>
      <trkpt lat="44.23738" lon="5.63234">
        <ele>710</ele>
        <time>2019-03-27T15:34:09Z</time>
      </trkpt>
      <trkpt lat="44.23746" lon="5.63238">
        <ele>710</ele>
        <time>2019-03-27T15:34:10Z</time>
      </trkpt>
      <trkpt lat="44.23753" lon="5.63243">
        <ele>710</ele>
        <time>2019-03-27T15:34:11Z</time>
      </trkpt>
      <trkpt lat="44.23761" lon="5.63248">
        <ele>710</ele>
        <time>2019-03-27T15:34:12Z</time>
      </trkpt>
      <trkpt lat="44.23769" lon="5.63253">
        <ele>710</ele>
        <time>2019-03-27T15:34:13Z</time>
      </trkpt>
      <trkpt lat="44.23777" lon="5.63259">
        <ele>710</ele>
        <time>2019-03-27T15:34:14Z</time>
      </trkpt>
      <trkpt lat="44.23785" lon="5.63265">
        <ele>710</ele>
        <time>2019-03-27T15:34:15Z</time>
      </trkpt>
      <trkpt lat="44.23792" lon="5.63272">
        <ele>710</ele>
        <time>2019-03-27T15:34:16Z</time>
      </trkpt>
      <trkpt lat="44.238" lon="5.63279">
        <ele>710</ele>
        <time>2019-03-27T15:34:17Z</time>
      </trkpt>
      <trkpt lat="44.23807" lon="5.63286">
        <ele>710</ele>
        <time>2019-03-27T15:34:18Z</time>
      </trkpt>
      <trkpt lat="44.23814" lon="5.63293">
        <ele>710</ele>
        <time>2019-03-27T15:34:19Z</time>
      </trkpt>
      <trkpt lat="44.23821" lon="5.633">
        <ele>710</ele>
        <time>2019-03-27T15:34:20Z</time>
      </trkpt>
      <trkpt lat="44.23828" lon="5.63307">
        <ele>710</ele>
        <time>2019-03-27T15:34:21Z</time>
      </trkpt>
      <trkpt lat="44.23835" lon="5.63314">
        <ele>710</ele>
        <time>2019-03-27T15:34:22Z</time>
      </trkpt>
      <trkpt lat="44.23841" lon="5.63321">
        <ele>710</ele>
        <time>2019-03-27T15:34:23Z</time>
      </trkpt>
      <trkpt lat="44.23848" lon="5.63328">
        <ele>710</ele>
        <time>2019-03-27T15:34:24Z</time>
      </trkpt>
      <trkpt lat="44.23855" lon="5.63335">
        <ele>710</ele>
        <time>2019-03-27T15:34:25Z</time>
      </trkpt>
      <trkpt lat="44.23861" lon="5.63342">
        <ele>710</ele>
        <time>2019-03-27T15:34:26Z</time>
      </trkpt>
      <trkpt lat="44.23867" lon="5.63349">
        <ele>710</ele>
        <time>2019-03-27T15:34:27Z</time>
      </trkpt>
      <trkpt lat="44.23874" lon="5.63356">
        <ele>710</ele>
        <time>2019-03-27T15:34:28Z</time>
      </trkpt>
      <trkpt lat="44.23881" lon="5.63363">
        <ele>710</ele>
        <time>2019-03-27T15:34:29Z</time>
      </trkpt>
      <trkpt lat="44.23888" lon="5.6337">
        <ele>710</ele>
        <time>2019-03-27T15:34:30Z</time>
      </trkpt>
      <trkpt lat="44.23894" lon="5.63377">
        <ele>710</ele>
        <time>2019-03-27T15:34:31Z</time>
      </trkpt>
      <trkpt lat="44.23901" lon="5.63383">
        <ele>710</ele>
        <time>2019-03-27T15:34:32Z</time>
      </trkpt>
      <trkpt lat="44.23908" lon="5.6339">
        <ele>710</ele>
        <time>2019-03-27T15:34:33Z</time>
      </trkpt>
      <trkpt lat="44.23914" lon="5.63397">
        <ele>710</ele>
        <time>2019-03-27T15:34:34Z</time>
      </trkpt>
      <trkpt lat="44.23921" lon="5.63404">
        <ele>710</ele>
        <time>2019-03-27T15:34:35Z</time>
      </trkpt>
      <trkpt lat="44.23928" lon="5.63411">
        <ele>710</ele>
        <time>2019-03-27T15:34:36Z</time>
      </trkpt>
      <trkpt lat="44.23935" lon="5.63418">
        <ele>710</ele>
        <time>2019-03-27T15:34:37Z</time>
      </trkpt>
      <trkpt lat="44.23941" lon="5.63425">
        <ele>710</ele>
        <time>2019-03-27T15:34:38Z</time>
      </trkpt>
      <trkpt lat="44.23948" lon="5.63432">
        <ele>709</ele>
        <time>2019-03-27T15:34:39Z</time>
      </trkpt>
      <trkpt lat="44.23955" lon="5.6344">
        <ele>709</ele>
        <time>2019-03-27T15:34:40Z</time>
      </trkpt>
      <trkpt lat="44.23962" lon="5.63447">
        <ele>709</ele>
        <time>2019-03-27T15:34:41Z</time>
      </trkpt>
      <trkpt lat="44.23969" lon="5.63454">
        <ele>709</ele>
        <time>2019-03-27T15:34:42Z</time>
      </trkpt>
      <trkpt lat="44.23977" lon="5.63461">
        <ele>709</ele>
        <time>2019-03-27T15:34:43Z</time>
      </trkpt>
      <trkpt lat="44.23984" lon="5.63469">
        <ele>709</ele>
        <time>2019-03-27T15:34:44Z</time>
      </trkpt>
      <trkpt lat="44.23991" lon="5.63476">
        <ele>709</ele>
        <time>2019-03-27T15:34:45Z</time>
      </trkpt>
      <trkpt lat="44.23998" lon="5.63484">
        <ele>709</ele>
        <time>2019-03-27T15:34:46Z</time>
      </trkpt>
      <trkpt lat="44.24005" lon="5.63491">
        <ele>709</ele>
        <time>2019-03-27T15:34:47Z</time>
      </trkpt>
      <trkpt lat="44.24012" lon="5.63498">
        <ele>709</ele>
        <time>2019-03-27T15:34:48Z</time>
      </trkpt>
      <trkpt lat="44.2402" lon="5.63506">
        <ele>709</ele>
        <time>2019-03-27T15:34:49Z</time>
      </trkpt>
      <trkpt lat="44.24028" lon="5.63513">
        <ele>709</ele>
        <time>2019-03-27T15:34:50Z</time>
      </trkpt>
      <trkpt lat="44.24035" lon="5.6352">
        <ele>709</ele>
        <time>2019-03-27T15:34:51Z</time>
      </trkpt>
      <trkpt lat="44.24042" lon="5.63528">
        <ele>709</ele>
        <time>2019-03-27T15:34:52Z</time>
      </trkpt>
      <trkpt lat="44.24049" lon="5.63536">
        <ele>709</ele>
        <time>2019-03-27T15:34:53Z</time>
      </trkpt>
      <trkpt lat="44.24056" lon="5.63543">
        <ele>709</ele>
        <time>2019-03-27T15:34:54Z</time>
      </trkpt>
      <trkpt lat="44.24063" lon="5.63551">
        <ele>709</ele>
        <time>2019-03-27T15:34:55Z</time>
      </trkpt>
      <trkpt lat="44.2407" lon="5.63558">
        <ele>709</ele>
        <time>2019-03-27T15:34:56Z</time>
      </trkpt>
      <trkpt lat="44.24078" lon="5.63565">
        <ele>709</ele>
        <time>2019-03-27T15:34:57Z</time>
      </trkpt>
      <trkpt lat="44.24084" lon="5.63573">
        <ele>709</ele>
        <time>2019-03-27T15:34:58Z</time>
      </trkpt>
      <trkpt lat="44.24091" lon="5.6358">
        <ele>709</ele>
        <time>2019-03-27T15:34:59Z</time>
      </trkpt>
      <trkpt lat="44.24098" lon="5.63587">
        <ele>709</ele>
        <time>2019-03-27T15:35:00Z</time>
      </trkpt>
      <trkpt lat="44.24104" lon="5.63594">
        <ele>709</ele>
        <time>2019-03-27T15:35:01Z</time>
      </trkpt>
      <trkpt lat="44.2411" lon="5.63602">
        <ele>709</ele>
        <time>2019-03-27T15:35:02Z</time>
      </trkpt>
      <trkpt lat="44.24116" lon="5.6361">
        <ele>709</ele>
        <time>2019-03-27T15:35:03Z</time>
      </trkpt>
      <trkpt lat="44.24122" lon="5.63618">
        <ele>709</ele>
        <time>2019-03-27T15:35:04Z</time>
      </trkpt>
      <trkpt lat="44.24127" lon="5.63627">
        <ele>709</ele>
        <time>2019-03-27T15:35:05Z</time>
      </trkpt>
      <trkpt lat="44.24132" lon="5.63636">
        <ele>709</ele>
        <time>2019-03-27T15:35:06Z</time>
      </trkpt>
      <trkpt lat="44.24136" lon="5.63645">
        <ele>709</ele>
        <time>2019-03-27T15:35:07Z</time>
      </trkpt>
      <trkpt lat="44.24141" lon="5.63654">
        <ele>709</ele>
        <time>2019-03-27T15:35:08Z</time>
      </trkpt>
      <trkpt lat="44.24144" lon="5.63664">
        <ele>709</ele>
        <time>2019-03-27T15:35:09Z</time>
      </trkpt>
      <trkpt lat="44.24148" lon="5.63674">
        <ele>709</ele>
        <time>2019-03-27T15:35:10Z</time>
      </trkpt>
      <trkpt lat="44.24152" lon="5.63684">
        <ele>709</ele>
        <time>2019-03-27T15:35:11Z</time>
      </trkpt>
      <trkpt lat="44.24155" lon="5.63694">
        <ele>709</ele>
        <time>2019-03-27T15:35:12Z</time>
      </trkpt>
      <trkpt lat="44.24159" lon="5.63704">
        <ele>709</ele>
        <time>2019-03-27T15:35:13Z</time>
      </trkpt>
      <trkpt lat="44.24162" lon="5.63714">
        <ele>709</ele>
        <time>2019-03-27T15:35:14Z</time>
      </trkpt>
      <trkpt lat="44.24166" lon="5.63725">
        <ele>709</ele>
        <time>2019-03-27T15:35:15Z</time>
      </trkpt>
      <trkpt lat="44.2417" lon="5.63735">
        <ele>709</ele>
        <time>2019-03-27T15:35:16Z</time>
      </trkpt>
      <trkpt lat="44.24174" lon="5.63746">
        <ele>709</ele>
        <time>2019-03-27T15:35:17Z</time>
      </trkpt>
      <trkpt lat="44.24178" lon="5.63756">
        <ele>709</ele>
        <time>2019-03-27T15:35:18Z</time>
      </trkpt>
      <trkpt lat="44.24181" lon="5.63767">
        <ele>709</ele>
        <time>2019-03-27T15:35:19Z</time>
      </trkpt>
      <trkpt lat="44.24185" lon="5.63778">
        <ele>709</ele>
        <time>2019-03-27T15:35:20Z</time>
      </trkpt>
      <trkpt lat="44.24189" lon="5.6379">
        <ele>709</ele>
        <time>2019-03-27T15:35:21Z</time>
      </trkpt>
      <trkpt lat="44.24192" lon="5.63801">
        <ele>709</ele>
        <time>2019-03-27T15:35:22Z</time>
      </trkpt>
      <trkpt lat="44.24195" lon="5.63813">
        <ele>709</ele>
        <time>2019-03-27T15:35:23Z</time>
      </trkpt>
      <trkpt lat="44.24197" lon="5.63824">
        <ele>709</ele>
        <time>2019-03-27T15:35:24Z</time>
      </trkpt>
      <trkpt lat="44.24199" lon="5.63836">
        <ele>709</ele>
        <time>2019-03-27T15:35:25Z</time>
      </trkpt>
      <trkpt lat="44.24199" lon="5.63849">
        <ele>709</ele>
        <time>2019-03-27T15:35:26Z</time>
      </trkpt>
      <trkpt lat="44.24198" lon="5.63861">
        <ele>709</ele>
        <time>2019-03-27T15:35:27Z</time>
      </trkpt>
      <trkpt lat="44.24195" lon="5.63873">
        <ele>709</ele>
        <time>2019-03-27T15:35:28Z</time>
      </trkpt>
      <trkpt lat="44.24192" lon="5.63884">
        <ele>709</ele>
        <time>2019-03-27T15:35:29Z</time>
      </trkpt>
      <trkpt lat="44.24187" lon="5.63895">
        <ele>709</ele>
        <time>2019-03-27T15:35:30Z</time>
      </trkpt>
      <trkpt lat="44.24182" lon="5.63905">
        <ele>709</ele>
        <time>2019-03-27T15:35:31Z</time>
      </trkpt>
      <trkpt lat="44.24176" lon="5.63915">
        <ele>709</ele>
        <time>2019-03-27T15:35:32Z</time>
      </trkpt>
      <trkpt lat="44.24169" lon="5.63924">
        <ele>709</ele>
        <time>2019-03-27T15:35:33Z</time>
      </trkpt>
      <trkpt lat="44.24162" lon="5.63933">
        <ele>709</ele>
        <time>2019-03-27T15:35:34Z</time>
      </trkpt>
      <trkpt lat="44.24155" lon="5.63942">
        <ele>709</ele>
        <time>2019-03-27T15:35:35Z</time>
      </trkpt>
      <trkpt lat="44.24149" lon="5.6395">
        <ele>709</ele>
        <time>2019-03-27T15:35:36Z</time>
      </trkpt>
      <trkpt lat="44.24141" lon="5.6396">
        <ele>709</ele>
        <time>2019-03-27T15:35:37Z</time>
      </trkpt>
      <trkpt lat="44.24135" lon="5.63968">
        <ele>709</ele>
        <time>2019-03-27T15:35:38Z</time>
      </trkpt>
      <trkpt lat="44.24128" lon="5.63978">
        <ele>708</ele>
        <time>2019-03-27T15:35:39Z</time>
      </trkpt>
      <trkpt lat="44.24122" lon="5.63988">
        <ele>708</ele>
        <time>2019-03-27T15:35:40Z</time>
      </trkpt>
      <trkpt lat="44.24117" lon="5.63998">
        <ele>708</ele>
        <time>2019-03-27T15:35:41Z</time>
      </trkpt>
      <trkpt lat="44.24112" lon="5.64009">
        <ele>708</ele>
        <time>2019-03-27T15:35:42Z</time>
      </trkpt>
      <trkpt lat="44.24107" lon="5.64019">
        <ele>708</ele>
        <time>2019-03-27T15:35:43Z</time>
      </trkpt>
      <trkpt lat="44.24102" lon="5.6403">
        <ele>708</ele>
        <time>2019-03-27T15:35:44Z</time>
      </trkpt>
      <trkpt lat="44.24098" lon="5.64042">
        <ele>708</ele>
        <time>2019-03-27T15:35:45Z</time>
      </trkpt>
      <trkpt lat="44.24094" lon="5.64053">
        <ele>708</ele>
        <time>2019-03-27T15:35:46Z</time>
      </trkpt>
      <trkpt lat="44.2409" lon="5.64064">
        <ele>708</ele>
        <time>2019-03-27T15:35:47Z</time>
      </trkpt>
      <trkpt lat="44.24086" lon="5.64075">
        <ele>708</ele>
        <time>2019-03-27T15:35:48Z</time>
      </trkpt>
      <trkpt lat="44.24083" lon="5.64085">
        <ele>708</ele>
        <time>2019-03-27T15:35:49Z</time>
      </trkpt>
      <trkpt lat="44.24079" lon="5.64096">
        <ele>708</ele>
        <time>2019-03-27T15:35:50Z</time>
      </trkpt>
      <trkpt lat="44.24075" lon="5.64107">
        <ele>708</ele>
        <time>2019-03-27T15:35:51Z</time>
      </trkpt>
      <trkpt lat="44.24072" lon="5.64118">
        <ele>708</ele>
        <time>2019-03-27T15:35:52Z</time>
      </trkpt>
      <trkpt lat="44.24068" lon="5.64128">
        <ele>708</ele>
        <time>2019-03-27T15:35:53Z</time>
      </trkpt>
      <trkpt lat="44.24063" lon="5.64139">
        <ele>708</ele>
        <time>2019-03-27T15:35:54Z</time>
      </trkpt>
      <trkpt lat="44.24059" lon="5.64149">
        <ele>708</ele>
        <time>2019-03-27T15:35:55Z</time>
      </trkpt>
      <trkpt lat="44.24055" lon="5.64159">
        <ele>708</ele>
        <time>2019-03-27T15:35:56Z</time>
      </trkpt>
      <trkpt lat="44.2405" lon="5.64169">
        <ele>708</ele>
        <time>2019-03-27T15:35:57Z</time>
      </trkpt>
      <trkpt lat="44.24045" lon="5.64178">
        <ele>708</ele>
        <time>2019-03-27T15:35:58Z</time>
      </trkpt>
      <trkpt lat="44.2404" lon="5.64188">
        <ele>708</ele>
        <time>2019-03-27T15:35:59Z</time>
      </trkpt>
      <trkpt lat="44.24035" lon="5.64197">
        <ele>708</ele>
        <time>2019-03-27T15:36:00Z</time>
      </trkpt>
      <trkpt lat="44.24031" lon="5.64207">
        <ele>708</ele>
        <time>2019-03-27T15:36:01Z</time>
      </trkpt>
      <trkpt lat="44.24027" lon="5.64218">
        <ele>708</ele>
        <time>2019-03-27T15:36:02Z</time>
      </trkpt>
      <trkpt lat="44.24023" lon="5.64229">
        <ele>708</ele>
        <time>2019-03-27T15:36:03Z</time>
      </trkpt>
      <trkpt lat="44.24021" lon="5.64241">
        <ele>708</ele>
        <time>2019-03-27T15:36:04Z</time>
      </trkpt>
      <trkpt lat="44.2402" lon="5.64253">
        <ele>708</ele>
        <time>2019-03-27T15:36:05Z</time>
      </trkpt>
      <trkpt lat="44.2402" lon="5.64265">
        <ele>708</ele>
        <time>2019-03-27T15:36:06Z</time>
      </trkpt>
      <trkpt lat="44.24022" lon="5.64278">
        <ele>708</ele>
        <time>2019-03-27T15:36:07Z</time>
      </trkpt>
      <trkpt lat="44.24024" lon="5.6429">
        <ele>708</ele>
        <time>2019-03-27T15:36:08Z</time>
      </trkpt>
      <trkpt lat="44.24026" lon="5.64301">
        <ele>708</ele>
        <time>2019-03-27T15:36:09Z</time>
      </trkpt>
      <trkpt lat="44.24029" lon="5.64313">
        <ele>708</ele>
        <time>2019-03-27T15:36:10Z</time>
      </trkpt>
      <trkpt lat="44.24032" lon="5.64325">
        <ele>708</ele>
        <time>2019-03-27T15:36:11Z</time>
      </trkpt>
      <trkpt lat="44.24035" lon="5.64337">
        <ele>708</ele>
        <time>2019-03-27T15:36:12Z</time>
      </trkpt>
      <trkpt lat="44.24038" lon="5.64349">
        <ele>708</ele>
        <time>2019-03-27T15:36:13Z</time>
      </trkpt>
      <trkpt lat="44.24041" lon="5.64361">
        <ele>708</ele>
        <time>2019-03-27T15:36:14Z</time>
      </trkpt>
      <trkpt lat="44.24045" lon="5.64372">
        <ele>708</ele>
        <time>2019-03-27T15:36:15Z</time>
      </trkpt>
      <trkpt lat="44.24049" lon="5.64384">
        <ele>708</ele>
        <time>2019-03-27T15:36:16Z</time>
      </trkpt>
      <trkpt lat="44.24054" lon="5.64395">
        <ele>708</ele>
        <time>2019-03-27T15:36:17Z</time>
      </trkpt>
      <trkpt lat="44.2406" lon="5.64404">
        <ele>708</ele>
        <time>2019-03-27T15:36:18Z</time>
      </trkpt>
      <trkpt lat="44.24066" lon="5.64414">
        <ele>708</ele>
        <time>2019-03-27T15:36:19Z</time>
      </trkpt>
      <trkpt lat="44.24073" lon="5.64424">
        <ele>708</ele>
        <time>2019-03-27T15:36:20Z</time>
      </trkpt>
      <trkpt lat="44.24079" lon="5.64433">
        <ele>708</ele>
        <time>2019-03-27T15:36:21Z</time>
      </trkpt>
      <trkpt lat="44.24086" lon="5.64442">
        <ele>708</ele>
        <time>2019-03-27T15:36:22Z</time>
      </trkpt>
      <trkpt lat="44.24093" lon="5.64451">
        <ele>708</ele>
        <time>2019-03-27T15:36:23Z</time>
      </trkpt>
      <trkpt lat="44.24101" lon="5.64459">
        <ele>708</ele>
        <time>2019-03-27T15:36:24Z</time>
      </trkpt>
      <trkpt lat="44.24109" lon="5.64466">
        <ele>708</ele>
        <time>2019-03-27T15:36:25Z</time>
      </trkpt>
      <trkpt lat="44.24117" lon="5.64473">
        <ele>708</ele>
        <time>2019-03-27T15:36:26Z</time>
      </trkpt>
      <trkpt lat="44.24125" lon="5.6448">
        <ele>708</ele>
        <time>2019-03-27T15:36:27Z</time>
      </trkpt>
      <trkpt lat="44.24132" lon="5.64489">
        <ele>708</ele>
        <time>2019-03-27T15:36:28Z</time>
      </trkpt>
      <trkpt lat="44.2414" lon="5.64497">
        <ele>708</ele>
        <time>2019-03-27T15:36:29Z</time>
      </trkpt>
      <trkpt lat="44.24147" lon="5.64506">
        <ele>708</ele>
        <time>2019-03-27T15:36:30Z</time>
      </trkpt>
      <trkpt lat="44.24153" lon="5.64515">
        <ele>708</ele>
        <time>2019-03-27T15:36:31Z</time>
      </trkpt>
      <trkpt lat="44.2416" lon="5.64525">
        <ele>708</ele>
        <time>2019-03-27T15:36:32Z</time>
      </trkpt>
      <trkpt lat="44.24166" lon="5.64533">
        <ele>708</ele>
        <time>2019-03-27T15:36:33Z</time>
      </trkpt>
      <trkpt lat="44.24173" lon="5.64541">
        <ele>708</ele>
        <time>2019-03-27T15:36:34Z</time>
      </trkpt>
      <trkpt lat="44.24179" lon="5.6455">
        <ele>708</ele>
        <time>2019-03-27T15:36:35Z</time>
      </trkpt>
      <trkpt lat="44.24186" lon="5.64559">
        <ele>708</ele>
        <time>2019-03-27T15:36:36Z</time>
      </trkpt>
      <trkpt lat="44.24192" lon="5.64568">
        <ele>708</ele>
        <time>2019-03-27T15:36:37Z</time>
      </trkpt>
      <trkpt lat="44.24198" lon="5.64578">
        <ele>708</ele>
        <time>2019-03-27T15:36:38Z</time>
      </trkpt>
      <trkpt lat="44.24204" lon="5.64587">
        <ele>708</ele>
        <time>2019-03-27T15:36:39Z</time>
      </trkpt>
      <trkpt lat="44.24209" lon="5.64598">
        <ele>708</ele>
        <time>2019-03-27T15:36:40Z</time>
      </trkpt>
      <trkpt lat="44.24214" lon="5.64608">
        <ele>708</ele>
        <time>2019-03-27T15:36:41Z</time>
      </trkpt>
      <trkpt lat="44.24218" lon="5.64618">
        <ele>708</ele>
        <time>2019-03-27T15:36:42Z</time>
      </trkpt>
      <trkpt lat="44.24222" lon="5.64629">
        <ele>708</ele>
        <time>2019-03-27T15:36:43Z</time>
      </trkpt>
      <trkpt lat="44.24227" lon="5.64639">
        <ele>708</ele>
        <time>2019-03-27T15:36:44Z</time>
      </trkpt>
      <trkpt lat="44.24231" lon="5.64649">
        <ele>708</ele>
        <time>2019-03-27T15:36:45Z</time>
      </trkpt>
      <trkpt lat="44.24235" lon="5.64659">
        <ele>708</ele>
        <time>2019-03-27T15:36:46Z</time>
      </trkpt>
      <trkpt lat="44.24238" lon="5.64669">
        <ele>708</ele>
        <time>2019-03-27T15:36:47Z</time>
      </trkpt>
      <trkpt lat="44.24242" lon="5.6468">
        <ele>708</ele>
        <time>2019-03-27T15:36:48Z</time>
      </trkpt>
      <trkpt lat="44.24245" lon="5.64691">
        <ele>708</ele>
        <time>2019-03-27T15:36:49Z</time>
      </trkpt>
      <trkpt lat="44.24247" lon="5.64703">
        <ele>708</ele>
        <time>2019-03-27T15:36:50Z</time>
      </trkpt>
      <trkpt lat="44.24249" lon="5.64714">
        <ele>708</ele>
        <time>2019-03-27T15:36:51Z</time>
      </trkpt>
      <trkpt lat="44.2425" lon="5.64725">
        <ele>708</ele>
        <time>2019-03-27T15:36:52Z</time>
      </trkpt>
      <trkpt lat="44.2425" lon="5.64737">
        <ele>707</ele>
        <time>2019-03-27T15:36:53Z</time>
      </trkpt>
      <trkpt lat="44.2425" lon="5.64748">
        <ele>707</ele>
        <time>2019-03-27T15:36:54Z</time>
      </trkpt>
      <trkpt lat="44.24251" lon="5.6476">
        <ele>707</ele>
        <time>2019-03-27T15:36:55Z</time>
      </trkpt>
      <trkpt lat="44.24252" lon="5.64772">
        <ele>707</ele>
        <time>2019-03-27T15:36:56Z</time>
      </trkpt>
      <trkpt lat="44.24253" lon="5.64783">
        <ele>707</ele>
        <time>2019-03-27T15:36:57Z</time>
      </trkpt>
      <trkpt lat="44.24256" lon="5.64795">
        <ele>707</ele>
        <time>2019-03-27T15:36:58Z</time>
      </trkpt>
      <trkpt lat="44.24259" lon="5.64806">
        <ele>706</ele>
        <time>2019-03-27T15:36:59Z</time>
      </trkpt>
      <trkpt lat="44.24262" lon="5.64817">
        <ele>706</ele>
        <time>2019-03-27T15:37:00Z</time>
      </trkpt>
      <trkpt lat="44.24267" lon="5.64828">
        <ele>706</ele>
        <time>2019-03-27T15:37:01Z</time>
      </trkpt>
      <trkpt lat="44.24272" lon="5.64838">
        <ele>706</ele>
        <time>2019-03-27T15:37:02Z</time>
      </trkpt>
      <trkpt lat="44.24277" lon="5.64847">
        <ele>706</ele>
        <time>2019-03-27T15:37:03Z</time>
      </trkpt>
      <trkpt lat="44.24284" lon="5.64857">
        <ele>706</ele>
        <time>2019-03-27T15:37:04Z</time>
      </trkpt>
      <trkpt lat="44.24289" lon="5.64866">
        <ele>706</ele>
        <time>2019-03-27T15:37:05Z</time>
      </trkpt>
      <trkpt lat="44.24294" lon="5.64877">
        <ele>706</ele>
        <time>2019-03-27T15:37:06Z</time>
      </trkpt>
      <trkpt lat="44.24299" lon="5.64888">
        <ele>706</ele>
        <time>2019-03-27T15:37:07Z</time>
      </trkpt>
      <trkpt lat="44.24303" lon="5.64899">
        <ele>706</ele>
        <time>2019-03-27T15:37:08Z</time>
      </trkpt>
      <trkpt lat="44.24306" lon="5.6491">
        <ele>706</ele>
        <time>2019-03-27T15:37:09Z</time>
      </trkpt>
      <trkpt lat="44.2431" lon="5.6492">
        <ele>706</ele>
        <time>2019-03-27T15:37:10Z</time>
      </trkpt>
      <trkpt lat="44.24314" lon="5.64931">
        <ele>706</ele>
        <time>2019-03-27T15:37:11Z</time>
      </trkpt>
      <trkpt lat="44.24317" lon="5.64942">
        <ele>706</ele>
        <time>2019-03-27T15:37:12Z</time>
      </trkpt>
      <trkpt lat="44.24321" lon="5.64952">
        <ele>706</ele>
        <time>2019-03-27T15:37:13Z</time>
      </trkpt>
      <trkpt lat="44.24324" lon="5.64963">
        <ele>706</ele>
        <time>2019-03-27T15:37:14Z</time>
      </trkpt>
      <trkpt lat="44.24326" lon="5.64974">
        <ele>706</ele>
        <time>2019-03-27T15:37:15Z</time>
      </trkpt>
      <trkpt lat="44.24329" lon="5.64985">
        <ele>706</ele>
        <time>2019-03-27T15:37:16Z</time>
      </trkpt>
      <trkpt lat="44.24332" lon="5.64997">
        <ele>706</ele>
        <time>2019-03-27T15:37:17Z</time>
      </trkpt>
      <trkpt lat="44.24335" lon="5.65008">
        <ele>706</ele>
        <time>2019-03-27T15:37:18Z</time>
      </trkpt>
      <trkpt lat="44.24338" lon="5.6502">
        <ele>706</ele>
        <time>2019-03-27T15:37:19Z</time>
      </trkpt>
      <trkpt lat="44.24341" lon="5.6503">
        <ele>705</ele>
        <time>2019-03-27T15:37:20Z</time>
      </trkpt>
      <trkpt lat="44.24344" lon="5.65042">
        <ele>705</ele>
        <time>2019-03-27T15:37:21Z</time>
      </trkpt>
      <trkpt lat="44.24346" lon="5.65053">
        <ele>705</ele>
        <time>2019-03-27T15:37:22Z</time>
      </trkpt>
      <trkpt lat="44.24348" lon="5.65065">
        <ele>705</ele>
        <time>2019-03-27T15:37:23Z</time>
      </trkpt>
      <trkpt lat="44.24348" lon="5.65076">
        <ele>705</ele>
        <time>2019-03-27T15:37:24Z</time>
      </trkpt>
      <trkpt lat="44.24349" lon="5.65088">
        <ele>705</ele>
        <time>2019-03-27T15:37:25Z</time>
      </trkpt>
      <trkpt lat="44.24349" lon="5.651">
        <ele>705</ele>
        <time>2019-03-27T15:37:26Z</time>
      </trkpt>
      <trkpt lat="44.24349" lon="5.65111">
        <ele>705</ele>
        <time>2019-03-27T15:37:27Z</time>
      </trkpt>
      <trkpt lat="44.24348" lon="5.65123">
        <ele>705</ele>
        <time>2019-03-27T15:37:28Z</time>
      </trkpt>
      <trkpt lat="44.24348" lon="5.65135">
        <ele>705</ele>
        <time>2019-03-27T15:37:29Z</time>
      </trkpt>
      <trkpt lat="44.24347" lon="5.65146">
        <ele>705</ele>
        <time>2019-03-27T15:37:30Z</time>
      </trkpt>
      <trkpt lat="44.24346" lon="5.65158">
        <ele>705</ele>
        <time>2019-03-27T15:37:31Z</time>
      </trkpt>
      <trkpt lat="44.24345" lon="5.6517">
        <ele>705</ele>
        <time>2019-03-27T15:37:32Z</time>
      </trkpt>
      <trkpt lat="44.24344" lon="5.65182">
        <ele>705</ele>
        <time>2019-03-27T15:37:33Z</time>
      </trkpt>
      <trkpt lat="44.24342" lon="5.65193">
        <ele>705</ele>
        <time>2019-03-27T15:37:34Z</time>
      </trkpt>
      <trkpt lat="44.24339" lon="5.65204">
        <ele>705</ele>
        <time>2019-03-27T15:37:35Z</time>
      </trkpt>
      <trkpt lat="44.24337" lon="5.65215">
        <ele>705</ele>
        <time>2019-03-27T15:37:36Z</time>
      </trkpt>
      <trkpt lat="44.24334" lon="5.65227">
        <ele>705</ele>
        <time>2019-03-27T15:37:37Z</time>
      </trkpt>
      <trkpt lat="44.24331" lon="5.65238">
        <ele>705</ele>
        <time>2019-03-27T15:37:38Z</time>
      </trkpt>
      <trkpt lat="44.24329" lon="5.65248">
        <ele>705</ele>
        <time>2019-03-27T15:37:39Z</time>
      </trkpt>
      <trkpt lat="44.24328" lon="5.65259">
        <ele>705</ele>
        <time>2019-03-27T15:37:40Z</time>
      </trkpt>
      <trkpt lat="44.24326" lon="5.65271">
        <ele>705</ele>
        <time>2019-03-27T15:37:41Z</time>
      </trkpt>
      <trkpt lat="44.24325" lon="5.65282">
        <ele>705</ele>
        <time>2019-03-27T15:37:42Z</time>
      </trkpt>
      <trkpt lat="44.24324" lon="5.65294">
        <ele>705</ele>
        <time>2019-03-27T15:37:43Z</time>
      </trkpt>
      <trkpt lat="44.24324" lon="5.65306">
        <ele>705</ele>
        <time>2019-03-27T15:37:44Z</time>
      </trkpt>
      <trkpt lat="44.24324" lon="5.65318">
        <ele>705</ele>
        <time>2019-03-27T15:37:45Z</time>
      </trkpt>
      <trkpt lat="44.24325" lon="5.6533">
        <ele>705</ele>
        <time>2019-03-27T15:37:46Z</time>
      </trkpt>
      <trkpt lat="44.24327" lon="5.65342">
        <ele>704</ele>
        <time>2019-03-27T15:37:47Z</time>
      </trkpt>
      <trkpt lat="44.24331" lon="5.65353">
        <ele>704</ele>
        <time>2019-03-27T15:37:48Z</time>
      </trkpt>
      <trkpt lat="44.24335" lon="5.65365">
        <ele>704</ele>
        <time>2019-03-27T15:37:49Z</time>
      </trkpt>
      <trkpt lat="44.2434" lon="5.65376">
        <ele>703</ele>
        <time>2019-03-27T15:37:50Z</time>
      </trkpt>
      <trkpt lat="44.24345" lon="5.65386">
        <ele>703</ele>
        <time>2019-03-27T15:37:51Z</time>
      </trkpt>
      <trkpt lat="44.2435" lon="5.65397">
        <ele>703</ele>
        <time>2019-03-27T15:37:52Z</time>
      </trkpt>
      <trkpt lat="44.24355" lon="5.65408">
        <ele>703</ele>
        <time>2019-03-27T15:37:53Z</time>
      </trkpt>
      <trkpt lat="44.2436" lon="5.65418">
        <ele>702</ele>
        <time>2019-03-27T15:37:54Z</time>
      </trkpt>
      <trkpt lat="44.24365" lon="5.65429">
        <ele>702</ele>
        <time>2019-03-27T15:37:55Z</time>
      </trkpt>
      <trkpt lat="44.24371" lon="5.6544">
        <ele>702</ele>
        <time>2019-03-27T15:37:56Z</time>
      </trkpt>
      <trkpt lat="44.24376" lon="5.6545">
        <ele>702</ele>
        <time>2019-03-27T15:37:57Z</time>
      </trkpt>
      <trkpt lat="44.24381" lon="5.65461">
        <ele>702</ele>
        <time>2019-03-27T15:37:58Z</time>
      </trkpt>
      <trkpt lat="44.24387" lon="5.65472">
        <ele>701</ele>
        <time>2019-03-27T15:37:59Z</time>
      </trkpt>
      <trkpt lat="44.24392" lon="5.65482">
        <ele>701</ele>
        <time>2019-03-27T15:38:00Z</time>
      </trkpt>
      <trkpt lat="44.24397" lon="5.65493">
        <ele>701</ele>
        <time>2019-03-27T15:38:01Z</time>
      </trkpt>
      <trkpt lat="44.24403" lon="5.65503">
        <ele>701</ele>
        <time>2019-03-27T15:38:02Z</time>
      </trkpt>
      <trkpt lat="44.24408" lon="5.65514">
        <ele>701</ele>
        <time>2019-03-27T15:38:03Z</time>
      </trkpt>
      <trkpt lat="44.24413" lon="5.65525">
        <ele>701</ele>
        <time>2019-03-27T15:38:04Z</time>
      </trkpt>
      <trkpt lat="44.24418" lon="5.65536">
        <ele>701</ele>
        <time>2019-03-27T15:38:05Z</time>
      </trkpt>
      <trkpt lat="44.24424" lon="5.65547">
        <ele>700</ele>
        <time>2019-03-27T15:38:06Z</time>
      </trkpt>
      <trkpt lat="44.24429" lon="5.65558">
        <ele>700</ele>
        <time>2019-03-27T15:38:07Z</time>
      </trkpt>
      <trkpt lat="44.24434" lon="5.65569">
        <ele>700</ele>
        <time>2019-03-27T15:38:08Z</time>
      </trkpt>
      <trkpt lat="44.24439" lon="5.65579">
        <ele>700</ele>
        <time>2019-03-27T15:38:09Z</time>
      </trkpt>
      <trkpt lat="44.24445" lon="5.6559">
        <ele>700</ele>
        <time>2019-03-27T15:38:10Z</time>
      </trkpt>
      <trkpt lat="44.2445" lon="5.65601">
        <ele>700</ele>
        <time>2019-03-27T15:38:11Z</time>
      </trkpt>
      <trkpt lat="44.24455" lon="5.65612">
        <ele>700</ele>
        <time>2019-03-27T15:38:12Z</time>
      </trkpt>
      <trkpt lat="44.2446" lon="5.65624">
        <ele>700</ele>
        <time>2019-03-27T15:38:13Z</time>
      </trkpt>
      <trkpt lat="44.24465" lon="5.65635">
        <ele>700</ele>
        <time>2019-03-27T15:38:14Z</time>
      </trkpt>
      <trkpt lat="44.24468" lon="5.65647">
        <ele>700</ele>
        <time>2019-03-27T15:38:15Z</time>
      </trkpt>
      <trkpt lat="44.24471" lon="5.6566">
        <ele>700</ele>
        <time>2019-03-27T15:38:16Z</time>
      </trkpt>
      <trkpt lat="44.24475" lon="5.65672">
        <ele>700</ele>
        <time>2019-03-27T15:38:17Z</time>
      </trkpt>
      <trkpt lat="44.24478" lon="5.65684">
        <ele>700</ele>
        <time>2019-03-27T15:38:18Z</time>
      </trkpt>
      <trkpt lat="44.24482" lon="5.65696">
        <ele>700</ele>
        <time>2019-03-27T15:38:19Z</time>
      </trkpt>
      <trkpt lat="44.24485" lon="5.65709">
        <ele>700</ele>
        <time>2019-03-27T15:38:20Z</time>
      </trkpt>
      <trkpt lat="44.24487" lon="5.65722">
        <ele>700</ele>
        <time>2019-03-27T15:38:21Z</time>
      </trkpt>
      <trkpt lat="44.24488" lon="5.65734">
        <ele>700</ele>
        <time>2019-03-27T15:38:22Z</time>
      </trkpt>
      <trkpt lat="44.24487" lon="5.65746">
        <ele>699</ele>
        <time>2019-03-27T15:38:23Z</time>
      </trkpt>
      <trkpt lat="44.24483" lon="5.65758">
        <ele>699</ele>
        <time>2019-03-27T15:38:24Z</time>
      </trkpt>
      <trkpt lat="44.24477" lon="5.65768">
        <ele>698</ele>
        <time>2019-03-27T15:38:25Z</time>
      </trkpt>
      <trkpt lat="44.24469" lon="5.65777">
        <ele>698</ele>
        <time>2019-03-27T15:38:26Z</time>
      </trkpt>
      <trkpt lat="44.24462" lon="5.65786">
        <ele>697</ele>
        <time>2019-03-27T15:38:27Z</time>
      </trkpt>
      <trkpt lat="44.24455" lon="5.65794">
        <ele>697</ele>
        <time>2019-03-27T15:38:28Z</time>
      </trkpt>
      <trkpt lat="44.24448" lon="5.65802">
        <ele>697</ele>
        <time>2019-03-27T15:38:29Z</time>
      </trkpt>
      <trkpt lat="44.24441" lon="5.65809">
        <ele>696</ele>
        <time>2019-03-27T15:38:30Z</time>
      </trkpt>
      <trkpt lat="44.24432" lon="5.65816">
        <ele>696</ele>
        <time>2019-03-27T15:38:31Z</time>
      </trkpt>
      <trkpt lat="44.24425" lon="5.65824">
        <ele>695</ele>
        <time>2019-03-27T15:38:32Z</time>
      </trkpt>
      <trkpt lat="44.24417" lon="5.65832">
        <ele>695</ele>
        <time>2019-03-27T15:38:33Z</time>
      </trkpt>
      <trkpt lat="44.24409" lon="5.65838">
        <ele>695</ele>
        <time>2019-03-27T15:38:34Z</time>
      </trkpt>
      <trkpt lat="44.24402" lon="5.65845">
        <ele>695</ele>
        <time>2019-03-27T15:38:35Z</time>
      </trkpt>
      <trkpt lat="44.24395" lon="5.65852">
        <ele>695</ele>
        <time>2019-03-27T15:38:36Z</time>
      </trkpt>
      <trkpt lat="44.24387" lon="5.65861">
        <ele>695</ele>
        <time>2019-03-27T15:38:37Z</time>
      </trkpt>
      <trkpt lat="44.24381" lon="5.65871">
        <ele>695</ele>
        <time>2019-03-27T15:38:38Z</time>
      </trkpt>
      <trkpt lat="44.24376" lon="5.65881">
        <ele>695</ele>
        <time>2019-03-27T15:38:39Z</time>
      </trkpt>
      <trkpt lat="44.24371" lon="5.65893">
        <ele>695</ele>
        <time>2019-03-27T15:38:40Z</time>
      </trkpt>
      <trkpt lat="44.24368" lon="5.65905">
        <ele>695</ele>
        <time>2019-03-27T15:38:41Z</time>
      </trkpt>
      <trkpt lat="44.24366" lon="5.65918">
        <ele>695</ele>
        <time>2019-03-27T15:38:42Z</time>
      </trkpt>
      <trkpt lat="44.24365" lon="5.65932">
        <ele>695</ele>
        <time>2019-03-27T15:38:43Z</time>
      </trkpt>
      <trkpt lat="44.24365" lon="5.65945">
        <ele>695</ele>
        <time>2019-03-27T15:38:44Z</time>
      </trkpt>
      <trkpt lat="44.24367" lon="5.65958">
        <ele>695</ele>
        <time>2019-03-27T15:38:45Z</time>
      </trkpt>
      <trkpt lat="44.2437" lon="5.65971">
        <ele>695</ele>
        <time>2019-03-27T15:38:46Z</time>
      </trkpt>
      <trkpt lat="44.24374" lon="5.65983">
        <ele>695</ele>
        <time>2019-03-27T15:38:47Z</time>
      </trkpt>
      <trkpt lat="44.24379" lon="5.65994">
        <ele>695</ele>
        <time>2019-03-27T15:38:48Z</time>
      </trkpt>
      <trkpt lat="44.24385" lon="5.66006">
        <ele>694</ele>
        <time>2019-03-27T15:38:49Z</time>
      </trkpt>
      <trkpt lat="44.24392" lon="5.66017">
        <ele>693</ele>
        <time>2019-03-27T15:38:50Z</time>
      </trkpt>
      <trkpt lat="44.244" lon="5.66028">
        <ele>693</ele>
        <time>2019-03-27T15:38:51Z</time>
      </trkpt>
      <trkpt lat="44.24406" lon="5.6604">
        <ele>692</ele>
        <time>2019-03-27T15:38:52Z</time>
      </trkpt>
      <trkpt lat="44.24411" lon="5.66052">
        <ele>692</ele>
        <time>2019-03-27T15:38:53Z</time>
      </trkpt>
      <trkpt lat="44.24416" lon="5.66066">
        <ele>691</ele>
        <time>2019-03-27T15:38:54Z</time>
      </trkpt>
      <trkpt lat="44.24418" lon="5.6608">
        <ele>691</ele>
        <time>2019-03-27T15:38:55Z</time>
      </trkpt>
      <trkpt lat="44.24418" lon="5.66094">
        <ele>691</ele>
        <time>2019-03-27T15:38:56Z</time>
      </trkpt>
      <trkpt lat="44.24419" lon="5.66108">
        <ele>691</ele>
        <time>2019-03-27T15:38:57Z</time>
      </trkpt>
      <trkpt lat="44.24419" lon="5.66122">
        <ele>690</ele>
        <time>2019-03-27T15:38:58Z</time>
      </trkpt>
      <trkpt lat="44.24419" lon="5.66136">
        <ele>690</ele>
        <time>2019-03-27T15:38:59Z</time>
      </trkpt>
      <trkpt lat="44.24419" lon="5.66149">
        <ele>690</ele>
        <time>2019-03-27T15:39:00Z</time>
      </trkpt>
      <trkpt lat="44.2442" lon="5.66161">
        <ele>690</ele>
        <time>2019-03-27T15:39:01Z</time>
      </trkpt>
      <trkpt lat="44.24422" lon="5.66173">
        <ele>690</ele>
        <time>2019-03-27T15:39:02Z</time>
      </trkpt>
      <trkpt lat="44.24425" lon="5.66185">
        <ele>689</ele>
        <time>2019-03-27T15:39:03Z</time>
      </trkpt>
      <trkpt lat="44.2443" lon="5.66195">
        <ele>689</ele>
        <time>2019-03-27T15:39:04Z</time>
      </trkpt>
      <trkpt lat="44.24435" lon="5.66206">
        <ele>689</ele>
        <time>2019-03-27T15:39:05Z</time>
      </trkpt>
      <trkpt lat="44.2444" lon="5.66216">
        <ele>689</ele>
        <time>2019-03-27T15:39:06Z</time>
      </trkpt>
      <trkpt lat="44.24446" lon="5.66226">
        <ele>689</ele>
        <time>2019-03-27T15:39:07Z</time>
      </trkpt>
      <trkpt lat="44.24452" lon="5.66236">
        <ele>689</ele>
        <time>2019-03-27T15:39:08Z</time>
      </trkpt>
      <trkpt lat="44.24458" lon="5.66246">
        <ele>689</ele>
        <time>2019-03-27T15:39:09Z</time>
      </trkpt>
      <trkpt lat="44.24465" lon="5.66256">
        <ele>689</ele>
        <time>2019-03-27T15:39:10Z</time>
      </trkpt>
      <trkpt lat="44.24471" lon="5.66266">
        <ele>689</ele>
        <time>2019-03-27T15:39:11Z</time>
      </trkpt>
      <trkpt lat="44.24477" lon="5.66276">
        <ele>689</ele>
        <time>2019-03-27T15:39:12Z</time>
      </trkpt>
      <trkpt lat="44.24483" lon="5.66287">
        <ele>689</ele>
        <time>2019-03-27T15:39:13Z</time>
      </trkpt>
      <trkpt lat="44.24489" lon="5.66297">
        <ele>689</ele>
        <time>2019-03-27T15:39:14Z</time>
      </trkpt>
      <trkpt lat="44.24495" lon="5.66307">
        <ele>689</ele>
        <time>2019-03-27T15:39:15Z</time>
      </trkpt>
      <trkpt lat="44.24501" lon="5.66318">
        <ele>689</ele>
        <time>2019-03-27T15:39:16Z</time>
      </trkpt>
      <trkpt lat="44.24508" lon="5.66327">
        <ele>689</ele>
        <time>2019-03-27T15:39:17Z</time>
      </trkpt>
      <trkpt lat="44.24515" lon="5.66337">
        <ele>689</ele>
        <time>2019-03-27T15:39:18Z</time>
      </trkpt>
      <trkpt lat="44.24522" lon="5.66346">
        <ele>689</ele>
        <time>2019-03-27T15:39:19Z</time>
      </trkpt>
      <trkpt lat="44.2453" lon="5.66355">
        <ele>689</ele>
        <time>2019-03-27T15:39:20Z</time>
      </trkpt>
      <trkpt lat="44.24539" lon="5.66361">
        <ele>689</ele>
        <time>2019-03-27T15:39:21Z</time>
      </trkpt>
      <trkpt lat="44.24548" lon="5.66367">
        <ele>689</ele>
        <time>2019-03-27T15:39:22Z</time>
      </trkpt>
      <trkpt lat="44.24556" lon="5.66371">
        <ele>689</ele>
        <time>2019-03-27T15:39:23Z</time>
      </trkpt>
      <trkpt lat="44.24565" lon="5.66374">
        <ele>689</ele>
        <time>2019-03-27T15:39:24Z</time>
      </trkpt>
      <trkpt lat="44.24574" lon="5.66376">
        <ele>689</ele>
        <time>2019-03-27T15:39:25Z</time>
      </trkpt>
      <trkpt lat="44.24583" lon="5.66377">
        <ele>689</ele>
        <time>2019-03-27T15:39:26Z</time>
      </trkpt>
      <trkpt lat="44.24592" lon="5.66376">
        <ele>689</ele>
        <time>2019-03-27T15:39:27Z</time>
      </trkpt>
      <trkpt lat="44.24602" lon="5.66376">
        <ele>689</ele>
        <time>2019-03-27T15:39:28Z</time>
      </trkpt>
      <trkpt lat="44.24612" lon="5.66375">
        <ele>689</ele>
        <time>2019-03-27T15:39:29Z</time>
      </trkpt>
      <trkpt lat="44.24622" lon="5.66374">
        <ele>689</ele>
        <time>2019-03-27T15:39:30Z</time>
      </trkpt>
      <trkpt lat="44.24631" lon="5.66374">
        <ele>689</ele>
        <time>2019-03-27T15:39:31Z</time>
      </trkpt>
      <trkpt lat="44.2464" lon="5.66373">
        <ele>689</ele>
        <time>2019-03-27T15:39:32Z</time>
      </trkpt>
      <trkpt lat="44.24649" lon="5.66373">
        <ele>689</ele>
        <time>2019-03-27T15:39:33Z</time>
      </trkpt>
      <trkpt lat="44.24659" lon="5.66374">
        <ele>689</ele>
        <time>2019-03-27T15:39:34Z</time>
      </trkpt>
      <trkpt lat="44.24668" lon="5.66375">
        <ele>689</ele>
        <time>2019-03-27T15:39:35Z</time>
      </trkpt>
      <trkpt lat="44.24677" lon="5.6638">
        <ele>689</ele>
        <time>2019-03-27T15:39:36Z</time>
      </trkpt>
      <trkpt lat="44.24685" lon="5.66387">
        <ele>689</ele>
        <time>2019-03-27T15:39:37Z</time>
      </trkpt>
      <trkpt lat="44.24692" lon="5.66395">
        <ele>689</ele>
        <time>2019-03-27T15:39:38Z</time>
      </trkpt>
      <trkpt lat="44.24698" lon="5.66406">
        <ele>689</ele>
        <time>2019-03-27T15:39:39Z</time>
      </trkpt>
      <trkpt lat="44.24702" lon="5.66418">
        <ele>689</ele>
        <time>2019-03-27T15:39:40Z</time>
      </trkpt>
      <trkpt lat="44.24705" lon="5.6643">
        <ele>689</ele>
        <time>2019-03-27T15:39:41Z</time>
      </trkpt>
      <trkpt lat="44.24707" lon="5.66443">
        <ele>688</ele>
        <time>2019-03-27T15:39:42Z</time>
      </trkpt>
      <trkpt lat="44.24707" lon="5.66456">
        <ele>688</ele>
        <time>2019-03-27T15:39:43Z</time>
      </trkpt>
      <trkpt lat="44.24707" lon="5.66468">
        <ele>687</ele>
        <time>2019-03-27T15:39:44Z</time>
      </trkpt>
      <trkpt lat="44.24706" lon="5.66481">
        <ele>687</ele>
        <time>2019-03-27T15:39:45Z</time>
      </trkpt>
      <trkpt lat="44.24704" lon="5.66494">
        <ele>686</ele>
        <time>2019-03-27T15:39:46Z</time>
      </trkpt>
      <trkpt lat="44.24702" lon="5.66506">
        <ele>686</ele>
        <time>2019-03-27T15:39:47Z</time>
      </trkpt>
      <trkpt lat="44.24698" lon="5.66518">
        <ele>686</ele>
        <time>2019-03-27T15:39:48Z</time>
      </trkpt>
      <trkpt lat="44.24693" lon="5.66529">
        <ele>686</ele>
        <time>2019-03-27T15:39:49Z</time>
      </trkpt>
      <trkpt lat="44.24687" lon="5.66539">
        <ele>686</ele>
        <time>2019-03-27T15:39:50Z</time>
      </trkpt>
      <trkpt lat="44.2468" lon="5.66549">
        <ele>686</ele>
        <time>2019-03-27T15:39:51Z</time>
      </trkpt>
      <trkpt lat="44.24674" lon="5.66558">
        <ele>686</ele>
        <time>2019-03-27T15:39:52Z</time>
      </trkpt>
      <trkpt lat="44.24667" lon="5.66568">
        <ele>686</ele>
        <time>2019-03-27T15:39:53Z</time>
      </trkpt>
      <trkpt lat="44.2466" lon="5.66577">
        <ele>686</ele>
        <time>2019-03-27T15:39:54Z</time>
      </trkpt>
      <trkpt lat="44.24654" lon="5.66585">
        <ele>686</ele>
        <time>2019-03-27T15:39:55Z</time>
      </trkpt>
      <trkpt lat="44.24648" lon="5.66593">
        <ele>686</ele>
        <time>2019-03-27T15:39:56Z</time>
      </trkpt>
      <trkpt lat="44.24642" lon="5.66603">
        <ele>686</ele>
        <time>2019-03-27T15:39:57Z</time>
      </trkpt>
      <trkpt lat="44.24637" lon="5.66613">
        <ele>686</ele>
        <time>2019-03-27T15:39:58Z</time>
      </trkpt>
      <trkpt lat="44.24634" lon="5.66624">
        <ele>686</ele>
        <time>2019-03-27T15:39:59Z</time>
      </trkpt>
      <trkpt lat="44.24633" lon="5.66638">
        <ele>686</ele>
        <time>2019-03-27T15:40:00Z</time>
      </trkpt>
      <trkpt lat="44.24635" lon="5.66649">
        <ele>686</ele>
        <time>2019-03-27T15:40:01Z</time>
      </trkpt>
      <trkpt lat="44.2464" lon="5.66659">
        <ele>686</ele>
        <time>2019-03-27T15:40:02Z</time>
      </trkpt>
      <trkpt lat="44.24648" lon="5.66665">
        <ele>686</ele>
        <time>2019-03-27T15:40:03Z</time>
      </trkpt>
      <trkpt lat="44.24659" lon="5.66667">
        <ele>686</ele>
        <time>2019-03-27T15:40:04Z</time>
      </trkpt>
      <trkpt lat="44.24668" lon="5.66669">
        <ele>686</ele>
        <time>2019-03-27T15:40:05Z</time>
      </trkpt>
      <trkpt lat="44.24678" lon="5.66671">
        <ele>686</ele>
        <time>2019-03-27T15:40:06Z</time>
      </trkpt>
      <trkpt lat="44.24687" lon="5.66672">
        <ele>686</ele>
        <time>2019-03-27T15:40:07Z</time>
      </trkpt>
      <trkpt lat="44.24696" lon="5.66674">
        <ele>686</ele>
        <time>2019-03-27T15:40:08Z</time>
      </trkpt>
      <trkpt lat="44.24705" lon="5.66676">
        <ele>686</ele>
        <time>2019-03-27T15:40:09Z</time>
      </trkpt>
      <trkpt lat="44.24714" lon="5.66677">
        <ele>686</ele>
        <time>2019-03-27T15:40:10Z</time>
      </trkpt>
      <trkpt lat="44.24723" lon="5.66679">
        <ele>686</ele>
        <time>2019-03-27T15:40:11Z</time>
      </trkpt>
      <trkpt lat="44.24731" lon="5.66681">
        <ele>686</ele>
        <time>2019-03-27T15:40:12Z</time>
      </trkpt>
      <trkpt lat="44.24739" lon="5.66684">
        <ele>686</ele>
        <time>2019-03-27T15:40:13Z</time>
      </trkpt>
      <trkpt lat="44.24747" lon="5.66688">
        <ele>686</ele>
        <time>2019-03-27T15:40:14Z</time>
      </trkpt>
      <trkpt lat="44.24755" lon="5.66694">
        <ele>686</ele>
        <time>2019-03-27T15:40:15Z</time>
      </trkpt>
      <trkpt lat="44.24761" lon="5.66701">
        <ele>686</ele>
        <time>2019-03-27T15:40:16Z</time>
      </trkpt>
      <trkpt lat="44.24768" lon="5.66709">
        <ele>686</ele>
        <time>2019-03-27T15:40:17Z</time>
      </trkpt>
      <trkpt lat="44.24775" lon="5.66719">
        <ele>686</ele>
        <time>2019-03-27T15:40:18Z</time>
      </trkpt>
      <trkpt lat="44.2478" lon="5.66729">
        <ele>686</ele>
        <time>2019-03-27T15:40:19Z</time>
      </trkpt>
      <trkpt lat="44.24784" lon="5.66741">
        <ele>686</ele>
        <time>2019-03-27T15:40:20Z</time>
      </trkpt>
      <trkpt lat="44.24786" lon="5.66754">
        <ele>686</ele>
        <time>2019-03-27T15:40:21Z</time>
      </trkpt>
      <trkpt lat="44.24788" lon="5.66766">
        <ele>686</ele>
        <time>2019-03-27T15:40:22Z</time>
      </trkpt>
      <trkpt lat="44.2479" lon="5.66779">
        <ele>686</ele>
        <time>2019-03-27T15:40:23Z</time>
      </trkpt>
      <trkpt lat="44.2479" lon="5.66792">
        <ele>685</ele>
        <time>2019-03-27T15:40:24Z</time>
      </trkpt>
      <trkpt lat="44.24789" lon="5.66805">
        <ele>684</ele>
        <time>2019-03-27T15:40:25Z</time>
      </trkpt>
      <trkpt lat="44.24787" lon="5.66818">
        <ele>684</ele>
        <time>2019-03-27T15:40:26Z</time>
      </trkpt>
      <trkpt lat="44.24784" lon="5.6683">
        <ele>684</ele>
        <time>2019-03-27T15:40:27Z</time>
      </trkpt>
      <trkpt lat="44.24781" lon="5.66842">
        <ele>684</ele>
        <time>2019-03-27T15:40:28Z</time>
      </trkpt>
      <trkpt lat="44.24777" lon="5.66854">
        <ele>684</ele>
        <time>2019-03-27T15:40:29Z</time>
      </trkpt>
      <trkpt lat="44.24772" lon="5.66865">
        <ele>684</ele>
        <time>2019-03-27T15:40:30Z</time>
      </trkpt>
      <trkpt lat="44.24768" lon="5.66876">
        <ele>684</ele>
        <time>2019-03-27T15:40:31Z</time>
      </trkpt>
      <trkpt lat="44.24763" lon="5.66888">
        <ele>683</ele>
        <time>2019-03-27T15:40:32Z</time>
      </trkpt>
      <trkpt lat="44.24758" lon="5.66899">
        <ele>683</ele>
        <time>2019-03-27T15:40:33Z</time>
      </trkpt>
      <trkpt lat="44.24753" lon="5.6691">
        <ele>683</ele>
        <time>2019-03-27T15:40:34Z</time>
      </trkpt>
      <trkpt lat="44.24748" lon="5.66922">
        <ele>682</ele>
        <time>2019-03-27T15:40:35Z</time>
      </trkpt>
      <trkpt lat="44.24743" lon="5.66933">
        <ele>682</ele>
        <time>2019-03-27T15:40:36Z</time>
      </trkpt>
      <trkpt lat="44.24738" lon="5.66945">
        <ele>682</ele>
        <time>2019-03-27T15:40:37Z</time>
      </trkpt>
      <trkpt lat="44.24734" lon="5.66957">
        <ele>682</ele>
        <time>2019-03-27T15:40:38Z</time>
      </trkpt>
      <trkpt lat="44.24729" lon="5.66969">
        <ele>682</ele>
        <time>2019-03-27T15:40:39Z</time>
      </trkpt>
      <trkpt lat="44.24724" lon="5.66981">
        <ele>682</ele>
        <time>2019-03-27T15:40:40Z</time>
      </trkpt>
      <trkpt lat="44.2472" lon="5.66993">
        <ele>682</ele>
        <time>2019-03-27T15:40:41Z</time>
      </trkpt>
      <trkpt lat="44.24717" lon="5.67006">
        <ele>682</ele>
        <time>2019-03-27T15:40:42Z</time>
      </trkpt>
      <trkpt lat="44.24714" lon="5.67019">
        <ele>682</ele>
        <time>2019-03-27T15:40:43Z</time>
      </trkpt>
      <trkpt lat="44.24712" lon="5.67032">
        <ele>682</ele>
        <time>2019-03-27T15:40:44Z</time>
      </trkpt>
      <trkpt lat="44.24709" lon="5.67045">
        <ele>682</ele>
        <time>2019-03-27T15:40:45Z</time>
      </trkpt>
      <trkpt lat="44.24708" lon="5.67058">
        <ele>682</ele>
        <time>2019-03-27T15:40:46Z</time>
      </trkpt>
      <trkpt lat="44.24706" lon="5.67071">
        <ele>682</ele>
        <time>2019-03-27T15:40:47Z</time>
      </trkpt>
      <trkpt lat="44.24705" lon="5.67084">
        <ele>682</ele>
        <time>2019-03-27T15:40:48Z</time>
      </trkpt>
      <trkpt lat="44.24704" lon="5.67096">
        <ele>682</ele>
        <time>2019-03-27T15:40:49Z</time>
      </trkpt>
      <trkpt lat="44.24703" lon="5.67109">
        <ele>682</ele>
        <time>2019-03-27T15:40:50Z</time>
      </trkpt>
      <trkpt lat="44.24702" lon="5.67122">
        <ele>682</ele>
        <time>2019-03-27T15:40:51Z</time>
      </trkpt>
      <trkpt lat="44.24701" lon="5.67135">
        <ele>682</ele>
        <time>2019-03-27T15:40:52Z</time>
      </trkpt>
      <trkpt lat="44.24698" lon="5.67147">
        <ele>681</ele>
        <time>2019-03-27T15:40:53Z</time>
      </trkpt>
      <trkpt lat="44.24694" lon="5.67159">
        <ele>681</ele>
        <time>2019-03-27T15:40:54Z</time>
      </trkpt>
      <trkpt lat="44.2469" lon="5.6717">
        <ele>681</ele>
        <time>2019-03-27T15:40:55Z</time>
      </trkpt>
      <trkpt lat="44.24684" lon="5.6718">
        <ele>681</ele>
        <time>2019-03-27T15:40:56Z</time>
      </trkpt>
      <trkpt lat="44.24678" lon="5.6719">
        <ele>681</ele>
        <time>2019-03-27T15:40:57Z</time>
      </trkpt>
      <trkpt lat="44.24672" lon="5.672">
        <ele>681</ele>
        <time>2019-03-27T15:40:58Z</time>
      </trkpt>
      <trkpt lat="44.24667" lon="5.6721">
        <ele>681</ele>
        <time>2019-03-27T15:40:59Z</time>
      </trkpt>
      <trkpt lat="44.24661" lon="5.6722">
        <ele>681</ele>
        <time>2019-03-27T15:41:00Z</time>
      </trkpt>
      <trkpt lat="44.24656" lon="5.6723">
        <ele>681</ele>
        <time>2019-03-27T15:41:01Z</time>
      </trkpt>
      <trkpt lat="44.24651" lon="5.67241">
        <ele>681</ele>
        <time>2019-03-27T15:41:02Z</time>
      </trkpt>
      <trkpt lat="44.24647" lon="5.67252">
        <ele>681</ele>
        <time>2019-03-27T15:41:03Z</time>
      </trkpt>
      <trkpt lat="44.24644" lon="5.67265">
        <ele>681</ele>
        <time>2019-03-27T15:41:04Z</time>
      </trkpt>
      <trkpt lat="44.24641" lon="5.67277">
        <ele>681</ele>
        <time>2019-03-27T15:41:05Z</time>
      </trkpt>
      <trkpt lat="44.24638" lon="5.6729">
        <ele>681</ele>
        <time>2019-03-27T15:41:06Z</time>
      </trkpt>
      <trkpt lat="44.24636" lon="5.67303">
        <ele>681</ele>
        <time>2019-03-27T15:41:07Z</time>
      </trkpt>
      <trkpt lat="44.24633" lon="5.67315">
        <ele>681</ele>
        <time>2019-03-27T15:41:08Z</time>
      </trkpt>
      <trkpt lat="44.24631" lon="5.67329">
        <ele>681</ele>
        <time>2019-03-27T15:41:09Z</time>
      </trkpt>
      <trkpt lat="44.24628" lon="5.67342">
        <ele>681</ele>
        <time>2019-03-27T15:41:10Z</time>
      </trkpt>
      <trkpt lat="44.24625" lon="5.67355">
        <ele>681</ele>
        <time>2019-03-27T15:41:11Z</time>
      </trkpt>
      <trkpt lat="44.24622" lon="5.67368">
        <ele>681</ele>
        <time>2019-03-27T15:41:12Z</time>
      </trkpt>
      <trkpt lat="44.24617" lon="5.67381">
        <ele>681</ele>
        <time>2019-03-27T15:41:13Z</time>
      </trkpt>
      <trkpt lat="44.24613" lon="5.67393">
        <ele>681</ele>
        <time>2019-03-27T15:41:14Z</time>
      </trkpt>
      <trkpt lat="44.24607" lon="5.67404">
        <ele>681</ele>
        <time>2019-03-27T15:41:15Z</time>
      </trkpt>
      <trkpt lat="44.24601" lon="5.67414">
        <ele>681</ele>
        <time>2019-03-27T15:41:16Z</time>
      </trkpt>
      <trkpt lat="44.24595" lon="5.67424">
        <ele>681</ele>
        <time>2019-03-27T15:41:17Z</time>
      </trkpt>
      <trkpt lat="44.24589" lon="5.67434">
        <ele>681</ele>
        <time>2019-03-27T15:41:18Z</time>
      </trkpt>
      <trkpt lat="44.24583" lon="5.67444">
        <ele>681</ele>
        <time>2019-03-27T15:41:19Z</time>
      </trkpt>
      <trkpt lat="44.24576" lon="5.67454">
        <ele>681</ele>
        <time>2019-03-27T15:41:20Z</time>
      </trkpt>
      <trkpt lat="44.2457" lon="5.67464">
        <ele>681</ele>
        <time>2019-03-27T15:41:21Z</time>
      </trkpt>
      <trkpt lat="44.24564" lon="5.67473">
        <ele>681</ele>
        <time>2019-03-27T15:41:22Z</time>
      </trkpt>
      <trkpt lat="44.24559" lon="5.67483">
        <ele>681</ele>
        <time>2019-03-27T15:41:23Z</time>
      </trkpt>
      <trkpt lat="44.24554" lon="5.67493">
        <ele>681</ele>
        <time>2019-03-27T15:41:24Z</time>
      </trkpt>
      <trkpt lat="44.24549" lon="5.67503">
        <ele>681</ele>
        <time>2019-03-27T15:41:25Z</time>
      </trkpt>
      <trkpt lat="44.24544" lon="5.67513">
        <ele>681</ele>
        <time>2019-03-27T15:41:26Z</time>
      </trkpt>
      <trkpt lat="44.24541" lon="5.67524">
        <ele>681</ele>
        <time>2019-03-27T15:41:27Z</time>
      </trkpt>
      <trkpt lat="44.24539" lon="5.67536">
        <ele>681</ele>
        <time>2019-03-27T15:41:28Z</time>
      </trkpt>
      <trkpt lat="44.24538" lon="5.67548">
        <ele>681</ele>
        <time>2019-03-27T15:41:29Z</time>
      </trkpt>
      <trkpt lat="44.24537" lon="5.67561">
        <ele>681</ele>
        <time>2019-03-27T15:41:30Z</time>
      </trkpt>
      <trkpt lat="44.24537" lon="5.67573">
        <ele>681</ele>
        <time>2019-03-27T15:41:31Z</time>
      </trkpt>
      <trkpt lat="44.24538" lon="5.67587">
        <ele>681</ele>
        <time>2019-03-27T15:41:32Z</time>
      </trkpt>
      <trkpt lat="44.24539" lon="5.676">
        <ele>681</ele>
        <time>2019-03-27T15:41:33Z</time>
      </trkpt>
      <trkpt lat="44.2454" lon="5.67614">
        <ele>681</ele>
        <time>2019-03-27T15:41:34Z</time>
      </trkpt>
      <trkpt lat="44.2454" lon="5.67628">
        <ele>681</ele>
        <time>2019-03-27T15:41:35Z</time>
      </trkpt>
      <trkpt lat="44.2454" lon="5.67642">
        <ele>681</ele>
        <time>2019-03-27T15:41:36Z</time>
      </trkpt>
      <trkpt lat="44.24538" lon="5.67655">
        <ele>681</ele>
        <time>2019-03-27T15:41:37Z</time>
      </trkpt>
      <trkpt lat="44.24535" lon="5.67669">
        <ele>681</ele>
        <time>2019-03-27T15:41:38Z</time>
      </trkpt>
      <trkpt lat="44.24533" lon="5.67682">
        <ele>680</ele>
        <time>2019-03-27T15:41:39Z</time>
      </trkpt>
      <trkpt lat="44.2453" lon="5.67696">
        <ele>680</ele>
        <time>2019-03-27T15:41:40Z</time>
      </trkpt>
      <trkpt lat="44.24528" lon="5.67708">
        <ele>680</ele>
        <time>2019-03-27T15:41:41Z</time>
      </trkpt>
      <trkpt lat="44.24526" lon="5.67722">
        <ele>680</ele>
        <time>2019-03-27T15:41:42Z</time>
      </trkpt>
      <trkpt lat="44.24523" lon="5.67734">
        <ele>680</ele>
        <time>2019-03-27T15:41:43Z</time>
      </trkpt>
      <trkpt lat="44.24521" lon="5.67747">
        <ele>680</ele>
        <time>2019-03-27T15:41:44Z</time>
      </trkpt>
      <trkpt lat="44.24519" lon="5.6776">
        <ele>680</ele>
        <time>2019-03-27T15:41:45Z</time>
      </trkpt>
      <trkpt lat="44.24517" lon="5.67773">
        <ele>680</ele>
        <time>2019-03-27T15:41:46Z</time>
      </trkpt>
      <trkpt lat="44.24516" lon="5.67786">
        <ele>680</ele>
        <time>2019-03-27T15:41:47Z</time>
      </trkpt>
      <trkpt lat="44.24515" lon="5.67799">
        <ele>680</ele>
        <time>2019-03-27T15:41:48Z</time>
      </trkpt>
      <trkpt lat="44.24514" lon="5.67812">
        <ele>680</ele>
        <time>2019-03-27T15:41:49Z</time>
      </trkpt>
      <trkpt lat="44.24514" lon="5.67826">
        <ele>680</ele>
        <time>2019-03-27T15:41:50Z</time>
      </trkpt>
      <trkpt lat="44.24514" lon="5.6784">
        <ele>680</ele>
        <time>2019-03-27T15:41:51Z</time>
      </trkpt>
      <trkpt lat="44.24514" lon="5.67854">
        <ele>680</ele>
        <time>2019-03-27T15:41:52Z</time>
      </trkpt>
      <trkpt lat="44.24514" lon="5.67869">
        <ele>680</ele>
        <time>2019-03-27T15:41:53Z</time>
      </trkpt>
      <trkpt lat="44.24515" lon="5.67883">
        <ele>680</ele>
        <time>2019-03-27T15:41:54Z</time>
      </trkpt>
      <trkpt lat="44.24516" lon="5.67898">
        <ele>679</ele>
        <time>2019-03-27T15:41:55Z</time>
      </trkpt>
      <trkpt lat="44.24517" lon="5.67912">
        <ele>679</ele>
        <time>2019-03-27T15:41:56Z</time>
      </trkpt>
      <trkpt lat="44.24517" lon="5.67928">
        <ele>679</ele>
        <time>2019-03-27T15:41:57Z</time>
      </trkpt>
      <trkpt lat="44.24518" lon="5.67943">
        <ele>679</ele>
        <time>2019-03-27T15:41:58Z</time>
      </trkpt>
      <trkpt lat="44.24519" lon="5.67958">
        <ele>679</ele>
        <time>2019-03-27T15:41:59Z</time>
      </trkpt>
      <trkpt lat="44.24519" lon="5.67973">
        <ele>679</ele>
        <time>2019-03-27T15:42:00Z</time>
      </trkpt>
      <trkpt lat="44.2452" lon="5.67989">
        <ele>678</ele>
        <time>2019-03-27T15:42:01Z</time>
      </trkpt>
      <trkpt lat="44.2452" lon="5.68005">
        <ele>678</ele>
        <time>2019-03-27T15:42:02Z</time>
      </trkpt>
      <trkpt lat="44.2452" lon="5.6802">
        <ele>678</ele>
        <time>2019-03-27T15:42:03Z</time>
      </trkpt>
      <trkpt lat="44.24521" lon="5.68037">
        <ele>678</ele>
        <time>2019-03-27T15:42:04Z</time>
      </trkpt>
      <trkpt lat="44.24522" lon="5.68052">
        <ele>678</ele>
        <time>2019-03-27T15:42:05Z</time>
      </trkpt>
      <trkpt lat="44.24524" lon="5.68069">
        <ele>678</ele>
        <time>2019-03-27T15:42:06Z</time>
      </trkpt>
      <trkpt lat="44.24526" lon="5.68084">
        <ele>677</ele>
        <time>2019-03-27T15:42:07Z</time>
      </trkpt>
      <trkpt lat="44.24529" lon="5.681">
        <ele>677</ele>
        <time>2019-03-27T15:42:08Z</time>
      </trkpt>
      <trkpt lat="44.24532" lon="5.68116">
        <ele>677</ele>
        <time>2019-03-27T15:42:09Z</time>
      </trkpt>
      <trkpt lat="44.24536" lon="5.68131">
        <ele>677</ele>
        <time>2019-03-27T15:42:10Z</time>
      </trkpt>
      <trkpt lat="44.2454" lon="5.68146">
        <ele>676</ele>
        <time>2019-03-27T15:42:11Z</time>
      </trkpt>
      <trkpt lat="44.24543" lon="5.68161">
        <ele>676</ele>
        <time>2019-03-27T15:42:12Z</time>
      </trkpt>
      <trkpt lat="44.24548" lon="5.68175">
        <ele>676</ele>
        <time>2019-03-27T15:42:13Z</time>
      </trkpt>
      <trkpt lat="44.24551" lon="5.6819">
        <ele>675</ele>
        <time>2019-03-27T15:42:14Z</time>
      </trkpt>
      <trkpt lat="44.24555" lon="5.68204">
        <ele>675</ele>
        <time>2019-03-27T15:42:15Z</time>
      </trkpt>
      <trkpt lat="44.24558" lon="5.68218">
        <ele>675</ele>
        <time>2019-03-27T15:42:16Z</time>
      </trkpt>
      <trkpt lat="44.24562" lon="5.68233">
        <ele>674</ele>
        <time>2019-03-27T15:42:17Z</time>
      </trkpt>
      <trkpt lat="44.24564" lon="5.68247">
        <ele>674</ele>
        <time>2019-03-27T15:42:18Z</time>
      </trkpt>
      <trkpt lat="44.24567" lon="5.68261">
        <ele>673</ele>
        <time>2019-03-27T15:42:19Z</time>
      </trkpt>
      <trkpt lat="44.24569" lon="5.68275">
        <ele>672</ele>
        <time>2019-03-27T15:42:20Z</time>
      </trkpt>
      <trkpt lat="44.24572" lon="5.6829">
        <ele>671</ele>
        <time>2019-03-27T15:42:21Z</time>
      </trkpt>
      <trkpt lat="44.24576" lon="5.68304">
        <ele>671</ele>
        <time>2019-03-27T15:42:22Z</time>
      </trkpt>
      <trkpt lat="44.24579" lon="5.68319">
        <ele>670</ele>
        <time>2019-03-27T15:42:23Z</time>
      </trkpt>
      <trkpt lat="44.24582" lon="5.68333">
        <ele>669</ele>
        <time>2019-03-27T15:42:24Z</time>
      </trkpt>
      <trkpt lat="44.24584" lon="5.68347">
        <ele>669</ele>
        <time>2019-03-27T15:42:25Z</time>
      </trkpt>
      <trkpt lat="44.24588" lon="5.68361">
        <ele>669</ele>
        <time>2019-03-27T15:42:26Z</time>
      </trkpt>
      <trkpt lat="44.24591" lon="5.68375">
        <ele>668</ele>
        <time>2019-03-27T15:42:27Z</time>
      </trkpt>
      <trkpt lat="44.24594" lon="5.68389">
        <ele>668</ele>
        <time>2019-03-27T15:42:28Z</time>
      </trkpt>
      <trkpt lat="44.24597" lon="5.68403">
        <ele>668</ele>
        <time>2019-03-27T15:42:29Z</time>
      </trkpt>
      <trkpt lat="44.24599" lon="5.68417">
        <ele>667</ele>
        <time>2019-03-27T15:42:30Z</time>
      </trkpt>
      <trkpt lat="44.24602" lon="5.68431">
        <ele>667</ele>
        <time>2019-03-27T15:42:31Z</time>
      </trkpt>
      <trkpt lat="44.24605" lon="5.68445">
        <ele>667</ele>
        <time>2019-03-27T15:42:32Z</time>
      </trkpt>
      <trkpt lat="44.24607" lon="5.68459">
        <ele>667</ele>
        <time>2019-03-27T15:42:33Z</time>
      </trkpt>
      <trkpt lat="44.24608" lon="5.68473">
        <ele>667</ele>
        <time>2019-03-27T15:42:34Z</time>
      </trkpt>
      <trkpt lat="44.24609" lon="5.68487">
        <ele>667</ele>
        <time>2019-03-27T15:42:35Z</time>
      </trkpt>
      <trkpt lat="44.24609" lon="5.68501">
        <ele>667</ele>
        <time>2019-03-27T15:42:36Z</time>
      </trkpt>
      <trkpt lat="44.24611" lon="5.68515">
        <ele>667</ele>
        <time>2019-03-27T15:42:37Z</time>
      </trkpt>
      <trkpt lat="44.24612" lon="5.6853">
        <ele>667</ele>
        <time>2019-03-27T15:42:38Z</time>
      </trkpt>
      <trkpt lat="44.24613" lon="5.68544">
        <ele>667</ele>
        <time>2019-03-27T15:42:39Z</time>
      </trkpt>
      <trkpt lat="44.24615" lon="5.68559">
        <ele>667</ele>
        <time>2019-03-27T15:42:40Z</time>
      </trkpt>
      <trkpt lat="44.24616" lon="5.68573">
        <ele>667</ele>
        <time>2019-03-27T15:42:41Z</time>
      </trkpt>
      <trkpt lat="44.24617" lon="5.68588">
        <ele>667</ele>
        <time>2019-03-27T15:42:42Z</time>
      </trkpt>
      <trkpt lat="44.24618" lon="5.68602">
        <ele>667</ele>
        <time>2019-03-27T15:42:43Z</time>
      </trkpt>
      <trkpt lat="44.24618" lon="5.68616">
        <ele>667</ele>
        <time>2019-03-27T15:42:44Z</time>
      </trkpt>
      <trkpt lat="44.24619" lon="5.6863">
        <ele>667</ele>
        <time>2019-03-27T15:42:45Z</time>
      </trkpt>
      <trkpt lat="44.2462" lon="5.68645">
        <ele>667</ele>
        <time>2019-03-27T15:42:46Z</time>
      </trkpt>
      <trkpt lat="44.2462" lon="5.68659">
        <ele>667</ele>
        <time>2019-03-27T15:42:47Z</time>
      </trkpt>
      <trkpt lat="44.24622" lon="5.68673">
        <ele>667</ele>
        <time>2019-03-27T15:42:48Z</time>
      </trkpt>
      <trkpt lat="44.24623" lon="5.68688">
        <ele>667</ele>
        <time>2019-03-27T15:42:49Z</time>
      </trkpt>
      <trkpt lat="44.24625" lon="5.68703">
        <ele>667</ele>
        <time>2019-03-27T15:42:50Z</time>
      </trkpt>
      <trkpt lat="44.24627" lon="5.68717">
        <ele>667</ele>
        <time>2019-03-27T15:42:51Z</time>
      </trkpt>
      <trkpt lat="44.24628" lon="5.68732">
        <ele>667</ele>
        <time>2019-03-27T15:42:52Z</time>
      </trkpt>
      <trkpt lat="44.2463" lon="5.68747">
        <ele>667</ele>
        <time>2019-03-27T15:42:53Z</time>
      </trkpt>
      <trkpt lat="44.24632" lon="5.68762">
        <ele>667</ele>
        <time>2019-03-27T15:42:54Z</time>
      </trkpt>
      <trkpt lat="44.24634" lon="5.68777">
        <ele>667</ele>
        <time>2019-03-27T15:42:55Z</time>
      </trkpt>
      <trkpt lat="44.24635" lon="5.68791">
        <ele>667</ele>
        <time>2019-03-27T15:42:56Z</time>
      </trkpt>
      <trkpt lat="44.24637" lon="5.68806">
        <ele>667</ele>
        <time>2019-03-27T15:42:57Z</time>
      </trkpt>
      <trkpt lat="44.24638" lon="5.6882">
        <ele>667</ele>
        <time>2019-03-27T15:42:58Z</time>
      </trkpt>
      <trkpt lat="44.2464" lon="5.68835">
        <ele>667</ele>
        <time>2019-03-27T15:42:59Z</time>
      </trkpt>
      <trkpt lat="44.24641" lon="5.68849">
        <ele>667</ele>
        <time>2019-03-27T15:43:00Z</time>
      </trkpt>
      <trkpt lat="44.24643" lon="5.68863">
        <ele>667</ele>
        <time>2019-03-27T15:43:01Z</time>
      </trkpt>
      <trkpt lat="44.24645" lon="5.68877">
        <ele>667</ele>
        <time>2019-03-27T15:43:02Z</time>
      </trkpt>
      <trkpt lat="44.24646" lon="5.68891">
        <ele>667</ele>
        <time>2019-03-27T15:43:03Z</time>
      </trkpt>
      <trkpt lat="44.24648" lon="5.68905">
        <ele>667</ele>
        <time>2019-03-27T15:43:04Z</time>
      </trkpt>
      <trkpt lat="44.24649" lon="5.68919">
        <ele>667</ele>
        <time>2019-03-27T15:43:05Z</time>
      </trkpt>
      <trkpt lat="44.2465" lon="5.68933">
        <ele>667</ele>
        <time>2019-03-27T15:43:06Z</time>
      </trkpt>
      <trkpt lat="44.24652" lon="5.68947">
        <ele>667</ele>
        <time>2019-03-27T15:43:07Z</time>
      </trkpt>
      <trkpt lat="44.24653" lon="5.68961">
        <ele>667</ele>
        <time>2019-03-27T15:43:08Z</time>
      </trkpt>
      <trkpt lat="44.24655" lon="5.68975">
        <ele>667</ele>
        <time>2019-03-27T15:43:09Z</time>
      </trkpt>
      <trkpt lat="44.24657" lon="5.68988">
        <ele>667</ele>
        <time>2019-03-27T15:43:10Z</time>
      </trkpt>
      <trkpt lat="44.24658" lon="5.69002">
        <ele>667</ele>
        <time>2019-03-27T15:43:11Z</time>
      </trkpt>
      <trkpt lat="44.2466" lon="5.69015">
        <ele>667</ele>
        <time>2019-03-27T15:43:12Z</time>
      </trkpt>
      <trkpt lat="44.24662" lon="5.69029">
        <ele>667</ele>
        <time>2019-03-27T15:43:13Z</time>
      </trkpt>
      <trkpt lat="44.24664" lon="5.69043">
        <ele>667</ele>
        <time>2019-03-27T15:43:14Z</time>
      </trkpt>
      <trkpt lat="44.24665" lon="5.69056">
        <ele>667</ele>
        <time>2019-03-27T15:43:15Z</time>
      </trkpt>
      <trkpt lat="44.24667" lon="5.69069">
        <ele>667</ele>
        <time>2019-03-27T15:43:16Z</time>
      </trkpt>
      <trkpt lat="44.24669" lon="5.69083">
        <ele>667</ele>
        <time>2019-03-27T15:43:17Z</time>
      </trkpt>
      <trkpt lat="44.24672" lon="5.69097">
        <ele>667</ele>
        <time>2019-03-27T15:43:18Z</time>
      </trkpt>
      <trkpt lat="44.24674" lon="5.6911">
        <ele>667</ele>
        <time>2019-03-27T15:43:19Z</time>
      </trkpt>
      <trkpt lat="44.24677" lon="5.69124">
        <ele>667</ele>
        <time>2019-03-27T15:43:20Z</time>
      </trkpt>
      <trkpt lat="44.2468" lon="5.69136">
        <ele>667</ele>
        <time>2019-03-27T15:43:21Z</time>
      </trkpt>
      <trkpt lat="44.24683" lon="5.69149">
        <ele>667</ele>
        <time>2019-03-27T15:43:22Z</time>
      </trkpt>
      <trkpt lat="44.24687" lon="5.69162">
        <ele>667</ele>
        <time>2019-03-27T15:43:23Z</time>
      </trkpt>
      <trkpt lat="44.24692" lon="5.69174">
        <ele>667</ele>
        <time>2019-03-27T15:43:24Z</time>
      </trkpt>
      <trkpt lat="44.24696" lon="5.69186">
        <ele>667</ele>
        <time>2019-03-27T15:43:25Z</time>
      </trkpt>
      <trkpt lat="44.24701" lon="5.69198">
        <ele>667</ele>
        <time>2019-03-27T15:43:26Z</time>
      </trkpt>
      <trkpt lat="44.24707" lon="5.6921">
        <ele>667</ele>
        <time>2019-03-27T15:43:27Z</time>
      </trkpt>
      <trkpt lat="44.24712" lon="5.69221">
        <ele>667</ele>
        <time>2019-03-27T15:43:28Z</time>
      </trkpt>
      <trkpt lat="44.24717" lon="5.69233">
        <ele>667</ele>
        <time>2019-03-27T15:43:29Z</time>
      </trkpt>
      <trkpt lat="44.24723" lon="5.69244">
        <ele>667</ele>
        <time>2019-03-27T15:43:30Z</time>
      </trkpt>
      <trkpt lat="44.24729" lon="5.69255">
        <ele>666</ele>
        <time>2019-03-27T15:43:31Z</time>
      </trkpt>
      <trkpt lat="44.24734" lon="5.69267">
        <ele>666</ele>
        <time>2019-03-27T15:43:32Z</time>
      </trkpt>
      <trkpt lat="44.24739" lon="5.69278">
        <ele>665</ele>
        <time>2019-03-27T15:43:33Z</time>
      </trkpt>
      <trkpt lat="44.24744" lon="5.6929">
        <ele>665</ele>
        <time>2019-03-27T15:43:34Z</time>
      </trkpt>
      <trkpt lat="44.24748" lon="5.69301">
        <ele>665</ele>
        <time>2019-03-27T15:43:35Z</time>
      </trkpt>
      <trkpt lat="44.24753" lon="5.69312">
        <ele>664</ele>
        <time>2019-03-27T15:43:36Z</time>
      </trkpt>
      <trkpt lat="44.24758" lon="5.69323">
        <ele>664</ele>
        <time>2019-03-27T15:43:37Z</time>
      </trkpt>
      <trkpt lat="44.24762" lon="5.69335">
        <ele>664</ele>
        <time>2019-03-27T15:43:38Z</time>
      </trkpt>
      <trkpt lat="44.24766" lon="5.69346">
        <ele>664</ele>
        <time>2019-03-27T15:43:39Z</time>
      </trkpt>
      <trkpt lat="44.2477" lon="5.69357">
        <ele>664</ele>
        <time>2019-03-27T15:43:40Z</time>
      </trkpt>
      <trkpt lat="44.24773" lon="5.69369">
        <ele>664</ele>
        <time>2019-03-27T15:43:41Z</time>
      </trkpt>
      <trkpt lat="44.24776" lon="5.69381">
        <ele>663</ele>
        <time>2019-03-27T15:43:42Z</time>
      </trkpt>
      <trkpt lat="44.24779" lon="5.69392">
        <ele>663</ele>
        <time>2019-03-27T15:43:43Z</time>
      </trkpt>
      <trkpt lat="44.24782" lon="5.69404">
        <ele>663</ele>
        <time>2019-03-27T15:43:44Z</time>
      </trkpt>
      <trkpt lat="44.24784" lon="5.69415">
        <ele>663</ele>
        <time>2019-03-27T15:43:45Z</time>
      </trkpt>
      <trkpt lat="44.24786" lon="5.69425">
        <ele>663</ele>
        <time>2019-03-27T15:43:46Z</time>
      </trkpt>
      <trkpt lat="44.24788" lon="5.69436">
        <ele>663</ele>
        <time>2019-03-27T15:43:47Z</time>
      </trkpt>
      <trkpt lat="44.2479" lon="5.69447">
        <ele>663</ele>
        <time>2019-03-27T15:43:48Z</time>
      </trkpt>
      <trkpt lat="44.24791" lon="5.69458">
        <ele>663</ele>
        <time>2019-03-27T15:43:49Z</time>
      </trkpt>
      <trkpt lat="44.24792" lon="5.69468">
        <ele>663</ele>
        <time>2019-03-27T15:43:50Z</time>
      </trkpt>
      <trkpt lat="44.24793" lon="5.69479">
        <ele>663</ele>
        <time>2019-03-27T15:43:51Z</time>
      </trkpt>
      <trkpt lat="44.24794" lon="5.69489">
        <ele>663</ele>
        <time>2019-03-27T15:43:52Z</time>
      </trkpt>
      <trkpt lat="44.24794" lon="5.69501">
        <ele>663</ele>
        <time>2019-03-27T15:43:53Z</time>
      </trkpt>
      <trkpt lat="44.24793" lon="5.69512">
        <ele>663</ele>
        <time>2019-03-27T15:43:54Z</time>
      </trkpt>
      <trkpt lat="44.24792" lon="5.69523">
        <ele>663</ele>
        <time>2019-03-27T15:43:55Z</time>
      </trkpt>
      <trkpt lat="44.2479" lon="5.69534">
        <ele>663</ele>
        <time>2019-03-27T15:43:56Z</time>
      </trkpt>
      <trkpt lat="44.24789" lon="5.69546">
        <ele>663</ele>
        <time>2019-03-27T15:43:57Z</time>
      </trkpt>
      <trkpt lat="44.24786" lon="5.69557">
        <ele>663</ele>
        <time>2019-03-27T15:43:58Z</time>
      </trkpt>
      <trkpt lat="44.24783" lon="5.69568">
        <ele>663</ele>
        <time>2019-03-27T15:43:59Z</time>
      </trkpt>
      <trkpt lat="44.2478" lon="5.69579">
        <ele>663</ele>
        <time>2019-03-27T15:44:00Z</time>
      </trkpt>
      <trkpt lat="44.24777" lon="5.6959">
        <ele>663</ele>
        <time>2019-03-27T15:44:01Z</time>
      </trkpt>
      <trkpt lat="44.24774" lon="5.69601">
        <ele>663</ele>
        <time>2019-03-27T15:44:02Z</time>
      </trkpt>
      <trkpt lat="44.24771" lon="5.69613">
        <ele>663</ele>
        <time>2019-03-27T15:44:03Z</time>
      </trkpt>
      <trkpt lat="44.24768" lon="5.69624">
        <ele>663</ele>
        <time>2019-03-27T15:44:04Z</time>
      </trkpt>
      <trkpt lat="44.24764" lon="5.69634">
        <ele>663</ele>
        <time>2019-03-27T15:44:05Z</time>
      </trkpt>
      <trkpt lat="44.2476" lon="5.69646">
        <ele>663</ele>
        <time>2019-03-27T15:44:06Z</time>
      </trkpt>
      <trkpt lat="44.24756" lon="5.69657">
        <ele>663</ele>
        <time>2019-03-27T15:44:07Z</time>
      </trkpt>
      <trkpt lat="44.24752" lon="5.69667">
        <ele>663</ele>
        <time>2019-03-27T15:44:08Z</time>
      </trkpt>
      <trkpt lat="44.24748" lon="5.69678">
        <ele>663</ele>
        <time>2019-03-27T15:44:09Z</time>
      </trkpt>
      <trkpt lat="44.24744" lon="5.6969">
        <ele>664</ele>
        <time>2019-03-27T15:44:10Z</time>
      </trkpt>
      <trkpt lat="44.2474" lon="5.69702">
        <ele>664</ele>
        <time>2019-03-27T15:44:11Z</time>
      </trkpt>
      <trkpt lat="44.24737" lon="5.69713">
        <ele>664</ele>
        <time>2019-03-27T15:44:12Z</time>
      </trkpt>
      <trkpt lat="44.24733" lon="5.69725">
        <ele>664</ele>
        <time>2019-03-27T15:44:13Z</time>
      </trkpt>
      <trkpt lat="44.24731" lon="5.69737">
        <ele>664</ele>
        <time>2019-03-27T15:44:14Z</time>
      </trkpt>
      <trkpt lat="44.24729" lon="5.6975">
        <ele>664</ele>
        <time>2019-03-27T15:44:15Z</time>
      </trkpt>
      <trkpt lat="44.24727" lon="5.69762">
        <ele>664</ele>
        <time>2019-03-27T15:44:16Z</time>
      </trkpt>
      <trkpt lat="44.24725" lon="5.69775">
        <ele>664</ele>
        <time>2019-03-27T15:44:17Z</time>
      </trkpt>
      <trkpt lat="44.24724" lon="5.69788">
        <ele>664</ele>
        <time>2019-03-27T15:44:18Z</time>
      </trkpt>
      <trkpt lat="44.24722" lon="5.698">
        <ele>664</ele>
        <time>2019-03-27T15:44:19Z</time>
      </trkpt>
      <trkpt lat="44.2472" lon="5.69812">
        <ele>664</ele>
        <time>2019-03-27T15:44:20Z</time>
      </trkpt>
      <trkpt lat="44.24718" lon="5.69824">
        <ele>664</ele>
        <time>2019-03-27T15:44:21Z</time>
      </trkpt>
      <trkpt lat="44.24715" lon="5.69836">
        <ele>664</ele>
        <time>2019-03-27T15:44:22Z</time>
      </trkpt>
      <trkpt lat="44.24713" lon="5.69848">
        <ele>664</ele>
        <time>2019-03-27T15:44:23Z</time>
      </trkpt>
      <trkpt lat="44.24712" lon="5.69859">
        <ele>664</ele>
        <time>2019-03-27T15:44:24Z</time>
      </trkpt>
      <trkpt lat="44.24711" lon="5.69871">
        <ele>664</ele>
        <time>2019-03-27T15:44:25Z</time>
      </trkpt>
      <trkpt lat="44.24712" lon="5.69883">
        <ele>664</ele>
        <time>2019-03-27T15:44:26Z</time>
      </trkpt>
      <trkpt lat="44.24714" lon="5.69894">
        <ele>664</ele>
        <time>2019-03-27T15:44:27Z</time>
      </trkpt>
      <trkpt lat="44.24717" lon="5.69905">
        <ele>664</ele>
        <time>2019-03-27T15:44:28Z</time>
      </trkpt>
      <trkpt lat="44.24721" lon="5.69915">
        <ele>664</ele>
        <time>2019-03-27T15:44:29Z</time>
      </trkpt>
      <trkpt lat="44.24725" lon="5.69926">
        <ele>664</ele>
        <time>2019-03-27T15:44:30Z</time>
      </trkpt>
      <trkpt lat="44.24729" lon="5.69936">
        <ele>664</ele>
        <time>2019-03-27T15:44:31Z</time>
      </trkpt>
      <trkpt lat="44.24734" lon="5.69946">
        <ele>664</ele>
        <time>2019-03-27T15:44:32Z</time>
      </trkpt>
      <trkpt lat="44.24738" lon="5.69957">
        <ele>664</ele>
        <time>2019-03-27T15:44:33Z</time>
      </trkpt>
      <trkpt lat="44.24742" lon="5.69968">
        <ele>664</ele>
        <time>2019-03-27T15:44:34Z</time>
      </trkpt>
      <trkpt lat="44.24747" lon="5.69978">
        <ele>664</ele>
        <time>2019-03-27T15:44:35Z</time>
      </trkpt>
      <trkpt lat="44.24751" lon="5.69988">
        <ele>664</ele>
        <time>2019-03-27T15:44:36Z</time>
      </trkpt>
      <trkpt lat="44.24756" lon="5.69999">
        <ele>664</ele>
        <time>2019-03-27T15:44:37Z</time>
      </trkpt>
      <trkpt lat="44.24761" lon="5.70009">
        <ele>664</ele>
        <time>2019-03-27T15:44:38Z</time>
      </trkpt>
      <trkpt lat="44.24767" lon="5.70018">
        <ele>664</ele>
        <time>2019-03-27T15:44:39Z</time>
      </trkpt>
      <trkpt lat="44.24773" lon="5.70027">
        <ele>664</ele>
        <time>2019-03-27T15:44:40Z</time>
      </trkpt>
      <trkpt lat="44.2478" lon="5.70036">
        <ele>664</ele>
        <time>2019-03-27T15:44:41Z</time>
      </trkpt>
      <trkpt lat="44.24786" lon="5.70044">
        <ele>664</ele>
        <time>2019-03-27T15:44:42Z</time>
      </trkpt>
      <trkpt lat="44.24793" lon="5.70052">
        <ele>663</ele>
        <time>2019-03-27T15:44:43Z</time>
      </trkpt>
      <trkpt lat="44.248" lon="5.7006">
        <ele>663</ele>
        <time>2019-03-27T15:44:44Z</time>
      </trkpt>
      <trkpt lat="44.24807" lon="5.70068">
        <ele>663</ele>
        <time>2019-03-27T15:44:45Z</time>
      </trkpt>
      <trkpt lat="44.24814" lon="5.70076">
        <ele>662</ele>
        <time>2019-03-27T15:44:46Z</time>
      </trkpt>
      <trkpt lat="44.24821" lon="5.70084">
        <ele>662</ele>
        <time>2019-03-27T15:44:47Z</time>
      </trkpt>
      <trkpt lat="44.24827" lon="5.70093">
        <ele>662</ele>
        <time>2019-03-27T15:44:48Z</time>
      </trkpt>
      <trkpt lat="44.24833" lon="5.70103">
        <ele>661</ele>
        <time>2019-03-27T15:44:49Z</time>
      </trkpt>
      <trkpt lat="44.24838" lon="5.70114">
        <ele>661</ele>
        <time>2019-03-27T15:44:50Z</time>
      </trkpt>
      <trkpt lat="44.24842" lon="5.70125">
        <ele>661</ele>
        <time>2019-03-27T15:44:51Z</time>
      </trkpt>
      <trkpt lat="44.24846" lon="5.70137">
        <ele>661</ele>
        <time>2019-03-27T15:44:52Z</time>
      </trkpt>
      <trkpt lat="44.24848" lon="5.7015">
        <ele>661</ele>
        <time>2019-03-27T15:44:53Z</time>
      </trkpt>
      <trkpt lat="44.24849" lon="5.70163">
        <ele>661</ele>
        <time>2019-03-27T15:44:54Z</time>
      </trkpt>
      <trkpt lat="44.2485" lon="5.70176">
        <ele>661</ele>
        <time>2019-03-27T15:44:55Z</time>
      </trkpt>
      <trkpt lat="44.24851" lon="5.70189">
        <ele>661</ele>
        <time>2019-03-27T15:44:56Z</time>
      </trkpt>
      <trkpt lat="44.24851" lon="5.70201">
        <ele>661</ele>
        <time>2019-03-27T15:44:57Z</time>
      </trkpt>
      <trkpt lat="44.24851" lon="5.70214">
        <ele>661</ele>
        <time>2019-03-27T15:44:58Z</time>
      </trkpt>
      <trkpt lat="44.24851" lon="5.70226">
        <ele>661</ele>
        <time>2019-03-27T15:44:59Z</time>
      </trkpt>
      <trkpt lat="44.24849" lon="5.70239">
        <ele>661</ele>
        <time>2019-03-27T15:45:00Z</time>
      </trkpt>
      <trkpt lat="44.24847" lon="5.70251">
        <ele>661</ele>
        <time>2019-03-27T15:45:01Z</time>
      </trkpt>
      <trkpt lat="44.24845" lon="5.70262">
        <ele>661</ele>
        <time>2019-03-27T15:45:02Z</time>
      </trkpt>
      <trkpt lat="44.24841" lon="5.70274">
        <ele>661</ele>
        <time>2019-03-27T15:45:03Z</time>
      </trkpt>
      <trkpt lat="44.24837" lon="5.70286">
        <ele>661</ele>
        <time>2019-03-27T15:45:04Z</time>
      </trkpt>
      <trkpt lat="44.24833" lon="5.70296">
        <ele>661</ele>
        <time>2019-03-27T15:45:05Z</time>
      </trkpt>
      <trkpt lat="44.24828" lon="5.70306">
        <ele>661</ele>
        <time>2019-03-27T15:45:06Z</time>
      </trkpt>
      <trkpt lat="44.24824" lon="5.70316">
        <ele>661</ele>
        <time>2019-03-27T15:45:07Z</time>
      </trkpt>
      <trkpt lat="44.24819" lon="5.70326">
        <ele>661</ele>
        <time>2019-03-27T15:45:08Z</time>
      </trkpt>
      <trkpt lat="44.24815" lon="5.70334">
        <ele>661</ele>
        <time>2019-03-27T15:45:09Z</time>
      </trkpt>
      <trkpt lat="44.2481" lon="5.70343">
        <ele>661</ele>
        <time>2019-03-27T15:45:10Z</time>
      </trkpt>
      <trkpt lat="44.24805" lon="5.70352">
        <ele>661</ele>
        <time>2019-03-27T15:45:11Z</time>
      </trkpt>
      <trkpt lat="44.248" lon="5.70362">
        <ele>661</ele>
        <time>2019-03-27T15:45:12Z</time>
      </trkpt>
      <trkpt lat="44.24796" lon="5.70372">
        <ele>661</ele>
        <time>2019-03-27T15:45:13Z</time>
      </trkpt>
      <trkpt lat="44.24792" lon="5.70382">
        <ele>661</ele>
        <time>2019-03-27T15:45:14Z</time>
      </trkpt>
      <trkpt lat="44.2479" lon="5.70394">
        <ele>661</ele>
        <time>2019-03-27T15:45:15Z</time>
      </trkpt>
      <trkpt lat="44.24788" lon="5.70405">
        <ele>661</ele>
        <time>2019-03-27T15:45:16Z</time>
      </trkpt>
      <trkpt lat="44.24784" lon="5.70416">
        <ele>661</ele>
        <time>2019-03-27T15:45:17Z</time>
      </trkpt>
      <trkpt lat="44.24782" lon="5.70427">
        <ele>661</ele>
        <time>2019-03-27T15:45:18Z</time>
      </trkpt>
      <trkpt lat="44.24778" lon="5.70437">
        <ele>661</ele>
        <time>2019-03-27T15:45:19Z</time>
      </trkpt>
      <trkpt lat="44.24775" lon="5.70446">
        <ele>661</ele>
        <time>2019-03-27T15:45:20Z</time>
      </trkpt>
      <trkpt lat="44.24771" lon="5.70455">
        <ele>661</ele>
        <time>2019-03-27T15:45:21Z</time>
      </trkpt>
      <trkpt lat="44.24766" lon="5.70463">
        <ele>661</ele>
        <time>2019-03-27T15:45:22Z</time>
      </trkpt>
      <trkpt lat="44.24762" lon="5.70469">
        <ele>661</ele>
        <time>2019-03-27T15:45:23Z</time>
      </trkpt>
      <trkpt lat="44.24756" lon="5.70475">
        <ele>661</ele>
        <time>2019-03-27T15:45:24Z</time>
      </trkpt>
      <trkpt lat="44.24751" lon="5.70482">
        <ele>661</ele>
        <time>2019-03-27T15:45:25Z</time>
      </trkpt>
      <trkpt lat="44.24746" lon="5.70488">
        <ele>661</ele>
        <time>2019-03-27T15:45:26Z</time>
      </trkpt>
      <trkpt lat="44.24741" lon="5.70494">
        <ele>661</ele>
        <time>2019-03-27T15:45:27Z</time>
      </trkpt>
      <trkpt lat="44.24736" lon="5.70499">
        <ele>662</ele>
        <time>2019-03-27T15:45:28Z</time>
      </trkpt>
      <trkpt lat="44.24731" lon="5.70504">
        <ele>662</ele>
        <time>2019-03-27T15:45:29Z</time>
      </trkpt>
      <trkpt lat="44.24726" lon="5.70509">
        <ele>662</ele>
        <time>2019-03-27T15:45:30Z</time>
      </trkpt>
      <trkpt lat="44.24722" lon="5.70514">
        <ele>663</ele>
        <time>2019-03-27T15:45:31Z</time>
      </trkpt>
      <trkpt lat="44.24717" lon="5.70519">
        <ele>663</ele>
        <time>2019-03-27T15:45:32Z</time>
      </trkpt>
      <trkpt lat="44.24711" lon="5.70525">
        <ele>663</ele>
        <time>2019-03-27T15:45:33Z</time>
      </trkpt>
      <trkpt lat="44.24705" lon="5.7053">
        <ele>663</ele>
        <time>2019-03-27T15:45:34Z</time>
      </trkpt>
      <trkpt lat="44.24699" lon="5.70535">
        <ele>663</ele>
        <time>2019-03-27T15:45:35Z</time>
      </trkpt>
      <trkpt lat="44.24694" lon="5.70541">
        <ele>663</ele>
        <time>2019-03-27T15:45:36Z</time>
      </trkpt>
      <trkpt lat="44.2469" lon="5.70547">
        <ele>663</ele>
        <time>2019-03-27T15:45:37Z</time>
      </trkpt>
      <trkpt lat="44.24686" lon="5.70554">
        <ele>664</ele>
        <time>2019-03-27T15:45:38Z</time>
      </trkpt>
      <trkpt lat="44.24686" lon="5.70563">
        <ele>664</ele>
        <time>2019-03-27T15:45:39Z</time>
      </trkpt>
      <trkpt lat="44.24687" lon="5.70571">
        <ele>665</ele>
        <time>2019-03-27T15:45:40Z</time>
      </trkpt>
      <trkpt lat="44.24689" lon="5.70579">
        <ele>665</ele>
        <time>2019-03-27T15:45:41Z</time>
      </trkpt>
      <trkpt lat="44.24692" lon="5.70585">
        <ele>665</ele>
        <time>2019-03-27T15:45:42Z</time>
      </trkpt>
      <trkpt lat="44.24697" lon="5.70589">
        <ele>666</ele>
        <time>2019-03-27T15:45:43Z</time>
      </trkpt>
      <trkpt lat="44.24704" lon="5.70592">
        <ele>666</ele>
        <time>2019-03-27T15:45:44Z</time>
      </trkpt>
      <trkpt lat="44.2471" lon="5.70595">
        <ele>666</ele>
        <time>2019-03-27T15:45:45Z</time>
      </trkpt>
      <trkpt lat="44.24716" lon="5.70598">
        <ele>666</ele>
        <time>2019-03-27T15:45:46Z</time>
      </trkpt>
      <trkpt lat="44.24722" lon="5.70601">
        <ele>666</ele>
        <time>2019-03-27T15:45:47Z</time>
      </trkpt>
      <trkpt lat="44.24727" lon="5.70604">
        <ele>666</ele>
        <time>2019-03-27T15:45:48Z</time>
      </trkpt>
      <trkpt lat="44.24732" lon="5.70609">
        <ele>666</ele>
        <time>2019-03-27T15:45:49Z</time>
      </trkpt>
      <trkpt lat="44.24736" lon="5.70615">
        <ele>666</ele>
        <time>2019-03-27T15:45:50Z</time>
      </trkpt>
      <trkpt lat="44.24739" lon="5.70621">
        <ele>666</ele>
        <time>2019-03-27T15:45:51Z</time>
      </trkpt>
      <trkpt lat="44.24742" lon="5.70628">
        <ele>666</ele>
        <time>2019-03-27T15:45:52Z</time>
      </trkpt>
      <trkpt lat="44.24744" lon="5.70635">
        <ele>666</ele>
        <time>2019-03-27T15:45:53Z</time>
      </trkpt>
      <trkpt lat="44.24745" lon="5.70642">
        <ele>666</ele>
        <time>2019-03-27T15:45:54Z</time>
      </trkpt>
      <trkpt lat="44.24747" lon="5.70648">
        <ele>666</ele>
        <time>2019-03-27T15:45:55Z</time>
      </trkpt>
      <trkpt lat="44.24748" lon="5.70655">
        <ele>666</ele>
        <time>2019-03-27T15:45:56Z</time>
      </trkpt>
      <trkpt lat="44.24749" lon="5.70661">
        <ele>666</ele>
        <time>2019-03-27T15:45:57Z</time>
      </trkpt>
      <trkpt lat="44.24749" lon="5.70668">
        <ele>666</ele>
        <time>2019-03-27T15:45:58Z</time>
      </trkpt>
      <trkpt lat="44.24748" lon="5.70673">
        <ele>666</ele>
        <time>2019-03-27T15:45:59Z</time>
      </trkpt>
      <trkpt lat="44.24746" lon="5.70677">
        <ele>666</ele>
        <time>2019-03-27T15:46:00Z</time>
      </trkpt>
      <trkpt lat="44.24743" lon="5.7068">
        <ele>666</ele>
        <time>2019-03-27T15:46:01Z</time>
      </trkpt>
      <trkpt lat="44.2474" lon="5.70682">
        <ele>666</ele>
        <time>2019-03-27T15:46:02Z</time>
      </trkpt>
      <trkpt lat="44.24736" lon="5.70684">
        <ele>666</ele>
        <time>2019-03-27T15:46:03Z</time>
      </trkpt>
      <trkpt lat="44.24733" lon="5.70685">
        <ele>666</ele>
        <time>2019-03-27T15:46:04Z</time>
      </trkpt>
      <trkpt lat="44.2473" lon="5.70685">
        <ele>666</ele>
        <time>2019-03-27T15:46:05Z</time>
      </trkpt>
      <trkpt lat="44.24726" lon="5.70685">
        <ele>666</ele>
        <time>2019-03-27T15:46:06Z</time>
      </trkpt>
      <trkpt lat="44.24723" lon="5.70685">
        <ele>666</ele>
        <time>2019-03-27T15:46:07Z</time>
      </trkpt>
      <trkpt lat="44.24718" lon="5.70685">
        <ele>666</ele>
        <time>2019-03-27T15:46:08Z</time>
      </trkpt>
      <trkpt lat="44.24714" lon="5.70686">
        <ele>666</ele>
        <time>2019-03-27T15:46:09Z</time>
      </trkpt>
      <trkpt lat="44.2471" lon="5.70685">
        <ele>667</ele>
        <time>2019-03-27T15:46:10Z</time>
      </trkpt>
      <trkpt lat="44.24706" lon="5.70686">
        <ele>668</ele>
        <time>2019-03-27T15:46:11Z</time>
      </trkpt>
      <trkpt lat="44.24703" lon="5.70686">
        <ele>668</ele>
        <time>2019-03-27T15:46:12Z</time>
      </trkpt>
      <trkpt lat="44.24699" lon="5.70686">
        <ele>669</ele>
        <time>2019-03-27T15:46:13Z</time>
      </trkpt>
      <trkpt lat="44.24696" lon="5.70687">
        <ele>670</ele>
        <time>2019-03-27T15:46:14Z</time>
      </trkpt>
      <trkpt lat="44.24693" lon="5.70687">
        <ele>671</ele>
        <time>2019-03-27T15:46:15Z</time>
      </trkpt>
      <trkpt lat="44.2469" lon="5.70687">
        <ele>671</ele>
        <time>2019-03-27T15:46:16Z</time>
      </trkpt>
      <trkpt lat="44.24686" lon="5.70687">
        <ele>672</ele>
        <time>2019-03-27T15:46:17Z</time>
      </trkpt>
      <trkpt lat="44.24683" lon="5.70687">
        <ele>672</ele>
        <time>2019-03-27T15:46:18Z</time>
      </trkpt>
      <trkpt lat="44.24679" lon="5.70687">
        <ele>673</ele>
        <time>2019-03-27T15:46:19Z</time>
      </trkpt>
      <trkpt lat="44.24676" lon="5.70688">
        <ele>673</ele>
        <time>2019-03-27T15:46:20Z</time>
      </trkpt>
      <trkpt lat="44.24673" lon="5.70688">
        <ele>673</ele>
        <time>2019-03-27T15:46:21Z</time>
      </trkpt>
      <trkpt lat="44.24669" lon="5.70689">
        <ele>673</ele>
        <time>2019-03-27T15:46:22Z</time>
      </trkpt>
      <trkpt lat="44.24666" lon="5.70689">
        <ele>674</ele>
        <time>2019-03-27T15:46:23Z</time>
      </trkpt>
      <trkpt lat="44.24662" lon="5.70689">
        <ele>674</ele>
        <time>2019-03-27T15:46:24Z</time>
      </trkpt>
      <trkpt lat="44.24659" lon="5.70689">
        <ele>674</ele>
        <time>2019-03-27T15:46:25Z</time>
      </trkpt>
      <trkpt lat="44.24655" lon="5.70689">
        <ele>675</ele>
        <time>2019-03-27T15:46:26Z</time>
      </trkpt>
      <trkpt lat="44.24652" lon="5.7069">
        <ele>675</ele>
        <time>2019-03-27T15:46:27Z</time>
      </trkpt>
      <trkpt lat="44.24648" lon="5.7069">
        <ele>675</ele>
        <time>2019-03-27T15:46:28Z</time>
      </trkpt>
      <trkpt lat="44.24645" lon="5.7069">
        <ele>676</ele>
        <time>2019-03-27T15:46:29Z</time>
      </trkpt>
      <trkpt lat="44.24642" lon="5.7069">
        <ele>676</ele>
        <time>2019-03-27T15:46:30Z</time>
      </trkpt>
      <trkpt lat="44.24639" lon="5.70691">
        <ele>676</ele>
        <time>2019-03-27T15:46:31Z</time>
      </trkpt>
      <trkpt lat="44.24636" lon="5.70691">
        <ele>677</ele>
        <time>2019-03-27T15:46:32Z</time>
      </trkpt>
      <trkpt lat="44.24633" lon="5.70692">
        <ele>677</ele>
        <time>2019-03-27T15:46:33Z</time>
      </trkpt>
      <trkpt lat="44.2463" lon="5.70694">
        <ele>677</ele>
        <time>2019-03-27T15:46:34Z</time>
      </trkpt>
      <trkpt lat="44.24627" lon="5.70696">
        <ele>677</ele>
        <time>2019-03-27T15:46:35Z</time>
      </trkpt>
      <trkpt lat="44.24625" lon="5.70699">
        <ele>677</ele>
        <time>2019-03-27T15:46:36Z</time>
      </trkpt>
      <trkpt lat="44.24624" lon="5.70703">
        <ele>677</ele>
        <time>2019-03-27T15:46:37Z</time>
      </trkpt>
      <trkpt lat="44.24623" lon="5.70707">
        <ele>677</ele>
        <time>2019-03-27T15:46:38Z</time>
      </trkpt>
      <trkpt lat="44.24622" lon="5.70713">
        <ele>677</ele>
        <time>2019-03-27T15:46:39Z</time>
      </trkpt>
      <trkpt lat="44.24623" lon="5.70717">
        <ele>677</ele>
        <time>2019-03-27T15:46:40Z</time>
      </trkpt>
      <trkpt lat="44.24625" lon="5.70721">
        <ele>677</ele>
        <time>2019-03-27T15:46:41Z</time>
      </trkpt>
      <trkpt lat="44.24627" lon="5.70726">
        <ele>677</ele>
        <time>2019-03-27T15:46:42Z</time>
      </trkpt>
      <trkpt lat="44.2463" lon="5.70731">
        <ele>677</ele>
        <time>2019-03-27T15:46:43Z</time>
      </trkpt>
      <trkpt lat="44.24632" lon="5.70736">
        <ele>677</ele>
        <time>2019-03-27T15:46:44Z</time>
      </trkpt>
      <trkpt lat="44.24633" lon="5.70741">
        <ele>677</ele>
        <time>2019-03-27T15:46:45Z</time>
      </trkpt>
      <trkpt lat="44.24635" lon="5.70746">
        <ele>677</ele>
        <time>2019-03-27T15:46:46Z</time>
      </trkpt>
      <trkpt lat="44.24637" lon="5.70751">
        <ele>677</ele>
        <time>2019-03-27T15:46:47Z</time>
      </trkpt>
      <trkpt lat="44.24638" lon="5.70756">
        <ele>677</ele>
        <time>2019-03-27T15:46:48Z</time>
      </trkpt>
      <trkpt lat="44.2464" lon="5.70761">
        <ele>677</ele>
        <time>2019-03-27T15:46:49Z</time>
      </trkpt>
      <trkpt lat="44.24643" lon="5.70766">
        <ele>678</ele>
        <time>2019-03-27T15:46:50Z</time>
      </trkpt>
      <trkpt lat="44.24644" lon="5.70771">
        <ele>678</ele>
        <time>2019-03-27T15:46:51Z</time>
      </trkpt>
      <trkpt lat="44.24646" lon="5.70776">
        <ele>678</ele>
        <time>2019-03-27T15:46:52Z</time>
      </trkpt>
      <trkpt lat="44.24649" lon="5.70781">
        <ele>678</ele>
        <time>2019-03-27T15:46:53Z</time>
      </trkpt>
      <trkpt lat="44.24651" lon="5.70786">
        <ele>678</ele>
        <time>2019-03-27T15:46:54Z</time>
      </trkpt>
      <trkpt lat="44.24653" lon="5.70791">
        <ele>678</ele>
        <time>2019-03-27T15:46:55Z</time>
      </trkpt>
      <trkpt lat="44.24656" lon="5.70796">
        <ele>678</ele>
        <time>2019-03-27T15:46:56Z</time>
      </trkpt>
      <trkpt lat="44.24659" lon="5.70801">
        <ele>678</ele>
        <time>2019-03-27T15:46:57Z</time>
      </trkpt>
      <trkpt lat="44.24662" lon="5.70807">
        <ele>678</ele>
        <time>2019-03-27T15:46:58Z</time>
      </trkpt>
      <trkpt lat="44.24666" lon="5.70812">
        <ele>678</ele>
        <time>2019-03-27T15:46:59Z</time>
      </trkpt>
      <trkpt lat="44.2467" lon="5.70816">
        <ele>678</ele>
        <time>2019-03-27T15:47:00Z</time>
      </trkpt>
      <trkpt lat="44.24676" lon="5.70821">
        <ele>678</ele>
        <time>2019-03-27T15:47:01Z</time>
      </trkpt>
      <trkpt lat="44.2468" lon="5.70825">
        <ele>678</ele>
        <time>2019-03-27T15:47:02Z</time>
      </trkpt>
      <trkpt lat="44.24686" lon="5.70829">
        <ele>678</ele>
        <time>2019-03-27T15:47:03Z</time>
      </trkpt>
      <trkpt lat="44.24691" lon="5.70832">
        <ele>678</ele>
        <time>2019-03-27T15:47:04Z</time>
      </trkpt>
      <trkpt lat="44.24697" lon="5.70836">
        <ele>678</ele>
        <time>2019-03-27T15:47:05Z</time>
      </trkpt>
      <trkpt lat="44.24703" lon="5.70839">
        <ele>678</ele>
        <time>2019-03-27T15:47:06Z</time>
      </trkpt>
      <trkpt lat="44.24709" lon="5.70842">
        <ele>678</ele>
        <time>2019-03-27T15:47:07Z</time>
      </trkpt>
      <trkpt lat="44.24715" lon="5.70846">
        <ele>678</ele>
        <time>2019-03-27T15:47:08Z</time>
      </trkpt>
      <trkpt lat="44.24722" lon="5.7085">
        <ele>678</ele>
        <time>2019-03-27T15:47:09Z</time>
      </trkpt>
      <trkpt lat="44.24728" lon="5.70854">
        <ele>678</ele>
        <time>2019-03-27T15:47:10Z</time>
      </trkpt>
      <trkpt lat="44.24735" lon="5.70858">
        <ele>678</ele>
        <time>2019-03-27T15:47:11Z</time>
      </trkpt>
      <trkpt lat="44.24741" lon="5.70863">
        <ele>678</ele>
        <time>2019-03-27T15:47:12Z</time>
      </trkpt>
      <trkpt lat="44.24748" lon="5.70867">
        <ele>678</ele>
        <time>2019-03-27T15:47:13Z</time>
      </trkpt>
      <trkpt lat="44.24755" lon="5.70872">
        <ele>678</ele>
        <time>2019-03-27T15:47:14Z</time>
      </trkpt>
      <trkpt lat="44.24762" lon="5.70877">
        <ele>678</ele>
        <time>2019-03-27T15:47:15Z</time>
      </trkpt>
      <trkpt lat="44.24769" lon="5.70883">
        <ele>678</ele>
        <time>2019-03-27T15:47:16Z</time>
      </trkpt>
      <trkpt lat="44.24776" lon="5.70888">
        <ele>678</ele>
        <time>2019-03-27T15:47:17Z</time>
      </trkpt>
      <trkpt lat="44.24782" lon="5.70894">
        <ele>678</ele>
        <time>2019-03-27T15:47:18Z</time>
      </trkpt>
      <trkpt lat="44.24789" lon="5.70901">
        <ele>678</ele>
        <time>2019-03-27T15:47:19Z</time>
      </trkpt>
      <trkpt lat="44.24794" lon="5.70907">
        <ele>678</ele>
        <time>2019-03-27T15:47:20Z</time>
      </trkpt>
      <trkpt lat="44.248" lon="5.70914">
        <ele>678</ele>
        <time>2019-03-27T15:47:21Z</time>
      </trkpt>
      <trkpt lat="44.24806" lon="5.70921">
        <ele>678</ele>
        <time>2019-03-27T15:47:22Z</time>
      </trkpt>
      <trkpt lat="44.24811" lon="5.70928">
        <ele>678</ele>
        <time>2019-03-27T15:47:23Z</time>
      </trkpt>
      <trkpt lat="44.24817" lon="5.70934">
        <ele>678</ele>
        <time>2019-03-27T15:47:24Z</time>
      </trkpt>
      <trkpt lat="44.24823" lon="5.7094">
        <ele>678</ele>
        <time>2019-03-27T15:47:25Z</time>
      </trkpt>
      <trkpt lat="44.24828" lon="5.70947">
        <ele>678</ele>
        <time>2019-03-27T15:47:26Z</time>
      </trkpt>
      <trkpt lat="44.24834" lon="5.70953">
        <ele>678</ele>
        <time>2019-03-27T15:47:27Z</time>
      </trkpt>
      <trkpt lat="44.24839" lon="5.70959">
        <ele>678</ele>
        <time>2019-03-27T15:47:28Z</time>
      </trkpt>
      <trkpt lat="44.24845" lon="5.70965">
        <ele>678</ele>
        <time>2019-03-27T15:47:29Z</time>
      </trkpt>
      <trkpt lat="44.2485" lon="5.70971">
        <ele>678</ele>
        <time>2019-03-27T15:47:30Z</time>
      </trkpt>
      <trkpt lat="44.24856" lon="5.70978">
        <ele>678</ele>
        <time>2019-03-27T15:47:31Z</time>
      </trkpt>
      <trkpt lat="44.24862" lon="5.70984">
        <ele>678</ele>
        <time>2019-03-27T15:47:32Z</time>
      </trkpt>
      <trkpt lat="44.24868" lon="5.7099">
        <ele>678</ele>
        <time>2019-03-27T15:47:33Z</time>
      </trkpt>
      <trkpt lat="44.24873" lon="5.70997">
        <ele>678</ele>
        <time>2019-03-27T15:47:34Z</time>
      </trkpt>
      <trkpt lat="44.24879" lon="5.71004">
        <ele>678</ele>
        <time>2019-03-27T15:47:35Z</time>
      </trkpt>
      <trkpt lat="44.24886" lon="5.71011">
        <ele>678</ele>
        <time>2019-03-27T15:47:36Z</time>
      </trkpt>
      <trkpt lat="44.24892" lon="5.71018">
        <ele>678</ele>
        <time>2019-03-27T15:47:37Z</time>
      </trkpt>
      <trkpt lat="44.24897" lon="5.71025">
        <ele>678</ele>
        <time>2019-03-27T15:47:38Z</time>
      </trkpt>
      <trkpt lat="44.24903" lon="5.71033">
        <ele>678</ele>
        <time>2019-03-27T15:47:39Z</time>
      </trkpt>
      <trkpt lat="44.24908" lon="5.71041">
        <ele>678</ele>
        <time>2019-03-27T15:47:40Z</time>
      </trkpt>
      <trkpt lat="44.24914" lon="5.71049">
        <ele>678</ele>
        <time>2019-03-27T15:47:41Z</time>
      </trkpt>
      <trkpt lat="44.24919" lon="5.71057">
        <ele>678</ele>
        <time>2019-03-27T15:47:42Z</time>
      </trkpt>
      <trkpt lat="44.24925" lon="5.71065">
        <ele>678</ele>
        <time>2019-03-27T15:47:43Z</time>
      </trkpt>
      <trkpt lat="44.2493" lon="5.71073">
        <ele>678</ele>
        <time>2019-03-27T15:47:44Z</time>
      </trkpt>
      <trkpt lat="44.24936" lon="5.71081">
        <ele>678</ele>
        <time>2019-03-27T15:47:45Z</time>
      </trkpt>
      <trkpt lat="44.24942" lon="5.71089">
        <ele>678</ele>
        <time>2019-03-27T15:47:46Z</time>
      </trkpt>
      <trkpt lat="44.24949" lon="5.71097">
        <ele>678</ele>
        <time>2019-03-27T15:47:47Z</time>
      </trkpt>
      <trkpt lat="44.24955" lon="5.71106">
        <ele>678</ele>
        <time>2019-03-27T15:47:48Z</time>
      </trkpt>
      <trkpt lat="44.24961" lon="5.71115">
        <ele>677</ele>
        <time>2019-03-27T15:47:49Z</time>
      </trkpt>
      <trkpt lat="44.24967" lon="5.71124">
        <ele>677</ele>
        <time>2019-03-27T15:47:50Z</time>
      </trkpt>
      <trkpt lat="44.24973" lon="5.71133">
        <ele>676</ele>
        <time>2019-03-27T15:47:51Z</time>
      </trkpt>
      <trkpt lat="44.2498" lon="5.71141">
        <ele>676</ele>
        <time>2019-03-27T15:47:52Z</time>
      </trkpt>
      <trkpt lat="44.24987" lon="5.7115">
        <ele>675</ele>
        <time>2019-03-27T15:47:53Z</time>
      </trkpt>
      <trkpt lat="44.24993" lon="5.7116">
        <ele>675</ele>
        <time>2019-03-27T15:47:54Z</time>
      </trkpt>
      <trkpt lat="44.25" lon="5.71169">
        <ele>674</ele>
        <time>2019-03-27T15:47:55Z</time>
      </trkpt>
      <trkpt lat="44.25007" lon="5.71178">
        <ele>674</ele>
        <time>2019-03-27T15:47:56Z</time>
      </trkpt>
      <trkpt lat="44.25013" lon="5.71187">
        <ele>674</ele>
        <time>2019-03-27T15:47:57Z</time>
      </trkpt>
      <trkpt lat="44.25019" lon="5.71196">
        <ele>673</ele>
        <time>2019-03-27T15:47:58Z</time>
      </trkpt>
      <trkpt lat="44.25024" lon="5.71206">
        <ele>673</ele>
        <time>2019-03-27T15:47:59Z</time>
      </trkpt>
      <trkpt lat="44.2503" lon="5.71215">
        <ele>672</ele>
        <time>2019-03-27T15:48:00Z</time>
      </trkpt>
      <trkpt lat="44.25036" lon="5.71225">
        <ele>671</ele>
        <time>2019-03-27T15:48:01Z</time>
      </trkpt>
      <trkpt lat="44.2504" lon="5.71235">
        <ele>671</ele>
        <time>2019-03-27T15:48:02Z</time>
      </trkpt>
      <trkpt lat="44.25044" lon="5.71246">
        <ele>670</ele>
        <time>2019-03-27T15:48:03Z</time>
      </trkpt>
      <trkpt lat="44.25048" lon="5.71257">
        <ele>669</ele>
        <time>2019-03-27T15:48:04Z</time>
      </trkpt>
      <trkpt lat="44.25052" lon="5.71269">
        <ele>669</ele>
        <time>2019-03-27T15:48:05Z</time>
      </trkpt>
      <trkpt lat="44.25056" lon="5.71281">
        <ele>669</ele>
        <time>2019-03-27T15:48:06Z</time>
      </trkpt>
      <trkpt lat="44.25061" lon="5.71292">
        <ele>668</ele>
        <time>2019-03-27T15:48:07Z</time>
      </trkpt>
      <trkpt lat="44.25066" lon="5.71304">
        <ele>668</ele>
        <time>2019-03-27T15:48:08Z</time>
      </trkpt>
      <trkpt lat="44.25071" lon="5.71316">
        <ele>667</ele>
        <time>2019-03-27T15:48:09Z</time>
      </trkpt>
      <trkpt lat="44.25077" lon="5.71328">
        <ele>667</ele>
        <time>2019-03-27T15:48:10Z</time>
      </trkpt>
      <trkpt lat="44.25082" lon="5.7134">
        <ele>667</ele>
        <time>2019-03-27T15:48:11Z</time>
      </trkpt>
      <trkpt lat="44.25087" lon="5.71351">
        <ele>667</ele>
        <time>2019-03-27T15:48:12Z</time>
      </trkpt>
      <trkpt lat="44.25092" lon="5.71363">
        <ele>666</ele>
        <time>2019-03-27T15:48:13Z</time>
      </trkpt>
      <trkpt lat="44.25096" lon="5.71374">
        <ele>666</ele>
        <time>2019-03-27T15:48:14Z</time>
      </trkpt>
      <trkpt lat="44.251" lon="5.71385">
        <ele>666</ele>
        <time>2019-03-27T15:48:15Z</time>
      </trkpt>
      <trkpt lat="44.25105" lon="5.71395">
        <ele>666</ele>
        <time>2019-03-27T15:48:16Z</time>
      </trkpt>
      <trkpt lat="44.25108" lon="5.71405">
        <ele>666</ele>
        <time>2019-03-27T15:48:17Z</time>
      </trkpt>
      <trkpt lat="44.25112" lon="5.71414">
        <ele>666</ele>
        <time>2019-03-27T15:48:18Z</time>
      </trkpt>
      <trkpt lat="44.25116" lon="5.71421">
        <ele>666</ele>
        <time>2019-03-27T15:48:19Z</time>
      </trkpt>
      <trkpt lat="44.25119" lon="5.71429">
        <ele>666</ele>
        <time>2019-03-27T15:48:20Z</time>
      </trkpt>
      <trkpt lat="44.25124" lon="5.71435">
        <ele>666</ele>
        <time>2019-03-27T15:48:21Z</time>
      </trkpt>
      <trkpt lat="44.25129" lon="5.7144">
        <ele>666</ele>
        <time>2019-03-27T15:48:22Z</time>
      </trkpt>
      <trkpt lat="44.25133" lon="5.71445">
        <ele>666</ele>
        <time>2019-03-27T15:48:23Z</time>
      </trkpt>
      <trkpt lat="44.25137" lon="5.71449">
        <ele>666</ele>
        <time>2019-03-27T15:48:24Z</time>
      </trkpt>
      <trkpt lat="44.25142" lon="5.71454">
        <ele>666</ele>
        <time>2019-03-27T15:48:25Z</time>
      </trkpt>
      <trkpt lat="44.25146" lon="5.71458">
        <ele>666</ele>
        <time>2019-03-27T15:48:26Z</time>
      </trkpt>
      <trkpt lat="44.2515" lon="5.71463">
        <ele>666</ele>
        <time>2019-03-27T15:48:27Z</time>
      </trkpt>
      <trkpt lat="44.25155" lon="5.71469">
        <ele>666</ele>
        <time>2019-03-27T15:48:28Z</time>
      </trkpt>
      <trkpt lat="44.25159" lon="5.71474">
        <ele>666</ele>
        <time>2019-03-27T15:48:29Z</time>
      </trkpt>
      <trkpt lat="44.25164" lon="5.71479">
        <ele>666</ele>
        <time>2019-03-27T15:48:30Z</time>
      </trkpt>
      <trkpt lat="44.25169" lon="5.71484">
        <ele>666</ele>
        <time>2019-03-27T15:48:31Z</time>
      </trkpt>
      <trkpt lat="44.25174" lon="5.71489">
        <ele>666</ele>
        <time>2019-03-27T15:48:32Z</time>
      </trkpt>
      <trkpt lat="44.25179" lon="5.71494">
        <ele>666</ele>
        <time>2019-03-27T15:48:33Z</time>
      </trkpt>
      <trkpt lat="44.25184" lon="5.71498">
        <ele>666</ele>
        <time>2019-03-27T15:48:34Z</time>
      </trkpt>
      <trkpt lat="44.25189" lon="5.71503">
        <ele>666</ele>
        <time>2019-03-27T15:48:35Z</time>
      </trkpt>
      <trkpt lat="44.25194" lon="5.71509">
        <ele>666</ele>
        <time>2019-03-27T15:48:36Z</time>
      </trkpt>
      <trkpt lat="44.25199" lon="5.71514">
        <ele>666</ele>
        <time>2019-03-27T15:48:37Z</time>
      </trkpt>
      <trkpt lat="44.25204" lon="5.71519">
        <ele>666</ele>
        <time>2019-03-27T15:48:38Z</time>
      </trkpt>
      <trkpt lat="44.25209" lon="5.71524">
        <ele>666</ele>
        <time>2019-03-27T15:48:39Z</time>
      </trkpt>
      <trkpt lat="44.25214" lon="5.71529">
        <ele>666</ele>
        <time>2019-03-27T15:48:40Z</time>
      </trkpt>
      <trkpt lat="44.25219" lon="5.71534">
        <ele>666</ele>
        <time>2019-03-27T15:48:41Z</time>
      </trkpt>
      <trkpt lat="44.25224" lon="5.71539">
        <ele>666</ele>
        <time>2019-03-27T15:48:42Z</time>
      </trkpt>
      <trkpt lat="44.25229" lon="5.71544">
        <ele>666</ele>
        <time>2019-03-27T15:48:43Z</time>
      </trkpt>
      <trkpt lat="44.25235" lon="5.7155">
        <ele>666</ele>
        <time>2019-03-27T15:48:44Z</time>
      </trkpt>
      <trkpt lat="44.2524" lon="5.71555">
        <ele>666</ele>
        <time>2019-03-27T15:48:45Z</time>
      </trkpt>
      <trkpt lat="44.25245" lon="5.7156">
        <ele>666</ele>
        <time>2019-03-27T15:48:46Z</time>
      </trkpt>
      <trkpt lat="44.2525" lon="5.71565">
        <ele>666</ele>
        <time>2019-03-27T15:48:47Z</time>
      </trkpt>
      <trkpt lat="44.25255" lon="5.7157">
        <ele>666</ele>
        <time>2019-03-27T15:48:48Z</time>
      </trkpt>
      <trkpt lat="44.2526" lon="5.71576">
        <ele>666</ele>
        <time>2019-03-27T15:48:49Z</time>
      </trkpt>
      <trkpt lat="44.25266" lon="5.71582">
        <ele>666</ele>
        <time>2019-03-27T15:48:50Z</time>
      </trkpt>
      <trkpt lat="44.25271" lon="5.71588">
        <ele>666</ele>
        <time>2019-03-27T15:48:51Z</time>
      </trkpt>
      <trkpt lat="44.25277" lon="5.71594">
        <ele>666</ele>
        <time>2019-03-27T15:48:52Z</time>
      </trkpt>
      <trkpt lat="44.25282" lon="5.716">
        <ele>666</ele>
        <time>2019-03-27T15:48:53Z</time>
      </trkpt>
      <trkpt lat="44.25288" lon="5.71607">
        <ele>666</ele>
        <time>2019-03-27T15:48:54Z</time>
      </trkpt>
      <trkpt lat="44.25293" lon="5.71614">
        <ele>666</ele>
        <time>2019-03-27T15:48:55Z</time>
      </trkpt>
      <trkpt lat="44.25299" lon="5.7162">
        <ele>666</ele>
        <time>2019-03-27T15:48:56Z</time>
      </trkpt>
      <trkpt lat="44.25304" lon="5.71627">
        <ele>666</ele>
        <time>2019-03-27T15:48:57Z</time>
      </trkpt>
      <trkpt lat="44.2531" lon="5.71633">
        <ele>666</ele>
        <time>2019-03-27T15:48:58Z</time>
      </trkpt>
      <trkpt lat="44.25315" lon="5.7164">
        <ele>666</ele>
        <time>2019-03-27T15:48:59Z</time>
      </trkpt>
      <trkpt lat="44.2532" lon="5.71646">
        <ele>666</ele>
        <time>2019-03-27T15:49:00Z</time>
      </trkpt>
      <trkpt lat="44.25325" lon="5.71653">
        <ele>666</ele>
        <time>2019-03-27T15:49:01Z</time>
      </trkpt>
      <trkpt lat="44.2533" lon="5.71659">
        <ele>666</ele>
        <time>2019-03-27T15:49:02Z</time>
      </trkpt>
      <trkpt lat="44.25336" lon="5.71665">
        <ele>666</ele>
        <time>2019-03-27T15:49:03Z</time>
      </trkpt>
      <trkpt lat="44.25341" lon="5.7167">
        <ele>666</ele>
        <time>2019-03-27T15:49:04Z</time>
      </trkpt>
      <trkpt lat="44.25347" lon="5.71676">
        <ele>666</ele>
        <time>2019-03-27T15:49:05Z</time>
      </trkpt>
      <trkpt lat="44.25352" lon="5.71681">
        <ele>666</ele>
        <time>2019-03-27T15:49:06Z</time>
      </trkpt>
      <trkpt lat="44.25357" lon="5.71687">
        <ele>666</ele>
        <time>2019-03-27T15:49:07Z</time>
      </trkpt>
      <trkpt lat="44.25363" lon="5.71692">
        <ele>666</ele>
        <time>2019-03-27T15:49:08Z</time>
      </trkpt>
      <trkpt lat="44.25368" lon="5.71696">
        <ele>666</ele>
        <time>2019-03-27T15:49:09Z</time>
      </trkpt>
      <trkpt lat="44.25374" lon="5.71699">
        <ele>666</ele>
        <time>2019-03-27T15:49:10Z</time>
      </trkpt>
      <trkpt lat="44.2538" lon="5.71703">
        <ele>666</ele>
        <time>2019-03-27T15:49:11Z</time>
      </trkpt>
      <trkpt lat="44.25385" lon="5.71706">
        <ele>666</ele>
        <time>2019-03-27T15:49:12Z</time>
      </trkpt>
      <trkpt lat="44.25391" lon="5.71708">
        <ele>666</ele>
        <time>2019-03-27T15:49:13Z</time>
      </trkpt>
      <trkpt lat="44.25397" lon="5.7171">
        <ele>666</ele>
        <time>2019-03-27T15:49:14Z</time>
      </trkpt>
      <trkpt lat="44.25403" lon="5.71713">
        <ele>666</ele>
        <time>2019-03-27T15:49:15Z</time>
      </trkpt>
      <trkpt lat="44.25409" lon="5.71716">
        <ele>666</ele>
        <time>2019-03-27T15:49:16Z</time>
      </trkpt>
      <trkpt lat="44.25415" lon="5.71719">
        <ele>666</ele>
        <time>2019-03-27T15:49:17Z</time>
      </trkpt>
      <trkpt lat="44.25421" lon="5.71722">
        <ele>666</ele>
        <time>2019-03-27T15:49:18Z</time>
      </trkpt>
      <trkpt lat="44.25426" lon="5.71725">
        <ele>666</ele>
        <time>2019-03-27T15:49:19Z</time>
      </trkpt>
      <trkpt lat="44.25432" lon="5.71728">
        <ele>666</ele>
        <time>2019-03-27T15:49:20Z</time>
      </trkpt>
      <trkpt lat="44.25437" lon="5.71732">
        <ele>666</ele>
        <time>2019-03-27T15:49:21Z</time>
      </trkpt>
      <trkpt lat="44.25443" lon="5.71736">
        <ele>666</ele>
        <time>2019-03-27T15:49:22Z</time>
      </trkpt>
      <trkpt lat="44.25449" lon="5.7174">
        <ele>666</ele>
        <time>2019-03-27T15:49:23Z</time>
      </trkpt>
      <trkpt lat="44.25454" lon="5.71744">
        <ele>666</ele>
        <time>2019-03-27T15:49:24Z</time>
      </trkpt>
      <trkpt lat="44.2546" lon="5.71747">
        <ele>666</ele>
        <time>2019-03-27T15:49:25Z</time>
      </trkpt>
      <trkpt lat="44.25466" lon="5.71751">
        <ele>666</ele>
        <time>2019-03-27T15:49:26Z</time>
      </trkpt>
      <trkpt lat="44.25472" lon="5.71755">
        <ele>666</ele>
        <time>2019-03-27T15:49:27Z</time>
      </trkpt>
      <trkpt lat="44.25478" lon="5.71758">
        <ele>666</ele>
        <time>2019-03-27T15:49:28Z</time>
      </trkpt>
      <trkpt lat="44.25484" lon="5.71762">
        <ele>666</ele>
        <time>2019-03-27T15:49:29Z</time>
      </trkpt>
      <trkpt lat="44.2549" lon="5.71765">
        <ele>666</ele>
        <time>2019-03-27T15:49:30Z</time>
      </trkpt>
      <trkpt lat="44.25496" lon="5.71768">
        <ele>666</ele>
        <time>2019-03-27T15:49:31Z</time>
      </trkpt>
      <trkpt lat="44.25502" lon="5.71771">
        <ele>666</ele>
        <time>2019-03-27T15:49:32Z</time>
      </trkpt>
      <trkpt lat="44.25508" lon="5.71775">
        <ele>666</ele>
        <time>2019-03-27T15:49:33Z</time>
      </trkpt>
      <trkpt lat="44.25514" lon="5.71778">
        <ele>666</ele>
        <time>2019-03-27T15:49:34Z</time>
      </trkpt>
      <trkpt lat="44.2552" lon="5.71782">
        <ele>666</ele>
        <time>2019-03-27T15:49:35Z</time>
      </trkpt>
      <trkpt lat="44.25525" lon="5.71787">
        <ele>666</ele>
        <time>2019-03-27T15:49:36Z</time>
      </trkpt>
      <trkpt lat="44.25531" lon="5.71791">
        <ele>666</ele>
        <time>2019-03-27T15:49:37Z</time>
      </trkpt>
      <trkpt lat="44.25537" lon="5.71796">
        <ele>666</ele>
        <time>2019-03-27T15:49:38Z</time>
      </trkpt>
      <trkpt lat="44.25542" lon="5.718">
        <ele>666</ele>
        <time>2019-03-27T15:49:39Z</time>
      </trkpt>
      <trkpt lat="44.25548" lon="5.71805">
        <ele>666</ele>
        <time>2019-03-27T15:49:40Z</time>
      </trkpt>
      <trkpt lat="44.25554" lon="5.7181">
        <ele>666</ele>
        <time>2019-03-27T15:49:41Z</time>
      </trkpt>
      <trkpt lat="44.2556" lon="5.71816">
        <ele>666</ele>
        <time>2019-03-27T15:49:42Z</time>
      </trkpt>
      <trkpt lat="44.25565" lon="5.71821">
        <ele>666</ele>
        <time>2019-03-27T15:49:43Z</time>
      </trkpt>
      <trkpt lat="44.25571" lon="5.71827">
        <ele>666</ele>
        <time>2019-03-27T15:49:44Z</time>
      </trkpt>
      <trkpt lat="44.25576" lon="5.71832">
        <ele>666</ele>
        <time>2019-03-27T15:49:45Z</time>
      </trkpt>
      <trkpt lat="44.25582" lon="5.71837">
        <ele>666</ele>
        <time>2019-03-27T15:49:46Z</time>
      </trkpt>
      <trkpt lat="44.25587" lon="5.71842">
        <ele>666</ele>
        <time>2019-03-27T15:49:47Z</time>
      </trkpt>
      <trkpt lat="44.25593" lon="5.71848">
        <ele>666</ele>
        <time>2019-03-27T15:49:48Z</time>
      </trkpt>
      <trkpt lat="44.25599" lon="5.71853">
        <ele>666</ele>
        <time>2019-03-27T15:49:49Z</time>
      </trkpt>
      <trkpt lat="44.25605" lon="5.71859">
        <ele>666</ele>
        <time>2019-03-27T15:49:50Z</time>
      </trkpt>
      <trkpt lat="44.2561" lon="5.71864">
        <ele>666</ele>
        <time>2019-03-27T15:49:51Z</time>
      </trkpt>
      <trkpt lat="44.25616" lon="5.7187">
        <ele>666</ele>
        <time>2019-03-27T15:49:52Z</time>
      </trkpt>
      <trkpt lat="44.25622" lon="5.71876">
        <ele>666</ele>
        <time>2019-03-27T15:49:53Z</time>
      </trkpt>
      <trkpt lat="44.25628" lon="5.71881">
        <ele>666</ele>
        <time>2019-03-27T15:49:54Z</time>
      </trkpt>
      <trkpt lat="44.25634" lon="5.71887">
        <ele>666</ele>
        <time>2019-03-27T15:49:55Z</time>
      </trkpt>
      <trkpt lat="44.25641" lon="5.71892">
        <ele>666</ele>
        <time>2019-03-27T15:49:56Z</time>
      </trkpt>
      <trkpt lat="44.25647" lon="5.71897">
        <ele>666</ele>
        <time>2019-03-27T15:49:57Z</time>
      </trkpt>
      <trkpt lat="44.25654" lon="5.71901">
        <ele>666</ele>
        <time>2019-03-27T15:49:58Z</time>
      </trkpt>
      <trkpt lat="44.2566" lon="5.71904">
        <ele>666</ele>
        <time>2019-03-27T15:49:59Z</time>
      </trkpt>
      <trkpt lat="44.25667" lon="5.71907">
        <ele>666</ele>
        <time>2019-03-27T15:50:00Z</time>
      </trkpt>
      <trkpt lat="44.25674" lon="5.7191">
        <ele>666</ele>
        <time>2019-03-27T15:50:01Z</time>
      </trkpt>
      <trkpt lat="44.25681" lon="5.71912">
        <ele>666</ele>
        <time>2019-03-27T15:50:02Z</time>
      </trkpt>
      <trkpt lat="44.25688" lon="5.71916">
        <ele>666</ele>
        <time>2019-03-27T15:50:03Z</time>
      </trkpt>
      <trkpt lat="44.25694" lon="5.71919">
        <ele>666</ele>
        <time>2019-03-27T15:50:04Z</time>
      </trkpt>
      <trkpt lat="44.257" lon="5.71923">
        <ele>666</ele>
        <time>2019-03-27T15:50:05Z</time>
      </trkpt>
      <trkpt lat="44.25706" lon="5.71927">
        <ele>666</ele>
        <time>2019-03-27T15:50:06Z</time>
      </trkpt>
      <trkpt lat="44.25712" lon="5.71932">
        <ele>666</ele>
        <time>2019-03-27T15:50:07Z</time>
      </trkpt>
      <trkpt lat="44.25718" lon="5.71938">
        <ele>666</ele>
        <time>2019-03-27T15:50:08Z</time>
      </trkpt>
      <trkpt lat="44.25724" lon="5.71943">
        <ele>666</ele>
        <time>2019-03-27T15:50:09Z</time>
      </trkpt>
      <trkpt lat="44.2573" lon="5.71949">
        <ele>666</ele>
        <time>2019-03-27T15:50:10Z</time>
      </trkpt>
      <trkpt lat="44.25736" lon="5.71954">
        <ele>666</ele>
        <time>2019-03-27T15:50:11Z</time>
      </trkpt>
      <trkpt lat="44.25742" lon="5.7196">
        <ele>666</ele>
        <time>2019-03-27T15:50:12Z</time>
      </trkpt>
      <trkpt lat="44.25748" lon="5.71965">
        <ele>666</ele>
        <time>2019-03-27T15:50:13Z</time>
      </trkpt>
      <trkpt lat="44.25754" lon="5.7197">
        <ele>666</ele>
        <time>2019-03-27T15:50:14Z</time>
      </trkpt>
      <trkpt lat="44.2576" lon="5.71976">
        <ele>666</ele>
        <time>2019-03-27T15:50:15Z</time>
      </trkpt>
      <trkpt lat="44.25766" lon="5.7198">
        <ele>666</ele>
        <time>2019-03-27T15:50:16Z</time>
      </trkpt>
      <trkpt lat="44.25772" lon="5.71985">
        <ele>666</ele>
        <time>2019-03-27T15:50:17Z</time>
      </trkpt>
      <trkpt lat="44.25779" lon="5.71989">
        <ele>666</ele>
        <time>2019-03-27T15:50:18Z</time>
      </trkpt>
      <trkpt lat="44.25785" lon="5.71994">
        <ele>666</ele>
        <time>2019-03-27T15:50:19Z</time>
      </trkpt>
      <trkpt lat="44.25792" lon="5.71998">
        <ele>666</ele>
        <time>2019-03-27T15:50:20Z</time>
      </trkpt>
      <trkpt lat="44.25799" lon="5.72003">
        <ele>666</ele>
        <time>2019-03-27T15:50:21Z</time>
      </trkpt>
      <trkpt lat="44.25806" lon="5.72007">
        <ele>666</ele>
        <time>2019-03-27T15:50:22Z</time>
      </trkpt>
      <trkpt lat="44.25812" lon="5.72012">
        <ele>666</ele>
        <time>2019-03-27T15:50:23Z</time>
      </trkpt>
      <trkpt lat="44.25819" lon="5.72016">
        <ele>666</ele>
        <time>2019-03-27T15:50:24Z</time>
      </trkpt>
      <trkpt lat="44.25826" lon="5.72021">
        <ele>666</ele>
        <time>2019-03-27T15:50:25Z</time>
      </trkpt>
      <trkpt lat="44.25832" lon="5.72025">
        <ele>666</ele>
        <time>2019-03-27T15:50:26Z</time>
      </trkpt>
      <trkpt lat="44.25839" lon="5.7203">
        <ele>666</ele>
        <time>2019-03-27T15:50:27Z</time>
      </trkpt>
      <trkpt lat="44.25845" lon="5.72035">
        <ele>666</ele>
        <time>2019-03-27T15:50:28Z</time>
      </trkpt>
      <trkpt lat="44.25852" lon="5.72039">
        <ele>666</ele>
        <time>2019-03-27T15:50:29Z</time>
      </trkpt>
      <trkpt lat="44.25858" lon="5.72044">
        <ele>666</ele>
        <time>2019-03-27T15:50:30Z</time>
      </trkpt>
      <trkpt lat="44.25865" lon="5.72048">
        <ele>666</ele>
        <time>2019-03-27T15:50:31Z</time>
      </trkpt>
      <trkpt lat="44.25871" lon="5.72052">
        <ele>665</ele>
        <time>2019-03-27T15:50:32Z</time>
      </trkpt>
      <trkpt lat="44.25877" lon="5.72056">
        <ele>665</ele>
        <time>2019-03-27T15:50:33Z</time>
      </trkpt>
      <trkpt lat="44.25883" lon="5.72061">
        <ele>665</ele>
        <time>2019-03-27T15:50:34Z</time>
      </trkpt>
      <trkpt lat="44.25889" lon="5.72066">
        <ele>665</ele>
        <time>2019-03-27T15:50:35Z</time>
      </trkpt>
      <trkpt lat="44.25895" lon="5.72073">
        <ele>665</ele>
        <time>2019-03-27T15:50:36Z</time>
      </trkpt>
      <trkpt lat="44.25901" lon="5.72079">
        <ele>665</ele>
        <time>2019-03-27T15:50:37Z</time>
      </trkpt>
      <trkpt lat="44.25906" lon="5.72086">
        <ele>665</ele>
        <time>2019-03-27T15:50:38Z</time>
      </trkpt>
      <trkpt lat="44.25911" lon="5.72093">
        <ele>665</ele>
        <time>2019-03-27T15:50:39Z</time>
      </trkpt>
      <trkpt lat="44.25916" lon="5.72101">
        <ele>665</ele>
        <time>2019-03-27T15:50:40Z</time>
      </trkpt>
      <trkpt lat="44.25921" lon="5.72108">
        <ele>665</ele>
        <time>2019-03-27T15:50:41Z</time>
      </trkpt>
      <trkpt lat="44.25925" lon="5.72115">
        <ele>665</ele>
        <time>2019-03-27T15:50:42Z</time>
      </trkpt>
      <trkpt lat="44.2593" lon="5.72122">
        <ele>665</ele>
        <time>2019-03-27T15:50:43Z</time>
      </trkpt>
      <trkpt lat="44.25935" lon="5.72129">
        <ele>665</ele>
        <time>2019-03-27T15:50:44Z</time>
      </trkpt>
      <trkpt lat="44.25939" lon="5.72136">
        <ele>665</ele>
        <time>2019-03-27T15:50:45Z</time>
      </trkpt>
      <trkpt lat="44.25943" lon="5.72143">
        <ele>665</ele>
        <time>2019-03-27T15:50:46Z</time>
      </trkpt>
      <trkpt lat="44.25947" lon="5.7215">
        <ele>665</ele>
        <time>2019-03-27T15:50:47Z</time>
      </trkpt>
      <trkpt lat="44.25951" lon="5.72158">
        <ele>665</ele>
        <time>2019-03-27T15:50:48Z</time>
      </trkpt>
      <trkpt lat="44.25955" lon="5.72166">
        <ele>665</ele>
        <time>2019-03-27T15:50:49Z</time>
      </trkpt>
      <trkpt lat="44.25958" lon="5.72174">
        <ele>665</ele>
        <time>2019-03-27T15:50:50Z</time>
      </trkpt>
      <trkpt lat="44.25962" lon="5.72182">
        <ele>665</ele>
        <time>2019-03-27T15:50:51Z</time>
      </trkpt>
      <trkpt lat="44.25966" lon="5.7219">
        <ele>665</ele>
        <time>2019-03-27T15:50:52Z</time>
      </trkpt>
      <trkpt lat="44.25969" lon="5.72198">
        <ele>665</ele>
        <time>2019-03-27T15:50:53Z</time>
      </trkpt>
      <trkpt lat="44.25973" lon="5.72205">
        <ele>665</ele>
        <time>2019-03-27T15:50:54Z</time>
      </trkpt>
      <trkpt lat="44.25977" lon="5.72213">
        <ele>665</ele>
        <time>2019-03-27T15:50:55Z</time>
      </trkpt>
      <trkpt lat="44.25981" lon="5.72221">
        <ele>665</ele>
        <time>2019-03-27T15:50:56Z</time>
      </trkpt>
      <trkpt lat="44.25985" lon="5.72229">
        <ele>665</ele>
        <time>2019-03-27T15:50:57Z</time>
      </trkpt>
      <trkpt lat="44.25989" lon="5.72236">
        <ele>665</ele>
        <time>2019-03-27T15:50:58Z</time>
      </trkpt>
      <trkpt lat="44.25993" lon="5.72244">
        <ele>665</ele>
        <time>2019-03-27T15:50:59Z</time>
      </trkpt>
      <trkpt lat="44.25996" lon="5.72252">
        <ele>665</ele>
        <time>2019-03-27T15:51:00Z</time>
      </trkpt>
      <trkpt lat="44.26" lon="5.7226">
        <ele>665</ele>
        <time>2019-03-27T15:51:01Z</time>
      </trkpt>
      <trkpt lat="44.26004" lon="5.72268">
        <ele>665</ele>
        <time>2019-03-27T15:51:02Z</time>
      </trkpt>
      <trkpt lat="44.26008" lon="5.72277">
        <ele>665</ele>
        <time>2019-03-27T15:51:03Z</time>
      </trkpt>
      <trkpt lat="44.26012" lon="5.72285">
        <ele>665</ele>
        <time>2019-03-27T15:51:04Z</time>
      </trkpt>
      <trkpt lat="44.26016" lon="5.72293">
        <ele>665</ele>
        <time>2019-03-27T15:51:05Z</time>
      </trkpt>
      <trkpt lat="44.2602" lon="5.72301">
        <ele>665</ele>
        <time>2019-03-27T15:51:06Z</time>
      </trkpt>
      <trkpt lat="44.26023" lon="5.72309">
        <ele>665</ele>
        <time>2019-03-27T15:51:07Z</time>
      </trkpt>
      <trkpt lat="44.26027" lon="5.72317">
        <ele>665</ele>
        <time>2019-03-27T15:51:08Z</time>
      </trkpt>
      <trkpt lat="44.26031" lon="5.72324">
        <ele>665</ele>
        <time>2019-03-27T15:51:09Z</time>
      </trkpt>
      <trkpt lat="44.26035" lon="5.72331">
        <ele>665</ele>
        <time>2019-03-27T15:51:10Z</time>
      </trkpt>
      <trkpt lat="44.26038" lon="5.72339">
        <ele>664</ele>
        <time>2019-03-27T15:51:11Z</time>
      </trkpt>
      <trkpt lat="44.26043" lon="5.72347">
        <ele>664</ele>
        <time>2019-03-27T15:51:12Z</time>
      </trkpt>
      <trkpt lat="44.26046" lon="5.72355">
        <ele>664</ele>
        <time>2019-03-27T15:51:13Z</time>
      </trkpt>
      <trkpt lat="44.2605" lon="5.72363">
        <ele>663</ele>
        <time>2019-03-27T15:51:14Z</time>
      </trkpt>
      <trkpt lat="44.26054" lon="5.7237">
        <ele>663</ele>
        <time>2019-03-27T15:51:15Z</time>
      </trkpt>
      <trkpt lat="44.26058" lon="5.72378">
        <ele>663</ele>
        <time>2019-03-27T15:51:16Z</time>
      </trkpt>
      <trkpt lat="44.26062" lon="5.72387">
        <ele>663</ele>
        <time>2019-03-27T15:51:17Z</time>
      </trkpt>
      <trkpt lat="44.26065" lon="5.72395">
        <ele>662</ele>
        <time>2019-03-27T15:51:18Z</time>
      </trkpt>
      <trkpt lat="44.26069" lon="5.72404">
        <ele>662</ele>
        <time>2019-03-27T15:51:19Z</time>
      </trkpt>
      <trkpt lat="44.26073" lon="5.72413">
        <ele>662</ele>
        <time>2019-03-27T15:51:20Z</time>
      </trkpt>
      <trkpt lat="44.26076" lon="5.72422">
        <ele>662</ele>
        <time>2019-03-27T15:51:21Z</time>
      </trkpt>
      <trkpt lat="44.26079" lon="5.72431">
        <ele>662</ele>
        <time>2019-03-27T15:51:22Z</time>
      </trkpt>
      <trkpt lat="44.26082" lon="5.7244">
        <ele>662</ele>
        <time>2019-03-27T15:51:23Z</time>
      </trkpt>
      <trkpt lat="44.26084" lon="5.7245">
        <ele>662</ele>
        <time>2019-03-27T15:51:24Z</time>
      </trkpt>
      <trkpt lat="44.26086" lon="5.72459">
        <ele>662</ele>
        <time>2019-03-27T15:51:25Z</time>
      </trkpt>
      <trkpt lat="44.26088" lon="5.72469">
        <ele>662</ele>
        <time>2019-03-27T15:51:26Z</time>
      </trkpt>
      <trkpt lat="44.2609" lon="5.72477">
        <ele>662</ele>
        <time>2019-03-27T15:51:27Z</time>
      </trkpt>
      <trkpt lat="44.26092" lon="5.72486">
        <ele>662</ele>
        <time>2019-03-27T15:51:28Z</time>
      </trkpt>
      <trkpt lat="44.26094" lon="5.72496">
        <ele>662</ele>
        <time>2019-03-27T15:51:29Z</time>
      </trkpt>
      <trkpt lat="44.26096" lon="5.72504">
        <ele>662</ele>
        <time>2019-03-27T15:51:30Z</time>
      </trkpt>
      <trkpt lat="44.26098" lon="5.72513">
        <ele>662</ele>
        <time>2019-03-27T15:51:31Z</time>
      </trkpt>
      <trkpt lat="44.261" lon="5.72522">
        <ele>662</ele>
        <time>2019-03-27T15:51:32Z</time>
      </trkpt>
      <trkpt lat="44.26102" lon="5.72531">
        <ele>662</ele>
        <time>2019-03-27T15:51:33Z</time>
      </trkpt>
      <trkpt lat="44.26103" lon="5.72539">
        <ele>662</ele>
        <time>2019-03-27T15:51:34Z</time>
      </trkpt>
      <trkpt lat="44.26105" lon="5.72547">
        <ele>662</ele>
        <time>2019-03-27T15:51:35Z</time>
      </trkpt>
      <trkpt lat="44.26107" lon="5.72556">
        <ele>662</ele>
        <time>2019-03-27T15:51:36Z</time>
      </trkpt>
      <trkpt lat="44.26109" lon="5.72564">
        <ele>662</ele>
        <time>2019-03-27T15:51:37Z</time>
      </trkpt>
      <trkpt lat="44.26111" lon="5.72572">
        <ele>662</ele>
        <time>2019-03-27T15:51:38Z</time>
      </trkpt>
      <trkpt lat="44.26113" lon="5.7258">
        <ele>662</ele>
        <time>2019-03-27T15:51:39Z</time>
      </trkpt>
      <trkpt lat="44.26115" lon="5.72587">
        <ele>662</ele>
        <time>2019-03-27T15:51:40Z</time>
      </trkpt>
      <trkpt lat="44.26116" lon="5.72595">
        <ele>662</ele>
        <time>2019-03-27T15:51:41Z</time>
      </trkpt>
      <trkpt lat="44.26118" lon="5.72602">
        <ele>662</ele>
        <time>2019-03-27T15:51:42Z</time>
      </trkpt>
      <trkpt lat="44.2612" lon="5.7261">
        <ele>662</ele>
        <time>2019-03-27T15:51:43Z</time>
      </trkpt>
      <trkpt lat="44.26121" lon="5.72617">
        <ele>662</ele>
        <time>2019-03-27T15:51:44Z</time>
      </trkpt>
      <trkpt lat="44.26123" lon="5.72625">
        <ele>662</ele>
        <time>2019-03-27T15:51:45Z</time>
      </trkpt>
      <trkpt lat="44.26125" lon="5.72633">
        <ele>662</ele>
        <time>2019-03-27T15:51:46Z</time>
      </trkpt>
      <trkpt lat="44.26127" lon="5.72641">
        <ele>662</ele>
        <time>2019-03-27T15:51:47Z</time>
      </trkpt>
      <trkpt lat="44.26129" lon="5.72649">
        <ele>662</ele>
        <time>2019-03-27T15:51:48Z</time>
      </trkpt>
      <trkpt lat="44.26132" lon="5.72657">
        <ele>662</ele>
        <time>2019-03-27T15:51:49Z</time>
      </trkpt>
      <trkpt lat="44.26133" lon="5.72665">
        <ele>662</ele>
        <time>2019-03-27T15:51:50Z</time>
      </trkpt>
      <trkpt lat="44.26136" lon="5.72674">
        <ele>662</ele>
        <time>2019-03-27T15:51:51Z</time>
      </trkpt>
      <trkpt lat="44.26138" lon="5.72683">
        <ele>662</ele>
        <time>2019-03-27T15:51:52Z</time>
      </trkpt>
      <trkpt lat="44.2614" lon="5.72692">
        <ele>662</ele>
        <time>2019-03-27T15:51:53Z</time>
      </trkpt>
      <trkpt lat="44.26142" lon="5.72702">
        <ele>662</ele>
        <time>2019-03-27T15:51:54Z</time>
      </trkpt>
      <trkpt lat="44.26144" lon="5.72711">
        <ele>662</ele>
        <time>2019-03-27T15:51:55Z</time>
      </trkpt>
      <trkpt lat="44.26146" lon="5.72721">
        <ele>661</ele>
        <time>2019-03-27T15:51:56Z</time>
      </trkpt>
      <trkpt lat="44.26149" lon="5.72732">
        <ele>661</ele>
        <time>2019-03-27T15:51:57Z</time>
      </trkpt>
      <trkpt lat="44.26151" lon="5.72743">
        <ele>661</ele>
        <time>2019-03-27T15:51:58Z</time>
      </trkpt>
      <trkpt lat="44.26154" lon="5.72753">
        <ele>661</ele>
        <time>2019-03-27T15:51:59Z</time>
      </trkpt>
      <trkpt lat="44.26156" lon="5.72764">
        <ele>661</ele>
        <time>2019-03-27T15:52:00Z</time>
      </trkpt>
      <trkpt lat="44.26158" lon="5.72776">
        <ele>661</ele>
        <time>2019-03-27T15:52:01Z</time>
      </trkpt>
      <trkpt lat="44.2616" lon="5.72787">
        <ele>661</ele>
        <time>2019-03-27T15:52:02Z</time>
      </trkpt>
      <trkpt lat="44.2616" lon="5.72798">
        <ele>661</ele>
        <time>2019-03-27T15:52:03Z</time>
      </trkpt>
      <trkpt lat="44.26161" lon="5.72809">
        <ele>660</ele>
        <time>2019-03-27T15:52:04Z</time>
      </trkpt>
      <trkpt lat="44.26161" lon="5.72821">
        <ele>660</ele>
        <time>2019-03-27T15:52:05Z</time>
      </trkpt>
      <trkpt lat="44.26161" lon="5.72833">
        <ele>660</ele>
        <time>2019-03-27T15:52:06Z</time>
      </trkpt>
      <trkpt lat="44.2616" lon="5.72845">
        <ele>660</ele>
        <time>2019-03-27T15:52:07Z</time>
      </trkpt>
      <trkpt lat="44.2616" lon="5.72857">
        <ele>659</ele>
        <time>2019-03-27T15:52:08Z</time>
      </trkpt>
      <trkpt lat="44.26159" lon="5.72869">
        <ele>659</ele>
        <time>2019-03-27T15:52:09Z</time>
      </trkpt>
      <trkpt lat="44.26159" lon="5.72881">
        <ele>659</ele>
        <time>2019-03-27T15:52:10Z</time>
      </trkpt>
      <trkpt lat="44.26158" lon="5.72894">
        <ele>658</ele>
        <time>2019-03-27T15:52:11Z</time>
      </trkpt>
      <trkpt lat="44.26158" lon="5.72907">
        <ele>658</ele>
        <time>2019-03-27T15:52:12Z</time>
      </trkpt>
      <trkpt lat="44.26158" lon="5.7292">
        <ele>657</ele>
        <time>2019-03-27T15:52:13Z</time>
      </trkpt>
      <trkpt lat="44.26157" lon="5.72933">
        <ele>657</ele>
        <time>2019-03-27T15:52:14Z</time>
      </trkpt>
      <trkpt lat="44.26157" lon="5.72947">
        <ele>656</ele>
        <time>2019-03-27T15:52:15Z</time>
      </trkpt>
      <trkpt lat="44.26157" lon="5.7296">
        <ele>656</ele>
        <time>2019-03-27T15:52:16Z</time>
      </trkpt>
      <trkpt lat="44.26157" lon="5.72974">
        <ele>656</ele>
        <time>2019-03-27T15:52:17Z</time>
      </trkpt>
      <trkpt lat="44.26157" lon="5.72988">
        <ele>656</ele>
        <time>2019-03-27T15:52:18Z</time>
      </trkpt>
      <trkpt lat="44.26157" lon="5.73002">
        <ele>656</ele>
        <time>2019-03-27T15:52:19Z</time>
      </trkpt>
      <trkpt lat="44.26157" lon="5.73016">
        <ele>656</ele>
        <time>2019-03-27T15:52:20Z</time>
      </trkpt>
      <trkpt lat="44.26157" lon="5.73029">
        <ele>655</ele>
        <time>2019-03-27T15:52:21Z</time>
      </trkpt>
      <trkpt lat="44.26157" lon="5.73043">
        <ele>655</ele>
        <time>2019-03-27T15:52:22Z</time>
      </trkpt>
      <trkpt lat="44.26157" lon="5.73056">
        <ele>655</ele>
        <time>2019-03-27T15:52:23Z</time>
      </trkpt>
      <trkpt lat="44.26157" lon="5.73068">
        <ele>654</ele>
        <time>2019-03-27T15:52:24Z</time>
      </trkpt>
      <trkpt lat="44.26157" lon="5.73079">
        <ele>654</ele>
        <time>2019-03-27T15:52:25Z</time>
      </trkpt>
      <trkpt lat="44.26157" lon="5.7309">
        <ele>653</ele>
        <time>2019-03-27T15:52:26Z</time>
      </trkpt>
      <trkpt lat="44.26159" lon="5.73102">
        <ele>653</ele>
        <time>2019-03-27T15:52:27Z</time>
      </trkpt>
      <trkpt lat="44.2616" lon="5.73113">
        <ele>653</ele>
        <time>2019-03-27T15:52:28Z</time>
      </trkpt>
      <trkpt lat="44.26163" lon="5.73125">
        <ele>653</ele>
        <time>2019-03-27T15:52:29Z</time>
      </trkpt>
      <trkpt lat="44.26166" lon="5.73136">
        <ele>653</ele>
        <time>2019-03-27T15:52:30Z</time>
      </trkpt>
      <trkpt lat="44.26169" lon="5.73147">
        <ele>653</ele>
        <time>2019-03-27T15:52:31Z</time>
      </trkpt>
      <trkpt lat="44.26172" lon="5.73158">
        <ele>653</ele>
        <time>2019-03-27T15:52:32Z</time>
      </trkpt>
      <trkpt lat="44.26175" lon="5.73168">
        <ele>653</ele>
        <time>2019-03-27T15:52:33Z</time>
      </trkpt>
      <trkpt lat="44.26179" lon="5.73179">
        <ele>653</ele>
        <time>2019-03-27T15:52:34Z</time>
      </trkpt>
      <trkpt lat="44.26182" lon="5.73189">
        <ele>653</ele>
        <time>2019-03-27T15:52:35Z</time>
      </trkpt>
      <trkpt lat="44.26186" lon="5.73199">
        <ele>653</ele>
        <time>2019-03-27T15:52:36Z</time>
      </trkpt>
      <trkpt lat="44.26188" lon="5.73209">
        <ele>653</ele>
        <time>2019-03-27T15:52:37Z</time>
      </trkpt>
      <trkpt lat="44.26192" lon="5.73218">
        <ele>653</ele>
        <time>2019-03-27T15:52:38Z</time>
      </trkpt>
      <trkpt lat="44.26195" lon="5.73227">
        <ele>653</ele>
        <time>2019-03-27T15:52:39Z</time>
      </trkpt>
      <trkpt lat="44.26198" lon="5.73236">
        <ele>653</ele>
        <time>2019-03-27T15:52:40Z</time>
      </trkpt>
      <trkpt lat="44.262" lon="5.73245">
        <ele>653</ele>
        <time>2019-03-27T15:52:41Z</time>
      </trkpt>
      <trkpt lat="44.26204" lon="5.73253">
        <ele>653</ele>
        <time>2019-03-27T15:52:42Z</time>
      </trkpt>
      <trkpt lat="44.26206" lon="5.73262">
        <ele>653</ele>
        <time>2019-03-27T15:52:43Z</time>
      </trkpt>
      <trkpt lat="44.26208" lon="5.73271">
        <ele>653</ele>
        <time>2019-03-27T15:52:44Z</time>
      </trkpt>
      <trkpt lat="44.26211" lon="5.73281">
        <ele>653</ele>
        <time>2019-03-27T15:52:45Z</time>
      </trkpt>
      <trkpt lat="44.26214" lon="5.7329">
        <ele>653</ele>
        <time>2019-03-27T15:52:46Z</time>
      </trkpt>
      <trkpt lat="44.26217" lon="5.733">
        <ele>653</ele>
        <time>2019-03-27T15:52:47Z</time>
      </trkpt>
      <trkpt lat="44.2622" lon="5.73308">
        <ele>653</ele>
        <time>2019-03-27T15:52:48Z</time>
      </trkpt>
      <trkpt lat="44.26223" lon="5.73317">
        <ele>653</ele>
        <time>2019-03-27T15:52:49Z</time>
      </trkpt>
      <trkpt lat="44.26226" lon="5.73325">
        <ele>653</ele>
        <time>2019-03-27T15:52:50Z</time>
      </trkpt>
      <trkpt lat="44.26229" lon="5.73334">
        <ele>653</ele>
        <time>2019-03-27T15:52:51Z</time>
      </trkpt>
      <trkpt lat="44.26233" lon="5.73344">
        <ele>653</ele>
        <time>2019-03-27T15:52:52Z</time>
      </trkpt>
      <trkpt lat="44.26236" lon="5.73353">
        <ele>653</ele>
        <time>2019-03-27T15:52:53Z</time>
      </trkpt>
      <trkpt lat="44.26239" lon="5.73362">
        <ele>653</ele>
        <time>2019-03-27T15:52:54Z</time>
      </trkpt>
      <trkpt lat="44.26241" lon="5.73372">
        <ele>653</ele>
        <time>2019-03-27T15:52:55Z</time>
      </trkpt>
      <trkpt lat="44.26244" lon="5.73382">
        <ele>653</ele>
        <time>2019-03-27T15:52:56Z</time>
      </trkpt>
      <trkpt lat="44.26247" lon="5.73391">
        <ele>653</ele>
        <time>2019-03-27T15:52:57Z</time>
      </trkpt>
      <trkpt lat="44.2625" lon="5.734">
        <ele>653</ele>
        <time>2019-03-27T15:52:58Z</time>
      </trkpt>
      <trkpt lat="44.26252" lon="5.7341">
        <ele>653</ele>
        <time>2019-03-27T15:52:59Z</time>
      </trkpt>
      <trkpt lat="44.26255" lon="5.7342">
        <ele>653</ele>
        <time>2019-03-27T15:53:00Z</time>
      </trkpt>
      <trkpt lat="44.26257" lon="5.7343">
        <ele>653</ele>
        <time>2019-03-27T15:53:01Z</time>
      </trkpt>
      <trkpt lat="44.26259" lon="5.73441">
        <ele>653</ele>
        <time>2019-03-27T15:53:02Z</time>
      </trkpt>
      <trkpt lat="44.26262" lon="5.73452">
        <ele>653</ele>
        <time>2019-03-27T15:53:03Z</time>
      </trkpt>
      <trkpt lat="44.26265" lon="5.73462">
        <ele>653</ele>
        <time>2019-03-27T15:53:04Z</time>
      </trkpt>
      <trkpt lat="44.26266" lon="5.73473">
        <ele>653</ele>
        <time>2019-03-27T15:53:05Z</time>
      </trkpt>
      <trkpt lat="44.26268" lon="5.73484">
        <ele>653</ele>
        <time>2019-03-27T15:53:06Z</time>
      </trkpt>
      <trkpt lat="44.26268" lon="5.73494">
        <ele>653</ele>
        <time>2019-03-27T15:53:07Z</time>
      </trkpt>
      <trkpt lat="44.2627" lon="5.73504">
        <ele>652</ele>
        <time>2019-03-27T15:53:08Z</time>
      </trkpt>
      <trkpt lat="44.26271" lon="5.73515">
        <ele>651</ele>
        <time>2019-03-27T15:53:09Z</time>
      </trkpt>
      <trkpt lat="44.26273" lon="5.73526">
        <ele>650</ele>
        <time>2019-03-27T15:53:10Z</time>
      </trkpt>
      <trkpt lat="44.26274" lon="5.73537">
        <ele>650</ele>
        <time>2019-03-27T15:53:11Z</time>
      </trkpt>
      <trkpt lat="44.26275" lon="5.73548">
        <ele>649</ele>
        <time>2019-03-27T15:53:12Z</time>
      </trkpt>
      <trkpt lat="44.26276" lon="5.7356">
        <ele>649</ele>
        <time>2019-03-27T15:53:13Z</time>
      </trkpt>
      <trkpt lat="44.26278" lon="5.73571">
        <ele>649</ele>
        <time>2019-03-27T15:53:14Z</time>
      </trkpt>
      <trkpt lat="44.2628" lon="5.73582">
        <ele>649</ele>
        <time>2019-03-27T15:53:15Z</time>
      </trkpt>
      <trkpt lat="44.26281" lon="5.73594">
        <ele>649</ele>
        <time>2019-03-27T15:53:16Z</time>
      </trkpt>
      <trkpt lat="44.26283" lon="5.73606">
        <ele>649</ele>
        <time>2019-03-27T15:53:17Z</time>
      </trkpt>
      <trkpt lat="44.26284" lon="5.73617">
        <ele>649</ele>
        <time>2019-03-27T15:53:18Z</time>
      </trkpt>
      <trkpt lat="44.26286" lon="5.73629">
        <ele>649</ele>
        <time>2019-03-27T15:53:19Z</time>
      </trkpt>
      <trkpt lat="44.26289" lon="5.73641">
        <ele>649</ele>
        <time>2019-03-27T15:53:20Z</time>
      </trkpt>
      <trkpt lat="44.26291" lon="5.73653">
        <ele>649</ele>
        <time>2019-03-27T15:53:21Z</time>
      </trkpt>
      <trkpt lat="44.26292" lon="5.73664">
        <ele>649</ele>
        <time>2019-03-27T15:53:22Z</time>
      </trkpt>
      <trkpt lat="44.26294" lon="5.73676">
        <ele>649</ele>
        <time>2019-03-27T15:53:23Z</time>
      </trkpt>
      <trkpt lat="44.26296" lon="5.73687">
        <ele>649</ele>
        <time>2019-03-27T15:53:24Z</time>
      </trkpt>
      <trkpt lat="44.26297" lon="5.73698">
        <ele>649</ele>
        <time>2019-03-27T15:53:25Z</time>
      </trkpt>
      <trkpt lat="44.26298" lon="5.73709">
        <ele>649</ele>
        <time>2019-03-27T15:53:26Z</time>
      </trkpt>
      <trkpt lat="44.263" lon="5.7372">
        <ele>649</ele>
        <time>2019-03-27T15:53:27Z</time>
      </trkpt>
      <trkpt lat="44.26301" lon="5.7373">
        <ele>649</ele>
        <time>2019-03-27T15:53:28Z</time>
      </trkpt>
      <trkpt lat="44.26302" lon="5.7374">
        <ele>649</ele>
        <time>2019-03-27T15:53:29Z</time>
      </trkpt>
      <trkpt lat="44.26304" lon="5.73751">
        <ele>649</ele>
        <time>2019-03-27T15:53:30Z</time>
      </trkpt>
      <trkpt lat="44.26305" lon="5.73761">
        <ele>649</ele>
        <time>2019-03-27T15:53:31Z</time>
      </trkpt>
      <trkpt lat="44.26307" lon="5.73772">
        <ele>649</ele>
        <time>2019-03-27T15:53:32Z</time>
      </trkpt>
      <trkpt lat="44.26309" lon="5.73782">
        <ele>649</ele>
        <time>2019-03-27T15:53:33Z</time>
      </trkpt>
      <trkpt lat="44.2631" lon="5.73793">
        <ele>649</ele>
        <time>2019-03-27T15:53:34Z</time>
      </trkpt>
      <trkpt lat="44.26311" lon="5.73804">
        <ele>649</ele>
        <time>2019-03-27T15:53:35Z</time>
      </trkpt>
      <trkpt lat="44.26313" lon="5.73815">
        <ele>649</ele>
        <time>2019-03-27T15:53:36Z</time>
      </trkpt>
      <trkpt lat="44.26314" lon="5.73826">
        <ele>649</ele>
        <time>2019-03-27T15:53:37Z</time>
      </trkpt>
      <trkpt lat="44.26315" lon="5.73837">
        <ele>649</ele>
        <time>2019-03-27T15:53:38Z</time>
      </trkpt>
      <trkpt lat="44.26315" lon="5.73847">
        <ele>649</ele>
        <time>2019-03-27T15:53:39Z</time>
      </trkpt>
      <trkpt lat="44.26316" lon="5.73858">
        <ele>649</ele>
        <time>2019-03-27T15:53:40Z</time>
      </trkpt>
      <trkpt lat="44.26316" lon="5.73868">
        <ele>649</ele>
        <time>2019-03-27T15:53:41Z</time>
      </trkpt>
      <trkpt lat="44.26317" lon="5.73878">
        <ele>649</ele>
        <time>2019-03-27T15:53:42Z</time>
      </trkpt>
      <trkpt lat="44.26318" lon="5.73888">
        <ele>649</ele>
        <time>2019-03-27T15:53:43Z</time>
      </trkpt>
      <trkpt lat="44.26318" lon="5.73899">
        <ele>649</ele>
        <time>2019-03-27T15:53:44Z</time>
      </trkpt>
      <trkpt lat="44.26318" lon="5.73908">
        <ele>649</ele>
        <time>2019-03-27T15:53:45Z</time>
      </trkpt>
      <trkpt lat="44.26319" lon="5.73918">
        <ele>649</ele>
        <time>2019-03-27T15:53:46Z</time>
      </trkpt>
      <trkpt lat="44.26319" lon="5.73927">
        <ele>649</ele>
        <time>2019-03-27T15:53:47Z</time>
      </trkpt>
      <trkpt lat="44.2632" lon="5.73936">
        <ele>649</ele>
        <time>2019-03-27T15:53:48Z</time>
      </trkpt>
      <trkpt lat="44.2632" lon="5.73946">
        <ele>649</ele>
        <time>2019-03-27T15:53:49Z</time>
      </trkpt>
      <trkpt lat="44.2632" lon="5.73955">
        <ele>649</ele>
        <time>2019-03-27T15:53:50Z</time>
      </trkpt>
      <trkpt lat="44.2632" lon="5.73965">
        <ele>649</ele>
        <time>2019-03-27T15:53:51Z</time>
      </trkpt>
      <trkpt lat="44.26321" lon="5.73974">
        <ele>649</ele>
        <time>2019-03-27T15:53:52Z</time>
      </trkpt>
      <trkpt lat="44.26321" lon="5.73983">
        <ele>649</ele>
        <time>2019-03-27T15:53:53Z</time>
      </trkpt>
      <trkpt lat="44.26322" lon="5.73992">
        <ele>649</ele>
        <time>2019-03-27T15:53:54Z</time>
      </trkpt>
      <trkpt lat="44.26322" lon="5.74002">
        <ele>649</ele>
        <time>2019-03-27T15:53:55Z</time>
      </trkpt>
      <trkpt lat="44.26323" lon="5.74011">
        <ele>649</ele>
        <time>2019-03-27T15:53:56Z</time>
      </trkpt>
      <trkpt lat="44.26324" lon="5.7402">
        <ele>649</ele>
        <time>2019-03-27T15:53:57Z</time>
      </trkpt>
      <trkpt lat="44.26324" lon="5.74029">
        <ele>649</ele>
        <time>2019-03-27T15:53:58Z</time>
      </trkpt>
      <trkpt lat="44.26325" lon="5.74038">
        <ele>649</ele>
        <time>2019-03-27T15:53:59Z</time>
      </trkpt>
      <trkpt lat="44.26326" lon="5.74048">
        <ele>649</ele>
        <time>2019-03-27T15:54:00Z</time>
      </trkpt>
      <trkpt lat="44.26326" lon="5.74057">
        <ele>649</ele>
        <time>2019-03-27T15:54:01Z</time>
      </trkpt>
      <trkpt lat="44.26327" lon="5.74067">
        <ele>649</ele>
        <time>2019-03-27T15:54:02Z</time>
      </trkpt>
      <trkpt lat="44.26328" lon="5.74077">
        <ele>649</ele>
        <time>2019-03-27T15:54:03Z</time>
      </trkpt>
      <trkpt lat="44.26328" lon="5.74086">
        <ele>649</ele>
        <time>2019-03-27T15:54:04Z</time>
      </trkpt>
      <trkpt lat="44.26329" lon="5.74096">
        <ele>649</ele>
        <time>2019-03-27T15:54:05Z</time>
      </trkpt>
      <trkpt lat="44.26329" lon="5.74106">
        <ele>649</ele>
        <time>2019-03-27T15:54:06Z</time>
      </trkpt>
      <trkpt lat="44.2633" lon="5.74116">
        <ele>649</ele>
        <time>2019-03-27T15:54:07Z</time>
      </trkpt>
      <trkpt lat="44.26331" lon="5.74126">
        <ele>649</ele>
        <time>2019-03-27T15:54:08Z</time>
      </trkpt>
      <trkpt lat="44.26331" lon="5.74136">
        <ele>649</ele>
        <time>2019-03-27T15:54:09Z</time>
      </trkpt>
      <trkpt lat="44.26331" lon="5.74146">
        <ele>649</ele>
        <time>2019-03-27T15:54:10Z</time>
      </trkpt>
      <trkpt lat="44.26332" lon="5.74157">
        <ele>649</ele>
        <time>2019-03-27T15:54:11Z</time>
      </trkpt>
      <trkpt lat="44.26333" lon="5.74167">
        <ele>649</ele>
        <time>2019-03-27T15:54:12Z</time>
      </trkpt>
      <trkpt lat="44.26334" lon="5.74178">
        <ele>649</ele>
        <time>2019-03-27T15:54:13Z</time>
      </trkpt>
      <trkpt lat="44.26334" lon="5.74189">
        <ele>649</ele>
        <time>2019-03-27T15:54:14Z</time>
      </trkpt>
      <trkpt lat="44.26334" lon="5.742">
        <ele>649</ele>
        <time>2019-03-27T15:54:15Z</time>
      </trkpt>
      <trkpt lat="44.26335" lon="5.74211">
        <ele>649</ele>
        <time>2019-03-27T15:54:16Z</time>
      </trkpt>
      <trkpt lat="44.26336" lon="5.74222">
        <ele>649</ele>
        <time>2019-03-27T15:54:17Z</time>
      </trkpt>
      <trkpt lat="44.26336" lon="5.74233">
        <ele>649</ele>
        <time>2019-03-27T15:54:18Z</time>
      </trkpt>
      <trkpt lat="44.26337" lon="5.74244">
        <ele>649</ele>
        <time>2019-03-27T15:54:19Z</time>
      </trkpt>
      <trkpt lat="44.26337" lon="5.74255">
        <ele>649</ele>
        <time>2019-03-27T15:54:20Z</time>
      </trkpt>
      <trkpt lat="44.26338" lon="5.74266">
        <ele>649</ele>
        <time>2019-03-27T15:54:21Z</time>
      </trkpt>
      <trkpt lat="44.26339" lon="5.74278">
        <ele>649</ele>
        <time>2019-03-27T15:54:22Z</time>
      </trkpt>
      <trkpt lat="44.2634" lon="5.74289">
        <ele>649</ele>
        <time>2019-03-27T15:54:23Z</time>
      </trkpt>
      <trkpt lat="44.2634" lon="5.743">
        <ele>649</ele>
        <time>2019-03-27T15:54:24Z</time>
      </trkpt>
      <trkpt lat="44.26341" lon="5.74312">
        <ele>649</ele>
        <time>2019-03-27T15:54:25Z</time>
      </trkpt>
      <trkpt lat="44.26342" lon="5.74324">
        <ele>649</ele>
        <time>2019-03-27T15:54:26Z</time>
      </trkpt>
      <trkpt lat="44.26344" lon="5.74335">
        <ele>649</ele>
        <time>2019-03-27T15:54:27Z</time>
      </trkpt>
      <trkpt lat="44.26346" lon="5.74347">
        <ele>649</ele>
        <time>2019-03-27T15:54:28Z</time>
      </trkpt>
      <trkpt lat="44.26348" lon="5.74359">
        <ele>649</ele>
        <time>2019-03-27T15:54:29Z</time>
      </trkpt>
      <trkpt lat="44.2635" lon="5.7437">
        <ele>649</ele>
        <time>2019-03-27T15:54:30Z</time>
      </trkpt>
      <trkpt lat="44.26353" lon="5.74382">
        <ele>649</ele>
        <time>2019-03-27T15:54:31Z</time>
      </trkpt>
      <trkpt lat="44.26356" lon="5.74394">
        <ele>649</ele>
        <time>2019-03-27T15:54:32Z</time>
      </trkpt>
      <trkpt lat="44.26359" lon="5.74407">
        <ele>649</ele>
        <time>2019-03-27T15:54:33Z</time>
      </trkpt>
      <trkpt lat="44.26361" lon="5.7442">
        <ele>649</ele>
        <time>2019-03-27T15:54:34Z</time>
      </trkpt>
      <trkpt lat="44.26361" lon="5.74434">
        <ele>648</ele>
        <time>2019-03-27T15:54:35Z</time>
      </trkpt>
      <trkpt lat="44.26359" lon="5.74447">
        <ele>647</ele>
        <time>2019-03-27T15:54:36Z</time>
      </trkpt>
      <trkpt lat="44.26355" lon="5.7446">
        <ele>647</ele>
        <time>2019-03-27T15:54:37Z</time>
      </trkpt>
      <trkpt lat="44.26348" lon="5.74471">
        <ele>646</ele>
        <time>2019-03-27T15:54:38Z</time>
      </trkpt>
      <trkpt lat="44.2634" lon="5.74481">
        <ele>645</ele>
        <time>2019-03-27T15:54:39Z</time>
      </trkpt>
      <trkpt lat="44.26332" lon="5.74491">
        <ele>644</ele>
        <time>2019-03-27T15:54:40Z</time>
      </trkpt>
      <trkpt lat="44.26326" lon="5.74501">
        <ele>644</ele>
        <time>2019-03-27T15:54:41Z</time>
      </trkpt>
      <trkpt lat="44.26321" lon="5.74511">
        <ele>643</ele>
        <time>2019-03-27T15:54:42Z</time>
      </trkpt>
      <trkpt lat="44.26316" lon="5.74521">
        <ele>643</ele>
        <time>2019-03-27T15:54:43Z</time>
      </trkpt>
      <trkpt lat="44.26311" lon="5.74531">
        <ele>643</ele>
        <time>2019-03-27T15:54:44Z</time>
      </trkpt>
      <trkpt lat="44.26308" lon="5.74541">
        <ele>643</ele>
        <time>2019-03-27T15:54:45Z</time>
      </trkpt>
      <trkpt lat="44.26303" lon="5.7455">
        <ele>643</ele>
        <time>2019-03-27T15:54:46Z</time>
      </trkpt>
      <trkpt lat="44.26299" lon="5.74559">
        <ele>642</ele>
        <time>2019-03-27T15:54:47Z</time>
      </trkpt>
      <trkpt lat="44.26295" lon="5.74569">
        <ele>642</ele>
        <time>2019-03-27T15:54:48Z</time>
      </trkpt>
      <trkpt lat="44.26291" lon="5.74579">
        <ele>642</ele>
        <time>2019-03-27T15:54:49Z</time>
      </trkpt>
      <trkpt lat="44.26287" lon="5.74589">
        <ele>642</ele>
        <time>2019-03-27T15:54:50Z</time>
      </trkpt>
      <trkpt lat="44.26283" lon="5.746">
        <ele>642</ele>
        <time>2019-03-27T15:54:51Z</time>
      </trkpt>
      <trkpt lat="44.26279" lon="5.7461">
        <ele>642</ele>
        <time>2019-03-27T15:54:52Z</time>
      </trkpt>
      <trkpt lat="44.26276" lon="5.74622">
        <ele>642</ele>
        <time>2019-03-27T15:54:53Z</time>
      </trkpt>
      <trkpt lat="44.26275" lon="5.74635">
        <ele>642</ele>
        <time>2019-03-27T15:54:54Z</time>
      </trkpt>
      <trkpt lat="44.26277" lon="5.74647">
        <ele>642</ele>
        <time>2019-03-27T15:54:55Z</time>
      </trkpt>
      <trkpt lat="44.2628" lon="5.7466">
        <ele>641</ele>
        <time>2019-03-27T15:54:56Z</time>
      </trkpt>
      <trkpt lat="44.26284" lon="5.74672">
        <ele>641</ele>
        <time>2019-03-27T15:54:57Z</time>
      </trkpt>
      <trkpt lat="44.26288" lon="5.74684">
        <ele>640</ele>
        <time>2019-03-27T15:54:58Z</time>
      </trkpt>
      <trkpt lat="44.26293" lon="5.74696">
        <ele>640</ele>
        <time>2019-03-27T15:54:59Z</time>
      </trkpt>
      <trkpt lat="44.26299" lon="5.74709">
        <ele>639</ele>
        <time>2019-03-27T15:55:00Z</time>
      </trkpt>
      <trkpt lat="44.26304" lon="5.74722">
        <ele>638</ele>
        <time>2019-03-27T15:55:01Z</time>
      </trkpt>
      <trkpt lat="44.26309" lon="5.74735">
        <ele>638</ele>
        <time>2019-03-27T15:55:02Z</time>
      </trkpt>
      <trkpt lat="44.26315" lon="5.74748">
        <ele>638</ele>
        <time>2019-03-27T15:55:03Z</time>
      </trkpt>
      <trkpt lat="44.2632" lon="5.74761">
        <ele>637</ele>
        <time>2019-03-27T15:55:04Z</time>
      </trkpt>
      <trkpt lat="44.26326" lon="5.74774">
        <ele>637</ele>
        <time>2019-03-27T15:55:05Z</time>
      </trkpt>
      <trkpt lat="44.26332" lon="5.74787">
        <ele>637</ele>
        <time>2019-03-27T15:55:06Z</time>
      </trkpt>
      <trkpt lat="44.26339" lon="5.74799">
        <ele>636</ele>
        <time>2019-03-27T15:55:07Z</time>
      </trkpt>
      <trkpt lat="44.26346" lon="5.74811">
        <ele>636</ele>
        <time>2019-03-27T15:55:08Z</time>
      </trkpt>
      <trkpt lat="44.26353" lon="5.74823">
        <ele>636</ele>
        <time>2019-03-27T15:55:09Z</time>
      </trkpt>
      <trkpt lat="44.2636" lon="5.74834">
        <ele>635</ele>
        <time>2019-03-27T15:55:10Z</time>
      </trkpt>
      <trkpt lat="44.26366" lon="5.74846">
        <ele>635</ele>
        <time>2019-03-27T15:55:11Z</time>
      </trkpt>
      <trkpt lat="44.26373" lon="5.74859">
        <ele>635</ele>
        <time>2019-03-27T15:55:12Z</time>
      </trkpt>
      <trkpt lat="44.26379" lon="5.74873">
        <ele>635</ele>
        <time>2019-03-27T15:55:13Z</time>
      </trkpt>
      <trkpt lat="44.26383" lon="5.74888">
        <ele>634</ele>
        <time>2019-03-27T15:55:14Z</time>
      </trkpt>
      <trkpt lat="44.26387" lon="5.74903">
        <ele>634</ele>
        <time>2019-03-27T15:55:15Z</time>
      </trkpt>
      <trkpt lat="44.26391" lon="5.74918">
        <ele>633</ele>
        <time>2019-03-27T15:55:16Z</time>
      </trkpt>
      <trkpt lat="44.26395" lon="5.74932">
        <ele>633</ele>
        <time>2019-03-27T15:55:17Z</time>
      </trkpt>
      <trkpt lat="44.264" lon="5.74947">
        <ele>633</ele>
        <time>2019-03-27T15:55:18Z</time>
      </trkpt>
      <trkpt lat="44.26405" lon="5.74961">
        <ele>632</ele>
        <time>2019-03-27T15:55:19Z</time>
      </trkpt>
      <trkpt lat="44.26411" lon="5.74975">
        <ele>632</ele>
        <time>2019-03-27T15:55:20Z</time>
      </trkpt>
      <trkpt lat="44.26418" lon="5.74989">
        <ele>632</ele>
        <time>2019-03-27T15:55:21Z</time>
      </trkpt>
      <trkpt lat="44.26425" lon="5.75001">
        <ele>631</ele>
        <time>2019-03-27T15:55:22Z</time>
      </trkpt>
      <trkpt lat="44.26432" lon="5.75014">
        <ele>631</ele>
        <time>2019-03-27T15:55:23Z</time>
      </trkpt>
      <trkpt lat="44.26439" lon="5.75027">
        <ele>631</ele>
        <time>2019-03-27T15:55:24Z</time>
      </trkpt>
      <trkpt lat="44.26446" lon="5.75039">
        <ele>631</ele>
        <time>2019-03-27T15:55:25Z</time>
      </trkpt>
      <trkpt lat="44.26453" lon="5.7505">
        <ele>631</ele>
        <time>2019-03-27T15:55:26Z</time>
      </trkpt>
      <trkpt lat="44.2646" lon="5.75062">
        <ele>631</ele>
        <time>2019-03-27T15:55:27Z</time>
      </trkpt>
      <trkpt lat="44.26467" lon="5.75073">
        <ele>631</ele>
        <time>2019-03-27T15:55:28Z</time>
      </trkpt>
      <trkpt lat="44.26473" lon="5.75085">
        <ele>631</ele>
        <time>2019-03-27T15:55:29Z</time>
      </trkpt>
      <trkpt lat="44.2648" lon="5.75097">
        <ele>630</ele>
        <time>2019-03-27T15:55:30Z</time>
      </trkpt>
      <trkpt lat="44.26487" lon="5.75108">
        <ele>630</ele>
        <time>2019-03-27T15:55:31Z</time>
      </trkpt>
      <trkpt lat="44.26493" lon="5.75119">
        <ele>630</ele>
        <time>2019-03-27T15:55:32Z</time>
      </trkpt>
      <trkpt lat="44.265" lon="5.75129">
        <ele>630</ele>
        <time>2019-03-27T15:55:33Z</time>
      </trkpt>
      <trkpt lat="44.26507" lon="5.75139">
        <ele>630</ele>
        <time>2019-03-27T15:55:34Z</time>
      </trkpt>
      <trkpt lat="44.26514" lon="5.75149">
        <ele>630</ele>
        <time>2019-03-27T15:55:35Z</time>
      </trkpt>
      <trkpt lat="44.26521" lon="5.75159">
        <ele>630</ele>
        <time>2019-03-27T15:55:36Z</time>
      </trkpt>
      <trkpt lat="44.26527" lon="5.75169">
        <ele>630</ele>
        <time>2019-03-27T15:55:37Z</time>
      </trkpt>
      <trkpt lat="44.26533" lon="5.75179">
        <ele>630</ele>
        <time>2019-03-27T15:55:38Z</time>
      </trkpt>
      <trkpt lat="44.26539" lon="5.75189">
        <ele>630</ele>
        <time>2019-03-27T15:55:39Z</time>
      </trkpt>
      <trkpt lat="44.26546" lon="5.75199">
        <ele>630</ele>
        <time>2019-03-27T15:55:40Z</time>
      </trkpt>
      <trkpt lat="44.26552" lon="5.75209">
        <ele>630</ele>
        <time>2019-03-27T15:55:41Z</time>
      </trkpt>
      <trkpt lat="44.26558" lon="5.75218">
        <ele>630</ele>
        <time>2019-03-27T15:55:42Z</time>
      </trkpt>
      <trkpt lat="44.26564" lon="5.75229">
        <ele>630</ele>
        <time>2019-03-27T15:55:43Z</time>
      </trkpt>
      <trkpt lat="44.26569" lon="5.75238">
        <ele>630</ele>
        <time>2019-03-27T15:55:44Z</time>
      </trkpt>
      <trkpt lat="44.26574" lon="5.75249">
        <ele>630</ele>
        <time>2019-03-27T15:55:45Z</time>
      </trkpt>
      <trkpt lat="44.26578" lon="5.7526">
        <ele>630</ele>
        <time>2019-03-27T15:55:46Z</time>
      </trkpt>
      <trkpt lat="44.26582" lon="5.75271">
        <ele>630</ele>
        <time>2019-03-27T15:55:47Z</time>
      </trkpt>
      <trkpt lat="44.26586" lon="5.75283">
        <ele>630</ele>
        <time>2019-03-27T15:55:48Z</time>
      </trkpt>
      <trkpt lat="44.2659" lon="5.75295">
        <ele>630</ele>
        <time>2019-03-27T15:55:49Z</time>
      </trkpt>
      <trkpt lat="44.26594" lon="5.75307">
        <ele>630</ele>
        <time>2019-03-27T15:55:50Z</time>
      </trkpt>
      <trkpt lat="44.26598" lon="5.75318">
        <ele>630</ele>
        <time>2019-03-27T15:55:51Z</time>
      </trkpt>
      <trkpt lat="44.26603" lon="5.75329">
        <ele>630</ele>
        <time>2019-03-27T15:55:52Z</time>
      </trkpt>
      <trkpt lat="44.26607" lon="5.75341">
        <ele>630</ele>
        <time>2019-03-27T15:55:53Z</time>
      </trkpt>
      <trkpt lat="44.26612" lon="5.75351">
        <ele>630</ele>
        <time>2019-03-27T15:55:54Z</time>
      </trkpt>
      <trkpt lat="44.26616" lon="5.75363">
        <ele>630</ele>
        <time>2019-03-27T15:55:55Z</time>
      </trkpt>
      <trkpt lat="44.26621" lon="5.75374">
        <ele>630</ele>
        <time>2019-03-27T15:55:56Z</time>
      </trkpt>
      <trkpt lat="44.26626" lon="5.75384">
        <ele>630</ele>
        <time>2019-03-27T15:55:57Z</time>
      </trkpt>
      <trkpt lat="44.26633" lon="5.75394">
        <ele>629</ele>
        <time>2019-03-27T15:55:58Z</time>
      </trkpt>
      <trkpt lat="44.26639" lon="5.75403">
        <ele>629</ele>
        <time>2019-03-27T15:55:59Z</time>
      </trkpt>
      <trkpt lat="44.26644" lon="5.75414">
        <ele>629</ele>
        <time>2019-03-27T15:56:00Z</time>
      </trkpt>
      <trkpt lat="44.26649" lon="5.75424">
        <ele>628</ele>
        <time>2019-03-27T15:56:01Z</time>
      </trkpt>
      <trkpt lat="44.26654" lon="5.75434">
        <ele>628</ele>
        <time>2019-03-27T15:56:02Z</time>
      </trkpt>
      <trkpt lat="44.26658" lon="5.75445">
        <ele>627</ele>
        <time>2019-03-27T15:56:03Z</time>
      </trkpt>
      <trkpt lat="44.26662" lon="5.75456">
        <ele>627</ele>
        <time>2019-03-27T15:56:04Z</time>
      </trkpt>
      <trkpt lat="44.26665" lon="5.75468">
        <ele>627</ele>
        <time>2019-03-27T15:56:05Z</time>
      </trkpt>
      <trkpt lat="44.26667" lon="5.75479">
        <ele>627</ele>
        <time>2019-03-27T15:56:06Z</time>
      </trkpt>
      <trkpt lat="44.2667" lon="5.7549">
        <ele>627</ele>
        <time>2019-03-27T15:56:07Z</time>
      </trkpt>
      <trkpt lat="44.26672" lon="5.75501">
        <ele>626</ele>
        <time>2019-03-27T15:56:08Z</time>
      </trkpt>
      <trkpt lat="44.26673" lon="5.75512">
        <ele>626</ele>
        <time>2019-03-27T15:56:09Z</time>
      </trkpt>
      <trkpt lat="44.26674" lon="5.75524">
        <ele>626</ele>
        <time>2019-03-27T15:56:10Z</time>
      </trkpt>
      <trkpt lat="44.26675" lon="5.75535">
        <ele>626</ele>
        <time>2019-03-27T15:56:11Z</time>
      </trkpt>
      <trkpt lat="44.26677" lon="5.75546">
        <ele>626</ele>
        <time>2019-03-27T15:56:12Z</time>
      </trkpt>
      <trkpt lat="44.26678" lon="5.75557">
        <ele>626</ele>
        <time>2019-03-27T15:56:13Z</time>
      </trkpt>
      <trkpt lat="44.2668" lon="5.75568">
        <ele>626</ele>
        <time>2019-03-27T15:56:14Z</time>
      </trkpt>
      <trkpt lat="44.2668" lon="5.75579">
        <ele>626</ele>
        <time>2019-03-27T15:56:15Z</time>
      </trkpt>
      <trkpt lat="44.26682" lon="5.7559">
        <ele>626</ele>
        <time>2019-03-27T15:56:16Z</time>
      </trkpt>
      <trkpt lat="44.26683" lon="5.75599">
        <ele>626</ele>
        <time>2019-03-27T15:56:17Z</time>
      </trkpt>
      <trkpt lat="44.26685" lon="5.75609">
        <ele>626</ele>
        <time>2019-03-27T15:56:18Z</time>
      </trkpt>
      <trkpt lat="44.26687" lon="5.75618">
        <ele>626</ele>
        <time>2019-03-27T15:56:19Z</time>
      </trkpt>
      <trkpt lat="44.2669" lon="5.75627">
        <ele>626</ele>
        <time>2019-03-27T15:56:20Z</time>
      </trkpt>
      <trkpt lat="44.26694" lon="5.75633">
        <ele>626</ele>
        <time>2019-03-27T15:56:21Z</time>
      </trkpt>
      <trkpt lat="44.26699" lon="5.75639">
        <ele>626</ele>
        <time>2019-03-27T15:56:22Z</time>
      </trkpt>
      <trkpt lat="44.26704" lon="5.75644">
        <ele>626</ele>
        <time>2019-03-27T15:56:23Z</time>
      </trkpt>
      <trkpt lat="44.2671" lon="5.75648">
        <ele>626</ele>
        <time>2019-03-27T15:56:24Z</time>
      </trkpt>
      <trkpt lat="44.26715" lon="5.75654">
        <ele>626</ele>
        <time>2019-03-27T15:56:25Z</time>
      </trkpt>
      <trkpt lat="44.2672" lon="5.75659">
        <ele>626</ele>
        <time>2019-03-27T15:56:26Z</time>
      </trkpt>
      <trkpt lat="44.26722" lon="5.75667">
        <ele>626</ele>
        <time>2019-03-27T15:56:27Z</time>
      </trkpt>
      <trkpt lat="44.26722" lon="5.75674">
        <ele>626</ele>
        <time>2019-03-27T15:56:28Z</time>
      </trkpt>
      <trkpt lat="44.26719" lon="5.75681">
        <ele>626</ele>
        <time>2019-03-27T15:56:29Z</time>
      </trkpt>
      <trkpt lat="44.26714" lon="5.7569">
        <ele>626</ele>
        <time>2019-03-27T15:56:30Z</time>
      </trkpt>
      <trkpt lat="44.26709" lon="5.75697">
        <ele>626</ele>
        <time>2019-03-27T15:56:31Z</time>
      </trkpt>
      <trkpt lat="44.26704" lon="5.75704">
        <ele>626</ele>
        <time>2019-03-27T15:56:32Z</time>
      </trkpt>
      <trkpt lat="44.26699" lon="5.75712">
        <ele>626</ele>
        <time>2019-03-27T15:56:33Z</time>
      </trkpt>
      <trkpt lat="44.26694" lon="5.75721">
        <ele>626</ele>
        <time>2019-03-27T15:56:34Z</time>
      </trkpt>
      <trkpt lat="44.2669" lon="5.75731">
        <ele>626</ele>
        <time>2019-03-27T15:56:35Z</time>
      </trkpt>
      <trkpt lat="44.26687" lon="5.75741">
        <ele>626</ele>
        <time>2019-03-27T15:56:36Z</time>
      </trkpt>
      <trkpt lat="44.26685" lon="5.75752">
        <ele>626</ele>
        <time>2019-03-27T15:56:37Z</time>
      </trkpt>
      <trkpt lat="44.26685" lon="5.75764">
        <ele>626</ele>
        <time>2019-03-27T15:56:38Z</time>
      </trkpt>
      <trkpt lat="44.26684" lon="5.75775">
        <ele>626</ele>
        <time>2019-03-27T15:56:39Z</time>
      </trkpt>
      <trkpt lat="44.26685" lon="5.75787">
        <ele>626</ele>
        <time>2019-03-27T15:56:40Z</time>
      </trkpt>
      <trkpt lat="44.26685" lon="5.75799">
        <ele>626</ele>
        <time>2019-03-27T15:56:41Z</time>
      </trkpt>
      <trkpt lat="44.26686" lon="5.7581">
        <ele>625</ele>
        <time>2019-03-27T15:56:42Z</time>
      </trkpt>
      <trkpt lat="44.26688" lon="5.75822">
        <ele>625</ele>
        <time>2019-03-27T15:56:43Z</time>
      </trkpt>
      <trkpt lat="44.26689" lon="5.75833">
        <ele>625</ele>
        <time>2019-03-27T15:56:44Z</time>
      </trkpt>
      <trkpt lat="44.26692" lon="5.75845">
        <ele>625</ele>
        <time>2019-03-27T15:56:45Z</time>
      </trkpt>
      <trkpt lat="44.26694" lon="5.75856">
        <ele>625</ele>
        <time>2019-03-27T15:56:46Z</time>
      </trkpt>
      <trkpt lat="44.26698" lon="5.75867">
        <ele>625</ele>
        <time>2019-03-27T15:56:47Z</time>
      </trkpt>
      <trkpt lat="44.26701" lon="5.75878">
        <ele>625</ele>
        <time>2019-03-27T15:56:48Z</time>
      </trkpt>
      <trkpt lat="44.26704" lon="5.75889">
        <ele>625</ele>
        <time>2019-03-27T15:56:49Z</time>
      </trkpt>
      <trkpt lat="44.26707" lon="5.759">
        <ele>625</ele>
        <time>2019-03-27T15:56:50Z</time>
      </trkpt>
      <trkpt lat="44.26711" lon="5.7591">
        <ele>625</ele>
        <time>2019-03-27T15:56:51Z</time>
      </trkpt>
      <trkpt lat="44.26715" lon="5.7592">
        <ele>625</ele>
        <time>2019-03-27T15:56:52Z</time>
      </trkpt>
      <trkpt lat="44.26719" lon="5.7593">
        <ele>625</ele>
        <time>2019-03-27T15:56:53Z</time>
      </trkpt>
      <trkpt lat="44.26723" lon="5.7594">
        <ele>625</ele>
        <time>2019-03-27T15:56:54Z</time>
      </trkpt>
      <trkpt lat="44.26728" lon="5.75948">
        <ele>625</ele>
        <time>2019-03-27T15:56:55Z</time>
      </trkpt>
      <trkpt lat="44.26734" lon="5.75957">
        <ele>625</ele>
        <time>2019-03-27T15:56:56Z</time>
      </trkpt>
      <trkpt lat="44.26739" lon="5.75966">
        <ele>625</ele>
        <time>2019-03-27T15:56:57Z</time>
      </trkpt>
      <trkpt lat="44.26743" lon="5.75975">
        <ele>625</ele>
        <time>2019-03-27T15:56:58Z</time>
      </trkpt>
      <trkpt lat="44.26749" lon="5.75984">
        <ele>625</ele>
        <time>2019-03-27T15:56:59Z</time>
      </trkpt>
      <trkpt lat="44.26754" lon="5.75992">
        <ele>625</ele>
        <time>2019-03-27T15:57:00Z</time>
      </trkpt>
      <trkpt lat="44.2676" lon="5.76">
        <ele>625</ele>
        <time>2019-03-27T15:57:01Z</time>
      </trkpt>
      <trkpt lat="44.26766" lon="5.76008">
        <ele>625</ele>
        <time>2019-03-27T15:57:02Z</time>
      </trkpt>
      <trkpt lat="44.26772" lon="5.76015">
        <ele>625</ele>
        <time>2019-03-27T15:57:03Z</time>
      </trkpt>
      <trkpt lat="44.26778" lon="5.76022">
        <ele>625</ele>
        <time>2019-03-27T15:57:04Z</time>
      </trkpt>
      <trkpt lat="44.26785" lon="5.76029">
        <ele>625</ele>
        <time>2019-03-27T15:57:05Z</time>
      </trkpt>
      <trkpt lat="44.26791" lon="5.76036">
        <ele>625</ele>
        <time>2019-03-27T15:57:06Z</time>
      </trkpt>
      <trkpt lat="44.26798" lon="5.76042">
        <ele>625</ele>
        <time>2019-03-27T15:57:07Z</time>
      </trkpt>
      <trkpt lat="44.26804" lon="5.76049">
        <ele>625</ele>
        <time>2019-03-27T15:57:08Z</time>
      </trkpt>
      <trkpt lat="44.2681" lon="5.76056">
        <ele>625</ele>
        <time>2019-03-27T15:57:09Z</time>
      </trkpt>
      <trkpt lat="44.26816" lon="5.76063">
        <ele>625</ele>
        <time>2019-03-27T15:57:10Z</time>
      </trkpt>
      <trkpt lat="44.26821" lon="5.76071">
        <ele>625</ele>
        <time>2019-03-27T15:57:11Z</time>
      </trkpt>
      <trkpt lat="44.26827" lon="5.76079">
        <ele>625</ele>
        <time>2019-03-27T15:57:12Z</time>
      </trkpt>
      <trkpt lat="44.26832" lon="5.76086">
        <ele>625</ele>
        <time>2019-03-27T15:57:13Z</time>
      </trkpt>
      <trkpt lat="44.26837" lon="5.76094">
        <ele>625</ele>
        <time>2019-03-27T15:57:14Z</time>
      </trkpt>
      <trkpt lat="44.26842" lon="5.76102">
        <ele>625</ele>
        <time>2019-03-27T15:57:15Z</time>
      </trkpt>
      <trkpt lat="44.26846" lon="5.76111">
        <ele>625</ele>
        <time>2019-03-27T15:57:16Z</time>
      </trkpt>
      <trkpt lat="44.26851" lon="5.7612">
        <ele>625</ele>
        <time>2019-03-27T15:57:17Z</time>
      </trkpt>
      <trkpt lat="44.26854" lon="5.76129">
        <ele>625</ele>
        <time>2019-03-27T15:57:18Z</time>
      </trkpt>
      <trkpt lat="44.26857" lon="5.76138">
        <ele>625</ele>
        <time>2019-03-27T15:57:19Z</time>
      </trkpt>
      <trkpt lat="44.2686" lon="5.76148">
        <ele>625</ele>
        <time>2019-03-27T15:57:20Z</time>
      </trkpt>
      <trkpt lat="44.26862" lon="5.76158">
        <ele>625</ele>
        <time>2019-03-27T15:57:21Z</time>
      </trkpt>
      <trkpt lat="44.26864" lon="5.76168">
        <ele>625</ele>
        <time>2019-03-27T15:57:22Z</time>
      </trkpt>
      <trkpt lat="44.26865" lon="5.76178">
        <ele>625</ele>
        <time>2019-03-27T15:57:23Z</time>
      </trkpt>
      <trkpt lat="44.26866" lon="5.76189">
        <ele>625</ele>
        <time>2019-03-27T15:57:24Z</time>
      </trkpt>
      <trkpt lat="44.26866" lon="5.76199">
        <ele>625</ele>
        <time>2019-03-27T15:57:25Z</time>
      </trkpt>
      <trkpt lat="44.26865" lon="5.7621">
        <ele>625</ele>
        <time>2019-03-27T15:57:26Z</time>
      </trkpt>
      <trkpt lat="44.26864" lon="5.7622">
        <ele>625</ele>
        <time>2019-03-27T15:57:27Z</time>
      </trkpt>
      <trkpt lat="44.26862" lon="5.7623">
        <ele>625</ele>
        <time>2019-03-27T15:57:28Z</time>
      </trkpt>
      <trkpt lat="44.26859" lon="5.7624">
        <ele>625</ele>
        <time>2019-03-27T15:57:29Z</time>
      </trkpt>
      <trkpt lat="44.26855" lon="5.76249">
        <ele>625</ele>
        <time>2019-03-27T15:57:30Z</time>
      </trkpt>
      <trkpt lat="44.2685" lon="5.76257">
        <ele>625</ele>
        <time>2019-03-27T15:57:31Z</time>
      </trkpt>
      <trkpt lat="44.26845" lon="5.76264">
        <ele>625</ele>
        <time>2019-03-27T15:57:32Z</time>
      </trkpt>
      <trkpt lat="44.2684" lon="5.7627">
        <ele>625</ele>
        <time>2019-03-27T15:57:33Z</time>
      </trkpt>
      <trkpt lat="44.26833" lon="5.76276">
        <ele>625</ele>
        <time>2019-03-27T15:57:34Z</time>
      </trkpt>
      <trkpt lat="44.26826" lon="5.76282">
        <ele>625</ele>
        <time>2019-03-27T15:57:35Z</time>
      </trkpt>
      <trkpt lat="44.26819" lon="5.76286">
        <ele>625</ele>
        <time>2019-03-27T15:57:36Z</time>
      </trkpt>
      <trkpt lat="44.26812" lon="5.76289">
        <ele>625</ele>
        <time>2019-03-27T15:57:37Z</time>
      </trkpt>
      <trkpt lat="44.26804" lon="5.76291">
        <ele>625</ele>
        <time>2019-03-27T15:57:38Z</time>
      </trkpt>
      <trkpt lat="44.26797" lon="5.76294">
        <ele>625</ele>
        <time>2019-03-27T15:57:39Z</time>
      </trkpt>
      <trkpt lat="44.2679" lon="5.76297">
        <ele>625</ele>
        <time>2019-03-27T15:57:40Z</time>
      </trkpt>
      <trkpt lat="44.26783" lon="5.76299">
        <ele>625</ele>
        <time>2019-03-27T15:57:41Z</time>
      </trkpt>
      <trkpt lat="44.26775" lon="5.763">
        <ele>625</ele>
        <time>2019-03-27T15:57:42Z</time>
      </trkpt>
      <trkpt lat="44.26768" lon="5.76302">
        <ele>625</ele>
        <time>2019-03-27T15:57:43Z</time>
      </trkpt>
      <trkpt lat="44.26761" lon="5.76304">
        <ele>625</ele>
        <time>2019-03-27T15:57:44Z</time>
      </trkpt>
      <trkpt lat="44.26754" lon="5.76306">
        <ele>625</ele>
        <time>2019-03-27T15:57:45Z</time>
      </trkpt>
      <trkpt lat="44.26746" lon="5.76308">
        <ele>625</ele>
        <time>2019-03-27T15:57:46Z</time>
      </trkpt>
      <trkpt lat="44.2674" lon="5.7631">
        <ele>625</ele>
        <time>2019-03-27T15:57:47Z</time>
      </trkpt>
      <trkpt lat="44.26732" lon="5.76312">
        <ele>625</ele>
        <time>2019-03-27T15:57:48Z</time>
      </trkpt>
      <trkpt lat="44.26725" lon="5.76314">
        <ele>625</ele>
        <time>2019-03-27T15:57:49Z</time>
      </trkpt>
      <trkpt lat="44.26718" lon="5.76318">
        <ele>625</ele>
        <time>2019-03-27T15:57:50Z</time>
      </trkpt>
      <trkpt lat="44.26711" lon="5.76321">
        <ele>625</ele>
        <time>2019-03-27T15:57:51Z</time>
      </trkpt>
      <trkpt lat="44.26704" lon="5.76325">
        <ele>625</ele>
        <time>2019-03-27T15:57:52Z</time>
      </trkpt>
      <trkpt lat="44.26697" lon="5.76329">
        <ele>625</ele>
        <time>2019-03-27T15:57:53Z</time>
      </trkpt>
      <trkpt lat="44.2669" lon="5.76332">
        <ele>625</ele>
        <time>2019-03-27T15:57:54Z</time>
      </trkpt>
      <trkpt lat="44.26684" lon="5.76336">
        <ele>625</ele>
        <time>2019-03-27T15:57:55Z</time>
      </trkpt>
      <trkpt lat="44.26677" lon="5.7634">
        <ele>625</ele>
        <time>2019-03-27T15:57:56Z</time>
      </trkpt>
      <trkpt lat="44.26671" lon="5.76344">
        <ele>625</ele>
        <time>2019-03-27T15:57:57Z</time>
      </trkpt>
      <trkpt lat="44.26665" lon="5.76347">
        <ele>625</ele>
        <time>2019-03-27T15:57:58Z</time>
      </trkpt>
      <trkpt lat="44.26658" lon="5.76349">
        <ele>625</ele>
        <time>2019-03-27T15:57:59Z</time>
      </trkpt>
      <trkpt lat="44.26652" lon="5.76352">
        <ele>625</ele>
        <time>2019-03-27T15:58:00Z</time>
      </trkpt>
      <trkpt lat="44.26645" lon="5.76355">
        <ele>625</ele>
        <time>2019-03-27T15:58:01Z</time>
      </trkpt>
      <trkpt lat="44.26639" lon="5.76358">
        <ele>625</ele>
        <time>2019-03-27T15:58:02Z</time>
      </trkpt>
      <trkpt lat="44.26632" lon="5.76361">
        <ele>625</ele>
        <time>2019-03-27T15:58:03Z</time>
      </trkpt>
      <trkpt lat="44.26626" lon="5.76363">
        <ele>625</ele>
        <time>2019-03-27T15:58:04Z</time>
      </trkpt>
      <trkpt lat="44.26619" lon="5.76365">
        <ele>625</ele>
        <time>2019-03-27T15:58:05Z</time>
      </trkpt>
      <trkpt lat="44.26612" lon="5.76367">
        <ele>625</ele>
        <time>2019-03-27T15:58:06Z</time>
      </trkpt>
      <trkpt lat="44.26606" lon="5.76369">
        <ele>625</ele>
        <time>2019-03-27T15:58:07Z</time>
      </trkpt>
      <trkpt lat="44.26599" lon="5.76371">
        <ele>625</ele>
        <time>2019-03-27T15:58:08Z</time>
      </trkpt>
      <trkpt lat="44.26593" lon="5.76373">
        <ele>625</ele>
        <time>2019-03-27T15:58:09Z</time>
      </trkpt>
      <trkpt lat="44.26586" lon="5.76375">
        <ele>625</ele>
        <time>2019-03-27T15:58:10Z</time>
      </trkpt>
      <trkpt lat="44.2658" lon="5.76378">
        <ele>625</ele>
        <time>2019-03-27T15:58:11Z</time>
      </trkpt>
      <trkpt lat="44.26574" lon="5.76382">
        <ele>625</ele>
        <time>2019-03-27T15:58:12Z</time>
      </trkpt>
      <trkpt lat="44.26568" lon="5.76387">
        <ele>625</ele>
        <time>2019-03-27T15:58:13Z</time>
      </trkpt>
      <trkpt lat="44.26563" lon="5.76393">
        <ele>625</ele>
        <time>2019-03-27T15:58:14Z</time>
      </trkpt>
      <trkpt lat="44.26558" lon="5.76401">
        <ele>625</ele>
        <time>2019-03-27T15:58:15Z</time>
      </trkpt>
      <trkpt lat="44.26554" lon="5.76409">
        <ele>625</ele>
        <time>2019-03-27T15:58:16Z</time>
      </trkpt>
      <trkpt lat="44.26551" lon="5.76417">
        <ele>625</ele>
        <time>2019-03-27T15:58:17Z</time>
      </trkpt>
      <trkpt lat="44.26547" lon="5.76425">
        <ele>625</ele>
        <time>2019-03-27T15:58:18Z</time>
      </trkpt>
      <trkpt lat="44.26544" lon="5.76433">
        <ele>625</ele>
        <time>2019-03-27T15:58:19Z</time>
      </trkpt>
      <trkpt lat="44.26541" lon="5.76441">
        <ele>625</ele>
        <time>2019-03-27T15:58:20Z</time>
      </trkpt>
      <trkpt lat="44.26539" lon="5.7645">
        <ele>625</ele>
        <time>2019-03-27T15:58:21Z</time>
      </trkpt>
      <trkpt lat="44.26538" lon="5.76459">
        <ele>625</ele>
        <time>2019-03-27T15:58:22Z</time>
      </trkpt>
      <trkpt lat="44.26539" lon="5.76469">
        <ele>625</ele>
        <time>2019-03-27T15:58:23Z</time>
      </trkpt>
      <trkpt lat="44.26542" lon="5.76477">
        <ele>625</ele>
        <time>2019-03-27T15:58:24Z</time>
      </trkpt>
      <trkpt lat="44.26547" lon="5.76484">
        <ele>625</ele>
        <time>2019-03-27T15:58:25Z</time>
      </trkpt>
      <trkpt lat="44.26553" lon="5.76488">
        <ele>625</ele>
        <time>2019-03-27T15:58:26Z</time>
      </trkpt>
      <trkpt lat="44.26561" lon="5.76492">
        <ele>625</ele>
        <time>2019-03-27T15:58:27Z</time>
      </trkpt>
      <trkpt lat="44.26568" lon="5.76496">
        <ele>625</ele>
        <time>2019-03-27T15:58:28Z</time>
      </trkpt>
      <trkpt lat="44.26575" lon="5.76501">
        <ele>625</ele>
        <time>2019-03-27T15:58:29Z</time>
      </trkpt>
      <trkpt lat="44.26582" lon="5.76506">
        <ele>625</ele>
        <time>2019-03-27T15:58:30Z</time>
      </trkpt>
      <trkpt lat="44.26589" lon="5.76513">
        <ele>625</ele>
        <time>2019-03-27T15:58:31Z</time>
      </trkpt>
      <trkpt lat="44.26595" lon="5.76521">
        <ele>625</ele>
        <time>2019-03-27T15:58:32Z</time>
      </trkpt>
      <trkpt lat="44.26601" lon="5.76529">
        <ele>625</ele>
        <time>2019-03-27T15:58:33Z</time>
      </trkpt>
      <trkpt lat="44.26606" lon="5.76539">
        <ele>624</ele>
        <time>2019-03-27T15:58:34Z</time>
      </trkpt>
      <trkpt lat="44.26611" lon="5.76548">
        <ele>623</ele>
        <time>2019-03-27T15:58:35Z</time>
      </trkpt>
      <trkpt lat="44.26616" lon="5.76559">
        <ele>623</ele>
        <time>2019-03-27T15:58:36Z</time>
      </trkpt>
      <trkpt lat="44.2662" lon="5.76568">
        <ele>623</ele>
        <time>2019-03-27T15:58:37Z</time>
      </trkpt>
      <trkpt lat="44.26631" lon="5.76598">
        <ele>623</ele>
        <time>2019-03-27T15:58:40Z</time>
      </trkpt>
      <trkpt lat="44.26633" lon="5.76609">
        <ele>622</ele>
        <time>2019-03-27T15:58:41Z</time>
      </trkpt>
      <trkpt lat="44.26633" lon="5.7662">
        <ele>622</ele>
        <time>2019-03-27T15:58:42Z</time>
      </trkpt>
      <trkpt lat="44.26631" lon="5.76631">
        <ele>622</ele>
        <time>2019-03-27T15:58:43Z</time>
      </trkpt>
      <trkpt lat="44.2663" lon="5.76641">
        <ele>622</ele>
        <time>2019-03-27T15:58:44Z</time>
      </trkpt>
      <trkpt lat="44.26628" lon="5.76651">
        <ele>622</ele>
        <time>2019-03-27T15:58:45Z</time>
      </trkpt>
      <trkpt lat="44.26626" lon="5.76661">
        <ele>622</ele>
        <time>2019-03-27T15:58:46Z</time>
      </trkpt>
      <trkpt lat="44.26629" lon="5.7667">
        <ele>622</ele>
        <time>2019-03-27T15:58:47Z</time>
      </trkpt>
      <trkpt lat="44.26626" lon="5.7668">
        <ele>622</ele>
        <time>2019-03-27T15:58:48Z</time>
      </trkpt>
      <trkpt lat="44.26609" lon="5.76695">
        <ele>622</ele>
        <time>2019-03-27T15:58:49Z</time>
      </trkpt>
      <trkpt lat="44.26601" lon="5.76702">
        <ele>622</ele>
        <time>2019-03-27T15:58:50Z</time>
      </trkpt>
      <trkpt lat="44.26594" lon="5.76707">
        <ele>622</ele>
        <time>2019-03-27T15:58:51Z</time>
      </trkpt>
      <trkpt lat="44.26588" lon="5.76713">
        <ele>622</ele>
        <time>2019-03-27T15:58:52Z</time>
      </trkpt>
      <trkpt lat="44.26579" lon="5.7672">
        <ele>622</ele>
        <time>2019-03-27T15:58:53Z</time>
      </trkpt>
      <trkpt lat="44.26569" lon="5.76729">
        <ele>621</ele>
        <time>2019-03-27T15:58:54Z</time>
      </trkpt>
      <trkpt lat="44.26561" lon="5.76739">
        <ele>621</ele>
        <time>2019-03-27T15:58:55Z</time>
      </trkpt>
      <trkpt lat="44.26554" lon="5.76749">
        <ele>621</ele>
        <time>2019-03-27T15:58:56Z</time>
      </trkpt>
      <trkpt lat="44.26548" lon="5.76757">
        <ele>620</ele>
        <time>2019-03-27T15:58:57Z</time>
      </trkpt>
      <trkpt lat="44.26545" lon="5.76767">
        <ele>619</ele>
        <time>2019-03-27T15:58:58Z</time>
      </trkpt>
      <trkpt lat="44.26542" lon="5.76777">
        <ele>619</ele>
        <time>2019-03-27T15:58:59Z</time>
      </trkpt>
      <trkpt lat="44.26539" lon="5.76789">
        <ele>619</ele>
        <time>2019-03-27T15:59:00Z</time>
      </trkpt>
      <trkpt lat="44.26534" lon="5.76801">
        <ele>619</ele>
        <time>2019-03-27T15:59:01Z</time>
      </trkpt>
      <trkpt lat="44.26529" lon="5.76811">
        <ele>619</ele>
        <time>2019-03-27T15:59:02Z</time>
      </trkpt>
      <trkpt lat="44.26522" lon="5.76819">
        <ele>619</ele>
        <time>2019-03-27T15:59:03Z</time>
      </trkpt>
      <trkpt lat="44.26513" lon="5.76824">
        <ele>619</ele>
        <time>2019-03-27T15:59:04Z</time>
      </trkpt>
      <trkpt lat="44.26503" lon="5.76829">
        <ele>619</ele>
        <time>2019-03-27T15:59:05Z</time>
      </trkpt>
      <trkpt lat="44.26495" lon="5.76834">
        <ele>619</ele>
        <time>2019-03-27T15:59:06Z</time>
      </trkpt>
      <trkpt lat="44.26487" lon="5.76837">
        <ele>619</ele>
        <time>2019-03-27T15:59:07Z</time>
      </trkpt>
      <trkpt lat="44.26479" lon="5.76841">
        <ele>619</ele>
        <time>2019-03-27T15:59:08Z</time>
      </trkpt>
      <trkpt lat="44.26472" lon="5.76845">
        <ele>619</ele>
        <time>2019-03-27T15:59:09Z</time>
      </trkpt>
      <trkpt lat="44.26465" lon="5.76849">
        <ele>619</ele>
        <time>2019-03-27T15:59:10Z</time>
      </trkpt>
      <trkpt lat="44.2646" lon="5.76851">
        <ele>619</ele>
        <time>2019-03-27T15:59:11Z</time>
      </trkpt>
      <trkpt lat="44.26453" lon="5.76859">
        <ele>619</ele>
        <time>2019-03-27T15:59:12Z</time>
      </trkpt>
      <trkpt lat="44.26447" lon="5.76869">
        <ele>619</ele>
        <time>2019-03-27T15:59:13Z</time>
      </trkpt>
      <trkpt lat="44.26439" lon="5.76877">
        <ele>619</ele>
        <time>2019-03-27T15:59:14Z</time>
      </trkpt>
      <trkpt lat="44.26437" lon="5.76886">
        <ele>619</ele>
        <time>2019-03-27T15:59:15Z</time>
      </trkpt>
      <trkpt lat="44.26439" lon="5.76896">
        <ele>619</ele>
        <time>2019-03-27T15:59:16Z</time>
      </trkpt>
      <trkpt lat="44.26448" lon="5.76906">
        <ele>619</ele>
        <time>2019-03-27T15:59:17Z</time>
      </trkpt>
      <trkpt lat="44.26455" lon="5.76913">
        <ele>618</ele>
        <time>2019-03-27T15:59:18Z</time>
      </trkpt>
      <trkpt lat="44.26466" lon="5.76919">
        <ele>617</ele>
        <time>2019-03-27T15:59:19Z</time>
      </trkpt>
      <trkpt lat="44.26479" lon="5.76921">
        <ele>616</ele>
        <time>2019-03-27T15:59:20Z</time>
      </trkpt>
      <trkpt lat="44.26492" lon="5.76921">
        <ele>616</ele>
        <time>2019-03-27T15:59:21Z</time>
      </trkpt>
      <trkpt lat="44.26506" lon="5.76919">
        <ele>616</ele>
        <time>2019-03-27T15:59:22Z</time>
      </trkpt>
      <trkpt lat="44.26521" lon="5.76917">
        <ele>616</ele>
        <time>2019-03-27T15:59:23Z</time>
      </trkpt>
      <trkpt lat="44.26533" lon="5.76916">
        <ele>616</ele>
        <time>2019-03-27T15:59:24Z</time>
      </trkpt>
      <trkpt lat="44.26555" lon="5.7692">
        <ele>616</ele>
        <time>2019-03-27T15:59:26Z</time>
      </trkpt>
      <trkpt lat="44.26565" lon="5.76923">
        <ele>616</ele>
        <time>2019-03-27T15:59:27Z</time>
      </trkpt>
      <trkpt lat="44.26577" lon="5.76925">
        <ele>615</ele>
        <time>2019-03-27T15:59:28Z</time>
      </trkpt>
      <trkpt lat="44.26588" lon="5.76926">
        <ele>615</ele>
        <time>2019-03-27T15:59:29Z</time>
      </trkpt>
      <trkpt lat="44.26598" lon="5.76927">
        <ele>614</ele>
        <time>2019-03-27T15:59:30Z</time>
      </trkpt>
      <trkpt lat="44.26608" lon="5.76928">
        <ele>614</ele>
        <time>2019-03-27T15:59:31Z</time>
      </trkpt>
      <trkpt lat="44.2662" lon="5.76927">
        <ele>614</ele>
        <time>2019-03-27T15:59:32Z</time>
      </trkpt>
      <trkpt lat="44.2663" lon="5.76928">
        <ele>614</ele>
        <time>2019-03-27T15:59:33Z</time>
      </trkpt>
      <trkpt lat="44.26642" lon="5.76927">
        <ele>614</ele>
        <time>2019-03-27T15:59:34Z</time>
      </trkpt>
      <trkpt lat="44.26654" lon="5.76927">
        <ele>614</ele>
        <time>2019-03-27T15:59:35Z</time>
      </trkpt>
      <trkpt lat="44.26707" lon="5.7707">
        <ele>613</ele>
        <time>2019-03-27T15:59:51Z</time>
      </trkpt>
      <trkpt lat="44.26705" lon="5.7708">
        <ele>612</ele>
        <time>2019-03-27T15:59:52Z</time>
      </trkpt>
      <trkpt lat="44.26702" lon="5.77087">
        <ele>611</ele>
        <time>2019-03-27T15:59:53Z</time>
      </trkpt>
      <trkpt lat="44.267" lon="5.77094">
        <ele>610</ele>
        <time>2019-03-27T15:59:54Z</time>
      </trkpt>
      <trkpt lat="44.26697" lon="5.77102">
        <ele>609</ele>
        <time>2019-03-27T15:59:55Z</time>
      </trkpt>
      <trkpt lat="44.26692" lon="5.7711">
        <ele>608</ele>
        <time>2019-03-27T15:59:56Z</time>
      </trkpt>
      <trkpt lat="44.26687" lon="5.77117">
        <ele>607</ele>
        <time>2019-03-27T15:59:57Z</time>
      </trkpt>
      <trkpt lat="44.26683" lon="5.77124">
        <ele>606</ele>
        <time>2019-03-27T15:59:58Z</time>
      </trkpt>
      <trkpt lat="44.26677" lon="5.77132">
        <ele>606</ele>
        <time>2019-03-27T15:59:59Z</time>
      </trkpt>
      <trkpt lat="44.26673" lon="5.77138">
        <ele>606</ele>
        <time>2019-03-27T16:00:00Z</time>
      </trkpt>
      <trkpt lat="44.26667" lon="5.77145">
        <ele>606</ele>
        <time>2019-03-27T16:00:01Z</time>
      </trkpt>
      <trkpt lat="44.26661" lon="5.77151">
        <ele>606</ele>
        <time>2019-03-27T16:00:02Z</time>
      </trkpt>
      <trkpt lat="44.26656" lon="5.77157">
        <ele>606</ele>
        <time>2019-03-27T16:00:03Z</time>
      </trkpt>
      <trkpt lat="44.26652" lon="5.77164">
        <ele>606</ele>
        <time>2019-03-27T16:00:04Z</time>
      </trkpt>
      <trkpt lat="44.26647" lon="5.7717">
        <ele>606</ele>
        <time>2019-03-27T16:00:05Z</time>
      </trkpt>
      <trkpt lat="44.26642" lon="5.77176">
        <ele>606</ele>
        <time>2019-03-27T16:00:06Z</time>
      </trkpt>
      <trkpt lat="44.26637" lon="5.77182">
        <ele>606</ele>
        <time>2019-03-27T16:00:07Z</time>
      </trkpt>
      <trkpt lat="44.26631" lon="5.77188">
        <ele>606</ele>
        <time>2019-03-27T16:00:08Z</time>
      </trkpt>
      <trkpt lat="44.26625" lon="5.77193">
        <ele>606</ele>
        <time>2019-03-27T16:00:09Z</time>
      </trkpt>
      <trkpt lat="44.26618" lon="5.77198">
        <ele>606</ele>
        <time>2019-03-27T16:00:10Z</time>
      </trkpt>
      <trkpt lat="44.26612" lon="5.77203">
        <ele>606</ele>
        <time>2019-03-27T16:00:11Z</time>
      </trkpt>
      <trkpt lat="44.26607" lon="5.77208">
        <ele>606</ele>
        <time>2019-03-27T16:00:12Z</time>
      </trkpt>
      <trkpt lat="44.26601" lon="5.77213">
        <ele>606</ele>
        <time>2019-03-27T16:00:13Z</time>
      </trkpt>
      <trkpt lat="44.26596" lon="5.7722">
        <ele>606</ele>
        <time>2019-03-27T16:00:14Z</time>
      </trkpt>
      <trkpt lat="44.26591" lon="5.77227">
        <ele>606</ele>
        <time>2019-03-27T16:00:15Z</time>
      </trkpt>
      <trkpt lat="44.26588" lon="5.77238">
        <ele>606</ele>
        <time>2019-03-27T16:00:16Z</time>
      </trkpt>
      <trkpt lat="44.26588" lon="5.77249">
        <ele>606</ele>
        <time>2019-03-27T16:00:17Z</time>
      </trkpt>
      <trkpt lat="44.26591" lon="5.77258">
        <ele>606</ele>
        <time>2019-03-27T16:00:18Z</time>
      </trkpt>
      <trkpt lat="44.26596" lon="5.77267">
        <ele>606</ele>
        <time>2019-03-27T16:00:19Z</time>
      </trkpt>
      <trkpt lat="44.26602" lon="5.77274">
        <ele>606</ele>
        <time>2019-03-27T16:00:20Z</time>
      </trkpt>
      <trkpt lat="44.26607" lon="5.77281">
        <ele>606</ele>
        <time>2019-03-27T16:00:21Z</time>
      </trkpt>
      <trkpt lat="44.26612" lon="5.77288">
        <ele>605</ele>
        <time>2019-03-27T16:00:22Z</time>
      </trkpt>
      <trkpt lat="44.26618" lon="5.77294">
        <ele>605</ele>
        <time>2019-03-27T16:00:23Z</time>
      </trkpt>
      <trkpt lat="44.26624" lon="5.773">
        <ele>605</ele>
        <time>2019-03-27T16:00:24Z</time>
      </trkpt>
      <trkpt lat="44.2663" lon="5.77305">
        <ele>605</ele>
        <time>2019-03-27T16:00:25Z</time>
      </trkpt>
      <trkpt lat="44.26637" lon="5.77311">
        <ele>605</ele>
        <time>2019-03-27T16:00:26Z</time>
      </trkpt>
      <trkpt lat="44.26643" lon="5.77316">
        <ele>605</ele>
        <time>2019-03-27T16:00:27Z</time>
      </trkpt>
      <trkpt lat="44.2665" lon="5.77322">
        <ele>605</ele>
        <time>2019-03-27T16:00:28Z</time>
      </trkpt>
      <trkpt lat="44.26655" lon="5.77329">
        <ele>605</ele>
        <time>2019-03-27T16:00:29Z</time>
      </trkpt>
      <trkpt lat="44.26661" lon="5.77336">
        <ele>605</ele>
        <time>2019-03-27T16:00:30Z</time>
      </trkpt>
      <trkpt lat="44.26665" lon="5.77344">
        <ele>605</ele>
        <time>2019-03-27T16:00:31Z</time>
      </trkpt>
      <trkpt lat="44.26669" lon="5.77353">
        <ele>605</ele>
        <time>2019-03-27T16:00:32Z</time>
      </trkpt>
      <trkpt lat="44.26672" lon="5.77361">
        <ele>605</ele>
        <time>2019-03-27T16:00:33Z</time>
      </trkpt>
      <trkpt lat="44.26675" lon="5.7737">
        <ele>605</ele>
        <time>2019-03-27T16:00:34Z</time>
      </trkpt>
      <trkpt lat="44.26677" lon="5.77377">
        <ele>605</ele>
        <time>2019-03-27T16:00:35Z</time>
      </trkpt>
      <trkpt lat="44.2668" lon="5.77384">
        <ele>605</ele>
        <time>2019-03-27T16:00:36Z</time>
      </trkpt>
      <trkpt lat="44.26685" lon="5.7739">
        <ele>605</ele>
        <time>2019-03-27T16:00:37Z</time>
      </trkpt>
      <trkpt lat="44.26689" lon="5.77397">
        <ele>605</ele>
        <time>2019-03-27T16:00:38Z</time>
      </trkpt>
      <trkpt lat="44.26693" lon="5.77404">
        <ele>605</ele>
        <time>2019-03-27T16:00:39Z</time>
      </trkpt>
      <trkpt lat="44.26699" lon="5.77411">
        <ele>605</ele>
        <time>2019-03-27T16:00:40Z</time>
      </trkpt>
      <trkpt lat="44.26703" lon="5.77419">
        <ele>605</ele>
        <time>2019-03-27T16:00:41Z</time>
      </trkpt>
      <trkpt lat="44.26706" lon="5.77427">
        <ele>605</ele>
        <time>2019-03-27T16:00:42Z</time>
      </trkpt>
      <trkpt lat="44.26711" lon="5.77435">
        <ele>605</ele>
        <time>2019-03-27T16:00:43Z</time>
      </trkpt>
      <trkpt lat="44.26714" lon="5.77442">
        <ele>605</ele>
        <time>2019-03-27T16:00:44Z</time>
      </trkpt>
      <trkpt lat="44.26719" lon="5.7745">
        <ele>605</ele>
        <time>2019-03-27T16:00:45Z</time>
      </trkpt>
      <trkpt lat="44.26723" lon="5.77458">
        <ele>605</ele>
        <time>2019-03-27T16:00:46Z</time>
      </trkpt>
      <trkpt lat="44.26728" lon="5.77465">
        <ele>605</ele>
        <time>2019-03-27T16:00:47Z</time>
      </trkpt>
      <trkpt lat="44.26732" lon="5.77473">
        <ele>605</ele>
        <time>2019-03-27T16:00:48Z</time>
      </trkpt>
      <trkpt lat="44.26737" lon="5.7748">
        <ele>605</ele>
        <time>2019-03-27T16:00:49Z</time>
      </trkpt>
      <trkpt lat="44.26741" lon="5.77487">
        <ele>605</ele>
        <time>2019-03-27T16:00:50Z</time>
      </trkpt>
      <trkpt lat="44.26746" lon="5.77494">
        <ele>605</ele>
        <time>2019-03-27T16:00:51Z</time>
      </trkpt>
      <trkpt lat="44.26751" lon="5.77502">
        <ele>605</ele>
        <time>2019-03-27T16:00:52Z</time>
      </trkpt>
      <trkpt lat="44.26756" lon="5.77509">
        <ele>605</ele>
        <time>2019-03-27T16:00:53Z</time>
      </trkpt>
      <trkpt lat="44.2676" lon="5.77517">
        <ele>605</ele>
        <time>2019-03-27T16:00:54Z</time>
      </trkpt>
      <trkpt lat="44.26765" lon="5.77525">
        <ele>605</ele>
        <time>2019-03-27T16:00:55Z</time>
      </trkpt>
      <trkpt lat="44.2677" lon="5.77532">
        <ele>605</ele>
        <time>2019-03-27T16:00:56Z</time>
      </trkpt>
      <trkpt lat="44.26775" lon="5.7754">
        <ele>605</ele>
        <time>2019-03-27T16:00:57Z</time>
      </trkpt>
      <trkpt lat="44.26781" lon="5.77545">
        <ele>605</ele>
        <time>2019-03-27T16:00:58Z</time>
      </trkpt>
      <trkpt lat="44.26793" lon="5.77553">
        <ele>605</ele>
        <time>2019-03-27T16:01:00Z</time>
      </trkpt>
      <trkpt lat="44.26797" lon="5.77555">
        <ele>605</ele>
        <time>2019-03-27T16:01:01Z</time>
      </trkpt>
      <trkpt lat="44.26803" lon="5.77554">
        <ele>605</ele>
        <time>2019-03-27T16:01:02Z</time>
      </trkpt>
      <trkpt lat="44.26807" lon="5.77553">
        <ele>605</ele>
        <time>2019-03-27T16:01:03Z</time>
      </trkpt>
      <trkpt lat="44.26814" lon="5.77549">
        <ele>605</ele>
        <time>2019-03-27T16:01:04Z</time>
      </trkpt>
      <trkpt lat="44.26823" lon="5.77542">
        <ele>605</ele>
        <time>2019-03-27T16:01:05Z</time>
      </trkpt>
      <trkpt lat="44.26831" lon="5.77537">
        <ele>605</ele>
        <time>2019-03-27T16:01:06Z</time>
      </trkpt>
      <trkpt lat="44.26837" lon="5.77533">
        <ele>605</ele>
        <time>2019-03-27T16:01:07Z</time>
      </trkpt>
      <trkpt lat="44.26845" lon="5.77528">
        <ele>605</ele>
        <time>2019-03-27T16:01:08Z</time>
      </trkpt>
      <trkpt lat="44.26852" lon="5.77523">
        <ele>605</ele>
        <time>2019-03-27T16:01:09Z</time>
      </trkpt>
      <trkpt lat="44.26859" lon="5.77518">
        <ele>605</ele>
        <time>2019-03-27T16:01:10Z</time>
      </trkpt>
      <trkpt lat="44.26866" lon="5.77513">
        <ele>605</ele>
        <time>2019-03-27T16:01:11Z</time>
      </trkpt>
      <trkpt lat="44.26872" lon="5.77508">
        <ele>605</ele>
        <time>2019-03-27T16:01:12Z</time>
      </trkpt>
      <trkpt lat="44.2688" lon="5.77502">
        <ele>605</ele>
        <time>2019-03-27T16:01:13Z</time>
      </trkpt>
      <trkpt lat="44.26887" lon="5.77497">
        <ele>605</ele>
        <time>2019-03-27T16:01:14Z</time>
      </trkpt>
      <trkpt lat="44.26894" lon="5.77491">
        <ele>604</ele>
        <time>2019-03-27T16:01:15Z</time>
      </trkpt>
      <trkpt lat="44.26901" lon="5.77485">
        <ele>604</ele>
        <time>2019-03-27T16:01:16Z</time>
      </trkpt>
      <trkpt lat="44.26907" lon="5.7748">
        <ele>604</ele>
        <time>2019-03-27T16:01:17Z</time>
      </trkpt>
      <trkpt lat="44.26914" lon="5.77473">
        <ele>604</ele>
        <time>2019-03-27T16:01:18Z</time>
      </trkpt>
      <trkpt lat="44.2692" lon="5.77468">
        <ele>604</ele>
        <time>2019-03-27T16:01:19Z</time>
      </trkpt>
      <trkpt lat="44.26926" lon="5.77463">
        <ele>604</ele>
        <time>2019-03-27T16:01:20Z</time>
      </trkpt>
      <trkpt lat="44.26933" lon="5.77459">
        <ele>604</ele>
        <time>2019-03-27T16:01:21Z</time>
      </trkpt>
      <trkpt lat="44.2694" lon="5.77457">
        <ele>604</ele>
        <time>2019-03-27T16:01:22Z</time>
      </trkpt>
      <trkpt lat="44.26949" lon="5.77454">
        <ele>604</ele>
        <time>2019-03-27T16:01:23Z</time>
      </trkpt>
      <trkpt lat="44.26955" lon="5.77452">
        <ele>604</ele>
        <time>2019-03-27T16:01:24Z</time>
      </trkpt>
      <trkpt lat="44.26962" lon="5.77449">
        <ele>604</ele>
        <time>2019-03-27T16:01:25Z</time>
      </trkpt>
      <trkpt lat="44.26968" lon="5.77446">
        <ele>604</ele>
        <time>2019-03-27T16:01:26Z</time>
      </trkpt>
      <trkpt lat="44.26974" lon="5.77442">
        <ele>604</ele>
        <time>2019-03-27T16:01:27Z</time>
      </trkpt>
      <trkpt lat="44.26981" lon="5.77438">
        <ele>604</ele>
        <time>2019-03-27T16:01:28Z</time>
      </trkpt>
      <trkpt lat="44.26987" lon="5.77436">
        <ele>604</ele>
        <time>2019-03-27T16:01:29Z</time>
      </trkpt>
      <trkpt lat="44.26994" lon="5.77435">
        <ele>604</ele>
        <time>2019-03-27T16:01:30Z</time>
      </trkpt>
      <trkpt lat="44.27" lon="5.77436">
        <ele>604</ele>
        <time>2019-03-27T16:01:31Z</time>
      </trkpt>
      <trkpt lat="44.27006" lon="5.77441">
        <ele>604</ele>
        <time>2019-03-27T16:01:32Z</time>
      </trkpt>
      <trkpt lat="44.27012" lon="5.77446">
        <ele>603</ele>
        <time>2019-03-27T16:01:33Z</time>
      </trkpt>
      <trkpt lat="44.27018" lon="5.7745">
        <ele>603</ele>
        <time>2019-03-27T16:01:34Z</time>
      </trkpt>
      <trkpt lat="44.27024" lon="5.77455">
        <ele>602</ele>
        <time>2019-03-27T16:01:35Z</time>
      </trkpt>
      <trkpt lat="44.27029" lon="5.7746">
        <ele>602</ele>
        <time>2019-03-27T16:01:36Z</time>
      </trkpt>
      <trkpt lat="44.27035" lon="5.77467">
        <ele>601</ele>
        <time>2019-03-27T16:01:37Z</time>
      </trkpt>
      <trkpt lat="44.27042" lon="5.77471">
        <ele>601</ele>
        <time>2019-03-27T16:01:38Z</time>
      </trkpt>
      <trkpt lat="44.27048" lon="5.77476">
        <ele>601</ele>
        <time>2019-03-27T16:01:39Z</time>
      </trkpt>
      <trkpt lat="44.27053" lon="5.77481">
        <ele>601</ele>
        <time>2019-03-27T16:01:40Z</time>
      </trkpt>
      <trkpt lat="44.2706" lon="5.77483">
        <ele>601</ele>
        <time>2019-03-27T16:01:41Z</time>
      </trkpt>
      <trkpt lat="44.27064" lon="5.77489">
        <ele>601</ele>
        <time>2019-03-27T16:01:42Z</time>
      </trkpt>
      <trkpt lat="44.2707" lon="5.77493">
        <ele>601</ele>
        <time>2019-03-27T16:01:43Z</time>
      </trkpt>
      <trkpt lat="44.27077" lon="5.77498">
        <ele>601</ele>
        <time>2019-03-27T16:01:44Z</time>
      </trkpt>
      <trkpt lat="44.27083" lon="5.77506">
        <ele>601</ele>
        <time>2019-03-27T16:01:45Z</time>
      </trkpt>
      <trkpt lat="44.2709" lon="5.77513">
        <ele>601</ele>
        <time>2019-03-27T16:01:46Z</time>
      </trkpt>
      <trkpt lat="44.27097" lon="5.7752">
        <ele>601</ele>
        <time>2019-03-27T16:01:47Z</time>
      </trkpt>
      <trkpt lat="44.271" lon="5.77533">
        <ele>601</ele>
        <time>2019-03-27T16:01:48Z</time>
      </trkpt>
      <trkpt lat="44.27104" lon="5.77547">
        <ele>601</ele>
        <time>2019-03-27T16:01:49Z</time>
      </trkpt>
      <trkpt lat="44.2711" lon="5.77557">
        <ele>601</ele>
        <time>2019-03-27T16:01:50Z</time>
      </trkpt>
      <trkpt lat="44.27113" lon="5.77567">
        <ele>601</ele>
        <time>2019-03-27T16:01:51Z</time>
      </trkpt>
      <trkpt lat="44.27114" lon="5.77579">
        <ele>601</ele>
        <time>2019-03-27T16:01:52Z</time>
      </trkpt>
      <trkpt lat="44.27115" lon="5.77592">
        <ele>601</ele>
        <time>2019-03-27T16:01:53Z</time>
      </trkpt>
      <trkpt lat="44.27116" lon="5.77604">
        <ele>601</ele>
        <time>2019-03-27T16:01:54Z</time>
      </trkpt>
      <trkpt lat="44.27118" lon="5.77617">
        <ele>601</ele>
        <time>2019-03-27T16:01:55Z</time>
      </trkpt>
      <trkpt lat="44.2712" lon="5.77629">
        <ele>601</ele>
        <time>2019-03-27T16:01:56Z</time>
      </trkpt>
      <trkpt lat="44.27122" lon="5.77642">
        <ele>601</ele>
        <time>2019-03-27T16:01:57Z</time>
      </trkpt>
      <trkpt lat="44.27123" lon="5.77654">
        <ele>601</ele>
        <time>2019-03-27T16:01:58Z</time>
      </trkpt>
      <trkpt lat="44.27126" lon="5.77666">
        <ele>601</ele>
        <time>2019-03-27T16:01:59Z</time>
      </trkpt>
      <trkpt lat="44.27129" lon="5.77677">
        <ele>601</ele>
        <time>2019-03-27T16:02:00Z</time>
      </trkpt>
      <trkpt lat="44.27135" lon="5.77688">
        <ele>601</ele>
        <time>2019-03-27T16:02:01Z</time>
      </trkpt>
      <trkpt lat="44.27142" lon="5.77697">
        <ele>601</ele>
        <time>2019-03-27T16:02:02Z</time>
      </trkpt>
      <trkpt lat="44.27149" lon="5.77704">
        <ele>601</ele>
        <time>2019-03-27T16:02:03Z</time>
      </trkpt>
      <trkpt lat="44.27157" lon="5.7771">
        <ele>601</ele>
        <time>2019-03-27T16:02:04Z</time>
      </trkpt>
      <trkpt lat="44.27165" lon="5.77716">
        <ele>601</ele>
        <time>2019-03-27T16:02:05Z</time>
      </trkpt>
      <trkpt lat="44.27173" lon="5.77722">
        <ele>601</ele>
        <time>2019-03-27T16:02:06Z</time>
      </trkpt>
      <trkpt lat="44.27182" lon="5.77727">
        <ele>601</ele>
        <time>2019-03-27T16:02:07Z</time>
      </trkpt>
      <trkpt lat="44.27189" lon="5.77732">
        <ele>601</ele>
        <time>2019-03-27T16:02:08Z</time>
      </trkpt>
      <trkpt lat="44.27197" lon="5.77737">
        <ele>601</ele>
        <time>2019-03-27T16:02:09Z</time>
      </trkpt>
      <trkpt lat="44.27206" lon="5.77741">
        <ele>601</ele>
        <time>2019-03-27T16:02:10Z</time>
      </trkpt>
      <trkpt lat="44.27214" lon="5.77746">
        <ele>601</ele>
        <time>2019-03-27T16:02:11Z</time>
      </trkpt>
      <trkpt lat="44.27222" lon="5.77751">
        <ele>601</ele>
        <time>2019-03-27T16:02:12Z</time>
      </trkpt>
      <trkpt lat="44.2723" lon="5.77753">
        <ele>601</ele>
        <time>2019-03-27T16:02:13Z</time>
      </trkpt>
      <trkpt lat="44.27239" lon="5.77752">
        <ele>601</ele>
        <time>2019-03-27T16:02:14Z</time>
      </trkpt>
      <trkpt lat="44.27248" lon="5.77749">
        <ele>601</ele>
        <time>2019-03-27T16:02:15Z</time>
      </trkpt>
      <trkpt lat="44.27255" lon="5.77746">
        <ele>601</ele>
        <time>2019-03-27T16:02:16Z</time>
      </trkpt>
      <trkpt lat="44.27263" lon="5.77743">
        <ele>601</ele>
        <time>2019-03-27T16:02:17Z</time>
      </trkpt>
      <trkpt lat="44.27271" lon="5.77741">
        <ele>601</ele>
        <time>2019-03-27T16:02:18Z</time>
      </trkpt>
      <trkpt lat="44.27279" lon="5.7774">
        <ele>601</ele>
        <time>2019-03-27T16:02:19Z</time>
      </trkpt>
      <trkpt lat="44.27287" lon="5.7774">
        <ele>601</ele>
        <time>2019-03-27T16:02:20Z</time>
      </trkpt>
      <trkpt lat="44.27293" lon="5.77742">
        <ele>601</ele>
        <time>2019-03-27T16:02:21Z</time>
      </trkpt>
      <trkpt lat="44.27299" lon="5.77747">
        <ele>601</ele>
        <time>2019-03-27T16:02:22Z</time>
      </trkpt>
      <trkpt lat="44.27302" lon="5.77755">
        <ele>601</ele>
        <time>2019-03-27T16:02:23Z</time>
      </trkpt>
      <trkpt lat="44.27301" lon="5.77767">
        <ele>601</ele>
        <time>2019-03-27T16:02:24Z</time>
      </trkpt>
      <trkpt lat="44.273" lon="5.77777">
        <ele>601</ele>
        <time>2019-03-27T16:02:25Z</time>
      </trkpt>
      <trkpt lat="44.273" lon="5.77787">
        <ele>601</ele>
        <time>2019-03-27T16:02:26Z</time>
      </trkpt>
      <trkpt lat="44.27301" lon="5.77798">
        <ele>601</ele>
        <time>2019-03-27T16:02:27Z</time>
      </trkpt>
      <trkpt lat="44.27305" lon="5.77807">
        <ele>601</ele>
        <time>2019-03-27T16:02:28Z</time>
      </trkpt>
      <trkpt lat="44.2731" lon="5.77813">
        <ele>601</ele>
        <time>2019-03-27T16:02:29Z</time>
      </trkpt>
      <trkpt lat="44.27317" lon="5.77819">
        <ele>600</ele>
        <time>2019-03-27T16:02:30Z</time>
      </trkpt>
      <trkpt lat="44.27323" lon="5.77825">
        <ele>600</ele>
        <time>2019-03-27T16:02:31Z</time>
      </trkpt>
      <trkpt lat="44.2733" lon="5.77831">
        <ele>599</ele>
        <time>2019-03-27T16:02:32Z</time>
      </trkpt>
      <trkpt lat="44.27337" lon="5.77838">
        <ele>598</ele>
        <time>2019-03-27T16:02:33Z</time>
      </trkpt>
      <trkpt lat="44.27345" lon="5.77844">
        <ele>598</ele>
        <time>2019-03-27T16:02:34Z</time>
      </trkpt>
      <trkpt lat="44.27351" lon="5.77852">
        <ele>597</ele>
        <time>2019-03-27T16:02:35Z</time>
      </trkpt>
      <trkpt lat="44.27357" lon="5.7786">
        <ele>597</ele>
        <time>2019-03-27T16:02:36Z</time>
      </trkpt>
      <trkpt lat="44.27364" lon="5.77868">
        <ele>596</ele>
        <time>2019-03-27T16:02:37Z</time>
      </trkpt>
      <trkpt lat="44.2737" lon="5.77876">
        <ele>596</ele>
        <time>2019-03-27T16:02:38Z</time>
      </trkpt>
      <trkpt lat="44.27378" lon="5.77885">
        <ele>596</ele>
        <time>2019-03-27T16:02:39Z</time>
      </trkpt>
      <trkpt lat="44.27384" lon="5.77893">
        <ele>596</ele>
        <time>2019-03-27T16:02:40Z</time>
      </trkpt>
      <trkpt lat="44.27391" lon="5.77901">
        <ele>596</ele>
        <time>2019-03-27T16:02:41Z</time>
      </trkpt>
      <trkpt lat="44.27396" lon="5.77909">
        <ele>596</ele>
        <time>2019-03-27T16:02:42Z</time>
      </trkpt>
      <trkpt lat="44.27401" lon="5.77918">
        <ele>596</ele>
        <time>2019-03-27T16:02:43Z</time>
      </trkpt>
      <trkpt lat="44.27406" lon="5.77928">
        <ele>596</ele>
        <time>2019-03-27T16:02:44Z</time>
      </trkpt>
      <trkpt lat="44.27409" lon="5.77939">
        <ele>596</ele>
        <time>2019-03-27T16:02:45Z</time>
      </trkpt>
      <trkpt lat="44.27411" lon="5.7795">
        <ele>596</ele>
        <time>2019-03-27T16:02:46Z</time>
      </trkpt>
      <trkpt lat="44.27412" lon="5.77961">
        <ele>596</ele>
        <time>2019-03-27T16:02:47Z</time>
      </trkpt>
      <trkpt lat="44.27411" lon="5.77972">
        <ele>596</ele>
        <time>2019-03-27T16:02:48Z</time>
      </trkpt>
      <trkpt lat="44.2741" lon="5.77984">
        <ele>596</ele>
        <time>2019-03-27T16:02:49Z</time>
      </trkpt>
      <trkpt lat="44.2741" lon="5.77995">
        <ele>596</ele>
        <time>2019-03-27T16:02:50Z</time>
      </trkpt>
      <trkpt lat="44.27412" lon="5.78006">
        <ele>596</ele>
        <time>2019-03-27T16:02:51Z</time>
      </trkpt>
      <trkpt lat="44.27413" lon="5.78018">
        <ele>595</ele>
        <time>2019-03-27T16:02:52Z</time>
      </trkpt>
      <trkpt lat="44.27416" lon="5.78029">
        <ele>595</ele>
        <time>2019-03-27T16:02:53Z</time>
      </trkpt>
      <trkpt lat="44.2742" lon="5.78039">
        <ele>595</ele>
        <time>2019-03-27T16:02:54Z</time>
      </trkpt>
      <trkpt lat="44.27424" lon="5.78048">
        <ele>595</ele>
        <time>2019-03-27T16:02:55Z</time>
      </trkpt>
      <trkpt lat="44.2743" lon="5.78056">
        <ele>594</ele>
        <time>2019-03-27T16:02:56Z</time>
      </trkpt>
      <trkpt lat="44.27436" lon="5.78064">
        <ele>594</ele>
        <time>2019-03-27T16:02:57Z</time>
      </trkpt>
      <trkpt lat="44.27442" lon="5.78072">
        <ele>594</ele>
        <time>2019-03-27T16:02:58Z</time>
      </trkpt>
      <trkpt lat="44.27449" lon="5.7808">
        <ele>594</ele>
        <time>2019-03-27T16:02:59Z</time>
      </trkpt>
      <trkpt lat="44.27454" lon="5.78087">
        <ele>594</ele>
        <time>2019-03-27T16:03:00Z</time>
      </trkpt>
      <trkpt lat="44.27461" lon="5.78095">
        <ele>594</ele>
        <time>2019-03-27T16:03:01Z</time>
      </trkpt>
      <trkpt lat="44.27467" lon="5.78102">
        <ele>594</ele>
        <time>2019-03-27T16:03:02Z</time>
      </trkpt>
      <trkpt lat="44.27474" lon="5.78109">
        <ele>594</ele>
        <time>2019-03-27T16:03:03Z</time>
      </trkpt>
      <trkpt lat="44.2748" lon="5.78117">
        <ele>594</ele>
        <time>2019-03-27T16:03:04Z</time>
      </trkpt>
      <trkpt lat="44.27487" lon="5.78124">
        <ele>594</ele>
        <time>2019-03-27T16:03:05Z</time>
      </trkpt>
      <trkpt lat="44.27493" lon="5.78131">
        <ele>594</ele>
        <time>2019-03-27T16:03:06Z</time>
      </trkpt>
      <trkpt lat="44.27499" lon="5.78138">
        <ele>594</ele>
        <time>2019-03-27T16:03:07Z</time>
      </trkpt>
      <trkpt lat="44.27506" lon="5.78146">
        <ele>594</ele>
        <time>2019-03-27T16:03:08Z</time>
      </trkpt>
      <trkpt lat="44.27512" lon="5.78154">
        <ele>594</ele>
        <time>2019-03-27T16:03:09Z</time>
      </trkpt>
      <trkpt lat="44.27518" lon="5.78161">
        <ele>594</ele>
        <time>2019-03-27T16:03:10Z</time>
      </trkpt>
      <trkpt lat="44.27525" lon="5.78169">
        <ele>594</ele>
        <time>2019-03-27T16:03:11Z</time>
      </trkpt>
      <trkpt lat="44.27531" lon="5.78178">
        <ele>594</ele>
        <time>2019-03-27T16:03:12Z</time>
      </trkpt>
      <trkpt lat="44.27536" lon="5.78187">
        <ele>593</ele>
        <time>2019-03-27T16:03:13Z</time>
      </trkpt>
      <trkpt lat="44.27541" lon="5.78196">
        <ele>593</ele>
        <time>2019-03-27T16:03:14Z</time>
      </trkpt>
      <trkpt lat="44.27545" lon="5.78206">
        <ele>593</ele>
        <time>2019-03-27T16:03:15Z</time>
      </trkpt>
      <trkpt lat="44.27549" lon="5.78217">
        <ele>593</ele>
        <time>2019-03-27T16:03:16Z</time>
      </trkpt>
      <trkpt lat="44.27551" lon="5.78228">
        <ele>593</ele>
        <time>2019-03-27T16:03:17Z</time>
      </trkpt>
      <trkpt lat="44.27552" lon="5.7824">
        <ele>593</ele>
        <time>2019-03-27T16:03:18Z</time>
      </trkpt>
      <trkpt lat="44.27551" lon="5.78252">
        <ele>593</ele>
        <time>2019-03-27T16:03:19Z</time>
      </trkpt>
      <trkpt lat="44.27549" lon="5.78263">
        <ele>593</ele>
        <time>2019-03-27T16:03:20Z</time>
      </trkpt>
      <trkpt lat="44.27545" lon="5.78272">
        <ele>593</ele>
        <time>2019-03-27T16:03:21Z</time>
      </trkpt>
      <trkpt lat="44.27541" lon="5.7828">
        <ele>593</ele>
        <time>2019-03-27T16:03:22Z</time>
      </trkpt>
      <trkpt lat="44.27534" lon="5.78285">
        <ele>592</ele>
        <time>2019-03-27T16:03:23Z</time>
      </trkpt>
      <trkpt lat="44.27527" lon="5.7829">
        <ele>592</ele>
        <time>2019-03-27T16:03:24Z</time>
      </trkpt>
      <trkpt lat="44.2752" lon="5.78294">
        <ele>592</ele>
        <time>2019-03-27T16:03:25Z</time>
      </trkpt>
      <trkpt lat="44.27512" lon="5.78299">
        <ele>592</ele>
        <time>2019-03-27T16:03:26Z</time>
      </trkpt>
      <trkpt lat="44.27504" lon="5.78304">
        <ele>591</ele>
        <time>2019-03-27T16:03:27Z</time>
      </trkpt>
      <trkpt lat="44.27496" lon="5.78311">
        <ele>591</ele>
        <time>2019-03-27T16:03:28Z</time>
      </trkpt>
      <trkpt lat="44.27489" lon="5.78318">
        <ele>591</ele>
        <time>2019-03-27T16:03:29Z</time>
      </trkpt>
      <trkpt lat="44.27482" lon="5.78326">
        <ele>591</ele>
        <time>2019-03-27T16:03:30Z</time>
      </trkpt>
      <trkpt lat="44.27475" lon="5.78333">
        <ele>591</ele>
        <time>2019-03-27T16:03:31Z</time>
      </trkpt>
      <trkpt lat="44.2747" lon="5.78342">
        <ele>591</ele>
        <time>2019-03-27T16:03:32Z</time>
      </trkpt>
      <trkpt lat="44.27465" lon="5.78352">
        <ele>590</ele>
        <time>2019-03-27T16:03:33Z</time>
      </trkpt>
      <trkpt lat="44.27463" lon="5.78364">
        <ele>590</ele>
        <time>2019-03-27T16:03:34Z</time>
      </trkpt>
      <trkpt lat="44.27465" lon="5.78376">
        <ele>589</ele>
        <time>2019-03-27T16:03:35Z</time>
      </trkpt>
      <trkpt lat="44.27469" lon="5.78386">
        <ele>589</ele>
        <time>2019-03-27T16:03:36Z</time>
      </trkpt>
      <trkpt lat="44.27476" lon="5.78394">
        <ele>588</ele>
        <time>2019-03-27T16:03:37Z</time>
      </trkpt>
      <trkpt lat="44.27485" lon="5.784">
        <ele>588</ele>
        <time>2019-03-27T16:03:38Z</time>
      </trkpt>
      <trkpt lat="44.27494" lon="5.78405">
        <ele>588</ele>
        <time>2019-03-27T16:03:39Z</time>
      </trkpt>
      <trkpt lat="44.27502" lon="5.78409">
        <ele>588</ele>
        <time>2019-03-27T16:03:40Z</time>
      </trkpt>
      <trkpt lat="44.27512" lon="5.78413">
        <ele>588</ele>
        <time>2019-03-27T16:03:41Z</time>
      </trkpt>
      <trkpt lat="44.2752" lon="5.78416">
        <ele>588</ele>
        <time>2019-03-27T16:03:42Z</time>
      </trkpt>
      <trkpt lat="44.2753" lon="5.78419">
        <ele>588</ele>
        <time>2019-03-27T16:03:43Z</time>
      </trkpt>
      <trkpt lat="44.27539" lon="5.78421">
        <ele>588</ele>
        <time>2019-03-27T16:03:44Z</time>
      </trkpt>
      <trkpt lat="44.27549" lon="5.78421">
        <ele>588</ele>
        <time>2019-03-27T16:03:45Z</time>
      </trkpt>
      <trkpt lat="44.27559" lon="5.7842">
        <ele>588</ele>
        <time>2019-03-27T16:03:46Z</time>
      </trkpt>
      <trkpt lat="44.27568" lon="5.78418">
        <ele>588</ele>
        <time>2019-03-27T16:03:47Z</time>
      </trkpt>
      <trkpt lat="44.27576" lon="5.78414">
        <ele>589</ele>
        <time>2019-03-27T16:03:48Z</time>
      </trkpt>
      <trkpt lat="44.27585" lon="5.7841">
        <ele>589</ele>
        <time>2019-03-27T16:03:49Z</time>
      </trkpt>
      <trkpt lat="44.27593" lon="5.78405">
        <ele>589</ele>
        <time>2019-03-27T16:03:50Z</time>
      </trkpt>
      <trkpt lat="44.276" lon="5.78399">
        <ele>590</ele>
        <time>2019-03-27T16:03:51Z</time>
      </trkpt>
      <trkpt lat="44.27608" lon="5.78394">
        <ele>590</ele>
        <time>2019-03-27T16:03:52Z</time>
      </trkpt>
      <trkpt lat="44.27616" lon="5.78388">
        <ele>590</ele>
        <time>2019-03-27T16:03:53Z</time>
      </trkpt>
      <trkpt lat="44.27624" lon="5.78382">
        <ele>590</ele>
        <time>2019-03-27T16:03:54Z</time>
      </trkpt>
      <trkpt lat="44.27631" lon="5.78375">
        <ele>590</ele>
        <time>2019-03-27T16:03:55Z</time>
      </trkpt>
      <trkpt lat="44.27639" lon="5.78368">
        <ele>590</ele>
        <time>2019-03-27T16:03:56Z</time>
      </trkpt>
      <trkpt lat="44.27646" lon="5.78361">
        <ele>590</ele>
        <time>2019-03-27T16:03:57Z</time>
      </trkpt>
      <trkpt lat="44.27654" lon="5.78355">
        <ele>590</ele>
        <time>2019-03-27T16:03:58Z</time>
      </trkpt>
      <trkpt lat="44.27662" lon="5.78349">
        <ele>590</ele>
        <time>2019-03-27T16:03:59Z</time>
      </trkpt>
      <trkpt lat="44.27671" lon="5.78344">
        <ele>590</ele>
        <time>2019-03-27T16:04:00Z</time>
      </trkpt>
      <trkpt lat="44.27679" lon="5.78337">
        <ele>590</ele>
        <time>2019-03-27T16:04:01Z</time>
      </trkpt>
      <trkpt lat="44.27687" lon="5.7833">
        <ele>590</ele>
        <time>2019-03-27T16:04:02Z</time>
      </trkpt>
      <trkpt lat="44.27694" lon="5.78322">
        <ele>590</ele>
        <time>2019-03-27T16:04:03Z</time>
      </trkpt>
      <trkpt lat="44.27701" lon="5.78313">
        <ele>589</ele>
        <time>2019-03-27T16:04:04Z</time>
      </trkpt>
      <trkpt lat="44.27708" lon="5.78305">
        <ele>588</ele>
        <time>2019-03-27T16:04:05Z</time>
      </trkpt>
      <trkpt lat="44.27716" lon="5.78297">
        <ele>588</ele>
        <time>2019-03-27T16:04:06Z</time>
      </trkpt>
      <trkpt lat="44.27723" lon="5.78288">
        <ele>587</ele>
        <time>2019-03-27T16:04:07Z</time>
      </trkpt>
      <trkpt lat="44.2773" lon="5.7828">
        <ele>586</ele>
        <time>2019-03-27T16:04:08Z</time>
      </trkpt>
      <trkpt lat="44.27737" lon="5.78271">
        <ele>585</ele>
        <time>2019-03-27T16:04:09Z</time>
      </trkpt>
      <trkpt lat="44.27744" lon="5.78263">
        <ele>584</ele>
        <time>2019-03-27T16:04:10Z</time>
      </trkpt>
      <trkpt lat="44.27752" lon="5.78255">
        <ele>584</ele>
        <time>2019-03-27T16:04:11Z</time>
      </trkpt>
      <trkpt lat="44.2776" lon="5.78247">
        <ele>584</ele>
        <time>2019-03-27T16:04:12Z</time>
      </trkpt>
      <trkpt lat="44.27769" lon="5.78239">
        <ele>584</ele>
        <time>2019-03-27T16:04:13Z</time>
      </trkpt>
      <trkpt lat="44.27776" lon="5.78231">
        <ele>583</ele>
        <time>2019-03-27T16:04:14Z</time>
      </trkpt>
      <trkpt lat="44.27784" lon="5.78223">
        <ele>583</ele>
        <time>2019-03-27T16:04:15Z</time>
      </trkpt>
      <trkpt lat="44.27792" lon="5.78215">
        <ele>583</ele>
        <time>2019-03-27T16:04:16Z</time>
      </trkpt>
      <trkpt lat="44.27801" lon="5.78208">
        <ele>583</ele>
        <time>2019-03-27T16:04:17Z</time>
      </trkpt>
      <trkpt lat="44.27809" lon="5.78201">
        <ele>583</ele>
        <time>2019-03-27T16:04:18Z</time>
      </trkpt>
      <trkpt lat="44.27818" lon="5.78196">
        <ele>583</ele>
        <time>2019-03-27T16:04:19Z</time>
      </trkpt>
      <trkpt lat="44.27826" lon="5.7819">
        <ele>583</ele>
        <time>2019-03-27T16:04:20Z</time>
      </trkpt>
      <trkpt lat="44.27833" lon="5.78187">
        <ele>583</ele>
        <time>2019-03-27T16:04:21Z</time>
      </trkpt>
      <trkpt lat="44.27842" lon="5.78185">
        <ele>583</ele>
        <time>2019-03-27T16:04:22Z</time>
      </trkpt>
      <trkpt lat="44.27852" lon="5.78185">
        <ele>582</ele>
        <time>2019-03-27T16:04:23Z</time>
      </trkpt>
      <trkpt lat="44.27861" lon="5.78188">
        <ele>582</ele>
        <time>2019-03-27T16:04:24Z</time>
      </trkpt>
      <trkpt lat="44.2787" lon="5.78192">
        <ele>581</ele>
        <time>2019-03-27T16:04:25Z</time>
      </trkpt>
      <trkpt lat="44.27877" lon="5.78198">
        <ele>581</ele>
        <time>2019-03-27T16:04:26Z</time>
      </trkpt>
      <trkpt lat="44.27884" lon="5.78207">
        <ele>581</ele>
        <time>2019-03-27T16:04:27Z</time>
      </trkpt>
      <trkpt lat="44.27891" lon="5.78217">
        <ele>581</ele>
        <time>2019-03-27T16:04:28Z</time>
      </trkpt>
      <trkpt lat="44.27898" lon="5.78228">
        <ele>581</ele>
        <time>2019-03-27T16:04:29Z</time>
      </trkpt>
      <trkpt lat="44.27904" lon="5.78238">
        <ele>581</ele>
        <time>2019-03-27T16:04:30Z</time>
      </trkpt>
      <trkpt lat="44.27911" lon="5.78249">
        <ele>581</ele>
        <time>2019-03-27T16:04:31Z</time>
      </trkpt>
      <trkpt lat="44.27917" lon="5.7826">
        <ele>581</ele>
        <time>2019-03-27T16:04:32Z</time>
      </trkpt>
      <trkpt lat="44.27922" lon="5.78271">
        <ele>581</ele>
        <time>2019-03-27T16:04:33Z</time>
      </trkpt>
      <trkpt lat="44.27927" lon="5.78282">
        <ele>581</ele>
        <time>2019-03-27T16:04:34Z</time>
      </trkpt>
      <trkpt lat="44.2793" lon="5.78294">
        <ele>581</ele>
        <time>2019-03-27T16:04:35Z</time>
      </trkpt>
      <trkpt lat="44.27935" lon="5.78307">
        <ele>581</ele>
        <time>2019-03-27T16:04:36Z</time>
      </trkpt>
      <trkpt lat="44.27937" lon="5.7832">
        <ele>581</ele>
        <time>2019-03-27T16:04:37Z</time>
      </trkpt>
      <trkpt lat="44.27939" lon="5.78333">
        <ele>581</ele>
        <time>2019-03-27T16:04:38Z</time>
      </trkpt>
      <trkpt lat="44.27942" lon="5.78345">
        <ele>581</ele>
        <time>2019-03-27T16:04:39Z</time>
      </trkpt>
      <trkpt lat="44.27945" lon="5.78359">
        <ele>581</ele>
        <time>2019-03-27T16:04:40Z</time>
      </trkpt>
      <trkpt lat="44.27946" lon="5.78371">
        <ele>581</ele>
        <time>2019-03-27T16:04:41Z</time>
      </trkpt>
      <trkpt lat="44.27948" lon="5.78383">
        <ele>581</ele>
        <time>2019-03-27T16:04:42Z</time>
      </trkpt>
      <trkpt lat="44.2795" lon="5.78395">
        <ele>581</ele>
        <time>2019-03-27T16:04:43Z</time>
      </trkpt>
      <trkpt lat="44.27952" lon="5.78407">
        <ele>581</ele>
        <time>2019-03-27T16:04:44Z</time>
      </trkpt>
      <trkpt lat="44.27953" lon="5.78418">
        <ele>581</ele>
        <time>2019-03-27T16:04:45Z</time>
      </trkpt>
      <trkpt lat="44.27954" lon="5.7843">
        <ele>581</ele>
        <time>2019-03-27T16:04:46Z</time>
      </trkpt>
      <trkpt lat="44.27956" lon="5.78441">
        <ele>581</ele>
        <time>2019-03-27T16:04:47Z</time>
      </trkpt>
      <trkpt lat="44.27957" lon="5.78453">
        <ele>581</ele>
        <time>2019-03-27T16:04:48Z</time>
      </trkpt>
      <trkpt lat="44.27958" lon="5.78465">
        <ele>581</ele>
        <time>2019-03-27T16:04:49Z</time>
      </trkpt>
      <trkpt lat="44.27959" lon="5.78477">
        <ele>581</ele>
        <time>2019-03-27T16:04:50Z</time>
      </trkpt>
      <trkpt lat="44.27961" lon="5.78489">
        <ele>581</ele>
        <time>2019-03-27T16:04:51Z</time>
      </trkpt>
      <trkpt lat="44.27962" lon="5.78501">
        <ele>580</ele>
        <time>2019-03-27T16:04:52Z</time>
      </trkpt>
      <trkpt lat="44.27963" lon="5.78513">
        <ele>580</ele>
        <time>2019-03-27T16:04:53Z</time>
      </trkpt>
      <trkpt lat="44.27964" lon="5.78525">
        <ele>580</ele>
        <time>2019-03-27T16:04:54Z</time>
      </trkpt>
      <trkpt lat="44.27964" lon="5.78537">
        <ele>579</ele>
        <time>2019-03-27T16:04:55Z</time>
      </trkpt>
      <trkpt lat="44.27963" lon="5.78549">
        <ele>579</ele>
        <time>2019-03-27T16:04:56Z</time>
      </trkpt>
      <trkpt lat="44.27961" lon="5.78561">
        <ele>579</ele>
        <time>2019-03-27T16:04:57Z</time>
      </trkpt>
      <trkpt lat="44.2796" lon="5.78573">
        <ele>578</ele>
        <time>2019-03-27T16:04:58Z</time>
      </trkpt>
      <trkpt lat="44.27959" lon="5.78585">
        <ele>578</ele>
        <time>2019-03-27T16:04:59Z</time>
      </trkpt>
      <trkpt lat="44.27958" lon="5.78597">
        <ele>578</ele>
        <time>2019-03-27T16:05:00Z</time>
      </trkpt>
      <trkpt lat="44.27955" lon="5.78609">
        <ele>578</ele>
        <time>2019-03-27T16:05:01Z</time>
      </trkpt>
      <trkpt lat="44.27952" lon="5.7862">
        <ele>578</ele>
        <time>2019-03-27T16:05:02Z</time>
      </trkpt>
      <trkpt lat="44.2795" lon="5.78629">
        <ele>578</ele>
        <time>2019-03-27T16:05:03Z</time>
      </trkpt>
      <trkpt lat="44.27947" lon="5.78638">
        <ele>578</ele>
        <time>2019-03-27T16:05:04Z</time>
      </trkpt>
      <trkpt lat="44.27943" lon="5.78647">
        <ele>578</ele>
        <time>2019-03-27T16:05:05Z</time>
      </trkpt>
      <trkpt lat="44.27939" lon="5.78655">
        <ele>578</ele>
        <time>2019-03-27T16:05:06Z</time>
      </trkpt>
      <trkpt lat="44.27935" lon="5.78665">
        <ele>578</ele>
        <time>2019-03-27T16:05:07Z</time>
      </trkpt>
      <trkpt lat="44.27933" lon="5.78674">
        <ele>578</ele>
        <time>2019-03-27T16:05:08Z</time>
      </trkpt>
      <trkpt lat="44.27932" lon="5.78685">
        <ele>578</ele>
        <time>2019-03-27T16:05:09Z</time>
      </trkpt>
      <trkpt lat="44.2793" lon="5.78697">
        <ele>578</ele>
        <time>2019-03-27T16:05:10Z</time>
      </trkpt>
      <trkpt lat="44.27929" lon="5.78709">
        <ele>578</ele>
        <time>2019-03-27T16:05:11Z</time>
      </trkpt>
      <trkpt lat="44.27929" lon="5.7872">
        <ele>578</ele>
        <time>2019-03-27T16:05:12Z</time>
      </trkpt>
      <trkpt lat="44.2793" lon="5.7873">
        <ele>578</ele>
        <time>2019-03-27T16:05:13Z</time>
      </trkpt>
      <trkpt lat="44.27931" lon="5.78741">
        <ele>578</ele>
        <time>2019-03-27T16:05:14Z</time>
      </trkpt>
      <trkpt lat="44.27934" lon="5.78751">
        <ele>578</ele>
        <time>2019-03-27T16:05:15Z</time>
      </trkpt>
      <trkpt lat="44.27937" lon="5.78761">
        <ele>578</ele>
        <time>2019-03-27T16:05:16Z</time>
      </trkpt>
      <trkpt lat="44.2794" lon="5.78771">
        <ele>578</ele>
        <time>2019-03-27T16:05:17Z</time>
      </trkpt>
      <trkpt lat="44.27943" lon="5.78781">
        <ele>578</ele>
        <time>2019-03-27T16:05:18Z</time>
      </trkpt>
      <trkpt lat="44.27946" lon="5.78791">
        <ele>578</ele>
        <time>2019-03-27T16:05:19Z</time>
      </trkpt>
      <trkpt lat="44.27948" lon="5.78801">
        <ele>578</ele>
        <time>2019-03-27T16:05:20Z</time>
      </trkpt>
      <trkpt lat="44.27951" lon="5.78811">
        <ele>578</ele>
        <time>2019-03-27T16:05:21Z</time>
      </trkpt>
      <trkpt lat="44.27953" lon="5.78821">
        <ele>578</ele>
        <time>2019-03-27T16:05:22Z</time>
      </trkpt>
      <trkpt lat="44.27956" lon="5.78832">
        <ele>578</ele>
        <time>2019-03-27T16:05:23Z</time>
      </trkpt>
      <trkpt lat="44.27958" lon="5.78842">
        <ele>578</ele>
        <time>2019-03-27T16:05:24Z</time>
      </trkpt>
      <trkpt lat="44.2796" lon="5.78851">
        <ele>578</ele>
        <time>2019-03-27T16:05:25Z</time>
      </trkpt>
      <trkpt lat="44.27962" lon="5.78861">
        <ele>578</ele>
        <time>2019-03-27T16:05:26Z</time>
      </trkpt>
      <trkpt lat="44.27964" lon="5.78871">
        <ele>578</ele>
        <time>2019-03-27T16:05:27Z</time>
      </trkpt>
      <trkpt lat="44.27965" lon="5.78882">
        <ele>578</ele>
        <time>2019-03-27T16:05:28Z</time>
      </trkpt>
      <trkpt lat="44.27965" lon="5.78892">
        <ele>578</ele>
        <time>2019-03-27T16:05:29Z</time>
      </trkpt>
      <trkpt lat="44.27966" lon="5.78903">
        <ele>578</ele>
        <time>2019-03-27T16:05:30Z</time>
      </trkpt>
      <trkpt lat="44.27966" lon="5.78914">
        <ele>578</ele>
        <time>2019-03-27T16:05:31Z</time>
      </trkpt>
      <trkpt lat="44.27965" lon="5.78926">
        <ele>578</ele>
        <time>2019-03-27T16:05:32Z</time>
      </trkpt>
      <trkpt lat="44.27962" lon="5.78937">
        <ele>578</ele>
        <time>2019-03-27T16:05:33Z</time>
      </trkpt>
      <trkpt lat="44.27959" lon="5.78949">
        <ele>578</ele>
        <time>2019-03-27T16:05:34Z</time>
      </trkpt>
      <trkpt lat="44.27954" lon="5.7896">
        <ele>578</ele>
        <time>2019-03-27T16:05:35Z</time>
      </trkpt>
      <trkpt lat="44.27951" lon="5.78969">
        <ele>578</ele>
        <time>2019-03-27T16:05:36Z</time>
      </trkpt>
      <trkpt lat="44.27946" lon="5.78978">
        <ele>578</ele>
        <time>2019-03-27T16:05:37Z</time>
      </trkpt>
      <trkpt lat="44.2794" lon="5.78987">
        <ele>578</ele>
        <time>2019-03-27T16:05:38Z</time>
      </trkpt>
      <trkpt lat="44.27934" lon="5.78993">
        <ele>578</ele>
        <time>2019-03-27T16:05:39Z</time>
      </trkpt>
      <trkpt lat="44.27929" lon="5.78999">
        <ele>578</ele>
        <time>2019-03-27T16:05:40Z</time>
      </trkpt>
      <trkpt lat="44.27924" lon="5.79003">
        <ele>578</ele>
        <time>2019-03-27T16:05:41Z</time>
      </trkpt>
      <trkpt lat="44.27919" lon="5.79007">
        <ele>578</ele>
        <time>2019-03-27T16:05:42Z</time>
      </trkpt>
      <trkpt lat="44.27914" lon="5.79011">
        <ele>578</ele>
        <time>2019-03-27T16:05:43Z</time>
      </trkpt>
      <trkpt lat="44.27908" lon="5.79014">
        <ele>578</ele>
        <time>2019-03-27T16:05:44Z</time>
      </trkpt>
      <trkpt lat="44.27901" lon="5.79017">
        <ele>578</ele>
        <time>2019-03-27T16:05:45Z</time>
      </trkpt>
      <trkpt lat="44.27893" lon="5.79018">
        <ele>578</ele>
        <time>2019-03-27T16:05:46Z</time>
      </trkpt>
      <trkpt lat="44.27886" lon="5.79018">
        <ele>578</ele>
        <time>2019-03-27T16:05:47Z</time>
      </trkpt>
      <trkpt lat="44.27879" lon="5.79018">
        <ele>578</ele>
        <time>2019-03-27T16:05:48Z</time>
      </trkpt>
      <trkpt lat="44.27873" lon="5.79017">
        <ele>578</ele>
        <time>2019-03-27T16:05:49Z</time>
      </trkpt>
      <trkpt lat="44.27867" lon="5.79016">
        <ele>578</ele>
        <time>2019-03-27T16:05:50Z</time>
      </trkpt>
      <trkpt lat="44.27861" lon="5.79014">
        <ele>578</ele>
        <time>2019-03-27T16:05:51Z</time>
      </trkpt>
      <trkpt lat="44.27855" lon="5.79011">
        <ele>578</ele>
        <time>2019-03-27T16:05:52Z</time>
      </trkpt>
      <trkpt lat="44.2785" lon="5.79007">
        <ele>578</ele>
        <time>2019-03-27T16:05:53Z</time>
      </trkpt>
      <trkpt lat="44.27844" lon="5.79003">
        <ele>579</ele>
        <time>2019-03-27T16:05:54Z</time>
      </trkpt>
      <trkpt lat="44.27839" lon="5.78999">
        <ele>580</ele>
        <time>2019-03-27T16:05:55Z</time>
      </trkpt>
      <trkpt lat="44.27834" lon="5.78996">
        <ele>581</ele>
        <time>2019-03-27T16:05:56Z</time>
      </trkpt>
      <trkpt lat="44.27802" lon="5.79015">
        <ele>581</ele>
        <time>2019-03-27T16:06:03Z</time>
      </trkpt>
      <trkpt lat="44.27805" lon="5.79034">
        <ele>581</ele>
        <time>2019-03-27T16:06:04Z</time>
      </trkpt>
      <trkpt lat="44.2781" lon="5.79046">
        <ele>581</ele>
        <time>2019-03-27T16:06:05Z</time>
      </trkpt>
      <trkpt lat="44.27814" lon="5.79057">
        <ele>581</ele>
        <time>2019-03-27T16:06:06Z</time>
      </trkpt>
      <trkpt lat="44.27822" lon="5.79066">
        <ele>580</ele>
        <time>2019-03-27T16:06:07Z</time>
      </trkpt>
      <trkpt lat="44.27827" lon="5.79071">
        <ele>580</ele>
        <time>2019-03-27T16:06:08Z</time>
      </trkpt>
      <trkpt lat="44.27834" lon="5.79077">
        <ele>580</ele>
        <time>2019-03-27T16:06:09Z</time>
      </trkpt>
      <trkpt lat="44.2784" lon="5.79083">
        <ele>579</ele>
        <time>2019-03-27T16:06:10Z</time>
      </trkpt>
      <trkpt lat="44.27846" lon="5.79089">
        <ele>578</ele>
        <time>2019-03-27T16:06:11Z</time>
      </trkpt>
      <trkpt lat="44.27848" lon="5.791">
        <ele>578</ele>
        <time>2019-03-27T16:06:12Z</time>
      </trkpt>
      <trkpt lat="44.27848" lon="5.79112">
        <ele>577</ele>
        <time>2019-03-27T16:06:13Z</time>
      </trkpt>
      <trkpt lat="44.27851" lon="5.79122">
        <ele>577</ele>
        <time>2019-03-27T16:06:14Z</time>
      </trkpt>
      <trkpt lat="44.27855" lon="5.79131">
        <ele>577</ele>
        <time>2019-03-27T16:06:15Z</time>
      </trkpt>
      <trkpt lat="44.27859" lon="5.7914">
        <ele>577</ele>
        <time>2019-03-27T16:06:16Z</time>
      </trkpt>
      <trkpt lat="44.27863" lon="5.7915">
        <ele>577</ele>
        <time>2019-03-27T16:06:17Z</time>
      </trkpt>
      <trkpt lat="44.27866" lon="5.79161">
        <ele>577</ele>
        <time>2019-03-27T16:06:18Z</time>
      </trkpt>
      <trkpt lat="44.27867" lon="5.79172">
        <ele>577</ele>
        <time>2019-03-27T16:06:19Z</time>
      </trkpt>
      <trkpt lat="44.27867" lon="5.79183">
        <ele>577</ele>
        <time>2019-03-27T16:06:20Z</time>
      </trkpt>
      <trkpt lat="44.27867" lon="5.79195">
        <ele>577</ele>
        <time>2019-03-27T16:06:21Z</time>
      </trkpt>
      <trkpt lat="44.27866" lon="5.79208">
        <ele>577</ele>
        <time>2019-03-27T16:06:22Z</time>
      </trkpt>
      <trkpt lat="44.27864" lon="5.79219">
        <ele>577</ele>
        <time>2019-03-27T16:06:23Z</time>
      </trkpt>
      <trkpt lat="44.2786" lon="5.7923">
        <ele>577</ele>
        <time>2019-03-27T16:06:24Z</time>
      </trkpt>
      <trkpt lat="44.27856" lon="5.7924">
        <ele>577</ele>
        <time>2019-03-27T16:06:25Z</time>
      </trkpt>
      <trkpt lat="44.2785" lon="5.7925">
        <ele>577</ele>
        <time>2019-03-27T16:06:26Z</time>
      </trkpt>
      <trkpt lat="44.27845" lon="5.79261">
        <ele>576</ele>
        <time>2019-03-27T16:06:27Z</time>
      </trkpt>
      <trkpt lat="44.27841" lon="5.79271">
        <ele>576</ele>
        <time>2019-03-27T16:06:28Z</time>
      </trkpt>
      <trkpt lat="44.27836" lon="5.79281">
        <ele>576</ele>
        <time>2019-03-27T16:06:29Z</time>
      </trkpt>
      <trkpt lat="44.27831" lon="5.79291">
        <ele>576</ele>
        <time>2019-03-27T16:06:30Z</time>
      </trkpt>
      <trkpt lat="44.27825" lon="5.79301">
        <ele>575</ele>
        <time>2019-03-27T16:06:31Z</time>
      </trkpt>
      <trkpt lat="44.27819" lon="5.7931">
        <ele>575</ele>
        <time>2019-03-27T16:06:32Z</time>
      </trkpt>
      <trkpt lat="44.27812" lon="5.79319">
        <ele>575</ele>
        <time>2019-03-27T16:06:33Z</time>
      </trkpt>
      <trkpt lat="44.27803" lon="5.79327">
        <ele>575</ele>
        <time>2019-03-27T16:06:34Z</time>
      </trkpt>
      <trkpt lat="44.27794" lon="5.79333">
        <ele>574</ele>
        <time>2019-03-27T16:06:35Z</time>
      </trkpt>
      <trkpt lat="44.27786" lon="5.79337">
        <ele>574</ele>
        <time>2019-03-27T16:06:36Z</time>
      </trkpt>
      <trkpt lat="44.27777" lon="5.79337">
        <ele>573</ele>
        <time>2019-03-27T16:06:37Z</time>
      </trkpt>
      <trkpt lat="44.27768" lon="5.79338">
        <ele>572</ele>
        <time>2019-03-27T16:06:38Z</time>
      </trkpt>
      <trkpt lat="44.2776" lon="5.7934">
        <ele>572</ele>
        <time>2019-03-27T16:06:39Z</time>
      </trkpt>
      <trkpt lat="44.27751" lon="5.79344">
        <ele>571</ele>
        <time>2019-03-27T16:06:40Z</time>
      </trkpt>
      <trkpt lat="44.27743" lon="5.7935">
        <ele>570</ele>
        <time>2019-03-27T16:06:41Z</time>
      </trkpt>
      <trkpt lat="44.27736" lon="5.79358">
        <ele>570</ele>
        <time>2019-03-27T16:06:42Z</time>
      </trkpt>
      <trkpt lat="44.27729" lon="5.79367">
        <ele>569</ele>
        <time>2019-03-27T16:06:43Z</time>
      </trkpt>
      <trkpt lat="44.27723" lon="5.79377">
        <ele>569</ele>
        <time>2019-03-27T16:06:44Z</time>
      </trkpt>
      <trkpt lat="44.27717" lon="5.79388">
        <ele>569</ele>
        <time>2019-03-27T16:06:45Z</time>
      </trkpt>
      <trkpt lat="44.27712" lon="5.79399">
        <ele>568</ele>
        <time>2019-03-27T16:06:46Z</time>
      </trkpt>
      <trkpt lat="44.27707" lon="5.7941">
        <ele>568</ele>
        <time>2019-03-27T16:06:47Z</time>
      </trkpt>
      <trkpt lat="44.27701" lon="5.79421">
        <ele>568</ele>
        <time>2019-03-27T16:06:48Z</time>
      </trkpt>
      <trkpt lat="44.27697" lon="5.79434">
        <ele>568</ele>
        <time>2019-03-27T16:06:49Z</time>
      </trkpt>
      <trkpt lat="44.27693" lon="5.79447">
        <ele>567</ele>
        <time>2019-03-27T16:06:50Z</time>
      </trkpt>
      <trkpt lat="44.2769" lon="5.79461">
        <ele>567</ele>
        <time>2019-03-27T16:06:51Z</time>
      </trkpt>
      <trkpt lat="44.27687" lon="5.79474">
        <ele>566</ele>
        <time>2019-03-27T16:06:52Z</time>
      </trkpt>
      <trkpt lat="44.27684" lon="5.79489">
        <ele>566</ele>
        <time>2019-03-27T16:06:53Z</time>
      </trkpt>
      <trkpt lat="44.27681" lon="5.79503">
        <ele>565</ele>
        <time>2019-03-27T16:06:54Z</time>
      </trkpt>
      <trkpt lat="44.27679" lon="5.79517">
        <ele>565</ele>
        <time>2019-03-27T16:06:55Z</time>
      </trkpt>
      <trkpt lat="44.27677" lon="5.79531">
        <ele>564</ele>
        <time>2019-03-27T16:06:56Z</time>
      </trkpt>
      <trkpt lat="44.27676" lon="5.79545">
        <ele>564</ele>
        <time>2019-03-27T16:06:57Z</time>
      </trkpt>
      <trkpt lat="44.27675" lon="5.79559">
        <ele>564</ele>
        <time>2019-03-27T16:06:58Z</time>
      </trkpt>
      <trkpt lat="44.27672" lon="5.79574">
        <ele>564</ele>
        <time>2019-03-27T16:06:59Z</time>
      </trkpt>
      <trkpt lat="44.27671" lon="5.79588">
        <ele>564</ele>
        <time>2019-03-27T16:07:00Z</time>
      </trkpt>
      <trkpt lat="44.2767" lon="5.79602">
        <ele>564</ele>
        <time>2019-03-27T16:07:01Z</time>
      </trkpt>
      <trkpt lat="44.2767" lon="5.79616">
        <ele>564</ele>
        <time>2019-03-27T16:07:02Z</time>
      </trkpt>
      <trkpt lat="44.27669" lon="5.79631">
        <ele>564</ele>
        <time>2019-03-27T16:07:03Z</time>
      </trkpt>
      <trkpt lat="44.27669" lon="5.79645">
        <ele>564</ele>
        <time>2019-03-27T16:07:04Z</time>
      </trkpt>
      <trkpt lat="44.2767" lon="5.7966">
        <ele>564</ele>
        <time>2019-03-27T16:07:05Z</time>
      </trkpt>
      <trkpt lat="44.27671" lon="5.79674">
        <ele>564</ele>
        <time>2019-03-27T16:07:06Z</time>
      </trkpt>
      <trkpt lat="44.27673" lon="5.79688">
        <ele>564</ele>
        <time>2019-03-27T16:07:07Z</time>
      </trkpt>
      <trkpt lat="44.27674" lon="5.79702">
        <ele>564</ele>
        <time>2019-03-27T16:07:08Z</time>
      </trkpt>
      <trkpt lat="44.27675" lon="5.79716">
        <ele>563</ele>
        <time>2019-03-27T16:07:09Z</time>
      </trkpt>
      <trkpt lat="44.27674" lon="5.79731">
        <ele>563</ele>
        <time>2019-03-27T16:07:10Z</time>
      </trkpt>
      <trkpt lat="44.27673" lon="5.79743">
        <ele>562</ele>
        <time>2019-03-27T16:07:11Z</time>
      </trkpt>
      <trkpt lat="44.27672" lon="5.79754">
        <ele>562</ele>
        <time>2019-03-27T16:07:12Z</time>
      </trkpt>
      <trkpt lat="44.2767" lon="5.79766">
        <ele>562</ele>
        <time>2019-03-27T16:07:13Z</time>
      </trkpt>
      <trkpt lat="44.27667" lon="5.79777">
        <ele>561</ele>
        <time>2019-03-27T16:07:14Z</time>
      </trkpt>
      <trkpt lat="44.27663" lon="5.79789">
        <ele>561</ele>
        <time>2019-03-27T16:07:15Z</time>
      </trkpt>
      <trkpt lat="44.2766" lon="5.798">
        <ele>561</ele>
        <time>2019-03-27T16:07:16Z</time>
      </trkpt>
      <trkpt lat="44.27658" lon="5.79811">
        <ele>561</ele>
        <time>2019-03-27T16:07:17Z</time>
      </trkpt>
      <trkpt lat="44.27655" lon="5.79822">
        <ele>561</ele>
        <time>2019-03-27T16:07:18Z</time>
      </trkpt>
      <trkpt lat="44.2765" lon="5.79834">
        <ele>561</ele>
        <time>2019-03-27T16:07:19Z</time>
      </trkpt>
      <trkpt lat="44.27645" lon="5.79846">
        <ele>561</ele>
        <time>2019-03-27T16:07:20Z</time>
      </trkpt>
      <trkpt lat="44.27641" lon="5.79858">
        <ele>561</ele>
        <time>2019-03-27T16:07:21Z</time>
      </trkpt>
      <trkpt lat="44.27636" lon="5.79869">
        <ele>561</ele>
        <time>2019-03-27T16:07:22Z</time>
      </trkpt>
      <trkpt lat="44.27632" lon="5.7988">
        <ele>560</ele>
        <time>2019-03-27T16:07:23Z</time>
      </trkpt>
      <trkpt lat="44.2763" lon="5.7989">
        <ele>560</ele>
        <time>2019-03-27T16:07:24Z</time>
      </trkpt>
      <trkpt lat="44.27628" lon="5.79901">
        <ele>560</ele>
        <time>2019-03-27T16:07:25Z</time>
      </trkpt>
      <trkpt lat="44.27626" lon="5.79913">
        <ele>560</ele>
        <time>2019-03-27T16:07:26Z</time>
      </trkpt>
      <trkpt lat="44.27623" lon="5.79924">
        <ele>560</ele>
        <time>2019-03-27T16:07:27Z</time>
      </trkpt>
      <trkpt lat="44.27622" lon="5.79936">
        <ele>560</ele>
        <time>2019-03-27T16:07:28Z</time>
      </trkpt>
      <trkpt lat="44.2762" lon="5.79947">
        <ele>560</ele>
        <time>2019-03-27T16:07:29Z</time>
      </trkpt>
      <trkpt lat="44.27616" lon="5.79959">
        <ele>560</ele>
        <time>2019-03-27T16:07:30Z</time>
      </trkpt>
      <trkpt lat="44.27611" lon="5.79971">
        <ele>559</ele>
        <time>2019-03-27T16:07:31Z</time>
      </trkpt>
      <trkpt lat="44.27607" lon="5.79982">
        <ele>558</ele>
        <time>2019-03-27T16:07:32Z</time>
      </trkpt>
      <trkpt lat="44.27604" lon="5.79992">
        <ele>557</ele>
        <time>2019-03-27T16:07:33Z</time>
      </trkpt>
      <trkpt lat="44.27601" lon="5.80004">
        <ele>557</ele>
        <time>2019-03-27T16:07:34Z</time>
      </trkpt>
      <trkpt lat="44.27595" lon="5.80015">
        <ele>556</ele>
        <time>2019-03-27T16:07:35Z</time>
      </trkpt>
      <trkpt lat="44.2759" lon="5.80025">
        <ele>556</ele>
        <time>2019-03-27T16:07:36Z</time>
      </trkpt>
      <trkpt lat="44.27586" lon="5.80035">
        <ele>556</ele>
        <time>2019-03-27T16:07:37Z</time>
      </trkpt>
      <trkpt lat="44.27583" lon="5.80044">
        <ele>556</ele>
        <time>2019-03-27T16:07:38Z</time>
      </trkpt>
      <trkpt lat="44.27578" lon="5.80055">
        <ele>556</ele>
        <time>2019-03-27T16:07:39Z</time>
      </trkpt>
      <trkpt lat="44.27575" lon="5.80064">
        <ele>556</ele>
        <time>2019-03-27T16:07:40Z</time>
      </trkpt>
      <trkpt lat="44.27571" lon="5.80075">
        <ele>556</ele>
        <time>2019-03-27T16:07:41Z</time>
      </trkpt>
      <trkpt lat="44.27566" lon="5.80086">
        <ele>556</ele>
        <time>2019-03-27T16:07:42Z</time>
      </trkpt>
      <trkpt lat="44.27561" lon="5.80097">
        <ele>556</ele>
        <time>2019-03-27T16:07:43Z</time>
      </trkpt>
      <trkpt lat="44.27556" lon="5.80106">
        <ele>556</ele>
        <time>2019-03-27T16:07:44Z</time>
      </trkpt>
      <trkpt lat="44.27551" lon="5.80117">
        <ele>556</ele>
        <time>2019-03-27T16:07:45Z</time>
      </trkpt>
      <trkpt lat="44.27546" lon="5.80127">
        <ele>556</ele>
        <time>2019-03-27T16:07:46Z</time>
      </trkpt>
      <trkpt lat="44.27541" lon="5.80138">
        <ele>556</ele>
        <time>2019-03-27T16:07:47Z</time>
      </trkpt>
      <trkpt lat="44.27535" lon="5.80149">
        <ele>556</ele>
        <time>2019-03-27T16:07:48Z</time>
      </trkpt>
      <trkpt lat="44.27529" lon="5.80159">
        <ele>556</ele>
        <time>2019-03-27T16:07:49Z</time>
      </trkpt>
      <trkpt lat="44.27523" lon="5.80169">
        <ele>556</ele>
        <time>2019-03-27T16:07:50Z</time>
      </trkpt>
      <trkpt lat="44.27517" lon="5.80179">
        <ele>556</ele>
        <time>2019-03-27T16:07:51Z</time>
      </trkpt>
      <trkpt lat="44.2751" lon="5.8019">
        <ele>556</ele>
        <time>2019-03-27T16:07:52Z</time>
      </trkpt>
      <trkpt lat="44.27503" lon="5.80201">
        <ele>557</ele>
        <time>2019-03-27T16:07:53Z</time>
      </trkpt>
      <trkpt lat="44.27496" lon="5.80212">
        <ele>557</ele>
        <time>2019-03-27T16:07:54Z</time>
      </trkpt>
      <trkpt lat="44.27489" lon="5.80223">
        <ele>557</ele>
        <time>2019-03-27T16:07:55Z</time>
      </trkpt>
      <trkpt lat="44.27483" lon="5.80234">
        <ele>557</ele>
        <time>2019-03-27T16:07:56Z</time>
      </trkpt>
      <trkpt lat="44.27478" lon="5.80245">
        <ele>557</ele>
        <time>2019-03-27T16:07:57Z</time>
      </trkpt>
      <trkpt lat="44.27472" lon="5.80258">
        <ele>557</ele>
        <time>2019-03-27T16:07:58Z</time>
      </trkpt>
      <trkpt lat="44.27466" lon="5.8027">
        <ele>557</ele>
        <time>2019-03-27T16:07:59Z</time>
      </trkpt>
      <trkpt lat="44.27461" lon="5.80282">
        <ele>557</ele>
        <time>2019-03-27T16:08:00Z</time>
      </trkpt>
      <trkpt lat="44.27456" lon="5.80295">
        <ele>557</ele>
        <time>2019-03-27T16:08:01Z</time>
      </trkpt>
      <trkpt lat="44.27452" lon="5.80308">
        <ele>557</ele>
        <time>2019-03-27T16:08:02Z</time>
      </trkpt>
      <trkpt lat="44.27447" lon="5.80322">
        <ele>557</ele>
        <time>2019-03-27T16:08:03Z</time>
      </trkpt>
      <trkpt lat="44.27442" lon="5.80336">
        <ele>557</ele>
        <time>2019-03-27T16:08:04Z</time>
      </trkpt>
      <trkpt lat="44.27437" lon="5.8035">
        <ele>557</ele>
        <time>2019-03-27T16:08:05Z</time>
      </trkpt>
      <trkpt lat="44.27431" lon="5.80364">
        <ele>557</ele>
        <time>2019-03-27T16:08:06Z</time>
      </trkpt>
      <trkpt lat="44.27427" lon="5.80378">
        <ele>557</ele>
        <time>2019-03-27T16:08:07Z</time>
      </trkpt>
      <trkpt lat="44.27424" lon="5.80393">
        <ele>557</ele>
        <time>2019-03-27T16:08:08Z</time>
      </trkpt>
      <trkpt lat="44.2742" lon="5.80407">
        <ele>556</ele>
        <time>2019-03-27T16:08:09Z</time>
      </trkpt>
      <trkpt lat="44.27415" lon="5.80421">
        <ele>555</ele>
        <time>2019-03-27T16:08:10Z</time>
      </trkpt>
      <trkpt lat="44.27411" lon="5.80436">
        <ele>554</ele>
        <time>2019-03-27T16:08:11Z</time>
      </trkpt>
      <trkpt lat="44.27408" lon="5.80449">
        <ele>553</ele>
        <time>2019-03-27T16:08:12Z</time>
      </trkpt>
      <trkpt lat="44.27402" lon="5.80463">
        <ele>553</ele>
        <time>2019-03-27T16:08:13Z</time>
      </trkpt>
      <trkpt lat="44.27396" lon="5.80475">
        <ele>552</ele>
        <time>2019-03-27T16:08:14Z</time>
      </trkpt>
      <trkpt lat="44.2739" lon="5.80488">
        <ele>552</ele>
        <time>2019-03-27T16:08:15Z</time>
      </trkpt>
      <trkpt lat="44.27383" lon="5.80501">
        <ele>552</ele>
        <time>2019-03-27T16:08:16Z</time>
      </trkpt>
      <trkpt lat="44.27377" lon="5.80511">
        <ele>552</ele>
        <time>2019-03-27T16:08:17Z</time>
      </trkpt>
      <trkpt lat="44.27371" lon="5.80522">
        <ele>552</ele>
        <time>2019-03-27T16:08:18Z</time>
      </trkpt>
      <trkpt lat="44.27363" lon="5.80533">
        <ele>552</ele>
        <time>2019-03-27T16:08:19Z</time>
      </trkpt>
      <trkpt lat="44.27356" lon="5.80544">
        <ele>551</ele>
        <time>2019-03-27T16:08:20Z</time>
      </trkpt>
      <trkpt lat="44.27349" lon="5.80555">
        <ele>551</ele>
        <time>2019-03-27T16:08:21Z</time>
      </trkpt>
      <trkpt lat="44.27344" lon="5.80566">
        <ele>551</ele>
        <time>2019-03-27T16:08:22Z</time>
      </trkpt>
      <trkpt lat="44.27338" lon="5.80576">
        <ele>551</ele>
        <time>2019-03-27T16:08:23Z</time>
      </trkpt>
      <trkpt lat="44.27333" lon="5.80587">
        <ele>551</ele>
        <time>2019-03-27T16:08:24Z</time>
      </trkpt>
      <trkpt lat="44.2733" lon="5.80599">
        <ele>551</ele>
        <time>2019-03-27T16:08:25Z</time>
      </trkpt>
      <trkpt lat="44.27327" lon="5.80612">
        <ele>550</ele>
        <time>2019-03-27T16:08:26Z</time>
      </trkpt>
      <trkpt lat="44.27325" lon="5.80625">
        <ele>550</ele>
        <time>2019-03-27T16:08:27Z</time>
      </trkpt>
      <trkpt lat="44.27326" lon="5.80638">
        <ele>550</ele>
        <time>2019-03-27T16:08:28Z</time>
      </trkpt>
      <trkpt lat="44.27327" lon="5.80651">
        <ele>550</ele>
        <time>2019-03-27T16:08:29Z</time>
      </trkpt>
      <trkpt lat="44.27327" lon="5.80664">
        <ele>550</ele>
        <time>2019-03-27T16:08:30Z</time>
      </trkpt>
      <trkpt lat="44.27327" lon="5.80678">
        <ele>549</ele>
        <time>2019-03-27T16:08:31Z</time>
      </trkpt>
      <trkpt lat="44.27325" lon="5.80691">
        <ele>549</ele>
        <time>2019-03-27T16:08:32Z</time>
      </trkpt>
      <trkpt lat="44.2732" lon="5.80702">
        <ele>549</ele>
        <time>2019-03-27T16:08:33Z</time>
      </trkpt>
      <trkpt lat="44.27314" lon="5.80713">
        <ele>549</ele>
        <time>2019-03-27T16:08:34Z</time>
      </trkpt>
      <trkpt lat="44.27308" lon="5.80724">
        <ele>549</ele>
        <time>2019-03-27T16:08:35Z</time>
      </trkpt>
      <trkpt lat="44.27302" lon="5.80735">
        <ele>548</ele>
        <time>2019-03-27T16:08:36Z</time>
      </trkpt>
      <trkpt lat="44.27298" lon="5.80748">
        <ele>548</ele>
        <time>2019-03-27T16:08:37Z</time>
      </trkpt>
      <trkpt lat="44.27293" lon="5.8076">
        <ele>548</ele>
        <time>2019-03-27T16:08:38Z</time>
      </trkpt>
      <trkpt lat="44.2729" lon="5.80773">
        <ele>548</ele>
        <time>2019-03-27T16:08:39Z</time>
      </trkpt>
      <trkpt lat="44.27286" lon="5.80786">
        <ele>548</ele>
        <time>2019-03-27T16:08:40Z</time>
      </trkpt>
      <trkpt lat="44.27281" lon="5.80799">
        <ele>548</ele>
        <time>2019-03-27T16:08:41Z</time>
      </trkpt>
      <trkpt lat="44.27277" lon="5.80811">
        <ele>548</ele>
        <time>2019-03-27T16:08:42Z</time>
      </trkpt>
      <trkpt lat="44.27273" lon="5.80823">
        <ele>548</ele>
        <time>2019-03-27T16:08:43Z</time>
      </trkpt>
      <trkpt lat="44.27269" lon="5.80835">
        <ele>548</ele>
        <time>2019-03-27T16:08:44Z</time>
      </trkpt>
      <trkpt lat="44.27266" lon="5.80847">
        <ele>548</ele>
        <time>2019-03-27T16:08:45Z</time>
      </trkpt>
      <trkpt lat="44.27263" lon="5.80859">
        <ele>547</ele>
        <time>2019-03-27T16:08:46Z</time>
      </trkpt>
      <trkpt lat="44.27259" lon="5.80872">
        <ele>547</ele>
        <time>2019-03-27T16:08:47Z</time>
      </trkpt>
      <trkpt lat="44.27256" lon="5.80884">
        <ele>546</ele>
        <time>2019-03-27T16:08:48Z</time>
      </trkpt>
      <trkpt lat="44.27252" lon="5.80897">
        <ele>546</ele>
        <time>2019-03-27T16:08:49Z</time>
      </trkpt>
      <trkpt lat="44.27249" lon="5.8091">
        <ele>546</ele>
        <time>2019-03-27T16:08:50Z</time>
      </trkpt>
      <trkpt lat="44.27246" lon="5.80923">
        <ele>545</ele>
        <time>2019-03-27T16:08:51Z</time>
      </trkpt>
      <trkpt lat="44.27242" lon="5.80936">
        <ele>545</ele>
        <time>2019-03-27T16:08:52Z</time>
      </trkpt>
      <trkpt lat="44.27238" lon="5.80948">
        <ele>545</ele>
        <time>2019-03-27T16:08:53Z</time>
      </trkpt>
      <trkpt lat="44.27235" lon="5.8096">
        <ele>544</ele>
        <time>2019-03-27T16:08:54Z</time>
      </trkpt>
      <trkpt lat="44.27233" lon="5.80972">
        <ele>544</ele>
        <time>2019-03-27T16:08:55Z</time>
      </trkpt>
      <trkpt lat="44.2723" lon="5.80984">
        <ele>543</ele>
        <time>2019-03-27T16:08:56Z</time>
      </trkpt>
      <trkpt lat="44.27228" lon="5.80995">
        <ele>543</ele>
        <time>2019-03-27T16:08:57Z</time>
      </trkpt>
      <trkpt lat="44.27225" lon="5.81007">
        <ele>543</ele>
        <time>2019-03-27T16:08:58Z</time>
      </trkpt>
      <trkpt lat="44.27223" lon="5.81018">
        <ele>543</ele>
        <time>2019-03-27T16:08:59Z</time>
      </trkpt>
      <trkpt lat="44.27222" lon="5.81029">
        <ele>543</ele>
        <time>2019-03-27T16:09:00Z</time>
      </trkpt>
      <trkpt lat="44.27221" lon="5.81039">
        <ele>543</ele>
        <time>2019-03-27T16:09:01Z</time>
      </trkpt>
      <trkpt lat="44.27219" lon="5.8105">
        <ele>543</ele>
        <time>2019-03-27T16:09:02Z</time>
      </trkpt>
      <trkpt lat="44.27217" lon="5.81061">
        <ele>543</ele>
        <time>2019-03-27T16:09:03Z</time>
      </trkpt>
      <trkpt lat="44.27216" lon="5.8107">
        <ele>543</ele>
        <time>2019-03-27T16:09:04Z</time>
      </trkpt>
      <trkpt lat="44.27216" lon="5.8108">
        <ele>543</ele>
        <time>2019-03-27T16:09:05Z</time>
      </trkpt>
      <trkpt lat="44.27216" lon="5.8109">
        <ele>543</ele>
        <time>2019-03-27T16:09:06Z</time>
      </trkpt>
      <trkpt lat="44.27217" lon="5.81099">
        <ele>543</ele>
        <time>2019-03-27T16:09:07Z</time>
      </trkpt>
      <trkpt lat="44.27217" lon="5.81109">
        <ele>543</ele>
        <time>2019-03-27T16:09:08Z</time>
      </trkpt>
      <trkpt lat="44.27218" lon="5.81118">
        <ele>543</ele>
        <time>2019-03-27T16:09:09Z</time>
      </trkpt>
      <trkpt lat="44.27218" lon="5.81126">
        <ele>543</ele>
        <time>2019-03-27T16:09:10Z</time>
      </trkpt>
      <trkpt lat="44.27218" lon="5.81135">
        <ele>543</ele>
        <time>2019-03-27T16:09:11Z</time>
      </trkpt>
      <trkpt lat="44.27219" lon="5.81144">
        <ele>543</ele>
        <time>2019-03-27T16:09:12Z</time>
      </trkpt>
      <trkpt lat="44.27219" lon="5.81152">
        <ele>543</ele>
        <time>2019-03-27T16:09:13Z</time>
      </trkpt>
      <trkpt lat="44.27222" lon="5.81158">
        <ele>543</ele>
        <time>2019-03-27T16:09:14Z</time>
      </trkpt>
      <trkpt lat="44.27225" lon="5.81165">
        <ele>543</ele>
        <time>2019-03-27T16:09:15Z</time>
      </trkpt>
      <trkpt lat="44.2723" lon="5.81169">
        <ele>543</ele>
        <time>2019-03-27T16:09:16Z</time>
      </trkpt>
      <trkpt lat="44.27234" lon="5.81173">
        <ele>543</ele>
        <time>2019-03-27T16:09:17Z</time>
      </trkpt>
      <trkpt lat="44.27239" lon="5.81177">
        <ele>543</ele>
        <time>2019-03-27T16:09:18Z</time>
      </trkpt>
      <trkpt lat="44.27244" lon="5.81181">
        <ele>543</ele>
        <time>2019-03-27T16:09:19Z</time>
      </trkpt>
      <trkpt lat="44.27249" lon="5.81185">
        <ele>543</ele>
        <time>2019-03-27T16:09:20Z</time>
      </trkpt>
      <trkpt lat="44.27255" lon="5.81189">
        <ele>543</ele>
        <time>2019-03-27T16:09:21Z</time>
      </trkpt>
      <trkpt lat="44.2726" lon="5.81194">
        <ele>543</ele>
        <time>2019-03-27T16:09:22Z</time>
      </trkpt>
      <trkpt lat="44.27266" lon="5.81198">
        <ele>543</ele>
        <time>2019-03-27T16:09:23Z</time>
      </trkpt>
      <trkpt lat="44.27271" lon="5.81204">
        <ele>543</ele>
        <time>2019-03-27T16:09:24Z</time>
      </trkpt>
      <trkpt lat="44.27276" lon="5.81209">
        <ele>543</ele>
        <time>2019-03-27T16:09:25Z</time>
      </trkpt>
      <trkpt lat="44.27281" lon="5.81215">
        <ele>543</ele>
        <time>2019-03-27T16:09:26Z</time>
      </trkpt>
      <trkpt lat="44.27286" lon="5.81221">
        <ele>543</ele>
        <time>2019-03-27T16:09:27Z</time>
      </trkpt>
      <trkpt lat="44.27291" lon="5.81228">
        <ele>543</ele>
        <time>2019-03-27T16:09:28Z</time>
      </trkpt>
      <trkpt lat="44.27296" lon="5.81235">
        <ele>543</ele>
        <time>2019-03-27T16:09:29Z</time>
      </trkpt>
      <trkpt lat="44.27301" lon="5.81241">
        <ele>543</ele>
        <time>2019-03-27T16:09:30Z</time>
      </trkpt>
      <trkpt lat="44.27306" lon="5.81248">
        <ele>543</ele>
        <time>2019-03-27T16:09:31Z</time>
      </trkpt>
      <trkpt lat="44.27311" lon="5.81255">
        <ele>543</ele>
        <time>2019-03-27T16:09:32Z</time>
      </trkpt>
      <trkpt lat="44.27316" lon="5.81262">
        <ele>543</ele>
        <time>2019-03-27T16:09:33Z</time>
      </trkpt>
      <trkpt lat="44.27321" lon="5.81269">
        <ele>543</ele>
        <time>2019-03-27T16:09:34Z</time>
      </trkpt>
      <trkpt lat="44.27326" lon="5.81276">
        <ele>543</ele>
        <time>2019-03-27T16:09:35Z</time>
      </trkpt>
      <trkpt lat="44.27332" lon="5.81283">
        <ele>543</ele>
        <time>2019-03-27T16:09:36Z</time>
      </trkpt>
      <trkpt lat="44.27337" lon="5.8129">
        <ele>543</ele>
        <time>2019-03-27T16:09:37Z</time>
      </trkpt>
      <trkpt lat="44.27342" lon="5.81297">
        <ele>543</ele>
        <time>2019-03-27T16:09:38Z</time>
      </trkpt>
      <trkpt lat="44.27348" lon="5.81303">
        <ele>543</ele>
        <time>2019-03-27T16:09:39Z</time>
      </trkpt>
      <trkpt lat="44.27353" lon="5.81308">
        <ele>543</ele>
        <time>2019-03-27T16:09:40Z</time>
      </trkpt>
      <trkpt lat="44.27359" lon="5.81313">
        <ele>543</ele>
        <time>2019-03-27T16:09:41Z</time>
      </trkpt>
      <trkpt lat="44.27365" lon="5.81317">
        <ele>543</ele>
        <time>2019-03-27T16:09:42Z</time>
      </trkpt>
      <trkpt lat="44.27372" lon="5.81321">
        <ele>543</ele>
        <time>2019-03-27T16:09:43Z</time>
      </trkpt>
      <trkpt lat="44.27378" lon="5.81325">
        <ele>543</ele>
        <time>2019-03-27T16:09:44Z</time>
      </trkpt>
      <trkpt lat="44.27384" lon="5.8133">
        <ele>543</ele>
        <time>2019-03-27T16:09:45Z</time>
      </trkpt>
      <trkpt lat="44.27391" lon="5.81335">
        <ele>543</ele>
        <time>2019-03-27T16:09:46Z</time>
      </trkpt>
      <trkpt lat="44.27397" lon="5.81339">
        <ele>543</ele>
        <time>2019-03-27T16:09:47Z</time>
      </trkpt>
      <trkpt lat="44.27404" lon="5.81343">
        <ele>543</ele>
        <time>2019-03-27T16:09:48Z</time>
      </trkpt>
      <trkpt lat="44.27411" lon="5.81348">
        <ele>543</ele>
        <time>2019-03-27T16:09:49Z</time>
      </trkpt>
      <trkpt lat="44.27417" lon="5.81351">
        <ele>543</ele>
        <time>2019-03-27T16:09:50Z</time>
      </trkpt>
      <trkpt lat="44.27424" lon="5.81355">
        <ele>543</ele>
        <time>2019-03-27T16:09:51Z</time>
      </trkpt>
      <trkpt lat="44.27431" lon="5.81359">
        <ele>543</ele>
        <time>2019-03-27T16:09:52Z</time>
      </trkpt>
      <trkpt lat="44.27438" lon="5.81364">
        <ele>543</ele>
        <time>2019-03-27T16:09:53Z</time>
      </trkpt>
      <trkpt lat="44.27445" lon="5.81368">
        <ele>543</ele>
        <time>2019-03-27T16:09:54Z</time>
      </trkpt>
      <trkpt lat="44.27452" lon="5.81372">
        <ele>543</ele>
        <time>2019-03-27T16:09:55Z</time>
      </trkpt>
      <trkpt lat="44.27459" lon="5.81377">
        <ele>543</ele>
        <time>2019-03-27T16:09:56Z</time>
      </trkpt>
      <trkpt lat="44.27466" lon="5.81381">
        <ele>543</ele>
        <time>2019-03-27T16:09:57Z</time>
      </trkpt>
      <trkpt lat="44.27473" lon="5.81386">
        <ele>543</ele>
        <time>2019-03-27T16:09:58Z</time>
      </trkpt>
      <trkpt lat="44.2748" lon="5.81392">
        <ele>543</ele>
        <time>2019-03-27T16:09:59Z</time>
      </trkpt>
      <trkpt lat="44.27486" lon="5.81398">
        <ele>543</ele>
        <time>2019-03-27T16:10:00Z</time>
      </trkpt>
      <trkpt lat="44.27492" lon="5.81404">
        <ele>543</ele>
        <time>2019-03-27T16:10:01Z</time>
      </trkpt>
      <trkpt lat="44.27498" lon="5.81411">
        <ele>543</ele>
        <time>2019-03-27T16:10:02Z</time>
      </trkpt>
      <trkpt lat="44.27504" lon="5.81418">
        <ele>543</ele>
        <time>2019-03-27T16:10:03Z</time>
      </trkpt>
      <trkpt lat="44.2751" lon="5.81425">
        <ele>543</ele>
        <time>2019-03-27T16:10:04Z</time>
      </trkpt>
      <trkpt lat="44.27516" lon="5.81432">
        <ele>543</ele>
        <time>2019-03-27T16:10:05Z</time>
      </trkpt>
      <trkpt lat="44.27521" lon="5.81439">
        <ele>543</ele>
        <time>2019-03-27T16:10:06Z</time>
      </trkpt>
      <trkpt lat="44.27527" lon="5.81446">
        <ele>543</ele>
        <time>2019-03-27T16:10:07Z</time>
      </trkpt>
      <trkpt lat="44.27532" lon="5.81453">
        <ele>543</ele>
        <time>2019-03-27T16:10:08Z</time>
      </trkpt>
      <trkpt lat="44.27538" lon="5.8146">
        <ele>543</ele>
        <time>2019-03-27T16:10:09Z</time>
      </trkpt>
      <trkpt lat="44.27543" lon="5.81466">
        <ele>543</ele>
        <time>2019-03-27T16:10:10Z</time>
      </trkpt>
      <trkpt lat="44.27549" lon="5.81473">
        <ele>543</ele>
        <time>2019-03-27T16:10:11Z</time>
      </trkpt>
      <trkpt lat="44.27553" lon="5.8148">
        <ele>543</ele>
        <time>2019-03-27T16:10:12Z</time>
      </trkpt>
      <trkpt lat="44.27559" lon="5.81486">
        <ele>543</ele>
        <time>2019-03-27T16:10:13Z</time>
      </trkpt>
      <trkpt lat="44.27564" lon="5.81493">
        <ele>543</ele>
        <time>2019-03-27T16:10:14Z</time>
      </trkpt>
      <trkpt lat="44.2757" lon="5.81499">
        <ele>543</ele>
        <time>2019-03-27T16:10:15Z</time>
      </trkpt>
      <trkpt lat="44.27575" lon="5.81506">
        <ele>543</ele>
        <time>2019-03-27T16:10:16Z</time>
      </trkpt>
      <trkpt lat="44.27579" lon="5.81512">
        <ele>543</ele>
        <time>2019-03-27T16:10:17Z</time>
      </trkpt>
      <trkpt lat="44.27584" lon="5.81519">
        <ele>543</ele>
        <time>2019-03-27T16:10:18Z</time>
      </trkpt>
      <trkpt lat="44.27588" lon="5.81524">
        <ele>543</ele>
        <time>2019-03-27T16:10:19Z</time>
      </trkpt>
      <trkpt lat="44.27593" lon="5.8153">
        <ele>543</ele>
        <time>2019-03-27T16:10:20Z</time>
      </trkpt>
      <trkpt lat="44.27597" lon="5.81535">
        <ele>543</ele>
        <time>2019-03-27T16:10:21Z</time>
      </trkpt>
      <trkpt lat="44.27602" lon="5.81541">
        <ele>543</ele>
        <time>2019-03-27T16:10:22Z</time>
      </trkpt>
      <trkpt lat="44.27606" lon="5.81547">
        <ele>543</ele>
        <time>2019-03-27T16:10:23Z</time>
      </trkpt>
      <trkpt lat="44.2761" lon="5.81552">
        <ele>543</ele>
        <time>2019-03-27T16:10:24Z</time>
      </trkpt>
      <trkpt lat="44.27615" lon="5.81558">
        <ele>543</ele>
        <time>2019-03-27T16:10:25Z</time>
      </trkpt>
      <trkpt lat="44.2762" lon="5.81563">
        <ele>543</ele>
        <time>2019-03-27T16:10:26Z</time>
      </trkpt>
      <trkpt lat="44.27625" lon="5.81569">
        <ele>543</ele>
        <time>2019-03-27T16:10:27Z</time>
      </trkpt>
      <trkpt lat="44.27629" lon="5.81574">
        <ele>543</ele>
        <time>2019-03-27T16:10:28Z</time>
      </trkpt>
      <trkpt lat="44.27634" lon="5.8158">
        <ele>543</ele>
        <time>2019-03-27T16:10:29Z</time>
      </trkpt>
      <trkpt lat="44.27639" lon="5.81586">
        <ele>543</ele>
        <time>2019-03-27T16:10:30Z</time>
      </trkpt>
      <trkpt lat="44.27644" lon="5.81592">
        <ele>543</ele>
        <time>2019-03-27T16:10:31Z</time>
      </trkpt>
      <trkpt lat="44.2765" lon="5.81598">
        <ele>543</ele>
        <time>2019-03-27T16:10:32Z</time>
      </trkpt>
      <trkpt lat="44.27654" lon="5.81603">
        <ele>543</ele>
        <time>2019-03-27T16:10:33Z</time>
      </trkpt>
      <trkpt lat="44.2766" lon="5.81609">
        <ele>543</ele>
        <time>2019-03-27T16:10:34Z</time>
      </trkpt>
      <trkpt lat="44.27665" lon="5.81615">
        <ele>543</ele>
        <time>2019-03-27T16:10:35Z</time>
      </trkpt>
      <trkpt lat="44.2767" lon="5.81621">
        <ele>543</ele>
        <time>2019-03-27T16:10:36Z</time>
      </trkpt>
      <trkpt lat="44.27675" lon="5.81627">
        <ele>543</ele>
        <time>2019-03-27T16:10:37Z</time>
      </trkpt>
      <trkpt lat="44.2768" lon="5.81632">
        <ele>543</ele>
        <time>2019-03-27T16:10:38Z</time>
      </trkpt>
      <trkpt lat="44.27684" lon="5.81638">
        <ele>543</ele>
        <time>2019-03-27T16:10:39Z</time>
      </trkpt>
      <trkpt lat="44.27689" lon="5.81644">
        <ele>543</ele>
        <time>2019-03-27T16:10:40Z</time>
      </trkpt>
      <trkpt lat="44.27694" lon="5.81649">
        <ele>543</ele>
        <time>2019-03-27T16:10:41Z</time>
      </trkpt>
      <trkpt lat="44.27699" lon="5.81655">
        <ele>543</ele>
        <time>2019-03-27T16:10:42Z</time>
      </trkpt>
      <trkpt lat="44.27703" lon="5.8166">
        <ele>543</ele>
        <time>2019-03-27T16:10:43Z</time>
      </trkpt>
      <trkpt lat="44.27707" lon="5.81665">
        <ele>543</ele>
        <time>2019-03-27T16:10:44Z</time>
      </trkpt>
      <trkpt lat="44.27711" lon="5.8167">
        <ele>543</ele>
        <time>2019-03-27T16:10:45Z</time>
      </trkpt>
      <trkpt lat="44.27715" lon="5.81675">
        <ele>543</ele>
        <time>2019-03-27T16:10:46Z</time>
      </trkpt>
      <trkpt lat="44.27719" lon="5.81681">
        <ele>543</ele>
        <time>2019-03-27T16:10:47Z</time>
      </trkpt>
      <trkpt lat="44.27723" lon="5.81688">
        <ele>543</ele>
        <time>2019-03-27T16:10:48Z</time>
      </trkpt>
      <trkpt lat="44.27728" lon="5.81694">
        <ele>543</ele>
        <time>2019-03-27T16:10:49Z</time>
      </trkpt>
      <trkpt lat="44.27733" lon="5.81699">
        <ele>543</ele>
        <time>2019-03-27T16:10:50Z</time>
      </trkpt>
      <trkpt lat="44.27738" lon="5.81704">
        <ele>543</ele>
        <time>2019-03-27T16:10:51Z</time>
      </trkpt>
      <trkpt lat="44.27744" lon="5.81708">
        <ele>543</ele>
        <time>2019-03-27T16:10:52Z</time>
      </trkpt>
      <trkpt lat="44.2775" lon="5.81712">
        <ele>543</ele>
        <time>2019-03-27T16:10:53Z</time>
      </trkpt>
      <trkpt lat="44.27755" lon="5.81715">
        <ele>543</ele>
        <time>2019-03-27T16:10:54Z</time>
      </trkpt>
      <trkpt lat="44.27761" lon="5.81719">
        <ele>543</ele>
        <time>2019-03-27T16:10:55Z</time>
      </trkpt>
      <trkpt lat="44.27766" lon="5.81722">
        <ele>543</ele>
        <time>2019-03-27T16:10:56Z</time>
      </trkpt>
      <trkpt lat="44.27771" lon="5.81725">
        <ele>543</ele>
        <time>2019-03-27T16:10:57Z</time>
      </trkpt>
      <trkpt lat="44.27776" lon="5.81729">
        <ele>543</ele>
        <time>2019-03-27T16:10:58Z</time>
      </trkpt>
      <trkpt lat="44.27781" lon="5.81732">
        <ele>543</ele>
        <time>2019-03-27T16:10:59Z</time>
      </trkpt>
      <trkpt lat="44.27787" lon="5.81735">
        <ele>543</ele>
        <time>2019-03-27T16:11:00Z</time>
      </trkpt>
      <trkpt lat="44.27792" lon="5.81738">
        <ele>543</ele>
        <time>2019-03-27T16:11:01Z</time>
      </trkpt>
      <trkpt lat="44.27797" lon="5.81742">
        <ele>543</ele>
        <time>2019-03-27T16:11:02Z</time>
      </trkpt>
      <trkpt lat="44.27801" lon="5.81745">
        <ele>543</ele>
        <time>2019-03-27T16:11:03Z</time>
      </trkpt>
      <trkpt lat="44.27806" lon="5.81748">
        <ele>543</ele>
        <time>2019-03-27T16:11:04Z</time>
      </trkpt>
      <trkpt lat="44.27811" lon="5.81751">
        <ele>543</ele>
        <time>2019-03-27T16:11:05Z</time>
      </trkpt>
      <trkpt lat="44.27816" lon="5.81754">
        <ele>543</ele>
        <time>2019-03-27T16:11:06Z</time>
      </trkpt>
      <trkpt lat="44.27821" lon="5.81758">
        <ele>543</ele>
        <time>2019-03-27T16:11:07Z</time>
      </trkpt>
      <trkpt lat="44.27826" lon="5.81761">
        <ele>544</ele>
        <time>2019-03-27T16:11:08Z</time>
      </trkpt>
      <trkpt lat="44.27831" lon="5.81764">
        <ele>544</ele>
        <time>2019-03-27T16:11:09Z</time>
      </trkpt>
      <trkpt lat="44.27836" lon="5.81767">
        <ele>544</ele>
        <time>2019-03-27T16:11:10Z</time>
      </trkpt>
      <trkpt lat="44.27841" lon="5.8177">
        <ele>544</ele>
        <time>2019-03-27T16:11:11Z</time>
      </trkpt>
      <trkpt lat="44.27846" lon="5.81774">
        <ele>544</ele>
        <time>2019-03-27T16:11:12Z</time>
      </trkpt>
      <trkpt lat="44.27851" lon="5.81777">
        <ele>544</ele>
        <time>2019-03-27T16:11:13Z</time>
      </trkpt>
      <trkpt lat="44.27857" lon="5.8178">
        <ele>544</ele>
        <time>2019-03-27T16:11:14Z</time>
      </trkpt>
      <trkpt lat="44.27863" lon="5.81784">
        <ele>545</ele>
        <time>2019-03-27T16:11:15Z</time>
      </trkpt>
      <trkpt lat="44.27868" lon="5.81787">
        <ele>545</ele>
        <time>2019-03-27T16:11:16Z</time>
      </trkpt>
      <trkpt lat="44.27873" lon="5.8179">
        <ele>545</ele>
        <time>2019-03-27T16:11:17Z</time>
      </trkpt>
      <trkpt lat="44.27877" lon="5.81794">
        <ele>545</ele>
        <time>2019-03-27T16:11:18Z</time>
      </trkpt>
      <trkpt lat="44.27883" lon="5.81798">
        <ele>545</ele>
        <time>2019-03-27T16:11:19Z</time>
      </trkpt>
      <trkpt lat="44.27889" lon="5.81801">
        <ele>546</ele>
        <time>2019-03-27T16:11:20Z</time>
      </trkpt>
      <trkpt lat="44.27895" lon="5.81805">
        <ele>546</ele>
        <time>2019-03-27T16:11:21Z</time>
      </trkpt>
      <trkpt lat="44.279" lon="5.81809">
        <ele>546</ele>
        <time>2019-03-27T16:11:22Z</time>
      </trkpt>
      <trkpt lat="44.27904" lon="5.81812">
        <ele>546</ele>
        <time>2019-03-27T16:11:23Z</time>
      </trkpt>
      <trkpt lat="44.27908" lon="5.81816">
        <ele>546</ele>
        <time>2019-03-27T16:11:24Z</time>
      </trkpt>
      <trkpt lat="44.27914" lon="5.81819">
        <ele>546</ele>
        <time>2019-03-27T16:11:25Z</time>
      </trkpt>
      <trkpt lat="44.27919" lon="5.81822">
        <ele>546</ele>
        <time>2019-03-27T16:11:26Z</time>
      </trkpt>
      <trkpt lat="44.27925" lon="5.81826">
        <ele>546</ele>
        <time>2019-03-27T16:11:27Z</time>
      </trkpt>
      <trkpt lat="44.27931" lon="5.81829">
        <ele>546</ele>
        <time>2019-03-27T16:11:28Z</time>
      </trkpt>
      <trkpt lat="44.27936" lon="5.81833">
        <ele>546</ele>
        <time>2019-03-27T16:11:29Z</time>
      </trkpt>
      <trkpt lat="44.27942" lon="5.81837">
        <ele>546</ele>
        <time>2019-03-27T16:11:30Z</time>
      </trkpt>
      <trkpt lat="44.27947" lon="5.81841">
        <ele>546</ele>
        <time>2019-03-27T16:11:31Z</time>
      </trkpt>
      <trkpt lat="44.27953" lon="5.81844">
        <ele>546</ele>
        <time>2019-03-27T16:11:32Z</time>
      </trkpt>
      <trkpt lat="44.27958" lon="5.81848">
        <ele>546</ele>
        <time>2019-03-27T16:11:33Z</time>
      </trkpt>
      <trkpt lat="44.27964" lon="5.81852">
        <ele>546</ele>
        <time>2019-03-27T16:11:34Z</time>
      </trkpt>
      <trkpt lat="44.27969" lon="5.81855">
        <ele>546</ele>
        <time>2019-03-27T16:11:35Z</time>
      </trkpt>
      <trkpt lat="44.27975" lon="5.81859">
        <ele>546</ele>
        <time>2019-03-27T16:11:36Z</time>
      </trkpt>
      <trkpt lat="44.27981" lon="5.81862">
        <ele>546</ele>
        <time>2019-03-27T16:11:37Z</time>
      </trkpt>
      <trkpt lat="44.27987" lon="5.81867">
        <ele>546</ele>
        <time>2019-03-27T16:11:38Z</time>
      </trkpt>
      <trkpt lat="44.27993" lon="5.8187">
        <ele>546</ele>
        <time>2019-03-27T16:11:39Z</time>
      </trkpt>
      <trkpt lat="44.28" lon="5.81874">
        <ele>546</ele>
        <time>2019-03-27T16:11:40Z</time>
      </trkpt>
      <trkpt lat="44.28006" lon="5.81878">
        <ele>546</ele>
        <time>2019-03-27T16:11:41Z</time>
      </trkpt>
      <trkpt lat="44.28012" lon="5.81882">
        <ele>546</ele>
        <time>2019-03-27T16:11:42Z</time>
      </trkpt>
      <trkpt lat="44.28019" lon="5.81886">
        <ele>546</ele>
        <time>2019-03-27T16:11:43Z</time>
      </trkpt>
      <trkpt lat="44.28025" lon="5.8189">
        <ele>546</ele>
        <time>2019-03-27T16:11:44Z</time>
      </trkpt>
      <trkpt lat="44.28032" lon="5.81894">
        <ele>546</ele>
        <time>2019-03-27T16:11:45Z</time>
      </trkpt>
      <trkpt lat="44.28038" lon="5.81899">
        <ele>546</ele>
        <time>2019-03-27T16:11:46Z</time>
      </trkpt>
      <trkpt lat="44.28044" lon="5.81903">
        <ele>546</ele>
        <time>2019-03-27T16:11:47Z</time>
      </trkpt>
      <trkpt lat="44.2805" lon="5.81907">
        <ele>546</ele>
        <time>2019-03-27T16:11:48Z</time>
      </trkpt>
      <trkpt lat="44.28056" lon="5.81911">
        <ele>547</ele>
        <time>2019-03-27T16:11:49Z</time>
      </trkpt>
      <trkpt lat="44.28063" lon="5.81915">
        <ele>547</ele>
        <time>2019-03-27T16:11:50Z</time>
      </trkpt>
      <trkpt lat="44.28069" lon="5.81919">
        <ele>547</ele>
        <time>2019-03-27T16:11:51Z</time>
      </trkpt>
      <trkpt lat="44.28075" lon="5.81923">
        <ele>547</ele>
        <time>2019-03-27T16:11:52Z</time>
      </trkpt>
      <trkpt lat="44.28081" lon="5.81927">
        <ele>547</ele>
        <time>2019-03-27T16:11:53Z</time>
      </trkpt>
      <trkpt lat="44.28088" lon="5.81931">
        <ele>547</ele>
        <time>2019-03-27T16:11:54Z</time>
      </trkpt>
      <trkpt lat="44.28094" lon="5.81935">
        <ele>547</ele>
        <time>2019-03-27T16:11:55Z</time>
      </trkpt>
      <trkpt lat="44.281" lon="5.81939">
        <ele>547</ele>
        <time>2019-03-27T16:11:56Z</time>
      </trkpt>
      <trkpt lat="44.28106" lon="5.81943">
        <ele>547</ele>
        <time>2019-03-27T16:11:57Z</time>
      </trkpt>
      <trkpt lat="44.28112" lon="5.81947">
        <ele>547</ele>
        <time>2019-03-27T16:11:58Z</time>
      </trkpt>
      <trkpt lat="44.28118" lon="5.81951">
        <ele>547</ele>
        <time>2019-03-27T16:11:59Z</time>
      </trkpt>
      <trkpt lat="44.28125" lon="5.81955">
        <ele>547</ele>
        <time>2019-03-27T16:12:00Z</time>
      </trkpt>
      <trkpt lat="44.28131" lon="5.81959">
        <ele>547</ele>
        <time>2019-03-27T16:12:01Z</time>
      </trkpt>
      <trkpt lat="44.28137" lon="5.81963">
        <ele>547</ele>
        <time>2019-03-27T16:12:02Z</time>
      </trkpt>
      <trkpt lat="44.28143" lon="5.81966">
        <ele>547</ele>
        <time>2019-03-27T16:12:03Z</time>
      </trkpt>
      <trkpt lat="44.28149" lon="5.8197">
        <ele>548</ele>
        <time>2019-03-27T16:12:04Z</time>
      </trkpt>
      <trkpt lat="44.28155" lon="5.81974">
        <ele>548</ele>
        <time>2019-03-27T16:12:05Z</time>
      </trkpt>
      <trkpt lat="44.28161" lon="5.81978">
        <ele>548</ele>
        <time>2019-03-27T16:12:06Z</time>
      </trkpt>
      <trkpt lat="44.28167" lon="5.81982">
        <ele>548</ele>
        <time>2019-03-27T16:12:07Z</time>
      </trkpt>
      <trkpt lat="44.28173" lon="5.81986">
        <ele>548</ele>
        <time>2019-03-27T16:12:08Z</time>
      </trkpt>
      <trkpt lat="44.28179" lon="5.8199">
        <ele>548</ele>
        <time>2019-03-27T16:12:09Z</time>
      </trkpt>
      <trkpt lat="44.28185" lon="5.81993">
        <ele>548</ele>
        <time>2019-03-27T16:12:10Z</time>
      </trkpt>
      <trkpt lat="44.28191" lon="5.81997">
        <ele>548</ele>
        <time>2019-03-27T16:12:11Z</time>
      </trkpt>
      <trkpt lat="44.28197" lon="5.82001">
        <ele>548</ele>
        <time>2019-03-27T16:12:12Z</time>
      </trkpt>
      <trkpt lat="44.28203" lon="5.82004">
        <ele>549</ele>
        <time>2019-03-27T16:12:13Z</time>
      </trkpt>
      <trkpt lat="44.28209" lon="5.82008">
        <ele>549</ele>
        <time>2019-03-27T16:12:14Z</time>
      </trkpt>
      <trkpt lat="44.28215" lon="5.82011">
        <ele>549</ele>
        <time>2019-03-27T16:12:15Z</time>
      </trkpt>
      <trkpt lat="44.28222" lon="5.82014">
        <ele>549</ele>
        <time>2019-03-27T16:12:16Z</time>
      </trkpt>
      <trkpt lat="44.28228" lon="5.82017">
        <ele>549</ele>
        <time>2019-03-27T16:12:17Z</time>
      </trkpt>
      <trkpt lat="44.28234" lon="5.8202">
        <ele>549</ele>
        <time>2019-03-27T16:12:18Z</time>
      </trkpt>
      <trkpt lat="44.28241" lon="5.82022">
        <ele>549</ele>
        <time>2019-03-27T16:12:19Z</time>
      </trkpt>
      <trkpt lat="44.28247" lon="5.82024">
        <ele>549</ele>
        <time>2019-03-27T16:12:20Z</time>
      </trkpt>
      <trkpt lat="44.28253" lon="5.82025">
        <ele>549</ele>
        <time>2019-03-27T16:12:21Z</time>
      </trkpt>
      <trkpt lat="44.28259" lon="5.82026">
        <ele>549</ele>
        <time>2019-03-27T16:12:22Z</time>
      </trkpt>
      <trkpt lat="44.28265" lon="5.82027">
        <ele>549</ele>
        <time>2019-03-27T16:12:23Z</time>
      </trkpt>
      <trkpt lat="44.28272" lon="5.82027">
        <ele>549</ele>
        <time>2019-03-27T16:12:24Z</time>
      </trkpt>
      <trkpt lat="44.28278" lon="5.82027">
        <ele>549</ele>
        <time>2019-03-27T16:12:25Z</time>
      </trkpt>
      <trkpt lat="44.28284" lon="5.82028">
        <ele>549</ele>
        <time>2019-03-27T16:12:26Z</time>
      </trkpt>
      <trkpt lat="44.2829" lon="5.82028">
        <ele>550</ele>
        <time>2019-03-27T16:12:27Z</time>
      </trkpt>
      <trkpt lat="44.28297" lon="5.82028">
        <ele>550</ele>
        <time>2019-03-27T16:12:28Z</time>
      </trkpt>
      <trkpt lat="44.28303" lon="5.82029">
        <ele>550</ele>
        <time>2019-03-27T16:12:29Z</time>
      </trkpt>
      <trkpt lat="44.2831" lon="5.82029">
        <ele>550</ele>
        <time>2019-03-27T16:12:30Z</time>
      </trkpt>
      <trkpt lat="44.28316" lon="5.82029">
        <ele>550</ele>
        <time>2019-03-27T16:12:31Z</time>
      </trkpt>
      <trkpt lat="44.28323" lon="5.82029">
        <ele>550</ele>
        <time>2019-03-27T16:12:32Z</time>
      </trkpt>
      <trkpt lat="44.28329" lon="5.8203">
        <ele>550</ele>
        <time>2019-03-27T16:12:33Z</time>
      </trkpt>
      <trkpt lat="44.28336" lon="5.8203">
        <ele>550</ele>
        <time>2019-03-27T16:12:34Z</time>
      </trkpt>
      <trkpt lat="44.28343" lon="5.8203">
        <ele>550</ele>
        <time>2019-03-27T16:12:35Z</time>
      </trkpt>
      <trkpt lat="44.2835" lon="5.82031">
        <ele>550</ele>
        <time>2019-03-27T16:12:36Z</time>
      </trkpt>
      <trkpt lat="44.28357" lon="5.82031">
        <ele>550</ele>
        <time>2019-03-27T16:12:37Z</time>
      </trkpt>
      <trkpt lat="44.28363" lon="5.8203">
        <ele>550</ele>
        <time>2019-03-27T16:12:38Z</time>
      </trkpt>
      <trkpt lat="44.2837" lon="5.8203">
        <ele>550</ele>
        <time>2019-03-27T16:12:39Z</time>
      </trkpt>
      <trkpt lat="44.28376" lon="5.8203">
        <ele>550</ele>
        <time>2019-03-27T16:12:40Z</time>
      </trkpt>
      <trkpt lat="44.28383" lon="5.8203">
        <ele>550</ele>
        <time>2019-03-27T16:12:41Z</time>
      </trkpt>
      <trkpt lat="44.2839" lon="5.82031">
        <ele>551</ele>
        <time>2019-03-27T16:12:42Z</time>
      </trkpt>
      <trkpt lat="44.28397" lon="5.82032">
        <ele>551</ele>
        <time>2019-03-27T16:12:43Z</time>
      </trkpt>
      <trkpt lat="44.28403" lon="5.82033">
        <ele>551</ele>
        <time>2019-03-27T16:12:44Z</time>
      </trkpt>
      <trkpt lat="44.2841" lon="5.82033">
        <ele>551</ele>
        <time>2019-03-27T16:12:45Z</time>
      </trkpt>
      <trkpt lat="44.28416" lon="5.82034">
        <ele>551</ele>
        <time>2019-03-27T16:12:46Z</time>
      </trkpt>
      <trkpt lat="44.28423" lon="5.82036">
        <ele>551</ele>
        <time>2019-03-27T16:12:47Z</time>
      </trkpt>
      <trkpt lat="44.28429" lon="5.82038">
        <ele>551</ele>
        <time>2019-03-27T16:12:48Z</time>
      </trkpt>
      <trkpt lat="44.28435" lon="5.8204">
        <ele>551</ele>
        <time>2019-03-27T16:12:49Z</time>
      </trkpt>
      <trkpt lat="44.28442" lon="5.82042">
        <ele>551</ele>
        <time>2019-03-27T16:12:50Z</time>
      </trkpt>
      <trkpt lat="44.28447" lon="5.82044">
        <ele>551</ele>
        <time>2019-03-27T16:12:51Z</time>
      </trkpt>
      <trkpt lat="44.28453" lon="5.82046">
        <ele>551</ele>
        <time>2019-03-27T16:12:52Z</time>
      </trkpt>
      <trkpt lat="44.2846" lon="5.82048">
        <ele>551</ele>
        <time>2019-03-27T16:12:53Z</time>
      </trkpt>
      <trkpt lat="44.28465" lon="5.82051">
        <ele>551</ele>
        <time>2019-03-27T16:12:54Z</time>
      </trkpt>
      <trkpt lat="44.28471" lon="5.82053">
        <ele>551</ele>
        <time>2019-03-27T16:12:55Z</time>
      </trkpt>
      <trkpt lat="44.28477" lon="5.82056">
        <ele>551</ele>
        <time>2019-03-27T16:12:56Z</time>
      </trkpt>
      <trkpt lat="44.28482" lon="5.82059">
        <ele>552</ele>
        <time>2019-03-27T16:12:57Z</time>
      </trkpt>
      <trkpt lat="44.28488" lon="5.82061">
        <ele>552</ele>
        <time>2019-03-27T16:12:58Z</time>
      </trkpt>
      <trkpt lat="44.28494" lon="5.82064">
        <ele>552</ele>
        <time>2019-03-27T16:12:59Z</time>
      </trkpt>
      <trkpt lat="44.28499" lon="5.82066">
        <ele>552</ele>
        <time>2019-03-27T16:13:00Z</time>
      </trkpt>
      <trkpt lat="44.28505" lon="5.82069">
        <ele>552</ele>
        <time>2019-03-27T16:13:01Z</time>
      </trkpt>
      <trkpt lat="44.28511" lon="5.82073">
        <ele>552</ele>
        <time>2019-03-27T16:13:02Z</time>
      </trkpt>
      <trkpt lat="44.28517" lon="5.82076">
        <ele>552</ele>
        <time>2019-03-27T16:13:03Z</time>
      </trkpt>
      <trkpt lat="44.28522" lon="5.82079">
        <ele>552</ele>
        <time>2019-03-27T16:13:04Z</time>
      </trkpt>
      <trkpt lat="44.28528" lon="5.82082">
        <ele>552</ele>
        <time>2019-03-27T16:13:05Z</time>
      </trkpt>
      <trkpt lat="44.28533" lon="5.82084">
        <ele>552</ele>
        <time>2019-03-27T16:13:06Z</time>
      </trkpt>
      <trkpt lat="44.28539" lon="5.82086">
        <ele>553</ele>
        <time>2019-03-27T16:13:07Z</time>
      </trkpt>
      <trkpt lat="44.28544" lon="5.82089">
        <ele>553</ele>
        <time>2019-03-27T16:13:08Z</time>
      </trkpt>
      <trkpt lat="44.28549" lon="5.82092">
        <ele>554</ele>
        <time>2019-03-27T16:13:09Z</time>
      </trkpt>
      <trkpt lat="44.28554" lon="5.82094">
        <ele>554</ele>
        <time>2019-03-27T16:13:10Z</time>
      </trkpt>
      <trkpt lat="44.28559" lon="5.82097">
        <ele>554</ele>
        <time>2019-03-27T16:13:11Z</time>
      </trkpt>
      <trkpt lat="44.28565" lon="5.821">
        <ele>554</ele>
        <time>2019-03-27T16:13:12Z</time>
      </trkpt>
      <trkpt lat="44.2857" lon="5.82103">
        <ele>555</ele>
        <time>2019-03-27T16:13:13Z</time>
      </trkpt>
      <trkpt lat="44.28575" lon="5.82105">
        <ele>555</ele>
        <time>2019-03-27T16:13:14Z</time>
      </trkpt>
      <trkpt lat="44.2858" lon="5.82108">
        <ele>555</ele>
        <time>2019-03-27T16:13:15Z</time>
      </trkpt>
      <trkpt lat="44.28585" lon="5.8211">
        <ele>555</ele>
        <time>2019-03-27T16:13:16Z</time>
      </trkpt>
      <trkpt lat="44.2859" lon="5.82112">
        <ele>555</ele>
        <time>2019-03-27T16:13:17Z</time>
      </trkpt>
      <trkpt lat="44.28595" lon="5.82114">
        <ele>555</ele>
        <time>2019-03-27T16:13:18Z</time>
      </trkpt>
      <trkpt lat="44.286" lon="5.82117">
        <ele>555</ele>
        <time>2019-03-27T16:13:19Z</time>
      </trkpt>
      <trkpt lat="44.28605" lon="5.82118">
        <ele>555</ele>
        <time>2019-03-27T16:13:20Z</time>
      </trkpt>
      <trkpt lat="44.2861" lon="5.82121">
        <ele>555</ele>
        <time>2019-03-27T16:13:21Z</time>
      </trkpt>
      <trkpt lat="44.28615" lon="5.82123">
        <ele>556</ele>
        <time>2019-03-27T16:13:22Z</time>
      </trkpt>
      <trkpt lat="44.2862" lon="5.82124">
        <ele>556</ele>
        <time>2019-03-27T16:13:23Z</time>
      </trkpt>
      <trkpt lat="44.28625" lon="5.82126">
        <ele>557</ele>
        <time>2019-03-27T16:13:24Z</time>
      </trkpt>
      <trkpt lat="44.2863" lon="5.82127">
        <ele>557</ele>
        <time>2019-03-27T16:13:25Z</time>
      </trkpt>
      <trkpt lat="44.28634" lon="5.82129">
        <ele>558</ele>
        <time>2019-03-27T16:13:26Z</time>
      </trkpt>
      <trkpt lat="44.28638" lon="5.82129">
        <ele>559</ele>
        <time>2019-03-27T16:13:27Z</time>
      </trkpt>
      <trkpt lat="44.28643" lon="5.82131">
        <ele>559</ele>
        <time>2019-03-27T16:13:28Z</time>
      </trkpt>
      <trkpt lat="44.28648" lon="5.82132">
        <ele>560</ele>
        <time>2019-03-27T16:13:29Z</time>
      </trkpt>
      <trkpt lat="44.28653" lon="5.82133">
        <ele>561</ele>
        <time>2019-03-27T16:13:30Z</time>
      </trkpt>
      <trkpt lat="44.28658" lon="5.82134">
        <ele>562</ele>
        <time>2019-03-27T16:13:31Z</time>
      </trkpt>
      <trkpt lat="44.28662" lon="5.82136">
        <ele>563</ele>
        <time>2019-03-27T16:13:32Z</time>
      </trkpt>
      <trkpt lat="44.28667" lon="5.82137">
        <ele>563</ele>
        <time>2019-03-27T16:13:33Z</time>
      </trkpt>
      <trkpt lat="44.28672" lon="5.82139">
        <ele>564</ele>
        <time>2019-03-27T16:13:34Z</time>
      </trkpt>
      <trkpt lat="44.28676" lon="5.8214">
        <ele>565</ele>
        <time>2019-03-27T16:13:35Z</time>
      </trkpt>
      <trkpt lat="44.28681" lon="5.82141">
        <ele>565</ele>
        <time>2019-03-27T16:13:36Z</time>
      </trkpt>
      <trkpt lat="44.28686" lon="5.82143">
        <ele>565</ele>
        <time>2019-03-27T16:13:37Z</time>
      </trkpt>
      <trkpt lat="44.2869" lon="5.82143">
        <ele>566</ele>
        <time>2019-03-27T16:13:38Z</time>
      </trkpt>
      <trkpt lat="44.28695" lon="5.82145">
        <ele>566</ele>
        <time>2019-03-27T16:13:39Z</time>
      </trkpt>
      <trkpt lat="44.28699" lon="5.82146">
        <ele>567</ele>
        <time>2019-03-27T16:13:40Z</time>
      </trkpt>
      <trkpt lat="44.28703" lon="5.82148">
        <ele>567</ele>
        <time>2019-03-27T16:13:41Z</time>
      </trkpt>
      <trkpt lat="44.28706" lon="5.82149">
        <ele>568</ele>
        <time>2019-03-27T16:13:42Z</time>
      </trkpt>
      <trkpt lat="44.2871" lon="5.82151">
        <ele>568</ele>
        <time>2019-03-27T16:13:43Z</time>
      </trkpt>
      <trkpt lat="44.28713" lon="5.82152">
        <ele>568</ele>
        <time>2019-03-27T16:13:44Z</time>
      </trkpt>
      <trkpt lat="44.28718" lon="5.82153">
        <ele>568</ele>
        <time>2019-03-27T16:13:45Z</time>
      </trkpt>
      <trkpt lat="44.28722" lon="5.82155">
        <ele>568</ele>
        <time>2019-03-27T16:13:46Z</time>
      </trkpt>
      <trkpt lat="44.28726" lon="5.82156">
        <ele>569</ele>
        <time>2019-03-27T16:13:47Z</time>
      </trkpt>
      <trkpt lat="44.28731" lon="5.82157">
        <ele>569</ele>
        <time>2019-03-27T16:13:48Z</time>
      </trkpt>
      <trkpt lat="44.28735" lon="5.82159">
        <ele>570</ele>
        <time>2019-03-27T16:13:49Z</time>
      </trkpt>
      <trkpt lat="44.28739" lon="5.82162">
        <ele>571</ele>
        <time>2019-03-27T16:13:50Z</time>
      </trkpt>
      <trkpt lat="44.28743" lon="5.82164">
        <ele>572</ele>
        <time>2019-03-27T16:13:51Z</time>
      </trkpt>
      <trkpt lat="44.28747" lon="5.82167">
        <ele>572</ele>
        <time>2019-03-27T16:13:52Z</time>
      </trkpt>
      <trkpt lat="44.28751" lon="5.8217">
        <ele>573</ele>
        <time>2019-03-27T16:13:53Z</time>
      </trkpt>
      <trkpt lat="44.28755" lon="5.82172">
        <ele>573</ele>
        <time>2019-03-27T16:13:54Z</time>
      </trkpt>
      <trkpt lat="44.28759" lon="5.82175">
        <ele>573</ele>
        <time>2019-03-27T16:13:55Z</time>
      </trkpt>
      <trkpt lat="44.28764" lon="5.82178">
        <ele>573</ele>
        <time>2019-03-27T16:13:56Z</time>
      </trkpt>
      <trkpt lat="44.28768" lon="5.82181">
        <ele>574</ele>
        <time>2019-03-27T16:13:57Z</time>
      </trkpt>
      <trkpt lat="44.28772" lon="5.82183">
        <ele>574</ele>
        <time>2019-03-27T16:13:58Z</time>
      </trkpt>
      <trkpt lat="44.28776" lon="5.82186">
        <ele>574</ele>
        <time>2019-03-27T16:13:59Z</time>
      </trkpt>
      <trkpt lat="44.2878" lon="5.82189">
        <ele>574</ele>
        <time>2019-03-27T16:14:00Z</time>
      </trkpt>
      <trkpt lat="44.28785" lon="5.82192">
        <ele>574</ele>
        <time>2019-03-27T16:14:01Z</time>
      </trkpt>
      <trkpt lat="44.28789" lon="5.82195">
        <ele>574</ele>
        <time>2019-03-27T16:14:02Z</time>
      </trkpt>
      <trkpt lat="44.28793" lon="5.82198">
        <ele>574</ele>
        <time>2019-03-27T16:14:03Z</time>
      </trkpt>
      <trkpt lat="44.28797" lon="5.82201">
        <ele>574</ele>
        <time>2019-03-27T16:14:04Z</time>
      </trkpt>
      <trkpt lat="44.28802" lon="5.82204">
        <ele>574</ele>
        <time>2019-03-27T16:14:05Z</time>
      </trkpt>
      <trkpt lat="44.28806" lon="5.82207">
        <ele>574</ele>
        <time>2019-03-27T16:14:06Z</time>
      </trkpt>
      <trkpt lat="44.2881" lon="5.8221">
        <ele>574</ele>
        <time>2019-03-27T16:14:07Z</time>
      </trkpt>
      <trkpt lat="44.28814" lon="5.82214">
        <ele>574</ele>
        <time>2019-03-27T16:14:08Z</time>
      </trkpt>
      <trkpt lat="44.28818" lon="5.82217">
        <ele>574</ele>
        <time>2019-03-27T16:14:09Z</time>
      </trkpt>
      <trkpt lat="44.28822" lon="5.82221">
        <ele>574</ele>
        <time>2019-03-27T16:14:10Z</time>
      </trkpt>
      <trkpt lat="44.28827" lon="5.82225">
        <ele>574</ele>
        <time>2019-03-27T16:14:11Z</time>
      </trkpt>
      <trkpt lat="44.28831" lon="5.82229">
        <ele>574</ele>
        <time>2019-03-27T16:14:12Z</time>
      </trkpt>
      <trkpt lat="44.28836" lon="5.82233">
        <ele>574</ele>
        <time>2019-03-27T16:14:13Z</time>
      </trkpt>
      <trkpt lat="44.2884" lon="5.82237">
        <ele>574</ele>
        <time>2019-03-27T16:14:14Z</time>
      </trkpt>
      <trkpt lat="44.28845" lon="5.82241">
        <ele>574</ele>
        <time>2019-03-27T16:14:15Z</time>
      </trkpt>
      <trkpt lat="44.28849" lon="5.82245">
        <ele>574</ele>
        <time>2019-03-27T16:14:16Z</time>
      </trkpt>
      <trkpt lat="44.28854" lon="5.82249">
        <ele>574</ele>
        <time>2019-03-27T16:14:17Z</time>
      </trkpt>
      <trkpt lat="44.28858" lon="5.82254">
        <ele>574</ele>
        <time>2019-03-27T16:14:18Z</time>
      </trkpt>
      <trkpt lat="44.28863" lon="5.82258">
        <ele>574</ele>
        <time>2019-03-27T16:14:19Z</time>
      </trkpt>
      <trkpt lat="44.28867" lon="5.82263">
        <ele>574</ele>
        <time>2019-03-27T16:14:20Z</time>
      </trkpt>
      <trkpt lat="44.28872" lon="5.82267">
        <ele>574</ele>
        <time>2019-03-27T16:14:21Z</time>
      </trkpt>
      <trkpt lat="44.28877" lon="5.82271">
        <ele>574</ele>
        <time>2019-03-27T16:14:22Z</time>
      </trkpt>
      <trkpt lat="44.28882" lon="5.82275">
        <ele>574</ele>
        <time>2019-03-27T16:14:23Z</time>
      </trkpt>
      <trkpt lat="44.28887" lon="5.82278">
        <ele>574</ele>
        <time>2019-03-27T16:14:24Z</time>
      </trkpt>
      <trkpt lat="44.28893" lon="5.82281">
        <ele>574</ele>
        <time>2019-03-27T16:14:25Z</time>
      </trkpt>
      <trkpt lat="44.28898" lon="5.82284">
        <ele>574</ele>
        <time>2019-03-27T16:14:26Z</time>
      </trkpt>
      <trkpt lat="44.28904" lon="5.82287">
        <ele>574</ele>
        <time>2019-03-27T16:14:27Z</time>
      </trkpt>
      <trkpt lat="44.2891" lon="5.82289">
        <ele>574</ele>
        <time>2019-03-27T16:14:28Z</time>
      </trkpt>
      <trkpt lat="44.28917" lon="5.82291">
        <ele>574</ele>
        <time>2019-03-27T16:14:29Z</time>
      </trkpt>
      <trkpt lat="44.28924" lon="5.82292">
        <ele>574</ele>
        <time>2019-03-27T16:14:30Z</time>
      </trkpt>
      <trkpt lat="44.28931" lon="5.82292">
        <ele>574</ele>
        <time>2019-03-27T16:14:31Z</time>
      </trkpt>
      <trkpt lat="44.28938" lon="5.82292">
        <ele>573</ele>
        <time>2019-03-27T16:14:32Z</time>
      </trkpt>
      <trkpt lat="44.28945" lon="5.82292">
        <ele>573</ele>
        <time>2019-03-27T16:14:33Z</time>
      </trkpt>
      <trkpt lat="44.28952" lon="5.82292">
        <ele>573</ele>
        <time>2019-03-27T16:14:34Z</time>
      </trkpt>
      <trkpt lat="44.2896" lon="5.82292">
        <ele>572</ele>
        <time>2019-03-27T16:14:35Z</time>
      </trkpt>
      <trkpt lat="44.28967" lon="5.82291">
        <ele>572</ele>
        <time>2019-03-27T16:14:36Z</time>
      </trkpt>
      <trkpt lat="44.28976" lon="5.8229">
        <ele>572</ele>
        <time>2019-03-27T16:14:37Z</time>
      </trkpt>
      <trkpt lat="44.28984" lon="5.8229">
        <ele>571</ele>
        <time>2019-03-27T16:14:38Z</time>
      </trkpt>
      <trkpt lat="44.28992" lon="5.8229">
        <ele>571</ele>
        <time>2019-03-27T16:14:39Z</time>
      </trkpt>
      <trkpt lat="44.29" lon="5.82289">
        <ele>571</ele>
        <time>2019-03-27T16:14:40Z</time>
      </trkpt>
      <trkpt lat="44.29008" lon="5.82288">
        <ele>571</ele>
        <time>2019-03-27T16:14:41Z</time>
      </trkpt>
      <trkpt lat="44.29017" lon="5.82287">
        <ele>571</ele>
        <time>2019-03-27T16:14:42Z</time>
      </trkpt>
      <trkpt lat="44.29026" lon="5.82287">
        <ele>570</ele>
        <time>2019-03-27T16:14:43Z</time>
      </trkpt>
      <trkpt lat="44.29034" lon="5.82285">
        <ele>570</ele>
        <time>2019-03-27T16:14:44Z</time>
      </trkpt>
      <trkpt lat="44.29043" lon="5.82284">
        <ele>570</ele>
        <time>2019-03-27T16:14:45Z</time>
      </trkpt>
      <trkpt lat="44.29052" lon="5.82283">
        <ele>570</ele>
        <time>2019-03-27T16:14:46Z</time>
      </trkpt>
      <trkpt lat="44.29062" lon="5.82282">
        <ele>570</ele>
        <time>2019-03-27T16:14:47Z</time>
      </trkpt>
      <trkpt lat="44.29071" lon="5.82281">
        <ele>570</ele>
        <time>2019-03-27T16:14:48Z</time>
      </trkpt>
      <trkpt lat="44.29081" lon="5.8228">
        <ele>570</ele>
        <time>2019-03-27T16:14:49Z</time>
      </trkpt>
      <trkpt lat="44.2909" lon="5.8228">
        <ele>570</ele>
        <time>2019-03-27T16:14:50Z</time>
      </trkpt>
      <trkpt lat="44.291" lon="5.82279">
        <ele>570</ele>
        <time>2019-03-27T16:14:51Z</time>
      </trkpt>
      <trkpt lat="44.29109" lon="5.82278">
        <ele>570</ele>
        <time>2019-03-27T16:14:52Z</time>
      </trkpt>
      <trkpt lat="44.29118" lon="5.82277">
        <ele>570</ele>
        <time>2019-03-27T16:14:53Z</time>
      </trkpt>
      <trkpt lat="44.29126" lon="5.82276">
        <ele>570</ele>
        <time>2019-03-27T16:14:54Z</time>
      </trkpt>
      <trkpt lat="44.29135" lon="5.82275">
        <ele>570</ele>
        <time>2019-03-27T16:14:55Z</time>
      </trkpt>
      <trkpt lat="44.29144" lon="5.82274">
        <ele>570</ele>
        <time>2019-03-27T16:14:56Z</time>
      </trkpt>
      <trkpt lat="44.29153" lon="5.82273">
        <ele>570</ele>
        <time>2019-03-27T16:14:57Z</time>
      </trkpt>
      <trkpt lat="44.29161" lon="5.82272">
        <ele>570</ele>
        <time>2019-03-27T16:14:58Z</time>
      </trkpt>
      <trkpt lat="44.2917" lon="5.82271">
        <ele>570</ele>
        <time>2019-03-27T16:14:59Z</time>
      </trkpt>
      <trkpt lat="44.29178" lon="5.8227">
        <ele>570</ele>
        <time>2019-03-27T16:15:00Z</time>
      </trkpt>
      <trkpt lat="44.29187" lon="5.82269">
        <ele>570</ele>
        <time>2019-03-27T16:15:01Z</time>
      </trkpt>
      <trkpt lat="44.29195" lon="5.82268">
        <ele>570</ele>
        <time>2019-03-27T16:15:02Z</time>
      </trkpt>
      <trkpt lat="44.29203" lon="5.82267">
        <ele>570</ele>
        <time>2019-03-27T16:15:03Z</time>
      </trkpt>
      <trkpt lat="44.29211" lon="5.82266">
        <ele>570</ele>
        <time>2019-03-27T16:15:04Z</time>
      </trkpt>
      <trkpt lat="44.29219" lon="5.82265">
        <ele>570</ele>
        <time>2019-03-27T16:15:05Z</time>
      </trkpt>
      <trkpt lat="44.29227" lon="5.82264">
        <ele>570</ele>
        <time>2019-03-27T16:15:06Z</time>
      </trkpt>
      <trkpt lat="44.29235" lon="5.82263">
        <ele>569</ele>
        <time>2019-03-27T16:15:07Z</time>
      </trkpt>
      <trkpt lat="44.29243" lon="5.82262">
        <ele>569</ele>
        <time>2019-03-27T16:15:08Z</time>
      </trkpt>
      <trkpt lat="44.29251" lon="5.82261">
        <ele>569</ele>
        <time>2019-03-27T16:15:09Z</time>
      </trkpt>
      <trkpt lat="44.29258" lon="5.82258">
        <ele>569</ele>
        <time>2019-03-27T16:15:10Z</time>
      </trkpt>
      <trkpt lat="44.29266" lon="5.82255">
        <ele>569</ele>
        <time>2019-03-27T16:15:11Z</time>
      </trkpt>
      <trkpt lat="44.29273" lon="5.82253">
        <ele>569</ele>
        <time>2019-03-27T16:15:12Z</time>
      </trkpt>
      <trkpt lat="44.2928" lon="5.8225">
        <ele>569</ele>
        <time>2019-03-27T16:15:13Z</time>
      </trkpt>
      <trkpt lat="44.29287" lon="5.82247">
        <ele>569</ele>
        <time>2019-03-27T16:15:14Z</time>
      </trkpt>
      <trkpt lat="44.29293" lon="5.82243">
        <ele>569</ele>
        <time>2019-03-27T16:15:15Z</time>
      </trkpt>
      <trkpt lat="44.29299" lon="5.8224">
        <ele>569</ele>
        <time>2019-03-27T16:15:16Z</time>
      </trkpt>
      <trkpt lat="44.29305" lon="5.82237">
        <ele>569</ele>
        <time>2019-03-27T16:15:17Z</time>
      </trkpt>
      <trkpt lat="44.29313" lon="5.82235">
        <ele>569</ele>
        <time>2019-03-27T16:15:18Z</time>
      </trkpt>
      <trkpt lat="44.29319" lon="5.82232">
        <ele>569</ele>
        <time>2019-03-27T16:15:19Z</time>
      </trkpt>
      <trkpt lat="44.29325" lon="5.8223">
        <ele>569</ele>
        <time>2019-03-27T16:15:20Z</time>
      </trkpt>
      <trkpt lat="44.29332" lon="5.82227">
        <ele>569</ele>
        <time>2019-03-27T16:15:21Z</time>
      </trkpt>
      <trkpt lat="44.29338" lon="5.82224">
        <ele>569</ele>
        <time>2019-03-27T16:15:22Z</time>
      </trkpt>
      <trkpt lat="44.29344" lon="5.82221">
        <ele>569</ele>
        <time>2019-03-27T16:15:23Z</time>
      </trkpt>
      <trkpt lat="44.2935" lon="5.82218">
        <ele>569</ele>
        <time>2019-03-27T16:15:24Z</time>
      </trkpt>
      <trkpt lat="44.29356" lon="5.82214">
        <ele>569</ele>
        <time>2019-03-27T16:15:25Z</time>
      </trkpt>
      <trkpt lat="44.29362" lon="5.8221">
        <ele>569</ele>
        <time>2019-03-27T16:15:26Z</time>
      </trkpt>
      <trkpt lat="44.29367" lon="5.82206">
        <ele>569</ele>
        <time>2019-03-27T16:15:27Z</time>
      </trkpt>
      <trkpt lat="44.29373" lon="5.82202">
        <ele>569</ele>
        <time>2019-03-27T16:15:28Z</time>
      </trkpt>
      <trkpt lat="44.29379" lon="5.82197">
        <ele>569</ele>
        <time>2019-03-27T16:15:29Z</time>
      </trkpt>
      <trkpt lat="44.29384" lon="5.82191">
        <ele>569</ele>
        <time>2019-03-27T16:15:30Z</time>
      </trkpt>
      <trkpt lat="44.2939" lon="5.82185">
        <ele>569</ele>
        <time>2019-03-27T16:15:31Z</time>
      </trkpt>
      <trkpt lat="44.29395" lon="5.82179">
        <ele>569</ele>
        <time>2019-03-27T16:15:32Z</time>
      </trkpt>
      <trkpt lat="44.29401" lon="5.82173">
        <ele>569</ele>
        <time>2019-03-27T16:15:33Z</time>
      </trkpt>
      <trkpt lat="44.29406" lon="5.82166">
        <ele>569</ele>
        <time>2019-03-27T16:15:34Z</time>
      </trkpt>
      <trkpt lat="44.29412" lon="5.8216">
        <ele>569</ele>
        <time>2019-03-27T16:15:35Z</time>
      </trkpt>
      <trkpt lat="44.29418" lon="5.82153">
        <ele>569</ele>
        <time>2019-03-27T16:15:36Z</time>
      </trkpt>
      <trkpt lat="44.29424" lon="5.82147">
        <ele>568</ele>
        <time>2019-03-27T16:15:37Z</time>
      </trkpt>
      <trkpt lat="44.29429" lon="5.8214">
        <ele>567</ele>
        <time>2019-03-27T16:15:38Z</time>
      </trkpt>
      <trkpt lat="44.29434" lon="5.82134">
        <ele>566</ele>
        <time>2019-03-27T16:15:39Z</time>
      </trkpt>
      <trkpt lat="44.2944" lon="5.82128">
        <ele>566</ele>
        <time>2019-03-27T16:15:40Z</time>
      </trkpt>
      <trkpt lat="44.29446" lon="5.82123">
        <ele>565</ele>
        <time>2019-03-27T16:15:41Z</time>
      </trkpt>
      <trkpt lat="44.29452" lon="5.82118">
        <ele>564</ele>
        <time>2019-03-27T16:15:42Z</time>
      </trkpt>
      <trkpt lat="44.29458" lon="5.82114">
        <ele>564</ele>
        <time>2019-03-27T16:15:43Z</time>
      </trkpt>
      <trkpt lat="44.29464" lon="5.8211">
        <ele>563</ele>
        <time>2019-03-27T16:15:44Z</time>
      </trkpt>
      <trkpt lat="44.2947" lon="5.82107">
        <ele>563</ele>
        <time>2019-03-27T16:15:45Z</time>
      </trkpt>
      <trkpt lat="44.29476" lon="5.82104">
        <ele>562</ele>
        <time>2019-03-27T16:15:46Z</time>
      </trkpt>
      <trkpt lat="44.29482" lon="5.82102">
        <ele>562</ele>
        <time>2019-03-27T16:15:47Z</time>
      </trkpt>
      <trkpt lat="44.29489" lon="5.82101">
        <ele>561</ele>
        <time>2019-03-27T16:15:48Z</time>
      </trkpt>
      <trkpt lat="44.29496" lon="5.821">
        <ele>561</ele>
        <time>2019-03-27T16:15:49Z</time>
      </trkpt>
      <trkpt lat="44.29502" lon="5.82099">
        <ele>560</ele>
        <time>2019-03-27T16:15:50Z</time>
      </trkpt>
      <trkpt lat="44.29509" lon="5.82099">
        <ele>560</ele>
        <time>2019-03-27T16:15:51Z</time>
      </trkpt>
      <trkpt lat="44.29515" lon="5.821">
        <ele>560</ele>
        <time>2019-03-27T16:15:52Z</time>
      </trkpt>
      <trkpt lat="44.29522" lon="5.82101">
        <ele>560</ele>
        <time>2019-03-27T16:15:53Z</time>
      </trkpt>
      <trkpt lat="44.29529" lon="5.82102">
        <ele>560</ele>
        <time>2019-03-27T16:15:54Z</time>
      </trkpt>
      <trkpt lat="44.29536" lon="5.82103">
        <ele>560</ele>
        <time>2019-03-27T16:15:55Z</time>
      </trkpt>
      <trkpt lat="44.29544" lon="5.82104">
        <ele>560</ele>
        <time>2019-03-27T16:15:56Z</time>
      </trkpt>
      <trkpt lat="44.29551" lon="5.82106">
        <ele>560</ele>
        <time>2019-03-27T16:15:57Z</time>
      </trkpt>
      <trkpt lat="44.29559" lon="5.82108">
        <ele>560</ele>
        <time>2019-03-27T16:15:58Z</time>
      </trkpt>
      <trkpt lat="44.29566" lon="5.8211">
        <ele>560</ele>
        <time>2019-03-27T16:15:59Z</time>
      </trkpt>
      <trkpt lat="44.29573" lon="5.82113">
        <ele>560</ele>
        <time>2019-03-27T16:16:00Z</time>
      </trkpt>
      <trkpt lat="44.2958" lon="5.82116">
        <ele>560</ele>
        <time>2019-03-27T16:16:01Z</time>
      </trkpt>
      <trkpt lat="44.29588" lon="5.82119">
        <ele>560</ele>
        <time>2019-03-27T16:16:02Z</time>
      </trkpt>
      <trkpt lat="44.29595" lon="5.82122">
        <ele>560</ele>
        <time>2019-03-27T16:16:03Z</time>
      </trkpt>
      <trkpt lat="44.29603" lon="5.82126">
        <ele>560</ele>
        <time>2019-03-27T16:16:04Z</time>
      </trkpt>
      <trkpt lat="44.2961" lon="5.8213">
        <ele>560</ele>
        <time>2019-03-27T16:16:05Z</time>
      </trkpt>
      <trkpt lat="44.29617" lon="5.82135">
        <ele>560</ele>
        <time>2019-03-27T16:16:06Z</time>
      </trkpt>
      <trkpt lat="44.29625" lon="5.82141">
        <ele>560</ele>
        <time>2019-03-27T16:16:07Z</time>
      </trkpt>
      <trkpt lat="44.29632" lon="5.82147">
        <ele>559</ele>
        <time>2019-03-27T16:16:08Z</time>
      </trkpt>
      <trkpt lat="44.29639" lon="5.82152">
        <ele>559</ele>
        <time>2019-03-27T16:16:09Z</time>
      </trkpt>
      <trkpt lat="44.29645" lon="5.82159">
        <ele>559</ele>
        <time>2019-03-27T16:16:10Z</time>
      </trkpt>
      <trkpt lat="44.29652" lon="5.82165">
        <ele>559</ele>
        <time>2019-03-27T16:16:11Z</time>
      </trkpt>
      <trkpt lat="44.29658" lon="5.82172">
        <ele>559</ele>
        <time>2019-03-27T16:16:12Z</time>
      </trkpt>
      <trkpt lat="44.29664" lon="5.82179">
        <ele>559</ele>
        <time>2019-03-27T16:16:13Z</time>
      </trkpt>
      <trkpt lat="44.2967" lon="5.82186">
        <ele>559</ele>
        <time>2019-03-27T16:16:14Z</time>
      </trkpt>
      <trkpt lat="44.29677" lon="5.82192">
        <ele>559</ele>
        <time>2019-03-27T16:16:15Z</time>
      </trkpt>
      <trkpt lat="44.29683" lon="5.82199">
        <ele>559</ele>
        <time>2019-03-27T16:16:16Z</time>
      </trkpt>
      <trkpt lat="44.29689" lon="5.82205">
        <ele>559</ele>
        <time>2019-03-27T16:16:17Z</time>
      </trkpt>
      <trkpt lat="44.29695" lon="5.8221">
        <ele>559</ele>
        <time>2019-03-27T16:16:18Z</time>
      </trkpt>
      <trkpt lat="44.29701" lon="5.82216">
        <ele>559</ele>
        <time>2019-03-27T16:16:19Z</time>
      </trkpt>
      <trkpt lat="44.29708" lon="5.82221">
        <ele>559</ele>
        <time>2019-03-27T16:16:20Z</time>
      </trkpt>
      <trkpt lat="44.29714" lon="5.82225">
        <ele>559</ele>
        <time>2019-03-27T16:16:21Z</time>
      </trkpt>
      <trkpt lat="44.29721" lon="5.8223">
        <ele>559</ele>
        <time>2019-03-27T16:16:22Z</time>
      </trkpt>
      <trkpt lat="44.29727" lon="5.82234">
        <ele>559</ele>
        <time>2019-03-27T16:16:23Z</time>
      </trkpt>
      <trkpt lat="44.29734" lon="5.82237">
        <ele>559</ele>
        <time>2019-03-27T16:16:24Z</time>
      </trkpt>
      <trkpt lat="44.29741" lon="5.8224">
        <ele>559</ele>
        <time>2019-03-27T16:16:25Z</time>
      </trkpt>
      <trkpt lat="44.29748" lon="5.82243">
        <ele>559</ele>
        <time>2019-03-27T16:16:26Z</time>
      </trkpt>
      <trkpt lat="44.29755" lon="5.82245">
        <ele>559</ele>
        <time>2019-03-27T16:16:27Z</time>
      </trkpt>
      <trkpt lat="44.29762" lon="5.82247">
        <ele>559</ele>
        <time>2019-03-27T16:16:28Z</time>
      </trkpt>
      <trkpt lat="44.29768" lon="5.82249">
        <ele>559</ele>
        <time>2019-03-27T16:16:29Z</time>
      </trkpt>
      <trkpt lat="44.29776" lon="5.82251">
        <ele>559</ele>
        <time>2019-03-27T16:16:30Z</time>
      </trkpt>
      <trkpt lat="44.29783" lon="5.82252">
        <ele>559</ele>
        <time>2019-03-27T16:16:31Z</time>
      </trkpt>
      <trkpt lat="44.2979" lon="5.82254">
        <ele>559</ele>
        <time>2019-03-27T16:16:32Z</time>
      </trkpt>
      <trkpt lat="44.29797" lon="5.82255">
        <ele>559</ele>
        <time>2019-03-27T16:16:33Z</time>
      </trkpt>
      <trkpt lat="44.29805" lon="5.82256">
        <ele>559</ele>
        <time>2019-03-27T16:16:34Z</time>
      </trkpt>
      <trkpt lat="44.29812" lon="5.82257">
        <ele>559</ele>
        <time>2019-03-27T16:16:35Z</time>
      </trkpt>
      <trkpt lat="44.29819" lon="5.82259">
        <ele>559</ele>
        <time>2019-03-27T16:16:36Z</time>
      </trkpt>
      <trkpt lat="44.29827" lon="5.82261">
        <ele>559</ele>
        <time>2019-03-27T16:16:37Z</time>
      </trkpt>
      <trkpt lat="44.29835" lon="5.82263">
        <ele>559</ele>
        <time>2019-03-27T16:16:38Z</time>
      </trkpt>
      <trkpt lat="44.29843" lon="5.82265">
        <ele>559</ele>
        <time>2019-03-27T16:16:39Z</time>
      </trkpt>
      <trkpt lat="44.29851" lon="5.82267">
        <ele>559</ele>
        <time>2019-03-27T16:16:40Z</time>
      </trkpt>
      <trkpt lat="44.29858" lon="5.8227">
        <ele>559</ele>
        <time>2019-03-27T16:16:41Z</time>
      </trkpt>
      <trkpt lat="44.29866" lon="5.82273">
        <ele>559</ele>
        <time>2019-03-27T16:16:42Z</time>
      </trkpt>
      <trkpt lat="44.29873" lon="5.82276">
        <ele>559</ele>
        <time>2019-03-27T16:16:43Z</time>
      </trkpt>
      <trkpt lat="44.2988" lon="5.8228">
        <ele>559</ele>
        <time>2019-03-27T16:16:44Z</time>
      </trkpt>
      <trkpt lat="44.29886" lon="5.82284">
        <ele>559</ele>
        <time>2019-03-27T16:16:45Z</time>
      </trkpt>
      <trkpt lat="44.29893" lon="5.82288">
        <ele>559</ele>
        <time>2019-03-27T16:16:46Z</time>
      </trkpt>
      <trkpt lat="44.299" lon="5.82292">
        <ele>559</ele>
        <time>2019-03-27T16:16:47Z</time>
      </trkpt>
      <trkpt lat="44.29906" lon="5.82296">
        <ele>559</ele>
        <time>2019-03-27T16:16:48Z</time>
      </trkpt>
      <trkpt lat="44.29913" lon="5.823">
        <ele>559</ele>
        <time>2019-03-27T16:16:49Z</time>
      </trkpt>
      <trkpt lat="44.29919" lon="5.82303">
        <ele>559</ele>
        <time>2019-03-27T16:16:50Z</time>
      </trkpt>
      <trkpt lat="44.29924" lon="5.82307">
        <ele>559</ele>
        <time>2019-03-27T16:16:51Z</time>
      </trkpt>
      <trkpt lat="44.29931" lon="5.8231">
        <ele>559</ele>
        <time>2019-03-27T16:16:52Z</time>
      </trkpt>
      <trkpt lat="44.29937" lon="5.82313">
        <ele>559</ele>
        <time>2019-03-27T16:16:53Z</time>
      </trkpt>
      <trkpt lat="44.29944" lon="5.82316">
        <ele>559</ele>
        <time>2019-03-27T16:16:54Z</time>
      </trkpt>
      <trkpt lat="44.2995" lon="5.82319">
        <ele>559</ele>
        <time>2019-03-27T16:16:55Z</time>
      </trkpt>
      <trkpt lat="44.29957" lon="5.82321">
        <ele>559</ele>
        <time>2019-03-27T16:16:56Z</time>
      </trkpt>
      <trkpt lat="44.29964" lon="5.82324">
        <ele>559</ele>
        <time>2019-03-27T16:16:57Z</time>
      </trkpt>
      <trkpt lat="44.2997" lon="5.82327">
        <ele>559</ele>
        <time>2019-03-27T16:16:58Z</time>
      </trkpt>
      <trkpt lat="44.29977" lon="5.82329">
        <ele>559</ele>
        <time>2019-03-27T16:16:59Z</time>
      </trkpt>
      <trkpt lat="44.29983" lon="5.82331">
        <ele>559</ele>
        <time>2019-03-27T16:17:00Z</time>
      </trkpt>
      <trkpt lat="44.29989" lon="5.82333">
        <ele>559</ele>
        <time>2019-03-27T16:17:01Z</time>
      </trkpt>
      <trkpt lat="44.29996" lon="5.82335">
        <ele>559</ele>
        <time>2019-03-27T16:17:02Z</time>
      </trkpt>
      <trkpt lat="44.30002" lon="5.82337">
        <ele>559</ele>
        <time>2019-03-27T16:17:03Z</time>
      </trkpt>
      <trkpt lat="44.30009" lon="5.82338">
        <ele>559</ele>
        <time>2019-03-27T16:17:04Z</time>
      </trkpt>
      <trkpt lat="44.30015" lon="5.82339">
        <ele>559</ele>
        <time>2019-03-27T16:17:05Z</time>
      </trkpt>
      <trkpt lat="44.30022" lon="5.82341">
        <ele>559</ele>
        <time>2019-03-27T16:17:06Z</time>
      </trkpt>
      <trkpt lat="44.30028" lon="5.82342">
        <ele>559</ele>
        <time>2019-03-27T16:17:07Z</time>
      </trkpt>
      <trkpt lat="44.30035" lon="5.82343">
        <ele>560</ele>
        <time>2019-03-27T16:17:08Z</time>
      </trkpt>
      <trkpt lat="44.30041" lon="5.82345">
        <ele>560</ele>
        <time>2019-03-27T16:17:09Z</time>
      </trkpt>
      <trkpt lat="44.30048" lon="5.82346">
        <ele>560</ele>
        <time>2019-03-27T16:17:10Z</time>
      </trkpt>
      <trkpt lat="44.30055" lon="5.82347">
        <ele>560</ele>
        <time>2019-03-27T16:17:11Z</time>
      </trkpt>
      <trkpt lat="44.30061" lon="5.82347">
        <ele>560</ele>
        <time>2019-03-27T16:17:12Z</time>
      </trkpt>
      <trkpt lat="44.30068" lon="5.82348">
        <ele>560</ele>
        <time>2019-03-27T16:17:13Z</time>
      </trkpt>
      <trkpt lat="44.30075" lon="5.82348">
        <ele>560</ele>
        <time>2019-03-27T16:17:14Z</time>
      </trkpt>
      <trkpt lat="44.30082" lon="5.82349">
        <ele>560</ele>
        <time>2019-03-27T16:17:15Z</time>
      </trkpt>
      <trkpt lat="44.30089" lon="5.82349">
        <ele>560</ele>
        <time>2019-03-27T16:17:16Z</time>
      </trkpt>
      <trkpt lat="44.30096" lon="5.82349">
        <ele>560</ele>
        <time>2019-03-27T16:17:17Z</time>
      </trkpt>
      <trkpt lat="44.30102" lon="5.82349">
        <ele>560</ele>
        <time>2019-03-27T16:17:18Z</time>
      </trkpt>
      <trkpt lat="44.30109" lon="5.82349">
        <ele>560</ele>
        <time>2019-03-27T16:17:19Z</time>
      </trkpt>
      <trkpt lat="44.30116" lon="5.8235">
        <ele>560</ele>
        <time>2019-03-27T16:17:20Z</time>
      </trkpt>
      <trkpt lat="44.30123" lon="5.8235">
        <ele>561</ele>
        <time>2019-03-27T16:17:21Z</time>
      </trkpt>
      <trkpt lat="44.3013" lon="5.8235">
        <ele>561</ele>
        <time>2019-03-27T16:17:22Z</time>
      </trkpt>
      <trkpt lat="44.30136" lon="5.8235">
        <ele>561</ele>
        <time>2019-03-27T16:17:23Z</time>
      </trkpt>
      <trkpt lat="44.30143" lon="5.82351">
        <ele>561</ele>
        <time>2019-03-27T16:17:24Z</time>
      </trkpt>
      <trkpt lat="44.30149" lon="5.82351">
        <ele>561</ele>
        <time>2019-03-27T16:17:25Z</time>
      </trkpt>
      <trkpt lat="44.30156" lon="5.82352">
        <ele>561</ele>
        <time>2019-03-27T16:17:26Z</time>
      </trkpt>
      <trkpt lat="44.30162" lon="5.82353">
        <ele>561</ele>
        <time>2019-03-27T16:17:27Z</time>
      </trkpt>
      <trkpt lat="44.30169" lon="5.82353">
        <ele>561</ele>
        <time>2019-03-27T16:17:28Z</time>
      </trkpt>
      <trkpt lat="44.30175" lon="5.82354">
        <ele>561</ele>
        <time>2019-03-27T16:17:29Z</time>
      </trkpt>
      <trkpt lat="44.30182" lon="5.82354">
        <ele>561</ele>
        <time>2019-03-27T16:17:30Z</time>
      </trkpt>
      <trkpt lat="44.30189" lon="5.82355">
        <ele>561</ele>
        <time>2019-03-27T16:17:31Z</time>
      </trkpt>
      <trkpt lat="44.30196" lon="5.82355">
        <ele>561</ele>
        <time>2019-03-27T16:17:32Z</time>
      </trkpt>
      <trkpt lat="44.30202" lon="5.82356">
        <ele>561</ele>
        <time>2019-03-27T16:17:33Z</time>
      </trkpt>
      <trkpt lat="44.30209" lon="5.82356">
        <ele>561</ele>
        <time>2019-03-27T16:17:34Z</time>
      </trkpt>
      <trkpt lat="44.30216" lon="5.82356">
        <ele>561</ele>
        <time>2019-03-27T16:17:35Z</time>
      </trkpt>
      <trkpt lat="44.30223" lon="5.82356">
        <ele>561</ele>
        <time>2019-03-27T16:17:36Z</time>
      </trkpt>
      <trkpt lat="44.30229" lon="5.82355">
        <ele>561</ele>
        <time>2019-03-27T16:17:37Z</time>
      </trkpt>
      <trkpt lat="44.30236" lon="5.82355">
        <ele>561</ele>
        <time>2019-03-27T16:17:38Z</time>
      </trkpt>
      <trkpt lat="44.30242" lon="5.82354">
        <ele>561</ele>
        <time>2019-03-27T16:17:39Z</time>
      </trkpt>
      <trkpt lat="44.30249" lon="5.82354">
        <ele>561</ele>
        <time>2019-03-27T16:17:40Z</time>
      </trkpt>
      <trkpt lat="44.30255" lon="5.82353">
        <ele>561</ele>
        <time>2019-03-27T16:17:41Z</time>
      </trkpt>
      <trkpt lat="44.30262" lon="5.82352">
        <ele>561</ele>
        <time>2019-03-27T16:17:42Z</time>
      </trkpt>
      <trkpt lat="44.30268" lon="5.82351">
        <ele>561</ele>
        <time>2019-03-27T16:17:43Z</time>
      </trkpt>
      <trkpt lat="44.30275" lon="5.8235">
        <ele>561</ele>
        <time>2019-03-27T16:17:44Z</time>
      </trkpt>
      <trkpt lat="44.30281" lon="5.82349">
        <ele>561</ele>
        <time>2019-03-27T16:17:45Z</time>
      </trkpt>
      <trkpt lat="44.30288" lon="5.82349">
        <ele>561</ele>
        <time>2019-03-27T16:17:46Z</time>
      </trkpt>
      <trkpt lat="44.30294" lon="5.82348">
        <ele>561</ele>
        <time>2019-03-27T16:17:47Z</time>
      </trkpt>
      <trkpt lat="44.30301" lon="5.82346">
        <ele>561</ele>
        <time>2019-03-27T16:17:48Z</time>
      </trkpt>
      <trkpt lat="44.30308" lon="5.82345">
        <ele>561</ele>
        <time>2019-03-27T16:17:49Z</time>
      </trkpt>
      <trkpt lat="44.30315" lon="5.82344">
        <ele>561</ele>
        <time>2019-03-27T16:17:50Z</time>
      </trkpt>
      <trkpt lat="44.30323" lon="5.82343">
        <ele>561</ele>
        <time>2019-03-27T16:17:51Z</time>
      </trkpt>
      <trkpt lat="44.3033" lon="5.82341">
        <ele>562</ele>
        <time>2019-03-27T16:17:52Z</time>
      </trkpt>
      <trkpt lat="44.30337" lon="5.8234">
        <ele>562</ele>
        <time>2019-03-27T16:17:53Z</time>
      </trkpt>
      <trkpt lat="44.30344" lon="5.82338">
        <ele>562</ele>
        <time>2019-03-27T16:17:54Z</time>
      </trkpt>
      <trkpt lat="44.3035" lon="5.82336">
        <ele>562</ele>
        <time>2019-03-27T16:17:55Z</time>
      </trkpt>
      <trkpt lat="44.30357" lon="5.82335">
        <ele>562</ele>
        <time>2019-03-27T16:17:56Z</time>
      </trkpt>
      <trkpt lat="44.30363" lon="5.82334">
        <ele>562</ele>
        <time>2019-03-27T16:17:57Z</time>
      </trkpt>
      <trkpt lat="44.3037" lon="5.82333">
        <ele>562</ele>
        <time>2019-03-27T16:17:58Z</time>
      </trkpt>
      <trkpt lat="44.30378" lon="5.82331">
        <ele>562</ele>
        <time>2019-03-27T16:17:59Z</time>
      </trkpt>
      <trkpt lat="44.30385" lon="5.8233">
        <ele>562</ele>
        <time>2019-03-27T16:18:00Z</time>
      </trkpt>
      <trkpt lat="44.30392" lon="5.8233">
        <ele>562</ele>
        <time>2019-03-27T16:18:01Z</time>
      </trkpt>
      <trkpt lat="44.30399" lon="5.82329">
        <ele>562</ele>
        <time>2019-03-27T16:18:02Z</time>
      </trkpt>
      <trkpt lat="44.30406" lon="5.82329">
        <ele>562</ele>
        <time>2019-03-27T16:18:03Z</time>
      </trkpt>
      <trkpt lat="44.30413" lon="5.82328">
        <ele>562</ele>
        <time>2019-03-27T16:18:04Z</time>
      </trkpt>
      <trkpt lat="44.30419" lon="5.82328">
        <ele>562</ele>
        <time>2019-03-27T16:18:05Z</time>
      </trkpt>
      <trkpt lat="44.30426" lon="5.82328">
        <ele>562</ele>
        <time>2019-03-27T16:18:06Z</time>
      </trkpt>
      <trkpt lat="44.30433" lon="5.82327">
        <ele>562</ele>
        <time>2019-03-27T16:18:07Z</time>
      </trkpt>
      <trkpt lat="44.3044" lon="5.82327">
        <ele>562</ele>
        <time>2019-03-27T16:18:08Z</time>
      </trkpt>
      <trkpt lat="44.30447" lon="5.82327">
        <ele>562</ele>
        <time>2019-03-27T16:18:09Z</time>
      </trkpt>
      <trkpt lat="44.30455" lon="5.82326">
        <ele>562</ele>
        <time>2019-03-27T16:18:10Z</time>
      </trkpt>
      <trkpt lat="44.30462" lon="5.82326">
        <ele>562</ele>
        <time>2019-03-27T16:18:11Z</time>
      </trkpt>
      <trkpt lat="44.30469" lon="5.82326">
        <ele>562</ele>
        <time>2019-03-27T16:18:12Z</time>
      </trkpt>
      <trkpt lat="44.30477" lon="5.82325">
        <ele>562</ele>
        <time>2019-03-27T16:18:13Z</time>
      </trkpt>
      <trkpt lat="44.30484" lon="5.82326">
        <ele>562</ele>
        <time>2019-03-27T16:18:14Z</time>
      </trkpt>
      <trkpt lat="44.30492" lon="5.82326">
        <ele>562</ele>
        <time>2019-03-27T16:18:15Z</time>
      </trkpt>
      <trkpt lat="44.30499" lon="5.82325">
        <ele>562</ele>
        <time>2019-03-27T16:18:16Z</time>
      </trkpt>
      <trkpt lat="44.30506" lon="5.82325">
        <ele>562</ele>
        <time>2019-03-27T16:18:17Z</time>
      </trkpt>
      <trkpt lat="44.30513" lon="5.82324">
        <ele>562</ele>
        <time>2019-03-27T16:18:18Z</time>
      </trkpt>
      <trkpt lat="44.3052" lon="5.82324">
        <ele>562</ele>
        <time>2019-03-27T16:18:19Z</time>
      </trkpt>
      <trkpt lat="44.30527" lon="5.82323">
        <ele>562</ele>
        <time>2019-03-27T16:18:20Z</time>
      </trkpt>
      <trkpt lat="44.30534" lon="5.82322">
        <ele>562</ele>
        <time>2019-03-27T16:18:21Z</time>
      </trkpt>
      <trkpt lat="44.30541" lon="5.82321">
        <ele>562</ele>
        <time>2019-03-27T16:18:22Z</time>
      </trkpt>
      <trkpt lat="44.30548" lon="5.82319">
        <ele>562</ele>
        <time>2019-03-27T16:18:23Z</time>
      </trkpt>
      <trkpt lat="44.30555" lon="5.82318">
        <ele>562</ele>
        <time>2019-03-27T16:18:24Z</time>
      </trkpt>
      <trkpt lat="44.30563" lon="5.82317">
        <ele>562</ele>
        <time>2019-03-27T16:18:25Z</time>
      </trkpt>
      <trkpt lat="44.3057" lon="5.82315">
        <ele>563</ele>
        <time>2019-03-27T16:18:26Z</time>
      </trkpt>
      <trkpt lat="44.30577" lon="5.82315">
        <ele>563</ele>
        <time>2019-03-27T16:18:27Z</time>
      </trkpt>
      <trkpt lat="44.30584" lon="5.82314">
        <ele>563</ele>
        <time>2019-03-27T16:18:28Z</time>
      </trkpt>
      <trkpt lat="44.30591" lon="5.82313">
        <ele>563</ele>
        <time>2019-03-27T16:18:29Z</time>
      </trkpt>
      <trkpt lat="44.30598" lon="5.82312">
        <ele>564</ele>
        <time>2019-03-27T16:18:30Z</time>
      </trkpt>
      <trkpt lat="44.30605" lon="5.8231">
        <ele>564</ele>
        <time>2019-03-27T16:18:31Z</time>
      </trkpt>
      <trkpt lat="44.30612" lon="5.82309">
        <ele>564</ele>
        <time>2019-03-27T16:18:32Z</time>
      </trkpt>
      <trkpt lat="44.30619" lon="5.82307">
        <ele>564</ele>
        <time>2019-03-27T16:18:33Z</time>
      </trkpt>
      <trkpt lat="44.30627" lon="5.82305">
        <ele>564</ele>
        <time>2019-03-27T16:18:34Z</time>
      </trkpt>
      <trkpt lat="44.30633" lon="5.82302">
        <ele>564</ele>
        <time>2019-03-27T16:18:35Z</time>
      </trkpt>
      <trkpt lat="44.3064" lon="5.82298">
        <ele>564</ele>
        <time>2019-03-27T16:18:36Z</time>
      </trkpt>
      <trkpt lat="44.30647" lon="5.82295">
        <ele>564</ele>
        <time>2019-03-27T16:18:37Z</time>
      </trkpt>
      <trkpt lat="44.30653" lon="5.82291">
        <ele>564</ele>
        <time>2019-03-27T16:18:38Z</time>
      </trkpt>
      <trkpt lat="44.30659" lon="5.82286">
        <ele>564</ele>
        <time>2019-03-27T16:18:39Z</time>
      </trkpt>
      <trkpt lat="44.30665" lon="5.82281">
        <ele>564</ele>
        <time>2019-03-27T16:18:40Z</time>
      </trkpt>
      <trkpt lat="44.30671" lon="5.82276">
        <ele>564</ele>
        <time>2019-03-27T16:18:41Z</time>
      </trkpt>
      <trkpt lat="44.30676" lon="5.82271">
        <ele>564</ele>
        <time>2019-03-27T16:18:42Z</time>
      </trkpt>
      <trkpt lat="44.30681" lon="5.82265">
        <ele>564</ele>
        <time>2019-03-27T16:18:43Z</time>
      </trkpt>
      <trkpt lat="44.30687" lon="5.82259">
        <ele>564</ele>
        <time>2019-03-27T16:18:44Z</time>
      </trkpt>
      <trkpt lat="44.30693" lon="5.82252">
        <ele>564</ele>
        <time>2019-03-27T16:18:45Z</time>
      </trkpt>
      <trkpt lat="44.30698" lon="5.82245">
        <ele>564</ele>
        <time>2019-03-27T16:18:46Z</time>
      </trkpt>
      <trkpt lat="44.30703" lon="5.82237">
        <ele>564</ele>
        <time>2019-03-27T16:18:47Z</time>
      </trkpt>
      <trkpt lat="44.30707" lon="5.8223">
        <ele>564</ele>
        <time>2019-03-27T16:18:48Z</time>
      </trkpt>
      <trkpt lat="44.30711" lon="5.82222">
        <ele>564</ele>
        <time>2019-03-27T16:18:49Z</time>
      </trkpt>
      <trkpt lat="44.30715" lon="5.82213">
        <ele>564</ele>
        <time>2019-03-27T16:18:50Z</time>
      </trkpt>
      <trkpt lat="44.30719" lon="5.82204">
        <ele>564</ele>
        <time>2019-03-27T16:18:51Z</time>
      </trkpt>
      <trkpt lat="44.30723" lon="5.82195">
        <ele>564</ele>
        <time>2019-03-27T16:18:52Z</time>
      </trkpt>
      <trkpt lat="44.30726" lon="5.82186">
        <ele>564</ele>
        <time>2019-03-27T16:18:53Z</time>
      </trkpt>
      <trkpt lat="44.30729" lon="5.82177">
        <ele>564</ele>
        <time>2019-03-27T16:18:54Z</time>
      </trkpt>
      <trkpt lat="44.30732" lon="5.82167">
        <ele>564</ele>
        <time>2019-03-27T16:18:55Z</time>
      </trkpt>
      <trkpt lat="44.30735" lon="5.82158">
        <ele>564</ele>
        <time>2019-03-27T16:18:56Z</time>
      </trkpt>
      <trkpt lat="44.30738" lon="5.82149">
        <ele>564</ele>
        <time>2019-03-27T16:18:57Z</time>
      </trkpt>
      <trkpt lat="44.30741" lon="5.82139">
        <ele>564</ele>
        <time>2019-03-27T16:18:58Z</time>
      </trkpt>
      <trkpt lat="44.30744" lon="5.82129">
        <ele>564</ele>
        <time>2019-03-27T16:18:59Z</time>
      </trkpt>
      <trkpt lat="44.30748" lon="5.8212">
        <ele>564</ele>
        <time>2019-03-27T16:19:00Z</time>
      </trkpt>
      <trkpt lat="44.30752" lon="5.82112">
        <ele>564</ele>
        <time>2019-03-27T16:19:01Z</time>
      </trkpt>
      <trkpt lat="44.30757" lon="5.82104">
        <ele>564</ele>
        <time>2019-03-27T16:19:02Z</time>
      </trkpt>
      <trkpt lat="44.30762" lon="5.82097">
        <ele>564</ele>
        <time>2019-03-27T16:19:03Z</time>
      </trkpt>
      <trkpt lat="44.30768" lon="5.82092">
        <ele>564</ele>
        <time>2019-03-27T16:19:04Z</time>
      </trkpt>
      <trkpt lat="44.30775" lon="5.82087">
        <ele>564</ele>
        <time>2019-03-27T16:19:05Z</time>
      </trkpt>
      <trkpt lat="44.30781" lon="5.82083">
        <ele>564</ele>
        <time>2019-03-27T16:19:06Z</time>
      </trkpt>
      <trkpt lat="44.30788" lon="5.8208">
        <ele>564</ele>
        <time>2019-03-27T16:19:07Z</time>
      </trkpt>
      <trkpt lat="44.30795" lon="5.82078">
        <ele>564</ele>
        <time>2019-03-27T16:19:08Z</time>
      </trkpt>
      <trkpt lat="44.30802" lon="5.82076">
        <ele>564</ele>
        <time>2019-03-27T16:19:09Z</time>
      </trkpt>
      <trkpt lat="44.30809" lon="5.82074">
        <ele>564</ele>
        <time>2019-03-27T16:19:10Z</time>
      </trkpt>
      <trkpt lat="44.30816" lon="5.82072">
        <ele>564</ele>
        <time>2019-03-27T16:19:11Z</time>
      </trkpt>
      <trkpt lat="44.30823" lon="5.82069">
        <ele>564</ele>
        <time>2019-03-27T16:19:12Z</time>
      </trkpt>
      <trkpt lat="44.3083" lon="5.82067">
        <ele>564</ele>
        <time>2019-03-27T16:19:13Z</time>
      </trkpt>
      <trkpt lat="44.30837" lon="5.82065">
        <ele>564</ele>
        <time>2019-03-27T16:19:14Z</time>
      </trkpt>
      <trkpt lat="44.30844" lon="5.82063">
        <ele>564</ele>
        <time>2019-03-27T16:19:15Z</time>
      </trkpt>
      <trkpt lat="44.30851" lon="5.82061">
        <ele>564</ele>
        <time>2019-03-27T16:19:16Z</time>
      </trkpt>
      <trkpt lat="44.30857" lon="5.82059">
        <ele>564</ele>
        <time>2019-03-27T16:19:17Z</time>
      </trkpt>
      <trkpt lat="44.30864" lon="5.82057">
        <ele>564</ele>
        <time>2019-03-27T16:19:18Z</time>
      </trkpt>
      <trkpt lat="44.30871" lon="5.82055">
        <ele>564</ele>
        <time>2019-03-27T16:19:19Z</time>
      </trkpt>
      <trkpt lat="44.30879" lon="5.82052">
        <ele>564</ele>
        <time>2019-03-27T16:19:20Z</time>
      </trkpt>
      <trkpt lat="44.30886" lon="5.82048">
        <ele>564</ele>
        <time>2019-03-27T16:19:21Z</time>
      </trkpt>
      <trkpt lat="44.30893" lon="5.82045">
        <ele>563</ele>
        <time>2019-03-27T16:19:22Z</time>
      </trkpt>
      <trkpt lat="44.309" lon="5.82043">
        <ele>563</ele>
        <time>2019-03-27T16:19:23Z</time>
      </trkpt>
      <trkpt lat="44.30908" lon="5.82041">
        <ele>562</ele>
        <time>2019-03-27T16:19:24Z</time>
      </trkpt>
      <trkpt lat="44.30915" lon="5.8204">
        <ele>562</ele>
        <time>2019-03-27T16:19:25Z</time>
      </trkpt>
      <trkpt lat="44.30922" lon="5.8204">
        <ele>562</ele>
        <time>2019-03-27T16:19:26Z</time>
      </trkpt>
      <trkpt lat="44.3093" lon="5.8204">
        <ele>561</ele>
        <time>2019-03-27T16:19:27Z</time>
      </trkpt>
      <trkpt lat="44.30937" lon="5.82041">
        <ele>561</ele>
        <time>2019-03-27T16:19:28Z</time>
      </trkpt>
      <trkpt lat="44.30945" lon="5.82044">
        <ele>561</ele>
        <time>2019-03-27T16:19:29Z</time>
      </trkpt>
      <trkpt lat="44.30952" lon="5.82047">
        <ele>560</ele>
        <time>2019-03-27T16:19:30Z</time>
      </trkpt>
      <trkpt lat="44.30959" lon="5.8205">
        <ele>560</ele>
        <time>2019-03-27T16:19:31Z</time>
      </trkpt>
      <trkpt lat="44.30966" lon="5.82054">
        <ele>560</ele>
        <time>2019-03-27T16:19:32Z</time>
      </trkpt>
      <trkpt lat="44.30973" lon="5.82059">
        <ele>560</ele>
        <time>2019-03-27T16:19:33Z</time>
      </trkpt>
      <trkpt lat="44.3098" lon="5.82064">
        <ele>560</ele>
        <time>2019-03-27T16:19:34Z</time>
      </trkpt>
      <trkpt lat="44.30986" lon="5.82069">
        <ele>560</ele>
        <time>2019-03-27T16:19:35Z</time>
      </trkpt>
      <trkpt lat="44.30993" lon="5.82075">
        <ele>560</ele>
        <time>2019-03-27T16:19:36Z</time>
      </trkpt>
      <trkpt lat="44.30999" lon="5.82081">
        <ele>560</ele>
        <time>2019-03-27T16:19:37Z</time>
      </trkpt>
      <trkpt lat="44.31004" lon="5.82088">
        <ele>560</ele>
        <time>2019-03-27T16:19:38Z</time>
      </trkpt>
      <trkpt lat="44.3101" lon="5.82095">
        <ele>559</ele>
        <time>2019-03-27T16:19:39Z</time>
      </trkpt>
      <trkpt lat="44.31015" lon="5.82102">
        <ele>559</ele>
        <time>2019-03-27T16:19:40Z</time>
      </trkpt>
      <trkpt lat="44.3102" lon="5.82109">
        <ele>559</ele>
        <time>2019-03-27T16:19:41Z</time>
      </trkpt>
      <trkpt lat="44.31025" lon="5.82116">
        <ele>559</ele>
        <time>2019-03-27T16:19:42Z</time>
      </trkpt>
      <trkpt lat="44.31031" lon="5.82123">
        <ele>559</ele>
        <time>2019-03-27T16:19:43Z</time>
      </trkpt>
      <trkpt lat="44.31036" lon="5.8213">
        <ele>559</ele>
        <time>2019-03-27T16:19:44Z</time>
      </trkpt>
      <trkpt lat="44.31041" lon="5.82137">
        <ele>559</ele>
        <time>2019-03-27T16:19:45Z</time>
      </trkpt>
      <trkpt lat="44.31047" lon="5.82144">
        <ele>558</ele>
        <time>2019-03-27T16:19:46Z</time>
      </trkpt>
      <trkpt lat="44.31052" lon="5.82151">
        <ele>558</ele>
        <time>2019-03-27T16:19:47Z</time>
      </trkpt>
      <trkpt lat="44.31057" lon="5.82158">
        <ele>558</ele>
        <time>2019-03-27T16:19:48Z</time>
      </trkpt>
      <trkpt lat="44.31062" lon="5.82165">
        <ele>557</ele>
        <time>2019-03-27T16:19:49Z</time>
      </trkpt>
      <trkpt lat="44.31067" lon="5.82171">
        <ele>557</ele>
        <time>2019-03-27T16:19:50Z</time>
      </trkpt>
      <trkpt lat="44.31071" lon="5.82176">
        <ele>557</ele>
        <time>2019-03-27T16:19:51Z</time>
      </trkpt>
      <trkpt lat="44.31076" lon="5.82182">
        <ele>557</ele>
        <time>2019-03-27T16:19:52Z</time>
      </trkpt>
      <trkpt lat="44.3108" lon="5.82189">
        <ele>557</ele>
        <time>2019-03-27T16:19:53Z</time>
      </trkpt>
      <trkpt lat="44.31086" lon="5.82195">
        <ele>557</ele>
        <time>2019-03-27T16:19:54Z</time>
      </trkpt>
      <trkpt lat="44.3109" lon="5.82201">
        <ele>557</ele>
        <time>2019-03-27T16:19:55Z</time>
      </trkpt>
      <trkpt lat="44.31095" lon="5.82207">
        <ele>557</ele>
        <time>2019-03-27T16:19:56Z</time>
      </trkpt>
      <trkpt lat="44.311" lon="5.82214">
        <ele>557</ele>
        <time>2019-03-27T16:19:57Z</time>
      </trkpt>
      <trkpt lat="44.31105" lon="5.8222">
        <ele>557</ele>
        <time>2019-03-27T16:19:58Z</time>
      </trkpt>
      <trkpt lat="44.3111" lon="5.82227">
        <ele>557</ele>
        <time>2019-03-27T16:19:59Z</time>
      </trkpt>
      <trkpt lat="44.31114" lon="5.82233">
        <ele>557</ele>
        <time>2019-03-27T16:20:00Z</time>
      </trkpt>
      <trkpt lat="44.31119" lon="5.82238">
        <ele>557</ele>
        <time>2019-03-27T16:20:01Z</time>
      </trkpt>
      <trkpt lat="44.31123" lon="5.82244">
        <ele>557</ele>
        <time>2019-03-27T16:20:02Z</time>
      </trkpt>
      <trkpt lat="44.31128" lon="5.8225">
        <ele>557</ele>
        <time>2019-03-27T16:20:03Z</time>
      </trkpt>
      <trkpt lat="44.31132" lon="5.82255">
        <ele>557</ele>
        <time>2019-03-27T16:20:04Z</time>
      </trkpt>
      <trkpt lat="44.31136" lon="5.8226">
        <ele>557</ele>
        <time>2019-03-27T16:20:05Z</time>
      </trkpt>
      <trkpt lat="44.3114" lon="5.82265">
        <ele>557</ele>
        <time>2019-03-27T16:20:06Z</time>
      </trkpt>
      <trkpt lat="44.31144" lon="5.82269">
        <ele>557</ele>
        <time>2019-03-27T16:20:07Z</time>
      </trkpt>
      <trkpt lat="44.31148" lon="5.82274">
        <ele>557</ele>
        <time>2019-03-27T16:20:08Z</time>
      </trkpt>
      <trkpt lat="44.3115" lon="5.8228">
        <ele>557</ele>
        <time>2019-03-27T16:20:09Z</time>
      </trkpt>
      <trkpt lat="44.31152" lon="5.82287">
        <ele>557</ele>
        <time>2019-03-27T16:20:10Z</time>
      </trkpt>
      <trkpt lat="44.31152" lon="5.82295">
        <ele>557</ele>
        <time>2019-03-27T16:20:11Z</time>
      </trkpt>
      <trkpt lat="44.31152" lon="5.82302">
        <ele>557</ele>
        <time>2019-03-27T16:20:12Z</time>
      </trkpt>
      <trkpt lat="44.31148" lon="5.82308">
        <ele>557</ele>
        <time>2019-03-27T16:20:13Z</time>
      </trkpt>
      <trkpt lat="44.31144" lon="5.82313">
        <ele>557</ele>
        <time>2019-03-27T16:20:14Z</time>
      </trkpt>
      <trkpt lat="44.31139" lon="5.82319">
        <ele>557</ele>
        <time>2019-03-27T16:20:15Z</time>
      </trkpt>
      <trkpt lat="44.31134" lon="5.82325">
        <ele>557</ele>
        <time>2019-03-27T16:20:16Z</time>
      </trkpt>
      <trkpt lat="44.3113" lon="5.82331">
        <ele>557</ele>
        <time>2019-03-27T16:20:17Z</time>
      </trkpt>
      <trkpt lat="44.31125" lon="5.82337">
        <ele>557</ele>
        <time>2019-03-27T16:20:18Z</time>
      </trkpt>
      <trkpt lat="44.31121" lon="5.82343">
        <ele>557</ele>
        <time>2019-03-27T16:20:19Z</time>
      </trkpt>
      <trkpt lat="44.31117" lon="5.8235">
        <ele>557</ele>
        <time>2019-03-27T16:20:20Z</time>
      </trkpt>
      <trkpt lat="44.31114" lon="5.82358">
        <ele>557</ele>
        <time>2019-03-27T16:20:21Z</time>
      </trkpt>
      <trkpt lat="44.31111" lon="5.82366">
        <ele>557</ele>
        <time>2019-03-27T16:20:22Z</time>
      </trkpt>
      <trkpt lat="44.31109" lon="5.82374">
        <ele>557</ele>
        <time>2019-03-27T16:20:23Z</time>
      </trkpt>
      <trkpt lat="44.31108" lon="5.82383">
        <ele>557</ele>
        <time>2019-03-27T16:20:24Z</time>
      </trkpt>
      <trkpt lat="44.31107" lon="5.82392">
        <ele>557</ele>
        <time>2019-03-27T16:20:25Z</time>
      </trkpt>
      <trkpt lat="44.31106" lon="5.824">
        <ele>557</ele>
        <time>2019-03-27T16:20:26Z</time>
      </trkpt>
      <trkpt lat="44.31105" lon="5.82409">
        <ele>557</ele>
        <time>2019-03-27T16:20:27Z</time>
      </trkpt>
      <trkpt lat="44.31102" lon="5.82416">
        <ele>557</ele>
        <time>2019-03-27T16:20:28Z</time>
      </trkpt>
      <trkpt lat="44.311" lon="5.82422">
        <ele>557</ele>
        <time>2019-03-27T16:20:29Z</time>
      </trkpt>
      <trkpt lat="44.31097" lon="5.82429">
        <ele>557</ele>
        <time>2019-03-27T16:20:30Z</time>
      </trkpt>
      <trkpt lat="44.31096" lon="5.82435">
        <ele>557</ele>
        <time>2019-03-27T16:20:31Z</time>
      </trkpt>
      <trkpt lat="44.31093" lon="5.82441">
        <ele>557</ele>
        <time>2019-03-27T16:20:32Z</time>
      </trkpt>
      <trkpt lat="44.31091" lon="5.82447">
        <ele>557</ele>
        <time>2019-03-27T16:20:33Z</time>
      </trkpt>
      <trkpt lat="44.31088" lon="5.82454">
        <ele>557</ele>
        <time>2019-03-27T16:20:34Z</time>
      </trkpt>
      <trkpt lat="44.31085" lon="5.82462">
        <ele>557</ele>
        <time>2019-03-27T16:20:35Z</time>
      </trkpt>
      <trkpt lat="44.31081" lon="5.82469">
        <ele>557</ele>
        <time>2019-03-27T16:20:36Z</time>
      </trkpt>
      <trkpt lat="44.31077" lon="5.82476">
        <ele>557</ele>
        <time>2019-03-27T16:20:37Z</time>
      </trkpt>
      <trkpt lat="44.31074" lon="5.82484">
        <ele>557</ele>
        <time>2019-03-27T16:20:38Z</time>
      </trkpt>
      <trkpt lat="44.31073" lon="5.82494">
        <ele>557</ele>
        <time>2019-03-27T16:20:39Z</time>
      </trkpt>
      <trkpt lat="44.31074" lon="5.82504">
        <ele>557</ele>
        <time>2019-03-27T16:20:40Z</time>
      </trkpt>
      <trkpt lat="44.31076" lon="5.82512">
        <ele>557</ele>
        <time>2019-03-27T16:20:41Z</time>
      </trkpt>
      <trkpt lat="44.3108" lon="5.8252">
        <ele>557</ele>
        <time>2019-03-27T16:20:42Z</time>
      </trkpt>
      <trkpt lat="44.31085" lon="5.82526">
        <ele>557</ele>
        <time>2019-03-27T16:20:43Z</time>
      </trkpt>
      <trkpt lat="44.31091" lon="5.82531">
        <ele>557</ele>
        <time>2019-03-27T16:20:44Z</time>
      </trkpt>
      <trkpt lat="44.31097" lon="5.82536">
        <ele>557</ele>
        <time>2019-03-27T16:20:45Z</time>
      </trkpt>
      <trkpt lat="44.31103" lon="5.82541">
        <ele>557</ele>
        <time>2019-03-27T16:20:46Z</time>
      </trkpt>
      <trkpt lat="44.3111" lon="5.82545">
        <ele>557</ele>
        <time>2019-03-27T16:20:47Z</time>
      </trkpt>
      <trkpt lat="44.31116" lon="5.82549">
        <ele>557</ele>
        <time>2019-03-27T16:20:48Z</time>
      </trkpt>
      <trkpt lat="44.31122" lon="5.82553">
        <ele>557</ele>
        <time>2019-03-27T16:20:49Z</time>
      </trkpt>
      <trkpt lat="44.31128" lon="5.82557">
        <ele>557</ele>
        <time>2019-03-27T16:20:50Z</time>
      </trkpt>
      <trkpt lat="44.31135" lon="5.8256">
        <ele>557</ele>
        <time>2019-03-27T16:20:51Z</time>
      </trkpt>
      <trkpt lat="44.31141" lon="5.82564">
        <ele>557</ele>
        <time>2019-03-27T16:20:52Z</time>
      </trkpt>
      <trkpt lat="44.31147" lon="5.82567">
        <ele>557</ele>
        <time>2019-03-27T16:20:53Z</time>
      </trkpt>
      <trkpt lat="44.31154" lon="5.82571">
        <ele>557</ele>
        <time>2019-03-27T16:20:54Z</time>
      </trkpt>
      <trkpt lat="44.3116" lon="5.82574">
        <ele>557</ele>
        <time>2019-03-27T16:20:55Z</time>
      </trkpt>
      <trkpt lat="44.31166" lon="5.82578">
        <ele>557</ele>
        <time>2019-03-27T16:20:56Z</time>
      </trkpt>
      <trkpt lat="44.31172" lon="5.82581">
        <ele>557</ele>
        <time>2019-03-27T16:20:57Z</time>
      </trkpt>
      <trkpt lat="44.31178" lon="5.82584">
        <ele>557</ele>
        <time>2019-03-27T16:20:58Z</time>
      </trkpt>
      <trkpt lat="44.31184" lon="5.82587">
        <ele>557</ele>
        <time>2019-03-27T16:20:59Z</time>
      </trkpt>
      <trkpt lat="44.3119" lon="5.8259">
        <ele>557</ele>
        <time>2019-03-27T16:21:00Z</time>
      </trkpt>
      <trkpt lat="44.31195" lon="5.82593">
        <ele>557</ele>
        <time>2019-03-27T16:21:01Z</time>
      </trkpt>
      <trkpt lat="44.31201" lon="5.82596">
        <ele>557</ele>
        <time>2019-03-27T16:21:02Z</time>
      </trkpt>
      <trkpt lat="44.31207" lon="5.826">
        <ele>557</ele>
        <time>2019-03-27T16:21:03Z</time>
      </trkpt>
      <trkpt lat="44.31212" lon="5.82603">
        <ele>557</ele>
        <time>2019-03-27T16:21:04Z</time>
      </trkpt>
      <trkpt lat="44.31218" lon="5.82606">
        <ele>557</ele>
        <time>2019-03-27T16:21:05Z</time>
      </trkpt>
      <trkpt lat="44.31223" lon="5.82609">
        <ele>557</ele>
        <time>2019-03-27T16:21:06Z</time>
      </trkpt>
      <trkpt lat="44.31229" lon="5.82612">
        <ele>557</ele>
        <time>2019-03-27T16:21:07Z</time>
      </trkpt>
      <trkpt lat="44.31234" lon="5.82614">
        <ele>557</ele>
        <time>2019-03-27T16:21:08Z</time>
      </trkpt>
      <trkpt lat="44.31239" lon="5.82617">
        <ele>557</ele>
        <time>2019-03-27T16:21:09Z</time>
      </trkpt>
      <trkpt lat="44.31244" lon="5.82619">
        <ele>557</ele>
        <time>2019-03-27T16:21:10Z</time>
      </trkpt>
      <trkpt lat="44.31249" lon="5.82622">
        <ele>557</ele>
        <time>2019-03-27T16:21:11Z</time>
      </trkpt>
      <trkpt lat="44.31254" lon="5.82625">
        <ele>558</ele>
        <time>2019-03-27T16:21:12Z</time>
      </trkpt>
      <trkpt lat="44.31258" lon="5.82628">
        <ele>558</ele>
        <time>2019-03-27T16:21:13Z</time>
      </trkpt>
      <trkpt lat="44.31263" lon="5.8263">
        <ele>559</ele>
        <time>2019-03-27T16:21:14Z</time>
      </trkpt>
      <trkpt lat="44.31267" lon="5.82633">
        <ele>559</ele>
        <time>2019-03-27T16:21:15Z</time>
      </trkpt>
      <trkpt lat="44.31272" lon="5.82635">
        <ele>560</ele>
        <time>2019-03-27T16:21:16Z</time>
      </trkpt>
      <trkpt lat="44.31276" lon="5.82638">
        <ele>560</ele>
        <time>2019-03-27T16:21:17Z</time>
      </trkpt>
      <trkpt lat="44.3128" lon="5.82641">
        <ele>561</ele>
        <time>2019-03-27T16:21:18Z</time>
      </trkpt>
      <trkpt lat="44.31284" lon="5.82644">
        <ele>561</ele>
        <time>2019-03-27T16:21:19Z</time>
      </trkpt>
      <trkpt lat="44.31288" lon="5.82647">
        <ele>561</ele>
        <time>2019-03-27T16:21:20Z</time>
      </trkpt>
      <trkpt lat="44.31292" lon="5.8265">
        <ele>561</ele>
        <time>2019-03-27T16:21:21Z</time>
      </trkpt>
      <trkpt lat="44.31297" lon="5.82653">
        <ele>562</ele>
        <time>2019-03-27T16:21:22Z</time>
      </trkpt>
      <trkpt lat="44.313" lon="5.82655">
        <ele>562</ele>
        <time>2019-03-27T16:21:23Z</time>
      </trkpt>
      <trkpt lat="44.31304" lon="5.82658">
        <ele>562</ele>
        <time>2019-03-27T16:21:24Z</time>
      </trkpt>
      <trkpt lat="44.31308" lon="5.8266">
        <ele>562</ele>
        <time>2019-03-27T16:21:25Z</time>
      </trkpt>
      <trkpt lat="44.31311" lon="5.82661">
        <ele>562</ele>
        <time>2019-03-27T16:21:26Z</time>
      </trkpt>
      <trkpt lat="44.31315" lon="5.82663">
        <ele>563</ele>
        <time>2019-03-27T16:21:27Z</time>
      </trkpt>
      <trkpt lat="44.31318" lon="5.82665">
        <ele>563</ele>
        <time>2019-03-27T16:21:28Z</time>
      </trkpt>
      <trkpt lat="44.31321" lon="5.82666">
        <ele>563</ele>
        <time>2019-03-27T16:21:29Z</time>
      </trkpt>
      <trkpt lat="44.31323" lon="5.82668">
        <ele>564</ele>
        <time>2019-03-27T16:21:30Z</time>
      </trkpt>
      <trkpt lat="44.31326" lon="5.82669">
        <ele>564</ele>
        <time>2019-03-27T16:21:31Z</time>
      </trkpt>
      <trkpt lat="44.31328" lon="5.8267">
        <ele>564</ele>
        <time>2019-03-27T16:21:32Z</time>
      </trkpt>
      <trkpt lat="44.31331" lon="5.82672">
        <ele>565</ele>
        <time>2019-03-27T16:21:33Z</time>
      </trkpt>
      <trkpt lat="44.31333" lon="5.82673">
        <ele>565</ele>
        <time>2019-03-27T16:21:34Z</time>
      </trkpt>
      <trkpt lat="44.31335" lon="5.82674">
        <ele>565</ele>
        <time>2019-03-27T16:21:35Z</time>
      </trkpt>
      <trkpt lat="44.31337" lon="5.82676">
        <ele>566</ele>
        <time>2019-03-27T16:21:36Z</time>
      </trkpt>
      <trkpt lat="44.31338" lon="5.82677">
        <ele>566</ele>
        <time>2019-03-27T16:21:37Z</time>
      </trkpt>
      <trkpt lat="44.31341" lon="5.82678">
        <ele>566</ele>
        <time>2019-03-27T16:21:38Z</time>
      </trkpt>
      <trkpt lat="44.31342" lon="5.82679">
        <ele>566</ele>
        <time>2019-03-27T16:21:39Z</time>
      </trkpt>
      <trkpt lat="44.31343" lon="5.8268">
        <ele>566</ele>
        <time>2019-03-27T16:21:45Z</time>
      </trkpt>
      <trkpt lat="44.31344" lon="5.82681">
        <ele>566</ele>
        <time>2019-03-27T16:21:52Z</time>
      </trkpt>
      <trkpt lat="44.31345" lon="5.82679">
        <ele>566</ele>
        <time>2019-03-27T16:21:58Z</time>
      </trkpt>
      <trkpt lat="44.31343" lon="5.82679">
        <ele>566</ele>
        <time>2019-03-27T16:22:08Z</time>
      </trkpt>
      <trkpt lat="44.31344" lon="5.82677">
        <ele>566</ele>
        <time>2019-03-27T16:22:26Z</time>
      </trkpt>
      <trkpt lat="44.31345" lon="5.82677">
        <ele>566</ele>
        <time>2019-03-27T16:22:39Z</time>
      </trkpt>
      <trkpt lat="44.31344" lon="5.82677">
        <ele>566</ele>
        <time>2019-03-27T16:22:41Z</time>
      </trkpt>
      <trkpt lat="44.31345" lon="5.82678">
        <ele>566</ele>
        <time>2019-03-27T16:22:54Z</time>
      </trkpt>
      <trkpt lat="44.31347" lon="5.82678">
        <ele>566</ele>
        <time>2019-03-27T16:23:00Z</time>
      </trkpt>
      <trkpt lat="44.31348" lon="5.82678">
        <ele>566</ele>
        <time>2019-03-27T16:23:17Z</time>
      </trkpt>
      <trkpt lat="44.31349" lon="5.82679">
        <ele>566</ele>
        <time>2019-03-27T16:23:18Z</time>
      </trkpt>
      <trkpt lat="44.3135" lon="5.82679">
        <ele>566</ele>
        <time>2019-03-27T16:23:19Z</time>
      </trkpt>
      <trkpt lat="44.31352" lon="5.8268">
        <ele>566</ele>
        <time>2019-03-27T16:23:20Z</time>
      </trkpt>
      <trkpt lat="44.31353" lon="5.82682">
        <ele>567</ele>
        <time>2019-03-27T16:23:22Z</time>
      </trkpt>
      <trkpt lat="44.31354" lon="5.82683">
        <ele>567</ele>
        <time>2019-03-27T16:23:23Z</time>
      </trkpt>
      <trkpt lat="44.31355" lon="5.82685">
        <ele>567</ele>
        <time>2019-03-27T16:23:24Z</time>
      </trkpt>
      <trkpt lat="44.31356" lon="5.82687">
        <ele>567</ele>
        <time>2019-03-27T16:23:25Z</time>
      </trkpt>
      <trkpt lat="44.31356" lon="5.8269">
        <ele>567</ele>
        <time>2019-03-27T16:23:26Z</time>
      </trkpt>
      <trkpt lat="44.31357" lon="5.82693">
        <ele>567</ele>
        <time>2019-03-27T16:23:27Z</time>
      </trkpt>
      <trkpt lat="44.31358" lon="5.82696">
        <ele>567</ele>
        <time>2019-03-27T16:23:28Z</time>
      </trkpt>
      <trkpt lat="44.3136" lon="5.82699">
        <ele>567</ele>
        <time>2019-03-27T16:23:29Z</time>
      </trkpt>
      <trkpt lat="44.31363" lon="5.82703">
        <ele>567</ele>
        <time>2019-03-27T16:23:30Z</time>
      </trkpt>
      <trkpt lat="44.31365" lon="5.82706">
        <ele>567</ele>
        <time>2019-03-27T16:23:31Z</time>
      </trkpt>
      <trkpt lat="44.31368" lon="5.8271">
        <ele>567</ele>
        <time>2019-03-27T16:23:32Z</time>
      </trkpt>
      <trkpt lat="44.31371" lon="5.82715">
        <ele>567</ele>
        <time>2019-03-27T16:23:33Z</time>
      </trkpt>
      <trkpt lat="44.31373" lon="5.82721">
        <ele>567</ele>
        <time>2019-03-27T16:23:34Z</time>
      </trkpt>
      <trkpt lat="44.31374" lon="5.82728">
        <ele>567</ele>
        <time>2019-03-27T16:23:35Z</time>
      </trkpt>
      <trkpt lat="44.31374" lon="5.82735">
        <ele>567</ele>
        <time>2019-03-27T16:23:36Z</time>
      </trkpt>
      <trkpt lat="44.31374" lon="5.82741">
        <ele>567</ele>
        <time>2019-03-27T16:23:37Z</time>
      </trkpt>
      <trkpt lat="44.31374" lon="5.82748">
        <ele>567</ele>
        <time>2019-03-27T16:23:38Z</time>
      </trkpt>
      <trkpt lat="44.31374" lon="5.82755">
        <ele>567</ele>
        <time>2019-03-27T16:23:39Z</time>
      </trkpt>
      <trkpt lat="44.31374" lon="5.82762">
        <ele>567</ele>
        <time>2019-03-27T16:23:40Z</time>
      </trkpt>
      <trkpt lat="44.31374" lon="5.82769">
        <ele>567</ele>
        <time>2019-03-27T16:23:41Z</time>
      </trkpt>
      <trkpt lat="44.31374" lon="5.82776">
        <ele>567</ele>
        <time>2019-03-27T16:23:42Z</time>
      </trkpt>
      <trkpt lat="44.31374" lon="5.82783">
        <ele>567</ele>
        <time>2019-03-27T16:23:43Z</time>
      </trkpt>
      <trkpt lat="44.31374" lon="5.8279">
        <ele>567</ele>
        <time>2019-03-27T16:23:44Z</time>
      </trkpt>
      <trkpt lat="44.31374" lon="5.82798">
        <ele>567</ele>
        <time>2019-03-27T16:23:45Z</time>
      </trkpt>
      <trkpt lat="44.31374" lon="5.82805">
        <ele>567</ele>
        <time>2019-03-27T16:23:46Z</time>
      </trkpt>
      <trkpt lat="44.31373" lon="5.82812">
        <ele>567</ele>
        <time>2019-03-27T16:23:47Z</time>
      </trkpt>
      <trkpt lat="44.31372" lon="5.82819">
        <ele>567</ele>
        <time>2019-03-27T16:23:48Z</time>
      </trkpt>
      <trkpt lat="44.31372" lon="5.82826">
        <ele>567</ele>
        <time>2019-03-27T16:23:49Z</time>
      </trkpt>
      <trkpt lat="44.31371" lon="5.82833">
        <ele>567</ele>
        <time>2019-03-27T16:23:50Z</time>
      </trkpt>
      <trkpt lat="44.31371" lon="5.8284">
        <ele>567</ele>
        <time>2019-03-27T16:23:51Z</time>
      </trkpt>
      <trkpt lat="44.3137" lon="5.82847">
        <ele>567</ele>
        <time>2019-03-27T16:23:52Z</time>
      </trkpt>
      <trkpt lat="44.31369" lon="5.82855">
        <ele>567</ele>
        <time>2019-03-27T16:23:53Z</time>
      </trkpt>
      <trkpt lat="44.31368" lon="5.82862">
        <ele>567</ele>
        <time>2019-03-27T16:23:54Z</time>
      </trkpt>
      <trkpt lat="44.31367" lon="5.82868">
        <ele>567</ele>
        <time>2019-03-27T16:23:55Z</time>
      </trkpt>
      <trkpt lat="44.31366" lon="5.82875">
        <ele>567</ele>
        <time>2019-03-27T16:23:56Z</time>
      </trkpt>
      <trkpt lat="44.31366" lon="5.82883">
        <ele>567</ele>
        <time>2019-03-27T16:23:57Z</time>
      </trkpt>
      <trkpt lat="44.31365" lon="5.8289">
        <ele>567</ele>
        <time>2019-03-27T16:23:58Z</time>
      </trkpt>
      <trkpt lat="44.31364" lon="5.82897">
        <ele>567</ele>
        <time>2019-03-27T16:23:59Z</time>
      </trkpt>
      <trkpt lat="44.31363" lon="5.82904">
        <ele>567</ele>
        <time>2019-03-27T16:24:00Z</time>
      </trkpt>
      <trkpt lat="44.31361" lon="5.82911">
        <ele>567</ele>
        <time>2019-03-27T16:24:01Z</time>
      </trkpt>
      <trkpt lat="44.3136" lon="5.82918">
        <ele>567</ele>
        <time>2019-03-27T16:24:02Z</time>
      </trkpt>
      <trkpt lat="44.31359" lon="5.82926">
        <ele>567</ele>
        <time>2019-03-27T16:24:03Z</time>
      </trkpt>
      <trkpt lat="44.31358" lon="5.82933">
        <ele>567</ele>
        <time>2019-03-27T16:24:04Z</time>
      </trkpt>
      <trkpt lat="44.31357" lon="5.8294">
        <ele>567</ele>
        <time>2019-03-27T16:24:05Z</time>
      </trkpt>
      <trkpt lat="44.31357" lon="5.82947">
        <ele>567</ele>
        <time>2019-03-27T16:24:06Z</time>
      </trkpt>
      <trkpt lat="44.31356" lon="5.82954">
        <ele>567</ele>
        <time>2019-03-27T16:24:07Z</time>
      </trkpt>
      <trkpt lat="44.31355" lon="5.82961">
        <ele>567</ele>
        <time>2019-03-27T16:24:08Z</time>
      </trkpt>
      <trkpt lat="44.31354" lon="5.82968">
        <ele>567</ele>
        <time>2019-03-27T16:24:09Z</time>
      </trkpt>
      <trkpt lat="44.31353" lon="5.82975">
        <ele>567</ele>
        <time>2019-03-27T16:24:10Z</time>
      </trkpt>
      <trkpt lat="44.31353" lon="5.82982">
        <ele>567</ele>
        <time>2019-03-27T16:24:11Z</time>
      </trkpt>
      <trkpt lat="44.31352" lon="5.82989">
        <ele>567</ele>
        <time>2019-03-27T16:24:12Z</time>
      </trkpt>
      <trkpt lat="44.31352" lon="5.82996">
        <ele>567</ele>
        <time>2019-03-27T16:24:13Z</time>
      </trkpt>
      <trkpt lat="44.31351" lon="5.83002">
        <ele>567</ele>
        <time>2019-03-27T16:24:14Z</time>
      </trkpt>
      <trkpt lat="44.3135" lon="5.83008">
        <ele>567</ele>
        <time>2019-03-27T16:24:15Z</time>
      </trkpt>
      <trkpt lat="44.3135" lon="5.83015">
        <ele>567</ele>
        <time>2019-03-27T16:24:16Z</time>
      </trkpt>
      <trkpt lat="44.31348" lon="5.83022">
        <ele>567</ele>
        <time>2019-03-27T16:24:17Z</time>
      </trkpt>
      <trkpt lat="44.31348" lon="5.83028">
        <ele>567</ele>
        <time>2019-03-27T16:24:18Z</time>
      </trkpt>
      <trkpt lat="44.31347" lon="5.83035">
        <ele>567</ele>
        <time>2019-03-27T16:24:19Z</time>
      </trkpt>
      <trkpt lat="44.31346" lon="5.83041">
        <ele>567</ele>
        <time>2019-03-27T16:24:20Z</time>
      </trkpt>
      <trkpt lat="44.31345" lon="5.83048">
        <ele>567</ele>
        <time>2019-03-27T16:24:21Z</time>
      </trkpt>
      <trkpt lat="44.31343" lon="5.83055">
        <ele>567</ele>
        <time>2019-03-27T16:24:22Z</time>
      </trkpt>
      <trkpt lat="44.31342" lon="5.83062">
        <ele>567</ele>
        <time>2019-03-27T16:24:23Z</time>
      </trkpt>
      <trkpt lat="44.31341" lon="5.83069">
        <ele>567</ele>
        <time>2019-03-27T16:24:24Z</time>
      </trkpt>
      <trkpt lat="44.3134" lon="5.83076">
        <ele>567</ele>
        <time>2019-03-27T16:24:25Z</time>
      </trkpt>
      <trkpt lat="44.31339" lon="5.83082">
        <ele>567</ele>
        <time>2019-03-27T16:24:26Z</time>
      </trkpt>
      <trkpt lat="44.31338" lon="5.83089">
        <ele>567</ele>
        <time>2019-03-27T16:24:27Z</time>
      </trkpt>
      <trkpt lat="44.31338" lon="5.83096">
        <ele>567</ele>
        <time>2019-03-27T16:24:28Z</time>
      </trkpt>
      <trkpt lat="44.3134" lon="5.83101">
        <ele>567</ele>
        <time>2019-03-27T16:24:29Z</time>
      </trkpt>
      <trkpt lat="44.31343" lon="5.83105">
        <ele>567</ele>
        <time>2019-03-27T16:24:30Z</time>
      </trkpt>
      <trkpt lat="44.31347" lon="5.83106">
        <ele>567</ele>
        <time>2019-03-27T16:24:31Z</time>
      </trkpt>
      <trkpt lat="44.31351" lon="5.83105">
        <ele>567</ele>
        <time>2019-03-27T16:24:32Z</time>
      </trkpt>
      <trkpt lat="44.31356" lon="5.83102">
        <ele>567</ele>
        <time>2019-03-27T16:24:33Z</time>
      </trkpt>
      <trkpt lat="44.31361" lon="5.83099">
        <ele>567</ele>
        <time>2019-03-27T16:24:34Z</time>
      </trkpt>
      <trkpt lat="44.31365" lon="5.83095">
        <ele>567</ele>
        <time>2019-03-27T16:24:35Z</time>
      </trkpt>
      <trkpt lat="44.31366" lon="5.8309">
        <ele>567</ele>
        <time>2019-03-27T16:24:36Z</time>
      </trkpt>
      <trkpt lat="44.31369" lon="5.83085">
        <ele>567</ele>
        <time>2019-03-27T16:24:37Z</time>
      </trkpt>
      <trkpt lat="44.31371" lon="5.8308">
        <ele>567</ele>
        <time>2019-03-27T16:24:38Z</time>
      </trkpt>
      <trkpt lat="44.31374" lon="5.83075">
        <ele>567</ele>
        <time>2019-03-27T16:24:39Z</time>
      </trkpt>
      <trkpt lat="44.31376" lon="5.8307">
        <ele>567</ele>
        <time>2019-03-27T16:24:40Z</time>
      </trkpt>
      <trkpt lat="44.31378" lon="5.83065">
        <ele>567</ele>
        <time>2019-03-27T16:24:41Z</time>
      </trkpt>
      <trkpt lat="44.31381" lon="5.8306">
        <ele>567</ele>
        <time>2019-03-27T16:24:42Z</time>
      </trkpt>
      <trkpt lat="44.31383" lon="5.83055">
        <ele>567</ele>
        <time>2019-03-27T16:24:43Z</time>
      </trkpt>
      <trkpt lat="44.31386" lon="5.8305">
        <ele>567</ele>
        <time>2019-03-27T16:24:44Z</time>
      </trkpt>
      <trkpt lat="44.31389" lon="5.83045">
        <ele>567</ele>
        <time>2019-03-27T16:24:45Z</time>
      </trkpt>
      <trkpt lat="44.31392" lon="5.83041">
        <ele>567</ele>
        <time>2019-03-27T16:24:46Z</time>
      </trkpt>
      <trkpt lat="44.31395" lon="5.83037">
        <ele>567</ele>
        <time>2019-03-27T16:24:47Z</time>
      </trkpt>
      <trkpt lat="44.31399" lon="5.83032">
        <ele>567</ele>
        <time>2019-03-27T16:24:48Z</time>
      </trkpt>
      <trkpt lat="44.31402" lon="5.83027">
        <ele>567</ele>
        <time>2019-03-27T16:24:49Z</time>
      </trkpt>
      <trkpt lat="44.31405" lon="5.83022">
        <ele>567</ele>
        <time>2019-03-27T16:24:50Z</time>
      </trkpt>
      <trkpt lat="44.31409" lon="5.83016">
        <ele>567</ele>
        <time>2019-03-27T16:24:51Z</time>
      </trkpt>
      <trkpt lat="44.31412" lon="5.83011">
        <ele>567</ele>
        <time>2019-03-27T16:24:52Z</time>
      </trkpt>
      <trkpt lat="44.31415" lon="5.83006">
        <ele>567</ele>
        <time>2019-03-27T16:24:53Z</time>
      </trkpt>
      <trkpt lat="44.31419" lon="5.83001">
        <ele>567</ele>
        <time>2019-03-27T16:24:54Z</time>
      </trkpt>
      <trkpt lat="44.31422" lon="5.82996">
        <ele>567</ele>
        <time>2019-03-27T16:24:55Z</time>
      </trkpt>
      <trkpt lat="44.31425" lon="5.82991">
        <ele>567</ele>
        <time>2019-03-27T16:24:56Z</time>
      </trkpt>
      <trkpt lat="44.31429" lon="5.82986">
        <ele>567</ele>
        <time>2019-03-27T16:24:57Z</time>
      </trkpt>
      <trkpt lat="44.31432" lon="5.8298">
        <ele>567</ele>
        <time>2019-03-27T16:24:58Z</time>
      </trkpt>
      <trkpt lat="44.31435" lon="5.82976">
        <ele>567</ele>
        <time>2019-03-27T16:24:59Z</time>
      </trkpt>
      <trkpt lat="44.31438" lon="5.82971">
        <ele>567</ele>
        <time>2019-03-27T16:25:00Z</time>
      </trkpt>
      <trkpt lat="44.31442" lon="5.82966">
        <ele>567</ele>
        <time>2019-03-27T16:25:01Z</time>
      </trkpt>
      <trkpt lat="44.31445" lon="5.82961">
        <ele>567</ele>
        <time>2019-03-27T16:25:02Z</time>
      </trkpt>
      <trkpt lat="44.31448" lon="5.82956">
        <ele>567</ele>
        <time>2019-03-27T16:25:03Z</time>
      </trkpt>
      <trkpt lat="44.31451" lon="5.82951">
        <ele>567</ele>
        <time>2019-03-27T16:25:04Z</time>
      </trkpt>
      <trkpt lat="44.31454" lon="5.82946">
        <ele>567</ele>
        <time>2019-03-27T16:25:05Z</time>
      </trkpt>
      <trkpt lat="44.31458" lon="5.8294">
        <ele>567</ele>
        <time>2019-03-27T16:25:06Z</time>
      </trkpt>
      <trkpt lat="44.31461" lon="5.82935">
        <ele>567</ele>
        <time>2019-03-27T16:25:07Z</time>
      </trkpt>
      <trkpt lat="44.31464" lon="5.8293">
        <ele>567</ele>
        <time>2019-03-27T16:25:08Z</time>
      </trkpt>
      <trkpt lat="44.31467" lon="5.82925">
        <ele>567</ele>
        <time>2019-03-27T16:25:09Z</time>
      </trkpt>
      <trkpt lat="44.31469" lon="5.82921">
        <ele>567</ele>
        <time>2019-03-27T16:25:10Z</time>
      </trkpt>
      <trkpt lat="44.31473" lon="5.82917">
        <ele>567</ele>
        <time>2019-03-27T16:25:11Z</time>
      </trkpt>
      <trkpt lat="44.31475" lon="5.82913">
        <ele>567</ele>
        <time>2019-03-27T16:25:12Z</time>
      </trkpt>
      <trkpt lat="44.31479" lon="5.82908">
        <ele>567</ele>
        <time>2019-03-27T16:25:13Z</time>
      </trkpt>
      <trkpt lat="44.31482" lon="5.82904">
        <ele>567</ele>
        <time>2019-03-27T16:25:14Z</time>
      </trkpt>
      <trkpt lat="44.31485" lon="5.82899">
        <ele>567</ele>
        <time>2019-03-27T16:25:15Z</time>
      </trkpt>
      <trkpt lat="44.31489" lon="5.82895">
        <ele>567</ele>
        <time>2019-03-27T16:25:16Z</time>
      </trkpt>
      <trkpt lat="44.31492" lon="5.82891">
        <ele>567</ele>
        <time>2019-03-27T16:25:17Z</time>
      </trkpt>
      <trkpt lat="44.31496" lon="5.82886">
        <ele>567</ele>
        <time>2019-03-27T16:25:18Z</time>
      </trkpt>
      <trkpt lat="44.31499" lon="5.82882">
        <ele>567</ele>
        <time>2019-03-27T16:25:19Z</time>
      </trkpt>
      <trkpt lat="44.31503" lon="5.82878">
        <ele>567</ele>
        <time>2019-03-27T16:25:20Z</time>
      </trkpt>
      <trkpt lat="44.31506" lon="5.82876">
        <ele>567</ele>
        <time>2019-03-27T16:25:21Z</time>
      </trkpt>
      <trkpt lat="44.31509" lon="5.82876">
        <ele>567</ele>
        <time>2019-03-27T16:25:22Z</time>
      </trkpt>
      <trkpt lat="44.31513" lon="5.82877">
        <ele>567</ele>
        <time>2019-03-27T16:25:23Z</time>
      </trkpt>
      <trkpt lat="44.31516" lon="5.8288">
        <ele>567</ele>
        <time>2019-03-27T16:25:24Z</time>
      </trkpt>
      <trkpt lat="44.31519" lon="5.82884">
        <ele>567</ele>
        <time>2019-03-27T16:25:25Z</time>
      </trkpt>
      <trkpt lat="44.31523" lon="5.82886">
        <ele>567</ele>
        <time>2019-03-27T16:25:26Z</time>
      </trkpt>
      <trkpt lat="44.31526" lon="5.82889">
        <ele>567</ele>
        <time>2019-03-27T16:25:27Z</time>
      </trkpt>
      <trkpt lat="44.31529" lon="5.82893">
        <ele>567</ele>
        <time>2019-03-27T16:25:28Z</time>
      </trkpt>
      <trkpt lat="44.31532" lon="5.82895">
        <ele>567</ele>
        <time>2019-03-27T16:25:29Z</time>
      </trkpt>
      <trkpt lat="44.31535" lon="5.82898">
        <ele>567</ele>
        <time>2019-03-27T16:25:30Z</time>
      </trkpt>
      <trkpt lat="44.31538" lon="5.829">
        <ele>567</ele>
        <time>2019-03-27T16:25:31Z</time>
      </trkpt>
      <trkpt lat="44.31541" lon="5.82903">
        <ele>567</ele>
        <time>2019-03-27T16:25:32Z</time>
      </trkpt>
      <trkpt lat="44.31544" lon="5.82906">
        <ele>567</ele>
        <time>2019-03-27T16:25:33Z</time>
      </trkpt>
      <trkpt lat="44.31547" lon="5.82909">
        <ele>567</ele>
        <time>2019-03-27T16:25:34Z</time>
      </trkpt>
      <trkpt lat="44.31551" lon="5.82912">
        <ele>567</ele>
        <time>2019-03-27T16:25:35Z</time>
      </trkpt>
      <trkpt lat="44.31554" lon="5.82914">
        <ele>567</ele>
        <time>2019-03-27T16:25:36Z</time>
      </trkpt>
      <trkpt lat="44.31557" lon="5.82916">
        <ele>567</ele>
        <time>2019-03-27T16:25:37Z</time>
      </trkpt>
      <trkpt lat="44.3156" lon="5.82917">
        <ele>567</ele>
        <time>2019-03-27T16:25:38Z</time>
      </trkpt>
      <trkpt lat="44.31563" lon="5.82919">
        <ele>568</ele>
        <time>2019-03-27T16:25:39Z</time>
      </trkpt>
      <trkpt lat="44.31566" lon="5.82921">
        <ele>568</ele>
        <time>2019-03-27T16:25:40Z</time>
      </trkpt>
      <trkpt lat="44.31569" lon="5.82923">
        <ele>568</ele>
        <time>2019-03-27T16:25:41Z</time>
      </trkpt>
      <trkpt lat="44.31572" lon="5.82926">
        <ele>569</ele>
        <time>2019-03-27T16:25:42Z</time>
      </trkpt>
      <trkpt lat="44.31575" lon="5.82927">
        <ele>569</ele>
        <time>2019-03-27T16:25:43Z</time>
      </trkpt>
      <trkpt lat="44.31577" lon="5.82929">
        <ele>569</ele>
        <time>2019-03-27T16:25:44Z</time>
      </trkpt>
      <trkpt lat="44.3158" lon="5.82931">
        <ele>569</ele>
        <time>2019-03-27T16:25:45Z</time>
      </trkpt>
      <trkpt lat="44.31582" lon="5.82933">
        <ele>569</ele>
        <time>2019-03-27T16:25:46Z</time>
      </trkpt>
      <trkpt lat="44.31584" lon="5.82934">
        <ele>569</ele>
        <time>2019-03-27T16:25:47Z</time>
      </trkpt>
      <trkpt lat="44.31586" lon="5.82936">
        <ele>570</ele>
        <time>2019-03-27T16:25:48Z</time>
      </trkpt>
      <trkpt lat="44.31589" lon="5.82937">
        <ele>570</ele>
        <time>2019-03-27T16:25:49Z</time>
      </trkpt>
      <trkpt lat="44.31591" lon="5.82939">
        <ele>570</ele>
        <time>2019-03-27T16:25:50Z</time>
      </trkpt>
      <trkpt lat="44.31593" lon="5.8294">
        <ele>570</ele>
        <time>2019-03-27T16:25:51Z</time>
      </trkpt>
      <trkpt lat="44.31594" lon="5.82941">
        <ele>570</ele>
        <time>2019-03-27T16:25:52Z</time>
      </trkpt>
      <trkpt lat="44.31596" lon="5.82942">
        <ele>571</ele>
        <time>2019-03-27T16:25:53Z</time>
      </trkpt>
      <trkpt lat="44.31597" lon="5.82943">
        <ele>571</ele>
        <time>2019-03-27T16:25:54Z</time>
      </trkpt>
      <trkpt lat="44.31598" lon="5.82944">
        <ele>571</ele>
        <time>2019-03-27T16:25:55Z</time>
      </trkpt>
      <trkpt lat="44.31599" lon="5.82945">
        <ele>571</ele>
        <time>2019-03-27T16:25:56Z</time>
      </trkpt>
      <trkpt lat="44.316" lon="5.82946">
        <ele>571</ele>
        <time>2019-03-27T16:26:02Z</time>
      </trkpt>
      <trkpt lat="44.316" lon="5.82945">
        <ele>571</ele>
        <time>2019-03-27T16:26:11Z</time>
      </trkpt>
      <trkpt lat="44.316" lon="5.82944">
        <ele>572</ele>
        <time>2019-03-27T16:26:19Z</time>
      </trkpt>
    </trkseg>
  </trk>
</gpx>